<?xml version='1.0' encoding='UTF-8'?><gpx version="1.1" creator="JPX - https://github.com/jenetics/jpx" xmlns="http://www.topografix.com/GPX/1/1"><trk><trkseg><trkpt lat="36.91305020180027" lon="15.151478935266073"><ele>12.4</ele><time>2026-03-28T13:53:20Z</time></trkpt><trkpt lat="36.91311426801926" lon="15.151549733661613"><ele>11.8</ele><time>2026-03-28T13:53:27Z</time></trkpt><trkpt lat="36.913113661791755" lon="15.151672562231397"><ele>11.2</ele><time>2026-03-28T13:53:30Z</time></trkpt><trkpt lat="36.91303140373036" lon="15.151749244545282"><ele>10.6</ele><time>2026-03-28T13:53:32Z</time></trkpt><trkpt lat="36.91292350484234" lon="15.151896629888187"><ele>10.0</ele><time>2026-03-28T13:53:34Z</time></trkpt><trkpt lat="36.91289590181759" lon="15.151967703590634"><ele>10.0</ele><time>2026-03-28T13:53:35Z</time></trkpt><trkpt lat="36.91286629383558" lon="15.152059665468643"><ele>10.0</ele><time>2026-03-28T13:53:37Z</time></trkpt><trkpt lat="36.91280299751626" lon="15.152131463894536"><ele>10.0</ele><time>2026-03-28T13:53:39Z</time></trkpt><trkpt lat="36.9126950187331" lon="15.152097717339048"><ele>10.0</ele><time>2026-03-28T13:53:41Z</time></trkpt><trkpt lat="36.91258361821277" lon="15.152051587174093"><ele>10.0</ele><time>2026-03-28T13:53:43Z</time></trkpt><trkpt lat="36.912503570739986" lon="15.15199480382886"><ele>9.6</ele><time>2026-03-28T13:53:45Z</time></trkpt><trkpt lat="36.912400300777215" lon="15.151927637302888"><ele>9.2</ele><time>2026-03-28T13:53:47Z</time></trkpt><trkpt lat="36.912294986223706" lon="15.151878611446284"><ele>8.8</ele><time>2026-03-28T13:53:49Z</time></trkpt><trkpt lat="36.9122338633795" lon="15.151839789228182"><ele>8.4</ele><time>2026-03-28T13:53:50Z</time></trkpt><trkpt lat="36.91214070316345" lon="15.151783734439748"><ele>8.0</ele><time>2026-03-28T13:53:52Z</time></trkpt><trkpt lat="36.91208129566249" lon="15.151756500509514"><ele>8.0</ele><time>2026-03-28T13:53:54Z</time></trkpt><trkpt lat="36.911958399987725" lon="15.15168040994797"><ele>8.0</ele><time>2026-03-28T13:53:56Z</time></trkpt><trkpt lat="36.911867148152744" lon="15.15163248314791"><ele>8.0</ele><time>2026-03-28T13:53:57Z</time></trkpt><trkpt lat="36.91176593640153" lon="15.151574761646305"><ele>8.0</ele><time>2026-03-28T13:53:58Z</time></trkpt><trkpt lat="36.91168732179957" lon="15.151520266107998"><ele>8.0</ele><time>2026-03-28T13:53:59Z</time></trkpt><trkpt lat="36.91161745358854" lon="15.151475493856829"><ele>8.666666666666666</ele><time>2026-03-28T13:54:00Z</time></trkpt><trkpt lat="36.911539175324236" lon="15.151432933407852"><ele>9.333333333333332</ele><time>2026-03-28T13:54:01Z</time></trkpt><trkpt lat="36.911468411779055" lon="15.151396203893622"><ele>10.0</ele><time>2026-03-28T13:54:02Z</time></trkpt><trkpt lat="36.911376122095774" lon="15.151330019368373"><ele>10.666666666666666</ele><time>2026-03-28T13:54:04Z</time></trkpt><trkpt lat="36.911316975352335" lon="15.151293512109227"><ele>11.333333333333334</ele><time>2026-03-28T13:54:04.999Z</time></trkpt><trkpt lat="36.91125710869341" lon="15.151267079797668"><ele>12.0</ele><time>2026-03-28T13:54:05.999Z</time></trkpt><trkpt lat="36.91118229910595" lon="15.151243785211463"><ele>12.0</ele><time>2026-03-28T13:54:06.999Z</time></trkpt><trkpt lat="36.91109185626824" lon="15.151211650970266"><ele>12.0</ele><time>2026-03-28T13:54:07.999Z</time></trkpt><trkpt lat="36.910992067315426" lon="15.151183872954686"><ele>12.0</ele><time>2026-03-28T13:54:08.999Z</time></trkpt><trkpt lat="36.91091823868014" lon="15.151165169991964"><ele>12.0</ele><time>2026-03-28T13:54:09.999Z</time></trkpt><trkpt lat="36.91085380668543" lon="15.151141042991062"><ele>12.0</ele><time>2026-03-28T13:54:10.999Z</time></trkpt><trkpt lat="36.91072902197333" lon="15.151096983097743"><ele>11.833333333333334</ele><time>2026-03-28T13:54:12.999Z</time></trkpt><trkpt lat="36.910646636130835" lon="15.151072517719614"><ele>11.666666666666666</ele><time>2026-03-28T13:54:13.999Z</time></trkpt><trkpt lat="36.910564498654004" lon="15.151052022243059"><ele>11.5</ele><time>2026-03-28T13:54:14.999Z</time></trkpt><trkpt lat="36.91048154944619" lon="15.151024006201355"><ele>11.333333333333332</ele><time>2026-03-28T13:54:15.999Z</time></trkpt><trkpt lat="36.910408466768786" lon="15.150996874823969"><ele>11.166666666666666</ele><time>2026-03-28T13:54:16.999Z</time></trkpt><trkpt lat="36.910339894312884" lon="15.150975424148477"><ele>11.0</ele><time>2026-03-28T13:54:17.999Z</time></trkpt><trkpt lat="36.910268084276396" lon="15.150949241590006"><ele>11.0</ele><time>2026-03-28T13:54:18.999Z</time></trkpt><trkpt lat="36.910142650834906" lon="15.15090178028498"><ele>11.0</ele><time>2026-03-28T13:54:20.999Z</time></trkpt><trkpt lat="36.9100758342205" lon="15.150870879248988"><ele>11.0</ele><time>2026-03-28T13:54:21.999Z</time></trkpt><trkpt lat="36.910006728135535" lon="15.150837372114015"><ele>11.0</ele><time>2026-03-28T13:54:22.999Z</time></trkpt><trkpt lat="36.909936742782655" lon="15.15080640133725"><ele>11.0</ele><time>2026-03-28T13:54:23.999Z</time></trkpt><trkpt lat="36.90987691011776" lon="15.150776399961698"><ele>11.0</ele><time>2026-03-28T13:54:24.999Z</time></trkpt><trkpt lat="36.90981116796119" lon="15.150743267721651"><ele>11.200000000000001</ele><time>2026-03-28T13:54:25.999Z</time></trkpt><trkpt lat="36.909741093521724" lon="15.150706428341204"><ele>11.4</ele><time>2026-03-28T13:54:26.999Z</time></trkpt><trkpt lat="36.90967061655836" lon="15.15067064362372"><ele>11.6</ele><time>2026-03-28T13:54:27.999Z</time></trkpt><trkpt lat="36.909585501551234" lon="15.150624606279527"><ele>11.8</ele><time>2026-03-28T13:54:28.999Z</time></trkpt><trkpt lat="36.90948931602491" lon="15.150552386891578"><ele>12.0</ele><time>2026-03-28T13:54:29.999Z</time></trkpt><trkpt lat="36.90936283315963" lon="15.150505898017904"><ele>12.0</ele><time>2026-03-28T13:54:30.999Z</time></trkpt><trkpt lat="36.90924273828296" lon="15.150440681471816"><ele>12.0</ele><time>2026-03-28T13:54:31.999Z</time></trkpt><trkpt lat="36.9091407700277" lon="15.150364242491028"><ele>12.0</ele><time>2026-03-28T13:54:32.999Z</time></trkpt><trkpt lat="36.90904984174812" lon="15.150328028193735"><ele>12.0</ele><time>2026-03-28T13:54:33.999Z</time></trkpt><trkpt lat="36.90895820653874" lon="15.150278758540754"><ele>12.0</ele><time>2026-03-28T13:54:34.999Z</time></trkpt><trkpt lat="36.90885861542844" lon="15.150226719906799"><ele>11.5</ele><time>2026-03-28T13:54:35.999Z</time></trkpt><trkpt lat="36.90874731862097" lon="15.150166884085296"><ele>11.0</ele><time>2026-03-28T13:54:36.999Z</time></trkpt><trkpt lat="36.90862991049982" lon="15.150103351582604"><ele>10.5</ele><time>2026-03-28T13:54:37.999Z</time></trkpt><trkpt lat="36.9085124677273" lon="15.150048320444183"><ele>10.0</ele><time>2026-03-28T13:54:38.999Z</time></trkpt><trkpt lat="36.908399427572604" lon="15.149997911069516"><ele>9.6</ele><time>2026-03-28T13:54:39.999Z</time></trkpt><trkpt lat="36.90829958950996" lon="15.149962216823267"><ele>9.2</ele><time>2026-03-28T13:54:40.999Z</time></trkpt><trkpt lat="36.908209715292024" lon="15.149944179278904"><ele>8.8</ele><time>2026-03-28T13:54:41.999Z</time></trkpt><trkpt lat="36.908121983150586" lon="15.149906905223949"><ele>8.4</ele><time>2026-03-28T13:54:43Z</time></trkpt><trkpt lat="36.90799482965202" lon="15.149891753540002"><ele>8.0</ele><time>2026-03-28T13:54:44Z</time></trkpt><trkpt lat="36.90786717899067" lon="15.149842977195087"><ele>8.8</ele><time>2026-03-28T13:54:45Z</time></trkpt><trkpt lat="36.90775105290449" lon="15.14978805457898"><ele>9.600000000000001</ele><time>2026-03-28T13:54:46Z</time></trkpt><trkpt lat="36.90766019851643" lon="15.149723374235531"><ele>10.399999999999999</ele><time>2026-03-28T13:54:47Z</time></trkpt><trkpt lat="36.90759915756733" lon="15.149671982659253"><ele>11.2</ele><time>2026-03-28T13:54:48Z</time></trkpt><trkpt lat="36.907532468421714" lon="15.149602841688768"><ele>12.0</ele><time>2026-03-28T13:54:50Z</time></trkpt><trkpt lat="36.90748712880005" lon="15.149531249380502"><ele>12.0</ele><time>2026-03-28T13:54:52Z</time></trkpt><trkpt lat="36.90742868457763" lon="15.14943506588024"><ele>12.0</ele><time>2026-03-28T13:54:54Z</time></trkpt><trkpt lat="36.90734950086709" lon="15.149299819030723"><ele>12.0</ele><time>2026-03-28T13:54:56Z</time></trkpt><trkpt lat="36.90728323970433" lon="15.14918561753631"><ele>12.0</ele><time>2026-03-28T13:54:57Z</time></trkpt><trkpt lat="36.90720639895453" lon="15.149054101443319"><ele>12.75</ele><time>2026-03-28T13:54:58Z</time></trkpt><trkpt lat="36.907117326561355" lon="15.14890261625032"><ele>13.5</ele><time>2026-03-28T13:54:59Z</time></trkpt><trkpt lat="36.90703195513736" lon="15.148763296036377"><ele>14.25</ele><time>2026-03-28T13:55:00Z</time></trkpt><trkpt lat="36.906953402114034" lon="15.148659292134926"><ele>15.0</ele><time>2026-03-28T13:55:01Z</time></trkpt><trkpt lat="36.90689468781819" lon="15.148561763917604"><ele>15.0</ele><time>2026-03-28T13:55:02Z</time></trkpt><trkpt lat="36.90683540377073" lon="15.148482661000818"><ele>15.0</ele><time>2026-03-28T13:55:03Z</time></trkpt><trkpt lat="36.90676697166568" lon="15.148409084286842"><ele>15.0</ele><time>2026-03-28T13:55:04Z</time></trkpt><trkpt lat="36.90668593755086" lon="15.148338934303187"><ele>15.0</ele><time>2026-03-28T13:55:05Z</time></trkpt><trkpt lat="36.90659427805126" lon="15.148273340042222"><ele>15.0</ele><time>2026-03-28T13:55:06Z</time></trkpt><trkpt lat="36.90649211185091" lon="15.148217396458866"><ele>15.0</ele><time>2026-03-28T13:55:07Z</time></trkpt><trkpt lat="36.90637859177428" lon="15.148175235022679"><ele>15.0</ele><time>2026-03-28T13:55:08Z</time></trkpt><trkpt lat="36.90625632861383" lon="15.148140863241519"><ele>15.0</ele><time>2026-03-28T13:55:09Z</time></trkpt><trkpt lat="36.90612715191763" lon="15.148104088886114"><ele>15.0</ele><time>2026-03-28T13:55:10Z</time></trkpt><trkpt lat="36.90599836003108" lon="15.148066755367067"><ele>14.75</ele><time>2026-03-28T13:55:11Z</time></trkpt><trkpt lat="36.90586820771982" lon="15.148023600049072"><ele>14.5</ele><time>2026-03-28T13:55:12Z</time></trkpt><trkpt lat="36.90573409956481" lon="15.147972209249591"><ele>14.25</ele><time>2026-03-28T13:55:13Z</time></trkpt><trkpt lat="36.905591733604396" lon="15.147924034870764"><ele>14.0</ele><time>2026-03-28T13:55:14Z</time></trkpt><trkpt lat="36.90544297011644" lon="15.147881984201506"><ele>14.0</ele><time>2026-03-28T13:55:15Z</time></trkpt><trkpt lat="36.90528814918994" lon="15.14783724465885"><ele>14.0</ele><time>2026-03-28T13:55:16Z</time></trkpt><trkpt lat="36.90512290941319" lon="15.147786360370366"><ele>14.0</ele><time>2026-03-28T13:55:17Z</time></trkpt><trkpt lat="36.90496062730039" lon="15.147731813823286"><ele>13.0</ele><time>2026-03-28T13:55:18Z</time></trkpt><trkpt lat="36.904812642050125" lon="15.14768671136839"><ele>12.0</ele><time>2026-03-28T13:55:19Z</time></trkpt><trkpt lat="36.9046607711332" lon="15.1476435605464"><ele>11.0</ele><time>2026-03-28T13:55:20Z</time></trkpt><trkpt lat="36.904511413561245" lon="15.147610932355727"><ele>11.0</ele><time>2026-03-28T13:55:21Z</time></trkpt><trkpt lat="36.90436985521713" lon="15.147579232424768"><ele>11.0</ele><time>2026-03-28T13:55:22Z</time></trkpt><trkpt lat="36.904235539025635" lon="15.147519673587965"><ele>11.0</ele><time>2026-03-28T13:55:23Z</time></trkpt><trkpt lat="36.90410048068579" lon="15.147499452072028"><ele>11.0</ele><time>2026-03-28T13:55:24Z</time></trkpt><trkpt lat="36.90397989399977" lon="15.147461986008262"><ele>10.8</ele><time>2026-03-28T13:55:25Z</time></trkpt><trkpt lat="36.9038741842172" lon="15.147433605950317"><ele>10.600000000000001</ele><time>2026-03-28T13:55:26Z</time></trkpt><trkpt lat="36.90378720233434" lon="15.147407622111105"><ele>10.4</ele><time>2026-03-28T13:55:27Z</time></trkpt><trkpt lat="36.90370947919203" lon="15.147361926090138"><ele>10.2</ele><time>2026-03-28T13:55:28Z</time></trkpt><trkpt lat="36.90363080056719" lon="15.147329506849482"><ele>10.0</ele><time>2026-03-28T13:55:29Z</time></trkpt><trkpt lat="36.90355362164317" lon="15.147280404589038"><ele>11.0</ele><time>2026-03-28T13:55:30Z</time></trkpt><trkpt lat="36.90347073057269" lon="15.147172012935938"><ele>12.0</ele><time>2026-03-28T13:55:31Z</time></trkpt><trkpt lat="36.90335502954923" lon="15.14702739655283"><ele>13.0</ele><time>2026-03-28T13:55:32Z</time></trkpt><trkpt lat="36.903229044049425" lon="15.146865473610363"><ele>13.0</ele><time>2026-03-28T13:55:33Z</time></trkpt><trkpt lat="36.90309937955848" lon="15.14669882201532"><ele>13.0</ele><time>2026-03-28T13:55:34Z</time></trkpt><trkpt lat="36.902951471070715" lon="15.146524410123119"><ele>13.0</ele><time>2026-03-28T13:55:35Z</time></trkpt><trkpt lat="36.90280774062817" lon="15.146332828886171"><ele>13.666666666666666</ele><time>2026-03-28T13:55:36Z</time></trkpt><trkpt lat="36.90265908505309" lon="15.14614086310597"><ele>14.333333333333332</ele><time>2026-03-28T13:55:37Z</time></trkpt><trkpt lat="36.902514767945476" lon="15.145958876362785"><ele>15.0</ele><time>2026-03-28T13:55:38Z</time></trkpt><trkpt lat="36.902385240786" lon="15.145793069295053"><ele>15.333333333333332</ele><time>2026-03-28T13:55:39Z</time></trkpt><trkpt lat="36.90226896003872" lon="15.1456400644642"><ele>15.666666666666666</ele><time>2026-03-28T13:55:40Z</time></trkpt><trkpt lat="36.902161938332064" lon="15.145501283467128"><ele>16.0</ele><time>2026-03-28T13:55:41Z</time></trkpt><trkpt lat="36.90206072356908" lon="15.145374506706595"><ele>16.0</ele><time>2026-03-28T13:55:42Z</time></trkpt><trkpt lat="36.90196510283708" lon="15.145260363568473"><ele>16.0</ele><time>2026-03-28T13:55:43Z</time></trkpt><trkpt lat="36.90188502898532" lon="15.145134179107522"><ele>16.0</ele><time>2026-03-28T13:55:44Z</time></trkpt><trkpt lat="36.90179772958186" lon="15.145021012293393"><ele>16.0</ele><time>2026-03-28T13:55:45Z</time></trkpt><trkpt lat="36.90172095122815" lon="15.144920989443126"><ele>15.833333333333332</ele><time>2026-03-28T13:55:46Z</time></trkpt><trkpt lat="36.901654213561244" lon="15.144834047113639"><ele>15.666666666666666</ele><time>2026-03-28T13:55:47Z</time></trkpt><trkpt lat="36.90160823048785" lon="15.14477414275027"><ele>15.5</ele><time>2026-03-28T13:55:48Z</time></trkpt><trkpt lat="36.901564570713795" lon="15.144717112412366"><ele>15.333333333333332</ele><time>2026-03-28T13:55:49Z</time></trkpt><trkpt lat="36.90151774659881" lon="15.144655889538138"><ele>15.166666666666666</ele><time>2026-03-28T13:55:50Z</time></trkpt><trkpt lat="36.901444211622014" lon="15.14455974216358"><ele>15.0</ele><time>2026-03-28T13:55:52Z</time></trkpt><trkpt lat="36.90136224002861" lon="15.144457472233798"><ele>15.0</ele><time>2026-03-28T13:55:54Z</time></trkpt><trkpt lat="36.90122745992183" lon="15.14451127298522"><ele>15.0</ele><time>2026-03-28T13:55:57Z</time></trkpt><trkpt lat="36.901154651970934" lon="15.144622703701708"><ele>15.0</ele><time>2026-03-28T13:55:58Z</time></trkpt><trkpt lat="36.90105682773597" lon="15.144767217329605"><ele>15.0</ele><time>2026-03-28T13:55:59Z</time></trkpt><trkpt lat="36.90095306624458" lon="15.144876933419551"><ele>14.4</ele><time>2026-03-28T13:56:00Z</time></trkpt><trkpt lat="36.900888551224355" lon="15.144978697879562"><ele>13.8</ele><time>2026-03-28T13:56:01Z</time></trkpt><trkpt lat="36.900826166438634" lon="15.145048891004247"><ele>13.2</ele><time>2026-03-28T13:56:02Z</time></trkpt><trkpt lat="36.90074936468404" lon="15.145099197609907"><ele>12.6</ele><time>2026-03-28T13:56:03Z</time></trkpt><trkpt lat="36.900651810065305" lon="15.145163635810615"><ele>12.0</ele><time>2026-03-28T13:56:04Z</time></trkpt><trkpt lat="36.90057658501843" lon="15.145198356025261"><ele>12.0</ele><time>2026-03-28T13:56:05Z</time></trkpt><trkpt lat="36.9005179339436" lon="15.145263419968204"><ele>12.0</ele><time>2026-03-28T13:56:06Z</time></trkpt><trkpt lat="36.900438212603476" lon="15.145255542433661"><ele>12.0</ele><time>2026-03-28T13:56:07Z</time></trkpt><trkpt lat="36.90035321486435" lon="15.14514221659106"><ele>12.0</ele><time>2026-03-28T13:56:08Z</time></trkpt><trkpt lat="36.90025446713031" lon="15.145042548688195"><ele>12.0</ele><time>2026-03-28T13:56:09Z</time></trkpt><trkpt lat="36.90016066736754" lon="15.144949008880072"><ele>12.0</ele><time>2026-03-28T13:56:10Z</time></trkpt><trkpt lat="36.90009987833201" lon="15.144871378371107"><ele>12.0</ele><time>2026-03-28T13:56:11Z</time></trkpt><trkpt lat="36.90003999133244" lon="15.144822952235813"><ele>12.0</ele><time>2026-03-28T13:56:12Z</time></trkpt><trkpt lat="36.89994925646485" lon="15.14483397573685"><ele>12.0</ele><time>2026-03-28T13:56:14Z</time></trkpt><trkpt lat="36.899853541298" lon="15.144985569267561"><ele>12.0</ele><time>2026-03-28T13:56:16Z</time></trkpt><trkpt lat="36.899801252043375" lon="15.145076943814606"><ele>11.666666666666666</ele><time>2026-03-28T13:56:17Z</time></trkpt><trkpt lat="36.899749472066404" lon="15.145174825297158"><ele>11.333333333333334</ele><time>2026-03-28T13:56:18Z</time></trkpt><trkpt lat="36.89970514898297" lon="15.145239144939268"><ele>11.0</ele><time>2026-03-28T13:56:19.999Z</time></trkpt><trkpt lat="36.89963102624978" lon="15.145131497783103"><ele>10.666666666666668</ele><time>2026-03-28T13:56:21.999Z</time></trkpt><trkpt lat="36.899579661401134" lon="15.145080241891591"><ele>10.333333333333334</ele><time>2026-03-28T13:56:22.999Z</time></trkpt><trkpt lat="36.8995200705718" lon="15.145039687025225"><ele>10.0</ele><time>2026-03-28T13:56:23.999Z</time></trkpt><trkpt lat="36.89946097251441" lon="15.144984019956803"><ele>10.0</ele><time>2026-03-28T13:56:25.999Z</time></trkpt><trkpt lat="36.899397237779795" lon="15.14501706803658"><ele>10.0</ele><time>2026-03-28T13:56:50Z</time></trkpt><trkpt lat="36.899331965162" lon="15.145108684667756"><ele>10.0</ele><time>2026-03-28T13:56:52Z</time></trkpt><trkpt lat="36.89924592954333" lon="15.145002311311533"><ele>10.0</ele><time>2026-03-28T13:56:53Z</time></trkpt><trkpt lat="36.89918110756762" lon="15.144953191240297"><ele>10.0</ele><time>2026-03-28T13:56:54Z</time></trkpt><trkpt lat="36.89912545448183" lon="15.144910824606649"><ele>10.0</ele><time>2026-03-28T13:56:55Z</time></trkpt><trkpt lat="36.899019670696504" lon="15.14482854314793"><ele>10.4</ele><time>2026-03-28T13:56:57Z</time></trkpt><trkpt lat="36.898940936895585" lon="15.144754836976526"><ele>10.8</ele><time>2026-03-28T13:56:58Z</time></trkpt><trkpt lat="36.898835326101015" lon="15.144649491926089"><ele>11.2</ele><time>2026-03-28T13:56:59Z</time></trkpt><trkpt lat="36.89875759466539" lon="15.144571836252975"><ele>11.6</ele><time>2026-03-28T13:57:00Z</time></trkpt><trkpt lat="36.8986720557702" lon="15.144508064660009"><ele>12.0</ele><time>2026-03-28T13:57:01Z</time></trkpt><trkpt lat="36.89860247896396" lon="15.14442953065735"><ele>12.0</ele><time>2026-03-28T13:57:02Z</time></trkpt><trkpt lat="36.898538194074156" lon="15.144357267762953"><ele>12.0</ele><time>2026-03-28T13:57:03Z</time></trkpt><trkpt lat="36.89846694833593" lon="15.144287311179173"><ele>12.0</ele><time>2026-03-28T13:57:04Z</time></trkpt><trkpt lat="36.89838574836987" lon="15.144210519246203"><ele>12.0</ele><time>2026-03-28T13:57:05Z</time></trkpt><trkpt lat="36.8982942185898" lon="15.144118499589117"><ele>12.0</ele><time>2026-03-28T13:57:06Z</time></trkpt><trkpt lat="36.89820256415369" lon="15.144033206632088"><ele>11.6</ele><time>2026-03-28T13:57:07Z</time></trkpt><trkpt lat="36.898124712161994" lon="15.143969369882178"><ele>11.2</ele><time>2026-03-28T13:57:08Z</time></trkpt><trkpt lat="36.89803076107413" lon="15.143912280201992"><ele>10.8</ele><time>2026-03-28T13:57:09Z</time></trkpt><trkpt lat="36.897922560188974" lon="15.143863703711954"><ele>10.4</ele><time>2026-03-28T13:57:10Z</time></trkpt><trkpt lat="36.89780544011208" lon="15.143827193584748"><ele>10.0</ele><time>2026-03-28T13:57:11Z</time></trkpt><trkpt lat="36.89768640366845" lon="15.143784982637554"><ele>9.5</ele><time>2026-03-28T13:57:12Z</time></trkpt><trkpt lat="36.897571085682756" lon="15.143733634187933"><ele>9.0</ele><time>2026-03-28T13:57:13Z</time></trkpt><trkpt lat="36.89745265148064" lon="15.14369739590881"><ele>8.5</ele><time>2026-03-28T13:57:14Z</time></trkpt><trkpt lat="36.89733141989845" lon="15.143664353780231"><ele>8.0</ele><time>2026-03-28T13:57:15Z</time></trkpt><trkpt lat="36.897202099616926" lon="15.143635768995992"><ele>8.0</ele><time>2026-03-28T13:57:16Z</time></trkpt><trkpt lat="36.89706665425998" lon="15.143603342697286"><ele>8.0</ele><time>2026-03-28T13:57:17Z</time></trkpt><trkpt lat="36.896932521491834" lon="15.143574083169886"><ele>8.0</ele><time>2026-03-28T13:57:18Z</time></trkpt><trkpt lat="36.896810552621076" lon="15.143554395756102"><ele>8.0</ele><time>2026-03-28T13:57:19Z</time></trkpt><trkpt lat="36.89668654420352" lon="15.143534379114753"><ele>7.75</ele><time>2026-03-28T13:57:20Z</time></trkpt><trkpt lat="36.89655714639959" lon="15.143512080887007"><ele>7.5</ele><time>2026-03-28T13:57:21Z</time></trkpt><trkpt lat="36.896424599699785" lon="15.143502050370643"><ele>7.25</ele><time>2026-03-28T13:57:22Z</time></trkpt><trkpt lat="36.89630444493843" lon="15.143470780761312"><ele>7.0</ele><time>2026-03-28T13:57:23Z</time></trkpt><trkpt lat="36.896191187636546" lon="15.14343406655546"><ele>7.0</ele><time>2026-03-28T13:57:24Z</time></trkpt><trkpt lat="36.89607497065376" lon="15.143378746270768"><ele>6.999999999999999</ele><time>2026-03-28T13:57:25Z</time></trkpt><trkpt lat="36.89595579182716" lon="15.143343167892413"><ele>6.999999999999999</ele><time>2026-03-28T13:57:26Z</time></trkpt><trkpt lat="36.8958558661481" lon="15.143312607672238"><ele>7.0</ele><time>2026-03-28T13:57:27Z</time></trkpt><trkpt lat="36.89577763402522" lon="15.143288681995147"><ele>7.0</ele><time>2026-03-28T13:57:28Z</time></trkpt><trkpt lat="36.89569238698932" lon="15.143262610969236"><ele>6.5</ele><time>2026-03-28T13:57:29Z</time></trkpt><trkpt lat="36.89558543340012" lon="15.143232440485116"><ele>6.0</ele><time>2026-03-28T13:57:30Z</time></trkpt><trkpt lat="36.895453004168985" lon="15.143206772386558"><ele>5.5</ele><time>2026-03-28T13:57:31Z</time></trkpt><trkpt lat="36.895303607307575" lon="15.143226732361855"><ele>5.0</ele><time>2026-03-28T13:57:32Z</time></trkpt><trkpt lat="36.895166210436784" lon="15.143281925030067"><ele>5.0</ele><time>2026-03-28T13:57:33Z</time></trkpt><trkpt lat="36.895041715517074" lon="15.143315624995607"><ele>5.0</ele><time>2026-03-28T13:57:34Z</time></trkpt><trkpt lat="36.8949381964164" lon="15.143344612832447"><ele>5.0</ele><time>2026-03-28T13:57:35Z</time></trkpt><trkpt lat="36.894841384624335" lon="15.143350951137398"><ele>5.0</ele><time>2026-03-28T13:57:36Z</time></trkpt><trkpt lat="36.89475312011824" lon="15.143336126286739"><ele>5.0</ele><time>2026-03-28T13:57:37Z</time></trkpt><trkpt lat="36.89467653608729" lon="15.14330090510844"><ele>5.0</ele><time>2026-03-28T13:57:38Z</time></trkpt><trkpt lat="36.89459576864954" lon="15.143262722101237"><ele>5.0</ele><time>2026-03-28T13:57:39Z</time></trkpt><trkpt lat="36.894496578027045" lon="15.143206025237992"><ele>5.0</ele><time>2026-03-28T13:57:40Z</time></trkpt><trkpt lat="36.89438888755147" lon="15.143135691346163"><ele>5.0</ele><time>2026-03-28T13:57:41Z</time></trkpt><trkpt lat="36.89427812874059" lon="15.143039973835954"><ele>5.5</ele><time>2026-03-28T13:57:42Z</time></trkpt><trkpt lat="36.894167595782605" lon="15.142971971404366"><ele>6.0</ele><time>2026-03-28T13:57:43Z</time></trkpt><trkpt lat="36.89405614669967" lon="15.142917145885365"><ele>6.5</ele><time>2026-03-28T13:57:44Z</time></trkpt><trkpt lat="36.893923204511715" lon="15.142864058197024"><ele>7.0</ele><time>2026-03-28T13:57:45Z</time></trkpt><trkpt lat="36.89378587278361" lon="15.142840884121215"><ele>7.0</ele><time>2026-03-28T13:57:46Z</time></trkpt><trkpt lat="36.8936518656802" lon="15.142803930704307"><ele>7.0</ele><time>2026-03-28T13:57:47Z</time></trkpt><trkpt lat="36.893509273229576" lon="15.142730112687834"><ele>7.0</ele><time>2026-03-28T13:57:48Z</time></trkpt><trkpt lat="36.893351384275505" lon="15.142654519563372"><ele>6.75</ele><time>2026-03-28T13:57:49Z</time></trkpt><trkpt lat="36.89321034695012" lon="15.142579480872378"><ele>6.5</ele><time>2026-03-28T13:57:50Z</time></trkpt><trkpt lat="36.893096300008445" lon="15.142511206445509"><ele>6.25</ele><time>2026-03-28T13:57:51Z</time></trkpt><trkpt lat="36.89299081844316" lon="15.142459360320062"><ele>6.0</ele><time>2026-03-28T13:57:52Z</time></trkpt><trkpt lat="36.89289400230695" lon="15.14236863248393"><ele>6.0</ele><time>2026-03-28T13:57:53Z</time></trkpt><trkpt lat="36.89283191878412" lon="15.142231336269267"><ele>6.0</ele><time>2026-03-28T13:57:54Z</time></trkpt><trkpt lat="36.89276186061441" lon="15.142114528977315"><ele>6.0</ele><time>2026-03-28T13:57:55Z</time></trkpt><trkpt lat="36.892704127307965" lon="15.14200724241638"><ele>6.0</ele><time>2026-03-28T13:57:56Z</time></trkpt><trkpt lat="36.892640152573875" lon="15.141928108877554"><ele>6.0</ele><time>2026-03-28T13:57:57Z</time></trkpt><trkpt lat="36.89257139974859" lon="15.141855091726402"><ele>6.0</ele><time>2026-03-28T13:57:58Z</time></trkpt><trkpt lat="36.892480010374946" lon="15.141803723381315"><ele>6.0</ele><time>2026-03-28T13:57:59Z</time></trkpt><trkpt lat="36.892368957061144" lon="15.141731882555947"><ele>6.0</ele><time>2026-03-28T13:58:00Z</time></trkpt><trkpt lat="36.892247553126765" lon="15.141671357411639"><ele>6.0</ele><time>2026-03-28T13:58:01Z</time></trkpt><trkpt lat="36.8921331379158" lon="15.141630646468206"><ele>6.0</ele><time>2026-03-28T13:58:02Z</time></trkpt><trkpt lat="36.89205289207733" lon="15.141574998971956"><ele>6.0</ele><time>2026-03-28T13:58:03Z</time></trkpt><trkpt lat="36.891979841704426" lon="15.141524195249323"><ele>6.0</ele><time>2026-03-28T13:58:04Z</time></trkpt><trkpt lat="36.89188463364724" lon="15.141435880610425"><ele>6.0</ele><time>2026-03-28T13:58:05Z</time></trkpt><trkpt lat="36.89174461971718" lon="15.141332117181697"><ele>6.199999999999999</ele><time>2026-03-28T13:58:06Z</time></trkpt><trkpt lat="36.891624847935304" lon="15.141266402298585"><ele>6.3999999999999995</ele><time>2026-03-28T13:58:07Z</time></trkpt><trkpt lat="36.89152343073722" lon="15.141232202775685"><ele>6.6</ele><time>2026-03-28T13:58:08Z</time></trkpt><trkpt lat="36.8914382252388" lon="15.141201174856066"><ele>6.8</ele><time>2026-03-28T13:58:09Z</time></trkpt><trkpt lat="36.891353780022015" lon="15.141160347673884"><ele>7.0</ele><time>2026-03-28T13:58:10Z</time></trkpt><trkpt lat="36.89126977820366" lon="15.14110312653401"><ele>7.0</ele><time>2026-03-28T13:58:11Z</time></trkpt><trkpt lat="36.89116645474363" lon="15.141042352324066"><ele>7.0</ele><time>2026-03-28T13:58:12Z</time></trkpt><trkpt lat="36.891064875971956" lon="15.140945426323078"><ele>7.0</ele><time>2026-03-28T13:58:13Z</time></trkpt><trkpt lat="36.89096657023797" lon="15.14083462828739"><ele>7.0</ele><time>2026-03-28T13:58:14Z</time></trkpt><trkpt lat="36.89087284779318" lon="15.14075109046312"><ele>7.166666666666667</ele><time>2026-03-28T13:58:15Z</time></trkpt><trkpt lat="36.89076801015704" lon="15.140691743771121"><ele>7.333333333333334</ele><time>2026-03-28T13:58:16Z</time></trkpt><trkpt lat="36.89067934586546" lon="15.140633574042994"><ele>7.5</ele><time>2026-03-28T13:58:17Z</time></trkpt><trkpt lat="36.89059506351896" lon="15.140586020557366"><ele>7.666666666666666</ele><time>2026-03-28T13:58:18Z</time></trkpt><trkpt lat="36.89052291020569" lon="15.140548586244197"><ele>7.833333333333333</ele><time>2026-03-28T13:58:19Z</time></trkpt><trkpt lat="36.890463076508304" lon="15.14052304033487"><ele>8.0</ele><time>2026-03-28T13:58:20Z</time></trkpt><trkpt lat="36.890394934489954" lon="15.140501834243405"><ele>8.0</ele><time>2026-03-28T13:58:26.999Z</time></trkpt><trkpt lat="36.89032082103538" lon="15.14049620506823"><ele>8.0</ele><time>2026-03-28T13:58:32.999Z</time></trkpt><trkpt lat="36.890212969628585" lon="15.140473384470283"><ele>8.0</ele><time>2026-03-28T13:58:34.999Z</time></trkpt><trkpt lat="36.89012970822557" lon="15.140462287356598"><ele>8.0</ele><time>2026-03-28T13:58:35.999Z</time></trkpt><trkpt lat="36.89003838646693" lon="15.140459199114296"><ele>8.0</ele><time>2026-03-28T13:58:36.999Z</time></trkpt><trkpt lat="36.88992440230451" lon="15.140488580316745"><ele>8.333333333333332</ele><time>2026-03-28T13:58:37.999Z</time></trkpt><trkpt lat="36.889773997433245" lon="15.140525938470802"><ele>8.666666666666666</ele><time>2026-03-28T13:58:38.999Z</time></trkpt><trkpt lat="36.8895783452251" lon="15.14053309209275"><ele>9.0</ele><time>2026-03-28T13:58:39.999Z</time></trkpt><trkpt lat="36.88937757877404" lon="15.140572699935289"><ele>8.666666666666666</ele><time>2026-03-28T13:58:40.999Z</time></trkpt><trkpt lat="36.88920332711807" lon="15.140588479652768"><ele>8.333333333333332</ele><time>2026-03-28T13:58:41.999Z</time></trkpt><trkpt lat="36.8890476108885" lon="15.140587550469132"><ele>8.0</ele><time>2026-03-28T13:58:42.999Z</time></trkpt><trkpt lat="36.88890974575824" lon="15.140597557443721"><ele>8.0</ele><time>2026-03-28T13:58:43.999Z</time></trkpt><trkpt lat="36.88879865602492" lon="15.140604259847079"><ele>8.0</ele><time>2026-03-28T13:58:44.999Z</time></trkpt><trkpt lat="36.88871304650868" lon="15.140622225304194"><ele>8.0</ele><time>2026-03-28T13:58:45.999Z</time></trkpt><trkpt lat="36.88864859848935" lon="15.140614149224568"><ele>8.0</ele><time>2026-03-28T13:58:46.999Z</time></trkpt><trkpt lat="36.88859077857191" lon="15.140572328912995"><ele>8.0</ele><time>2026-03-28T13:58:47.999Z</time></trkpt><trkpt lat="36.88852137110827" lon="15.140448059419596"><ele>7.666666666666666</ele><time>2026-03-28T13:58:48.999Z</time></trkpt><trkpt lat="36.88838812911692" lon="15.140326422977148"><ele>7.333333333333334</ele><time>2026-03-28T13:58:49.999Z</time></trkpt><trkpt lat="36.888244940509004" lon="15.140184243818076"><ele>7.0</ele><time>2026-03-28T13:58:50.999Z</time></trkpt><trkpt lat="36.888092271409306" lon="15.14003808217737"><ele>7.0</ele><time>2026-03-28T13:58:51.999Z</time></trkpt><trkpt lat="36.88794387156711" lon="15.139919342450254"><ele>7.0</ele><time>2026-03-28T13:58:52.999Z</time></trkpt><trkpt lat="36.88783693790473" lon="15.139783283690749"><ele>7.0</ele><time>2026-03-28T13:58:54Z</time></trkpt><trkpt lat="36.887739581348264" lon="15.139681471562438"><ele>7.0</ele><time>2026-03-28T13:58:55Z</time></trkpt><trkpt lat="36.887642716115856" lon="15.139623819210245"><ele>6.999999999999999</ele><time>2026-03-28T13:58:56Z</time></trkpt><trkpt lat="36.88755091807502" lon="15.139571134592835"><ele>6.999999999999999</ele><time>2026-03-28T13:58:57Z</time></trkpt><trkpt lat="36.88746276128621" lon="15.139527555179598"><ele>7.0</ele><time>2026-03-28T13:58:58Z</time></trkpt><trkpt lat="36.88735121794755" lon="15.139550486442218"><ele>7.0</ele><time>2026-03-28T13:58:59Z</time></trkpt><trkpt lat="36.88724714900475" lon="15.139649979040742"><ele>6.75</ele><time>2026-03-28T13:59:00Z</time></trkpt><trkpt lat="36.88715832620592" lon="15.139711210207244"><ele>6.5</ele><time>2026-03-28T13:59:01Z</time></trkpt><trkpt lat="36.88706807225307" lon="15.139709402577942"><ele>6.25</ele><time>2026-03-28T13:59:02Z</time></trkpt><trkpt lat="36.88696540004636" lon="15.139606421094046"><ele>6.0</ele><time>2026-03-28T13:59:03Z</time></trkpt><trkpt lat="36.886816784417604" lon="15.139518928437582"><ele>6.25</ele><time>2026-03-28T13:59:04Z</time></trkpt><trkpt lat="36.88666546224831" lon="15.139441670624148"><ele>6.5</ele><time>2026-03-28T13:59:05Z</time></trkpt><trkpt lat="36.88653307459284" lon="15.139385393779856"><ele>6.75</ele><time>2026-03-28T13:59:06Z</time></trkpt><trkpt lat="36.88644342814994" lon="15.139317850642223"><ele>7.0</ele><time>2026-03-28T13:59:07Z</time></trkpt><trkpt lat="36.88634338387664" lon="15.139284671532817"><ele>7.0</ele><time>2026-03-28T13:59:08Z</time></trkpt><trkpt lat="36.88621773986949" lon="15.139302561138994"><ele>7.0</ele><time>2026-03-28T13:59:09Z</time></trkpt><trkpt lat="36.886085846620546" lon="15.13934080042907"><ele>7.0</ele><time>2026-03-28T13:59:10Z</time></trkpt><trkpt lat="36.88594242838081" lon="15.139368189231872"><ele>7.0</ele><time>2026-03-28T13:59:11Z</time></trkpt><trkpt lat="36.88580665544736" lon="15.139382897109202"><ele>6.8</ele><time>2026-03-28T13:59:12Z</time></trkpt><trkpt lat="36.885693582675536" lon="15.139365759528735"><ele>6.6</ele><time>2026-03-28T13:59:13Z</time></trkpt><trkpt lat="36.885601755574996" lon="15.139299649761108"><ele>6.3999999999999995</ele><time>2026-03-28T13:59:14Z</time></trkpt><trkpt lat="36.88550717299155" lon="15.13924521857639"><ele>6.199999999999999</ele><time>2026-03-28T13:59:15Z</time></trkpt><trkpt lat="36.88539925594354" lon="15.139208783186254"><ele>6.0</ele><time>2026-03-28T13:59:16Z</time></trkpt><trkpt lat="36.88525196147429" lon="15.139230005709619"><ele>6.333333333333334</ele><time>2026-03-28T13:59:17Z</time></trkpt><trkpt lat="36.88509172041878" lon="15.139253508857488"><ele>6.666666666666667</ele><time>2026-03-28T13:59:18Z</time></trkpt><trkpt lat="36.884926833453555" lon="15.13925992204852"><ele>7.0</ele><time>2026-03-28T13:59:19Z</time></trkpt><trkpt lat="36.884787139640565" lon="15.139281433149907"><ele>7.0</ele><time>2026-03-28T13:59:20Z</time></trkpt><trkpt lat="36.88466289402399" lon="15.139296355636835"><ele>7.0</ele><time>2026-03-28T13:59:21Z</time></trkpt><trkpt lat="36.88452903878061" lon="15.139270531360525"><ele>7.0</ele><time>2026-03-28T13:59:22Z</time></trkpt><trkpt lat="36.88436932988165" lon="15.139215756179633"><ele>7.0</ele><time>2026-03-28T13:59:23Z</time></trkpt><trkpt lat="36.884180213763614" lon="15.139145570865615"><ele>7.0</ele><time>2026-03-28T13:59:24Z</time></trkpt><trkpt lat="36.8839794277877" lon="15.139072671873183"><ele>7.0</ele><time>2026-03-28T13:59:25Z</time></trkpt><trkpt lat="36.883783585725496" lon="15.139001294615674"><ele>7.0</ele><time>2026-03-28T13:59:26Z</time></trkpt><trkpt lat="36.8836099234486" lon="15.138937350414123"><ele>7.5</ele><time>2026-03-28T13:59:27Z</time></trkpt><trkpt lat="36.88346512299388" lon="15.138904227482652"><ele>8.0</ele><time>2026-03-28T13:59:28Z</time></trkpt><trkpt lat="36.883337209800715" lon="15.138848403621045"><ele>8.5</ele><time>2026-03-28T13:59:29Z</time></trkpt><trkpt lat="36.883206059480166" lon="15.138784680053112"><ele>9.0</ele><time>2026-03-28T13:59:30Z</time></trkpt><trkpt lat="36.8830510570572" lon="15.138726171050667"><ele>9.333333333333334</ele><time>2026-03-28T13:59:31Z</time></trkpt><trkpt lat="36.882894375000205" lon="15.138672918733322"><ele>9.666666666666668</ele><time>2026-03-28T13:59:32Z</time></trkpt><trkpt lat="36.88275114045907" lon="15.138622485927035"><ele>10.0</ele><time>2026-03-28T13:59:33Z</time></trkpt><trkpt lat="36.8826130066885" lon="15.138571400105427"><ele>9.75</ele><time>2026-03-28T13:59:34Z</time></trkpt><trkpt lat="36.8824754155298" lon="15.138522929466717"><ele>9.5</ele><time>2026-03-28T13:59:35Z</time></trkpt><trkpt lat="36.88234473916697" lon="15.138498901309033"><ele>9.25</ele><time>2026-03-28T13:59:36Z</time></trkpt><trkpt lat="36.88223702132637" lon="15.138437620256514"><ele>9.0</ele><time>2026-03-28T13:59:37Z</time></trkpt><trkpt lat="36.88213754524322" lon="15.138400456884478"><ele>9.0</ele><time>2026-03-28T13:59:38Z</time></trkpt><trkpt lat="36.88205230299499" lon="15.138370024023413"><ele>9.0</ele><time>2026-03-28T13:59:39Z</time></trkpt><trkpt lat="36.8819802162355" lon="15.138342634418988"><ele>9.0</ele><time>2026-03-28T13:59:40Z</time></trkpt><trkpt lat="36.88191189982109" lon="15.138307569987402"><ele>9.0</ele><time>2026-03-28T13:59:41Z</time></trkpt><trkpt lat="36.88185673261475" lon="15.138239063711675"><ele>9.0</ele><time>2026-03-28T13:59:42Z</time></trkpt><trkpt lat="36.88179679014667" lon="15.138132058091076"><ele>9.0</ele><time>2026-03-28T13:59:43Z</time></trkpt><trkpt lat="36.881709611014344" lon="15.13798827190086"><ele>8.6</ele><time>2026-03-28T13:59:44Z</time></trkpt><trkpt lat="36.8816300755176" lon="15.13787154731753"><ele>8.2</ele><time>2026-03-28T13:59:45Z</time></trkpt><trkpt lat="36.88156059215097" lon="15.13776957496354"><ele>7.799999999999999</ele><time>2026-03-28T13:59:46Z</time></trkpt><trkpt lat="36.88149701682475" lon="15.137669121643878"><ele>7.3999999999999995</ele><time>2026-03-28T13:59:47Z</time></trkpt><trkpt lat="36.88143744853269" lon="15.137550973955785"><ele>7.0</ele><time>2026-03-28T13:59:48Z</time></trkpt><trkpt lat="36.88137726065283" lon="15.137398160230294"><ele>7.0</ele><time>2026-03-28T13:59:49Z</time></trkpt><trkpt lat="36.8813251638572" lon="15.137255606799277"><ele>6.999999999999999</ele><time>2026-03-28T13:59:50Z</time></trkpt><trkpt lat="36.88127372685528" lon="15.137119022456714"><ele>6.999999999999999</ele><time>2026-03-28T13:59:51Z</time></trkpt><trkpt lat="36.88123666601516" lon="15.137009620163784"><ele>7.0</ele><time>2026-03-28T13:59:52Z</time></trkpt><trkpt lat="36.88118963155943" lon="15.136909252036098"><ele>7.0</ele><time>2026-03-28T13:59:53Z</time></trkpt><trkpt lat="36.88121095670997" lon="15.1367770942815"><ele>7.0</ele><time>2026-03-28T13:59:54Z</time></trkpt><trkpt lat="36.881202115321436" lon="15.13661568177408"><ele>7.0</ele><time>2026-03-28T13:59:55Z</time></trkpt><trkpt lat="36.88118901176498" lon="15.136418837276656"><ele>7.0</ele><time>2026-03-28T13:59:56Z</time></trkpt><trkpt lat="36.88117755282486" lon="15.136254638386765"><ele>7.0</ele><time>2026-03-28T13:59:57Z</time></trkpt><trkpt lat="36.8811671312008" lon="15.136121387075853"><ele>7.000000000000001</ele><time>2026-03-28T13:59:58Z</time></trkpt><trkpt lat="36.88115746711198" lon="15.136000251689286"><ele>7.0</ele><time>2026-03-28T13:59:59Z</time></trkpt><trkpt lat="36.88113278356277" lon="15.135897939666396"><ele>7.0</ele><time>2026-03-28T14:00:00Z</time></trkpt><trkpt lat="36.88113266125325" lon="15.135803183987484"><ele>7.0</ele><time>2026-03-28T14:00:01Z</time></trkpt><trkpt lat="36.881123673683675" lon="15.135716939954698"><ele>7.000000000000001</ele><time>2026-03-28T14:00:02Z</time></trkpt><trkpt lat="36.88111371462048" lon="15.135600339748924"><ele>7.0</ele><time>2026-03-28T14:00:04Z</time></trkpt><trkpt lat="36.88091619407852" lon="15.135593528043847"><ele>6.6</ele><time>2026-03-28T14:00:08Z</time></trkpt><trkpt lat="36.880815955141486" lon="15.135648418738832"><ele>6.199999999999999</ele><time>2026-03-28T14:00:09Z</time></trkpt><trkpt lat="36.880737376472396" lon="15.135732466158524"><ele>5.8</ele><time>2026-03-28T14:00:10Z</time></trkpt><trkpt lat="36.88066496874032" lon="15.135792435410279"><ele>5.4</ele><time>2026-03-28T14:00:11Z</time></trkpt><trkpt lat="36.88058882100228" lon="15.135844560158501"><ele>5.0</ele><time>2026-03-28T14:00:12Z</time></trkpt><trkpt lat="36.880499412549405" lon="15.135881262866109"><ele>5.0</ele><time>2026-03-28T14:00:14Z</time></trkpt><trkpt lat="36.8804364636762" lon="15.135951395781928"><ele>5.0</ele><time>2026-03-28T14:00:22Z</time></trkpt><trkpt lat="36.880367865618766" lon="15.13597886267085"><ele>5.0</ele><time>2026-03-28T14:00:25Z</time></trkpt><trkpt lat="36.88030310711206" lon="15.135922127126438"><ele>5.0</ele><time>2026-03-28T14:00:28Z</time></trkpt><trkpt lat="36.88025264487798" lon="15.135826738486577"><ele>5.0</ele><time>2026-03-28T14:00:30.999Z</time></trkpt><trkpt lat="36.88021765829675" lon="15.13575574629038"><ele>5.0</ele><time>2026-03-28T14:00:34.999Z</time></trkpt><trkpt lat="36.88017357408209" lon="15.135658260477317"><ele>4.666666666666667</ele><time>2026-03-28T14:00:38.999Z</time></trkpt><trkpt lat="36.880120639791734" lon="15.135609584903444"><ele>4.333333333333334</ele><time>2026-03-28T14:00:39.999Z</time></trkpt><trkpt lat="36.88001957656345" lon="15.135576585382074"><ele>4.0</ele><time>2026-03-28T14:00:41.999Z</time></trkpt><trkpt lat="36.87994980516759" lon="15.135570679766618"><ele>3.666666666666667</ele><time>2026-03-28T14:00:42.999Z</time></trkpt><trkpt lat="36.87986413437409" lon="15.135597273865338"><ele>3.3333333333333335</ele><time>2026-03-28T14:00:43.999Z</time></trkpt><trkpt lat="36.87978473039041" lon="15.135637358938807"><ele>3.0</ele><time>2026-03-28T14:00:45.999Z</time></trkpt><trkpt lat="36.879703546086475" lon="15.135701631684368"><ele>2.9999999999999996</ele><time>2026-03-28T14:00:47.999Z</time></trkpt><trkpt lat="36.87966336807173" lon="15.135762340697648"><ele>3.0</ele><time>2026-03-28T14:00:49.999Z</time></trkpt><trkpt lat="36.87958661617114" lon="15.135789438534411"><ele>3.0</ele><time>2026-03-28T14:00:52.999Z</time></trkpt><trkpt lat="36.87953299858969" lon="15.13573063061606"><ele>3.0</ele><time>2026-03-28T14:00:56.999Z</time></trkpt><trkpt lat="36.87951818688242" lon="15.135639133136944"><ele>3.0</ele><time>2026-03-28T14:01:02Z</time></trkpt><trkpt lat="36.87950350670381" lon="15.135557043957876"><ele>2.9999999999999996</ele><time>2026-03-28T14:01:13Z</time></trkpt><trkpt lat="36.879480233855396" lon="15.135462057552616"><ele>3.0</ele><time>2026-03-28T14:01:15Z</time></trkpt><trkpt lat="36.879439065418055" lon="15.135400388096729"><ele>3.0</ele><time>2026-03-28T14:01:17Z</time></trkpt><trkpt lat="36.8794055630411" lon="15.135304580528043"><ele>3.0</ele><time>2026-03-28T14:01:19Z</time></trkpt><trkpt lat="36.87939230626922" lon="15.13520053887314"><ele>3.0</ele><time>2026-03-28T14:01:20Z</time></trkpt><trkpt lat="36.87935369601636" lon="15.135078098791476"><ele>3.0</ele><time>2026-03-28T14:01:21Z</time></trkpt><trkpt lat="36.87930975044249" lon="15.134935012715216"><ele>3.0</ele><time>2026-03-28T14:01:22Z</time></trkpt><trkpt lat="36.879256813112846" lon="15.134755117448709"><ele>3.333333333333333</ele><time>2026-03-28T14:01:23Z</time></trkpt><trkpt lat="36.87920267786401" lon="15.134563968619362"><ele>3.6666666666666665</ele><time>2026-03-28T14:01:24Z</time></trkpt><trkpt lat="36.879151453019134" lon="15.134378301683778"><ele>4.0</ele><time>2026-03-28T14:01:25Z</time></trkpt><trkpt lat="36.87909607477811" lon="15.134227105938253"><ele>4.0</ele><time>2026-03-28T14:01:26Z</time></trkpt><trkpt lat="36.87905146866072" lon="15.134083269539818"><ele>4.0</ele><time>2026-03-28T14:01:27Z</time></trkpt><trkpt lat="36.87901737055143" lon="15.133960744614468"><ele>4.0</ele><time>2026-03-28T14:01:28Z</time></trkpt><trkpt lat="36.8789997360587" lon="15.133826390684964"><ele>4.0</ele><time>2026-03-28T14:01:29Z</time></trkpt><trkpt lat="36.87898935388889" lon="15.133654162721408"><ele>4.0</ele><time>2026-03-28T14:01:30Z</time></trkpt><trkpt lat="36.87896104180216" lon="15.13345511508315"><ele>4.0</ele><time>2026-03-28T14:01:31Z</time></trkpt><trkpt lat="36.87894543189038" lon="15.133271460798337"><ele>4.0</ele><time>2026-03-28T14:01:32Z</time></trkpt><trkpt lat="36.878935832935476" lon="15.133125096724761"><ele>4.0</ele><time>2026-03-28T14:01:33Z</time></trkpt><trkpt lat="36.87892254077649" lon="15.133018834461422"><ele>4.0</ele><time>2026-03-28T14:01:34Z</time></trkpt><trkpt lat="36.87892217069221" lon="15.13291184923529"><ele>4.0</ele><time>2026-03-28T14:01:36Z</time></trkpt><trkpt lat="36.87900101019473" lon="15.132864448921596"><ele>4.0</ele><time>2026-03-28T14:01:39Z</time></trkpt><trkpt lat="36.87911222144668" lon="15.132808701072388"><ele>4.0</ele><time>2026-03-28T14:01:40Z</time></trkpt><trkpt lat="36.879218026868315" lon="15.132769088525363"><ele>4.0</ele><time>2026-03-28T14:01:41Z</time></trkpt><trkpt lat="36.87931107343615" lon="15.132730182707965"><ele>4.5</ele><time>2026-03-28T14:01:42Z</time></trkpt><trkpt lat="36.87938037775654" lon="15.132679652858938"><ele>5.0</ele><time>2026-03-28T14:01:43Z</time></trkpt><trkpt lat="36.8794396400003" lon="15.132584142018095"><ele>5.5</ele><time>2026-03-28T14:01:44Z</time></trkpt><trkpt lat="36.87950422332316" lon="15.132444108384679"><ele>6.0</ele><time>2026-03-28T14:01:45Z</time></trkpt><trkpt lat="36.879588427826526" lon="15.132267306455038"><ele>7.0</ele><time>2026-03-28T14:01:46Z</time></trkpt><trkpt lat="36.879717715773545" lon="15.132110499668421"><ele>8.0</ele><time>2026-03-28T14:01:47Z</time></trkpt><trkpt lat="36.879839270823446" lon="15.131912085121904"><ele>9.0</ele><time>2026-03-28T14:01:48Z</time></trkpt><trkpt lat="36.879961046240815" lon="15.131729558828576"><ele>9.75</ele><time>2026-03-28T14:01:49Z</time></trkpt><trkpt lat="36.880048905230296" lon="15.131556658236088"><ele>10.5</ele><time>2026-03-28T14:01:50Z</time></trkpt><trkpt lat="36.88011689745909" lon="15.13140722966656"><ele>11.25</ele><time>2026-03-28T14:01:51Z</time></trkpt><trkpt lat="36.88017617072889" lon="15.13125826652029"><ele>12.0</ele><time>2026-03-28T14:01:52Z</time></trkpt><trkpt lat="36.88026161342902" lon="15.131141303826082"><ele>12.8</ele><time>2026-03-28T14:01:53Z</time></trkpt><trkpt lat="36.880353691284206" lon="15.131028158850937"><ele>13.6</ele><time>2026-03-28T14:01:54Z</time></trkpt><trkpt lat="36.88045757760768" lon="15.13094081288622"><ele>14.400000000000002</ele><time>2026-03-28T14:01:55Z</time></trkpt><trkpt lat="36.88054029186175" lon="15.130876346953983"><ele>15.200000000000001</ele><time>2026-03-28T14:01:56Z</time></trkpt><trkpt lat="36.880593033359986" lon="15.130824672023248"><ele>16.0</ele><time>2026-03-28T14:01:57Z</time></trkpt><trkpt lat="36.88066693774717" lon="15.130773541497675"><ele>16.0</ele><time>2026-03-28T14:01:59Z</time></trkpt><trkpt lat="36.88072561506559" lon="15.13072555066513"><ele>16.0</ele><time>2026-03-28T14:02:02Z</time></trkpt><trkpt lat="36.88057025695174" lon="15.1305484327984"><ele>16.0</ele><time>2026-03-28T14:02:11Z</time></trkpt><trkpt lat="36.88043472887024" lon="15.130505123365191"><ele>16.0</ele><time>2026-03-28T14:02:12Z</time></trkpt><trkpt lat="36.880281787053654" lon="15.130417153029027"><ele>15.666666666666666</ele><time>2026-03-28T14:02:13Z</time></trkpt><trkpt lat="36.880107111488456" lon="15.130355629855359"><ele>15.333333333333332</ele><time>2026-03-28T14:02:14Z</time></trkpt><trkpt lat="36.87994556605657" lon="15.130276688436929"><ele>15.0</ele><time>2026-03-28T14:02:15Z</time></trkpt><trkpt lat="36.87980116972209" lon="15.13020824948754"><ele>13.666666666666666</ele><time>2026-03-28T14:02:16Z</time></trkpt><trkpt lat="36.8796670786242" lon="15.13013341270845"><ele>12.333333333333332</ele><time>2026-03-28T14:02:17Z</time></trkpt><trkpt lat="36.87953490268211" lon="15.130030714151687"><ele>11.0</ele><time>2026-03-28T14:02:18Z</time></trkpt><trkpt lat="36.87945439529535" lon="15.129876250529577"><ele>10.0</ele><time>2026-03-28T14:02:19Z</time></trkpt><trkpt lat="36.879364143422265" lon="15.129721184746355"><ele>9.0</ele><time>2026-03-28T14:02:20Z</time></trkpt><trkpt lat="36.87925162592768" lon="15.129551716873957"><ele>8.0</ele><time>2026-03-28T14:02:21Z</time></trkpt><trkpt lat="36.8791574818361" lon="15.129341550981236"><ele>8.0</ele><time>2026-03-28T14:02:22Z</time></trkpt><trkpt lat="36.879079498647094" lon="15.12912587158406"><ele>8.0</ele><time>2026-03-28T14:02:23Z</time></trkpt><trkpt lat="36.87902305663208" lon="15.128926699691636"><ele>8.0</ele><time>2026-03-28T14:02:24Z</time></trkpt><trkpt lat="36.87897356871524" lon="15.128750308252238"><ele>8.25</ele><time>2026-03-28T14:02:25Z</time></trkpt><trkpt lat="36.87891014344223" lon="15.128596642589915"><ele>8.5</ele><time>2026-03-28T14:02:26Z</time></trkpt><trkpt lat="36.87883693562311" lon="15.128444654547955"><ele>8.75</ele><time>2026-03-28T14:02:27Z</time></trkpt><trkpt lat="36.878694546181336" lon="15.128340195147969"><ele>9.0</ele><time>2026-03-28T14:02:28Z</time></trkpt><trkpt lat="36.87853368455169" lon="15.128227081276473"><ele>9.0</ele><time>2026-03-28T14:02:29Z</time></trkpt><trkpt lat="36.87834816046517" lon="15.128107652901424"><ele>9.0</ele><time>2026-03-28T14:02:30Z</time></trkpt><trkpt lat="36.878166923788555" lon="15.127967981666806"><ele>9.0</ele><time>2026-03-28T14:02:31Z</time></trkpt><trkpt lat="36.87799509605476" lon="15.127821620369437"><ele>9.0</ele><time>2026-03-28T14:02:32Z</time></trkpt><trkpt lat="36.877837846841516" lon="15.127686433762436"><ele>9.0</ele><time>2026-03-28T14:02:33Z</time></trkpt><trkpt lat="36.877689347710074" lon="15.127558986603738"><ele>9.0</ele><time>2026-03-28T14:02:34Z</time></trkpt><trkpt lat="36.87754354299698" lon="15.12744563523372"><ele>8.666666666666666</ele><time>2026-03-28T14:02:35Z</time></trkpt><trkpt lat="36.877390529231434" lon="15.127366473072035"><ele>8.333333333333332</ele><time>2026-03-28T14:02:36Z</time></trkpt><trkpt lat="36.877216694650755" lon="15.127317265029243"><ele>8.0</ele><time>2026-03-28T14:02:37Z</time></trkpt><trkpt lat="36.877022669956915" lon="15.127295615210485"><ele>8.0</ele><time>2026-03-28T14:02:38Z</time></trkpt><trkpt lat="36.87682279340908" lon="15.127284470298111"><ele>8.0</ele><time>2026-03-28T14:02:39Z</time></trkpt><trkpt lat="36.87661889407855" lon="15.127257559402834"><ele>8.0</ele><time>2026-03-28T14:02:40Z</time></trkpt><trkpt lat="36.876403389466496" lon="15.127230286369363"><ele>8.0</ele><time>2026-03-28T14:02:40.999Z</time></trkpt><trkpt lat="36.87618457922011" lon="15.12719517648658"><ele>8.0</ele><time>2026-03-28T14:02:41.999Z</time></trkpt><trkpt lat="36.87596399852887" lon="15.127165203285536"><ele>8.0</ele><time>2026-03-28T14:02:42.999Z</time></trkpt><trkpt lat="36.87576178999682" lon="15.127145280363179"><ele>8.0</ele><time>2026-03-28T14:02:43.999Z</time></trkpt><trkpt lat="36.87557133061662" lon="15.127120757853294"><ele>8.0</ele><time>2026-03-28T14:02:44.999Z</time></trkpt><trkpt lat="36.87539081018478" lon="15.12709787694825"><ele>8.0</ele><time>2026-03-28T14:02:45.999Z</time></trkpt><trkpt lat="36.875226922648174" lon="15.127075856148592"><ele>8.0</ele><time>2026-03-28T14:02:46.999Z</time></trkpt><trkpt lat="36.87507171482378" lon="15.127052449893402"><ele>8.0</ele><time>2026-03-28T14:02:47.999Z</time></trkpt><trkpt lat="36.87492661669963" lon="15.127019554171921"><ele>8.0</ele><time>2026-03-28T14:02:48.999Z</time></trkpt><trkpt lat="36.87479037207624" lon="15.126963690169106"><ele>8.0</ele><time>2026-03-28T14:02:49.999Z</time></trkpt><trkpt lat="36.87468000790664" lon="15.126832558013014"><ele>8.0</ele><time>2026-03-28T14:02:50.999Z</time></trkpt><trkpt lat="36.87456630117843" lon="15.126714374154567"><ele>8.0</ele><time>2026-03-28T14:02:51.999Z</time></trkpt><trkpt lat="36.87444119058525" lon="15.12660389520807"><ele>8.0</ele><time>2026-03-28T14:02:52.999Z</time></trkpt><trkpt lat="36.8743381518051" lon="15.126483627073084"><ele>8.0</ele><time>2026-03-28T14:02:53.999Z</time></trkpt><trkpt lat="36.87423611807731" lon="15.126386660730281"><ele>10.5</ele><time>2026-03-28T14:02:54.999Z</time></trkpt><trkpt lat="36.874129874830906" lon="15.12632205284599"><ele>13.0</ele><time>2026-03-28T14:02:55.999Z</time></trkpt><trkpt lat="36.87401355170988" lon="15.126299906684652"><ele>15.5</ele><time>2026-03-28T14:02:56.999Z</time></trkpt><trkpt lat="36.87389348638688" lon="15.126315916952569"><ele>18.0</ele><time>2026-03-28T14:02:57.999Z</time></trkpt><trkpt lat="36.873772661544436" lon="15.126374823949726"><ele>18.0</ele><time>2026-03-28T14:02:58.999Z</time></trkpt><trkpt lat="36.873651359962885" lon="15.126471744614404"><ele>18.0</ele><time>2026-03-28T14:02:59.999Z</time></trkpt><trkpt lat="36.87350953646801" lon="15.126574663844199"><ele>18.0</ele><time>2026-03-28T14:03:00.999Z</time></trkpt><trkpt lat="36.87335217466727" lon="15.126674709108245"><ele>16.666666666666668</ele><time>2026-03-28T14:03:01.999Z</time></trkpt><trkpt lat="36.873187344969594" lon="15.126768605298283"><ele>15.333333333333334</ele><time>2026-03-28T14:03:02.999Z</time></trkpt><trkpt lat="36.872993486896405" lon="15.126809556133145"><ele>14.0</ele><time>2026-03-28T14:03:03.999Z</time></trkpt><trkpt lat="36.87281730335305" lon="15.126894769577074"><ele>14.0</ele><time>2026-03-28T14:03:04.999Z</time></trkpt><trkpt lat="36.87264480824052" lon="15.126948265221102"><ele>14.0</ele><time>2026-03-28T14:03:06Z</time></trkpt><trkpt lat="36.87248846894232" lon="15.127041684773234"><ele>14.0</ele><time>2026-03-28T14:03:07Z</time></trkpt><trkpt lat="36.872335901439534" lon="15.127140225385556"><ele>14.5</ele><time>2026-03-28T14:03:08Z</time></trkpt><trkpt lat="36.87220145989105" lon="15.127227707307872"><ele>15.0</ele><time>2026-03-28T14:03:09Z</time></trkpt><trkpt lat="36.872083667970585" lon="15.12731455693734"><ele>15.5</ele><time>2026-03-28T14:03:10Z</time></trkpt><trkpt lat="36.871983669827586" lon="15.127395138537729"><ele>16.0</ele><time>2026-03-28T14:03:11Z</time></trkpt><trkpt lat="36.871896681103074" lon="15.127459010798376"><ele>16.166666666666664</ele><time>2026-03-28T14:03:12Z</time></trkpt><trkpt lat="36.87181862202347" lon="15.127499989469213"><ele>16.333333333333332</ele><time>2026-03-28T14:03:13Z</time></trkpt><trkpt lat="36.8717396221049" lon="15.127502727602536"><ele>16.5</ele><time>2026-03-28T14:03:14Z</time></trkpt><trkpt lat="36.871675772079726" lon="15.127461147743535"><ele>16.666666666666668</ele><time>2026-03-28T14:03:15Z</time></trkpt><trkpt lat="36.871613384797136" lon="15.127374469251606"><ele>16.833333333333336</ele><time>2026-03-28T14:03:16Z</time></trkpt><trkpt lat="36.87155219857451" lon="15.127298869248262"><ele>17.0</ele><time>2026-03-28T14:03:17Z</time></trkpt><trkpt lat="36.87147532422376" lon="15.12726821244264"><ele>17.0</ele><time>2026-03-28T14:03:18Z</time></trkpt><trkpt lat="36.87139247159621" lon="15.12725594788072"><ele>17.0</ele><time>2026-03-28T14:03:19Z</time></trkpt><trkpt lat="36.87131565224451" lon="15.12733870613972"><ele>17.0</ele><time>2026-03-28T14:03:20Z</time></trkpt><trkpt lat="36.87124086722342" lon="15.127451295101574"><ele>17.0</ele><time>2026-03-28T14:03:21Z</time></trkpt><trkpt lat="36.8711553785758" lon="15.127613547231256"><ele>17.0</ele><time>2026-03-28T14:03:22Z</time></trkpt><trkpt lat="36.87107258506835" lon="15.127784718280282"><ele>17.0</ele><time>2026-03-28T14:03:23Z</time></trkpt><trkpt lat="36.871001271768996" lon="15.127950833647638"><ele>17.0</ele><time>2026-03-28T14:03:24Z</time></trkpt><trkpt lat="36.87091131653766" lon="15.128104306300303"><ele>16.333333333333336</ele><time>2026-03-28T14:03:25Z</time></trkpt><trkpt lat="36.870803115138756" lon="15.128232128166605"><ele>15.666666666666668</ele><time>2026-03-28T14:03:26Z</time></trkpt><trkpt lat="36.870657483859596" lon="15.128360067963618"><ele>15.0</ele><time>2026-03-28T14:03:27Z</time></trkpt><trkpt lat="36.870495214880975" lon="15.128482718357487"><ele>15.0</ele><time>2026-03-28T14:03:28Z</time></trkpt><trkpt lat="36.87032117822857" lon="15.128608193450873"><ele>15.0</ele><time>2026-03-28T14:03:29Z</time></trkpt><trkpt lat="36.870160290296525" lon="15.12872336371698"><ele>15.0</ele><time>2026-03-28T14:03:30Z</time></trkpt><trkpt lat="36.87000669232746" lon="15.128835171022791"><ele>14.666666666666668</ele><time>2026-03-28T14:03:31Z</time></trkpt><trkpt lat="36.86984993425691" lon="15.128935508653758"><ele>14.333333333333334</ele><time>2026-03-28T14:03:32Z</time></trkpt><trkpt lat="36.8696909770895" lon="15.129025180051068"><ele>14.0</ele><time>2026-03-28T14:03:33Z</time></trkpt><trkpt lat="36.86951588187903" lon="15.129067081586761"><ele>14.0</ele><time>2026-03-28T14:03:34Z</time></trkpt><trkpt lat="36.86934232261723" lon="15.129109959876894"><ele>14.0</ele><time>2026-03-28T14:03:35Z</time></trkpt><trkpt lat="36.86916751454818" lon="15.129145974451871"><ele>14.0</ele><time>2026-03-28T14:03:36Z</time></trkpt><trkpt lat="36.868993792263105" lon="15.12919065635089"><ele>13.666666666666668</ele><time>2026-03-28T14:03:37Z</time></trkpt><trkpt lat="36.86881771274142" lon="15.129179485405649"><ele>13.333333333333332</ele><time>2026-03-28T14:03:38Z</time></trkpt><trkpt lat="36.868649961839346" lon="15.129177804957084"><ele>13.0</ele><time>2026-03-28T14:03:39Z</time></trkpt><trkpt lat="36.868495812296246" lon="15.129155612453472"><ele>12.666666666666666</ele><time>2026-03-28T14:03:40Z</time></trkpt><trkpt lat="36.8683507761931" lon="15.129122982791497"><ele>12.333333333333332</ele><time>2026-03-28T14:03:41Z</time></trkpt><trkpt lat="36.86819512549122" lon="15.129098262324382"><ele>12.0</ele><time>2026-03-28T14:03:42Z</time></trkpt><trkpt lat="36.868036318100984" lon="15.12904079243344"><ele>12.0</ele><time>2026-03-28T14:03:43Z</time></trkpt><trkpt lat="36.867885237996994" lon="15.128952428226198"><ele>12.0</ele><time>2026-03-28T14:03:44Z</time></trkpt><trkpt lat="36.867732875762144" lon="15.12890288622164"><ele>12.0</ele><time>2026-03-28T14:03:45Z</time></trkpt><trkpt lat="36.86761448494204" lon="15.12881189284817"><ele>11.75</ele><time>2026-03-28T14:03:46Z</time></trkpt><trkpt lat="36.867483734022315" lon="15.128746718440603"><ele>11.5</ele><time>2026-03-28T14:03:47Z</time></trkpt><trkpt lat="36.86736028877897" lon="15.128659334633056"><ele>11.25</ele><time>2026-03-28T14:03:48Z</time></trkpt><trkpt lat="36.86723883555324" lon="15.128561764869167"><ele>11.0</ele><time>2026-03-28T14:03:49Z</time></trkpt><trkpt lat="36.86711626031349" lon="15.128451592643732"><ele>11.0</ele><time>2026-03-28T14:03:50Z</time></trkpt><trkpt lat="36.867000691875965" lon="15.128322743074568"><ele>11.0</ele><time>2026-03-28T14:03:51Z</time></trkpt><trkpt lat="36.8668937658975" lon="15.128181594964548"><ele>11.0</ele><time>2026-03-28T14:03:52Z</time></trkpt><trkpt lat="36.86679047300441" lon="15.128028287900742"><ele>10.666666666666666</ele><time>2026-03-28T14:03:53Z</time></trkpt><trkpt lat="36.866690838011365" lon="15.127867259836364"><ele>10.333333333333334</ele><time>2026-03-28T14:03:54Z</time></trkpt><trkpt lat="36.86660438625855" lon="15.127697958839892"><ele>10.0</ele><time>2026-03-28T14:03:55Z</time></trkpt><trkpt lat="36.866543277093506" lon="15.127510311582208"><ele>10.0</ele><time>2026-03-28T14:03:56Z</time></trkpt><trkpt lat="36.866470548295524" lon="15.1273487807059"><ele>10.0</ele><time>2026-03-28T14:03:57Z</time></trkpt><trkpt lat="36.86641398215313" lon="15.127189414308543"><ele>10.0</ele><time>2026-03-28T14:03:58Z</time></trkpt><trkpt lat="36.86634975206156" lon="15.127028745593972"><ele>10.0</ele><time>2026-03-28T14:03:59Z</time></trkpt><trkpt lat="36.86627804213552" lon="15.126864678006092"><ele>10.0</ele><time>2026-03-28T14:04:00Z</time></trkpt><trkpt lat="36.86619664373373" lon="15.126695453818565"><ele>10.0</ele><time>2026-03-28T14:04:01Z</time></trkpt><trkpt lat="36.86610124283694" lon="15.126526099264861"><ele>10.0</ele><time>2026-03-28T14:04:02Z</time></trkpt><trkpt lat="36.86599092473428" lon="15.126363064831061"><ele>10.0</ele><time>2026-03-28T14:04:03Z</time></trkpt><trkpt lat="36.86588001082259" lon="15.126185851718601"><ele>10.0</ele><time>2026-03-28T14:04:04Z</time></trkpt><trkpt lat="36.86575105610117" lon="15.126017329471656"><ele>10.0</ele><time>2026-03-28T14:04:05Z</time></trkpt><trkpt lat="36.86561996578157" lon="15.12584283317043"><ele>11.333333333333334</ele><time>2026-03-28T14:04:06Z</time></trkpt><trkpt lat="36.86548106940439" lon="15.125665587211984"><ele>12.666666666666668</ele><time>2026-03-28T14:04:07Z</time></trkpt><trkpt lat="36.865345463509335" lon="15.125494584020656"><ele>14.0</ele><time>2026-03-28T14:04:08Z</time></trkpt><trkpt lat="36.8652179873645" lon="15.125336259920047"><ele>12.333333333333334</ele><time>2026-03-28T14:04:09Z</time></trkpt><trkpt lat="36.86509665365083" lon="15.125184374878144"><ele>10.666666666666668</ele><time>2026-03-28T14:04:10Z</time></trkpt><trkpt lat="36.86498400295716" lon="15.125042207716083"><ele>9.0</ele><time>2026-03-28T14:04:11Z</time></trkpt><trkpt lat="36.864880197659566" lon="15.124911203604976"><ele>9.0</ele><time>2026-03-28T14:04:12Z</time></trkpt><trkpt lat="36.86477997418133" lon="15.124784719791538"><ele>9.0</ele><time>2026-03-28T14:04:13Z</time></trkpt><trkpt lat="36.86467957956875" lon="15.124658020059105"><ele>9.0</ele><time>2026-03-28T14:04:14Z</time></trkpt><trkpt lat="36.864583538033834" lon="15.124536813913679"><ele>9.0</ele><time>2026-03-28T14:04:15Z</time></trkpt><trkpt lat="36.86448649790306" lon="15.124414347558067"><ele>9.0</ele><time>2026-03-28T14:04:16Z</time></trkpt><trkpt lat="36.86438746204949" lon="15.124289302226728"><ele>9.0</ele><time>2026-03-28T14:04:17Z</time></trkpt><trkpt lat="36.86429434789503" lon="15.124171572825169"><ele>9.0</ele><time>2026-03-28T14:04:18Z</time></trkpt><trkpt lat="36.86419689386473" lon="15.124048356345359"><ele>9.0</ele><time>2026-03-28T14:04:19Z</time></trkpt><trkpt lat="36.86410063982696" lon="15.123926658157608"><ele>9.0</ele><time>2026-03-28T14:04:20Z</time></trkpt><trkpt lat="36.86400945788477" lon="15.123812430222618"><ele>9.0</ele><time>2026-03-28T14:04:21Z</time></trkpt><trkpt lat="36.863915709837165" lon="15.123694682221078"><ele>9.0</ele><time>2026-03-28T14:04:22Z</time></trkpt><trkpt lat="36.86381947278157" lon="15.123573807986249"><ele>9.0</ele><time>2026-03-28T14:04:23Z</time></trkpt><trkpt lat="36.863716354918644" lon="15.123444291427274"><ele>9.0</ele><time>2026-03-28T14:04:24Z</time></trkpt><trkpt lat="36.863610500860105" lon="15.123311251360152"><ele>9.0</ele><time>2026-03-28T14:04:25Z</time></trkpt><trkpt lat="36.8635003778885" lon="15.12317281111371"><ele>9.0</ele><time>2026-03-28T14:04:26Z</time></trkpt><trkpt lat="36.86338781441231" lon="15.123031302741449"><ele>9.666666666666666</ele><time>2026-03-28T14:04:27Z</time></trkpt><trkpt lat="36.86327399459441" lon="15.122888216338616"><ele>10.333333333333332</ele><time>2026-03-28T14:04:28Z</time></trkpt><trkpt lat="36.863163779161255" lon="15.122752022911701"><ele>11.0</ele><time>2026-03-28T14:04:29Z</time></trkpt><trkpt lat="36.86305859867375" lon="15.122621471619762"><ele>11.0</ele><time>2026-03-28T14:04:30Z</time></trkpt><trkpt lat="36.86295862884765" lon="15.122496370114236"><ele>11.0</ele><time>2026-03-28T14:04:31Z</time></trkpt><trkpt lat="36.86286425537662" lon="15.12237702462147"><ele>11.0</ele><time>2026-03-28T14:04:32Z</time></trkpt><trkpt lat="36.862769381916415" lon="15.122257960767563"><ele>11.0</ele><time>2026-03-28T14:04:33Z</time></trkpt><trkpt lat="36.862673013817755" lon="15.122137807771184"><ele>11.5</ele><time>2026-03-28T14:04:34Z</time></trkpt><trkpt lat="36.86257510941075" lon="15.122015739279265"><ele>12.0</ele><time>2026-03-28T14:04:35Z</time></trkpt><trkpt lat="36.862474902799796" lon="15.121890800347204"><ele>12.5</ele><time>2026-03-28T14:04:36Z</time></trkpt><trkpt lat="36.862374941438034" lon="15.121766167182892"><ele>13.0</ele><time>2026-03-28T14:04:37Z</time></trkpt><trkpt lat="36.862276202937196" lon="15.121640267148816"><ele>12.75</ele><time>2026-03-28T14:04:38Z</time></trkpt><trkpt lat="36.86218371233994" lon="15.121522066047891"><ele>12.5</ele><time>2026-03-28T14:04:39Z</time></trkpt><trkpt lat="36.862091407898454" lon="15.12140272461547"><ele>12.25</ele><time>2026-03-28T14:04:40Z</time></trkpt><trkpt lat="36.86200426248773" lon="15.121284886130823"><ele>12.0</ele><time>2026-03-28T14:04:41Z</time></trkpt><trkpt lat="36.86192847297641" lon="15.121179265880473"><ele>12.0</ele><time>2026-03-28T14:04:42Z</time></trkpt><trkpt lat="36.861857128435275" lon="15.121076836652101"><ele>12.0</ele><time>2026-03-28T14:04:43Z</time></trkpt><trkpt lat="36.86179489740106" lon="15.120980850416029"><ele>12.0</ele><time>2026-03-28T14:04:44Z</time></trkpt><trkpt lat="36.86173701393298" lon="15.12089157009788"><ele>12.0</ele><time>2026-03-28T14:04:45Z</time></trkpt><trkpt lat="36.86167301053101" lon="15.120818195239043"><ele>12.0</ele><time>2026-03-28T14:04:46Z</time></trkpt><trkpt lat="36.86162169141533" lon="15.120719177665302"><ele>10.333333333333334</ele><time>2026-03-28T14:04:47Z</time></trkpt><trkpt lat="36.86156316827624" lon="15.120574274119702"><ele>8.666666666666668</ele><time>2026-03-28T14:04:47.999Z</time></trkpt><trkpt lat="36.86148167987907" lon="15.120417631113948"><ele>7.0</ele><time>2026-03-28T14:04:48.999Z</time></trkpt><trkpt lat="36.86138575285902" lon="15.120225353072968"><ele>7.0</ele><time>2026-03-28T14:04:49.999Z</time></trkpt><trkpt lat="36.861294495695105" lon="15.12004510844731"><ele>7.0</ele><time>2026-03-28T14:04:50.999Z</time></trkpt><trkpt lat="36.86120685952934" lon="15.1198720158349"><ele>7.0</ele><time>2026-03-28T14:04:51.999Z</time></trkpt><trkpt lat="36.86112926214742" lon="15.119718488629115"><ele>6.5</ele><time>2026-03-28T14:04:52.999Z</time></trkpt><trkpt lat="36.861065624705226" lon="15.11959067418054"><ele>6.0</ele><time>2026-03-28T14:04:53.999Z</time></trkpt><trkpt lat="36.861001580307025" lon="15.119462040211797"><ele>5.5</ele><time>2026-03-28T14:04:54.999Z</time></trkpt><trkpt lat="36.86092686241053" lon="15.119312948082149"><ele>5.0</ele><time>2026-03-28T14:04:55.999Z</time></trkpt><trkpt lat="36.86084369536709" lon="15.119148769624696"><ele>7.666666666666666</ele><time>2026-03-28T14:04:56.999Z</time></trkpt><trkpt lat="36.860746549312424" lon="15.118988533485796"><ele>10.333333333333332</ele><time>2026-03-28T14:04:57.999Z</time></trkpt><trkpt lat="36.86066380750296" lon="15.118824788696996"><ele>13.0</ele><time>2026-03-28T14:04:58.999Z</time></trkpt><trkpt lat="36.86057667908342" lon="15.118678288929766"><ele>13.0</ele><time>2026-03-28T14:04:59.999Z</time></trkpt><trkpt lat="36.86048010583201" lon="15.118540728240312"><ele>13.0</ele><time>2026-03-28T14:05:00.999Z</time></trkpt><trkpt lat="36.860366055766846" lon="15.118412409900213"><ele>13.0</ele><time>2026-03-28T14:05:01.999Z</time></trkpt><trkpt lat="36.86022756454174" lon="15.118290059885448"><ele>13.0</ele><time>2026-03-28T14:05:02.999Z</time></trkpt><trkpt lat="36.860090483011525" lon="15.11818548733583"><ele>13.0</ele><time>2026-03-28T14:05:03.999Z</time></trkpt><trkpt lat="36.85997690688128" lon="15.118079534710807"><ele>13.0</ele><time>2026-03-28T14:05:04.999Z</time></trkpt><trkpt lat="36.859847934963945" lon="15.117984825369536"><ele>13.0</ele><time>2026-03-28T14:05:05.999Z</time></trkpt><trkpt lat="36.85972033384184" lon="15.117896654634777"><ele>13.0</ele><time>2026-03-28T14:05:06.999Z</time></trkpt><trkpt lat="36.859604107091414" lon="15.117814657046766"><ele>13.0</ele><time>2026-03-28T14:05:07.999Z</time></trkpt><trkpt lat="36.859498009765744" lon="15.117739451135703"><ele>13.0</ele><time>2026-03-28T14:05:08.999Z</time></trkpt><trkpt lat="36.85940322543272" lon="15.117671430661783"><ele>13.0</ele><time>2026-03-28T14:05:09.999Z</time></trkpt><trkpt lat="36.859309449692304" lon="15.117625783230384"><ele>13.0</ele><time>2026-03-28T14:05:10.999Z</time></trkpt><trkpt lat="36.85922101022937" lon="15.117552072745678"><ele>13.0</ele><time>2026-03-28T14:05:12Z</time></trkpt><trkpt lat="36.85913078355601" lon="15.11746436773795"><ele>13.0</ele><time>2026-03-28T14:05:13Z</time></trkpt><trkpt lat="36.85903187341633" lon="15.11737495993348"><ele>13.0</ele><time>2026-03-28T14:05:14Z</time></trkpt><trkpt lat="36.858912784926645" lon="15.11729021847388"><ele>12.5</ele><time>2026-03-28T14:05:15Z</time></trkpt><trkpt lat="36.85880299401413" lon="15.11721247533551"><ele>12.0</ele><time>2026-03-28T14:05:16Z</time></trkpt><trkpt lat="36.8586827097766" lon="15.117129470197645"><ele>11.5</ele><time>2026-03-28T14:05:17Z</time></trkpt><trkpt lat="36.85854583427966" lon="15.117049741086214"><ele>11.0</ele><time>2026-03-28T14:05:18Z</time></trkpt><trkpt lat="36.858392564052984" lon="15.11695904673751"><ele>10.0</ele><time>2026-03-28T14:05:19Z</time></trkpt><trkpt lat="36.85823780790198" lon="15.116847657151013"><ele>9.0</ele><time>2026-03-28T14:05:20Z</time></trkpt><trkpt lat="36.85808175241831" lon="15.116734868507843"><ele>8.0</ele><time>2026-03-28T14:05:21Z</time></trkpt><trkpt lat="36.857928512666476" lon="15.116625057541889"><ele>8.0</ele><time>2026-03-28T14:05:22Z</time></trkpt><trkpt lat="36.85778199299556" lon="15.116519136840699"><ele>8.0</ele><time>2026-03-28T14:05:23Z</time></trkpt><trkpt lat="36.857636022874104" lon="15.116413885758474"><ele>8.0</ele><time>2026-03-28T14:05:24Z</time></trkpt><trkpt lat="36.857493443806284" lon="15.116320483684213"><ele>8.0</ele><time>2026-03-28T14:05:25Z</time></trkpt><trkpt lat="36.85734893974288" lon="15.11621710573265"><ele>8.0</ele><time>2026-03-28T14:05:26Z</time></trkpt><trkpt lat="36.85721053036247" lon="15.116117332313085"><ele>8.0</ele><time>2026-03-28T14:05:27Z</time></trkpt><trkpt lat="36.85706701299232" lon="15.116014591431092"><ele>8.0</ele><time>2026-03-28T14:05:28Z</time></trkpt><trkpt lat="36.8569168952044" lon="15.11590582621043"><ele>8.0</ele><time>2026-03-28T14:05:29Z</time></trkpt><trkpt lat="36.85677301980188" lon="15.115802812786571"><ele>8.0</ele><time>2026-03-28T14:05:30Z</time></trkpt><trkpt lat="36.856630148167255" lon="15.11570152994889"><ele>8.0</ele><time>2026-03-28T14:05:31Z</time></trkpt><trkpt lat="36.856480597275315" lon="15.11559322887625"><ele>8.0</ele><time>2026-03-28T14:05:32Z</time></trkpt><trkpt lat="36.85632539272114" lon="15.115480534697612"><ele>8.0</ele><time>2026-03-28T14:05:33Z</time></trkpt><trkpt lat="36.856169355020754" lon="15.115372606354185"><ele>8.0</ele><time>2026-03-28T14:05:34Z</time></trkpt><trkpt lat="36.85601338077764" lon="15.115262489937328"><ele>8.0</ele><time>2026-03-28T14:05:35Z</time></trkpt><trkpt lat="36.85585753584001" lon="15.115151503270843"><ele>8.0</ele><time>2026-03-28T14:05:36Z</time></trkpt><trkpt lat="36.85570254944644" lon="15.115040689162436"><ele>7.333333333333333</ele><time>2026-03-28T14:05:37Z</time></trkpt><trkpt lat="36.8555465983856" lon="15.114929340203767"><ele>6.666666666666666</ele><time>2026-03-28T14:05:38Z</time></trkpt><trkpt lat="36.85539530039731" lon="15.114820829615725"><ele>6.0</ele><time>2026-03-28T14:05:39Z</time></trkpt><trkpt lat="36.85525867246696" lon="15.114726263059527"><ele>6.0</ele><time>2026-03-28T14:05:40Z</time></trkpt><trkpt lat="36.85512844029653" lon="15.114637515192118"><ele>6.0</ele><time>2026-03-28T14:05:41Z</time></trkpt><trkpt lat="36.85500409712088" lon="15.114546314130752"><ele>6.0</ele><time>2026-03-28T14:05:42Z</time></trkpt><trkpt lat="36.85488075314869" lon="15.114457234463988"><ele>6.0</ele><time>2026-03-28T14:05:43Z</time></trkpt><trkpt lat="36.85477132104411" lon="15.114380530529694"><ele>6.5</ele><time>2026-03-28T14:05:44Z</time></trkpt><trkpt lat="36.854667331711006" lon="15.114307006708263"><ele>7.0</ele><time>2026-03-28T14:05:45Z</time></trkpt><trkpt lat="36.854558615060654" lon="15.11423243426869"><ele>7.5</ele><time>2026-03-28T14:05:46Z</time></trkpt><trkpt lat="36.85444526137721" lon="15.114144946949354"><ele>8.0</ele><time>2026-03-28T14:05:47Z</time></trkpt><trkpt lat="36.854367952341605" lon="15.113997525218512"><ele>9.75</ele><time>2026-03-28T14:05:48Z</time></trkpt><trkpt lat="36.85426154769278" lon="15.113911502897896"><ele>11.5</ele><time>2026-03-28T14:05:49Z</time></trkpt><trkpt lat="36.85417213140203" lon="15.113819115213321"><ele>13.25</ele><time>2026-03-28T14:05:50Z</time></trkpt><trkpt lat="36.854055442907324" lon="15.11374981002715"><ele>15.0</ele><time>2026-03-28T14:05:51Z</time></trkpt><trkpt lat="36.853958338054255" lon="15.113638712978252"><ele>15.0</ele><time>2026-03-28T14:05:52Z</time></trkpt><trkpt lat="36.853857970175454" lon="15.113547261388032"><ele>15.0</ele><time>2026-03-28T14:05:53Z</time></trkpt><trkpt lat="36.853765416103286" lon="15.113465501889115"><ele>15.0</ele><time>2026-03-28T14:05:54Z</time></trkpt><trkpt lat="36.85368389767071" lon="15.113393628947916"><ele>15.0</ele><time>2026-03-28T14:05:55Z</time></trkpt><trkpt lat="36.853593408749965" lon="15.113342648787864"><ele>15.0</ele><time>2026-03-28T14:05:56Z</time></trkpt><trkpt lat="36.85353372005136" lon="15.113269518259548"><ele>15.0</ele><time>2026-03-28T14:05:57Z</time></trkpt><trkpt lat="36.8534840846379" lon="15.113187375399656"><ele>15.0</ele><time>2026-03-28T14:05:58Z</time></trkpt><trkpt lat="36.85343258995123" lon="15.113141116562556"><ele>15.0</ele><time>2026-03-28T14:05:59Z</time></trkpt><trkpt lat="36.85348052018201" lon="15.11296156338925"><ele>15.0</ele><time>2026-03-28T14:06:00Z</time></trkpt><trkpt lat="36.85347078721109" lon="15.11281497134062"><ele>15.0</ele><time>2026-03-28T14:06:01Z</time></trkpt><trkpt lat="36.85345540666255" lon="15.112668955436549"><ele>14.0</ele><time>2026-03-28T14:06:02Z</time></trkpt><trkpt lat="36.853424084020304" lon="15.11250881992801"><ele>13.0</ele><time>2026-03-28T14:06:03Z</time></trkpt><trkpt lat="36.853368926005345" lon="15.112339952845925"><ele>12.0</ele><time>2026-03-28T14:06:04Z</time></trkpt><trkpt lat="36.853283587729216" lon="15.112192842866031"><ele>11.0</ele><time>2026-03-28T14:06:05Z</time></trkpt><trkpt lat="36.85323643204908" lon="15.1120428201791"><ele>10.200000000000001</ele><time>2026-03-28T14:06:06Z</time></trkpt><trkpt lat="36.85318361115306" lon="15.111905499602745"><ele>9.4</ele><time>2026-03-28T14:06:07Z</time></trkpt><trkpt lat="36.85313646627211" lon="15.111777143484302"><ele>8.6</ele><time>2026-03-28T14:06:08Z</time></trkpt><trkpt lat="36.853098897537244" lon="15.1116653702191"><ele>7.8</ele><time>2026-03-28T14:06:09Z</time></trkpt><trkpt lat="36.853063920201514" lon="15.111559028204697"><ele>7.0</ele><time>2026-03-28T14:06:10Z</time></trkpt><trkpt lat="36.85303004691145" lon="15.111467055399903"><ele>7.0</ele><time>2026-03-28T14:06:11Z</time></trkpt><trkpt lat="36.852991631675636" lon="15.111379390519163"><ele>6.999999999999999</ele><time>2026-03-28T14:06:12Z</time></trkpt><trkpt lat="36.85291957863766" lon="15.111288805975038"><ele>6.999999999999999</ele><time>2026-03-28T14:06:13Z</time></trkpt><trkpt lat="36.85281854908768" lon="15.111236246733561"><ele>7.0</ele><time>2026-03-28T14:06:14Z</time></trkpt><trkpt lat="36.852712571098344" lon="15.111184042510205"><ele>7.0</ele><time>2026-03-28T14:06:15Z</time></trkpt><trkpt lat="36.85262235794061" lon="15.11111686535963"><ele>7.25</ele><time>2026-03-28T14:06:16Z</time></trkpt><trkpt lat="36.85257833796164" lon="15.110990674314749"><ele>7.5</ele><time>2026-03-28T14:06:17Z</time></trkpt><trkpt lat="36.85252164447368" lon="15.110848353455584"><ele>7.75</ele><time>2026-03-28T14:06:18Z</time></trkpt><trkpt lat="36.852456065951245" lon="15.110680320624263"><ele>8.0</ele><time>2026-03-28T14:06:19Z</time></trkpt><trkpt lat="36.85241899179311" lon="15.110515284088716"><ele>10.2</ele><time>2026-03-28T14:06:20Z</time></trkpt><trkpt lat="36.852398354928795" lon="15.11034071147308"><ele>12.4</ele><time>2026-03-28T14:06:21Z</time></trkpt><trkpt lat="36.85236280391763" lon="15.110210309029336"><ele>14.599999999999998</ele><time>2026-03-28T14:06:22Z</time></trkpt><trkpt lat="36.852339905905545" lon="15.110105935466597"><ele>16.8</ele><time>2026-03-28T14:06:23Z</time></trkpt><trkpt lat="36.852286230085696" lon="15.109995877510578"><ele>19.0</ele><time>2026-03-28T14:06:24Z</time></trkpt><trkpt lat="36.85221385233923" lon="15.109905864749608"><ele>19.75</ele><time>2026-03-28T14:06:25Z</time></trkpt><trkpt lat="36.85212099253355" lon="15.109844271564398"><ele>20.5</ele><time>2026-03-28T14:06:26Z</time></trkpt><trkpt lat="36.85201871406569" lon="15.109815903269405"><ele>21.25</ele><time>2026-03-28T14:06:27Z</time></trkpt><trkpt lat="36.85191037267666" lon="15.10977333784421"><ele>22.0</ele><time>2026-03-28T14:06:28Z</time></trkpt><trkpt lat="36.85178907796618" lon="15.109713731687318"><ele>22.0</ele><time>2026-03-28T14:06:29Z</time></trkpt><trkpt lat="36.851683456648786" lon="15.109663190229552"><ele>22.0</ele><time>2026-03-28T14:06:30Z</time></trkpt><trkpt lat="36.85159564810522" lon="15.10962393798461"><ele>22.0</ele><time>2026-03-28T14:06:31Z</time></trkpt><trkpt lat="36.85150606106882" lon="15.109585049782408"><ele>22.0</ele><time>2026-03-28T14:06:32Z</time></trkpt><trkpt lat="36.851403017485296" lon="15.109544826524553"><ele>22.0</ele><time>2026-03-28T14:06:33Z</time></trkpt><trkpt lat="36.85128646210342" lon="15.109524079433042"><ele>22.0</ele><time>2026-03-28T14:06:34Z</time></trkpt><trkpt lat="36.85119010589263" lon="15.109488702136138"><ele>22.0</ele><time>2026-03-28T14:06:35Z</time></trkpt><trkpt lat="36.85110671158633" lon="15.109460455682898"><ele>22.0</ele><time>2026-03-28T14:06:36Z</time></trkpt><trkpt lat="36.85102282635428" lon="15.109412327233867"><ele>22.0</ele><time>2026-03-28T14:06:37Z</time></trkpt><trkpt lat="36.850936343484356" lon="15.109381646947899"><ele>22.0</ele><time>2026-03-28T14:06:38Z</time></trkpt><trkpt lat="36.85086084459874" lon="15.10935410230017"><ele>22.0</ele><time>2026-03-28T14:06:39Z</time></trkpt><trkpt lat="36.850786044807236" lon="15.109326812598994"><ele>20.6</ele><time>2026-03-28T14:06:40Z</time></trkpt><trkpt lat="36.850719508110615" lon="15.10930253767336"><ele>19.200000000000003</ele><time>2026-03-28T14:06:41Z</time></trkpt><trkpt lat="36.850651678971836" lon="15.109298448605616"><ele>17.8</ele><time>2026-03-28T14:06:42Z</time></trkpt><trkpt lat="36.850570383224216" lon="15.10921138725908"><ele>16.4</ele><time>2026-03-28T14:06:44Z</time></trkpt><trkpt lat="36.850544730828595" lon="15.10907460613294"><ele>15.0</ele><time>2026-03-28T14:06:46Z</time></trkpt><trkpt lat="36.85056525031549" lon="15.108954644898546"><ele>14.75</ele><time>2026-03-28T14:06:47Z</time></trkpt><trkpt lat="36.85059022488593" lon="15.10880762942974"><ele>14.5</ele><time>2026-03-28T14:06:48Z</time></trkpt><trkpt lat="36.85062644817231" lon="15.108644085572266"><ele>14.25</ele><time>2026-03-28T14:06:49Z</time></trkpt><trkpt lat="36.850673463571724" lon="15.108466216134184"><ele>14.0</ele><time>2026-03-28T14:06:50Z</time></trkpt><trkpt lat="36.85071914855563" lon="15.108274552082822"><ele>13.75</ele><time>2026-03-28T14:06:51Z</time></trkpt><trkpt lat="36.85075918803966" lon="15.108081129353664"><ele>13.5</ele><time>2026-03-28T14:06:51.999Z</time></trkpt><trkpt lat="36.85079098143561" lon="15.107910498574046"><ele>13.25</ele><time>2026-03-28T14:06:52.999Z</time></trkpt><trkpt lat="36.85081575117991" lon="15.107755216589062"><ele>13.0</ele><time>2026-03-28T14:06:53.999Z</time></trkpt><trkpt lat="36.850832486386665" lon="15.107618448801535"><ele>12.999999999999998</ele><time>2026-03-28T14:06:54.999Z</time></trkpt><trkpt lat="36.850845271662465" lon="15.107491179159046"><ele>13.0</ele><time>2026-03-28T14:06:55.999Z</time></trkpt><trkpt lat="36.850850098376675" lon="15.107384279228569"><ele>13.0</ele><time>2026-03-28T14:06:56.999Z</time></trkpt><trkpt lat="36.85084738353583" lon="15.107305298750637"><ele>13.0</ele><time>2026-03-28T14:06:57.999Z</time></trkpt><trkpt lat="36.85084390037611" lon="15.10721410183531"><ele>12.999999999999998</ele><time>2026-03-28T14:06:59.999Z</time></trkpt><trkpt lat="36.85084897626387" lon="15.107134385268598"><ele>13.0</ele><time>2026-03-28T14:07:04.999Z</time></trkpt><trkpt lat="36.85084149356125" lon="15.107040242348548"><ele>13.166666666666666</ele><time>2026-03-28T14:07:20Z</time></trkpt><trkpt lat="36.85082900285393" lon="15.106963089441914"><ele>13.333333333333332</ele><time>2026-03-28T14:07:22Z</time></trkpt><trkpt lat="36.8508956236569" lon="15.106919267509083"><ele>13.5</ele><time>2026-03-28T14:07:24Z</time></trkpt><trkpt lat="36.85096279699665" lon="15.106995843174717"><ele>13.666666666666668</ele><time>2026-03-28T14:07:25Z</time></trkpt><trkpt lat="36.85102984820976" lon="15.10700826650093"><ele>13.833333333333334</ele><time>2026-03-28T14:07:26Z</time></trkpt><trkpt lat="36.85108826913985" lon="15.107038402329447"><ele>14.0</ele><time>2026-03-28T14:07:30Z</time></trkpt><trkpt lat="36.85104805863377" lon="15.106837963986788"><ele>14.0</ele><time>2026-03-28T14:08:25Z</time></trkpt><trkpt lat="36.85096843117763" lon="15.106785151888939"><ele>14.0</ele><time>2026-03-28T14:08:27Z</time></trkpt><trkpt lat="36.85089107300463" lon="15.106920041547829"><ele>14.0</ele><time>2026-03-28T14:08:28Z</time></trkpt><trkpt lat="36.850823486869096" lon="15.10690770567269"><ele>14.0</ele><time>2026-03-28T14:08:29Z</time></trkpt><trkpt lat="36.85080958546498" lon="15.106631809783282"><ele>14.0</ele><time>2026-03-28T14:08:30Z</time></trkpt><trkpt lat="36.85082319896351" lon="15.10651855023758"><ele>13.999999999999998</ele><time>2026-03-28T14:08:32Z</time></trkpt><trkpt lat="36.85062904459415" lon="15.106486242113014"><ele>13.999999999999998</ele><time>2026-03-28T14:08:33Z</time></trkpt><trkpt lat="36.85057522621035" lon="15.106441717253324"><ele>14.0</ele><time>2026-03-28T14:08:34Z</time></trkpt><trkpt lat="36.85052291093576" lon="15.106388471356865"><ele>14.0</ele><time>2026-03-28T14:08:35Z</time></trkpt><trkpt lat="36.85046655679421" lon="15.106333600740252"><ele>14.000000000000002</ele><time>2026-03-28T14:08:36Z</time></trkpt><trkpt lat="36.85040852698439" lon="15.106283361546032"><ele>14.0</ele><time>2026-03-28T14:08:37Z</time></trkpt><trkpt lat="36.85034827643304" lon="15.106231322985193"><ele>14.0</ele><time>2026-03-28T14:08:38Z</time></trkpt><trkpt lat="36.85029034773762" lon="15.106177368600642"><ele>14.0</ele><time>2026-03-28T14:08:39Z</time></trkpt><trkpt lat="36.850231044517216" lon="15.106126210717115"><ele>14.000000000000002</ele><time>2026-03-28T14:08:40Z</time></trkpt><trkpt lat="36.85015810287631" lon="15.10605982661391"><ele>14.0</ele><time>2026-03-28T14:08:41Z</time></trkpt><trkpt lat="36.85007504922879" lon="15.105988215297659"><ele>13.799999999999999</ele><time>2026-03-28T14:08:42Z</time></trkpt><trkpt lat="36.85000690306801" lon="15.105926215730198"><ele>13.599999999999998</ele><time>2026-03-28T14:08:43Z</time></trkpt><trkpt lat="36.84994358560105" lon="15.10587225763486"><ele>13.4</ele><time>2026-03-28T14:08:44Z</time></trkpt><trkpt lat="36.849866850876566" lon="15.105810495085757"><ele>13.2</ele><time>2026-03-28T14:08:45Z</time></trkpt><trkpt lat="36.84978847386915" lon="15.105738257409024"><ele>13.0</ele><time>2026-03-28T14:08:46Z</time></trkpt><trkpt lat="36.84970816015418" lon="15.105658863288037"><ele>12.666666666666666</ele><time>2026-03-28T14:08:47Z</time></trkpt><trkpt lat="36.84963688418694" lon="15.105591335257897"><ele>12.333333333333332</ele><time>2026-03-28T14:08:48Z</time></trkpt><trkpt lat="36.84957053124902" lon="15.10553373203567"><ele>12.0</ele><time>2026-03-28T14:08:48.999Z</time></trkpt><trkpt lat="36.849504699363344" lon="15.105474995197092"><ele>11.666666666666666</ele><time>2026-03-28T14:08:49.999Z</time></trkpt><trkpt lat="36.84943301610835" lon="15.105414437547232"><ele>11.333333333333332</ele><time>2026-03-28T14:08:50.999Z</time></trkpt><trkpt lat="36.849365293492795" lon="15.105349644595274"><ele>11.0</ele><time>2026-03-28T14:08:51.999Z</time></trkpt><trkpt lat="36.849295280862265" lon="15.105283687363363"><ele>11.333333333333332</ele><time>2026-03-28T14:08:52.999Z</time></trkpt><trkpt lat="36.84922277961573" lon="15.105223120555417"><ele>11.666666666666666</ele><time>2026-03-28T14:08:53.999Z</time></trkpt><trkpt lat="36.84915194799158" lon="15.105155901792877"><ele>12.0</ele><time>2026-03-28T14:08:54.999Z</time></trkpt><trkpt lat="36.84907699172942" lon="15.10509024766751"><ele>12.333333333333332</ele><time>2026-03-28T14:08:55.999Z</time></trkpt><trkpt lat="36.84901297378172" lon="15.105026614566686"><ele>12.666666666666666</ele><time>2026-03-28T14:08:56.999Z</time></trkpt><trkpt lat="36.84894240299622" lon="15.104965064280579"><ele>13.0</ele><time>2026-03-28T14:08:57.999Z</time></trkpt><trkpt lat="36.84887897050929" lon="15.10490116482222"><ele>13.600000000000001</ele><time>2026-03-28T14:08:58.999Z</time></trkpt><trkpt lat="36.848802614838654" lon="15.10483583931135"><ele>14.200000000000001</ele><time>2026-03-28T14:08:59.999Z</time></trkpt><trkpt lat="36.84873849925864" lon="15.104776061488964"><ele>14.8</ele><time>2026-03-28T14:09:00.999Z</time></trkpt><trkpt lat="36.848651797146374" lon="15.104703051404163"><ele>15.4</ele><time>2026-03-28T14:09:01.999Z</time></trkpt><trkpt lat="36.84855595260683" lon="15.104615198920547"><ele>16.0</ele><time>2026-03-28T14:09:02.999Z</time></trkpt><trkpt lat="36.84846467398345" lon="15.104533075807586"><ele>18.200000000000003</ele><time>2026-03-28T14:09:03.999Z</time></trkpt><trkpt lat="36.84837681668245" lon="15.104448373645125"><ele>20.400000000000002</ele><time>2026-03-28T14:09:04.999Z</time></trkpt><trkpt lat="36.84828880917134" lon="15.104378181303577"><ele>22.6</ele><time>2026-03-28T14:09:05.999Z</time></trkpt><trkpt lat="36.84821760272116" lon="15.104316623363806"><ele>24.8</ele><time>2026-03-28T14:09:06.999Z</time></trkpt><trkpt lat="36.848148482583305" lon="15.104246380852278"><ele>27.0</ele><time>2026-03-28T14:09:07.999Z</time></trkpt><trkpt lat="36.84807002735166" lon="15.10417327775454"><ele>27.0</ele><time>2026-03-28T14:09:08.999Z</time></trkpt><trkpt lat="36.84798263963839" lon="15.104097914879462"><ele>27.000000000000004</ele><time>2026-03-28T14:09:09.999Z</time></trkpt><trkpt lat="36.84789932288689" lon="15.104018005702823"><ele>27.000000000000004</ele><time>2026-03-28T14:09:10.999Z</time></trkpt><trkpt lat="36.847815136643185" lon="15.103947097660981"><ele>27.0</ele><time>2026-03-28T14:09:11.999Z</time></trkpt><trkpt lat="36.84773177401816" lon="15.103865555425937"><ele>27.0</ele><time>2026-03-28T14:09:12.999Z</time></trkpt><trkpt lat="36.8476483061668" lon="15.103789798093043"><ele>27.400000000000002</ele><time>2026-03-28T14:09:13.999Z</time></trkpt><trkpt lat="36.84756201680418" lon="15.103707103651487"><ele>27.800000000000004</ele><time>2026-03-28T14:09:14.999Z</time></trkpt><trkpt lat="36.84748470767879" lon="15.10363445454001"><ele>28.2</ele><time>2026-03-28T14:09:15.999Z</time></trkpt><trkpt lat="36.84741350685388" lon="15.103582391359534"><ele>28.6</ele><time>2026-03-28T14:09:16.999Z</time></trkpt><trkpt lat="36.847327004922384" lon="15.103495406185234"><ele>29.0</ele><time>2026-03-28T14:09:17.999Z</time></trkpt><trkpt lat="36.84724579671969" lon="15.103426124426631"><ele>29.0</ele><time>2026-03-28T14:09:18.999Z</time></trkpt><trkpt lat="36.84716514616307" lon="15.103357004108686"><ele>29.0</ele><time>2026-03-28T14:09:19.999Z</time></trkpt><trkpt lat="36.847085152201025" lon="15.103282180536493"><ele>29.0</ele><time>2026-03-28T14:09:20.999Z</time></trkpt><trkpt lat="36.8470205166768" lon="15.103219302671798"><ele>29.0</ele><time>2026-03-28T14:09:21.999Z</time></trkpt><trkpt lat="36.84695151657043" lon="15.10314592519362"><ele>29.0</ele><time>2026-03-28T14:09:23Z</time></trkpt><trkpt lat="36.84688075280655" lon="15.103073240699105"><ele>29.0</ele><time>2026-03-28T14:09:24Z</time></trkpt><trkpt lat="36.84680878503898" lon="15.10299014652798"><ele>29.0</ele><time>2026-03-28T14:09:25Z</time></trkpt><trkpt lat="36.846740546946165" lon="15.102906989568476"><ele>29.0</ele><time>2026-03-28T14:09:26Z</time></trkpt><trkpt lat="36.84667132083178" lon="15.102813649905016"><ele>29.0</ele><time>2026-03-28T14:09:27Z</time></trkpt><trkpt lat="36.84660763549821" lon="15.10271722527548"><ele>29.0</ele><time>2026-03-28T14:09:28Z</time></trkpt><trkpt lat="36.846537212627595" lon="15.102617095123572"><ele>27.75</ele><time>2026-03-28T14:09:29Z</time></trkpt><trkpt lat="36.84646756300789" lon="15.102499009088437"><ele>26.5</ele><time>2026-03-28T14:09:30Z</time></trkpt><trkpt lat="36.84640255052078" lon="15.102376274402598"><ele>25.25</ele><time>2026-03-28T14:09:31Z</time></trkpt><trkpt lat="36.846342304561766" lon="15.102258635333095"><ele>24.0</ele><time>2026-03-28T14:09:32Z</time></trkpt><trkpt lat="36.8462919584044" lon="15.102135234542951"><ele>23.75</ele><time>2026-03-28T14:09:33Z</time></trkpt><trkpt lat="36.84624282914693" lon="15.102013951484277"><ele>23.5</ele><time>2026-03-28T14:09:34Z</time></trkpt><trkpt lat="36.84619234564639" lon="15.101885754926018"><ele>23.25</ele><time>2026-03-28T14:09:35Z</time></trkpt><trkpt lat="36.84614885388816" lon="15.10175264071227"><ele>23.0</ele><time>2026-03-28T14:09:36Z</time></trkpt><trkpt lat="36.84610734270588" lon="15.101614070000384"><ele>22.0</ele><time>2026-03-28T14:09:37Z</time></trkpt><trkpt lat="36.846066288059696" lon="15.101483202848652"><ele>21.0</ele><time>2026-03-28T14:09:38Z</time></trkpt><trkpt lat="36.84602787644679" lon="15.101349077735494"><ele>20.0</ele><time>2026-03-28T14:09:39Z</time></trkpt><trkpt lat="36.845989870951506" lon="15.10122921057198"><ele>19.0</ele><time>2026-03-28T14:09:40Z</time></trkpt><trkpt lat="36.84594839521775" lon="15.10110505572469"><ele>18.0</ele><time>2026-03-28T14:09:41Z</time></trkpt><trkpt lat="36.84591168506515" lon="15.100999445545323"><ele>17.333333333333332</ele><time>2026-03-28T14:09:42Z</time></trkpt><trkpt lat="36.84588201435601" lon="15.10089332505452"><ele>16.666666666666668</ele><time>2026-03-28T14:09:43Z</time></trkpt><trkpt lat="36.84584855659466" lon="15.100797260777258"><ele>16.0</ele><time>2026-03-28T14:09:44Z</time></trkpt><trkpt lat="36.84581515200539" lon="15.100694992519127"><ele>15.333333333333334</ele><time>2026-03-28T14:09:45Z</time></trkpt><trkpt lat="36.845784803512096" lon="15.10059881540113"><ele>14.666666666666668</ele><time>2026-03-28T14:09:46Z</time></trkpt><trkpt lat="36.84575604604245" lon="15.100502400336348"><ele>14.0</ele><time>2026-03-28T14:09:47Z</time></trkpt><trkpt lat="36.84572961537054" lon="15.100402617533067"><ele>13.799999999999999</ele><time>2026-03-28T14:09:48Z</time></trkpt><trkpt lat="36.84569837929964" lon="15.100302425549362"><ele>13.599999999999998</ele><time>2026-03-28T14:09:49Z</time></trkpt><trkpt lat="36.845662689633755" lon="15.10020178040474"><ele>13.4</ele><time>2026-03-28T14:09:50Z</time></trkpt><trkpt lat="36.84562522089706" lon="15.100094126766864"><ele>13.2</ele><time>2026-03-28T14:09:51Z</time></trkpt><trkpt lat="36.845590500494865" lon="15.099985034948784"><ele>13.0</ele><time>2026-03-28T14:09:52Z</time></trkpt><trkpt lat="36.84555617648859" lon="15.099879146692606"><ele>13.0</ele><time>2026-03-28T14:09:53Z</time></trkpt><trkpt lat="36.84552493183419" lon="15.099775586994772"><ele>13.0</ele><time>2026-03-28T14:09:54Z</time></trkpt><trkpt lat="36.84549461501585" lon="15.099677094116986"><ele>13.0</ele><time>2026-03-28T14:09:55Z</time></trkpt><trkpt lat="36.84546096768258" lon="15.09956679145668"><ele>13.0</ele><time>2026-03-28T14:09:56Z</time></trkpt><trkpt lat="36.84542601750242" lon="15.099460735662442"><ele>13.0</ele><time>2026-03-28T14:09:57Z</time></trkpt><trkpt lat="36.84538848475959" lon="15.099338553539319"><ele>13.0</ele><time>2026-03-28T14:09:58Z</time></trkpt><trkpt lat="36.84534825818377" lon="15.099223744892953"><ele>13.0</ele><time>2026-03-28T14:09:59Z</time></trkpt><trkpt lat="36.84531160852262" lon="15.099114848530402"><ele>13.0</ele><time>2026-03-28T14:10:00Z</time></trkpt><trkpt lat="36.845273753933206" lon="15.098992114386691"><ele>13.0</ele><time>2026-03-28T14:10:01Z</time></trkpt><trkpt lat="36.84523858550801" lon="15.098893421660916"><ele>13.0</ele><time>2026-03-28T14:10:02Z</time></trkpt><trkpt lat="36.845209994891114" lon="15.098785795279605"><ele>13.2</ele><time>2026-03-28T14:10:03Z</time></trkpt><trkpt lat="36.84518202826429" lon="15.098668582493984"><ele>13.4</ele><time>2026-03-28T14:10:04Z</time></trkpt><trkpt lat="36.845155599082126" lon="15.098542251142396"><ele>13.599999999999998</ele><time>2026-03-28T14:10:05Z</time></trkpt><trkpt lat="36.84513234706847" lon="15.098425587829256"><ele>13.799999999999999</ele><time>2026-03-28T14:10:06Z</time></trkpt><trkpt lat="36.84511939181259" lon="15.098325904215438"><ele>14.0</ele><time>2026-03-28T14:10:07Z</time></trkpt><trkpt lat="36.8451051555027" lon="15.09820159193477"><ele>14.2</ele><time>2026-03-28T14:10:08Z</time></trkpt><trkpt lat="36.84508750436165" lon="15.098074826825691"><ele>14.399999999999999</ele><time>2026-03-28T14:10:09Z</time></trkpt><trkpt lat="36.845071867269105" lon="15.097941950893865"><ele>14.6</ele><time>2026-03-28T14:10:10Z</time></trkpt><trkpt lat="36.84506321032529" lon="15.097807497289487"><ele>14.8</ele><time>2026-03-28T14:10:11Z</time></trkpt><trkpt lat="36.845061828505536" lon="15.09768210569539"><ele>15.0</ele><time>2026-03-28T14:10:12Z</time></trkpt><trkpt lat="36.8450624150391" lon="15.097561629334457"><ele>15.0</ele><time>2026-03-28T14:10:13Z</time></trkpt><trkpt lat="36.845065814859375" lon="15.097431566978221"><ele>15.0</ele><time>2026-03-28T14:10:14Z</time></trkpt><trkpt lat="36.845079006682894" lon="15.097321884701444"><ele>15.0</ele><time>2026-03-28T14:10:15Z</time></trkpt><trkpt lat="36.84508345131259" lon="15.097185701072796"><ele>15.0</ele><time>2026-03-28T14:10:16Z</time></trkpt><trkpt lat="36.84510094834244" lon="15.097058051898218"><ele>15.0</ele><time>2026-03-28T14:10:17Z</time></trkpt><trkpt lat="36.8451179877454" lon="15.096934551100935"><ele>16.8</ele><time>2026-03-28T14:10:18Z</time></trkpt><trkpt lat="36.84513499825691" lon="15.096808270390854"><ele>18.6</ele><time>2026-03-28T14:10:19Z</time></trkpt><trkpt lat="36.84515848150501" lon="15.096687778844782"><ele>20.4</ele><time>2026-03-28T14:10:20Z</time></trkpt><trkpt lat="36.84518373411838" lon="15.096569879811446"><ele>22.2</ele><time>2026-03-28T14:10:21Z</time></trkpt><trkpt lat="36.84520713555914" lon="15.096452357758249"><ele>24.0</ele><time>2026-03-28T14:10:22Z</time></trkpt><trkpt lat="36.84523108944549" lon="15.096326648448837"><ele>24.5</ele><time>2026-03-28T14:10:23Z</time></trkpt><trkpt lat="36.84525310490704" lon="15.096201422797218"><ele>25.0</ele><time>2026-03-28T14:10:24Z</time></trkpt><trkpt lat="36.84527477720565" lon="15.096080780899472"><ele>25.5</ele><time>2026-03-28T14:10:25Z</time></trkpt><trkpt lat="36.84547152853636" lon="15.096023079282451"><ele>26.0</ele><time>2026-03-28T14:10:26Z</time></trkpt><trkpt lat="36.84548806151406" lon="15.095851366202872"><ele>24.75</ele><time>2026-03-28T14:10:27Z</time></trkpt><trkpt lat="36.84549320637124" lon="15.095726020573942"><ele>23.5</ele><time>2026-03-28T14:10:28Z</time></trkpt><trkpt lat="36.84549830871196" lon="15.095601710702434"><ele>22.25</ele><time>2026-03-28T14:10:29Z</time></trkpt><trkpt lat="36.845352869455155" lon="15.095466456775632"><ele>21.0</ele><time>2026-03-28T14:10:30Z</time></trkpt><trkpt lat="36.84525198906517" lon="15.09569256683632"><ele>21.0</ele><time>2026-03-28T14:10:31Z</time></trkpt><trkpt lat="36.84543336853067" lon="15.095152881673277"><ele>21.0</ele><time>2026-03-28T14:10:32Z</time></trkpt><trkpt lat="36.84546167072094" lon="15.095004129409327"><ele>21.0</ele><time>2026-03-28T14:10:33Z</time></trkpt><trkpt lat="36.8454857916652" lon="15.09485522219185"><ele>21.0</ele><time>2026-03-28T14:10:34Z</time></trkpt><trkpt lat="36.845504197886434" lon="15.094734553210543"><ele>21.0</ele><time>2026-03-28T14:10:35Z</time></trkpt><trkpt lat="36.84552527261009" lon="15.094622469087875"><ele>21.0</ele><time>2026-03-28T14:10:36Z</time></trkpt><trkpt lat="36.84555219464281" lon="15.094496335160224"><ele>21.0</ele><time>2026-03-28T14:10:37Z</time></trkpt><trkpt lat="36.84557311859602" lon="15.094368356636872"><ele>21.0</ele><time>2026-03-28T14:10:38Z</time></trkpt><trkpt lat="36.84558491210255" lon="15.094251178844766"><ele>21.0</ele><time>2026-03-28T14:10:39Z</time></trkpt><trkpt lat="36.84559355716458" lon="15.09413669660869"><ele>21.0</ele><time>2026-03-28T14:10:40Z</time></trkpt><trkpt lat="36.845599799435526" lon="15.094018982094111"><ele>21.0</ele><time>2026-03-28T14:10:41Z</time></trkpt><trkpt lat="36.84560471243355" lon="15.093903516026877"><ele>21.0</ele><time>2026-03-28T14:10:42Z</time></trkpt><trkpt lat="36.845607638965774" lon="15.093784382014556"><ele>21.0</ele><time>2026-03-28T14:10:43Z</time></trkpt><trkpt lat="36.845603161369134" lon="15.093661109017317"><ele>21.0</ele><time>2026-03-28T14:10:44Z</time></trkpt><trkpt lat="36.84559302349967" lon="15.093539410572653"><ele>21.0</ele><time>2026-03-28T14:10:45Z</time></trkpt><trkpt lat="36.84558444740056" lon="15.093410375130217"><ele>21.0</ele><time>2026-03-28T14:10:46Z</time></trkpt><trkpt lat="36.84557022914786" lon="15.093305065371577"><ele>20.2</ele><time>2026-03-28T14:10:47Z</time></trkpt><trkpt lat="36.84556061441691" lon="15.093196103864614"><ele>19.400000000000002</ele><time>2026-03-28T14:10:48Z</time></trkpt><trkpt lat="36.845536933639266" lon="15.093076508335168"><ele>18.6</ele><time>2026-03-28T14:10:49Z</time></trkpt><trkpt lat="36.84551270623343" lon="15.092962682517527"><ele>17.8</ele><time>2026-03-28T14:10:50Z</time></trkpt><trkpt lat="36.845483876064264" lon="15.09285440665798"><ele>17.0</ele><time>2026-03-28T14:10:51Z</time></trkpt><trkpt lat="36.8454501646834" lon="15.092744911147516"><ele>17.0</ele><time>2026-03-28T14:10:52Z</time></trkpt><trkpt lat="36.845419729917246" lon="15.09263352424996"><ele>17.0</ele><time>2026-03-28T14:10:53Z</time></trkpt><trkpt lat="36.84538196561499" lon="15.092523429463908"><ele>17.0</ele><time>2026-03-28T14:10:54Z</time></trkpt><trkpt lat="36.845343418131215" lon="15.092419491999467"><ele>17.0</ele><time>2026-03-28T14:10:55Z</time></trkpt><trkpt lat="36.845305179612055" lon="15.092311866609"><ele>17.0</ele><time>2026-03-28T14:10:56Z</time></trkpt><trkpt lat="36.84525610769709" lon="15.092203625616419"><ele>15.6</ele><time>2026-03-28T14:10:57Z</time></trkpt><trkpt lat="36.845203066840924" lon="15.092103734859304"><ele>14.2</ele><time>2026-03-28T14:10:58Z</time></trkpt><trkpt lat="36.845149241088706" lon="15.091998915656905"><ele>12.8</ele><time>2026-03-28T14:10:59Z</time></trkpt><trkpt lat="36.84509613297454" lon="15.091899677793139"><ele>11.4</ele><time>2026-03-28T14:11:00Z</time></trkpt><trkpt lat="36.845043167976335" lon="15.091811358479342"><ele>10.0</ele><time>2026-03-28T14:11:01Z</time></trkpt><trkpt lat="36.844980405202804" lon="15.0917211372873"><ele>9.5</ele><time>2026-03-28T14:11:02Z</time></trkpt><trkpt lat="36.84492007811922" lon="15.091626437743232"><ele>9.0</ele><time>2026-03-28T14:11:03Z</time></trkpt><trkpt lat="36.84486701030956" lon="15.091540965171552"><ele>8.5</ele><time>2026-03-28T14:11:04Z</time></trkpt><trkpt lat="36.84480720957229" lon="15.09147681089476"><ele>8.0</ele><time>2026-03-28T14:11:04.999Z</time></trkpt><trkpt lat="36.844751836622706" lon="15.091413583021163"><ele>7.500000000000001</ele><time>2026-03-28T14:11:05.999Z</time></trkpt><trkpt lat="36.84470626417147" lon="15.091359295861485"><ele>7.0</ele><time>2026-03-28T14:11:06.999Z</time></trkpt><trkpt lat="36.84464216455603" lon="15.091284105873081"><ele>7.0</ele><time>2026-03-28T14:11:08.999Z</time></trkpt><trkpt lat="36.84457669098945" lon="15.09123635750222"><ele>7.0</ele><time>2026-03-28T14:11:13.999Z</time></trkpt><trkpt lat="36.84450738741716" lon="15.09120349110494"><ele>7.0</ele><time>2026-03-28T14:11:23.999Z</time></trkpt><trkpt lat="36.84444175286449" lon="15.09115843710284"><ele>7.0</ele><time>2026-03-28T14:11:31Z</time></trkpt><trkpt lat="36.84445636184471" lon="15.091080324349857"><ele>7.0</ele><time>2026-03-28T14:11:36Z</time></trkpt><trkpt lat="36.844499638790886" lon="15.091002766583074"><ele>7.0</ele><time>2026-03-28T14:12:16Z</time></trkpt><trkpt lat="36.844478241416645" lon="15.090923032787996"><ele>7.0</ele><time>2026-03-28T14:12:19Z</time></trkpt><trkpt lat="36.84441981033775" lon="15.090874310007903"><ele>7.0</ele><time>2026-03-28T14:12:56Z</time></trkpt><trkpt lat="36.84434867582093" lon="15.090842056663346"><ele>6.999999999999999</ele><time>2026-03-28T14:12:59Z</time></trkpt><trkpt lat="36.844270924365034" lon="15.090786981812661"><ele>6.999999999999999</ele><time>2026-03-28T14:13:01Z</time></trkpt><trkpt lat="36.84419007507993" lon="15.090698627604608"><ele>7.0</ele><time>2026-03-28T14:13:04Z</time></trkpt><trkpt lat="36.84410027846248" lon="15.090607373339823"><ele>7.0</ele><time>2026-03-28T14:13:05.999Z</time></trkpt><trkpt lat="36.84403052891445" lon="15.090530419212932"><ele>7.166666666666667</ele><time>2026-03-28T14:13:07.999Z</time></trkpt><trkpt lat="36.84397759277436" lon="15.090476052390963"><ele>7.333333333333334</ele><time>2026-03-28T14:13:09.999Z</time></trkpt><trkpt lat="36.843946351697376" lon="15.09035395321044"><ele>7.5</ele><time>2026-03-28T14:13:12.999Z</time></trkpt><trkpt lat="36.843978697415174" lon="15.090200705215747"><ele>7.666666666666666</ele><time>2026-03-28T14:13:14.999Z</time></trkpt><trkpt lat="36.843990774104476" lon="15.09011384017438"><ele>7.833333333333333</ele><time>2026-03-28T14:13:15.999Z</time></trkpt><trkpt lat="36.84400124764522" lon="15.090024590335858"><ele>8.0</ele><time>2026-03-28T14:13:16.999Z</time></trkpt><trkpt lat="36.84401344571401" lon="15.089902898274564"><ele>7.999999999999999</ele><time>2026-03-28T14:13:17.999Z</time></trkpt><trkpt lat="36.844022915484494" lon="15.089800467355483"><ele>8.0</ele><time>2026-03-28T14:13:18.999Z</time></trkpt><trkpt lat="36.84403740977544" lon="15.089692171311036"><ele>8.0</ele><time>2026-03-28T14:13:19.999Z</time></trkpt><trkpt lat="36.844050310121226" lon="15.089603362160027"><ele>8.0</ele><time>2026-03-28T14:13:20.999Z</time></trkpt><trkpt lat="36.844073013702385" lon="15.089450213771935"><ele>7.999999999999999</ele><time>2026-03-28T14:13:22.999Z</time></trkpt><trkpt lat="36.8440828067823" lon="15.089369991850887"><ele>8.0</ele><time>2026-03-28T14:13:23.999Z</time></trkpt><trkpt lat="36.844094080454695" lon="15.089284166897107"><ele>8.0</ele><time>2026-03-28T14:13:24.999Z</time></trkpt><trkpt lat="36.84410744855631" lon="15.089204399251013"><ele>7.999999999999999</ele><time>2026-03-28T14:13:25.999Z</time></trkpt><trkpt lat="36.844119168210256" lon="15.089120039944019"><ele>8.0</ele><time>2026-03-28T14:13:26.999Z</time></trkpt><trkpt lat="36.844129859568724" lon="15.089033387904218"><ele>8.0</ele><time>2026-03-28T14:13:27.999Z</time></trkpt><trkpt lat="36.84414002793481" lon="15.088945119385222"><ele>7.999999999999999</ele><time>2026-03-28T14:13:28.999Z</time></trkpt><trkpt lat="36.8441545313344" lon="15.08885379710904"><ele>8.0</ele><time>2026-03-28T14:13:29.999Z</time></trkpt><trkpt lat="36.844165113078816" lon="15.088755369216669"><ele>8.0</ele><time>2026-03-28T14:13:30.999Z</time></trkpt><trkpt lat="36.84417629869551" lon="15.088656845209961"><ele>8.0</ele><time>2026-03-28T14:13:31.999Z</time></trkpt><trkpt lat="36.84418663671335" lon="15.0885536542597"><ele>8.0</ele><time>2026-03-28T14:13:32.999Z</time></trkpt><trkpt lat="36.844203899329344" lon="15.088418123421054"><ele>8.0</ele><time>2026-03-28T14:13:33.999Z</time></trkpt><trkpt lat="36.84422698466347" lon="15.088259235291508"><ele>8.0</ele><time>2026-03-28T14:13:35Z</time></trkpt><trkpt lat="36.84424596920147" lon="15.088095325869721"><ele>8.0</ele><time>2026-03-28T14:13:36Z</time></trkpt><trkpt lat="36.84427330941809" lon="15.08792693789126"><ele>8.0</ele><time>2026-03-28T14:13:37Z</time></trkpt><trkpt lat="36.844291425225116" lon="15.087773665580318"><ele>8.0</ele><time>2026-03-28T14:13:38Z</time></trkpt><trkpt lat="36.844303592014306" lon="15.08763795056088"><ele>8.0</ele><time>2026-03-28T14:13:39Z</time></trkpt><trkpt lat="36.84432146690513" lon="15.08749268851034"><ele>7.800000000000001</ele><time>2026-03-28T14:13:40Z</time></trkpt><trkpt lat="36.84433810260689" lon="15.08736356642999"><ele>7.6000000000000005</ele><time>2026-03-28T14:13:41Z</time></trkpt><trkpt lat="36.84435247684151" lon="15.087248648598804"><ele>7.3999999999999995</ele><time>2026-03-28T14:13:42Z</time></trkpt><trkpt lat="36.84436648859398" lon="15.087129863023184"><ele>7.199999999999999</ele><time>2026-03-28T14:13:43Z</time></trkpt><trkpt lat="36.844381393708794" lon="15.086995370200606"><ele>7.0</ele><time>2026-03-28T14:13:44Z</time></trkpt><trkpt lat="36.844391307047694" lon="15.08685212729971"><ele>7.000000000000001</ele><time>2026-03-28T14:13:45Z</time></trkpt><trkpt lat="36.844402790916" lon="15.086726811925205"><ele>7.0</ele><time>2026-03-28T14:13:46Z</time></trkpt><trkpt lat="36.844417164213866" lon="15.08661603616123"><ele>7.0</ele><time>2026-03-28T14:13:47Z</time></trkpt><trkpt lat="36.84442802449991" lon="15.086516591618693"><ele>7.0</ele><time>2026-03-28T14:13:48Z</time></trkpt><trkpt lat="36.8444343808404" lon="15.086433665767998"><ele>7.000000000000001</ele><time>2026-03-28T14:13:49Z</time></trkpt><trkpt lat="36.84444760194533" lon="15.086317336232877"><ele>7.0</ele><time>2026-03-28T14:13:51Z</time></trkpt><trkpt lat="36.844481869527904" lon="15.086249888830803"><ele>7.0</ele><time>2026-03-28T14:13:53Z</time></trkpt><trkpt lat="36.84458592996358" lon="15.086224167702659"><ele>6.999999999999999</ele><time>2026-03-28T14:13:56Z</time></trkpt><trkpt lat="36.844673984101206" lon="15.08623597565291"><ele>6.999999999999999</ele><time>2026-03-28T14:13:57Z</time></trkpt><trkpt lat="36.84478333865582" lon="15.086246909456257"><ele>7.0</ele><time>2026-03-28T14:13:58Z</time></trkpt><trkpt lat="36.84485908698314" lon="15.086254270722533"><ele>7.0</ele><time>2026-03-28T14:13:59Z</time></trkpt><trkpt lat="36.8449345773159" lon="15.086259313078289"><ele>7.000000000000001</ele><time>2026-03-28T14:14:00Z</time></trkpt><trkpt lat="36.845030682284104" lon="15.086263310519431"><ele>7.0</ele><time>2026-03-28T14:14:01Z</time></trkpt><trkpt lat="36.845119007144575" lon="15.086275992173645"><ele>7.0</ele><time>2026-03-28T14:14:02Z</time></trkpt><trkpt lat="36.845190668493004" lon="15.086281949743103"><ele>7.0</ele><time>2026-03-28T14:14:03Z</time></trkpt><trkpt lat="36.84526927395542" lon="15.086286486288232"><ele>7.000000000000001</ele><time>2026-03-28T14:14:04Z</time></trkpt><trkpt lat="36.84537268520349" lon="15.086301591052859"><ele>7.0</ele><time>2026-03-28T14:14:05Z</time></trkpt><trkpt lat="36.84546737896913" lon="15.086309049772472"><ele>7.199999999999999</ele><time>2026-03-28T14:14:06Z</time></trkpt><trkpt lat="36.84555520123006" lon="15.086318669497793"><ele>7.3999999999999995</ele><time>2026-03-28T14:14:07Z</time></trkpt><trkpt lat="36.84569736386132" lon="15.086336065954455"><ele>7.6000000000000005</ele><time>2026-03-28T14:14:09Z</time></trkpt><trkpt lat="36.84577872677481" lon="15.086350335186646"><ele>7.800000000000001</ele><time>2026-03-28T14:14:10Z</time></trkpt><trkpt lat="36.845843374037905" lon="15.086371877544954"><ele>8.0</ele><time>2026-03-28T14:14:11Z</time></trkpt><trkpt lat="36.845912824561445" lon="15.086374492212752"><ele>7.999999999999999</ele><time>2026-03-28T14:14:12Z</time></trkpt><trkpt lat="36.84599748026779" lon="15.086377754755551"><ele>8.0</ele><time>2026-03-28T14:14:13Z</time></trkpt><trkpt lat="36.84608029734209" lon="15.086381664527057"><ele>8.0</ele><time>2026-03-28T14:14:14Z</time></trkpt><trkpt lat="36.84615760441948" lon="15.08638436303151"><ele>8.0</ele><time>2026-03-28T14:14:15Z</time></trkpt><trkpt lat="36.846242885543184" lon="15.086390269299983"><ele>7.999999999999999</ele><time>2026-03-28T14:14:16Z</time></trkpt><trkpt lat="36.846321043469445" lon="15.0863988777308"><ele>8.0</ele><time>2026-03-28T14:14:17Z</time></trkpt><trkpt lat="36.84643364166738" lon="15.086412648733452"><ele>7.999999999999999</ele><time>2026-03-28T14:14:19Z</time></trkpt><trkpt lat="36.846544489736885" lon="15.086430414124798"><ele>8.0</ele><time>2026-03-28T14:14:21Z</time></trkpt><trkpt lat="36.84662772764716" lon="15.086448881871341"><ele>8.0</ele><time>2026-03-28T14:14:22Z</time></trkpt><trkpt lat="36.846713748440195" lon="15.086471699476036"><ele>8.0</ele><time>2026-03-28T14:14:23Z</time></trkpt><trkpt lat="36.846798146316225" lon="15.086490875157018"><ele>7.999999999999999</ele><time>2026-03-28T14:14:24Z</time></trkpt><trkpt lat="36.84687678197498" lon="15.086502550089099"><ele>8.0</ele><time>2026-03-28T14:14:25Z</time></trkpt><trkpt lat="36.846947980684625" lon="15.086516847441718"><ele>9.166666666666666</ele><time>2026-03-28T14:14:26Z</time></trkpt><trkpt lat="36.84702026736395" lon="15.086532698547412"><ele>10.333333333333332</ele><time>2026-03-28T14:14:27Z</time></trkpt><trkpt lat="36.84709185056457" lon="15.086549903967686"><ele>11.5</ele><time>2026-03-28T14:14:28Z</time></trkpt><trkpt lat="36.847160818989195" lon="15.086554405442177"><ele>12.666666666666666</ele><time>2026-03-28T14:14:29Z</time></trkpt><trkpt lat="36.84727876634863" lon="15.086542039899438"><ele>13.833333333333334</ele><time>2026-03-28T14:14:31Z</time></trkpt><trkpt lat="36.84738833309724" lon="15.086524255534346"><ele>15.0</ele><time>2026-03-28T14:14:33Z</time></trkpt><trkpt lat="36.84747176949503" lon="15.086515758920807"><ele>15.0</ele><time>2026-03-28T14:14:35Z</time></trkpt><trkpt lat="36.84754208477694" lon="15.086492935026284"><ele>15.0</ele><time>2026-03-28T14:14:37Z</time></trkpt><trkpt lat="36.84762856004603" lon="15.086506756085859"><ele>15.0</ele><time>2026-03-28T14:14:39Z</time></trkpt><trkpt lat="36.84769706237903" lon="15.08657212134422"><ele>15.0</ele><time>2026-03-28T14:14:41Z</time></trkpt><trkpt lat="36.84775705731961" lon="15.086618356825026"><ele>15.0</ele><time>2026-03-28T14:14:42Z</time></trkpt><trkpt lat="36.84782637567371" lon="15.086640415791617"><ele>15.0</ele><time>2026-03-28T14:14:43Z</time></trkpt><trkpt lat="36.847896805482414" lon="15.086666539991556"><ele>16.6</ele><time>2026-03-28T14:14:44Z</time></trkpt><trkpt lat="36.84798055875092" lon="15.08669692793374"><ele>18.2</ele><time>2026-03-28T14:14:45Z</time></trkpt><trkpt lat="36.848066945322934" lon="15.086730927761568"><ele>19.799999999999997</ele><time>2026-03-28T14:14:46Z</time></trkpt><trkpt lat="36.84815900640872" lon="15.08677887485195"><ele>21.4</ele><time>2026-03-28T14:14:47Z</time></trkpt><trkpt lat="36.84824405933662" lon="15.086821336476333"><ele>23.0</ele><time>2026-03-28T14:14:48Z</time></trkpt><trkpt lat="36.84832666154695" lon="15.08685586651097"><ele>23.0</ele><time>2026-03-28T14:14:49Z</time></trkpt><trkpt lat="36.84841750091942" lon="15.086872005691546"><ele>23.0</ele><time>2026-03-28T14:14:50Z</time></trkpt><trkpt lat="36.848492718470574" lon="15.086867959258116"><ele>23.0</ele><time>2026-03-28T14:14:51Z</time></trkpt><trkpt lat="36.848605084788865" lon="15.086786385381348"><ele>23.0</ele><time>2026-03-28T14:14:53Z</time></trkpt><trkpt lat="36.84867013499593" lon="15.086718064378287"><ele>23.0</ele><time>2026-03-28T14:14:54Z</time></trkpt><trkpt lat="36.848734903240974" lon="15.086611087158012"><ele>26.0</ele><time>2026-03-28T14:14:55Z</time></trkpt><trkpt lat="36.84880598350927" lon="15.086467196977624"><ele>29.0</ele><time>2026-03-28T14:14:56Z</time></trkpt><trkpt lat="36.8488513818054" lon="15.086284780087682"><ele>32.0</ele><time>2026-03-28T14:14:57Z</time></trkpt><trkpt lat="36.84888833807693" lon="15.08610538199461"><ele>35.0</ele><time>2026-03-28T14:14:58Z</time></trkpt><trkpt lat="36.84893581923144" lon="15.085958942548842"><ele>35.0</ele><time>2026-03-28T14:14:59Z</time></trkpt><trkpt lat="36.849001486976164" lon="15.085856786852025"><ele>35.0</ele><time>2026-03-28T14:15:00Z</time></trkpt><trkpt lat="36.84907683596273" lon="15.085788265043778"><ele>35.0</ele><time>2026-03-28T14:15:01Z</time></trkpt><trkpt lat="36.849164206205046" lon="15.085782100087105"><ele>35.0</ele><time>2026-03-28T14:15:02Z</time></trkpt><trkpt lat="36.849268982048" lon="15.08579809754365"><ele>35.0</ele><time>2026-03-28T14:15:03Z</time></trkpt><trkpt lat="36.84938540675482" lon="15.085849138597615"><ele>34.5</ele><time>2026-03-28T14:15:04Z</time></trkpt><trkpt lat="36.84953770694387" lon="15.085902302732864"><ele>34.0</ele><time>2026-03-28T14:15:05Z</time></trkpt><trkpt lat="36.84966888309935" lon="15.08594250884827"><ele>33.5</ele><time>2026-03-28T14:15:06Z</time></trkpt><trkpt lat="36.849785509777654" lon="15.08597384032988"><ele>33.0</ele><time>2026-03-28T14:15:07Z</time></trkpt><trkpt lat="36.84989912770584" lon="15.086006472686838"><ele>33.0</ele><time>2026-03-28T14:15:08Z</time></trkpt><trkpt lat="36.84999813379722" lon="15.086047056478701"><ele>33.0</ele><time>2026-03-28T14:15:09Z</time></trkpt><trkpt lat="36.85009652041409" lon="15.086079275516378"><ele>33.0</ele><time>2026-03-28T14:15:10Z</time></trkpt><trkpt lat="36.85018916563779" lon="15.086105820624349"><ele>33.0</ele><time>2026-03-28T14:15:11Z</time></trkpt><trkpt lat="36.85028782347397" lon="15.086135666157169"><ele>33.0</ele><time>2026-03-28T14:15:12Z</time></trkpt><trkpt lat="36.85039731033953" lon="15.086157929187674"><ele>33.6</ele><time>2026-03-28T14:15:13Z</time></trkpt><trkpt lat="36.85050952067764" lon="15.086183071042598"><ele>34.199999999999996</ele><time>2026-03-28T14:15:14Z</time></trkpt><trkpt lat="36.85062376882518" lon="15.086210966425913"><ele>34.8</ele><time>2026-03-28T14:15:15Z</time></trkpt><trkpt lat="36.85072945267596" lon="15.086237148536275"><ele>35.4</ele><time>2026-03-28T14:15:15.999Z</time></trkpt><trkpt lat="36.85081650986632" lon="15.086266944123865"><ele>36.0</ele><time>2026-03-28T14:15:16.999Z</time></trkpt><trkpt lat="36.85088904775729" lon="15.086297297813315"><ele>36.0</ele><time>2026-03-28T14:15:17.999Z</time></trkpt><trkpt lat="36.850950123328815" lon="15.086333522647559"><ele>36.0</ele><time>2026-03-28T14:15:18.999Z</time></trkpt><trkpt lat="36.85100922691038" lon="15.086386904252704"><ele>36.0</ele><time>2026-03-28T14:15:19.999Z</time></trkpt><trkpt lat="36.85108260105471" lon="15.086464906300074"><ele>36.0</ele><time>2026-03-28T14:15:20.999Z</time></trkpt><trkpt lat="36.85115586773829" lon="15.08654574351855"><ele>36.0</ele><time>2026-03-28T14:15:21.999Z</time></trkpt><trkpt lat="36.851199570081164" lon="15.086612456659054"><ele>36.0</ele><time>2026-03-28T14:15:22.999Z</time></trkpt><trkpt lat="36.85126431315907" lon="15.08662716059658"><ele>37.25</ele><time>2026-03-28T14:15:24.999Z</time></trkpt><trkpt lat="36.85134014288976" lon="15.086500656239137"><ele>38.5</ele><time>2026-03-28T14:15:26.999Z</time></trkpt><trkpt lat="36.85138445095519" lon="15.086376201101205"><ele>39.75</ele><time>2026-03-28T14:15:27.999Z</time></trkpt><trkpt lat="36.85141083138641" lon="15.086206335072024"><ele>41.0</ele><time>2026-03-28T14:15:28.999Z</time></trkpt><trkpt lat="36.85143387467741" lon="15.086065236749388"><ele>41.0</ele><time>2026-03-28T14:15:29.999Z</time></trkpt><trkpt lat="36.85146271441242" lon="15.085943879754762"><ele>41.0</ele><time>2026-03-28T14:15:30.999Z</time></trkpt><trkpt lat="36.851482779546124" lon="15.08583717175473"><ele>41.0</ele><time>2026-03-28T14:15:31.999Z</time></trkpt><trkpt lat="36.85149988247388" lon="15.085736492864346"><ele>41.0</ele><time>2026-03-28T14:15:32.999Z</time></trkpt><trkpt lat="36.85150766912565" lon="15.085646010554985"><ele>41.0</ele><time>2026-03-28T14:15:33.999Z</time></trkpt><trkpt lat="36.85146850547696" lon="15.085524840455484"><ele>41.0</ele><time>2026-03-28T14:15:35.999Z</time></trkpt><trkpt lat="36.85134735291762" lon="15.085469078217598"><ele>40.4</ele><time>2026-03-28T14:15:37.999Z</time></trkpt><trkpt lat="36.85125092268375" lon="15.085453239152576"><ele>39.8</ele><time>2026-03-28T14:15:38.999Z</time></trkpt><trkpt lat="36.85113845100764" lon="15.085434588537677"><ele>39.199999999999996</ele><time>2026-03-28T14:15:39.999Z</time></trkpt><trkpt lat="36.85103324955601" lon="15.085406606737285"><ele>38.599999999999994</ele><time>2026-03-28T14:15:41Z</time></trkpt><trkpt lat="36.8509354116284" lon="15.085379342396477"><ele>38.0</ele><time>2026-03-28T14:15:42Z</time></trkpt><trkpt lat="36.85083653512826" lon="15.085352255251557"><ele>37.166666666666664</ele><time>2026-03-28T14:15:43Z</time></trkpt><trkpt lat="36.85074228372892" lon="15.085330646769822"><ele>36.33333333333333</ele><time>2026-03-28T14:15:44Z</time></trkpt><trkpt lat="36.85065463887614" lon="15.085309326282443"><ele>35.5</ele><time>2026-03-28T14:15:45Z</time></trkpt><trkpt lat="36.8505621518165" lon="15.085286564467287"><ele>34.666666666666664</ele><time>2026-03-28T14:15:46Z</time></trkpt><trkpt lat="36.85048105921636" lon="15.085272818558131"><ele>33.833333333333336</ele><time>2026-03-28T14:15:47Z</time></trkpt><trkpt lat="36.850400563900976" lon="15.085258099311611"><ele>33.0</ele><time>2026-03-28T14:15:48Z</time></trkpt><trkpt lat="36.85031773996995" lon="15.085245486910443"><ele>33.0</ele><time>2026-03-28T14:15:49Z</time></trkpt><trkpt lat="36.85023915438786" lon="15.08523246385672"><ele>33.0</ele><time>2026-03-28T14:15:50Z</time></trkpt><trkpt lat="36.85017942822706" lon="15.085186035851997"><ele>33.0</ele><time>2026-03-28T14:15:51Z</time></trkpt><trkpt lat="36.85010754314315" lon="15.085149310651971"><ele>33.0</ele><time>2026-03-28T14:15:53Z</time></trkpt><trkpt lat="36.850086425599706" lon="15.085059434685688"><ele>33.0</ele><time>2026-03-28T14:15:55Z</time></trkpt><trkpt lat="36.850088691606054" lon="15.084945715932992"><ele>33.0</ele><time>2026-03-28T14:15:56Z</time></trkpt><trkpt lat="36.85008701947284" lon="15.08479485062774"><ele>31.5</ele><time>2026-03-28T14:15:57Z</time></trkpt><trkpt lat="36.85008534439034" lon="15.084656767252275"><ele>30.0</ele><time>2026-03-28T14:15:58Z</time></trkpt><trkpt lat="36.85008156058269" lon="15.084540270640368"><ele>28.5</ele><time>2026-03-28T14:15:59Z</time></trkpt><trkpt lat="36.850076124350835" lon="15.08443646499884"><ele>27.0</ele><time>2026-03-28T14:16:00Z</time></trkpt><trkpt lat="36.85007238245236" lon="15.08435149973134"><ele>25.5</ele><time>2026-03-28T14:16:01Z</time></trkpt><trkpt lat="36.85006865377191" lon="15.084265765539746"><ele>24.0</ele><time>2026-03-28T14:16:02Z</time></trkpt><trkpt lat="36.850063103220876" lon="15.084171737317565"><ele>23.0</ele><time>2026-03-28T14:16:03Z</time></trkpt><trkpt lat="36.85002407602994" lon="15.084089560482042"><ele>22.0</ele><time>2026-03-28T14:16:04Z</time></trkpt><trkpt lat="36.849960246887015" lon="15.084016243333373"><ele>21.0</ele><time>2026-03-28T14:16:05Z</time></trkpt><trkpt lat="36.849873596715796" lon="15.083930216848517"><ele>20.0</ele><time>2026-03-28T14:16:06Z</time></trkpt><trkpt lat="36.8497966399742" lon="15.08381038155846"><ele>19.0</ele><time>2026-03-28T14:16:07Z</time></trkpt><trkpt lat="36.84971822484595" lon="15.083683612705428"><ele>19.0</ele><time>2026-03-28T14:16:08Z</time></trkpt><trkpt lat="36.84963867468737" lon="15.083586034301428"><ele>19.0</ele><time>2026-03-28T14:16:09Z</time></trkpt><trkpt lat="36.84958457695102" lon="15.083492176147189"><ele>19.0</ele><time>2026-03-28T14:16:10Z</time></trkpt><trkpt lat="36.849516958587074" lon="15.08342867043865"><ele>19.0</ele><time>2026-03-28T14:16:11Z</time></trkpt><trkpt lat="36.849463738393084" lon="15.08335367482437"><ele>19.0</ele><time>2026-03-28T14:16:12Z</time></trkpt><trkpt lat="36.84943234527716" lon="15.083266048967431"><ele>19.0</ele><time>2026-03-28T14:16:13Z</time></trkpt><trkpt lat="36.84939331958421" lon="15.083194392219019"><ele>18.0</ele><time>2026-03-28T14:16:14Z</time></trkpt><trkpt lat="36.84936115384009" lon="15.083125110474656"><ele>17.0</ele><time>2026-03-28T14:16:15Z</time></trkpt><trkpt lat="36.84933125861643" lon="15.083054933984359"><ele>15.999999999999998</ele><time>2026-03-28T14:16:16Z</time></trkpt><trkpt lat="36.84934426021959" lon="15.08294562952736"><ele>15.0</ele><time>2026-03-28T14:16:17Z</time></trkpt><trkpt lat="36.84941933882553" lon="15.082835636276371"><ele>14.0</ele><time>2026-03-28T14:16:18Z</time></trkpt><trkpt lat="36.849466946560966" lon="15.082700988137566"><ele>14.000000000000002</ele><time>2026-03-28T14:16:19Z</time></trkpt><trkpt lat="36.84950853874346" lon="15.082581485623049"><ele>14.0</ele><time>2026-03-28T14:16:20Z</time></trkpt><trkpt lat="36.84954276714976" lon="15.082465695632504"><ele>14.0</ele><time>2026-03-28T14:16:21Z</time></trkpt><trkpt lat="36.849566024209345" lon="15.082381836411411"><ele>14.0</ele><time>2026-03-28T14:16:22Z</time></trkpt><trkpt lat="36.84958228936037" lon="15.082297086058862"><ele>14.000000000000002</ele><time>2026-03-28T14:16:23Z</time></trkpt><trkpt lat="36.849658624150074" lon="15.082255322172013"><ele>14.0</ele><time>2026-03-28T14:16:25Z</time></trkpt><trkpt lat="36.84971344514958" lon="15.08229510050196"><ele>14.0</ele><time>2026-03-28T14:16:26Z</time></trkpt><trkpt lat="36.84974191933851" lon="15.082396019505808"><ele>13.999999999999998</ele><time>2026-03-28T14:16:27Z</time></trkpt><trkpt lat="36.84980724723719" lon="15.08249806524015"><ele>13.999999999999998</ele><time>2026-03-28T14:16:28Z</time></trkpt><trkpt lat="36.8498542270749" lon="15.082622589705313"><ele>14.0</ele><time>2026-03-28T14:16:29Z</time></trkpt><trkpt lat="36.849886227817535" lon="15.08274081206267"><ele>14.0</ele><time>2026-03-28T14:16:30Z</time></trkpt><trkpt lat="36.84991555118051" lon="15.082821551122683"><ele>14.0</ele><time>2026-03-28T14:16:31Z</time></trkpt><trkpt lat="36.85001848428436" lon="15.08286214440148"><ele>13.999999999999998</ele><time>2026-03-28T14:16:33Z</time></trkpt><trkpt lat="36.85009339257316" lon="15.08281004557206"><ele>13.999999999999998</ele><time>2026-03-28T14:16:34Z</time></trkpt><trkpt lat="36.85017245161333" lon="15.08272539501324"><ele>14.0</ele><time>2026-03-28T14:16:35Z</time></trkpt><trkpt lat="36.85025540247841" lon="15.082654890917686"><ele>14.0</ele><time>2026-03-28T14:16:36Z</time></trkpt><trkpt lat="36.85030405009739" lon="15.082546492334735"><ele>13.75</ele><time>2026-03-28T14:16:38Z</time></trkpt><trkpt lat="36.850271708533334" lon="15.082418764815126"><ele>13.5</ele><time>2026-03-28T14:16:39Z</time></trkpt><trkpt lat="36.8501942143297" lon="15.082295391766015"><ele>13.25</ele><time>2026-03-28T14:16:40Z</time></trkpt><trkpt lat="36.850090653410184" lon="15.082159020000963"><ele>13.0</ele><time>2026-03-28T14:16:41Z</time></trkpt><trkpt lat="36.850027076594685" lon="15.082011238800161"><ele>13.0</ele><time>2026-03-28T14:16:42Z</time></trkpt><trkpt lat="36.849957709660806" lon="15.081889751592772"><ele>13.0</ele><time>2026-03-28T14:16:43Z</time></trkpt><trkpt lat="36.84989437933598" lon="15.08178039926397"><ele>13.0</ele><time>2026-03-28T14:16:44Z</time></trkpt><trkpt lat="36.84982690503955" lon="15.081695681390936"><ele>13.0</ele><time>2026-03-28T14:16:45Z</time></trkpt><trkpt lat="36.8497878224086" lon="15.081612827307227"><ele>13.0</ele><time>2026-03-28T14:16:46Z</time></trkpt><trkpt lat="36.84976620604979" lon="15.081500324112117"><ele>12.75</ele><time>2026-03-28T14:16:48Z</time></trkpt><trkpt lat="36.84974712760631" lon="15.081419893766947"><ele>12.5</ele><time>2026-03-28T14:16:53Z</time></trkpt><trkpt lat="36.849771172544536" lon="15.081331774855215"><ele>12.25</ele><time>2026-03-28T14:16:58Z</time></trkpt><trkpt lat="36.84978012428304" lon="15.081243706549511"><ele>12.0</ele><time>2026-03-28T14:17:05Z</time></trkpt><trkpt lat="36.84952418941771" lon="15.081084026305728"><ele>12.0</ele><time>2026-03-28T14:17:09Z</time></trkpt><trkpt lat="36.84944107869421" lon="15.081027374206506"><ele>12.0</ele><time>2026-03-28T14:17:11Z</time></trkpt><trkpt lat="36.849349332891215" lon="15.080967078928744"><ele>12.0</ele><time>2026-03-28T14:17:13Z</time></trkpt><trkpt lat="36.849258485659156" lon="15.080907428380147"><ele>12.0</ele><time>2026-03-28T14:17:15Z</time></trkpt><trkpt lat="36.84915788976034" lon="15.080842230315593"><ele>12.0</ele><time>2026-03-28T14:17:16.999Z</time></trkpt><trkpt lat="36.849060462949254" lon="15.080785127837872"><ele>11.4</ele><time>2026-03-28T14:17:18.999Z</time></trkpt><trkpt lat="36.84896449198145" lon="15.080740087785466"><ele>10.799999999999999</ele><time>2026-03-28T14:17:20.999Z</time></trkpt><trkpt lat="36.848865782427715" lon="15.080694033677329"><ele>10.2</ele><time>2026-03-28T14:17:22.999Z</time></trkpt><trkpt lat="36.84876689158972" lon="15.080637583378468"><ele>9.6</ele><time>2026-03-28T14:17:24.999Z</time></trkpt><trkpt lat="36.84867336461371" lon="15.080603436068339"><ele>9.0</ele><time>2026-03-28T14:17:26.999Z</time></trkpt><trkpt lat="36.84858673103927" lon="15.080583199911182"><ele>9.0</ele><time>2026-03-28T14:17:28.999Z</time></trkpt><trkpt lat="36.848471459104566" lon="15.08055000023551"><ele>9.0</ele><time>2026-03-28T14:17:30.999Z</time></trkpt><trkpt lat="36.84843283018307" lon="15.080223974835139"><ele>9.0</ele><time>2026-03-28T14:17:31.999Z</time></trkpt><trkpt lat="36.84836963703001" lon="15.080217128612768"><ele>9.0</ele><time>2026-03-28T14:17:32.999Z</time></trkpt><trkpt lat="36.84824689028351" lon="15.08020323210825"><ele>8.75</ele><time>2026-03-28T14:17:34.999Z</time></trkpt><trkpt lat="36.848152407477656" lon="15.08019279145303"><ele>8.5</ele><time>2026-03-28T14:17:36.999Z</time></trkpt><trkpt lat="36.84806272383118" lon="15.080178329452862"><ele>8.25</ele><time>2026-03-28T14:17:38.999Z</time></trkpt><trkpt lat="36.848211956832884" lon="15.080220080895355"><ele>8.0</ele><time>2026-03-28T14:17:47Z</time></trkpt><trkpt lat="36.848344317692586" lon="15.080247036626073"><ele>8.333333333333332</ele><time>2026-03-28T14:17:48Z</time></trkpt><trkpt lat="36.848507746006206" lon="15.08028251803532"><ele>8.666666666666666</ele><time>2026-03-28T14:17:49Z</time></trkpt><trkpt lat="36.848683351540345" lon="15.080309329234238"><ele>9.0</ele><time>2026-03-28T14:17:50Z</time></trkpt><trkpt lat="36.8488713052902" lon="15.080324855734226"><ele>9.0</ele><time>2026-03-28T14:17:51Z</time></trkpt><trkpt lat="36.849062822659036" lon="15.080337311539893"><ele>9.0</ele><time>2026-03-28T14:17:52Z</time></trkpt><trkpt lat="36.849235359722165" lon="15.080353876420833"><ele>9.0</ele><time>2026-03-28T14:17:53Z</time></trkpt><trkpt lat="36.84939202923239" lon="15.08037622739338"><ele>9.25</ele><time>2026-03-28T14:17:54Z</time></trkpt><trkpt lat="36.84953738904673" lon="15.080395943639994"><ele>9.5</ele><time>2026-03-28T14:17:55Z</time></trkpt><trkpt lat="36.84967226789112" lon="15.08041152711347"><ele>9.75</ele><time>2026-03-28T14:17:56Z</time></trkpt><trkpt lat="36.849796039517585" lon="15.08042435583703"><ele>10.0</ele><time>2026-03-28T14:17:57Z</time></trkpt><trkpt lat="36.849910331376826" lon="15.080437154124919"><ele>10.0</ele><time>2026-03-28T14:17:58Z</time></trkpt><trkpt lat="36.85001241835941" lon="15.080452402785646"><ele>10.0</ele><time>2026-03-28T14:17:59Z</time></trkpt><trkpt lat="36.850104578015134" lon="15.080464664115986"><ele>10.0</ele><time>2026-03-28T14:18:00Z</time></trkpt><trkpt lat="36.850178043577216" lon="15.080478638656386"><ele>10.0</ele><time>2026-03-28T14:18:01Z</time></trkpt><trkpt lat="36.850274994705785" lon="15.080535886445427"><ele>10.0</ele><time>2026-03-28T14:18:03Z</time></trkpt><trkpt lat="36.85032968853554" lon="15.080575945824584"><ele>10.0</ele><time>2026-03-28T14:18:05Z</time></trkpt><trkpt lat="36.85041269415707" lon="15.080483851748255"><ele>10.8</ele><time>2026-03-28T14:18:10Z</time></trkpt><trkpt lat="36.85052674672961" lon="15.080433674560378"><ele>11.6</ele><time>2026-03-28T14:18:12Z</time></trkpt><trkpt lat="36.85061243348366" lon="15.080408897025464"><ele>12.399999999999999</ele><time>2026-03-28T14:18:13Z</time></trkpt><trkpt lat="36.85071183855141" lon="15.08038558849844"><ele>13.2</ele><time>2026-03-28T14:18:14Z</time></trkpt><trkpt lat="36.85079295218142" lon="15.080368814997904"><ele>14.0</ele><time>2026-03-28T14:18:15Z</time></trkpt><trkpt lat="36.850869483559634" lon="15.08033679791399"><ele>14.000000000000002</ele><time>2026-03-28T14:18:16Z</time></trkpt><trkpt lat="36.850946764237" lon="15.080328351836135"><ele>14.0</ele><time>2026-03-28T14:18:17Z</time></trkpt><trkpt lat="36.8510185162452" lon="15.080334734642394"><ele>14.0</ele><time>2026-03-28T14:18:18Z</time></trkpt><trkpt lat="36.8510901862514" lon="15.080329831451479"><ele>14.0</ele><time>2026-03-28T14:18:19Z</time></trkpt><trkpt lat="36.851162049387824" lon="15.080306630893709"><ele>14.000000000000002</ele><time>2026-03-28T14:18:20Z</time></trkpt><trkpt lat="36.851277212494914" lon="15.080294134778704"><ele>14.0</ele><time>2026-03-28T14:18:22Z</time></trkpt><trkpt lat="36.851415556523655" lon="15.080279955513246"><ele>14.799999999999999</ele><time>2026-03-28T14:18:24Z</time></trkpt><trkpt lat="36.851493816435415" lon="15.080210107341024"><ele>15.599999999999998</ele><time>2026-03-28T14:18:25Z</time></trkpt><trkpt lat="36.85158133145127" lon="15.080154345178387"><ele>16.4</ele><time>2026-03-28T14:18:26Z</time></trkpt><trkpt lat="36.85166430461078" lon="15.080084479572339"><ele>17.2</ele><time>2026-03-28T14:18:27Z</time></trkpt><trkpt lat="36.85174633535319" lon="15.079999232601896"><ele>18.0</ele><time>2026-03-28T14:18:28Z</time></trkpt><trkpt lat="36.85182422785289" lon="15.07991284234782"><ele>19.6</ele><time>2026-03-28T14:18:29Z</time></trkpt><trkpt lat="36.85190156288271" lon="15.079835541144563"><ele>21.200000000000003</ele><time>2026-03-28T14:18:30Z</time></trkpt><trkpt lat="36.85197055436394" lon="15.079744167353077"><ele>22.8</ele><time>2026-03-28T14:18:31Z</time></trkpt><trkpt lat="36.85203454907498" lon="15.079646690043084"><ele>24.400000000000002</ele><time>2026-03-28T14:18:32Z</time></trkpt><trkpt lat="36.85207585453851" lon="15.079527953251151"><ele>26.0</ele><time>2026-03-28T14:18:33Z</time></trkpt><trkpt lat="36.85210746837791" lon="15.079416444496827"><ele>26.0</ele><time>2026-03-28T14:18:34Z</time></trkpt><trkpt lat="36.85213149162312" lon="15.07930903236078"><ele>26.0</ele><time>2026-03-28T14:18:35Z</time></trkpt><trkpt lat="36.852142546841065" lon="15.079190903334936"><ele>26.0</ele><time>2026-03-28T14:18:36Z</time></trkpt><trkpt lat="36.85217825315189" lon="15.079086088428058"><ele>26.0</ele><time>2026-03-28T14:18:37Z</time></trkpt><trkpt lat="36.85220189912002" lon="15.078972089995125"><ele>26.0</ele><time>2026-03-28T14:18:38Z</time></trkpt><trkpt lat="36.85222803342299" lon="15.078853538561509"><ele>27.200000000000003</ele><time>2026-03-28T14:18:39Z</time></trkpt><trkpt lat="36.85223466748677" lon="15.078730915065629"><ele>28.400000000000002</ele><time>2026-03-28T14:18:40Z</time></trkpt><trkpt lat="36.85226282018965" lon="15.078613492092957"><ele>29.6</ele><time>2026-03-28T14:18:41Z</time></trkpt><trkpt lat="36.85227139909996" lon="15.078491364104618"><ele>30.8</ele><time>2026-03-28T14:18:42Z</time></trkpt><trkpt lat="36.8522759746276" lon="15.078375088434473"><ele>32.0</ele><time>2026-03-28T14:18:43Z</time></trkpt><trkpt lat="36.85228516815578" lon="15.078279241680253"><ele>32.0</ele><time>2026-03-28T14:18:44Z</time></trkpt><trkpt lat="36.85229749400492" lon="15.0781338730561"><ele>32.0</ele><time>2026-03-28T14:18:46Z</time></trkpt><trkpt lat="36.85230533964529" lon="15.078033997020192"><ele>32.0</ele><time>2026-03-28T14:18:47Z</time></trkpt><trkpt lat="36.85231515204127" lon="15.077913152702532"><ele>32.0</ele><time>2026-03-28T14:18:48Z</time></trkpt><trkpt lat="36.85232490546427" lon="15.077796324418003"><ele>32.0</ele><time>2026-03-28T14:18:49Z</time></trkpt><trkpt lat="36.852332900056034" lon="15.077685442417907"><ele>31.999999999999996</ele><time>2026-03-28T14:18:50Z</time></trkpt><trkpt lat="36.852340774004716" lon="15.077582316179567"><ele>32.0</ele><time>2026-03-28T14:18:51Z</time></trkpt><trkpt lat="36.85234754820593" lon="15.077464224491779"><ele>32.0</ele><time>2026-03-28T14:18:52Z</time></trkpt><trkpt lat="36.852356956278" lon="15.077343093665926"><ele>32.0</ele><time>2026-03-28T14:18:53Z</time></trkpt><trkpt lat="36.852365139792454" lon="15.077230577740469"><ele>31.999999999999996</ele><time>2026-03-28T14:18:54Z</time></trkpt><trkpt lat="36.85238092249354" lon="15.077128208992274"><ele>32.0</ele><time>2026-03-28T14:18:55Z</time></trkpt><trkpt lat="36.852386698418734" lon="15.077016233186614"><ele>31.400000000000002</ele><time>2026-03-28T14:18:56Z</time></trkpt><trkpt lat="36.85240102096547" lon="15.076890745557508"><ele>30.800000000000004</ele><time>2026-03-28T14:18:57Z</time></trkpt><trkpt lat="36.85241591098901" lon="15.076740899943157"><ele>30.2</ele><time>2026-03-28T14:18:58Z</time></trkpt><trkpt lat="36.85244521440756" lon="15.07660155992356"><ele>29.6</ele><time>2026-03-28T14:18:59Z</time></trkpt><trkpt lat="36.852453508440114" lon="15.076463982017433"><ele>29.0</ele><time>2026-03-28T14:19:00Z</time></trkpt><trkpt lat="36.85243663327444" lon="15.076321894325329"><ele>28.799999999999997</ele><time>2026-03-28T14:19:01Z</time></trkpt><trkpt lat="36.85241886560895" lon="15.076187497570759"><ele>28.599999999999998</ele><time>2026-03-28T14:19:02Z</time></trkpt><trkpt lat="36.85240204367282" lon="15.076053450265135"><ele>28.4</ele><time>2026-03-28T14:19:03Z</time></trkpt><trkpt lat="36.85246010653969" lon="15.075925148344057"><ele>28.2</ele><time>2026-03-28T14:19:04Z</time></trkpt><trkpt lat="36.85246772497114" lon="15.075826721777373"><ele>28.0</ele><time>2026-03-28T14:19:05Z</time></trkpt><trkpt lat="36.85247326275179" lon="15.075740541334886"><ele>27.4</ele><time>2026-03-28T14:19:06Z</time></trkpt><trkpt lat="36.85247775180722" lon="15.075614700579452"><ele>26.799999999999997</ele><time>2026-03-28T14:19:08Z</time></trkpt><trkpt lat="36.8524721633986" lon="15.07550128518169"><ele>26.2</ele><time>2026-03-28T14:19:10Z</time></trkpt><trkpt lat="36.85249409224088" lon="15.075358168568467"><ele>25.6</ele><time>2026-03-28T14:19:12Z</time></trkpt><trkpt lat="36.852512727207404" lon="15.07521978399765"><ele>25.0</ele><time>2026-03-28T14:19:14Z</time></trkpt><trkpt lat="36.85249608131757" lon="15.07505607057599"><ele>25.000000000000004</ele><time>2026-03-28T14:19:16Z</time></trkpt><trkpt lat="36.85247989375945" lon="15.07496406473704"><ele>25.0</ele><time>2026-03-28T14:19:17Z</time></trkpt><trkpt lat="36.85247315553535" lon="15.074878760900065"><ele>25.0</ele><time>2026-03-28T14:19:18Z</time></trkpt><trkpt lat="36.85247469144871" lon="15.074792105662345"><ele>25.0</ele><time>2026-03-28T14:19:19Z</time></trkpt><trkpt lat="36.85247526929356" lon="15.074703835597205"><ele>25.0</ele><time>2026-03-28T14:19:20Z</time></trkpt><trkpt lat="36.85247257900323" lon="15.074613300467549"><ele>25.000000000000004</ele><time>2026-03-28T14:19:21Z</time></trkpt><trkpt lat="36.85246226353463" lon="15.074531058982808"><ele>25.0</ele><time>2026-03-28T14:19:22Z</time></trkpt><trkpt lat="36.852459575521756" lon="15.074390765186255"><ele>24.000000000000004</ele><time>2026-03-28T14:19:23.999Z</time></trkpt><trkpt lat="36.852490446445096" lon="15.074319939811625"><ele>23.0</ele><time>2026-03-28T14:19:24.999Z</time></trkpt><trkpt lat="36.85256834089959" lon="15.074292306628957"><ele>22.0</ele><time>2026-03-28T14:19:26.999Z</time></trkpt><trkpt lat="36.85266635783865" lon="15.074327544375073"><ele>21.0</ele><time>2026-03-28T14:19:28.999Z</time></trkpt><trkpt lat="36.852750664329456" lon="15.074330466395653"><ele>20.0</ele><time>2026-03-28T14:19:29.999Z</time></trkpt><trkpt lat="36.8528282189982" lon="15.07432641030297"><ele>19.0</ele><time>2026-03-28T14:19:30.999Z</time></trkpt><trkpt lat="36.85293889709838" lon="15.074343900467849"><ele>20.666666666666664</ele><time>2026-03-28T14:19:32.999Z</time></trkpt><trkpt lat="36.85301497619906" lon="15.074281044656214"><ele>22.333333333333332</ele><time>2026-03-28T14:19:33.999Z</time></trkpt><trkpt lat="36.853087674702074" lon="15.074194509848386"><ele>24.0</ele><time>2026-03-28T14:19:34.999Z</time></trkpt><trkpt lat="36.853119637057965" lon="15.074120132189076"><ele>25.666666666666664</ele><time>2026-03-28T14:19:35.999Z</time></trkpt><trkpt lat="36.853148805509655" lon="15.074043128207064"><ele>27.333333333333332</ele><time>2026-03-28T14:19:36.999Z</time></trkpt><trkpt lat="36.853179338400025" lon="15.073957398606494"><ele>29.0</ele><time>2026-03-28T14:19:37.999Z</time></trkpt><trkpt lat="36.8532074375992" lon="15.073868447372432"><ele>28.999999999999996</ele><time>2026-03-28T14:19:38.999Z</time></trkpt><trkpt lat="36.8532253762702" lon="15.07378975786543"><ele>29.0</ele><time>2026-03-28T14:19:39.999Z</time></trkpt><trkpt lat="36.853234802935745" lon="15.07369896621599"><ele>29.0</ele><time>2026-03-28T14:19:40.999Z</time></trkpt><trkpt lat="36.85325114169313" lon="15.073608077970054"><ele>29.0</ele><time>2026-03-28T14:19:41.999Z</time></trkpt><trkpt lat="36.85327006081752" lon="15.07352028640735"><ele>28.999999999999996</ele><time>2026-03-28T14:19:42.999Z</time></trkpt><trkpt lat="36.8532846304622" lon="15.073433397077864"><ele>29.0</ele><time>2026-03-28T14:19:43.999Z</time></trkpt><trkpt lat="36.85329157455636" lon="15.073286228922132"><ele>28.2</ele><time>2026-03-28T14:19:45.999Z</time></trkpt><trkpt lat="36.853294558591735" lon="15.073151518251473"><ele>27.4</ele><time>2026-03-28T14:19:47.999Z</time></trkpt><trkpt lat="36.85333852197314" lon="15.073018414292644"><ele>26.6</ele><time>2026-03-28T14:19:49.999Z</time></trkpt><trkpt lat="36.85336495578836" lon="15.072922569511867"><ele>25.8</ele><time>2026-03-28T14:19:51.999Z</time></trkpt><trkpt lat="36.85345519160506" lon="15.07284519773747"><ele>25.0</ele><time>2026-03-28T14:19:54Z</time></trkpt><trkpt lat="36.853514357509795" lon="15.072812688027469"><ele>26.333333333333336</ele><time>2026-03-28T14:19:55Z</time></trkpt><trkpt lat="36.85356125795509" lon="15.072752177631413"><ele>27.666666666666668</ele><time>2026-03-28T14:19:56Z</time></trkpt><trkpt lat="36.85360315083459" lon="15.072654823792675"><ele>29.0</ele><time>2026-03-28T14:19:57Z</time></trkpt><trkpt lat="36.853642315597014" lon="15.072559642624187"><ele>30.333333333333336</ele><time>2026-03-28T14:19:58Z</time></trkpt><trkpt lat="36.853682044437846" lon="15.072474948659265"><ele>31.666666666666668</ele><time>2026-03-28T14:19:59Z</time></trkpt><trkpt lat="36.8537123347387" lon="15.072372686783305"><ele>33.0</ele><time>2026-03-28T14:20:01Z</time></trkpt><trkpt lat="36.85367483051737" lon="15.072296387711193"><ele>33.199999999999996</ele><time>2026-03-28T14:20:03Z</time></trkpt><trkpt lat="36.85356240870432" lon="15.072228773627453"><ele>33.4</ele><time>2026-03-28T14:20:05Z</time></trkpt><trkpt lat="36.85349967148956" lon="15.072170090417512"><ele>33.599999999999994</ele><time>2026-03-28T14:20:06Z</time></trkpt><trkpt lat="36.85344694564011" lon="15.072082467983119"><ele>33.8</ele><time>2026-03-28T14:20:07Z</time></trkpt><trkpt lat="36.85340514547452" lon="15.072012011520505"><ele>34.0</ele><time>2026-03-28T14:20:08Z</time></trkpt><trkpt lat="36.85335764611227" lon="15.07189713606996"><ele>34.0</ele><time>2026-03-28T14:20:10Z</time></trkpt><trkpt lat="36.85337249233465" lon="15.071818440986592"><ele>34.0</ele><time>2026-03-28T14:20:12Z</time></trkpt><trkpt lat="36.853306009829836" lon="15.07183025056332"><ele>34.0</ele><time>2026-03-28T14:20:17Z</time></trkpt><trkpt lat="36.85335566168801" lon="15.07189325586195"><ele>34.0</ele><time>2026-03-28T14:20:20Z</time></trkpt><trkpt lat="36.85343183856202" lon="15.071829849866583"><ele>34.0</ele><time>2026-03-28T14:20:22Z</time></trkpt><trkpt lat="36.8535255330905" lon="15.071759912527853"><ele>34.0</ele><time>2026-03-28T14:20:24Z</time></trkpt><trkpt lat="36.853541092777206" lon="15.071660080735588"><ele>34.0</ele><time>2026-03-28T14:20:26Z</time></trkpt><trkpt lat="36.853520720934455" lon="15.071551251916281"><ele>34.0</ele><time>2026-03-28T14:20:29Z</time></trkpt><trkpt lat="36.85341756074412" lon="15.071532140843487"><ele>34.0</ele><time>2026-03-28T14:20:31Z</time></trkpt><trkpt lat="36.85331511341206" lon="15.071533525748688"><ele>34.0</ele><time>2026-03-28T14:20:32Z</time></trkpt><trkpt lat="36.853196224235134" lon="15.071514113583772"><ele>34.0</ele><time>2026-03-28T14:20:33Z</time></trkpt><trkpt lat="36.85309444562551" lon="15.071495992072812"><ele>33.2</ele><time>2026-03-28T14:20:34Z</time></trkpt><trkpt lat="36.853006187074485" lon="15.071478509412623"><ele>32.4</ele><time>2026-03-28T14:20:35Z</time></trkpt><trkpt lat="36.85291939282193" lon="15.071470650891468"><ele>31.6</ele><time>2026-03-28T14:20:36Z</time></trkpt><trkpt lat="36.85281665085278" lon="15.071480527170305"><ele>30.8</ele><time>2026-03-28T14:20:37Z</time></trkpt><trkpt lat="36.85270611620427" lon="15.07149003063837"><ele>30.0</ele><time>2026-03-28T14:20:38Z</time></trkpt><trkpt lat="36.85262061381259" lon="15.07148512250582"><ele>28.6</ele><time>2026-03-28T14:20:39Z</time></trkpt><trkpt lat="36.85254106043396" lon="15.071476100316136"><ele>27.2</ele><time>2026-03-28T14:20:40Z</time></trkpt><trkpt lat="36.85245254885619" lon="15.071486807917053"><ele>25.799999999999997</ele><time>2026-03-28T14:20:41Z</time></trkpt><trkpt lat="36.85236913409171" lon="15.071481969818011"><ele>24.4</ele><time>2026-03-28T14:20:42Z</time></trkpt><trkpt lat="36.85226600815305" lon="15.071399109443"><ele>23.0</ele><time>2026-03-28T14:20:43Z</time></trkpt><trkpt lat="36.852152231679675" lon="15.0713284698996"><ele>23.0</ele><time>2026-03-28T14:20:44Z</time></trkpt><trkpt lat="36.8520646007394" lon="15.071263319530898"><ele>23.0</ele><time>2026-03-28T14:20:45Z</time></trkpt><trkpt lat="36.85198483941079" lon="15.07120982545152"><ele>23.0</ele><time>2026-03-28T14:20:46Z</time></trkpt><trkpt lat="36.8519045238804" lon="15.07118531733132"><ele>23.0</ele><time>2026-03-28T14:20:47Z</time></trkpt><trkpt lat="36.851839279561226" lon="15.071179389582683"><ele>23.0</ele><time>2026-03-28T14:20:48Z</time></trkpt><trkpt lat="36.85178018402896" lon="15.071141238892206"><ele>23.0</ele><time>2026-03-28T14:20:50Z</time></trkpt><trkpt lat="36.851813197140444" lon="15.071055063548572"><ele>23.0</ele><time>2026-03-28T14:20:52Z</time></trkpt><trkpt lat="36.85186808721414" lon="15.071007123276821"><ele>23.0</ele><time>2026-03-28T14:20:53Z</time></trkpt><trkpt lat="36.8519490231691" lon="15.070945008326717"><ele>23.0</ele><time>2026-03-28T14:20:54Z</time></trkpt><trkpt lat="36.85203447109278" lon="15.070821398357136"><ele>23.0</ele><time>2026-03-28T14:20:56Z</time></trkpt><trkpt lat="36.8520701589514" lon="15.070713378042951"><ele>23.0</ele><time>2026-03-28T14:20:57Z</time></trkpt><trkpt lat="36.85209529550207" lon="15.070599972760995"><ele>23.833333333333336</ele><time>2026-03-28T14:20:58Z</time></trkpt><trkpt lat="36.85210713157641" lon="15.070504175620117"><ele>24.666666666666668</ele><time>2026-03-28T14:20:59Z</time></trkpt><trkpt lat="36.852098274274745" lon="15.070426234527627"><ele>25.5</ele><time>2026-03-28T14:21:00Z</time></trkpt><trkpt lat="36.852075008175916" lon="15.070346595548983"><ele>26.333333333333336</ele><time>2026-03-28T14:21:01Z</time></trkpt><trkpt lat="36.85203890118561" lon="15.070233893137944"><ele>27.166666666666668</ele><time>2026-03-28T14:21:02Z</time></trkpt><trkpt lat="36.851997070114045" lon="15.070092709548552"><ele>28.0</ele><time>2026-03-28T14:21:03Z</time></trkpt><trkpt lat="36.851968075687594" lon="15.069936911805394"><ele>28.799999999999997</ele><time>2026-03-28T14:21:04Z</time></trkpt><trkpt lat="36.85194826935365" lon="15.069795719075804"><ele>29.599999999999998</ele><time>2026-03-28T14:21:05Z</time></trkpt><trkpt lat="36.85192470383671" lon="15.069682246779552"><ele>30.400000000000002</ele><time>2026-03-28T14:21:06Z</time></trkpt><trkpt lat="36.851903726596206" lon="15.06958293201431"><ele>31.200000000000003</ele><time>2026-03-28T14:21:07Z</time></trkpt><trkpt lat="36.85187723631774" lon="15.069483895330544"><ele>32.0</ele><time>2026-03-28T14:21:08Z</time></trkpt><trkpt lat="36.851850944542285" lon="15.069390210338378"><ele>31.999999999999996</ele><time>2026-03-28T14:21:09Z</time></trkpt><trkpt lat="36.85181801148768" lon="15.069309074683897"><ele>32.0</ele><time>2026-03-28T14:21:10Z</time></trkpt><trkpt lat="36.851788910384926" lon="15.06921708169081"><ele>32.0</ele><time>2026-03-28T14:21:11Z</time></trkpt><trkpt lat="36.85177648977158" lon="15.069122136610325"><ele>32.0</ele><time>2026-03-28T14:21:12Z</time></trkpt><trkpt lat="36.85177831111609" lon="15.069014364322394"><ele>31.999999999999996</ele><time>2026-03-28T14:21:13Z</time></trkpt><trkpt lat="36.85179356260444" lon="15.068880146877445"><ele>32.0</ele><time>2026-03-28T14:21:14Z</time></trkpt><trkpt lat="36.85180726530635" lon="15.068778816844016"><ele>32.2</ele><time>2026-03-28T14:21:15Z</time></trkpt><trkpt lat="36.85181603881747" lon="15.068688646607047"><ele>32.400000000000006</ele><time>2026-03-28T14:21:16Z</time></trkpt><trkpt lat="36.85183636528387" lon="15.068588401498703"><ele>32.599999999999994</ele><time>2026-03-28T14:21:17Z</time></trkpt><trkpt lat="36.85187632429343" lon="15.068464494080223"><ele>32.8</ele><time>2026-03-28T14:21:18Z</time></trkpt><trkpt lat="36.851918033183345" lon="15.068341605045624"><ele>33.0</ele><time>2026-03-28T14:21:19Z</time></trkpt><trkpt lat="36.85195127517755" lon="15.068239184822271"><ele>32.0</ele><time>2026-03-28T14:21:20Z</time></trkpt><trkpt lat="36.851988094003545" lon="15.068132036990157"><ele>31.0</ele><time>2026-03-28T14:21:21Z</time></trkpt><trkpt lat="36.85202316576046" lon="15.06803006210589"><ele>30.0</ele><time>2026-03-28T14:21:22Z</time></trkpt><trkpt lat="36.85207018819291" lon="15.067930754468918"><ele>29.0</ele><time>2026-03-28T14:21:23Z</time></trkpt><trkpt lat="36.852111425935156" lon="15.067861526381126"><ele>28.0</ele><time>2026-03-28T14:21:23.999Z</time></trkpt><trkpt lat="36.85212678306077" lon="15.067754732487586"><ele>27.0</ele><time>2026-03-28T14:21:25.999Z</time></trkpt><trkpt lat="36.852098950991916" lon="15.067673759747208"><ele>27.0</ele><time>2026-03-28T14:21:26.999Z</time></trkpt><trkpt lat="36.8520385459526" lon="15.067544339913375"><ele>27.000000000000004</ele><time>2026-03-28T14:21:27.999Z</time></trkpt><trkpt lat="36.851984001499765" lon="15.067402499519705"><ele>27.000000000000004</ele><time>2026-03-28T14:21:28.999Z</time></trkpt><trkpt lat="36.851944299093255" lon="15.067280099773997"><ele>27.0</ele><time>2026-03-28T14:21:29.999Z</time></trkpt><trkpt lat="36.85191304171383" lon="15.067182293026157"><ele>27.0</ele><time>2026-03-28T14:21:30.999Z</time></trkpt><trkpt lat="36.85188205544078" lon="15.067082284276939"><ele>27.0</ele><time>2026-03-28T14:21:31.999Z</time></trkpt><trkpt lat="36.8518555663713" lon="15.06696603966004"><ele>27.000000000000004</ele><time>2026-03-28T14:21:32.999Z</time></trkpt><trkpt lat="36.851835015314215" lon="15.066843913855166"><ele>27.000000000000004</ele><time>2026-03-28T14:21:33.999Z</time></trkpt><trkpt lat="36.85182758814268" lon="15.066724815627262"><ele>27.0</ele><time>2026-03-28T14:21:34.999Z</time></trkpt><trkpt lat="36.851832553039486" lon="15.066623081045346"><ele>27.0</ele><time>2026-03-28T14:21:35.999Z</time></trkpt><trkpt lat="36.8518393274062" lon="15.066515352216193"><ele>27.0</ele><time>2026-03-28T14:21:36.999Z</time></trkpt><trkpt lat="36.85184122087993" lon="15.066387478229444"><ele>27.0</ele><time>2026-03-28T14:21:37.999Z</time></trkpt><trkpt lat="36.851834580835934" lon="15.066257413340997"><ele>27.0</ele><time>2026-03-28T14:21:38.999Z</time></trkpt><trkpt lat="36.851822083358655" lon="15.066097696365375"><ele>27.0</ele><time>2026-03-28T14:21:39.999Z</time></trkpt><trkpt lat="36.85180873077325" lon="15.065920304197963"><ele>27.25</ele><time>2026-03-28T14:21:40.999Z</time></trkpt><trkpt lat="36.85180307011358" lon="15.065770441636378"><ele>27.5</ele><time>2026-03-28T14:21:41.999Z</time></trkpt><trkpt lat="36.85179813069966" lon="15.065604313826649"><ele>27.75</ele><time>2026-03-28T14:21:42.999Z</time></trkpt><trkpt lat="36.85178947834087" lon="15.065457926371444"><ele>28.0</ele><time>2026-03-28T14:21:43.999Z</time></trkpt><trkpt lat="36.85178126891839" lon="15.065317144012168"><ele>27.0</ele><time>2026-03-28T14:21:44.999Z</time></trkpt><trkpt lat="36.85177150337531" lon="15.06518441923855"><ele>26.0</ele><time>2026-03-28T14:21:45.999Z</time></trkpt><trkpt lat="36.85175985596655" lon="15.065040379617725"><ele>25.0</ele><time>2026-03-28T14:21:46.999Z</time></trkpt><trkpt lat="36.85174525869875" lon="15.06488324109357"><ele>24.0</ele><time>2026-03-28T14:21:47.999Z</time></trkpt><trkpt lat="36.85174118878033" lon="15.064696288148056"><ele>24.0</ele><time>2026-03-28T14:21:48.999Z</time></trkpt><trkpt lat="36.8517395832838" lon="15.064530058711163"><ele>24.0</ele><time>2026-03-28T14:21:49.999Z</time></trkpt><trkpt lat="36.85174341232823" lon="15.064408191584723"><ele>24.0</ele><time>2026-03-28T14:21:50.999Z</time></trkpt><trkpt lat="36.85173952018501" lon="15.064310647476892"><ele>24.0</ele><time>2026-03-28T14:21:51.999Z</time></trkpt><trkpt lat="36.851739750141725" lon="15.064168970766262"><ele>24.0</ele><time>2026-03-28T14:21:53.999Z</time></trkpt><trkpt lat="36.85182723719322" lon="15.064031952052893"><ele>24.799999999999997</ele><time>2026-03-28T14:21:55.999Z</time></trkpt><trkpt lat="36.85192225209314" lon="15.063955673506356"><ele>25.599999999999998</ele><time>2026-03-28T14:21:56.999Z</time></trkpt><trkpt lat="36.85199546690073" lon="15.063872135933963"><ele>26.4</ele><time>2026-03-28T14:21:57.999Z</time></trkpt><trkpt lat="36.852042383102265" lon="15.063776877323226"><ele>27.2</ele><time>2026-03-28T14:21:59Z</time></trkpt><trkpt lat="36.85207499948964" lon="15.063661684014233"><ele>28.0</ele><time>2026-03-28T14:22:00Z</time></trkpt><trkpt lat="36.85210799375007" lon="15.063535056121841"><ele>28.0</ele><time>2026-03-28T14:22:01Z</time></trkpt><trkpt lat="36.852134324542945" lon="15.063413511966974"><ele>28.0</ele><time>2026-03-28T14:22:02Z</time></trkpt><trkpt lat="36.85215471973182" lon="15.063293012691299"><ele>28.0</ele><time>2026-03-28T14:22:03Z</time></trkpt><trkpt lat="36.85218013040094" lon="15.063136712843434"><ele>28.0</ele><time>2026-03-28T14:22:04Z</time></trkpt><trkpt lat="36.852213084758176" lon="15.062964629656234"><ele>28.0</ele><time>2026-03-28T14:22:05Z</time></trkpt><trkpt lat="36.85225121855203" lon="15.06280686419543"><ele>27.999999999999996</ele><time>2026-03-28T14:22:06Z</time></trkpt><trkpt lat="36.852284430835354" lon="15.062679446705188"><ele>27.999999999999996</ele><time>2026-03-28T14:22:07Z</time></trkpt><trkpt lat="36.85230942733598" lon="15.06255970608103"><ele>28.0</ele><time>2026-03-28T14:22:08Z</time></trkpt><trkpt lat="36.85232585577264" lon="15.062437984494695"><ele>28.0</ele><time>2026-03-28T14:22:09Z</time></trkpt><trkpt lat="36.85233210820119" lon="15.062319304899223"><ele>28.4</ele><time>2026-03-28T14:22:10Z</time></trkpt><trkpt lat="36.852337850076424" lon="15.062189417104538"><ele>28.799999999999997</ele><time>2026-03-28T14:22:11Z</time></trkpt><trkpt lat="36.852351861620505" lon="15.062059143513933"><ele>29.2</ele><time>2026-03-28T14:22:12Z</time></trkpt><trkpt lat="36.8523640585316" lon="15.061939670117065"><ele>29.6</ele><time>2026-03-28T14:22:13Z</time></trkpt><trkpt lat="36.85238391229535" lon="15.061816309652423"><ele>30.0</ele><time>2026-03-28T14:22:14Z</time></trkpt><trkpt lat="36.85239912758376" lon="15.06171493315921"><ele>30.0</ele><time>2026-03-28T14:22:15Z</time></trkpt><trkpt lat="36.85240996250573" lon="15.061627396862875"><ele>30.0</ele><time>2026-03-28T14:22:16Z</time></trkpt><trkpt lat="36.85244288855113" lon="15.06155399094408"><ele>30.0</ele><time>2026-03-28T14:22:17Z</time></trkpt><trkpt lat="36.85251591888118" lon="15.061428662309536"><ele>30.0</ele><time>2026-03-28T14:22:19Z</time></trkpt><trkpt lat="36.852572347735695" lon="15.061360609948412"><ele>30.0</ele><time>2026-03-28T14:22:20Z</time></trkpt><trkpt lat="36.85262958668856" lon="15.0613029138629"><ele>30.0</ele><time>2026-03-28T14:22:21Z</time></trkpt><trkpt lat="36.85268705989418" lon="15.06125900800946"><ele>30.6</ele><time>2026-03-28T14:22:22Z</time></trkpt><trkpt lat="36.85275123259337" lon="15.061217089023344"><ele>31.2</ele><time>2026-03-28T14:22:23Z</time></trkpt><trkpt lat="36.852832660980596" lon="15.061128699535642"><ele>31.799999999999997</ele><time>2026-03-28T14:22:25Z</time></trkpt><trkpt lat="36.852854266798396" lon="15.060968407749034"><ele>32.4</ele><time>2026-03-28T14:22:27Z</time></trkpt><trkpt lat="36.85285260559583" lon="15.060863140474176"><ele>33.0</ele><time>2026-03-28T14:22:28Z</time></trkpt><trkpt lat="36.85286621261411" lon="15.060733921569964"><ele>33.6</ele><time>2026-03-28T14:22:29Z</time></trkpt><trkpt lat="36.85289858487307" lon="15.060576025132182"><ele>34.199999999999996</ele><time>2026-03-28T14:22:30Z</time></trkpt><trkpt lat="36.85291929336809" lon="15.060449014257742"><ele>34.8</ele><time>2026-03-28T14:22:31Z</time></trkpt><trkpt lat="36.8529266411951" lon="15.060352305490172"><ele>35.4</ele><time>2026-03-28T14:22:32Z</time></trkpt><trkpt lat="36.85293648899836" lon="15.060271124270669"><ele>36.0</ele><time>2026-03-28T14:22:33Z</time></trkpt><trkpt lat="36.85295000755252" lon="15.060180619973705"><ele>36.0</ele><time>2026-03-28T14:22:34Z</time></trkpt><trkpt lat="36.852959468421496" lon="15.060084888582052"><ele>36.0</ele><time>2026-03-28T14:22:35Z</time></trkpt><trkpt lat="36.852967299057916" lon="15.059990867058222"><ele>36.0</ele><time>2026-03-28T14:22:36Z</time></trkpt><trkpt lat="36.85297461890046" lon="15.059886662094556"><ele>36.0</ele><time>2026-03-28T14:22:37Z</time></trkpt><trkpt lat="36.85297903649106" lon="15.059757394905253"><ele>36.0</ele><time>2026-03-28T14:22:38Z</time></trkpt><trkpt lat="36.8529795789392" lon="15.05959188073957"><ele>35.75</ele><time>2026-03-28T14:22:39Z</time></trkpt><trkpt lat="36.85297419028364" lon="15.05942637960366"><ele>35.5</ele><time>2026-03-28T14:22:40Z</time></trkpt><trkpt lat="36.85297008045507" lon="15.059253114182411"><ele>35.25</ele><time>2026-03-28T14:22:41Z</time></trkpt><trkpt lat="36.8529685427871" lon="15.059088245520059"><ele>35.0</ele><time>2026-03-28T14:22:42Z</time></trkpt><trkpt lat="36.85297068561377" lon="15.05894370056833"><ele>36.0</ele><time>2026-03-28T14:22:43Z</time></trkpt><trkpt lat="36.85296968843518" lon="15.058785477056743"><ele>37.0</ele><time>2026-03-28T14:22:44Z</time></trkpt><trkpt lat="36.852961551713946" lon="15.058603054158796"><ele>38.0</ele><time>2026-03-28T14:22:45Z</time></trkpt><trkpt lat="36.85294620468343" lon="15.058407902842413"><ele>39.0</ele><time>2026-03-28T14:22:46Z</time></trkpt><trkpt lat="36.85293126633391" lon="15.058223302423498"><ele>39.25</ele><time>2026-03-28T14:22:47Z</time></trkpt><trkpt lat="36.85292204027175" lon="15.058034194332398"><ele>39.5</ele><time>2026-03-28T14:22:48Z</time></trkpt><trkpt lat="36.852912202005896" lon="15.057862465783415"><ele>39.75</ele><time>2026-03-28T14:22:49Z</time></trkpt><trkpt lat="36.85289889757139" lon="15.057712519750808"><ele>40.0</ele><time>2026-03-28T14:22:50Z</time></trkpt><trkpt lat="36.852885647169444" lon="15.057571165290357"><ele>39.2</ele><time>2026-03-28T14:22:51Z</time></trkpt><trkpt lat="36.85286840392549" lon="15.057438087596829"><ele>38.4</ele><time>2026-03-28T14:22:52Z</time></trkpt><trkpt lat="36.85284537569964" lon="15.057311393555445"><ele>37.6</ele><time>2026-03-28T14:22:53Z</time></trkpt><trkpt lat="36.85281850901061" lon="15.05718854152143"><ele>36.8</ele><time>2026-03-28T14:22:54Z</time></trkpt><trkpt lat="36.85279193820397" lon="15.057077693082833"><ele>36.0</ele><time>2026-03-28T14:22:55Z</time></trkpt><trkpt lat="36.85276552589401" lon="15.056979254338952"><ele>36.0</ele><time>2026-03-28T14:22:56Z</time></trkpt><trkpt lat="36.85275168888625" lon="15.056886258260539"><ele>36.0</ele><time>2026-03-28T14:22:57Z</time></trkpt><trkpt lat="36.85274869376682" lon="15.056787952230211"><ele>36.0</ele><time>2026-03-28T14:22:58Z</time></trkpt><trkpt lat="36.852749964418805" lon="15.056708894266986"><ele>36.0</ele><time>2026-03-28T14:22:59Z</time></trkpt><trkpt lat="36.85276921852364" lon="15.056605640641774"><ele>36.0</ele><time>2026-03-28T14:23:01Z</time></trkpt><trkpt lat="36.85287446559485" lon="15.056546379300126"><ele>36.0</ele><time>2026-03-28T14:23:04Z</time></trkpt><trkpt lat="36.85295902098334" lon="15.056540164905037"><ele>36.0</ele><time>2026-03-28T14:23:05Z</time></trkpt><trkpt lat="36.8530437654982" lon="15.056514591992292"><ele>36.0</ele><time>2026-03-28T14:23:06Z</time></trkpt><trkpt lat="36.853133859273186" lon="15.05649585497664"><ele>36.0</ele><time>2026-03-28T14:23:07Z</time></trkpt><trkpt lat="36.85320270223541" lon="15.056487203360557"><ele>36.0</ele><time>2026-03-28T14:23:08Z</time></trkpt><trkpt lat="36.853269675601666" lon="15.056451667151425"><ele>36.0</ele><time>2026-03-28T14:23:09Z</time></trkpt><trkpt lat="36.853426224197925" lon="15.056512232795802"><ele>37.166666666666664</ele><time>2026-03-28T14:23:11Z</time></trkpt><trkpt lat="36.85350318132434" lon="15.056588519007356"><ele>38.333333333333336</ele><time>2026-03-28T14:23:13Z</time></trkpt><trkpt lat="36.85357825097412" lon="15.056564106939573"><ele>39.5</ele><time>2026-03-28T14:23:16Z</time></trkpt><trkpt lat="36.85360924254855" lon="15.056476062073529"><ele>40.66666666666667</ele><time>2026-03-28T14:23:20Z</time></trkpt><trkpt lat="36.85362533941672" lon="15.056395967550223"><ele>41.833333333333336</ele><time>2026-03-28T14:23:21Z</time></trkpt><trkpt lat="36.85365376499972" lon="15.056277670274438"><ele>43.0</ele><time>2026-03-28T14:23:22Z</time></trkpt><trkpt lat="36.853684283886075" lon="15.056176591354971"><ele>43.0</ele><time>2026-03-28T14:23:23Z</time></trkpt><trkpt lat="36.853712120144884" lon="15.056081160172315"><ele>43.0</ele><time>2026-03-28T14:23:24Z</time></trkpt><trkpt lat="36.85374122393773" lon="15.055981847912278"><ele>43.0</ele><time>2026-03-28T14:23:25Z</time></trkpt><trkpt lat="36.85377127470481" lon="15.05587572458097"><ele>43.0</ele><time>2026-03-28T14:23:26Z</time></trkpt><trkpt lat="36.853802896656454" lon="15.055770680146768"><ele>43.0</ele><time>2026-03-28T14:23:27Z</time></trkpt><trkpt lat="36.85382785150443" lon="15.055669577806258"><ele>43.0</ele><time>2026-03-28T14:23:27.999Z</time></trkpt><trkpt lat="36.85382752016623" lon="15.055575360955567"><ele>43.8</ele><time>2026-03-28T14:23:29.999Z</time></trkpt><trkpt lat="36.8538311713788" lon="15.05545541369282"><ele>44.599999999999994</ele><time>2026-03-28T14:23:34.999Z</time></trkpt><trkpt lat="36.85384976550404" lon="15.05535655934499"><ele>45.400000000000006</ele><time>2026-03-28T14:23:35.999Z</time></trkpt><trkpt lat="36.85387159769759" lon="15.055239755941503"><ele>46.2</ele><time>2026-03-28T14:23:36.999Z</time></trkpt><trkpt lat="36.853927415169025" lon="15.05510846766259"><ele>47.0</ele><time>2026-03-28T14:23:38.999Z</time></trkpt><trkpt lat="36.853980529731345" lon="15.055065502479115"><ele>47.0</ele><time>2026-03-28T14:23:39.999Z</time></trkpt><trkpt lat="36.854050869750864" lon="15.055032712115453"><ele>47.0</ele><time>2026-03-28T14:23:40.999Z</time></trkpt><trkpt lat="36.85415263438889" lon="15.054989119768717"><ele>47.0</ele><time>2026-03-28T14:23:41.999Z</time></trkpt><trkpt lat="36.85423892162357" lon="15.054945497608578"><ele>47.0</ele><time>2026-03-28T14:23:42.999Z</time></trkpt><trkpt lat="36.854306047159355" lon="15.054903077322887"><ele>47.0</ele><time>2026-03-28T14:23:43.999Z</time></trkpt><trkpt lat="36.85436976131402" lon="15.0548486086666"><ele>47.0</ele><time>2026-03-28T14:23:44.999Z</time></trkpt><trkpt lat="36.85441630099869" lon="15.054785009050024"><ele>48.0</ele><time>2026-03-28T14:23:45.999Z</time></trkpt><trkpt lat="36.85446979278068" lon="15.054709022272275"><ele>49.0</ele><time>2026-03-28T14:23:47.999Z</time></trkpt><trkpt lat="36.85442580373453" lon="15.054638772406078"><ele>50.0</ele><time>2026-03-28T14:23:49.999Z</time></trkpt><trkpt lat="36.854322248147106" lon="15.054548874325802"><ele>51.0</ele><time>2026-03-28T14:23:51.999Z</time></trkpt><trkpt lat="36.85425868171985" lon="15.0544921997463"><ele>52.0</ele><time>2026-03-28T14:23:52.999Z</time></trkpt><trkpt lat="36.85419075423209" lon="15.05436766402831"><ele>52.0</ele><time>2026-03-28T14:23:54.999Z</time></trkpt><trkpt lat="36.854154409656246" lon="15.054288292628831"><ele>52.0</ele><time>2026-03-28T14:23:55.999Z</time></trkpt><trkpt lat="36.85411476862518" lon="15.054207277624304"><ele>52.0</ele><time>2026-03-28T14:23:56.999Z</time></trkpt><trkpt lat="36.854088565167395" lon="15.054131577605677"><ele>52.0</ele><time>2026-03-28T14:23:57.999Z</time></trkpt><trkpt lat="36.854061566972085" lon="15.054014320632405"><ele>52.0</ele><time>2026-03-28T14:23:59.999Z</time></trkpt><trkpt lat="36.85404206053492" lon="15.053939509586895"><ele>52.0</ele><time>2026-03-28T14:24:00.999Z</time></trkpt><trkpt lat="36.85402714324413" lon="15.05386188915979"><ele>52.0</ele><time>2026-03-28T14:24:01.999Z</time></trkpt><trkpt lat="36.854002649660025" lon="15.053715072155674"><ele>52.400000000000006</ele><time>2026-03-28T14:24:03.999Z</time></trkpt><trkpt lat="36.853985745072436" lon="15.05356894059314"><ele>52.800000000000004</ele><time>2026-03-28T14:24:06Z</time></trkpt><trkpt lat="36.853987545432425" lon="15.05343641048194"><ele>53.2</ele><time>2026-03-28T14:24:08Z</time></trkpt><trkpt lat="36.85402555380119" lon="15.053346809718922"><ele>53.6</ele><time>2026-03-28T14:24:10Z</time></trkpt><trkpt lat="36.854075493467626" lon="15.05327094377896"><ele>54.0</ele><time>2026-03-28T14:24:12Z</time></trkpt><trkpt lat="36.85417289701267" lon="15.053232090897682"><ele>54.0</ele><time>2026-03-28T14:24:14Z</time></trkpt><trkpt lat="36.8542495295626" lon="15.053200771365203"><ele>54.0</ele><time>2026-03-28T14:24:16Z</time></trkpt><trkpt lat="36.85427289835963" lon="15.053104840766226"><ele>54.0</ele><time>2026-03-28T14:24:18Z</time></trkpt><trkpt lat="36.85428567304685" lon="15.053020540973348"><ele>54.0</ele><time>2026-03-28T14:24:19Z</time></trkpt><trkpt lat="36.85430315693167" lon="15.052928716101558"><ele>54.0</ele><time>2026-03-28T14:24:20Z</time></trkpt><trkpt lat="36.854320025940595" lon="15.05283691464731"><ele>54.0</ele><time>2026-03-28T14:24:21Z</time></trkpt><trkpt lat="36.85433850980868" lon="15.05274641741395"><ele>54.333333333333336</ele><time>2026-03-28T14:24:22Z</time></trkpt><trkpt lat="36.854360323819854" lon="15.052649279238384"><ele>54.66666666666667</ele><time>2026-03-28T14:24:23Z</time></trkpt><trkpt lat="36.85437499908458" lon="15.052562623374348"><ele>55.0</ele><time>2026-03-28T14:24:24Z</time></trkpt><trkpt lat="36.854386032664806" lon="15.052484086629327"><ele>55.333333333333336</ele><time>2026-03-28T14:24:25Z</time></trkpt><trkpt lat="36.854405957012915" lon="15.052346813449105"><ele>55.66666666666667</ele><time>2026-03-28T14:24:27Z</time></trkpt><trkpt lat="36.85444039580132" lon="15.052245359823235"><ele>56.0</ele><time>2026-03-28T14:24:29Z</time></trkpt><trkpt lat="36.85450566527399" lon="15.052182074318912"><ele>55.0</ele><time>2026-03-28T14:24:31Z</time></trkpt><trkpt lat="36.85458190266654" lon="15.052176078261732"><ele>54.0</ele><time>2026-03-28T14:24:34Z</time></trkpt><trkpt lat="36.85454387037512" lon="15.052095286072877"><ele>53.0</ele><time>2026-03-28T14:24:38Z</time></trkpt><trkpt lat="36.85447556170316" lon="15.052092812245679"><ele>52.0</ele><time>2026-03-28T14:24:40Z</time></trkpt><trkpt lat="36.85441156732592" lon="15.052061346295565"><ele>51.0</ele><time>2026-03-28T14:24:41Z</time></trkpt><trkpt lat="36.85434773801664" lon="15.052032490963517"><ele>50.0</ele><time>2026-03-28T14:24:42Z</time></trkpt><trkpt lat="36.854286530089794" lon="15.051998309036877"><ele>49.0</ele><time>2026-03-28T14:24:43Z</time></trkpt><trkpt lat="36.85422304436116" lon="15.051956201315328"><ele>48.666666666666664</ele><time>2026-03-28T14:24:44Z</time></trkpt><trkpt lat="36.854147328165006" lon="15.05192070959743"><ele>48.33333333333333</ele><time>2026-03-28T14:24:45Z</time></trkpt><trkpt lat="36.85407734944974" lon="15.051893989144192"><ele>48.0</ele><time>2026-03-28T14:24:46Z</time></trkpt><trkpt lat="36.85400707724425" lon="15.051859844048636"><ele>47.666666666666664</ele><time>2026-03-28T14:24:47Z</time></trkpt><trkpt lat="36.85394357199746" lon="15.051829152025343"><ele>47.33333333333333</ele><time>2026-03-28T14:24:48Z</time></trkpt><trkpt lat="36.85386590793198" lon="15.051794884134305"><ele>47.0</ele><time>2026-03-28T14:24:49Z</time></trkpt><trkpt lat="36.85378312040395" lon="15.05175453395148"><ele>47.0</ele><time>2026-03-28T14:24:50Z</time></trkpt><trkpt lat="36.853708199414335" lon="15.051716535055407"><ele>47.0</ele><time>2026-03-28T14:24:51Z</time></trkpt><trkpt lat="36.85363973223591" lon="15.051673054959334"><ele>47.0</ele><time>2026-03-28T14:24:52Z</time></trkpt><trkpt lat="36.85357350244404" lon="15.051635555214826"><ele>47.0</ele><time>2026-03-28T14:24:53Z</time></trkpt><trkpt lat="36.85351670946817" lon="15.051599148177509"><ele>47.0</ele><time>2026-03-28T14:24:54Z</time></trkpt><trkpt lat="36.85343066241803" lon="15.051512827211363"><ele>47.0</ele><time>2026-03-28T14:24:56Z</time></trkpt><trkpt lat="36.85337954387543" lon="15.05143550054939"><ele>46.0</ele><time>2026-03-28T14:24:58Z</time></trkpt><trkpt lat="36.85332079710797" lon="15.051392237510946"><ele>45.0</ele><time>2026-03-28T14:25:01Z</time></trkpt><trkpt lat="36.853262821708526" lon="15.051440458841194"><ele>44.0</ele><time>2026-03-28T14:25:07Z</time></trkpt><trkpt lat="36.85319729883848" lon="15.051444362099993"><ele>43.0</ele><time>2026-03-28T14:25:14Z</time></trkpt><trkpt lat="36.853173482515494" lon="15.051523081970979"><ele>42.0</ele><time>2026-03-28T14:25:18Z</time></trkpt><trkpt lat="36.85312321017691" lon="15.051588750814707"><ele>41.0</ele><time>2026-03-28T14:25:21Z</time></trkpt><trkpt lat="36.853061945015405" lon="15.051555713477512"><ele>40.0</ele><time>2026-03-28T14:25:23Z</time></trkpt><trkpt lat="36.85300225773528" lon="15.051444210157316"><ele>40.0</ele><time>2026-03-28T14:25:25Z</time></trkpt><trkpt lat="36.85293233682002" lon="15.05130998519576"><ele>40.0</ele><time>2026-03-28T14:25:27Z</time></trkpt><trkpt lat="36.85288680471478" lon="15.051235057223277"><ele>40.0</ele><time>2026-03-28T14:25:28Z</time></trkpt><trkpt lat="36.85283652508381" lon="15.05116436871289"><ele>40.0</ele><time>2026-03-28T14:25:29Z</time></trkpt><trkpt lat="36.85278452045313" lon="15.051097497773679"><ele>40.0</ele><time>2026-03-28T14:25:30Z</time></trkpt><trkpt lat="36.85273531619933" lon="15.051035308274974"><ele>40.0</ele><time>2026-03-28T14:25:31Z</time></trkpt><trkpt lat="36.85268486040679" lon="15.050966864018015"><ele>40.0</ele><time>2026-03-28T14:25:32Z</time></trkpt><trkpt lat="36.85264008898851" lon="15.05090055575334"><ele>40.0</ele><time>2026-03-28T14:25:33Z</time></trkpt><trkpt lat="36.85258397500871" lon="15.050817739703627"><ele>40.0</ele><time>2026-03-28T14:25:34Z</time></trkpt><trkpt lat="36.85252743274984" lon="15.050752925128682"><ele>40.0</ele><time>2026-03-28T14:25:35Z</time></trkpt><trkpt lat="36.85246062796338" lon="15.050694932682159"><ele>40.0</ele><time>2026-03-28T14:25:36Z</time></trkpt><trkpt lat="36.85239279745162" lon="15.05064154461947"><ele>40.0</ele><time>2026-03-28T14:25:37Z</time></trkpt><trkpt lat="36.852327502876726" lon="15.05057868694912"><ele>41.5</ele><time>2026-03-28T14:25:38Z</time></trkpt><trkpt lat="36.85226058436095" lon="15.050516712673033"><ele>43.0</ele><time>2026-03-28T14:25:39Z</time></trkpt><trkpt lat="36.85220166676414" lon="15.05045093492757"><ele>44.5</ele><time>2026-03-28T14:25:39.999Z</time></trkpt><trkpt lat="36.852135766353236" lon="15.050379004840982"><ele>46.0</ele><time>2026-03-28T14:25:40.999Z</time></trkpt><trkpt lat="36.85207052302929" lon="15.0503046875422"><ele>47.49999999999999</ele><time>2026-03-28T14:25:41.999Z</time></trkpt><trkpt lat="36.85199910844385" lon="15.05024485870267"><ele>49.0</ele><time>2026-03-28T14:25:42.999Z</time></trkpt><trkpt lat="36.85192203706256" lon="15.050181141753011"><ele>48.99999999999999</ele><time>2026-03-28T14:25:43.999Z</time></trkpt><trkpt lat="36.85185438135281" lon="15.050111338813837"><ele>49.0</ele><time>2026-03-28T14:25:44.999Z</time></trkpt><trkpt lat="36.851782801605445" lon="15.050034019337765"><ele>49.0</ele><time>2026-03-28T14:25:45.999Z</time></trkpt><trkpt lat="36.851711791905316" lon="15.049969648301673"><ele>49.0</ele><time>2026-03-28T14:25:46.999Z</time></trkpt><trkpt lat="36.85164486552658" lon="15.049909848236716"><ele>48.99999999999999</ele><time>2026-03-28T14:25:47.999Z</time></trkpt><trkpt lat="36.85157099681723" lon="15.049843414695"><ele>49.0</ele><time>2026-03-28T14:25:48.999Z</time></trkpt><trkpt lat="36.85149207483332" lon="15.049785606322619"><ele>51.83333333333333</ele><time>2026-03-28T14:25:49.999Z</time></trkpt><trkpt lat="36.851422100921475" lon="15.049726551939267"><ele>54.666666666666664</ele><time>2026-03-28T14:25:50.999Z</time></trkpt><trkpt lat="36.851364791607814" lon="15.04966716219373"><ele>57.5</ele><time>2026-03-28T14:25:51.999Z</time></trkpt><trkpt lat="36.85132785109539" lon="15.049588942587569"><ele>60.33333333333333</ele><time>2026-03-28T14:25:52.999Z</time></trkpt><trkpt lat="36.85131122818299" lon="15.049510997154586"><ele>63.166666666666664</ele><time>2026-03-28T14:25:53.999Z</time></trkpt><trkpt lat="36.85129328151346" lon="15.049424771092951"><ele>66.0</ele><time>2026-03-28T14:25:55.999Z</time></trkpt><trkpt lat="36.85126181394302" lon="15.049311199809786"><ele>66.0</ele><time>2026-03-28T14:26:00.999Z</time></trkpt><trkpt lat="36.851232311345434" lon="15.049188942783939"><ele>66.0</ele><time>2026-03-28T14:26:02.999Z</time></trkpt><trkpt lat="36.85123349908332" lon="15.04908359525767"><ele>66.0</ele><time>2026-03-28T14:26:04.999Z</time></trkpt><trkpt lat="36.85128036851437" lon="15.04900275860971"><ele>66.0</ele><time>2026-03-28T14:26:06.999Z</time></trkpt><trkpt lat="36.85130962023702" lon="15.04892935508222"><ele>66.0</ele><time>2026-03-28T14:26:08.999Z</time></trkpt><trkpt lat="36.85136660406464" lon="15.04884262285113"><ele>66.0</ele><time>2026-03-28T14:26:12Z</time></trkpt><trkpt lat="36.85139032823422" lon="15.048738282287276"><ele>67.16666666666667</ele><time>2026-03-28T14:26:14Z</time></trkpt><trkpt lat="36.851431179463916" lon="15.048668173241527"><ele>68.33333333333333</ele><time>2026-03-28T14:26:16Z</time></trkpt><trkpt lat="36.85147002437751" lon="15.048571854561594"><ele>69.5</ele><time>2026-03-28T14:26:18Z</time></trkpt><trkpt lat="36.85150359035276" lon="15.048478870910069"><ele>70.66666666666666</ele><time>2026-03-28T14:26:20Z</time></trkpt><trkpt lat="36.85155307066824" lon="15.048380121175224"><ele>71.83333333333333</ele><time>2026-03-28T14:26:22Z</time></trkpt><trkpt lat="36.85161369893235" lon="15.048281859707812"><ele>73.0</ele><time>2026-03-28T14:26:24Z</time></trkpt><trkpt lat="36.851657831523546" lon="15.04816606235187"><ele>73.2</ele><time>2026-03-28T14:26:27Z</time></trkpt><trkpt lat="36.851706369359654" lon="15.048079635144717"><ele>73.4</ele><time>2026-03-28T14:26:29Z</time></trkpt><trkpt lat="36.85176341953682" lon="15.047916714864911"><ele>73.60000000000001</ele><time>2026-03-28T14:26:31Z</time></trkpt><trkpt lat="36.851789628754865" lon="15.047793225831516"><ele>73.8</ele><time>2026-03-28T14:26:33Z</time></trkpt><trkpt lat="36.85181058577167" lon="15.047682978956145"><ele>74.0</ele><time>2026-03-28T14:26:35Z</time></trkpt><trkpt lat="36.851826476492114" lon="15.047599100066623"><ele>74.2</ele><time>2026-03-28T14:26:36Z</time></trkpt><trkpt lat="36.85185133221694" lon="15.047460734052462"><ele>74.4</ele><time>2026-03-28T14:26:38Z</time></trkpt><trkpt lat="36.851881664428376" lon="15.047345576450816"><ele>74.6</ele><time>2026-03-28T14:26:40Z</time></trkpt><trkpt lat="36.85192514724052" lon="15.047231066690317"><ele>74.8</ele><time>2026-03-28T14:26:42Z</time></trkpt><trkpt lat="36.85200725253573" lon="15.047123542928343"><ele>75.0</ele><time>2026-03-28T14:26:44Z</time></trkpt><trkpt lat="36.85205211456371" lon="15.047049875781616"><ele>76.2</ele><time>2026-03-28T14:26:45Z</time></trkpt><trkpt lat="36.852126933307616" lon="15.046924407689486"><ele>77.4</ele><time>2026-03-28T14:26:47Z</time></trkpt><trkpt lat="36.852177445047566" lon="15.046851190662453"><ele>78.6</ele><time>2026-03-28T14:26:48Z</time></trkpt><trkpt lat="36.85222553553733" lon="15.0467632787105"><ele>79.8</ele><time>2026-03-28T14:26:49Z</time></trkpt><trkpt lat="36.85225688808178" lon="15.046665851977302"><ele>81.0</ele><time>2026-03-28T14:26:50Z</time></trkpt><trkpt lat="36.85230208637081" lon="15.046568209663784"><ele>82.6</ele><time>2026-03-28T14:26:51Z</time></trkpt><trkpt lat="36.85235434037086" lon="15.04648816441789"><ele>84.19999999999999</ele><time>2026-03-28T14:26:52Z</time></trkpt><trkpt lat="36.85240969611242" lon="15.046425982413021"><ele>85.80000000000001</ele><time>2026-03-28T14:26:53Z</time></trkpt><trkpt lat="36.85245129192472" lon="15.046359330061009"><ele>87.4</ele><time>2026-03-28T14:26:54Z</time></trkpt><trkpt lat="36.852497462022605" lon="15.046228394048892"><ele>89.0</ele><time>2026-03-28T14:26:56Z</time></trkpt><trkpt lat="36.8525246543037" lon="15.046084020223434"><ele>89.0</ele><time>2026-03-28T14:26:58Z</time></trkpt><trkpt lat="36.85255227111456" lon="15.0459574395857"><ele>89.0</ele><time>2026-03-28T14:27:00Z</time></trkpt><trkpt lat="36.85256075921567" lon="15.045817519110795"><ele>89.0</ele><time>2026-03-28T14:27:02Z</time></trkpt><trkpt lat="36.85256545617264" lon="15.045697896147777"><ele>89.0</ele><time>2026-03-28T14:27:04Z</time></trkpt><trkpt lat="36.85259393730494" lon="15.045554218515857"><ele>89.0</ele><time>2026-03-28T14:27:06Z</time></trkpt><trkpt lat="36.85264171221956" lon="15.045437567056451"><ele>89.83333333333334</ele><time>2026-03-28T14:27:08Z</time></trkpt><trkpt lat="36.85266053262143" lon="15.04535812948962"><ele>90.66666666666667</ele><time>2026-03-28T14:27:09Z</time></trkpt><trkpt lat="36.85267831373443" lon="15.045276241299348"><ele>91.5</ele><time>2026-03-28T14:27:10Z</time></trkpt><trkpt lat="36.852717944003736" lon="15.045189260697649"><ele>92.33333333333333</ele><time>2026-03-28T14:27:11Z</time></trkpt><trkpt lat="36.85277343208431" lon="15.045036233914"><ele>93.16666666666666</ele><time>2026-03-28T14:27:13Z</time></trkpt><trkpt lat="36.85281320803826" lon="15.044935707979608"><ele>94.0</ele><time>2026-03-28T14:27:14Z</time></trkpt><trkpt lat="36.8528637124585" lon="15.044851327311832"><ele>94.0</ele><time>2026-03-28T14:27:15Z</time></trkpt><trkpt lat="36.85290438498715" lon="15.044777197910932"><ele>94.0</ele><time>2026-03-28T14:27:16Z</time></trkpt><trkpt lat="36.852949730750105" lon="15.044705441800033"><ele>94.0</ele><time>2026-03-28T14:27:17Z</time></trkpt><trkpt lat="36.85299510228377" lon="15.0446421345994"><ele>94.0</ele><time>2026-03-28T14:27:18Z</time></trkpt><trkpt lat="36.85306866025096" lon="15.044550019225795"><ele>94.0</ele><time>2026-03-28T14:27:20Z</time></trkpt><trkpt lat="36.8531207075175" lon="15.044490105687723"><ele>94.0</ele><time>2026-03-28T14:27:22Z</time></trkpt><trkpt lat="36.853176135617105" lon="15.044449271789073"><ele>94.0</ele><time>2026-03-28T14:27:44.999Z</time></trkpt><trkpt lat="36.853253805304476" lon="15.044372110107057"><ele>94.0</ele><time>2026-03-28T14:27:49.999Z</time></trkpt><trkpt lat="36.853339707898094" lon="15.044273368693556"><ele>94.0</ele><time>2026-03-28T14:27:51.999Z</time></trkpt><trkpt lat="36.85339348662841" lon="15.044225256598269"><ele>94.0</ele><time>2026-03-28T14:27:52.999Z</time></trkpt><trkpt lat="36.853442524155895" lon="15.044164268302364"><ele>94.0</ele><time>2026-03-28T14:27:53.999Z</time></trkpt><trkpt lat="36.85348599845259" lon="15.04409897238338"><ele>94.0</ele><time>2026-03-28T14:27:54.999Z</time></trkpt><trkpt lat="36.85352678005929" lon="15.044029842202386"><ele>94.66666666666666</ele><time>2026-03-28T14:27:55.999Z</time></trkpt><trkpt lat="36.85356656808181" lon="15.043955813773987"><ele>95.33333333333333</ele><time>2026-03-28T14:27:56.999Z</time></trkpt><trkpt lat="36.853596668291836" lon="15.04387590664015"><ele>96.0</ele><time>2026-03-28T14:27:57.999Z</time></trkpt><trkpt lat="36.853615327233655" lon="15.043751290594232"><ele>96.66666666666666</ele><time>2026-03-28T14:27:59.999Z</time></trkpt><trkpt lat="36.853628254630095" lon="15.043624975387552"><ele>97.33333333333333</ele><time>2026-03-28T14:28:01.999Z</time></trkpt><trkpt lat="36.85363219157152" lon="15.043544933249747"><ele>98.0</ele><time>2026-03-28T14:28:02.999Z</time></trkpt><trkpt lat="36.85364151782053" lon="15.043465895109549"><ele>98.0</ele><time>2026-03-28T14:28:03.999Z</time></trkpt><trkpt lat="36.85364743318936" lon="15.043333864001038"><ele>98.0</ele><time>2026-03-28T14:28:05.999Z</time></trkpt><trkpt lat="36.85366715434526" lon="15.043207382639604"><ele>98.0</ele><time>2026-03-28T14:28:07.999Z</time></trkpt><trkpt lat="36.853686560032095" lon="15.04306732571037"><ele>98.0</ele><time>2026-03-28T14:28:09.999Z</time></trkpt><trkpt lat="36.853732584859415" lon="15.04291066573737"><ele>98.57142857142857</ele><time>2026-03-28T14:28:11.999Z</time></trkpt><trkpt lat="36.85375928877105" lon="15.042824011321615"><ele>99.14285714285714</ele><time>2026-03-28T14:28:12.999Z</time></trkpt><trkpt lat="36.85378967793252" lon="15.042730458635873"><ele>99.71428571428572</ele><time>2026-03-28T14:28:13.999Z</time></trkpt><trkpt lat="36.85383997840479" lon="15.04266057953656"><ele>100.28571428571428</ele><time>2026-03-28T14:28:14.999Z</time></trkpt><trkpt lat="36.853875114074626" lon="15.042585580047524"><ele>100.85714285714286</ele><time>2026-03-28T14:28:15.999Z</time></trkpt><trkpt lat="36.85391016300165" lon="15.042514973979493"><ele>101.42857142857143</ele><time>2026-03-28T14:28:17Z</time></trkpt><trkpt lat="36.85394823709858" lon="15.042434772123219"><ele>102.0</ele><time>2026-03-28T14:28:18Z</time></trkpt><trkpt lat="36.85400080133258" lon="15.042357111045781"><ele>102.5</ele><time>2026-03-28T14:28:19Z</time></trkpt><trkpt lat="36.85404254647749" lon="15.042270291610956"><ele>103.0</ele><time>2026-03-28T14:28:20Z</time></trkpt><trkpt lat="36.854082234360654" lon="15.042187399347455"><ele>103.5</ele><time>2026-03-28T14:28:21Z</time></trkpt><trkpt lat="36.85410931449014" lon="15.04209176475184"><ele>104.0</ele><time>2026-03-28T14:28:22Z</time></trkpt><trkpt lat="36.8541500224369" lon="15.042012802584042"><ele>104.5</ele><time>2026-03-28T14:28:23Z</time></trkpt><trkpt lat="36.85419951077847" lon="15.04193877589187"><ele>105.0</ele><time>2026-03-28T14:28:24Z</time></trkpt><trkpt lat="36.85422709451792" lon="15.04186451090091"><ele>105.0</ele><time>2026-03-28T14:28:25Z</time></trkpt><trkpt lat="36.85426142012102" lon="15.041776703334554"><ele>105.0</ele><time>2026-03-28T14:28:26Z</time></trkpt><trkpt lat="36.854302324250796" lon="15.041703263462017"><ele>105.0</ele><time>2026-03-28T14:28:27Z</time></trkpt><trkpt lat="36.854361727040356" lon="15.041633266784723"><ele>105.0</ele><time>2026-03-28T14:28:28Z</time></trkpt><trkpt lat="36.854419255452775" lon="15.041558733072842"><ele>105.0</ele><time>2026-03-28T14:28:29Z</time></trkpt><trkpt lat="36.85448405649921" lon="15.04147706008424"><ele>105.0</ele><time>2026-03-28T14:28:30Z</time></trkpt><trkpt lat="36.854538763939374" lon="15.04139586009073"><ele>105.14285714285714</ele><time>2026-03-28T14:28:31Z</time></trkpt><trkpt lat="36.854578702787535" lon="15.041329532532732"><ele>105.28571428571428</ele><time>2026-03-28T14:28:32Z</time></trkpt><trkpt lat="36.85461975013372" lon="15.041268622112044"><ele>105.42857142857143</ele><time>2026-03-28T14:28:33Z</time></trkpt><trkpt lat="36.85466621268188" lon="15.041198253258031"><ele>105.57142857142857</ele><time>2026-03-28T14:28:34Z</time></trkpt><trkpt lat="36.8547161168037" lon="15.041130461885267"><ele>105.71428571428571</ele><time>2026-03-28T14:28:35Z</time></trkpt><trkpt lat="36.854763607195224" lon="15.041059873682924"><ele>105.85714285714286</ele><time>2026-03-28T14:28:36Z</time></trkpt><trkpt lat="36.85482472656529" lon="15.041007011463186"><ele>106.0</ele><time>2026-03-28T14:28:37Z</time></trkpt><trkpt lat="36.85487108392317" lon="15.04095343938955"><ele>106.00000000000001</ele><time>2026-03-28T14:28:38Z</time></trkpt><trkpt lat="36.8549226769896" lon="15.040855926739216"><ele>106.0</ele><time>2026-03-28T14:28:40Z</time></trkpt><trkpt lat="36.854959265671766" lon="15.040769572888872"><ele>106.0</ele><time>2026-03-28T14:28:43Z</time></trkpt><trkpt lat="36.85490239768923" lon="15.04065660655258"><ele>106.0</ele><time>2026-03-28T14:28:46Z</time></trkpt><trkpt lat="36.8548250763237" lon="15.040607547821756"><ele>106.00000000000001</ele><time>2026-03-28T14:28:48Z</time></trkpt><trkpt lat="36.85474948968991" lon="15.040562900483419"><ele>106.0</ele><time>2026-03-28T14:28:50Z</time></trkpt><trkpt lat="36.85466805652167" lon="15.040517031194076"><ele>105.16666666666667</ele><time>2026-03-28T14:28:52Z</time></trkpt><trkpt lat="36.85458903275379" lon="15.04049028697414"><ele>104.33333333333334</ele><time>2026-03-28T14:28:54Z</time></trkpt><trkpt lat="36.85452659655472" lon="15.040453958615421"><ele>103.5</ele><time>2026-03-28T14:28:56Z</time></trkpt><trkpt lat="36.85447136094187" lon="15.040403740631437"><ele>102.66666666666666</ele><time>2026-03-28T14:28:58Z</time></trkpt><trkpt lat="36.85439982095144" lon="15.040339689141474"><ele>101.83333333333333</ele><time>2026-03-28T14:29:01Z</time></trkpt><trkpt lat="36.85431550942021" lon="15.040303397607968"><ele>101.0</ele><time>2026-03-28T14:29:04Z</time></trkpt><trkpt lat="36.85425658506984" lon="15.040269155831735"><ele>97.8</ele><time>2026-03-28T14:29:06Z</time></trkpt><trkpt lat="36.85418245038656" lon="15.04027376802932"><ele>94.6</ele><time>2026-03-28T14:29:08Z</time></trkpt><trkpt lat="36.854091732277396" lon="15.040300086068802"><ele>91.4</ele><time>2026-03-28T14:29:10Z</time></trkpt><trkpt lat="36.854007196710164" lon="15.040351781976993"><ele>88.2</ele><time>2026-03-28T14:29:12Z</time></trkpt><trkpt lat="36.85390831824782" lon="15.040392335923784"><ele>85.0</ele><time>2026-03-28T14:29:14Z</time></trkpt><trkpt lat="36.85380883866508" lon="15.04044256731341"><ele>85.0</ele><time>2026-03-28T14:29:16Z</time></trkpt><trkpt lat="36.853750029654854" lon="15.040477577342468"><ele>85.0</ele><time>2026-03-28T14:29:17Z</time></trkpt><trkpt lat="36.85368191583126" lon="15.040503893166969"><ele>85.0</ele><time>2026-03-28T14:29:18Z</time></trkpt><trkpt lat="36.85362838219424" lon="15.040556980381652"><ele>85.0</ele><time>2026-03-28T14:29:19Z</time></trkpt><trkpt lat="36.8535706741165" lon="15.040619924149377"><ele>85.0</ele><time>2026-03-28T14:29:20Z</time></trkpt><trkpt lat="36.853492912391225" lon="15.040709644307128"><ele>85.0</ele><time>2026-03-28T14:29:22Z</time></trkpt><trkpt lat="36.85344911505742" lon="15.040772929828771"><ele>84.83333333333333</ele><time>2026-03-28T14:29:24Z</time></trkpt><trkpt lat="36.85337682365616" lon="15.040898234055438"><ele>84.66666666666666</ele><time>2026-03-28T14:29:26Z</time></trkpt><trkpt lat="36.853346136262935" lon="15.040971174786261"><ele>84.5</ele><time>2026-03-28T14:29:27Z</time></trkpt><trkpt lat="36.85330163466013" lon="15.041056282668585"><ele>84.33333333333333</ele><time>2026-03-28T14:29:29Z</time></trkpt><trkpt lat="36.85322005755425" lon="15.0410429377264"><ele>84.16666666666667</ele><time>2026-03-28T14:29:31Z</time></trkpt><trkpt lat="36.853151403528805" lon="15.041075473174702"><ele>84.0</ele><time>2026-03-28T14:29:33Z</time></trkpt><trkpt lat="36.85307817367609" lon="15.041180772877153"><ele>84.0</ele><time>2026-03-28T14:29:35Z</time></trkpt><trkpt lat="36.85299146499344" lon="15.041299212260759"><ele>84.0</ele><time>2026-03-28T14:29:37Z</time></trkpt><trkpt lat="36.85294986171269" lon="15.041363672664263"><ele>84.0</ele><time>2026-03-28T14:29:38Z</time></trkpt><trkpt lat="36.85290208452308" lon="15.04143398811047"><ele>84.0</ele><time>2026-03-28T14:29:39Z</time></trkpt><trkpt lat="36.85286161838222" lon="15.041521024999359"><ele>84.0</ele><time>2026-03-28T14:29:40Z</time></trkpt><trkpt lat="36.852797488187356" lon="15.041583376239316"><ele>84.0</ele><time>2026-03-28T14:29:41Z</time></trkpt><trkpt lat="36.85276221751866" lon="15.041656190462138"><ele>84.80000000000001</ele><time>2026-03-28T14:29:42Z</time></trkpt><trkpt lat="36.852674132800324" lon="15.041755474382802"><ele>85.60000000000001</ele><time>2026-03-28T14:29:44Z</time></trkpt><trkpt lat="36.85258592061772" lon="15.041842697812239"><ele>86.4</ele><time>2026-03-28T14:29:46Z</time></trkpt><trkpt lat="36.852464501662666" lon="15.041829647595609"><ele>87.2</ele><time>2026-03-28T14:29:48Z</time></trkpt><trkpt lat="36.85241856114326" lon="15.041769917544686"><ele>88.0</ele><time>2026-03-28T14:29:49Z</time></trkpt><trkpt lat="36.85236325093622" lon="15.041718862149645"><ele>84.66666666666666</ele><time>2026-03-28T14:29:50Z</time></trkpt><trkpt lat="36.852294095484496" lon="15.041686728587942"><ele>81.33333333333333</ele><time>2026-03-28T14:29:51Z</time></trkpt><trkpt lat="36.85222291598833" lon="15.041640544495662"><ele>78.0</ele><time>2026-03-28T14:29:52Z</time></trkpt><trkpt lat="36.85215762547263" lon="15.04157545741978"><ele>74.66666666666667</ele><time>2026-03-28T14:29:52.999Z</time></trkpt><trkpt lat="36.85208215145243" lon="15.04152535026416"><ele>71.33333333333334</ele><time>2026-03-28T14:29:53.999Z</time></trkpt><trkpt lat="36.8520109086731" lon="15.041478052271142"><ele>68.0</ele><time>2026-03-28T14:29:54.999Z</time></trkpt><trkpt lat="36.85194618807321" lon="15.041433105731912"><ele>67.5</ele><time>2026-03-28T14:29:55.999Z</time></trkpt><trkpt lat="36.85188254753552" lon="15.041386415993161"><ele>67.0</ele><time>2026-03-28T14:29:56.999Z</time></trkpt><trkpt lat="36.85182605428377" lon="15.041335138859347"><ele>66.5</ele><time>2026-03-28T14:29:57.999Z</time></trkpt><trkpt lat="36.85177736399987" lon="15.041273355232574"><ele>66.0</ele><time>2026-03-28T14:29:58.999Z</time></trkpt><trkpt lat="36.851714046044535" lon="15.041198816971276"><ele>65.5</ele><time>2026-03-28T14:29:59.999Z</time></trkpt><trkpt lat="36.85165024541416" lon="15.041123710591858"><ele>65.0</ele><time>2026-03-28T14:30:00.999Z</time></trkpt><trkpt lat="36.85159916308049" lon="15.041063576281669"><ele>62.66666666666667</ele><time>2026-03-28T14:30:01.999Z</time></trkpt><trkpt lat="36.85154334188093" lon="15.040995199265014"><ele>60.333333333333336</ele><time>2026-03-28T14:30:02.999Z</time></trkpt><trkpt lat="36.851477940454316" lon="15.040934535105436"><ele>58.0</ele><time>2026-03-28T14:30:03.999Z</time></trkpt><trkpt lat="36.85142941963681" lon="15.040860836678881"><ele>55.66666666666667</ele><time>2026-03-28T14:30:04.999Z</time></trkpt><trkpt lat="36.851378799086525" lon="15.040787358044428"><ele>53.333333333333336</ele><time>2026-03-28T14:30:05.999Z</time></trkpt><trkpt lat="36.85134124891417" lon="15.040704043747983"><ele>51.0</ele><time>2026-03-28T14:30:06.999Z</time></trkpt><trkpt lat="36.851316774281656" lon="15.040609823118997"><ele>50.166666666666664</ele><time>2026-03-28T14:30:07.999Z</time></trkpt><trkpt lat="36.851280487175124" lon="15.040521148173838"><ele>49.333333333333336</ele><time>2026-03-28T14:30:08.999Z</time></trkpt><trkpt lat="36.85123825582112" lon="15.040438870902888"><ele>48.5</ele><time>2026-03-28T14:30:09.999Z</time></trkpt><trkpt lat="36.851216896906365" lon="15.04035803148449"><ele>47.66666666666667</ele><time>2026-03-28T14:30:10.999Z</time></trkpt><trkpt lat="36.851177844136764" lon="15.040273701318622"><ele>46.833333333333336</ele><time>2026-03-28T14:30:11.999Z</time></trkpt><trkpt lat="36.85113160489995" lon="15.040190114591624"><ele>46.0</ele><time>2026-03-28T14:30:12.999Z</time></trkpt><trkpt lat="36.851065779848" lon="15.040124695988059"><ele>46.0</ele><time>2026-03-28T14:30:13.999Z</time></trkpt><trkpt lat="36.851000067840396" lon="15.040037470316342"><ele>46.0</ele><time>2026-03-28T14:30:14.999Z</time></trkpt><trkpt lat="36.85094213035416" lon="15.039932238590486"><ele>46.0</ele><time>2026-03-28T14:30:15.999Z</time></trkpt><trkpt lat="36.85086600271203" lon="15.039828720648245"><ele>46.0</ele><time>2026-03-28T14:30:16.999Z</time></trkpt><trkpt lat="36.85078062631142" lon="15.039740995703474"><ele>46.0</ele><time>2026-03-28T14:30:17.999Z</time></trkpt><trkpt lat="36.85071282676872" lon="15.039638954379107"><ele>45.0</ele><time>2026-03-28T14:30:18.999Z</time></trkpt><trkpt lat="36.85063588527376" lon="15.039540402927415"><ele>44.0</ele><time>2026-03-28T14:30:19.999Z</time></trkpt><trkpt lat="36.85055795438527" lon="15.039439633994418"><ele>43.0</ele><time>2026-03-28T14:30:20.999Z</time></trkpt><trkpt lat="36.85049549273478" lon="15.03932295840885"><ele>42.0</ele><time>2026-03-28T14:30:22Z</time></trkpt><trkpt lat="36.85042250721077" lon="15.039223538868452"><ele>41.0</ele><time>2026-03-28T14:30:23Z</time></trkpt><trkpt lat="36.850346133487996" lon="15.039137049687103"><ele>40.83333333333333</ele><time>2026-03-28T14:30:24Z</time></trkpt><trkpt lat="36.85027533145055" lon="15.03904787035605"><ele>40.666666666666664</ele><time>2026-03-28T14:30:25Z</time></trkpt><trkpt lat="36.850207527996986" lon="15.038972140700961"><ele>40.5</ele><time>2026-03-28T14:30:26Z</time></trkpt><trkpt lat="36.8501556155498" lon="15.038903394927742"><ele>40.333333333333336</ele><time>2026-03-28T14:30:27Z</time></trkpt><trkpt lat="36.850101981803505" lon="15.038832094842286"><ele>40.16666666666667</ele><time>2026-03-28T14:30:28Z</time></trkpt><trkpt lat="36.85003462447323" lon="15.038742493754713"><ele>40.0</ele><time>2026-03-28T14:30:29Z</time></trkpt><trkpt lat="36.84996786465697" lon="15.038653125557156"><ele>40.0</ele><time>2026-03-28T14:30:30Z</time></trkpt><trkpt lat="36.84992490051995" lon="15.038559773857582"><ele>40.0</ele><time>2026-03-28T14:30:31Z</time></trkpt><trkpt lat="36.84989787101784" lon="15.03847851684244"><ele>40.0</ele><time>2026-03-28T14:30:32Z</time></trkpt><trkpt lat="36.8498995414397" lon="15.038381050751457"><ele>40.0</ele><time>2026-03-28T14:30:33Z</time></trkpt><trkpt lat="36.84989096439759" lon="15.038242334950354"><ele>40.0</ele><time>2026-03-28T14:30:34Z</time></trkpt><trkpt lat="36.84987935280345" lon="15.038087060434323"><ele>41.4</ele><time>2026-03-28T14:30:35Z</time></trkpt><trkpt lat="36.84985231579397" lon="15.03794083568919"><ele>42.8</ele><time>2026-03-28T14:30:36Z</time></trkpt><trkpt lat="36.8498443753232" lon="15.037793902390467"><ele>44.2</ele><time>2026-03-28T14:30:37Z</time></trkpt><trkpt lat="36.849845125574106" lon="15.037660127740915"><ele>45.6</ele><time>2026-03-28T14:30:38Z</time></trkpt><trkpt lat="36.849836194272804" lon="15.037545822075783"><ele>47.0</ele><time>2026-03-28T14:30:39Z</time></trkpt><trkpt lat="36.84982799570495" lon="15.037443903942883"><ele>48.0</ele><time>2026-03-28T14:30:40Z</time></trkpt><trkpt lat="36.849834286372996" lon="15.037347748548807"><ele>49.0</ele><time>2026-03-28T14:30:41Z</time></trkpt><trkpt lat="36.84981241222178" lon="15.03726165955876"><ele>50.0</ele><time>2026-03-28T14:30:42Z</time></trkpt><trkpt lat="36.84976024506828" lon="15.037164072853237"><ele>51.0</ele><time>2026-03-28T14:30:44Z</time></trkpt><trkpt lat="36.84968226493306" lon="15.037184259063949"><ele>52.00000000000001</ele><time>2026-03-28T14:30:45Z</time></trkpt><trkpt lat="36.84963165079894" lon="15.037269777004852"><ele>53.0</ele><time>2026-03-28T14:30:46Z</time></trkpt><trkpt lat="36.84960972857048" lon="15.03736381331386"><ele>51.8</ele><time>2026-03-28T14:30:47Z</time></trkpt><trkpt lat="36.84961547387525" lon="15.037479460872031"><ele>50.599999999999994</ele><time>2026-03-28T14:30:48Z</time></trkpt><trkpt lat="36.84957462981244" lon="15.037584710451915"><ele>49.400000000000006</ele><time>2026-03-28T14:30:49Z</time></trkpt><trkpt lat="36.84952545706134" lon="15.03769714604529"><ele>48.2</ele><time>2026-03-28T14:30:50Z</time></trkpt><trkpt lat="36.8494784928364" lon="15.037807865356848"><ele>47.0</ele><time>2026-03-28T14:30:51Z</time></trkpt><trkpt lat="36.849444178960326" lon="15.037920009408415"><ele>47.0</ele><time>2026-03-28T14:30:52Z</time></trkpt><trkpt lat="36.84940076089255" lon="15.037988861809383"><ele>47.0</ele><time>2026-03-28T14:30:53Z</time></trkpt><trkpt lat="36.84929353912811" lon="15.037999396464363"><ele>47.0</ele><time>2026-03-28T14:30:55Z</time></trkpt><trkpt lat="36.849255159593326" lon="15.037870954762163"><ele>47.0</ele><time>2026-03-28T14:30:57Z</time></trkpt><trkpt lat="36.84928719934084" lon="15.037767384400823"><ele>47.0</ele><time>2026-03-28T14:30:58Z</time></trkpt><trkpt lat="36.84929774671589" lon="15.037665891108002"><ele>47.0</ele><time>2026-03-28T14:30:59Z</time></trkpt><trkpt lat="36.84929891959577" lon="15.037552497257058"><ele>47.0</ele><time>2026-03-28T14:31:00Z</time></trkpt><trkpt lat="36.84928368591102" lon="15.037444856767674"><ele>47.0</ele><time>2026-03-28T14:31:01Z</time></trkpt><trkpt lat="36.84926996502856" lon="15.037362853896134"><ele>47.0</ele><time>2026-03-28T14:31:02Z</time></trkpt><trkpt lat="36.84924990633519" lon="15.037271342169824"><ele>47.0</ele><time>2026-03-28T14:31:03Z</time></trkpt><trkpt lat="36.84924908209288" lon="15.037167729376275"><ele>47.0</ele><time>2026-03-28T14:31:04Z</time></trkpt><trkpt lat="36.84925640332751" lon="15.037062495854318"><ele>52.6</ele><time>2026-03-28T14:31:05Z</time></trkpt><trkpt lat="36.84926672033162" lon="15.036933581437312"><ele>58.2</ele><time>2026-03-28T14:31:06Z</time></trkpt><trkpt lat="36.84927400582224" lon="15.036813326535832"><ele>63.8</ele><time>2026-03-28T14:31:07Z</time></trkpt><trkpt lat="36.84924460810041" lon="15.036666939359339"><ele>69.4</ele><time>2026-03-28T14:31:08Z</time></trkpt><trkpt lat="36.84923683817495" lon="15.036530471757553"><ele>75.0</ele><time>2026-03-28T14:31:09Z</time></trkpt><trkpt lat="36.84920433741446" lon="15.03638466106562"><ele>75.0</ele><time>2026-03-28T14:31:10Z</time></trkpt><trkpt lat="36.849149047731444" lon="15.036243666075439"><ele>75.0</ele><time>2026-03-28T14:31:11Z</time></trkpt><trkpt lat="36.84909408723158" lon="15.036113093719727"><ele>75.0</ele><time>2026-03-28T14:31:12Z</time></trkpt><trkpt lat="36.84907935454933" lon="15.036015576289607"><ele>75.0</ele><time>2026-03-28T14:31:13Z</time></trkpt><trkpt lat="36.84906800787311" lon="15.035928054453963"><ele>75.0</ele><time>2026-03-28T14:31:14Z</time></trkpt><trkpt lat="36.84911980238467" lon="15.035846940812863"><ele>74.6</ele><time>2026-03-28T14:31:15Z</time></trkpt><trkpt lat="36.84916969747475" lon="15.03574097346723"><ele>74.2</ele><time>2026-03-28T14:31:16Z</time></trkpt><trkpt lat="36.84920482996248" lon="15.035650191646997"><ele>73.8</ele><time>2026-03-28T14:31:17Z</time></trkpt><trkpt lat="36.84924528732673" lon="15.035572804497049"><ele>73.4</ele><time>2026-03-28T14:31:18Z</time></trkpt><trkpt lat="36.84923315455598" lon="15.035425355335692"><ele>73.0</ele><time>2026-03-28T14:31:20Z</time></trkpt><trkpt lat="36.84915798697298" lon="15.035350532264038"><ele>73.0</ele><time>2026-03-28T14:31:22Z</time></trkpt><trkpt lat="36.84906888990501" lon="15.035437203412004"><ele>73.0</ele><time>2026-03-28T14:31:24Z</time></trkpt><trkpt lat="36.84902968162669" lon="15.035551791612644"><ele>73.0</ele><time>2026-03-28T14:31:25Z</time></trkpt><trkpt lat="36.84893970956991" lon="15.035639910902182"><ele>73.0</ele><time>2026-03-28T14:31:26Z</time></trkpt><trkpt lat="36.848848854766096" lon="15.035737488650424"><ele>73.0</ele><time>2026-03-28T14:31:27Z</time></trkpt><trkpt lat="36.848720630229494" lon="15.035846385607993"><ele>73.66666666666666</ele><time>2026-03-28T14:31:28Z</time></trkpt><trkpt lat="36.848582703856685" lon="15.035969728000815"><ele>74.33333333333333</ele><time>2026-03-28T14:31:29Z</time></trkpt><trkpt lat="36.84845968380049" lon="15.036125224773668"><ele>75.0</ele><time>2026-03-28T14:31:30Z</time></trkpt><trkpt lat="36.84833430499862" lon="15.036280107709478"><ele>74.25</ele><time>2026-03-28T14:31:31Z</time></trkpt><trkpt lat="36.84823419715041" lon="15.03641225751922"><ele>73.5</ele><time>2026-03-28T14:31:32Z</time></trkpt><trkpt lat="36.848133426758054" lon="15.036560539540664"><ele>72.75</ele><time>2026-03-28T14:31:33Z</time></trkpt><trkpt lat="36.84805983205159" lon="15.036675514465774"><ele>72.0</ele><time>2026-03-28T14:31:34Z</time></trkpt><trkpt lat="36.847994593159704" lon="15.036776604768544"><ele>72.0</ele><time>2026-03-28T14:31:35Z</time></trkpt><trkpt lat="36.84791505593032" lon="15.03684412811359"><ele>72.0</ele><time>2026-03-28T14:31:36Z</time></trkpt><trkpt lat="36.84785076165338" lon="15.036885791235946"><ele>72.0</ele><time>2026-03-28T14:31:37Z</time></trkpt><trkpt lat="36.847764544073854" lon="15.03690638584001"><ele>72.0</ele><time>2026-03-28T14:31:38Z</time></trkpt><trkpt lat="36.84767533504497" lon="15.036916195306613"><ele>72.0</ele><time>2026-03-28T14:31:39Z</time></trkpt><trkpt lat="36.8475849406366" lon="15.036872458224892"><ele>72.0</ele><time>2026-03-28T14:31:40Z</time></trkpt><trkpt lat="36.84745746841261" lon="15.036818675660754"><ele>68.4</ele><time>2026-03-28T14:31:41Z</time></trkpt><trkpt lat="36.847338086291245" lon="15.036768455143443"><ele>64.80000000000001</ele><time>2026-03-28T14:31:42Z</time></trkpt><trkpt lat="36.84724120248722" lon="15.036734060482283"><ele>61.2</ele><time>2026-03-28T14:31:43Z</time></trkpt><trkpt lat="36.847147505549415" lon="15.036704550943881"><ele>57.6</ele><time>2026-03-28T14:31:44Z</time></trkpt><trkpt lat="36.847056938599664" lon="15.036676027253908"><ele>54.0</ele><time>2026-03-28T14:31:45Z</time></trkpt><trkpt lat="36.84697460845974" lon="15.036650097781232"><ele>52.800000000000004</ele><time>2026-03-28T14:31:46Z</time></trkpt><trkpt lat="36.84690840373474" lon="15.036613980075773"><ele>51.60000000000001</ele><time>2026-03-28T14:31:47Z</time></trkpt><trkpt lat="36.846879365225206" lon="15.036500904136256"><ele>50.4</ele><time>2026-03-28T14:31:49Z</time></trkpt><trkpt lat="36.84692166720473" lon="15.036394551800093"><ele>49.2</ele><time>2026-03-28T14:31:51Z</time></trkpt><trkpt lat="36.846918006109455" lon="15.036287238748013"><ele>48.0</ele><time>2026-03-28T14:31:52Z</time></trkpt><trkpt lat="36.84681536822384" lon="15.036189484882941"><ele>48.0</ele><time>2026-03-28T14:31:54Z</time></trkpt><trkpt lat="36.8468266600726" lon="15.036053461915689"><ele>48.0</ele><time>2026-03-28T14:32:18.999Z</time></trkpt><trkpt lat="36.84683352109044" lon="15.035928194565187"><ele>48.0</ele><time>2026-03-28T14:32:19.999Z</time></trkpt><trkpt lat="36.846840470688264" lon="15.035791259284265"><ele>48.0</ele><time>2026-03-28T14:32:20.999Z</time></trkpt><trkpt lat="36.84685013776096" lon="15.035624659667748"><ele>48.0</ele><time>2026-03-28T14:32:21.999Z</time></trkpt><trkpt lat="36.846857945639556" lon="15.035490101629108"><ele>48.0</ele><time>2026-03-28T14:32:22.999Z</time></trkpt><trkpt lat="36.846863955619945" lon="15.035380836185698"><ele>48.0</ele><time>2026-03-28T14:32:23.999Z</time></trkpt><trkpt lat="36.84686857379392" lon="15.035285035889174"><ele>48.0</ele><time>2026-03-28T14:32:24.999Z</time></trkpt><trkpt lat="36.846875153797995" lon="15.035191548617842"><ele>48.0</ele><time>2026-03-28T14:32:25.999Z</time></trkpt><trkpt lat="36.84689582947241" lon="15.035078314191548"><ele>48.0</ele><time>2026-03-28T14:32:26.999Z</time></trkpt><trkpt lat="36.84694307505765" lon="15.034936317008937"><ele>48.0</ele><time>2026-03-28T14:32:28Z</time></trkpt><trkpt lat="36.847000376384194" lon="15.034743910016156"><ele>48.0</ele><time>2026-03-28T14:32:29Z</time></trkpt><trkpt lat="36.84705762179995" lon="15.034546506133735"><ele>48.0</ele><time>2026-03-28T14:32:30Z</time></trkpt><trkpt lat="36.847112780310596" lon="15.034351574527863"><ele>48.0</ele><time>2026-03-28T14:32:31Z</time></trkpt><trkpt lat="36.847145625275736" lon="15.03415993597802"><ele>48.0</ele><time>2026-03-28T14:32:32Z</time></trkpt><trkpt lat="36.847205685905124" lon="15.033979168423956"><ele>48.0</ele><time>2026-03-28T14:32:33Z</time></trkpt><trkpt lat="36.84724433273779" lon="15.033802007845477"><ele>49.0</ele><time>2026-03-28T14:32:34Z</time></trkpt><trkpt lat="36.84728104200814" lon="15.033633729256614"><ele>50.0</ele><time>2026-03-28T14:32:35Z</time></trkpt><trkpt lat="36.84730430268897" lon="15.033467253275095"><ele>51.0</ele><time>2026-03-28T14:32:36Z</time></trkpt><trkpt lat="36.84735436862888" lon="15.033319019489523"><ele>52.0</ele><time>2026-03-28T14:32:37Z</time></trkpt><trkpt lat="36.84739097547001" lon="15.033170990057314"><ele>53.25</ele><time>2026-03-28T14:32:38Z</time></trkpt><trkpt lat="36.84742692753651" lon="15.033025608583156"><ele>54.5</ele><time>2026-03-28T14:32:39Z</time></trkpt><trkpt lat="36.84745976721162" lon="15.03288094746788"><ele>55.75</ele><time>2026-03-28T14:32:40Z</time></trkpt><trkpt lat="36.84749075187437" lon="15.032731489649473"><ele>57.0</ele><time>2026-03-28T14:32:41Z</time></trkpt><trkpt lat="36.84752174869602" lon="15.032575250226698"><ele>57.5</ele><time>2026-03-28T14:32:42Z</time></trkpt><trkpt lat="36.847551465219695" lon="15.032405462458506"><ele>58.0</ele><time>2026-03-28T14:32:43Z</time></trkpt><trkpt lat="36.847577542933934" lon="15.032242371938446"><ele>58.5</ele><time>2026-03-28T14:32:44Z</time></trkpt><trkpt lat="36.847599692451666" lon="15.032087485656861"><ele>59.0</ele><time>2026-03-28T14:32:45Z</time></trkpt><trkpt lat="36.847617897597644" lon="15.031950809830098"><ele>59.00000000000001</ele><time>2026-03-28T14:32:46Z</time></trkpt><trkpt lat="36.847615617044234" lon="15.031833176736836"><ele>59.0</ele><time>2026-03-28T14:32:47Z</time></trkpt><trkpt lat="36.84763314078297" lon="15.031733883145568"><ele>59.0</ele><time>2026-03-28T14:32:48Z</time></trkpt><trkpt lat="36.84763630281565" lon="15.031627204560815"><ele>59.0</ele><time>2026-03-28T14:32:49Z</time></trkpt><trkpt lat="36.84763311032897" lon="15.031520634351029"><ele>59.00000000000001</ele><time>2026-03-28T14:32:50Z</time></trkpt><trkpt lat="36.8476359912975" lon="15.031421463344932"><ele>59.0</ele><time>2026-03-28T14:32:51Z</time></trkpt><trkpt lat="36.847630447945825" lon="15.031334203724144"><ele>59.16666666666667</ele><time>2026-03-28T14:32:52Z</time></trkpt><trkpt lat="36.847644288268185" lon="15.031175108797502"><ele>59.333333333333336</ele><time>2026-03-28T14:32:54Z</time></trkpt><trkpt lat="36.847642564434224" lon="15.031074668581281"><ele>59.5</ele><time>2026-03-28T14:32:55Z</time></trkpt><trkpt lat="36.847630336760915" lon="15.0309818027054"><ele>59.66666666666667</ele><time>2026-03-28T14:32:56Z</time></trkpt><trkpt lat="36.84762881016182" lon="15.030896093059477"><ele>59.833333333333336</ele><time>2026-03-28T14:32:57Z</time></trkpt><trkpt lat="36.84763913335218" lon="15.030804416533103"><ele>60.0</ele><time>2026-03-28T14:32:58Z</time></trkpt><trkpt lat="36.847626310096715" lon="15.030685456490188"><ele>60.0</ele><time>2026-03-28T14:32:59Z</time></trkpt><trkpt lat="36.84763638370905" lon="15.030532913061805"><ele>60.0</ele><time>2026-03-28T14:33:00Z</time></trkpt><trkpt lat="36.847659182230466" lon="15.030364705737522"><ele>60.0</ele><time>2026-03-28T14:33:01Z</time></trkpt><trkpt lat="36.847698761738776" lon="15.030170161740395"><ele>60.0</ele><time>2026-03-28T14:33:02Z</time></trkpt><trkpt lat="36.8477479377627" lon="15.029976250999177"><ele>59.25</ele><time>2026-03-28T14:33:03Z</time></trkpt><trkpt lat="36.84779566165087" lon="15.029797277207132"><ele>58.5</ele><time>2026-03-28T14:33:04Z</time></trkpt><trkpt lat="36.84783841110751" lon="15.02962324267699"><ele>57.75</ele><time>2026-03-28T14:33:05Z</time></trkpt><trkpt lat="36.84788034952813" lon="15.029441826334907"><ele>57.0</ele><time>2026-03-28T14:33:06Z</time></trkpt><trkpt lat="36.847918898121584" lon="15.029255077064118"><ele>57.0</ele><time>2026-03-28T14:33:07Z</time></trkpt><trkpt lat="36.84794759961216" lon="15.029063818008774"><ele>57.0</ele><time>2026-03-28T14:33:08Z</time></trkpt><trkpt lat="36.847963290238674" lon="15.028864144671868"><ele>57.0</ele><time>2026-03-28T14:33:09Z</time></trkpt><trkpt lat="36.847972031320865" lon="15.028652873846589"><ele>57.0</ele><time>2026-03-28T14:33:10Z</time></trkpt><trkpt lat="36.84797382732099" lon="15.028434971969801"><ele>57.0</ele><time>2026-03-28T14:33:11Z</time></trkpt><trkpt lat="36.84796362741387" lon="15.02821474451187"><ele>57.0</ele><time>2026-03-28T14:33:12Z</time></trkpt><trkpt lat="36.84794726624162" lon="15.028003659081126"><ele>57.0</ele><time>2026-03-28T14:33:13Z</time></trkpt><trkpt lat="36.84793716539723" lon="15.02780980659452"><ele>57.0</ele><time>2026-03-28T14:33:14Z</time></trkpt><trkpt lat="36.847931296637775" lon="15.02762428705777"><ele>57.0</ele><time>2026-03-28T14:33:15Z</time></trkpt><trkpt lat="36.847920194295774" lon="15.027457422654512"><ele>57.0</ele><time>2026-03-28T14:33:16Z</time></trkpt><trkpt lat="36.84793289358559" lon="15.027297775906797"><ele>57.25</ele><time>2026-03-28T14:33:17Z</time></trkpt><trkpt lat="36.84793528263138" lon="15.027139881393428"><ele>57.5</ele><time>2026-03-28T14:33:18Z</time></trkpt><trkpt lat="36.847927659336314" lon="15.026974216567032"><ele>57.75</ele><time>2026-03-28T14:33:19Z</time></trkpt><trkpt lat="36.84796287623754" lon="15.026812127494656"><ele>58.0</ele><time>2026-03-28T14:33:20Z</time></trkpt><trkpt lat="36.8479916516105" lon="15.026646045114884"><ele>58.75</ele><time>2026-03-28T14:33:21Z</time></trkpt><trkpt lat="36.8480248591201" lon="15.02646359724019"><ele>59.5</ele><time>2026-03-28T14:33:22Z</time></trkpt><trkpt lat="36.84806138406615" lon="15.026278229421138"><ele>60.25</ele><time>2026-03-28T14:33:23Z</time></trkpt><trkpt lat="36.84809570171132" lon="15.026103244381456"><ele>61.0</ele><time>2026-03-28T14:33:24Z</time></trkpt><trkpt lat="36.84812659301635" lon="15.025930327661142"><ele>62.0</ele><time>2026-03-28T14:33:25Z</time></trkpt><trkpt lat="36.84814736829248" lon="15.025754617910897"><ele>63.0</ele><time>2026-03-28T14:33:26Z</time></trkpt><trkpt lat="36.84817293008394" lon="15.025567149130806"><ele>64.0</ele><time>2026-03-28T14:33:27Z</time></trkpt><trkpt lat="36.848189677938315" lon="15.025371112042654"><ele>64.0</ele><time>2026-03-28T14:33:28Z</time></trkpt><trkpt lat="36.848200578350685" lon="15.025185750598066"><ele>64.0</ele><time>2026-03-28T14:33:29Z</time></trkpt><trkpt lat="36.84820187026079" lon="15.025017932355636"><ele>64.0</ele><time>2026-03-28T14:33:30Z</time></trkpt><trkpt lat="36.848195265509055" lon="15.02485992405317"><ele>64.0</ele><time>2026-03-28T14:33:31Z</time></trkpt><trkpt lat="36.8481874148541" lon="15.024707325643867"><ele>64.4</ele><time>2026-03-28T14:33:32Z</time></trkpt><trkpt lat="36.8481828513359" lon="15.02456984542632"><ele>64.80000000000001</ele><time>2026-03-28T14:33:33Z</time></trkpt><trkpt lat="36.84818951517557" lon="15.024456054302393"><ele>65.19999999999999</ele><time>2026-03-28T14:33:34Z</time></trkpt><trkpt lat="36.84824133439152" lon="15.024329290321038"><ele>65.6</ele><time>2026-03-28T14:33:36Z</time></trkpt><trkpt lat="36.84837266366142" lon="15.02433612988163"><ele>66.0</ele><time>2026-03-28T14:33:38Z</time></trkpt><trkpt lat="36.84849213181321" lon="15.024355859721542"><ele>67.75</ele><time>2026-03-28T14:33:39Z</time></trkpt><trkpt lat="36.848628258524826" lon="15.024369733446541"><ele>69.5</ele><time>2026-03-28T14:33:40Z</time></trkpt><trkpt lat="36.848785034966674" lon="15.024397212155883"><ele>71.25</ele><time>2026-03-28T14:33:41Z</time></trkpt><trkpt lat="36.848932918623575" lon="15.024420528074517"><ele>73.0</ele><time>2026-03-28T14:33:42Z</time></trkpt><trkpt lat="36.849078307051265" lon="15.024444817816368"><ele>73.0</ele><time>2026-03-28T14:33:43Z</time></trkpt><trkpt lat="36.84920340359682" lon="15.024474629018401"><ele>73.0</ele><time>2026-03-28T14:33:44Z</time></trkpt><trkpt lat="36.84932076497075" lon="15.02450410766118"><ele>73.0</ele><time>2026-03-28T14:33:45Z</time></trkpt><trkpt lat="36.84943636905563" lon="15.02454877608882"><ele>73.0</ele><time>2026-03-28T14:33:46Z</time></trkpt><trkpt lat="36.84955541492642" lon="15.024622129787165"><ele>76.0</ele><time>2026-03-28T14:33:47Z</time></trkpt><trkpt lat="36.8496746964032" lon="15.024730881731347"><ele>79.0</ele><time>2026-03-28T14:33:48Z</time></trkpt><trkpt lat="36.84979454065873" lon="15.02486377351219"><ele>82.0</ele><time>2026-03-28T14:33:49Z</time></trkpt><trkpt lat="36.84991551945952" lon="15.025008059921275"><ele>82.0</ele><time>2026-03-28T14:33:50Z</time></trkpt><trkpt lat="36.8500299998008" lon="15.025135374418195"><ele>82.0</ele><time>2026-03-28T14:33:51Z</time></trkpt><trkpt lat="36.85013119653306" lon="15.025246772688812"><ele>82.0</ele><time>2026-03-28T14:33:52Z</time></trkpt><trkpt lat="36.85022018140407" lon="15.025341971294367"><ele>82.0</ele><time>2026-03-28T14:33:53Z</time></trkpt><trkpt lat="36.85030499651319" lon="15.025435766281625"><ele>84.6</ele><time>2026-03-28T14:33:54Z</time></trkpt><trkpt lat="36.850390632253955" lon="15.025525909635201"><ele>87.19999999999999</ele><time>2026-03-28T14:33:55Z</time></trkpt><trkpt lat="36.85046482034422" lon="15.025601122995173"><ele>89.8</ele><time>2026-03-28T14:33:56Z</time></trkpt><trkpt lat="36.850523869819305" lon="15.025670487080138"><ele>92.4</ele><time>2026-03-28T14:33:57Z</time></trkpt><trkpt lat="36.85057613878958" lon="15.025727192421442"><ele>95.0</ele><time>2026-03-28T14:33:58Z</time></trkpt><trkpt lat="36.85068499338133" lon="15.02569439261995"><ele>95.0</ele><time>2026-03-28T14:34:00Z</time></trkpt><trkpt lat="36.85072575065712" lon="15.025616908885894"><ele>95.0</ele><time>2026-03-28T14:34:01Z</time></trkpt><trkpt lat="36.85070172895935" lon="15.025485264418123"><ele>95.0</ele><time>2026-03-28T14:34:02Z</time></trkpt><trkpt lat="36.850655979058175" lon="15.025344537462086"><ele>95.0</ele><time>2026-03-28T14:34:03Z</time></trkpt><trkpt lat="36.85061045611672" lon="15.025195327032804"><ele>95.0</ele><time>2026-03-28T14:34:03.999Z</time></trkpt><trkpt lat="36.85059213598807" lon="15.025088494826125"><ele>95.0</ele><time>2026-03-28T14:34:04.999Z</time></trkpt><trkpt lat="36.85057759191591" lon="15.025004504859544"><ele>95.0</ele><time>2026-03-28T14:34:05.999Z</time></trkpt><trkpt lat="36.850623309825735" lon="15.02494545490625"><ele>95.0</ele><time>2026-03-28T14:34:07.999Z</time></trkpt><trkpt lat="36.85071750413052" lon="15.025006577483774"><ele>95.0</ele><time>2026-03-28T14:34:09.999Z</time></trkpt><trkpt lat="36.85071984578059" lon="15.02513793913407"><ele>95.0</ele><time>2026-03-28T14:34:10.999Z</time></trkpt><trkpt lat="36.85074952289611" lon="15.025250318927483"><ele>95.0</ele><time>2026-03-28T14:34:11.999Z</time></trkpt><trkpt lat="36.85076929940689" lon="15.025325314575277"><ele>95.0</ele><time>2026-03-28T14:34:12.999Z</time></trkpt><trkpt lat="36.850857167557535" lon="15.025393357049099"><ele>95.0</ele><time>2026-03-28T14:34:14.999Z</time></trkpt><trkpt lat="36.8509452492551" lon="15.025287173649755"><ele>95.0</ele><time>2026-03-28T14:34:16.999Z</time></trkpt><trkpt lat="36.850941091620044" lon="15.025152823693146"><ele>95.0</ele><time>2026-03-28T14:34:17.999Z</time></trkpt><trkpt lat="36.850973856986705" lon="15.02503522129766"><ele>95.0</ele><time>2026-03-28T14:34:18.999Z</time></trkpt><trkpt lat="36.85099209286158" lon="15.02491830146079"><ele>97.66666666666667</ele><time>2026-03-28T14:34:19.999Z</time></trkpt><trkpt lat="36.85100467458497" lon="15.024831081722196"><ele>100.33333333333334</ele><time>2026-03-28T14:34:20.999Z</time></trkpt><trkpt lat="36.85105780348505" lon="15.024767002078592"><ele>103.0</ele><time>2026-03-28T14:34:21.999Z</time></trkpt><trkpt lat="36.85112527992248" lon="15.024736141130282"><ele>105.66666666666667</ele><time>2026-03-28T14:34:22.999Z</time></trkpt><trkpt lat="36.85120516423428" lon="15.024760025193059"><ele>108.33333333333333</ele><time>2026-03-28T14:34:23.999Z</time></trkpt><trkpt lat="36.851274866699434" lon="15.024820477265258"><ele>111.0</ele><time>2026-03-28T14:34:24.999Z</time></trkpt><trkpt lat="36.85128868983316" lon="15.024925735713795"><ele>111.0</ele><time>2026-03-28T14:34:25.999Z</time></trkpt><trkpt lat="36.85130778483364" lon="15.025060138157414"><ele>111.0</ele><time>2026-03-28T14:34:26.999Z</time></trkpt><trkpt lat="36.85134520644108" lon="15.02521322942732"><ele>111.0</ele><time>2026-03-28T14:34:27.999Z</time></trkpt><trkpt lat="36.8513759876116" lon="15.02538021958097"><ele>111.0</ele><time>2026-03-28T14:34:28.999Z</time></trkpt><trkpt lat="36.85141105584228" lon="15.025550118149305"><ele>111.0</ele><time>2026-03-28T14:34:29.999Z</time></trkpt><trkpt lat="36.8514342865957" lon="15.025692812992157"><ele>111.0</ele><time>2026-03-28T14:34:30.999Z</time></trkpt><trkpt lat="36.85145196799965" lon="15.025811238449375"><ele>111.0</ele><time>2026-03-28T14:34:31.999Z</time></trkpt><trkpt lat="36.85146867107996" lon="15.02589741993192"><ele>111.0</ele><time>2026-03-28T14:34:33Z</time></trkpt><trkpt lat="36.85150809588884" lon="15.025994346988"><ele>111.0</ele><time>2026-03-28T14:34:35Z</time></trkpt><trkpt lat="36.85161447472277" lon="15.025959886513297"><ele>111.0</ele><time>2026-03-28T14:34:37Z</time></trkpt><trkpt lat="36.851648198603236" lon="15.02585059107502"><ele>111.0</ele><time>2026-03-28T14:34:38Z</time></trkpt><trkpt lat="36.85166048601553" lon="15.025703228985215"><ele>111.0</ele><time>2026-03-28T14:34:39Z</time></trkpt><trkpt lat="36.85169628992416" lon="15.02555800233748"><ele>111.0</ele><time>2026-03-28T14:34:40Z</time></trkpt><trkpt lat="36.85173811451208" lon="15.025375916030306"><ele>111.0</ele><time>2026-03-28T14:34:41Z</time></trkpt><trkpt lat="36.85178119814533" lon="15.02519089201814"><ele>111.0</ele><time>2026-03-28T14:34:42Z</time></trkpt><trkpt lat="36.85181939779944" lon="15.025014575237845"><ele>111.0</ele><time>2026-03-28T14:34:43Z</time></trkpt><trkpt lat="36.851856565786846" lon="15.024842397725484"><ele>111.0</ele><time>2026-03-28T14:34:44Z</time></trkpt><trkpt lat="36.851892473771855" lon="15.024677824967387"><ele>114.25</ele><time>2026-03-28T14:34:45Z</time></trkpt><trkpt lat="36.85196014349053" lon="15.024546406054345"><ele>117.5</ele><time>2026-03-28T14:34:46Z</time></trkpt><trkpt lat="36.85204926247455" lon="15.024430962796046"><ele>120.75</ele><time>2026-03-28T14:34:47Z</time></trkpt><trkpt lat="36.85216118823204" lon="15.024328144774138"><ele>124.0</ele><time>2026-03-28T14:34:48Z</time></trkpt><trkpt lat="36.85228776638517" lon="15.0242502148998"><ele>124.0</ele><time>2026-03-28T14:34:49Z</time></trkpt><trkpt lat="36.852422896392206" lon="15.024204751397003"><ele>124.0</ele><time>2026-03-28T14:34:50Z</time></trkpt><trkpt lat="36.852567791923235" lon="15.024180923931587"><ele>124.0</ele><time>2026-03-28T14:34:51Z</time></trkpt><trkpt lat="36.85270757984628" lon="15.024160772554884"><ele>124.0</ele><time>2026-03-28T14:34:52Z</time></trkpt><trkpt lat="36.85283067140582" lon="15.024140491822099"><ele>124.75</ele><time>2026-03-28T14:34:53Z</time></trkpt><trkpt lat="36.85294076268223" lon="15.02412710827181"><ele>125.5</ele><time>2026-03-28T14:34:54Z</time></trkpt><trkpt lat="36.85304440513058" lon="15.024099088298764"><ele>126.25</ele><time>2026-03-28T14:34:55Z</time></trkpt><trkpt lat="36.853157695368225" lon="15.024039964004812"><ele>127.0</ele><time>2026-03-28T14:34:56Z</time></trkpt><trkpt lat="36.85327384104064" lon="15.023939352385838"><ele>127.0</ele><time>2026-03-28T14:34:57Z</time></trkpt><trkpt lat="36.85339152177008" lon="15.023820978335673"><ele>127.0</ele><time>2026-03-28T14:34:58Z</time></trkpt><trkpt lat="36.8535206003699" lon="15.023725850925565"><ele>127.0</ele><time>2026-03-28T14:34:59Z</time></trkpt><trkpt lat="36.853657660320835" lon="15.02366966111972"><ele>127.0</ele><time>2026-03-28T14:35:00Z</time></trkpt><trkpt lat="36.853780469797535" lon="15.023595280146166"><ele>123.75</ele><time>2026-03-28T14:35:01Z</time></trkpt><trkpt lat="36.85388875425725" lon="15.023524127523272"><ele>120.5</ele><time>2026-03-28T14:35:02Z</time></trkpt><trkpt lat="36.853997741224966" lon="15.023452513256148"><ele>117.25</ele><time>2026-03-28T14:35:03Z</time></trkpt><trkpt lat="36.85410522610995" lon="15.023389370149635"><ele>114.0</ele><time>2026-03-28T14:35:04Z</time></trkpt><trkpt lat="36.854240520072" lon="15.023374606349236"><ele>113.0</ele><time>2026-03-28T14:35:05Z</time></trkpt><trkpt lat="36.85439829025894" lon="15.023387102440012"><ele>112.0</ele><time>2026-03-28T14:35:06Z</time></trkpt><trkpt lat="36.854560438797364" lon="15.023408100210125"><ele>111.0</ele><time>2026-03-28T14:35:07Z</time></trkpt><trkpt lat="36.85472395312873" lon="15.023429238986711"><ele>111.0</ele><time>2026-03-28T14:35:08Z</time></trkpt><trkpt lat="36.854876333302265" lon="15.023465053985428"><ele>111.0</ele><time>2026-03-28T14:35:09Z</time></trkpt><trkpt lat="36.85501818330916" lon="15.023506229086578"><ele>111.0</ele><time>2026-03-28T14:35:10Z</time></trkpt><trkpt lat="36.85516816220922" lon="15.023526799776993"><ele>113.33333333333334</ele><time>2026-03-28T14:35:11Z</time></trkpt><trkpt lat="36.855327463545606" lon="15.023525713295689"><ele>115.66666666666667</ele><time>2026-03-28T14:35:12Z</time></trkpt><trkpt lat="36.85549284853347" lon="15.023515136617759"><ele>118.0</ele><time>2026-03-28T14:35:13Z</time></trkpt><trkpt lat="36.85565040657742" lon="15.023497419452278"><ele>118.0</ele><time>2026-03-28T14:35:14Z</time></trkpt><trkpt lat="36.855807180210775" lon="15.023495058375312"><ele>118.0</ele><time>2026-03-28T14:35:15Z</time></trkpt><trkpt lat="36.85598482718752" lon="15.02353157691953"><ele>118.0</ele><time>2026-03-28T14:35:16Z</time></trkpt><trkpt lat="36.85616776632827" lon="15.023591102426266"><ele>121.0</ele><time>2026-03-28T14:35:17Z</time></trkpt><trkpt lat="36.85635189594703" lon="15.023655214038188"><ele>124.0</ele><time>2026-03-28T14:35:18Z</time></trkpt><trkpt lat="36.85653041430023" lon="15.023705503693677"><ele>127.0</ele><time>2026-03-28T14:35:19Z</time></trkpt><trkpt lat="36.85670009093226" lon="15.023748088993754"><ele>130.0</ele><time>2026-03-28T14:35:20Z</time></trkpt><trkpt lat="36.85685244663993" lon="15.023788231586881"><ele>133.0</ele><time>2026-03-28T14:35:21Z</time></trkpt><trkpt lat="36.85700257740481" lon="15.023836361908785"><ele>136.0</ele><time>2026-03-28T14:35:22Z</time></trkpt><trkpt lat="36.85715045763299" lon="15.023885444484918"><ele>136.0</ele><time>2026-03-28T14:35:23Z</time></trkpt><trkpt lat="36.85729937181031" lon="15.023930624647676"><ele>136.0</ele><time>2026-03-28T14:35:24Z</time></trkpt><trkpt lat="36.857430458716806" lon="15.023976078126745"><ele>136.0</ele><time>2026-03-28T14:35:25Z</time></trkpt><trkpt lat="36.85754567427334" lon="15.02401516746311"><ele>136.0</ele><time>2026-03-28T14:35:26Z</time></trkpt><trkpt lat="36.85765779507966" lon="15.024048128730596"><ele>137.5</ele><time>2026-03-28T14:35:27Z</time></trkpt><trkpt lat="36.857787312904115" lon="15.024067732620098"><ele>139.0</ele><time>2026-03-28T14:35:28Z</time></trkpt><trkpt lat="36.85793924823202" lon="15.024061256549004"><ele>140.5</ele><time>2026-03-28T14:35:29Z</time></trkpt><trkpt lat="36.85808655348631" lon="15.02403533791876"><ele>142.0</ele><time>2026-03-28T14:35:30Z</time></trkpt><trkpt lat="36.85821516847516" lon="15.024023856122396"><ele>142.0</ele><time>2026-03-28T14:35:31Z</time></trkpt><trkpt lat="36.858339098229024" lon="15.024012984952964"><ele>142.0</ele><time>2026-03-28T14:35:32Z</time></trkpt><trkpt lat="36.858470475748945" lon="15.02398192726639"><ele>142.0</ele><time>2026-03-28T14:35:33Z</time></trkpt><trkpt lat="36.858609456824816" lon="15.023925865423372"><ele>142.0</ele><time>2026-03-28T14:35:34Z</time></trkpt><trkpt lat="36.85874899423249" lon="15.023850685382847"><ele>141.0</ele><time>2026-03-28T14:35:35Z</time></trkpt><trkpt lat="36.85888874092603" lon="15.023767344745083"><ele>140.0</ele><time>2026-03-28T14:35:36Z</time></trkpt><trkpt lat="36.85901764370715" lon="15.023701895659856"><ele>139.0</ele><time>2026-03-28T14:35:37Z</time></trkpt><trkpt lat="36.859141543546585" lon="15.023660747919683"><ele>138.0</ele><time>2026-03-28T14:35:38Z</time></trkpt><trkpt lat="36.85926229533749" lon="15.02363926830735"><ele>140.0</ele><time>2026-03-28T14:35:39Z</time></trkpt><trkpt lat="36.85940361798159" lon="15.023659816238837"><ele>142.0</ele><time>2026-03-28T14:35:40Z</time></trkpt><trkpt lat="36.85956414877801" lon="15.023724898968355"><ele>144.0</ele><time>2026-03-28T14:35:41Z</time></trkpt><trkpt lat="36.85972839544758" lon="15.023796356647734"><ele>144.0</ele><time>2026-03-28T14:35:42Z</time></trkpt><trkpt lat="36.85988675137308" lon="15.023859531533995"><ele>144.0</ele><time>2026-03-28T14:35:43Z</time></trkpt><trkpt lat="36.86002686492305" lon="15.023909303682176"><ele>144.0</ele><time>2026-03-28T14:35:44Z</time></trkpt><trkpt lat="36.86015704446816" lon="15.023944954428092"><ele>144.0</ele><time>2026-03-28T14:35:45Z</time></trkpt><trkpt lat="36.86028351480345" lon="15.023970348729188"><ele>143.0</ele><time>2026-03-28T14:35:46Z</time></trkpt><trkpt lat="36.86041804060643" lon="15.023971683721232"><ele>142.0</ele><time>2026-03-28T14:35:47Z</time></trkpt><trkpt lat="36.86055225837444" lon="15.02396003510473"><ele>141.0</ele><time>2026-03-28T14:35:48Z</time></trkpt><trkpt lat="36.86068042442124" lon="15.023949315697928"><ele>140.0</ele><time>2026-03-28T14:35:49Z</time></trkpt><trkpt lat="36.86081808455768" lon="15.023956549570315"><ele>137.0</ele><time>2026-03-28T14:35:50Z</time></trkpt><trkpt lat="36.8609592172794" lon="15.023986028831018"><ele>134.0</ele><time>2026-03-28T14:35:51Z</time></trkpt><trkpt lat="36.861092376950765" lon="15.024029852068013"><ele>131.0</ele><time>2026-03-28T14:35:52Z</time></trkpt><trkpt lat="36.86122544178015" lon="15.024089539807"><ele>128.0</ele><time>2026-03-28T14:35:53Z</time></trkpt><trkpt lat="36.861365132766785" lon="15.024158463096587"><ele>128.0</ele><time>2026-03-28T14:35:54Z</time></trkpt><trkpt lat="36.861507320701094" lon="15.024224388974448"><ele>128.0</ele><time>2026-03-28T14:35:55Z</time></trkpt><trkpt lat="36.861640765327714" lon="15.024282650961782"><ele>128.0</ele><time>2026-03-28T14:35:56Z</time></trkpt><trkpt lat="36.86176459189631" lon="15.02433737166282"><ele>128.0</ele><time>2026-03-28T14:35:57Z</time></trkpt><trkpt lat="36.861875609959334" lon="15.024383339740115"><ele>127.4</ele><time>2026-03-28T14:35:58Z</time></trkpt><trkpt lat="36.86198567266341" lon="15.024409750600153"><ele>126.80000000000001</ele><time>2026-03-28T14:35:59Z</time></trkpt><trkpt lat="36.86209403189163" lon="15.024417201365381"><ele>126.2</ele><time>2026-03-28T14:36:00Z</time></trkpt><trkpt lat="36.86219785521848" lon="15.02440717837974"><ele>125.6</ele><time>2026-03-28T14:36:01Z</time></trkpt><trkpt lat="36.86229847317189" lon="15.02441571234178"><ele>125.0</ele><time>2026-03-28T14:36:02Z</time></trkpt><trkpt lat="36.86239208644704" lon="15.024402914267666"><ele>124.99999999999999</ele><time>2026-03-28T14:36:03Z</time></trkpt><trkpt lat="36.86247380503368" lon="15.024387963575967"><ele>125.0</ele><time>2026-03-28T14:36:03.999Z</time></trkpt><trkpt lat="36.862544973807495" lon="15.024368548018126"><ele>125.0</ele><time>2026-03-28T14:36:04.999Z</time></trkpt><trkpt lat="36.86265151306196" lon="15.024326805188593"><ele>125.0</ele><time>2026-03-28T14:36:06.999Z</time></trkpt><trkpt lat="36.86271352968711" lon="15.024290637860688"><ele>124.99999999999999</ele><time>2026-03-28T14:36:08.999Z</time></trkpt><trkpt lat="36.862782032370575" lon="15.024273977917044"><ele>125.0</ele><time>2026-03-28T14:36:12.999Z</time></trkpt><trkpt lat="36.862902894414646" lon="15.024332955967449"><ele>125.5</ele><time>2026-03-28T14:36:14.999Z</time></trkpt><trkpt lat="36.86301486454701" lon="15.024385871014243"><ele>126.0</ele><time>2026-03-28T14:36:15.999Z</time></trkpt><trkpt lat="36.86312443882967" lon="15.024440939184666"><ele>126.5</ele><time>2026-03-28T14:36:16.999Z</time></trkpt><trkpt lat="36.86323970083568" lon="15.024466468936323"><ele>127.0</ele><time>2026-03-28T14:36:17.999Z</time></trkpt><trkpt lat="36.86336503467741" lon="15.024469370197002"><ele>129.0</ele><time>2026-03-28T14:36:18.999Z</time></trkpt><trkpt lat="36.8635014220264" lon="15.02446210473768"><ele>131.0</ele><time>2026-03-28T14:36:19.999Z</time></trkpt><trkpt lat="36.86365201584441" lon="15.024438234317579"><ele>133.0</ele><time>2026-03-28T14:36:20.999Z</time></trkpt><trkpt lat="36.86381502764263" lon="15.02439090474597"><ele>133.0</ele><time>2026-03-28T14:36:21.999Z</time></trkpt><trkpt lat="36.86398035308064" lon="15.024341388353456"><ele>133.0</ele><time>2026-03-28T14:36:22.999Z</time></trkpt><trkpt lat="36.864157213020604" lon="15.024305553075015"><ele>133.0</ele><time>2026-03-28T14:36:23.999Z</time></trkpt><trkpt lat="36.86434759698765" lon="15.02426436353576"><ele>133.0</ele><time>2026-03-28T14:36:24.999Z</time></trkpt><trkpt lat="36.864553505747686" lon="15.024214899596457"><ele>133.0</ele><time>2026-03-28T14:36:25.999Z</time></trkpt><trkpt lat="36.8647615452129" lon="15.024161652578563"><ele>133.0</ele><time>2026-03-28T14:36:26.999Z</time></trkpt><trkpt lat="36.86495055047097" lon="15.024109096560073"><ele>136.0</ele><time>2026-03-28T14:36:27.999Z</time></trkpt><trkpt lat="36.8651145598729" lon="15.02407137132825"><ele>139.0</ele><time>2026-03-28T14:36:28.999Z</time></trkpt><trkpt lat="36.865257510740854" lon="15.024048149064468"><ele>142.0</ele><time>2026-03-28T14:36:29.999Z</time></trkpt><trkpt lat="36.86536456598671" lon="15.024040242906352"><ele>145.0</ele><time>2026-03-28T14:36:30.999Z</time></trkpt><trkpt lat="36.86543624010532" lon="15.02405009042219"><ele>145.0</ele><time>2026-03-28T14:36:31.999Z</time></trkpt><trkpt lat="36.86550147595687" lon="15.024042297444336"><ele>145.0</ele><time>2026-03-28T14:36:37.999Z</time></trkpt><trkpt lat="36.86561936050314" lon="15.024051202008954"><ele>145.0</ele><time>2026-03-28T14:36:43Z</time></trkpt><trkpt lat="36.86572732069814" lon="15.024077905055691"><ele>145.0</ele><time>2026-03-28T14:36:44Z</time></trkpt><trkpt lat="36.865846730181374" lon="15.024135221213296"><ele>145.0</ele><time>2026-03-28T14:36:45Z</time></trkpt><trkpt lat="36.86596783896596" lon="15.024199277838552"><ele>144.2</ele><time>2026-03-28T14:36:46Z</time></trkpt><trkpt lat="36.866073735445816" lon="15.02426121260685"><ele>143.4</ele><time>2026-03-28T14:36:47Z</time></trkpt><trkpt lat="36.86616604165893" lon="15.0243071520022"><ele>142.6</ele><time>2026-03-28T14:36:48Z</time></trkpt><trkpt lat="36.86625392907241" lon="15.024356174339903"><ele>141.8</ele><time>2026-03-28T14:36:49Z</time></trkpt><trkpt lat="36.86636638742473" lon="15.024362454514598"><ele>141.0</ele><time>2026-03-28T14:36:50Z</time></trkpt><trkpt lat="36.86646710402889" lon="15.024330313527978"><ele>141.0</ele><time>2026-03-28T14:36:51Z</time></trkpt><trkpt lat="36.86656806219207" lon="15.024336307385717"><ele>141.0</ele><time>2026-03-28T14:36:52Z</time></trkpt><trkpt lat="36.86667345804567" lon="15.024342957325318"><ele>141.0</ele><time>2026-03-28T14:36:53Z</time></trkpt><trkpt lat="36.86678375360351" lon="15.024354443703563"><ele>141.0</ele><time>2026-03-28T14:36:54Z</time></trkpt><trkpt lat="36.86690730646219" lon="15.024354419867702"><ele>141.0</ele><time>2026-03-28T14:36:55Z</time></trkpt><trkpt lat="36.867032163142305" lon="15.024336995273758"><ele>139.75</ele><time>2026-03-28T14:36:56Z</time></trkpt><trkpt lat="36.86716387996828" lon="15.02431267183954"><ele>138.5</ele><time>2026-03-28T14:36:57Z</time></trkpt><trkpt lat="36.867297114348986" lon="15.024281479638441"><ele>137.25</ele><time>2026-03-28T14:36:58Z</time></trkpt><trkpt lat="36.86743628294908" lon="15.024245168809014"><ele>136.0</ele><time>2026-03-28T14:36:59Z</time></trkpt><trkpt lat="36.867573780147175" lon="15.024218280101712"><ele>136.25</ele><time>2026-03-28T14:37:00Z</time></trkpt><trkpt lat="36.86771595283295" lon="15.02419345200219"><ele>136.5</ele><time>2026-03-28T14:37:01Z</time></trkpt><trkpt lat="36.867851015914596" lon="15.024161508270021"><ele>136.75</ele><time>2026-03-28T14:37:02Z</time></trkpt><trkpt lat="36.86799214733386" lon="15.024123596936779"><ele>137.0</ele><time>2026-03-28T14:37:03Z</time></trkpt><trkpt lat="36.86812533392077" lon="15.02408930317658"><ele>137.0</ele><time>2026-03-28T14:37:04Z</time></trkpt><trkpt lat="36.868251315298416" lon="15.0240598749151"><ele>137.0</ele><time>2026-03-28T14:37:05Z</time></trkpt><trkpt lat="36.86837039216738" lon="15.024028769232059"><ele>137.0</ele><time>2026-03-28T14:37:06Z</time></trkpt><trkpt lat="36.86849510564983" lon="15.0239986565912"><ele>137.0</ele><time>2026-03-28T14:37:07Z</time></trkpt><trkpt lat="36.868611281233484" lon="15.023969638107188"><ele>135.4</ele><time>2026-03-28T14:37:08Z</time></trkpt><trkpt lat="36.86872119714788" lon="15.023947735443056"><ele>133.79999999999998</ele><time>2026-03-28T14:37:09Z</time></trkpt><trkpt lat="36.86882407590358" lon="15.023940321689759"><ele>132.2</ele><time>2026-03-28T14:37:10Z</time></trkpt><trkpt lat="36.868926336843636" lon="15.023952329343217"><ele>130.6</ele><time>2026-03-28T14:37:11Z</time></trkpt><trkpt lat="36.869022489435224" lon="15.023977493883049"><ele>129.0</ele><time>2026-03-28T14:37:12Z</time></trkpt><trkpt lat="36.86911775574142" lon="15.024017716148867"><ele>129.0</ele><time>2026-03-28T14:37:13Z</time></trkpt><trkpt lat="36.86919880107863" lon="15.024076390142397"><ele>129.0</ele><time>2026-03-28T14:37:14Z</time></trkpt><trkpt lat="36.86926632979065" lon="15.02414139026119"><ele>129.0</ele><time>2026-03-28T14:37:15Z</time></trkpt><trkpt lat="36.86932901313642" lon="15.024221321612098"><ele>129.0</ele><time>2026-03-28T14:37:17Z</time></trkpt><trkpt lat="36.869457996732244" lon="15.024079146390662"><ele>129.0</ele><time>2026-03-28T14:37:19Z</time></trkpt><trkpt lat="36.86950219679772" lon="15.023988123441708"><ele>129.83333333333334</ele><time>2026-03-28T14:37:20Z</time></trkpt><trkpt lat="36.86957380466187" lon="15.023925477070001"><ele>130.66666666666666</ele><time>2026-03-28T14:37:21Z</time></trkpt><trkpt lat="36.869666871286746" lon="15.023968648043468"><ele>131.5</ele><time>2026-03-28T14:37:22Z</time></trkpt><trkpt lat="36.86975958456562" lon="15.023972547367027"><ele>132.33333333333331</ele><time>2026-03-28T14:37:23Z</time></trkpt><trkpt lat="36.869839486829235" lon="15.02396508161506"><ele>133.16666666666666</ele><time>2026-03-28T14:37:24Z</time></trkpt><trkpt lat="36.86991014583284" lon="15.02391225814"><ele>134.0</ele><time>2026-03-28T14:37:25Z</time></trkpt><trkpt lat="36.86996695115066" lon="15.023811313569652"><ele>134.0</ele><time>2026-03-28T14:37:26Z</time></trkpt><trkpt lat="36.87002967362862" lon="15.023679818330375"><ele>134.0</ele><time>2026-03-28T14:37:27Z</time></trkpt><trkpt lat="36.87011615812581" lon="15.0235522095798"><ele>134.0</ele><time>2026-03-28T14:37:28Z</time></trkpt><trkpt lat="36.87017508315284" lon="15.023403492143965"><ele>134.0</ele><time>2026-03-28T14:37:29Z</time></trkpt><trkpt lat="36.87025216614941" lon="15.023263750285771"><ele>136.25</ele><time>2026-03-28T14:37:30Z</time></trkpt><trkpt lat="36.87032796312967" lon="15.023119161488824"><ele>138.5</ele><time>2026-03-28T14:37:31Z</time></trkpt><trkpt lat="36.87041769684359" lon="15.022977722584246"><ele>140.75</ele><time>2026-03-28T14:37:32Z</time></trkpt><trkpt lat="36.870498326187054" lon="15.022824381394198"><ele>143.0</ele><time>2026-03-28T14:37:33Z</time></trkpt><trkpt lat="36.870581274140186" lon="15.02266665768752"><ele>143.0</ele><time>2026-03-28T14:37:34Z</time></trkpt><trkpt lat="36.87065117107765" lon="15.022499200736597"><ele>143.0</ele><time>2026-03-28T14:37:35Z</time></trkpt><trkpt lat="36.870730011954414" lon="15.022360854384294"><ele>143.0</ele><time>2026-03-28T14:37:36Z</time></trkpt><trkpt lat="36.870804616124246" lon="15.022233118050975"><ele>143.0</ele><time>2026-03-28T14:37:37Z</time></trkpt><trkpt lat="36.870876905264105" lon="15.022098972078641"><ele>145.4</ele><time>2026-03-28T14:37:38Z</time></trkpt><trkpt lat="36.87094754001023" lon="15.021962632580166"><ele>147.8</ele><time>2026-03-28T14:37:39Z</time></trkpt><trkpt lat="36.87102033664361" lon="15.02184236716045"><ele>150.2</ele><time>2026-03-28T14:37:40Z</time></trkpt><trkpt lat="36.87107792120571" lon="15.021740813042536"><ele>152.6</ele><time>2026-03-28T14:37:41Z</time></trkpt><trkpt lat="36.871123843126696" lon="15.021638203981215"><ele>155.0</ele><time>2026-03-28T14:37:42Z</time></trkpt><trkpt lat="36.87115534410017" lon="15.02151176832383"><ele>155.4</ele><time>2026-03-28T14:37:43Z</time></trkpt><trkpt lat="36.87118766080529" lon="15.021371346530136"><ele>155.8</ele><time>2026-03-28T14:37:44Z</time></trkpt><trkpt lat="36.87119525970379" lon="15.021236987734978"><ele>156.2</ele><time>2026-03-28T14:37:45Z</time></trkpt><trkpt lat="36.871204505285455" lon="15.021150322963253"><ele>156.6</ele><time>2026-03-28T14:37:46Z</time></trkpt><trkpt lat="36.87127911506287" lon="15.021043321438917"><ele>157.0</ele><time>2026-03-28T14:37:48Z</time></trkpt><trkpt lat="36.87138397229327" lon="15.021067006239436"><ele>157.0</ele><time>2026-03-28T14:37:49Z</time></trkpt><trkpt lat="36.871499560888466" lon="15.021041135290202"><ele>157.0</ele><time>2026-03-28T14:37:50Z</time></trkpt><trkpt lat="36.87161748664978" lon="15.021031810666313"><ele>157.0</ele><time>2026-03-28T14:37:51Z</time></trkpt><trkpt lat="36.871744511071185" lon="15.021008043221599"><ele>157.0</ele><time>2026-03-28T14:37:52Z</time></trkpt><trkpt lat="36.87187134953458" lon="15.02098481430596"><ele>156.5</ele><time>2026-03-28T14:37:53Z</time></trkpt><trkpt lat="36.87197978944788" lon="15.020971353902617"><ele>156.0</ele><time>2026-03-28T14:37:54Z</time></trkpt><trkpt lat="36.872072746859246" lon="15.02093304594241"><ele>155.5</ele><time>2026-03-28T14:37:55Z</time></trkpt><trkpt lat="36.872170199427636" lon="15.020870945997263"><ele>155.0</ele><time>2026-03-28T14:37:56Z</time></trkpt><trkpt lat="36.87229049042588" lon="15.020797785584927"><ele>155.66666666666666</ele><time>2026-03-28T14:37:57Z</time></trkpt><trkpt lat="36.87244235302433" lon="15.020766533760506"><ele>156.33333333333334</ele><time>2026-03-28T14:37:58Z</time></trkpt><trkpt lat="36.87258840808613" lon="15.020755873343129"><ele>157.0</ele><time>2026-03-28T14:37:59Z</time></trkpt><trkpt lat="36.872746334459734" lon="15.020747808885949"><ele>157.0</ele><time>2026-03-28T14:38:00Z</time></trkpt><trkpt lat="36.87289404979884" lon="15.020718356391702"><ele>157.0</ele><time>2026-03-28T14:38:01Z</time></trkpt><trkpt lat="36.873043103512636" lon="15.020703120034971"><ele>157.0</ele><time>2026-03-28T14:38:02Z</time></trkpt><trkpt lat="36.87319453860296" lon="15.020673162095347"><ele>157.0</ele><time>2026-03-28T14:38:03Z</time></trkpt><trkpt lat="36.87334631022432" lon="15.020634260508402"><ele>157.0</ele><time>2026-03-28T14:38:04Z</time></trkpt><trkpt lat="36.8734906074145" lon="15.020577913141226"><ele>157.0</ele><time>2026-03-28T14:38:05Z</time></trkpt><trkpt lat="36.87364205067362" lon="15.020481727239458"><ele>154.66666666666669</ele><time>2026-03-28T14:38:06Z</time></trkpt><trkpt lat="36.87382067621865" lon="15.020375616567899"><ele>152.33333333333334</ele><time>2026-03-28T14:38:07Z</time></trkpt><trkpt lat="36.873974619041455" lon="15.020288488017014"><ele>150.0</ele><time>2026-03-28T14:38:08Z</time></trkpt><trkpt lat="36.874103572955526" lon="15.020199004698583"><ele>150.0</ele><time>2026-03-28T14:38:09Z</time></trkpt><trkpt lat="36.87422499836201" lon="15.020116165618175"><ele>150.0</ele><time>2026-03-28T14:38:10Z</time></trkpt><trkpt lat="36.87433896887484" lon="15.020047705087626"><ele>150.0</ele><time>2026-03-28T14:38:11Z</time></trkpt><trkpt lat="36.8744490194833" lon="15.01999035454944"><ele>150.0</ele><time>2026-03-28T14:38:11.999Z</time></trkpt><trkpt lat="36.87455098808071" lon="15.019963028479431"><ele>150.5</ele><time>2026-03-28T14:38:12.999Z</time></trkpt><trkpt lat="36.87466097711367" lon="15.019945322838167"><ele>151.0</ele><time>2026-03-28T14:38:13.999Z</time></trkpt><trkpt lat="36.87478107497881" lon="15.019940976914276"><ele>151.5</ele><time>2026-03-28T14:38:14.999Z</time></trkpt><trkpt lat="36.87491492609475" lon="15.019941650869912"><ele>152.0</ele><time>2026-03-28T14:38:15.999Z</time></trkpt><trkpt lat="36.87504761478607" lon="15.019944547648773"><ele>152.25</ele><time>2026-03-28T14:38:16.999Z</time></trkpt><trkpt lat="36.87518529233308" lon="15.019932999467496"><ele>152.5</ele><time>2026-03-28T14:38:17.999Z</time></trkpt><trkpt lat="36.8753220586747" lon="15.019960806978993"><ele>152.75</ele><time>2026-03-28T14:38:18.999Z</time></trkpt><trkpt lat="36.87545185298195" lon="15.019945825951591"><ele>153.0</ele><time>2026-03-28T14:38:19.999Z</time></trkpt><trkpt lat="36.87556310006415" lon="15.019953838211888"><ele>153.0</ele><time>2026-03-28T14:38:20.999Z</time></trkpt><trkpt lat="36.87565652826159" lon="15.019958457213237"><ele>153.0</ele><time>2026-03-28T14:38:21.999Z</time></trkpt><trkpt lat="36.87574653447731" lon="15.01995705216498"><ele>153.0</ele><time>2026-03-28T14:38:22.999Z</time></trkpt><trkpt lat="36.87583506452609" lon="15.019944089865751"><ele>153.0</ele><time>2026-03-28T14:38:23.999Z</time></trkpt><trkpt lat="36.87591085271269" lon="15.019959848229846"><ele>153.0</ele><time>2026-03-28T14:38:24.999Z</time></trkpt><trkpt lat="36.875989950178834" lon="15.019971248847886"><ele>153.0</ele><time>2026-03-28T14:38:25.999Z</time></trkpt><trkpt lat="36.876073306310055" lon="15.019994935079682"><ele>151.5</ele><time>2026-03-28T14:38:26.999Z</time></trkpt><trkpt lat="36.87615759919982" lon="15.020027948098098"><ele>150.0</ele><time>2026-03-28T14:38:27.999Z</time></trkpt><trkpt lat="36.876228765585644" lon="15.020064608802235"><ele>148.5</ele><time>2026-03-28T14:38:28.999Z</time></trkpt><trkpt lat="36.87628924813547" lon="15.020109952417595"><ele>147.0</ele><time>2026-03-28T14:38:29.999Z</time></trkpt><trkpt lat="36.87640271875942" lon="15.020159390199675"><ele>145.5</ele><time>2026-03-28T14:38:31.999Z</time></trkpt><trkpt lat="36.87647501976018" lon="15.020172108267898"><ele>144.0</ele><time>2026-03-28T14:38:32.999Z</time></trkpt><trkpt lat="36.87655843099053" lon="15.020210751260942"><ele>144.0</ele><time>2026-03-28T14:38:33.999Z</time></trkpt><trkpt lat="36.87663955240129" lon="15.020227769909237"><ele>144.0</ele><time>2026-03-28T14:38:34.999Z</time></trkpt><trkpt lat="36.87671285241761" lon="15.020242253699392"><ele>144.0</ele><time>2026-03-28T14:38:35.999Z</time></trkpt><trkpt lat="36.87678284523784" lon="15.020254371138547"><ele>144.0</ele><time>2026-03-28T14:38:36.999Z</time></trkpt><trkpt lat="36.87685319565421" lon="15.020266550456974"><ele>144.0</ele><time>2026-03-28T14:38:37.999Z</time></trkpt><trkpt lat="36.87692666616391" lon="15.020279269929796"><ele>144.0</ele><time>2026-03-28T14:38:38.999Z</time></trkpt><trkpt lat="36.877010599518364" lon="15.020292794776848"><ele>142.6</ele><time>2026-03-28T14:38:39.999Z</time></trkpt><trkpt lat="36.877107850428125" lon="15.02030378823532"><ele>141.2</ele><time>2026-03-28T14:38:40.999Z</time></trkpt><trkpt lat="36.877210087997604" lon="15.020305980854898"><ele>139.79999999999998</ele><time>2026-03-28T14:38:41.999Z</time></trkpt><trkpt lat="36.87730775726432" lon="15.02031890688101"><ele>138.4</ele><time>2026-03-28T14:38:42.999Z</time></trkpt><trkpt lat="36.87738783617872" lon="15.02034857983336"><ele>137.0</ele><time>2026-03-28T14:38:43.999Z</time></trkpt><trkpt lat="36.87746862470897" lon="15.020346992559995"><ele>137.0</ele><time>2026-03-28T14:38:45Z</time></trkpt><trkpt lat="36.877555725281915" lon="15.020379777241303"><ele>137.0</ele><time>2026-03-28T14:38:46Z</time></trkpt><trkpt lat="36.87764878548269" lon="15.020403838225002"><ele>137.0</ele><time>2026-03-28T14:38:47Z</time></trkpt><trkpt lat="36.87774025710316" lon="15.020425257617044"><ele>137.0</ele><time>2026-03-28T14:38:48Z</time></trkpt><trkpt lat="36.87781530510793" lon="15.020442856110234"><ele>137.0</ele><time>2026-03-28T14:38:49Z</time></trkpt><trkpt lat="36.87792381732755" lon="15.020457005464623"><ele>136.6</ele><time>2026-03-28T14:38:51Z</time></trkpt><trkpt lat="36.87802187132133" lon="15.020507477794476"><ele>136.2</ele><time>2026-03-28T14:38:53Z</time></trkpt><trkpt lat="36.87813331912719" lon="15.02054184993242"><ele>135.8</ele><time>2026-03-28T14:38:55Z</time></trkpt><trkpt lat="36.87819504365554" lon="15.020561621910652"><ele>135.4</ele><time>2026-03-28T14:38:56Z</time></trkpt><trkpt lat="36.87825669080139" lon="15.020581369097497"><ele>135.0</ele><time>2026-03-28T14:38:57Z</time></trkpt><trkpt lat="36.87836467613259" lon="15.020619291556931"><ele>135.0</ele><time>2026-03-28T14:38:59Z</time></trkpt><trkpt lat="36.87845343983019" lon="15.020650807595223"><ele>135.0</ele><time>2026-03-28T14:39:01Z</time></trkpt><trkpt lat="36.87852504682303" lon="15.020676379557635"><ele>135.0</ele><time>2026-03-28T14:39:04Z</time></trkpt><trkpt lat="36.87859442526662" lon="15.020704396447464"><ele>135.0</ele><time>2026-03-28T14:39:07Z</time></trkpt><trkpt lat="36.878657466215074" lon="15.020738020215177"><ele>135.0</ele><time>2026-03-28T14:39:10Z</time></trkpt><trkpt lat="36.87873277197562" lon="15.020785985364153"><ele>135.0</ele><time>2026-03-28T14:39:24Z</time></trkpt><trkpt lat="36.87881445035363" lon="15.020826198883615"><ele>135.0</ele><time>2026-03-28T14:39:29Z</time></trkpt><trkpt lat="36.87889702387544" lon="15.020905073970576"><ele>135.0</ele><time>2026-03-28T14:39:31Z</time></trkpt><trkpt lat="36.87897728483201" lon="15.020968177004903"><ele>135.0</ele><time>2026-03-28T14:39:33Z</time></trkpt><trkpt lat="36.87903440828551" lon="15.02101170593415"><ele>135.0</ele><time>2026-03-28T14:39:34Z</time></trkpt><trkpt lat="36.87910099267492" lon="15.0210756779252"><ele>135.0</ele><time>2026-03-28T14:39:35Z</time></trkpt><trkpt lat="36.87917238349595" lon="15.021137143628286"><ele>135.0</ele><time>2026-03-28T14:39:37Z</time></trkpt><trkpt lat="36.879228329445745" lon="15.021175412435175"><ele>135.4</ele><time>2026-03-28T14:39:43Z</time></trkpt><trkpt lat="36.87928475111862" lon="15.021222605393554"><ele>135.8</ele><time>2026-03-28T14:39:49Z</time></trkpt><trkpt lat="36.879350690757065" lon="15.021295281325628"><ele>136.2</ele><time>2026-03-28T14:39:52Z</time></trkpt><trkpt lat="36.87942441240957" lon="15.021333052774684"><ele>136.6</ele><time>2026-03-28T14:39:55Z</time></trkpt><trkpt lat="36.87949699082106" lon="15.02143653105569"><ele>137.0</ele><time>2026-03-28T14:39:58Z</time></trkpt><trkpt lat="36.87961058781564" lon="15.021524243868782"><ele>137.0</ele><time>2026-03-28T14:40:00Z</time></trkpt><trkpt lat="36.87967879413282" lon="15.021577082379997"><ele>137.0</ele><time>2026-03-28T14:40:01Z</time></trkpt><trkpt lat="36.879750819209185" lon="15.021626052677703"><ele>137.0</ele><time>2026-03-28T14:40:02Z</time></trkpt><trkpt lat="36.879821891989224" lon="15.021681036705887"><ele>137.0</ele><time>2026-03-28T14:40:03Z</time></trkpt><trkpt lat="36.87992039086484" lon="15.021771341218088"><ele>137.0</ele><time>2026-03-28T14:40:05Z</time></trkpt><trkpt lat="36.880001936424414" lon="15.021826171544118"><ele>137.5</ele><time>2026-03-28T14:40:07Z</time></trkpt><trkpt lat="36.880102436304966" lon="15.02189690178098"><ele>138.0</ele><time>2026-03-28T14:40:09Z</time></trkpt><trkpt lat="36.880170961193315" lon="15.021945476010904"><ele>138.5</ele><time>2026-03-28T14:40:10Z</time></trkpt><trkpt lat="36.88026999421727" lon="15.02201647640836"><ele>139.0</ele><time>2026-03-28T14:40:12Z</time></trkpt><trkpt lat="36.88032279715634" lon="15.022061848388901"><ele>139.5</ele><time>2026-03-28T14:40:13Z</time></trkpt><trkpt lat="36.88037966990495" lon="15.022106340885161"><ele>140.0</ele><time>2026-03-28T14:40:13.999Z</time></trkpt><trkpt lat="36.880464418804024" lon="15.022177233568163"><ele>140.0</ele><time>2026-03-28T14:40:15.999Z</time></trkpt><trkpt lat="36.880536428480774" lon="15.022225855221818"><ele>140.0</ele><time>2026-03-28T14:40:17.999Z</time></trkpt><trkpt lat="36.88060605364558" lon="15.022301143724468"><ele>140.0</ele><time>2026-03-28T14:40:19.999Z</time></trkpt><trkpt lat="36.8807088143511" lon="15.022361512770955"><ele>140.0</ele><time>2026-03-28T14:40:21.999Z</time></trkpt><trkpt lat="36.8808187925062" lon="15.022419895636329"><ele>140.0</ele><time>2026-03-28T14:40:23.999Z</time></trkpt><trkpt lat="36.88090906611337" lon="15.022496872322282"><ele>140.33333333333331</ele><time>2026-03-28T14:40:25.999Z</time></trkpt><trkpt lat="36.88095584075144" lon="15.02255022663463"><ele>140.66666666666666</ele><time>2026-03-28T14:40:26.999Z</time></trkpt><trkpt lat="36.88105172311145" lon="15.022639884365535"><ele>141.0</ele><time>2026-03-28T14:40:28.999Z</time></trkpt><trkpt lat="36.88112255281758" lon="15.022719640832296"><ele>141.33333333333334</ele><time>2026-03-28T14:40:30.999Z</time></trkpt><trkpt lat="36.88117383723831" lon="15.022782012502075"><ele>141.66666666666669</ele><time>2026-03-28T14:40:31.999Z</time></trkpt><trkpt lat="36.881222969827974" lon="15.022841393684635"><ele>142.0</ele><time>2026-03-28T14:40:32.999Z</time></trkpt><trkpt lat="36.881269540248304" lon="15.022896226937059"><ele>142.0</ele><time>2026-03-28T14:40:33.999Z</time></trkpt><trkpt lat="36.88136049379279" lon="15.022994384649618"><ele>142.0</ele><time>2026-03-28T14:40:35.999Z</time></trkpt><trkpt lat="36.881412699799284" lon="15.023049838301569"><ele>142.0</ele><time>2026-03-28T14:40:36.999Z</time></trkpt><trkpt lat="36.8814788893067" lon="15.023095473485187"><ele>142.0</ele><time>2026-03-28T14:40:37.999Z</time></trkpt><trkpt lat="36.88153937021041" lon="15.023160823578804"><ele>142.0</ele><time>2026-03-28T14:40:38.999Z</time></trkpt><trkpt lat="36.88162663581404" lon="15.02326553353773"><ele>142.5</ele><time>2026-03-28T14:40:39.999Z</time></trkpt><trkpt lat="36.881728349752755" lon="15.023386768281846"><ele>143.0</ele><time>2026-03-28T14:40:40.999Z</time></trkpt><trkpt lat="36.88182704582737" lon="15.023486728440657"><ele>143.5</ele><time>2026-03-28T14:40:41.999Z</time></trkpt><trkpt lat="36.88191025110417" lon="15.023573307167021"><ele>144.0</ele><time>2026-03-28T14:40:42.999Z</time></trkpt><trkpt lat="36.88200082320689" lon="15.023642327570995"><ele>145.25</ele><time>2026-03-28T14:40:43.999Z</time></trkpt><trkpt lat="36.882109777821434" lon="15.023681544368715"><ele>146.5</ele><time>2026-03-28T14:40:44.999Z</time></trkpt><trkpt lat="36.88221803097614" lon="15.023733058602673"><ele>147.75</ele><time>2026-03-28T14:40:45.999Z</time></trkpt><trkpt lat="36.88233920205254" lon="15.02375358120608"><ele>149.0</ele><time>2026-03-28T14:40:46.999Z</time></trkpt><trkpt lat="36.88245976913386" lon="15.023788301496452"><ele>149.0</ele><time>2026-03-28T14:40:47.999Z</time></trkpt><trkpt lat="36.88256999820411" lon="15.02380514153508"><ele>149.0</ele><time>2026-03-28T14:40:48.999Z</time></trkpt><trkpt lat="36.882681078014144" lon="15.023790488950096"><ele>149.0</ele><time>2026-03-28T14:40:49.999Z</time></trkpt><trkpt lat="36.88281010473019" lon="15.023754984099368"><ele>149.0</ele><time>2026-03-28T14:40:51Z</time></trkpt><trkpt lat="36.88295139772256" lon="15.023733397736681"><ele>151.25</ele><time>2026-03-28T14:40:52Z</time></trkpt><trkpt lat="36.88307528582763" lon="15.02370628312795"><ele>153.5</ele><time>2026-03-28T14:40:53Z</time></trkpt><trkpt lat="36.88318494860986" lon="15.023671131170843"><ele>155.75</ele><time>2026-03-28T14:40:54Z</time></trkpt><trkpt lat="36.88328995833569" lon="15.023615466313746"><ele>158.0</ele><time>2026-03-28T14:40:55Z</time></trkpt><trkpt lat="36.88339451322908" lon="15.023582092748219"><ele>159.8</ele><time>2026-03-28T14:40:56Z</time></trkpt><trkpt lat="36.8834990656102" lon="15.023569342462997"><ele>161.60000000000002</ele><time>2026-03-28T14:40:57Z</time></trkpt><trkpt lat="36.883593559451874" lon="15.023580914325647"><ele>163.39999999999998</ele><time>2026-03-28T14:40:58Z</time></trkpt><trkpt lat="36.88368962831264" lon="15.023617886369657"><ele>165.2</ele><time>2026-03-28T14:40:59Z</time></trkpt><trkpt lat="36.88378814479168" lon="15.023691750555972"><ele>167.0</ele><time>2026-03-28T14:41:00Z</time></trkpt><trkpt lat="36.88389200736154" lon="15.023775622282468"><ele>167.0</ele><time>2026-03-28T14:41:01Z</time></trkpt><trkpt lat="36.88399478799725" lon="15.023852088692468"><ele>167.0</ele><time>2026-03-28T14:41:02Z</time></trkpt><trkpt lat="36.88408129721958" lon="15.023915017917602"><ele>167.0</ele><time>2026-03-28T14:41:03Z</time></trkpt><trkpt lat="36.884169212255614" lon="15.02398752204108"><ele>167.0</ele><time>2026-03-28T14:41:04Z</time></trkpt><trkpt lat="36.884245434425885" lon="15.024043849110166"><ele>167.0</ele><time>2026-03-28T14:41:05Z</time></trkpt><trkpt lat="36.884325801080855" lon="15.024085845969044"><ele>169.6</ele><time>2026-03-28T14:41:06Z</time></trkpt><trkpt lat="36.884417186491405" lon="15.024112544497852"><ele>172.2</ele><time>2026-03-28T14:41:07Z</time></trkpt><trkpt lat="36.884519456143906" lon="15.024118210729759"><ele>174.8</ele><time>2026-03-28T14:41:08Z</time></trkpt><trkpt lat="36.88462748637848" lon="15.024143065002368"><ele>177.4</ele><time>2026-03-28T14:41:09Z</time></trkpt><trkpt lat="36.884730195262996" lon="15.024146709858249"><ele>180.0</ele><time>2026-03-28T14:41:10Z</time></trkpt><trkpt lat="36.8847992237519" lon="15.024149159504384"><ele>180.0</ele><time>2026-03-28T14:41:11Z</time></trkpt><trkpt lat="36.884878359482464" lon="15.024137498070909"><ele>180.0</ele><time>2026-03-28T14:41:13Z</time></trkpt><trkpt lat="36.88491423648162" lon="15.023904463704627"><ele>180.0</ele><time>2026-03-28T14:42:22.999Z</time></trkpt><trkpt lat="36.88500368790721" lon="15.023818236971216"><ele>180.0</ele><time>2026-03-28T14:42:24.999Z</time></trkpt><trkpt lat="36.88506783238647" lon="15.023692315229813"><ele>180.0</ele><time>2026-03-28T14:42:26.999Z</time></trkpt><trkpt lat="36.885084819939216" lon="15.023550232061451"><ele>180.0</ele><time>2026-03-28T14:42:28.999Z</time></trkpt><trkpt lat="36.88507113018018" lon="15.023443890417102"><ele>180.0</ele><time>2026-03-28T14:42:29.999Z</time></trkpt><trkpt lat="36.8850594045331" lon="15.02334760687568"><ele>180.0</ele><time>2026-03-28T14:42:30.999Z</time></trkpt><trkpt lat="36.885048085235326" lon="15.023250538423309"><ele>180.0</ele><time>2026-03-28T14:42:31.999Z</time></trkpt><trkpt lat="36.88505607109049" lon="15.023163524575125"><ele>180.0</ele><time>2026-03-28T14:42:32.999Z</time></trkpt><trkpt lat="36.88504797405487" lon="15.023027167489127"><ele>180.2</ele><time>2026-03-28T14:42:34.999Z</time></trkpt><trkpt lat="36.88507267055524" lon="15.022933290578445"><ele>180.4</ele><time>2026-03-28T14:42:35.999Z</time></trkpt><trkpt lat="36.88511237503232" lon="15.022820873783635"><ele>180.60000000000002</ele><time>2026-03-28T14:42:36.999Z</time></trkpt><trkpt lat="36.88515872098095" lon="15.022710768816232"><ele>180.8</ele><time>2026-03-28T14:42:37.999Z</time></trkpt><trkpt lat="36.885216307142684" lon="15.022589082611361"><ele>181.0</ele><time>2026-03-28T14:42:38.999Z</time></trkpt><trkpt lat="36.885297072708056" lon="15.02242104616099"><ele>181.0</ele><time>2026-03-28T14:42:39.999Z</time></trkpt><trkpt lat="36.8853614351482" lon="15.022286547469447"><ele>181.0</ele><time>2026-03-28T14:42:40.999Z</time></trkpt><trkpt lat="36.885419376013644" lon="15.022169785020289"><ele>181.0</ele><time>2026-03-28T14:42:41.999Z</time></trkpt><trkpt lat="36.88548937833042" lon="15.022004719793898"><ele>181.0</ele><time>2026-03-28T14:42:42.999Z</time></trkpt><trkpt lat="36.88556454031176" lon="15.021833279372649"><ele>181.0</ele><time>2026-03-28T14:42:43.999Z</time></trkpt><trkpt lat="36.88564184523057" lon="15.021659385323412"><ele>181.0</ele><time>2026-03-28T14:42:44.999Z</time></trkpt><trkpt lat="36.88569237751759" lon="15.021478320618701"><ele>181.0</ele><time>2026-03-28T14:42:45.999Z</time></trkpt><trkpt lat="36.88576189482272" lon="15.021332898806847"><ele>181.0</ele><time>2026-03-28T14:42:46.999Z</time></trkpt><trkpt lat="36.88582472847826" lon="15.021213691597376"><ele>180.5</ele><time>2026-03-28T14:42:47.999Z</time></trkpt><trkpt lat="36.885877004879" lon="15.021102357961244"><ele>180.0</ele><time>2026-03-28T14:42:48.999Z</time></trkpt><trkpt lat="36.88591926173215" lon="15.021006481899025"><ele>179.5</ele><time>2026-03-28T14:42:49.999Z</time></trkpt><trkpt lat="36.88595304722755" lon="15.020926004400417"><ele>179.0</ele><time>2026-03-28T14:42:50.999Z</time></trkpt><trkpt lat="36.885980638028805" lon="15.02082531771735"><ele>178.5</ele><time>2026-03-28T14:42:51.999Z</time></trkpt><trkpt lat="36.886006188078845" lon="15.020721466431944"><ele>178.0</ele><time>2026-03-28T14:42:52.999Z</time></trkpt><trkpt lat="36.886029572033735" lon="15.020639930873811"><ele>176.83333333333334</ele><time>2026-03-28T14:42:53.999Z</time></trkpt><trkpt lat="36.88605820002673" lon="15.020561471896578"><ele>175.66666666666669</ele><time>2026-03-28T14:42:54.999Z</time></trkpt><trkpt lat="36.88610099652501" lon="15.02050317239943"><ele>174.5</ele><time>2026-03-28T14:42:55.999Z</time></trkpt><trkpt lat="36.88616331761128" lon="15.020456232143328"><ele>173.33333333333334</ele><time>2026-03-28T14:42:57Z</time></trkpt><trkpt lat="36.886239117899464" lon="15.020396965727402"><ele>172.16666666666666</ele><time>2026-03-28T14:42:58Z</time></trkpt><trkpt lat="36.88631577756683" lon="15.020346740133167"><ele>171.0</ele><time>2026-03-28T14:42:59Z</time></trkpt><trkpt lat="36.88639415783997" lon="15.02035195796862"><ele>171.0</ele><time>2026-03-28T14:43:00Z</time></trkpt><trkpt lat="36.8864641172381" lon="15.020322958947345"><ele>171.0</ele><time>2026-03-28T14:43:01Z</time></trkpt><trkpt lat="36.886533951230554" lon="15.02021126866597"><ele>171.0</ele><time>2026-03-28T14:43:03Z</time></trkpt><trkpt lat="36.88654119518226" lon="15.020120652680358"><ele>171.0</ele><time>2026-03-28T14:43:04Z</time></trkpt><trkpt lat="36.886521497688435" lon="15.020021564369795"><ele>171.0</ele><time>2026-03-28T14:43:05Z</time></trkpt><trkpt lat="36.886471325110385" lon="15.01991909910754"><ele>171.0</ele><time>2026-03-28T14:43:06Z</time></trkpt><trkpt lat="36.8863908132599" lon="15.019790504737228"><ele>170.20000000000002</ele><time>2026-03-28T14:43:07Z</time></trkpt><trkpt lat="36.88633272008851" lon="15.019661963986811"><ele>169.4</ele><time>2026-03-28T14:43:08Z</time></trkpt><trkpt lat="36.88627546509452" lon="15.019578571549607"><ele>168.6</ele><time>2026-03-28T14:43:09Z</time></trkpt><trkpt lat="36.88620246634751" lon="15.019488251077613"><ele>167.8</ele><time>2026-03-28T14:43:11Z</time></trkpt><trkpt lat="36.88624632450115" lon="15.019350858641822"><ele>167.0</ele><time>2026-03-28T14:43:13Z</time></trkpt><trkpt lat="36.886296884412914" lon="15.019227227314202"><ele>165.0</ele><time>2026-03-28T14:43:14Z</time></trkpt><trkpt lat="36.886361207604864" lon="15.019062941169414"><ele>163.0</ele><time>2026-03-28T14:43:15Z</time></trkpt><trkpt lat="36.886399441208845" lon="15.018911696371234"><ele>161.0</ele><time>2026-03-28T14:43:16Z</time></trkpt><trkpt lat="36.886452447893454" lon="15.018768465450975"><ele>159.0</ele><time>2026-03-28T14:43:17Z</time></trkpt><trkpt lat="36.88652454544806" lon="15.018634704400743"><ele>159.0</ele><time>2026-03-28T14:43:18Z</time></trkpt><trkpt lat="36.88656383036014" lon="15.01850164654355"><ele>159.0</ele><time>2026-03-28T14:43:19Z</time></trkpt><trkpt lat="36.886631460795485" lon="15.01837832438765"><ele>159.0</ele><time>2026-03-28T14:43:20Z</time></trkpt><trkpt lat="36.88671348429831" lon="15.018244772086268"><ele>159.0</ele><time>2026-03-28T14:43:21Z</time></trkpt><trkpt lat="36.88680948531187" lon="15.018098532858856"><ele>159.0</ele><time>2026-03-28T14:43:22Z</time></trkpt><trkpt lat="36.88689009854397" lon="15.017964381004504"><ele>159.0</ele><time>2026-03-28T14:43:23Z</time></trkpt><trkpt lat="36.886969123291856" lon="15.01782802156565"><ele>159.0</ele><time>2026-03-28T14:43:24Z</time></trkpt><trkpt lat="36.88705771489062" lon="15.017706802564227"><ele>159.0</ele><time>2026-03-28T14:43:25Z</time></trkpt><trkpt lat="36.88716020492139" lon="15.017602359241105"><ele>159.0</ele><time>2026-03-28T14:43:26Z</time></trkpt><trkpt lat="36.88726069123828" lon="15.017505099148352"><ele>159.0</ele><time>2026-03-28T14:43:27Z</time></trkpt><trkpt lat="36.887348222244796" lon="15.017396240461212"><ele>159.0</ele><time>2026-03-28T14:43:28Z</time></trkpt><trkpt lat="36.88744068103763" lon="15.017295719551342"><ele>159.0</ele><time>2026-03-28T14:43:29Z</time></trkpt><trkpt lat="36.88752491000522" lon="15.01721537244383"><ele>159.0</ele><time>2026-03-28T14:43:30Z</time></trkpt><trkpt lat="36.88759109943158" lon="15.017146429250358"><ele>159.0</ele><time>2026-03-28T14:43:31Z</time></trkpt><trkpt lat="36.88763594668152" lon="15.017083708713105"><ele>159.0</ele><time>2026-03-28T14:43:32Z</time></trkpt><trkpt lat="36.88763468343523" lon="15.016944204563549"><ele>159.0</ele><time>2026-03-28T14:43:34Z</time></trkpt><trkpt lat="36.887608126283" lon="15.016824177144514"><ele>159.0</ele><time>2026-03-28T14:43:35Z</time></trkpt><trkpt lat="36.88761586274641" lon="15.01670848427408"><ele>160.0</ele><time>2026-03-28T14:43:36Z</time></trkpt><trkpt lat="36.88761974598694" lon="15.016617815419227"><ele>161.0</ele><time>2026-03-28T14:43:37Z</time></trkpt><trkpt lat="36.88761364160451" lon="15.016518868651062"><ele>162.0</ele><time>2026-03-28T14:43:39Z</time></trkpt><trkpt lat="36.88761327051622" lon="15.016434564007588"><ele>163.0</ele><time>2026-03-28T14:43:44Z</time></trkpt><trkpt lat="36.887679042273405" lon="15.016421774610992"><ele>164.0</ele><time>2026-03-28T14:59:47Z</time></trkpt><trkpt lat="36.887569813435455" lon="15.01648246697884"><ele>165.0</ele><time>2026-03-28T14:59:49Z</time></trkpt><trkpt lat="36.887506171272676" lon="15.016518260306164"><ele>165.00000000000003</ele><time>2026-03-28T14:59:50Z</time></trkpt><trkpt lat="36.88743155207334" lon="15.016489426931944"><ele>165.0</ele><time>2026-03-28T14:59:51Z</time></trkpt><trkpt lat="36.88736206564298" lon="15.016515380521044"><ele>165.0</ele><time>2026-03-28T14:59:52Z</time></trkpt><trkpt lat="36.88729366874228" lon="15.016544724163085"><ele>165.0</ele><time>2026-03-28T14:59:53Z</time></trkpt><trkpt lat="36.887226656742264" lon="15.016573473721373"><ele>165.0</ele><time>2026-03-28T14:59:54Z</time></trkpt><trkpt lat="36.88715870578193" lon="15.016602625042937"><ele>165.00000000000003</ele><time>2026-03-28T14:59:55Z</time></trkpt><trkpt lat="36.88708929204009" lon="15.016614738979339"><ele>165.0</ele><time>2026-03-28T14:59:56Z</time></trkpt><trkpt lat="36.88699758112686" lon="15.016615848179274"><ele>165.0</ele><time>2026-03-28T14:59:57Z</time></trkpt><trkpt lat="36.886887786606415" lon="15.016580303111324"><ele>165.0</ele><time>2026-03-28T14:59:58Z</time></trkpt><trkpt lat="36.886775824828504" lon="15.016510813048935"><ele>165.0</ele><time>2026-03-28T14:59:59Z</time></trkpt><trkpt lat="36.886678940161616" lon="15.016434891628732"><ele>165.0</ele><time>2026-03-28T15:00:00Z</time></trkpt><trkpt lat="36.88660168220375" lon="15.01638100201635"><ele>165.0</ele><time>2026-03-28T15:00:01Z</time></trkpt><trkpt lat="36.88652623603623" lon="15.016321510478074"><ele>166.2</ele><time>2026-03-28T15:00:02Z</time></trkpt><trkpt lat="36.88643483429441" lon="15.016261926270772"><ele>167.4</ele><time>2026-03-28T15:00:03Z</time></trkpt><trkpt lat="36.88633747960668" lon="15.016265291973088"><ele>168.60000000000002</ele><time>2026-03-28T15:00:04Z</time></trkpt><trkpt lat="36.886239276613686" lon="15.016268508230873"><ele>169.8</ele><time>2026-03-28T15:00:05Z</time></trkpt><trkpt lat="36.88613322253731" lon="15.01624295310804"><ele>171.0</ele><time>2026-03-28T15:00:06Z</time></trkpt><trkpt lat="36.886015071548094" lon="15.01623304570128"><ele>169.75</ele><time>2026-03-28T15:00:07Z</time></trkpt><trkpt lat="36.885893490851934" lon="15.01621949913657"><ele>168.5</ele><time>2026-03-28T15:00:08Z</time></trkpt><trkpt lat="36.88576645118247" lon="15.016195098561944"><ele>167.25</ele><time>2026-03-28T15:00:09Z</time></trkpt><trkpt lat="36.88563349711101" lon="15.01616628954341"><ele>166.0</ele><time>2026-03-28T15:00:10Z</time></trkpt><trkpt lat="36.88547174068327" lon="15.016126496045322"><ele>166.0</ele><time>2026-03-28T15:00:11Z</time></trkpt><trkpt lat="36.88530483689123" lon="15.016080162321666"><ele>166.0</ele><time>2026-03-28T15:00:12Z</time></trkpt><trkpt lat="36.88515033223115" lon="15.016031370233657"><ele>166.0</ele><time>2026-03-28T15:00:13Z</time></trkpt><trkpt lat="36.88499892416635" lon="15.015980570371985"><ele>163.66666666666669</ele><time>2026-03-28T15:00:14Z</time></trkpt><trkpt lat="36.88484872193313" lon="15.015928232364816"><ele>161.33333333333334</ele><time>2026-03-28T15:00:15Z</time></trkpt><trkpt lat="36.88470733623121" lon="15.015878966434071"><ele>159.0</ele><time>2026-03-28T15:00:16Z</time></trkpt><trkpt lat="36.88456550993033" lon="15.015829156215402"><ele>159.0</ele><time>2026-03-28T15:00:17Z</time></trkpt><trkpt lat="36.88442634699113" lon="15.01577826727364"><ele>159.0</ele><time>2026-03-28T15:00:18Z</time></trkpt><trkpt lat="36.884279535232984" lon="15.01572357791788"><ele>159.0</ele><time>2026-03-28T15:00:19Z</time></trkpt><trkpt lat="36.88412148508332" lon="15.01565875076645"><ele>158.5</ele><time>2026-03-28T15:00:20Z</time></trkpt><trkpt lat="36.883977402931535" lon="15.015597622787784"><ele>158.0</ele><time>2026-03-28T15:00:21Z</time></trkpt><trkpt lat="36.88384227172897" lon="15.015538791370158"><ele>157.5</ele><time>2026-03-28T15:00:22Z</time></trkpt><trkpt lat="36.88371638771276" lon="15.015481846345299"><ele>157.0</ele><time>2026-03-28T15:00:23Z</time></trkpt><trkpt lat="36.88359689297968" lon="15.015425294658755"><ele>157.0</ele><time>2026-03-28T15:00:24Z</time></trkpt><trkpt lat="36.883479017001896" lon="15.015368670217963"><ele>157.0</ele><time>2026-03-28T15:00:25Z</time></trkpt><trkpt lat="36.883357838692255" lon="15.015312775234783"><ele>157.0</ele><time>2026-03-28T15:00:26Z</time></trkpt><trkpt lat="36.883238846335416" lon="15.01526133186588"><ele>157.0</ele><time>2026-03-28T15:00:27Z</time></trkpt><trkpt lat="36.88312765309479" lon="15.015208227488342"><ele>157.0</ele><time>2026-03-28T15:00:28Z</time></trkpt><trkpt lat="36.88303521762941" lon="15.015144648528324"><ele>157.0</ele><time>2026-03-28T15:00:29Z</time></trkpt><trkpt lat="36.882952292996485" lon="15.015076544688506"><ele>157.0</ele><time>2026-03-28T15:00:30Z</time></trkpt><trkpt lat="36.88286314645509" lon="15.014990994744924"><ele>157.0</ele><time>2026-03-28T15:00:31Z</time></trkpt><trkpt lat="36.88274498312204" lon="15.014922196845715"><ele>157.0</ele><time>2026-03-28T15:00:32Z</time></trkpt><trkpt lat="36.88259543098985" lon="15.014874286625853"><ele>157.5</ele><time>2026-03-28T15:00:33Z</time></trkpt><trkpt lat="36.88244629281681" lon="15.014833059835523"><ele>158.0</ele><time>2026-03-28T15:00:34Z</time></trkpt><trkpt lat="36.88229543018025" lon="15.014783811685247"><ele>158.5</ele><time>2026-03-28T15:00:35Z</time></trkpt><trkpt lat="36.882160579630664" lon="15.014735314683081"><ele>159.0</ele><time>2026-03-28T15:00:36Z</time></trkpt><trkpt lat="36.88202208898038" lon="15.014702582325237"><ele>159.0</ele><time>2026-03-28T15:00:37Z</time></trkpt><trkpt lat="36.8818892517968" lon="15.014647654670911"><ele>159.0</ele><time>2026-03-28T15:00:38Z</time></trkpt><trkpt lat="36.88174842300332" lon="15.014563737464897"><ele>159.0</ele><time>2026-03-28T15:00:39Z</time></trkpt><trkpt lat="36.8815785903711" lon="15.014491460466628"><ele>158.33333333333334</ele><time>2026-03-28T15:00:40Z</time></trkpt><trkpt lat="36.88142351852646" lon="15.014434117380928"><ele>157.66666666666669</ele><time>2026-03-28T15:00:41Z</time></trkpt><trkpt lat="36.881268426415126" lon="15.014383157797976"><ele>157.0</ele><time>2026-03-28T15:00:42Z</time></trkpt><trkpt lat="36.88110189587468" lon="15.014334687695655"><ele>157.0</ele><time>2026-03-28T15:00:43Z</time></trkpt><trkpt lat="36.8809308119508" lon="15.014294542032399"><ele>157.0</ele><time>2026-03-28T15:00:44Z</time></trkpt><trkpt lat="36.88075161747268" lon="15.014261597666188"><ele>157.0</ele><time>2026-03-28T15:00:45Z</time></trkpt><trkpt lat="36.880571784781004" lon="15.014228875720358"><ele>157.0</ele><time>2026-03-28T15:00:46Z</time></trkpt><trkpt lat="36.8803987929527" lon="15.014193581655112"><ele>157.0</ele><time>2026-03-28T15:00:47Z</time></trkpt><trkpt lat="36.88022635945047" lon="15.014163655400958"><ele>157.0</ele><time>2026-03-28T15:00:48Z</time></trkpt><trkpt lat="36.88005623631062" lon="15.014136775398072"><ele>159.66666666666669</ele><time>2026-03-28T15:00:49Z</time></trkpt><trkpt lat="36.879892926246356" lon="15.014110971891322"><ele>162.33333333333334</ele><time>2026-03-28T15:00:50Z</time></trkpt><trkpt lat="36.87973842535582" lon="15.014086561495134"><ele>165.0</ele><time>2026-03-28T15:00:51Z</time></trkpt><trkpt lat="36.879576843816096" lon="15.014061575469968"><ele>165.0</ele><time>2026-03-28T15:00:52Z</time></trkpt><trkpt lat="36.87940482179571" lon="15.014031356527713"><ele>165.0</ele><time>2026-03-28T15:00:53Z</time></trkpt><trkpt lat="36.87922637445591" lon="15.013980070495268"><ele>165.0</ele><time>2026-03-28T15:00:54Z</time></trkpt><trkpt lat="36.87904351953708" lon="15.013920298564447"><ele>166.0</ele><time>2026-03-28T15:00:55Z</time></trkpt><trkpt lat="36.87886054364145" lon="15.013868707458052"><ele>167.0</ele><time>2026-03-28T15:00:56Z</time></trkpt><trkpt lat="36.87867023338019" lon="15.013816340276742"><ele>168.0</ele><time>2026-03-28T15:00:57Z</time></trkpt><trkpt lat="36.87847899549439" lon="15.013764292999106"><ele>169.66666666666666</ele><time>2026-03-28T15:00:58Z</time></trkpt><trkpt lat="36.87828714218754" lon="15.013712115683811"><ele>171.33333333333331</ele><time>2026-03-28T15:00:59Z</time></trkpt><trkpt lat="36.87809664795676" lon="15.013659092462387"><ele>173.0</ele><time>2026-03-28T15:01:00Z</time></trkpt><trkpt lat="36.87791174051895" lon="15.013607112551583"><ele>173.0</ele><time>2026-03-28T15:01:01Z</time></trkpt><trkpt lat="36.87774182471334" lon="15.0135525794149"><ele>173.0</ele><time>2026-03-28T15:01:02Z</time></trkpt><trkpt lat="36.877595462604134" lon="15.013502250766772"><ele>173.0</ele><time>2026-03-28T15:01:03Z</time></trkpt><trkpt lat="36.877464891015094" lon="15.013454249371431"><ele>173.5</ele><time>2026-03-28T15:01:04Z</time></trkpt><trkpt lat="36.877355251711684" lon="15.013411864986997"><ele>174.0</ele><time>2026-03-28T15:01:05Z</time></trkpt><trkpt lat="36.87725996627483" lon="15.013373222807399"><ele>174.5</ele><time>2026-03-28T15:01:06Z</time></trkpt><trkpt lat="36.87718856802913" lon="15.01334381304952"><ele>175.0</ele><time>2026-03-28T15:01:07Z</time></trkpt><trkpt lat="36.877117731217794" lon="15.013314000445497"><ele>175.5</ele><time>2026-03-28T15:01:09Z</time></trkpt><trkpt lat="36.87704564907337" lon="15.013283663689336"><ele>176.0</ele><time>2026-03-28T15:01:22.999Z</time></trkpt><trkpt lat="36.87697384846048" lon="15.013253445476591"><ele>177.5</ele><time>2026-03-28T15:01:41.999Z</time></trkpt><trkpt lat="36.87690023002733" lon="15.013222462051429"><ele>179.0</ele><time>2026-03-28T15:01:43.999Z</time></trkpt><trkpt lat="36.87689074526325" lon="15.013124489150943"><ele>180.5</ele><time>2026-03-28T15:01:50Z</time></trkpt><trkpt lat="36.87694835091291" lon="15.013056003114327"><ele>182.0</ele><time>2026-03-28T15:01:52Z</time></trkpt><trkpt lat="36.87698290291481" lon="15.01297721366588"><ele>183.5</ele><time>2026-03-28T15:01:54Z</time></trkpt><trkpt lat="36.876974919981905" lon="15.012864518902791"><ele>185.0</ele><time>2026-03-28T15:02:07Z</time></trkpt><trkpt lat="36.87697417782473" lon="15.012760682420822"><ele>185.0</ele><time>2026-03-28T15:02:08Z</time></trkpt><trkpt lat="36.8769806285468" lon="15.012644883582979"><ele>185.0</ele><time>2026-03-28T15:02:10Z</time></trkpt><trkpt lat="36.87696010060188" lon="15.0125299039295"><ele>185.0</ele><time>2026-03-28T15:02:16Z</time></trkpt><trkpt lat="36.87696987324089" lon="15.012433676733512"><ele>185.0</ele><time>2026-03-28T15:02:18Z</time></trkpt><trkpt lat="36.87698058236951" lon="15.0123481647753"><ele>185.0</ele><time>2026-03-28T15:02:20Z</time></trkpt><trkpt lat="36.87700712273244" lon="15.012235537684324"><ele>185.0</ele><time>2026-03-28T15:02:22Z</time></trkpt><trkpt lat="36.87704708303984" lon="15.012110929451515"><ele>184.42857142857142</ele><time>2026-03-28T15:02:24Z</time></trkpt><trkpt lat="36.87706984650333" lon="15.012037508765985"><ele>183.85714285714286</ele><time>2026-03-28T15:02:25Z</time></trkpt><trkpt lat="36.87709601339764" lon="15.011963775001217"><ele>183.28571428571428</ele><time>2026-03-28T15:02:26Z</time></trkpt><trkpt lat="36.87713722067916" lon="15.011899933786431"><ele>182.71428571428572</ele><time>2026-03-28T15:02:27Z</time></trkpt><trkpt lat="36.87717687869637" lon="15.011837670942663"><ele>182.14285714285714</ele><time>2026-03-28T15:02:28Z</time></trkpt><trkpt lat="36.87721715344697" lon="15.011775783429647"><ele>181.57142857142856</ele><time>2026-03-28T15:02:29Z</time></trkpt><trkpt lat="36.87729355661537" lon="15.011663125150882"><ele>181.0</ele><time>2026-03-28T15:02:31Z</time></trkpt><trkpt lat="36.87737874480233" lon="15.011602065048974"><ele>181.16666666666669</ele><time>2026-03-28T15:02:33Z</time></trkpt><trkpt lat="36.87749621907152" lon="15.011553856693284"><ele>181.33333333333334</ele><time>2026-03-28T15:02:35Z</time></trkpt><trkpt lat="36.87756564642813" lon="15.01153183958548"><ele>181.5</ele><time>2026-03-28T15:02:36Z</time></trkpt><trkpt lat="36.8776366350137" lon="15.01150733856913"><ele>181.66666666666666</ele><time>2026-03-28T15:02:37Z</time></trkpt><trkpt lat="36.877715623253884" lon="15.01148369849348"><ele>181.83333333333331</ele><time>2026-03-28T15:02:38Z</time></trkpt><trkpt lat="36.87779169202598" lon="15.01147143719358"><ele>182.0</ele><time>2026-03-28T15:02:39Z</time></trkpt><trkpt lat="36.87786839131791" lon="15.011466183012331"><ele>182.0</ele><time>2026-03-28T15:02:40Z</time></trkpt><trkpt lat="36.87794315810528" lon="15.011452599702178"><ele>182.0</ele><time>2026-03-28T15:02:41Z</time></trkpt><trkpt lat="36.878018141671795" lon="15.011420443808559"><ele>182.0</ele><time>2026-03-28T15:02:42Z</time></trkpt><trkpt lat="36.878085138703796" lon="15.011370713818845"><ele>182.0</ele><time>2026-03-28T15:02:43Z</time></trkpt><trkpt lat="36.87814867776932" lon="15.011326669959312"><ele>182.0</ele><time>2026-03-28T15:02:44Z</time></trkpt><trkpt lat="36.87820913334128" lon="15.011273248627658"><ele>182.0</ele><time>2026-03-28T15:02:45Z</time></trkpt><trkpt lat="36.87827115893918" lon="15.011214249147995"><ele>182.0</ele><time>2026-03-28T15:02:46Z</time></trkpt><trkpt lat="36.878326044180255" lon="15.011152585056525"><ele>182.0</ele><time>2026-03-28T15:02:47Z</time></trkpt><trkpt lat="36.87836983215832" lon="15.011089304885676"><ele>182.0</ele><time>2026-03-28T15:02:48Z</time></trkpt><trkpt lat="36.8783996743363" lon="15.011012266390791"><ele>182.0</ele><time>2026-03-28T15:02:49Z</time></trkpt><trkpt lat="36.87842045787215" lon="15.010926111298959"><ele>182.0</ele><time>2026-03-28T15:02:50Z</time></trkpt><trkpt lat="36.87843072240987" lon="15.01083531875657"><ele>182.0</ele><time>2026-03-28T15:02:51Z</time></trkpt><trkpt lat="36.87843227203229" lon="15.010746269926182"><ele>182.0</ele><time>2026-03-28T15:02:52Z</time></trkpt><trkpt lat="36.878418203508986" lon="15.010574641387329"><ele>182.16666666666666</ele><time>2026-03-28T15:02:54Z</time></trkpt><trkpt lat="36.878397614099875" lon="15.010478301425564"><ele>182.33333333333331</ele><time>2026-03-28T15:02:55Z</time></trkpt><trkpt lat="36.87837891983599" lon="15.010381439315243"><ele>182.5</ele><time>2026-03-28T15:02:56Z</time></trkpt><trkpt lat="36.8783557911761" lon="15.010296157364857"><ele>182.66666666666666</ele><time>2026-03-28T15:02:57Z</time></trkpt><trkpt lat="36.87831570034301" lon="15.010212962974899"><ele>182.83333333333334</ele><time>2026-03-28T15:02:58Z</time></trkpt><trkpt lat="36.8782732241774" lon="15.010131300916"><ele>183.0</ele><time>2026-03-28T15:02:59Z</time></trkpt><trkpt lat="36.87823039127416" lon="15.010046601192016"><ele>182.5</ele><time>2026-03-28T15:03:00Z</time></trkpt><trkpt lat="36.87818623124593" lon="15.009964575767567"><ele>182.0</ele><time>2026-03-28T15:03:01Z</time></trkpt><trkpt lat="36.87812957516933" lon="15.009902783569459"><ele>181.5</ele><time>2026-03-28T15:03:02Z</time></trkpt><trkpt lat="36.87806283386894" lon="15.00980027219074"><ele>181.0</ele><time>2026-03-28T15:03:04Z</time></trkpt><trkpt lat="36.87800535287043" lon="15.00973482710463"><ele>180.5</ele><time>2026-03-28T15:03:06Z</time></trkpt><trkpt lat="36.87797935124378" lon="15.009601406970942"><ele>180.0</ele><time>2026-03-28T15:03:08Z</time></trkpt><trkpt lat="36.877973183060796" lon="15.009500371982586"><ele>180.0</ele><time>2026-03-28T15:03:09Z</time></trkpt><trkpt lat="36.877920682197484" lon="15.009413462876898"><ele>180.0</ele><time>2026-03-28T15:03:10Z</time></trkpt><trkpt lat="36.87788038786599" lon="15.009332290593617"><ele>180.0</ele><time>2026-03-28T15:03:11Z</time></trkpt><trkpt lat="36.87784104773775" lon="15.009207597384648"><ele>180.0</ele><time>2026-03-28T15:03:13Z</time></trkpt><trkpt lat="36.87788509273996" lon="15.009092229897139"><ele>180.0</ele><time>2026-03-28T15:03:16Z</time></trkpt><trkpt lat="36.87794813708114" lon="15.009056678825715"><ele>180.0</ele><time>2026-03-28T15:03:17.999Z</time></trkpt><trkpt lat="36.8780659260727" lon="15.009008773986286"><ele>177.66666666666666</ele><time>2026-03-28T15:03:19.999Z</time></trkpt><trkpt lat="36.87812946881456" lon="15.008976652193724"><ele>175.33333333333334</ele><time>2026-03-28T15:03:20.999Z</time></trkpt><trkpt lat="36.87819505262107" lon="15.008936161935031"><ele>173.0</ele><time>2026-03-28T15:03:21.999Z</time></trkpt><trkpt lat="36.878270296834906" lon="15.008894172654482"><ele>170.66666666666669</ele><time>2026-03-28T15:03:22.999Z</time></trkpt><trkpt lat="36.87834209916631" lon="15.00885749379463"><ele>168.33333333333334</ele><time>2026-03-28T15:03:23.999Z</time></trkpt><trkpt lat="36.87844463523963" lon="15.008817088593384"><ele>166.0</ele><time>2026-03-28T15:03:25.999Z</time></trkpt><trkpt lat="36.87854060710906" lon="15.008777972716974"><ele>166.0</ele><time>2026-03-28T15:03:27.999Z</time></trkpt><trkpt lat="36.87864525837976" lon="15.008697314262259"><ele>166.0</ele><time>2026-03-28T15:03:29.999Z</time></trkpt><trkpt lat="36.87869315069655" lon="15.008633335954555"><ele>166.0</ele><time>2026-03-28T15:03:30.999Z</time></trkpt><trkpt lat="36.87872819074743" lon="15.008559886440246"><ele>166.0</ele><time>2026-03-28T15:03:31.999Z</time></trkpt><trkpt lat="36.87880207712794" lon="15.00845912327543"><ele>166.0</ele><time>2026-03-28T15:03:33.999Z</time></trkpt><trkpt lat="36.87888741586558" lon="15.008400063512571"><ele>166.0</ele><time>2026-03-28T15:03:35.999Z</time></trkpt><trkpt lat="36.87895270840056" lon="15.00838755460124"><ele>166.0</ele><time>2026-03-28T15:03:36.999Z</time></trkpt><trkpt lat="36.879028125726514" lon="15.008383821305687"><ele>166.0</ele><time>2026-03-28T15:03:37.999Z</time></trkpt><trkpt lat="36.879145451071686" lon="15.008365739889111"><ele>166.0</ele><time>2026-03-28T15:03:39.999Z</time></trkpt><trkpt lat="36.87922664742479" lon="15.008259532935158"><ele>166.0</ele><time>2026-03-28T15:03:41.999Z</time></trkpt><trkpt lat="36.87926821455251" lon="15.008195627776546"><ele>166.0</ele><time>2026-03-28T15:03:42.999Z</time></trkpt><trkpt lat="36.87931562206015" lon="15.008134893980577"><ele>163.83333333333334</ele><time>2026-03-28T15:03:43.999Z</time></trkpt><trkpt lat="36.87936670064135" lon="15.008069166582802"><ele>161.66666666666669</ele><time>2026-03-28T15:03:44.999Z</time></trkpt><trkpt lat="36.87941550194388" lon="15.008012543610018"><ele>159.5</ele><time>2026-03-28T15:03:45.999Z</time></trkpt><trkpt lat="36.87946539369311" lon="15.00795843578106"><ele>157.33333333333334</ele><time>2026-03-28T15:03:46.999Z</time></trkpt><trkpt lat="36.879556695906935" lon="15.007848337974385"><ele>155.16666666666666</ele><time>2026-03-28T15:03:48.999Z</time></trkpt><trkpt lat="36.879600447531956" lon="15.007787741163192"><ele>153.0</ele><time>2026-03-28T15:03:49.999Z</time></trkpt><trkpt lat="36.879645680633885" lon="15.007731160781287"><ele>153.0</ele><time>2026-03-28T15:03:50.999Z</time></trkpt><trkpt lat="36.879723244613196" lon="15.00765987014981"><ele>153.0</ele><time>2026-03-28T15:03:52.999Z</time></trkpt><trkpt lat="36.87978210543339" lon="15.007588055487584"><ele>153.0</ele><time>2026-03-28T15:03:55Z</time></trkpt><trkpt lat="36.87979799835162" lon="15.007505481470417"><ele>153.0</ele><time>2026-03-28T15:03:58Z</time></trkpt><trkpt lat="36.87973841223062" lon="15.007444911764184"><ele>153.0</ele><time>2026-03-28T15:04:00Z</time></trkpt><trkpt lat="36.87961514133364" lon="15.007445259405227"><ele>153.0</ele><time>2026-03-28T15:04:02Z</time></trkpt><trkpt lat="36.879529834267814" lon="15.007340922408265"><ele>151.33333333333334</ele><time>2026-03-28T15:04:04Z</time></trkpt><trkpt lat="36.8794799541388" lon="15.00728920649514"><ele>149.66666666666666</ele><time>2026-03-28T15:04:05Z</time></trkpt><trkpt lat="36.879371825529354" lon="15.007207318632974"><ele>148.0</ele><time>2026-03-28T15:04:07Z</time></trkpt><trkpt lat="36.87931013649933" lon="15.007183402425309"><ele>146.33333333333331</ele><time>2026-03-28T15:04:08Z</time></trkpt><trkpt lat="36.879257577170335" lon="15.007135583047589"><ele>144.66666666666666</ele><time>2026-03-28T15:04:09Z</time></trkpt><trkpt lat="36.87919629319661" lon="15.007100918918866"><ele>143.0</ele><time>2026-03-28T15:04:10Z</time></trkpt><trkpt lat="36.87912735956286" lon="15.007067307086256"><ele>141.16666666666666</ele><time>2026-03-28T15:04:11Z</time></trkpt><trkpt lat="36.8790426879237" lon="15.007037235346859"><ele>139.33333333333331</ele><time>2026-03-28T15:04:12Z</time></trkpt><trkpt lat="36.87895342542434" lon="15.007019230407828"><ele>137.5</ele><time>2026-03-28T15:04:13Z</time></trkpt><trkpt lat="36.878882039520846" lon="15.006961876244429"><ele>135.66666666666666</ele><time>2026-03-28T15:04:14Z</time></trkpt><trkpt lat="36.87881104309751" lon="15.0068950036529"><ele>133.83333333333334</ele><time>2026-03-28T15:04:15Z</time></trkpt><trkpt lat="36.8787478900423" lon="15.006815957224948"><ele>132.0</ele><time>2026-03-28T15:04:16Z</time></trkpt><trkpt lat="36.87867439256627" lon="15.006759871937572"><ele>132.0</ele><time>2026-03-28T15:04:17Z</time></trkpt><trkpt lat="36.87859104762549" lon="15.006714756109439"><ele>132.0</ele><time>2026-03-28T15:04:18Z</time></trkpt><trkpt lat="36.87851250637186" lon="15.006673033222748"><ele>132.0</ele><time>2026-03-28T15:04:19Z</time></trkpt><trkpt lat="36.878439242533005" lon="15.006636923020304"><ele>132.0</ele><time>2026-03-28T15:04:20Z</time></trkpt><trkpt lat="36.87836918946363" lon="15.00660257443096"><ele>132.0</ele><time>2026-03-28T15:04:21Z</time></trkpt><trkpt lat="36.87828932203898" lon="15.006569194441276"><ele>132.0</ele><time>2026-03-28T15:04:22Z</time></trkpt><trkpt lat="36.87820333324146" lon="15.006540246496659"><ele>130.71428571428572</ele><time>2026-03-28T15:04:23Z</time></trkpt><trkpt lat="36.87813037159872" lon="15.006528698533028"><ele>129.42857142857144</ele><time>2026-03-28T15:04:24Z</time></trkpt><trkpt lat="36.8780611555516" lon="15.006506759852407"><ele>128.14285714285717</ele><time>2026-03-28T15:04:25Z</time></trkpt><trkpt lat="36.87799920098803" lon="15.006476536377944"><ele>126.85714285714286</ele><time>2026-03-28T15:04:26Z</time></trkpt><trkpt lat="36.87793553570745" lon="15.006440232516306"><ele>125.57142857142858</ele><time>2026-03-28T15:04:27Z</time></trkpt><trkpt lat="36.877868552366586" lon="15.00640593076224"><ele>124.2857142857143</ele><time>2026-03-28T15:04:28Z</time></trkpt><trkpt lat="36.87780199750598" lon="15.006380075840587"><ele>123.00000000000001</ele><time>2026-03-28T15:04:29Z</time></trkpt><trkpt lat="36.87775026517999" lon="15.00632518360113"><ele>123.0</ele><time>2026-03-28T15:04:30Z</time></trkpt><trkpt lat="36.87770147849181" lon="15.006273228292063"><ele>123.0</ele><time>2026-03-28T15:04:31Z</time></trkpt><trkpt lat="36.87763738833148" lon="15.006213983282914"><ele>123.0</ele><time>2026-03-28T15:04:32Z</time></trkpt><trkpt lat="36.8775758444428" lon="15.00615806867865"><ele>123.0</ele><time>2026-03-28T15:04:33Z</time></trkpt><trkpt lat="36.877520844659955" lon="15.006112928888847"><ele>123.0</ele><time>2026-03-28T15:04:34Z</time></trkpt><trkpt lat="36.87741599679251" lon="15.006039974052285"><ele>123.0</ele><time>2026-03-28T15:04:36Z</time></trkpt><trkpt lat="36.87728722975741" lon="15.005967432826699"><ele>121.80000000000001</ele><time>2026-03-28T15:04:38Z</time></trkpt><trkpt lat="36.87722238220079" lon="15.005930715976575"><ele>120.60000000000001</ele><time>2026-03-28T15:04:39Z</time></trkpt><trkpt lat="36.877165422327316" lon="15.005897069961147"><ele>119.39999999999999</ele><time>2026-03-28T15:04:40Z</time></trkpt><trkpt lat="36.87706418380759" lon="15.005818484041457"><ele>118.19999999999999</ele><time>2026-03-28T15:04:42Z</time></trkpt><trkpt lat="36.876967084608864" lon="15.005742350482146"><ele>117.0</ele><time>2026-03-28T15:04:44Z</time></trkpt><trkpt lat="36.876902187298505" lon="15.005637462935423"><ele>117.0</ele><time>2026-03-28T15:04:46Z</time></trkpt><trkpt lat="36.87683656359849" lon="15.00555822261297"><ele>116.99999999999999</ele><time>2026-03-28T15:04:48Z</time></trkpt><trkpt lat="36.87679751521848" lon="15.005482882550051"><ele>116.99999999999999</ele><time>2026-03-28T15:04:54Z</time></trkpt><trkpt lat="36.876907582421865" lon="15.005322189070633"><ele>117.0</ele><time>2026-03-28T15:04:59Z</time></trkpt><trkpt lat="36.87699078904515" lon="15.005234491597792"><ele>117.0</ele><time>2026-03-28T15:05:01Z</time></trkpt><trkpt lat="36.87708811471196" lon="15.005151207205076"><ele>117.0</ele><time>2026-03-28T15:05:03Z</time></trkpt><trkpt lat="36.87715124587363" lon="15.00511959658934"><ele>117.00000000000001</ele><time>2026-03-28T15:05:04Z</time></trkpt><trkpt lat="36.87721282911588" lon="15.005096809478806"><ele>117.0</ele><time>2026-03-28T15:05:05Z</time></trkpt><trkpt lat="36.87727977201673" lon="15.005079821588952"><ele>117.0</ele><time>2026-03-28T15:05:06Z</time></trkpt><trkpt lat="36.87734870814913" lon="15.005062986480509"><ele>117.00000000000001</ele><time>2026-03-28T15:05:07Z</time></trkpt><trkpt lat="36.877417548071286" lon="15.005024941863203"><ele>117.0</ele><time>2026-03-28T15:05:08Z</time></trkpt><trkpt lat="36.877483318486696" lon="15.004978204024438"><ele>117.0</ele><time>2026-03-28T15:05:09Z</time></trkpt><trkpt lat="36.87754731013693" lon="15.004919326300435"><ele>117.33333333333333</ele><time>2026-03-28T15:05:10Z</time></trkpt><trkpt lat="36.877613254478334" lon="15.004845017565653"><ele>117.66666666666666</ele><time>2026-03-28T15:05:11Z</time></trkpt><trkpt lat="36.8776751353872" lon="15.00479577553108"><ele>118.0</ele><time>2026-03-28T15:05:12Z</time></trkpt><trkpt lat="36.877731814679606" lon="15.004739992662559"><ele>118.33333333333333</ele><time>2026-03-28T15:05:13Z</time></trkpt><trkpt lat="36.87778935881007" lon="15.004683761368494"><ele>118.66666666666666</ele><time>2026-03-28T15:05:14Z</time></trkpt><trkpt lat="36.87785364811667" lon="15.004653833079571"><ele>119.0</ele><time>2026-03-28T15:05:15Z</time></trkpt><trkpt lat="36.87792144233088" lon="15.004613587909988"><ele>118.99999999999999</ele><time>2026-03-28T15:05:16Z</time></trkpt><trkpt lat="36.8779811234121" lon="15.00457466393849"><ele>119.0</ele><time>2026-03-28T15:05:17Z</time></trkpt><trkpt lat="36.87805121060845" lon="15.004542275507271"><ele>119.0</ele><time>2026-03-28T15:05:18Z</time></trkpt><trkpt lat="36.878124903828656" lon="15.004509738492413"><ele>119.0</ele><time>2026-03-28T15:05:19Z</time></trkpt><trkpt lat="36.87820161630111" lon="15.00447560353461"><ele>118.99999999999999</ele><time>2026-03-28T15:05:20Z</time></trkpt><trkpt lat="36.87826696874357" lon="15.004433247402625"><ele>119.0</ele><time>2026-03-28T15:05:21Z</time></trkpt><trkpt lat="36.87833670745205" lon="15.004372793571948"><ele>118.99999999999999</ele><time>2026-03-28T15:05:22Z</time></trkpt><trkpt lat="36.87841206933072" lon="15.004340712513827"><ele>119.0</ele><time>2026-03-28T15:05:23Z</time></trkpt><trkpt lat="36.87849818693301" lon="15.004311915272435"><ele>119.0</ele><time>2026-03-28T15:05:23.999Z</time></trkpt><trkpt lat="36.878585933800395" lon="15.004286211243384"><ele>119.0</ele><time>2026-03-28T15:05:24.999Z</time></trkpt><trkpt lat="36.87867864130628" lon="15.004274016597632"><ele>118.99999999999999</ele><time>2026-03-28T15:05:25.999Z</time></trkpt><trkpt lat="36.87876968867969" lon="15.004284318065462"><ele>119.0</ele><time>2026-03-28T15:05:26.999Z</time></trkpt><trkpt lat="36.87885545389867" lon="15.004282681136191"><ele>119.66666666666666</ele><time>2026-03-28T15:05:27.999Z</time></trkpt><trkpt lat="36.878930185161984" lon="15.004263924564041"><ele>120.33333333333333</ele><time>2026-03-28T15:05:28.999Z</time></trkpt><trkpt lat="36.87899187261342" lon="15.004234704819643"><ele>121.0</ele><time>2026-03-28T15:05:29.999Z</time></trkpt><trkpt lat="36.879041726228074" lon="15.004179286814797"><ele>121.66666666666666</ele><time>2026-03-28T15:05:30.999Z</time></trkpt><trkpt lat="36.87909654122707" lon="15.004099403287528"><ele>122.33333333333333</ele><time>2026-03-28T15:05:31.999Z</time></trkpt><trkpt lat="36.87914952809153" lon="15.004006729417666"><ele>123.0</ele><time>2026-03-28T15:05:32.999Z</time></trkpt><trkpt lat="36.87918869603803" lon="15.003920308524929"><ele>123.0</ele><time>2026-03-28T15:05:33.999Z</time></trkpt><trkpt lat="36.87922742801926" lon="15.003843012461013"><ele>123.0</ele><time>2026-03-28T15:05:34.999Z</time></trkpt><trkpt lat="36.87928173249262" lon="15.00378204181397"><ele>123.0</ele><time>2026-03-28T15:05:35.999Z</time></trkpt><trkpt lat="36.879350262387526" lon="15.003728305097857"><ele>123.0</ele><time>2026-03-28T15:05:36.999Z</time></trkpt><trkpt lat="36.87942432427285" lon="15.003677535321495"><ele>123.0</ele><time>2026-03-28T15:05:37.999Z</time></trkpt><trkpt lat="36.87950456053168" lon="15.00365042878747"><ele>123.0</ele><time>2026-03-28T15:05:38.999Z</time></trkpt><trkpt lat="36.879574586774154" lon="15.00363370191779"><ele>124.0</ele><time>2026-03-28T15:05:39.999Z</time></trkpt><trkpt lat="36.879641772756315" lon="15.003626077381131"><ele>125.0</ele><time>2026-03-28T15:05:40.999Z</time></trkpt><trkpt lat="36.879717011236885" lon="15.003605245342525"><ele>126.0</ele><time>2026-03-28T15:05:41.999Z</time></trkpt><trkpt lat="36.879799864345934" lon="15.003550067547621"><ele>127.0</ele><time>2026-03-28T15:05:42.999Z</time></trkpt><trkpt lat="36.87988588390127" lon="15.003517804010494"><ele>128.0</ele><time>2026-03-28T15:05:43.999Z</time></trkpt><trkpt lat="36.879967265629425" lon="15.003503723954356"><ele>129.0</ele><time>2026-03-28T15:05:44.999Z</time></trkpt><trkpt lat="36.88004098225417" lon="15.003485758114989"><ele>129.66666666666666</ele><time>2026-03-28T15:05:45.999Z</time></trkpt><trkpt lat="36.88011517231686" lon="15.003478428005673"><ele>130.33333333333334</ele><time>2026-03-28T15:05:46.999Z</time></trkpt><trkpt lat="36.88018315088439" lon="15.003499371419958"><ele>131.0</ele><time>2026-03-28T15:05:47.999Z</time></trkpt><trkpt lat="36.880262329808254" lon="15.003526171230959"><ele>131.66666666666669</ele><time>2026-03-28T15:05:48.999Z</time></trkpt><trkpt lat="36.880340294479424" lon="15.003561547484859"><ele>132.33333333333334</ele><time>2026-03-28T15:05:49.999Z</time></trkpt><trkpt lat="36.880426059946075" lon="15.00359236852232"><ele>133.0</ele><time>2026-03-28T15:05:50.999Z</time></trkpt><trkpt lat="36.88051442160542" lon="15.00361313445441"><ele>133.0</ele><time>2026-03-28T15:05:51.999Z</time></trkpt><trkpt lat="36.88060106953099" lon="15.0036268061471"><ele>133.0</ele><time>2026-03-28T15:05:52.999Z</time></trkpt><trkpt lat="36.880688178755854" lon="15.003631341098233"><ele>133.0</ele><time>2026-03-28T15:05:53.999Z</time></trkpt><trkpt lat="36.88076381653808" lon="15.003638762596514"><ele>133.0</ele><time>2026-03-28T15:05:54.999Z</time></trkpt><trkpt lat="36.88083252173758" lon="15.003644943700191"><ele>133.0</ele><time>2026-03-28T15:05:55.999Z</time></trkpt><trkpt lat="36.88089950347257" lon="15.003625641437834"><ele>133.0</ele><time>2026-03-28T15:05:56.999Z</time></trkpt><trkpt lat="36.88097139169856" lon="15.003591159668055"><ele>133.0</ele><time>2026-03-28T15:05:57.999Z</time></trkpt><trkpt lat="36.88104674079074" lon="15.003560626082546"><ele>133.0</ele><time>2026-03-28T15:05:58.999Z</time></trkpt><trkpt lat="36.88111789345276" lon="15.003540179723478"><ele>133.0</ele><time>2026-03-28T15:05:59.999Z</time></trkpt><trkpt lat="36.88120411227674" lon="15.003500185243647"><ele>133.0</ele><time>2026-03-28T15:06:02Z</time></trkpt><trkpt lat="36.88126338160044" lon="15.003461524110987"><ele>133.0</ele><time>2026-03-28T15:06:07Z</time></trkpt><trkpt lat="36.88132479674548" lon="15.00343458846655"><ele>133.0</ele><time>2026-03-28T15:06:24Z</time></trkpt><trkpt lat="36.881389141681744" lon="15.003381046595898"><ele>134.8</ele><time>2026-03-28T15:06:28Z</time></trkpt><trkpt lat="36.881509270245274" lon="15.003321960224405"><ele>136.60000000000002</ele><time>2026-03-28T15:06:39Z</time></trkpt><trkpt lat="36.88157807839514" lon="15.003293553660763"><ele>138.39999999999998</ele><time>2026-03-28T15:06:40Z</time></trkpt><trkpt lat="36.88166875062169" lon="15.003262518639216"><ele>140.2</ele><time>2026-03-28T15:06:41Z</time></trkpt><trkpt lat="36.88174167604025" lon="15.003226029208175"><ele>142.0</ele><time>2026-03-28T15:06:42Z</time></trkpt><trkpt lat="36.8818165341672" lon="15.003141043698243"><ele>142.0</ele><time>2026-03-28T15:06:44Z</time></trkpt><trkpt lat="36.88190797494886" lon="15.003078726224594"><ele>142.0</ele><time>2026-03-28T15:06:46Z</time></trkpt><trkpt lat="36.88200206864999" lon="15.003068549234696"><ele>142.0</ele><time>2026-03-28T15:06:48Z</time></trkpt><trkpt lat="36.88211382685793" lon="15.003093092722443"><ele>142.0</ele><time>2026-03-28T15:06:50Z</time></trkpt><trkpt lat="36.88220863391024" lon="15.003070428494976"><ele>142.0</ele><time>2026-03-28T15:06:52Z</time></trkpt><trkpt lat="36.88228595056849" lon="15.003061482182112"><ele>142.0</ele><time>2026-03-28T15:06:54Z</time></trkpt><trkpt lat="36.88235135271801" lon="15.003066140015221"><ele>142.0</ele><time>2026-03-28T15:07:28.999Z</time></trkpt><trkpt lat="36.88241451524309" lon="15.003136820034712"><ele>142.0</ele><time>2026-03-28T15:07:34.999Z</time></trkpt><trkpt lat="36.88248059825289" lon="15.003176515010528"><ele>142.0</ele><time>2026-03-28T15:07:36.999Z</time></trkpt><trkpt lat="36.882553680989254" lon="15.00322131141776"><ele>142.0</ele><time>2026-03-28T15:07:38.999Z</time></trkpt><trkpt lat="36.88264560778092" lon="15.003313673073356"><ele>142.0</ele><time>2026-03-28T15:07:40.999Z</time></trkpt><trkpt lat="36.88270991930608" lon="15.003339342221643"><ele>143.16666666666669</ele><time>2026-03-28T15:07:41.999Z</time></trkpt><trkpt lat="36.88278079084461" lon="15.003345571903873"><ele>144.33333333333334</ele><time>2026-03-28T15:07:42.999Z</time></trkpt><trkpt lat="36.88285294575722" lon="15.003323636734448"><ele>145.5</ele><time>2026-03-28T15:07:43.999Z</time></trkpt><trkpt lat="36.88292675900288" lon="15.003298175729055"><ele>146.66666666666666</ele><time>2026-03-28T15:07:44.999Z</time></trkpt><trkpt lat="36.88301863536905" lon="15.003320511142508"><ele>147.83333333333331</ele><time>2026-03-28T15:07:46.999Z</time></trkpt><trkpt lat="36.8830850432789" lon="15.003313822356606"><ele>149.0</ele><time>2026-03-28T15:07:47.999Z</time></trkpt><trkpt lat="36.883152061651295" lon="15.003334234883882"><ele>149.83333333333331</ele><time>2026-03-28T15:07:48.999Z</time></trkpt><trkpt lat="36.883216111551405" lon="15.003380556275319"><ele>150.66666666666666</ele><time>2026-03-28T15:07:49.999Z</time></trkpt><trkpt lat="36.883283836111296" lon="15.003411003674685"><ele>151.5</ele><time>2026-03-28T15:07:50.999Z</time></trkpt><trkpt lat="36.88335157122139" lon="15.003483990988613"><ele>152.33333333333334</ele><time>2026-03-28T15:07:52.999Z</time></trkpt><trkpt lat="36.883424883257405" lon="15.003556779839933"><ele>153.16666666666669</ele><time>2026-03-28T15:07:54.999Z</time></trkpt><trkpt lat="36.88347710378932" lon="15.003615609233018"><ele>154.0</ele><time>2026-03-28T15:07:56.999Z</time></trkpt><trkpt lat="36.88353943214707" lon="15.003688945257478"><ele>156.14285714285714</ele><time>2026-03-28T15:07:58.999Z</time></trkpt><trkpt lat="36.88356540299335" lon="15.00376314217409"><ele>158.28571428571428</ele><time>2026-03-28T15:07:59.999Z</time></trkpt><trkpt lat="36.88361329053153" lon="15.003864808255017"><ele>160.42857142857144</ele><time>2026-03-28T15:08:01.999Z</time></trkpt><trkpt lat="36.88366780099476" lon="15.003930546978632"><ele>162.57142857142856</ele><time>2026-03-28T15:08:03.999Z</time></trkpt><trkpt lat="36.88373529068502" lon="15.00398920941916"><ele>164.71428571428572</ele><time>2026-03-28T15:08:07Z</time></trkpt><trkpt lat="36.883779969452924" lon="15.003932767331433"><ele>166.85714285714286</ele><time>2026-03-28T15:08:10Z</time></trkpt><trkpt lat="36.883812637627734" lon="15.00386293323938"><ele>169.0</ele><time>2026-03-28T15:08:25Z</time></trkpt><trkpt lat="36.88383735749709" lon="15.003785848877342"><ele>169.0</ele><time>2026-03-28T15:08:28Z</time></trkpt><trkpt lat="36.883874602749785" lon="15.003672514072072"><ele>169.0</ele><time>2026-03-28T15:08:31Z</time></trkpt><trkpt lat="36.88391476843858" lon="15.003590352694332"><ele>169.0</ele><time>2026-03-28T15:08:33Z</time></trkpt><trkpt lat="36.883973213926126" lon="15.003557263861605"><ele>169.0</ele><time>2026-03-28T15:08:35Z</time></trkpt><trkpt lat="36.88402166321482" lon="15.003493914060561"><ele>169.0</ele><time>2026-03-28T15:08:37Z</time></trkpt><trkpt lat="36.88405840597341" lon="15.003416093755943"><ele>169.0</ele><time>2026-03-28T15:08:39Z</time></trkpt><trkpt lat="36.88411133327527" lon="15.00337167072507"><ele>169.0</ele><time>2026-03-28T15:08:41Z</time></trkpt><trkpt lat="36.884178276204246" lon="15.00331174439703"><ele>171.6</ele><time>2026-03-28T15:08:43Z</time></trkpt><trkpt lat="36.88426366037604" lon="15.00326296077429"><ele>174.2</ele><time>2026-03-28T15:08:45Z</time></trkpt><trkpt lat="36.88434896801828" lon="15.00323271263385"><ele>176.79999999999998</ele><time>2026-03-28T15:08:47Z</time></trkpt><trkpt lat="36.88443861733154" lon="15.003206696934532"><ele>179.39999999999998</ele><time>2026-03-28T15:08:49Z</time></trkpt><trkpt lat="36.88452676153146" lon="15.003222222170848"><ele>182.0</ele><time>2026-03-28T15:08:51Z</time></trkpt><trkpt lat="36.884629176899374" lon="15.003243992507105"><ele>182.0</ele><time>2026-03-28T15:08:53Z</time></trkpt><trkpt lat="36.88471267461637" lon="15.003263277511886"><ele>182.0</ele><time>2026-03-28T15:08:55Z</time></trkpt><trkpt lat="36.88480515985454" lon="15.003269910156893"><ele>182.0</ele><time>2026-03-28T15:08:57Z</time></trkpt><trkpt lat="36.884903931937366" lon="15.003286051914587"><ele>182.0</ele><time>2026-03-28T15:08:59Z</time></trkpt><trkpt lat="36.88497529722025" lon="15.003323863715563"><ele>182.0</ele><time>2026-03-28T15:09:01Z</time></trkpt><trkpt lat="36.88502438645169" lon="15.00337779027288"><ele>182.0</ele><time>2026-03-28T15:09:25Z</time></trkpt><trkpt lat="36.88511515443349" lon="15.003296038167163"><ele>185.5</ele><time>2026-03-28T15:09:29Z</time></trkpt><trkpt lat="36.88516320686164" lon="15.003213963013668"><ele>189.0</ele><time>2026-03-28T15:09:33Z</time></trkpt><trkpt lat="36.88520574633472" lon="15.003144355788274"><ele>192.5</ele><time>2026-03-28T15:09:35Z</time></trkpt><trkpt lat="36.88526924549664" lon="15.003048151775324"><ele>196.0</ele><time>2026-03-28T15:09:37.999Z</time></trkpt><trkpt lat="36.88532093908184" lon="15.002991227015121"><ele>199.50000000000003</ele><time>2026-03-28T15:09:39.999Z</time></trkpt><trkpt lat="36.88538537236367" lon="15.002943575807448"><ele>203.0</ele><time>2026-03-28T15:12:37Z</time></trkpt><trkpt lat="36.885476021059965" lon="15.002901226191053"><ele>203.0</ele><time>2026-03-28T15:12:39Z</time></trkpt><trkpt lat="36.885550547594" lon="15.002853136416972"><ele>203.0</ele><time>2026-03-28T15:12:41Z</time></trkpt><trkpt lat="36.88554218408514" lon="15.0027218782399"><ele>203.0</ele><time>2026-03-28T15:12:43Z</time></trkpt><trkpt lat="36.88544825129443" lon="15.00267059794977"><ele>203.0</ele><time>2026-03-28T15:12:45Z</time></trkpt><trkpt lat="36.88537911780106" lon="15.002588169602147"><ele>203.0</ele><time>2026-03-28T15:12:47Z</time></trkpt><trkpt lat="36.88532172535582" lon="15.002525041675174"><ele>201.00000000000003</ele><time>2026-03-28T15:12:49Z</time></trkpt><trkpt lat="36.88526958193582" lon="15.002466882454419"><ele>199.0</ele><time>2026-03-28T15:12:51Z</time></trkpt><trkpt lat="36.885196960427216" lon="15.002402190986052"><ele>197.0</ele><time>2026-03-28T15:12:53Z</time></trkpt><trkpt lat="36.88513477762505" lon="15.002323937522162"><ele>195.0</ele><time>2026-03-28T15:12:55Z</time></trkpt><trkpt lat="36.88506449242816" lon="15.002284926744625"><ele>193.0</ele><time>2026-03-28T15:15:14Z</time></trkpt><trkpt lat="36.885006677878486" lon="15.002220252135523"><ele>191.0</ele><time>2026-03-28T15:15:16Z</time></trkpt><trkpt lat="36.884937462904304" lon="15.002169981427887"><ele>191.0</ele><time>2026-03-28T15:15:18Z</time></trkpt><trkpt lat="36.884882961674016" lon="15.002114755649577"><ele>191.0</ele><time>2026-03-28T15:15:20Z</time></trkpt><trkpt lat="36.88484252938944" lon="15.002029080994728"><ele>191.0</ele><time>2026-03-28T15:15:23Z</time></trkpt><trkpt lat="36.88485584670076" lon="15.001940317434721"><ele>191.0</ele><time>2026-03-28T15:15:26Z</time></trkpt><trkpt lat="36.884881814368825" lon="15.001850315036297"><ele>191.0</ele><time>2026-03-28T15:15:28Z</time></trkpt><trkpt lat="36.88495557228726" lon="15.001741291616662"><ele>191.0</ele><time>2026-03-28T15:15:31Z</time></trkpt><trkpt lat="36.885035706363055" lon="15.001610615417336"><ele>192.5</ele><time>2026-03-28T15:15:33Z</time></trkpt><trkpt lat="36.88508282751372" lon="15.001552262775473"><ele>194.0</ele><time>2026-03-28T15:15:34Z</time></trkpt><trkpt lat="36.88513039181642" lon="15.001497614190297"><ele>195.5</ele><time>2026-03-28T15:15:35Z</time></trkpt><trkpt lat="36.885186527199984" lon="15.001430474414883"><ele>197.0</ele><time>2026-03-28T15:15:36Z</time></trkpt><trkpt lat="36.885240087264414" lon="15.001361172864584"><ele>198.50000000000003</ele><time>2026-03-28T15:15:37Z</time></trkpt><trkpt lat="36.88528786165446" lon="15.0012988194196"><ele>200.0</ele><time>2026-03-28T15:15:38Z</time></trkpt><trkpt lat="36.88537334891672" lon="15.001200908193237"><ele>202.8</ele><time>2026-03-28T15:15:40Z</time></trkpt><trkpt lat="36.88542340576088" lon="15.001121096615325"><ele>205.6</ele><time>2026-03-28T15:15:42Z</time></trkpt><trkpt lat="36.885486112599985" lon="15.00100225422279"><ele>208.39999999999998</ele><time>2026-03-28T15:15:44Z</time></trkpt><trkpt lat="36.88555692081444" lon="15.000899416773732"><ele>211.2</ele><time>2026-03-28T15:15:46Z</time></trkpt><trkpt lat="36.88557436084633" lon="15.000812049157439"><ele>214.0</ele><time>2026-03-28T15:15:48Z</time></trkpt><trkpt lat="36.88555361792357" lon="15.000682548844507"><ele>213.99999999999997</ele><time>2026-03-28T15:15:50Z</time></trkpt><trkpt lat="36.88553025364494" lon="15.000575970500485"><ele>214.0</ele><time>2026-03-28T15:15:52Z</time></trkpt><trkpt lat="36.88551268968794" lon="15.000466709267778"><ele>214.0</ele><time>2026-03-28T15:15:54Z</time></trkpt><trkpt lat="36.88555800664649" lon="15.000407429087286"><ele>214.0</ele><time>2026-03-28T15:15:55.999Z</time></trkpt><trkpt lat="36.88561207401955" lon="15.000355817803943"><ele>213.99999999999997</ele><time>2026-03-28T15:15:58.999Z</time></trkpt><trkpt lat="36.885703100007525" lon="15.000322975843929"><ele>214.0</ele><time>2026-03-28T15:16:01.999Z</time></trkpt><trkpt lat="36.88578584446262" lon="15.000309211021756"><ele>213.99999999999997</ele><time>2026-03-28T15:16:03.999Z</time></trkpt><trkpt lat="36.88586068943963" lon="15.00037992448897"><ele>214.0</ele><time>2026-03-28T15:16:05.999Z</time></trkpt><trkpt lat="36.88594022062029" lon="15.000480038594379"><ele>214.0</ele><time>2026-03-28T15:16:07.999Z</time></trkpt><trkpt lat="36.88601259709569" lon="15.000564977120613"><ele>214.0</ele><time>2026-03-28T15:16:09.999Z</time></trkpt><trkpt lat="36.88605404079665" lon="15.000637806812787"><ele>213.99999999999997</ele><time>2026-03-28T15:16:11.999Z</time></trkpt><trkpt lat="36.886062426907195" lon="15.000720543805425"><ele>214.0</ele><time>2026-03-28T15:16:13.999Z</time></trkpt><trkpt lat="36.88609656431817" lon="15.000840019549521"><ele>213.99999999999997</ele><time>2026-03-28T15:16:15.999Z</time></trkpt><trkpt lat="36.88611196048924" lon="15.000921851498235"><ele>214.0</ele><time>2026-03-28T15:16:17.999Z</time></trkpt><trkpt lat="36.88608528049954" lon="15.0010056223316"><ele>214.0</ele><time>2026-03-28T15:16:19.999Z</time></trkpt><trkpt lat="36.886054482283534" lon="15.001102613819548"><ele>214.0</ele><time>2026-03-28T15:16:21.999Z</time></trkpt><trkpt lat="36.8860122779975" lon="15.001193779399298"><ele>213.99999999999997</ele><time>2026-03-28T15:16:24.999Z</time></trkpt><trkpt lat="36.88597468587632" lon="15.001277895018717"><ele>214.0</ele><time>2026-03-28T15:16:26.999Z</time></trkpt><trkpt lat="36.88592830829096" lon="15.00139391756054"><ele>213.99999999999997</ele><time>2026-03-28T15:16:28.999Z</time></trkpt><trkpt lat="36.88588454637667" lon="15.00151548046917"><ele>214.0</ele><time>2026-03-28T15:16:31Z</time></trkpt><trkpt lat="36.88585814400399" lon="15.001589887033312"><ele>214.0</ele><time>2026-03-28T15:16:32Z</time></trkpt><trkpt lat="36.88582833410287" lon="15.001672279435088"><ele>214.0</ele><time>2026-03-28T15:16:33Z</time></trkpt><trkpt lat="36.88579743022955" lon="15.00177109046984"><ele>213.99999999999997</ele><time>2026-03-28T15:16:35Z</time></trkpt><trkpt lat="36.885886493906945" lon="15.001847305370818"><ele>214.0</ele><time>2026-03-28T15:16:37Z</time></trkpt><trkpt lat="36.885987965889704" lon="15.001877310604987"><ele>217.99999999999997</ele><time>2026-03-28T15:16:39Z</time></trkpt><trkpt lat="36.88607643829361" lon="15.001915660794584"><ele>222.0</ele><time>2026-03-28T15:16:41Z</time></trkpt><trkpt lat="36.88618345657022" lon="15.001949474505466"><ele>226.0</ele><time>2026-03-28T15:16:43Z</time></trkpt><trkpt lat="36.88624623078447" lon="15.00196389105695"><ele>230.0</ele><time>2026-03-28T15:16:44Z</time></trkpt><trkpt lat="36.8863187183441" lon="15.001983126783099"><ele>233.99999999999997</ele><time>2026-03-28T15:16:45Z</time></trkpt><trkpt lat="36.88638436357565" lon="15.002002012481523"><ele>238.0</ele><time>2026-03-28T15:16:46Z</time></trkpt><trkpt lat="36.8864526808216" lon="15.002027750193863"><ele>237.99999999999997</ele><time>2026-03-28T15:16:47Z</time></trkpt><trkpt lat="36.886552770044474" lon="15.002062534756632"><ele>238.0</ele><time>2026-03-28T15:16:49Z</time></trkpt><trkpt lat="36.88662167763325" lon="15.002083136037824"><ele>238.0</ele><time>2026-03-28T15:16:52Z</time></trkpt><trkpt lat="36.886681652449845" lon="15.002117415332169"><ele>238.0</ele><time>2026-03-28T15:18:16.999Z</time></trkpt><trkpt lat="36.88676253502652" lon="15.002138844602706"><ele>237.99999999999997</ele><time>2026-03-28T15:18:52Z</time></trkpt><trkpt lat="36.8868647321226" lon="15.002210640212011"><ele>238.0</ele><time>2026-03-28T15:18:54Z</time></trkpt><trkpt lat="36.886946491429136" lon="15.002278066163816"><ele>239.49999999999997</ele><time>2026-03-28T15:18:56Z</time></trkpt><trkpt lat="36.8869997038842" lon="15.002359542035848"><ele>241.0</ele><time>2026-03-28T15:18:58Z</time></trkpt><trkpt lat="36.88704947433754" lon="15.00243485719596"><ele>242.5</ele><time>2026-03-28T15:19:00Z</time></trkpt><trkpt lat="36.88710457792061" lon="15.002492779571483"><ele>244.0</ele><time>2026-03-28T15:19:02Z</time></trkpt><trkpt lat="36.88718707986036" lon="15.00251141214621"><ele>245.49999999999997</ele><time>2026-03-28T15:19:06Z</time></trkpt><trkpt lat="36.887226393869256" lon="15.002366507339818"><ele>247.0</ele><time>2026-03-28T15:19:07Z</time></trkpt><trkpt lat="36.887244423879764" lon="15.002248667174982"><ele>246.99999999999997</ele><time>2026-03-28T15:19:09Z</time></trkpt><trkpt lat="36.8872603427259" lon="15.002166113879206"><ele>247.0</ele><time>2026-03-28T15:19:11Z</time></trkpt><trkpt lat="36.88734116385071" lon="15.002124876006816"><ele>247.0</ele><time>2026-03-28T15:19:37Z</time></trkpt><trkpt lat="36.88735740560774" lon="15.00202913082446"><ele>247.0</ele><time>2026-03-28T15:19:39Z</time></trkpt><trkpt lat="36.887389653960724" lon="15.001942798695675"><ele>246.99999999999997</ele><time>2026-03-28T15:19:44Z</time></trkpt><trkpt lat="36.88740112461693" lon="15.001850038852043"><ele>247.0</ele><time>2026-03-28T15:19:46Z</time></trkpt><trkpt lat="36.88740155362459" lon="15.00174370065956"><ele>246.66666666666666</ele><time>2026-03-28T15:22:06Z</time></trkpt><trkpt lat="36.88744114354932" lon="15.001633799299595"><ele>246.33333333333331</ele><time>2026-03-28T15:22:09.999Z</time></trkpt><trkpt lat="36.88747621351902" lon="15.001550647012907"><ele>246.0</ele><time>2026-03-28T15:22:11.999Z</time></trkpt><trkpt lat="36.88752458450334" lon="15.001473038530298"><ele>245.66666666666669</ele><time>2026-03-28T15:22:13.999Z</time></trkpt><trkpt lat="36.88757911104897" lon="15.001412189027063"><ele>245.33333333333334</ele><time>2026-03-28T15:22:17.999Z</time></trkpt><trkpt lat="36.88762498675407" lon="15.001345011211264"><ele>245.0</ele><time>2026-03-28T15:22:21.999Z</time></trkpt><trkpt lat="36.88768415951192" lon="15.001280075126724"><ele>245.00000000000003</ele><time>2026-03-28T15:22:24.999Z</time></trkpt><trkpt lat="36.88774516583865" lon="15.001215074307268"><ele>245.0</ele><time>2026-03-28T15:22:33.999Z</time></trkpt><trkpt lat="36.88779694300605" lon="15.001164520265634"><ele>245.0</ele><time>2026-03-28T15:22:35.999Z</time></trkpt><trkpt lat="36.88786994675583" lon="15.001102949133383"><ele>245.0</ele><time>2026-03-28T15:22:37.999Z</time></trkpt><trkpt lat="36.887942768035295" lon="15.001061612671064"><ele>245.00000000000003</ele><time>2026-03-28T15:22:39.999Z</time></trkpt><trkpt lat="36.8880448983041" lon="15.001046666651478"><ele>245.0</ele><time>2026-03-28T15:22:41.999Z</time></trkpt><trkpt lat="36.888128159561454" lon="15.000991438007192"><ele>245.00000000000003</ele><time>2026-03-28T15:22:43.999Z</time></trkpt><trkpt lat="36.888212835389744" lon="15.000931282237161"><ele>245.0</ele><time>2026-03-28T15:22:45.999Z</time></trkpt><trkpt lat="36.88828961009675" lon="15.00086400359173"><ele>245.0</ele><time>2026-03-28T15:22:48Z</time></trkpt><trkpt lat="36.88836097705539" lon="15.000832929010372"><ele>245.0</ele><time>2026-03-28T15:22:51Z</time></trkpt><trkpt lat="36.88843023852466" lon="15.000772315317501"><ele>245.00000000000003</ele><time>2026-03-28T15:23:22Z</time></trkpt><trkpt lat="36.88851847220753" lon="15.000723509286775"><ele>245.0</ele><time>2026-03-28T15:23:24Z</time></trkpt><trkpt lat="36.88859753998314" lon="15.000676146208727"><ele>245.8</ele><time>2026-03-28T15:23:26Z</time></trkpt><trkpt lat="36.88868084676303" lon="15.000626360736668"><ele>246.6</ele><time>2026-03-28T15:23:28Z</time></trkpt><trkpt lat="36.888777041501626" lon="15.00057889069558"><ele>247.39999999999998</ele><time>2026-03-28T15:23:30Z</time></trkpt><trkpt lat="36.88885559950811" lon="15.000534760199367"><ele>248.2</ele><time>2026-03-28T15:23:32Z</time></trkpt><trkpt lat="36.88893476255739" lon="15.000481635338359"><ele>249.0</ele><time>2026-03-28T15:23:34Z</time></trkpt><trkpt lat="36.88900724322327" lon="15.000434146871088"><ele>249.0</ele><time>2026-03-28T15:23:36Z</time></trkpt><trkpt lat="36.88906830013827" lon="15.000399232092441"><ele>249.0</ele><time>2026-03-28T15:24:43.999Z</time></trkpt><trkpt lat="36.889162495733814" lon="15.00035028306884"><ele>249.0</ele><time>2026-03-28T15:24:46.999Z</time></trkpt><trkpt lat="36.8892617019578" lon="15.000304739469996"><ele>249.0</ele><time>2026-03-28T15:24:48.999Z</time></trkpt><trkpt lat="36.88933004797334" lon="15.000254872579355"><ele>249.0</ele><time>2026-03-28T15:24:50.999Z</time></trkpt><trkpt lat="36.889394872922765" lon="15.000211112426278"><ele>249.0</ele><time>2026-03-28T15:24:54Z</time></trkpt><trkpt lat="36.88945146681722" lon="15.000154830706029"><ele>250.66666666666666</ele><time>2026-03-28T15:24:56Z</time></trkpt><trkpt lat="36.88952272002924" lon="15.000108110990592"><ele>252.33333333333331</ele><time>2026-03-28T15:24:59Z</time></trkpt><trkpt lat="36.889619633190485" lon="15.000044183468129"><ele>254.0</ele><time>2026-03-28T15:25:02Z</time></trkpt><trkpt lat="36.88969254538845" lon="15.000009137626128"><ele>255.66666666666666</ele><time>2026-03-28T15:25:04Z</time></trkpt><trkpt lat="36.889774060744074" lon="14.999948417866424"><ele>257.3333333333333</ele><time>2026-03-28T15:25:06Z</time></trkpt><trkpt lat="36.88984986773519" lon="14.999903891026708"><ele>259.0</ele><time>2026-03-28T15:25:08Z</time></trkpt><trkpt lat="36.88992380712631" lon="14.999849257360987"><ele>259.0</ele><time>2026-03-28T15:25:11Z</time></trkpt><trkpt lat="36.88998481025135" lon="14.999824759536947"><ele>259.0</ele><time>2026-03-28T15:25:13Z</time></trkpt><trkpt lat="36.890082255636585" lon="14.999746849923037"><ele>259.0</ele><time>2026-03-28T15:25:21Z</time></trkpt><trkpt lat="36.89014749559185" lon="14.999620106181295"><ele>259.0</ele><time>2026-03-28T15:25:23Z</time></trkpt><trkpt lat="36.89018121721797" lon="14.999552110736259"><ele>259.0</ele><time>2026-03-28T15:25:24Z</time></trkpt><trkpt lat="36.890247020070156" lon="14.999420629327673"><ele>257.7142857142857</ele><time>2026-03-28T15:25:26Z</time></trkpt><trkpt lat="36.89028240007372" lon="14.99934493332985"><ele>256.42857142857144</ele><time>2026-03-28T15:25:27Z</time></trkpt><trkpt lat="36.890330429223766" lon="14.999283154738906"><ele>255.14285714285714</ele><time>2026-03-28T15:25:28Z</time></trkpt><trkpt lat="36.89035409397988" lon="14.999208874177665"><ele>253.85714285714286</ele><time>2026-03-28T15:25:29Z</time></trkpt><trkpt lat="36.89038700826672" lon="14.999140096531855"><ele>252.57142857142858</ele><time>2026-03-28T15:25:30Z</time></trkpt><trkpt lat="36.8904194776345" lon="14.999067452429351"><ele>251.28571428571428</ele><time>2026-03-28T15:25:31Z</time></trkpt><trkpt lat="36.89046449473098" lon="14.998987039505776"><ele>250.0</ele><time>2026-03-28T15:25:32Z</time></trkpt><trkpt lat="36.89051499842195" lon="14.998900619658192"><ele>249.66666666666666</ele><time>2026-03-28T15:25:33Z</time></trkpt><trkpt lat="36.89055870650857" lon="14.998810801472288"><ele>249.33333333333331</ele><time>2026-03-28T15:25:34Z</time></trkpt><trkpt lat="36.89060526109245" lon="14.998719155494685"><ele>249.0</ele><time>2026-03-28T15:25:35Z</time></trkpt><trkpt lat="36.89065374222196" lon="14.998637506630518"><ele>248.66666666666669</ele><time>2026-03-28T15:25:36Z</time></trkpt><trkpt lat="36.89069295051388" lon="14.998562978162566"><ele>248.33333333333334</ele><time>2026-03-28T15:25:37Z</time></trkpt><trkpt lat="36.890732552213485" lon="14.998493298107881"><ele>248.0</ele><time>2026-03-28T15:25:38Z</time></trkpt><trkpt lat="36.8907760378433" lon="14.998422659720266"><ele>248.00000000000003</ele><time>2026-03-28T15:25:39Z</time></trkpt><trkpt lat="36.89081579230206" lon="14.99835345388921"><ele>248.0</ele><time>2026-03-28T15:25:40Z</time></trkpt><trkpt lat="36.89085163547654" lon="14.998286287034913"><ele>248.0</ele><time>2026-03-28T15:25:41Z</time></trkpt><trkpt lat="36.890920827876315" lon="14.998176581153219"><ele>248.0</ele><time>2026-03-28T15:25:43Z</time></trkpt><trkpt lat="36.891016769182066" lon="14.998074414818095"><ele>248.00000000000003</ele><time>2026-03-28T15:25:45Z</time></trkpt><trkpt lat="36.89106689568592" lon="14.99801221441912"><ele>248.0</ele><time>2026-03-28T15:25:46Z</time></trkpt><trkpt lat="36.89110756084128" lon="14.997944396320099"><ele>247.66666666666669</ele><time>2026-03-28T15:25:47Z</time></trkpt><trkpt lat="36.89112841575995" lon="14.997868211262668"><ele>247.33333333333334</ele><time>2026-03-28T15:25:48Z</time></trkpt><trkpt lat="36.891139124516144" lon="14.99777572959706"><ele>247.0</ele><time>2026-03-28T15:25:49Z</time></trkpt><trkpt lat="36.891140683034514" lon="14.997695663193477"><ele>246.66666666666669</ele><time>2026-03-28T15:25:50Z</time></trkpt><trkpt lat="36.89114807062404" lon="14.997587156824391"><ele>246.33333333333334</ele><time>2026-03-28T15:25:52Z</time></trkpt><trkpt lat="36.891162369688736" lon="14.997494283046315"><ele>246.0</ele><time>2026-03-28T15:26:04Z</time></trkpt><trkpt lat="36.8911588507162" lon="14.99760399155738"><ele>245.33333333333331</ele><time>2026-03-28T15:26:09Z</time></trkpt><trkpt lat="36.89114759298287" lon="14.997709339705695"><ele>244.66666666666666</ele><time>2026-03-28T15:26:11Z</time></trkpt><trkpt lat="36.891128499931156" lon="14.997838335006257"><ele>244.0</ele><time>2026-03-28T15:26:13Z</time></trkpt><trkpt lat="36.89078518440988" lon="14.9977895736353"><ele>243.99999999999997</ele><time>2026-03-28T15:26:14Z</time></trkpt><trkpt lat="36.890719237203335" lon="14.99781425837006"><ele>244.0</ele><time>2026-03-28T15:26:15Z</time></trkpt><trkpt lat="36.890645467918844" lon="14.997886361218919"><ele>244.0</ele><time>2026-03-28T15:26:17Z</time></trkpt><trkpt lat="36.89057110265104" lon="14.997959509345826"><ele>244.0</ele><time>2026-03-28T15:26:19Z</time></trkpt><trkpt lat="36.89049618603975" lon="14.998009462609325"><ele>243.99999999999997</ele><time>2026-03-28T15:26:21Z</time></trkpt><trkpt lat="36.89043826408007" lon="14.998055909185895"><ele>244.0</ele><time>2026-03-28T15:26:22.999Z</time></trkpt><trkpt lat="36.89035878424396" lon="14.998062768771844"><ele>243.99999999999997</ele><time>2026-03-28T15:26:24.999Z</time></trkpt><trkpt lat="36.89028277586898" lon="14.998109522495954"><ele>244.0</ele><time>2026-03-28T15:26:26.999Z</time></trkpt><trkpt lat="36.89020476768785" lon="14.998141136324323"><ele>244.0</ele><time>2026-03-28T15:26:28.999Z</time></trkpt><trkpt lat="36.89011539646306" lon="14.998160809683538"><ele>244.0</ele><time>2026-03-28T15:26:30.999Z</time></trkpt><trkpt lat="36.89005437113039" lon="14.998210402656074"><ele>243.99999999999997</ele><time>2026-03-28T15:26:32.999Z</time></trkpt><trkpt lat="36.889981904381216" lon="14.998234066258732"><ele>244.0</ele><time>2026-03-28T15:26:34.999Z</time></trkpt><trkpt lat="36.889923780963834" lon="14.998276634822822"><ele>244.28571428571425</ele><time>2026-03-28T15:26:36.999Z</time></trkpt><trkpt lat="36.88985360275788" lon="14.998294693991209"><ele>244.57142857142856</ele><time>2026-03-28T15:26:38.999Z</time></trkpt><trkpt lat="36.889800104701635" lon="14.998348381001065"><ele>244.85714285714286</ele><time>2026-03-28T15:26:40.999Z</time></trkpt><trkpt lat="36.88973859369936" lon="14.998391853728359"><ele>245.14285714285714</ele><time>2026-03-28T15:26:42.999Z</time></trkpt><trkpt lat="36.88966919516019" lon="14.998425085625529"><ele>245.42857142857144</ele><time>2026-03-28T15:26:45.999Z</time></trkpt><trkpt lat="36.889602278564865" lon="14.998434838223357"><ele>245.71428571428575</ele><time>2026-03-28T15:26:49.999Z</time></trkpt><trkpt lat="36.889540547123694" lon="14.9984557667579"><ele>246.00000000000003</ele><time>2026-03-28T15:27:07Z</time></trkpt><trkpt lat="36.889451645581154" lon="14.998472479848354"><ele>246.00000000000003</ele><time>2026-03-28T15:27:10Z</time></trkpt><trkpt lat="36.889374255691116" lon="14.998501072782096"><ele>246.0</ele><time>2026-03-28T15:27:13Z</time></trkpt><trkpt lat="36.88930071616132" lon="14.9985259056154"><ele>246.00000000000003</ele><time>2026-03-28T15:27:16Z</time></trkpt><trkpt lat="36.88922165373928" lon="14.998551998398185"><ele>246.00000000000003</ele><time>2026-03-28T15:27:20Z</time></trkpt><trkpt lat="36.88915878795527" lon="14.998572745872668"><ele>246.0</ele><time>2026-03-28T15:27:27Z</time></trkpt><trkpt lat="36.889101281243796" lon="14.998606010844533"><ele>246.00000000000003</ele><time>2026-03-28T15:27:38Z</time></trkpt><trkpt lat="36.889168594539896" lon="14.99856950944895"><ele>246.00000000000003</ele><time>2026-03-28T15:27:48Z</time></trkpt><trkpt lat="36.88924557295887" lon="14.99854410427651"><ele>205.0</ele><time>2026-03-28T15:27:51Z</time></trkpt><trkpt lat="36.88864978188952" lon="14.998186414269759"><ele>204.99999999999997</ele><time>2026-03-28T15:28:19Z</time></trkpt><trkpt lat="36.88857261256018" lon="14.998148125344306"><ele>205.0</ele><time>2026-03-28T15:28:22Z</time></trkpt><trkpt lat="36.88850812649235" lon="14.998103859361757"><ele>205.0</ele><time>2026-03-28T15:28:25.999Z</time></trkpt><trkpt lat="36.888483931397204" lon="14.998031083903678"><ele>205.0</ele><time>2026-03-28T15:29:03.999Z</time></trkpt><trkpt lat="36.88854386996796" lon="14.998082230463918"><ele>204.99999999999997</ele><time>2026-03-28T15:29:11Z</time></trkpt><trkpt lat="36.88860414905709" lon="14.998158314941323"><ele>205.0</ele><time>2026-03-28T15:29:14Z</time></trkpt><trkpt lat="36.888750680015356" lon="14.998217733026493"><ele>204.99999999999997</ele><time>2026-03-28T15:29:16Z</time></trkpt><trkpt lat="36.888819182039796" lon="14.998250341459844"><ele>205.0</ele><time>2026-03-28T15:29:17Z</time></trkpt><trkpt lat="36.88889368837823" lon="14.998275289103251"><ele>205.0</ele><time>2026-03-28T15:29:18Z</time></trkpt><trkpt lat="36.88900492803786" lon="14.998279600194813"><ele>205.0</ele><time>2026-03-28T15:29:20Z</time></trkpt><trkpt lat="36.889071052910275" lon="14.998295343753433"><ele>204.99999999999997</ele><time>2026-03-28T15:29:23Z</time></trkpt><trkpt lat="36.889165436530064" lon="14.998290197297175"><ele>205.0</ele><time>2026-03-28T15:29:26Z</time></trkpt><trkpt lat="36.88920640535308" lon="14.998358433881732"><ele>208.33333333333331</ele><time>2026-03-28T15:29:31Z</time></trkpt><trkpt lat="36.889135292270204" lon="14.998441264350895"><ele>211.66666666666666</ele><time>2026-03-28T15:29:33Z</time></trkpt><trkpt lat="36.889096000763104" lon="14.998545619075363"><ele>215.0</ele><time>2026-03-28T15:29:35Z</time></trkpt><trkpt lat="36.88906600355934" lon="14.998635498432671"><ele>218.33333333333331</ele><time>2026-03-28T15:29:37Z</time></trkpt><trkpt lat="36.88901969849762" lon="14.998707455304384"><ele>221.66666666666666</ele><time>2026-03-28T15:29:39Z</time></trkpt><trkpt lat="36.88900161763079" lon="14.998789969068945"><ele>225.0</ele><time>2026-03-28T15:29:41Z</time></trkpt><trkpt lat="36.888968519654476" lon="14.998889855696175"><ele>225.0</ele><time>2026-03-28T15:29:43Z</time></trkpt><trkpt lat="36.88887615695466" lon="14.998900612664867"><ele>225.0</ele><time>2026-03-28T15:29:46Z</time></trkpt><trkpt lat="36.88879652740385" lon="14.998912431684687"><ele>225.0</ele><time>2026-03-28T15:29:48Z</time></trkpt><trkpt lat="36.888703767015954" lon="14.998939049546765"><ele>225.0</ele><time>2026-03-28T15:29:50Z</time></trkpt><trkpt lat="36.888641078697475" lon="14.998968165802044"><ele>225.0</ele><time>2026-03-28T15:30:20Z</time></trkpt><trkpt lat="36.88857355951174" lon="14.999001971609358"><ele>225.0</ele><time>2026-03-28T15:31:01.999Z</time></trkpt><trkpt lat="36.88849880415485" lon="14.999048160537289"><ele>225.0</ele><time>2026-03-28T15:31:03.999Z</time></trkpt><trkpt lat="36.8884327362899" lon="14.999098778475888"><ele>225.0</ele><time>2026-03-28T15:31:05.999Z</time></trkpt><trkpt lat="36.88835232334147" lon="14.999095663049644"><ele>225.0</ele><time>2026-03-28T15:31:07.999Z</time></trkpt><trkpt lat="36.88826695061169" lon="14.999052496465824"><ele>225.0</ele><time>2026-03-28T15:31:09.999Z</time></trkpt><trkpt lat="36.88820050216238" lon="14.999001099141688"><ele>225.0</ele><time>2026-03-28T15:31:12Z</time></trkpt><trkpt lat="36.888119033405516" lon="14.998959773389858"><ele>225.0</ele><time>2026-03-28T15:31:15Z</time></trkpt><trkpt lat="36.88803410237355" lon="14.998917959201929"><ele>221.5</ele><time>2026-03-28T15:31:18Z</time></trkpt><trkpt lat="36.88796427934266" lon="14.998877724039586"><ele>218.0</ele><time>2026-03-28T15:31:21Z</time></trkpt><trkpt lat="36.887985609154924" lon="14.998789694431016"><ele>214.5</ele><time>2026-03-28T15:31:26Z</time></trkpt><trkpt lat="36.88805445498536" lon="14.998745807802647"><ele>211.0</ele><time>2026-03-28T15:31:28Z</time></trkpt><trkpt lat="36.888021645707475" lon="14.998658239265573"><ele>207.5</ele><time>2026-03-28T15:31:34Z</time></trkpt><trkpt lat="36.88795831669175" lon="14.998632637234982"><ele>204.0</ele><time>2026-03-28T15:31:58Z</time></trkpt><trkpt lat="36.88789463190435" lon="14.998573839988126"><ele>204.0</ele><time>2026-03-28T15:33:32Z</time></trkpt><trkpt lat="36.88782721638126" lon="14.998539772594661"><ele>204.0</ele><time>2026-03-28T15:33:36Z</time></trkpt><trkpt lat="36.88775477448025" lon="14.998514716370275"><ele>204.0</ele><time>2026-03-28T15:33:41Z</time></trkpt><trkpt lat="36.887656227784156" lon="14.998428026303971"><ele>204.0</ele><time>2026-03-28T15:34:48.999Z</time></trkpt><trkpt lat="36.887591710758" lon="14.998363335187422"><ele>204.0</ele><time>2026-03-28T15:34:49.999Z</time></trkpt><trkpt lat="36.88754250151103" lon="14.998310733305544"><ele>204.0</ele><time>2026-03-28T15:34:50.999Z</time></trkpt><trkpt lat="36.88749580989857" lon="14.998257761755488"><ele>199.2</ele><time>2026-03-28T15:34:51.999Z</time></trkpt><trkpt lat="36.887418033832866" lon="14.99815277371279"><ele>194.39999999999998</ele><time>2026-03-28T15:34:53.999Z</time></trkpt><trkpt lat="36.88737413848975" lon="14.998072076084945"><ele>189.6</ele><time>2026-03-28T15:34:55.999Z</time></trkpt><trkpt lat="36.8872860285548" lon="14.998012144674849"><ele>184.8</ele><time>2026-03-28T15:34:57.999Z</time></trkpt><trkpt lat="36.887177938495675" lon="14.997969368246796"><ele>180.0</ele><time>2026-03-28T15:34:59.999Z</time></trkpt><trkpt lat="36.88708631840901" lon="14.997943307107867"><ele>180.0</ele><time>2026-03-28T15:35:01.999Z</time></trkpt><trkpt lat="36.88699795689046" lon="14.99793162814237"><ele>180.0</ele><time>2026-03-28T15:35:03.999Z</time></trkpt><trkpt lat="36.88691115608827" lon="14.99792886125353"><ele>180.0</ele><time>2026-03-28T15:35:05.999Z</time></trkpt><trkpt lat="36.88682007256069" lon="14.997937879591907"><ele>180.0</ele><time>2026-03-28T15:35:07.999Z</time></trkpt><trkpt lat="36.886745163412385" lon="14.997975851432884"><ele>180.0</ele><time>2026-03-28T15:35:09.999Z</time></trkpt><trkpt lat="36.88668564444227" lon="14.99801988916974"><ele>180.0</ele><time>2026-03-28T15:35:11.999Z</time></trkpt><trkpt lat="36.88662376314752" lon="14.998047648216353"><ele>179.33333333333334</ele><time>2026-03-28T15:35:13.999Z</time></trkpt><trkpt lat="36.886555793465305" lon="14.998079354747116"><ele>178.66666666666666</ele><time>2026-03-28T15:35:15.999Z</time></trkpt><trkpt lat="36.88648934373811" lon="14.998149887198927"><ele>178.0</ele><time>2026-03-28T15:35:17.999Z</time></trkpt><trkpt lat="36.886412585123985" lon="14.998219105750417"><ele>177.33333333333331</ele><time>2026-03-28T15:35:19.999Z</time></trkpt><trkpt lat="36.886329045408104" lon="14.998225673653918"><ele>176.66666666666666</ele><time>2026-03-28T15:35:23Z</time></trkpt><trkpt lat="36.88624759867221" lon="14.99818525735732"><ele>176.0</ele><time>2026-03-28T15:35:26Z</time></trkpt><trkpt lat="36.8861828988383" lon="14.9981304425821"><ele>176.0</ele><time>2026-03-28T15:35:28Z</time></trkpt><trkpt lat="36.8861081783803" lon="14.9981053480453"><ele>176.0</ele><time>2026-03-28T15:35:30Z</time></trkpt><trkpt lat="36.88602876750497" lon="14.99807682420373"><ele>176.0</ele><time>2026-03-28T15:35:32Z</time></trkpt><trkpt lat="36.885929130609185" lon="14.9980043099563"><ele>176.0</ele><time>2026-03-28T15:35:34Z</time></trkpt><trkpt lat="36.88586902844421" lon="14.997965955980836"><ele>176.0</ele><time>2026-03-28T15:35:35Z</time></trkpt><trkpt lat="36.88581070083767" lon="14.997932111563125"><ele>176.0</ele><time>2026-03-28T15:35:36Z</time></trkpt><trkpt lat="36.88574831514668" lon="14.997900752629723"><ele>175.4</ele><time>2026-03-28T15:35:37Z</time></trkpt><trkpt lat="36.88563967642502" lon="14.997821782718606"><ele>174.8</ele><time>2026-03-28T15:35:39Z</time></trkpt><trkpt lat="36.88558622169248" lon="14.997773546947045"><ele>174.20000000000002</ele><time>2026-03-28T15:35:40Z</time></trkpt><trkpt lat="36.88550116170028" lon="14.997681981392772"><ele>173.60000000000002</ele><time>2026-03-28T15:35:42Z</time></trkpt><trkpt lat="36.88542304659309" lon="14.997571868047377"><ele>173.0</ele><time>2026-03-28T15:35:44Z</time></trkpt><trkpt lat="36.885384366029506" lon="14.997438393324677"><ele>170.20000000000002</ele><time>2026-03-28T15:35:46Z</time></trkpt><trkpt lat="36.88538795585321" lon="14.99729638569962"><ele>167.4</ele><time>2026-03-28T15:35:48Z</time></trkpt><trkpt lat="36.8854018984264" lon="14.997172340928529"><ele>164.60000000000002</ele><time>2026-03-28T15:35:50Z</time></trkpt><trkpt lat="36.88540249867025" lon="14.997059559779906"><ele>161.8</ele><time>2026-03-28T15:35:52Z</time></trkpt><trkpt lat="36.88532751284271" lon="14.996993320788043"><ele>159.0</ele><time>2026-03-28T15:35:54Z</time></trkpt><trkpt lat="36.885193290793204" lon="14.99700229322674"><ele>159.0</ele><time>2026-03-28T15:35:56Z</time></trkpt><trkpt lat="36.885128065020886" lon="14.99701075372508"><ele>159.0</ele><time>2026-03-28T15:35:57Z</time></trkpt><trkpt lat="36.88505825808248" lon="14.997017894577807"><ele>159.0</ele><time>2026-03-28T15:35:58Z</time></trkpt><trkpt lat="36.88499187391288" lon="14.997003200642139"><ele>159.0</ele><time>2026-03-28T15:35:59Z</time></trkpt><trkpt lat="36.88487710209303" lon="14.996958205996725"><ele>159.0</ele><time>2026-03-28T15:36:01Z</time></trkpt><trkpt lat="36.88482482778569" lon="14.9969087869115"><ele>159.0</ele><time>2026-03-28T15:36:02Z</time></trkpt><trkpt lat="36.88472499651833" lon="14.996822253970226"><ele>160.0</ele><time>2026-03-28T15:36:04Z</time></trkpt><trkpt lat="36.88460608065058" lon="14.996771905684295"><ele>161.0</ele><time>2026-03-28T15:36:06Z</time></trkpt><trkpt lat="36.884539600896545" lon="14.996746231206584"><ele>162.0</ele><time>2026-03-28T15:36:07Z</time></trkpt><trkpt lat="36.88447220213595" lon="14.996699204813433"><ele>163.0</ele><time>2026-03-28T15:36:08Z</time></trkpt><trkpt lat="36.88440747617778" lon="14.996650240144595"><ele>164.0</ele><time>2026-03-28T15:36:09Z</time></trkpt><trkpt lat="36.88434123099049" lon="14.996602813482005"><ele>165.0</ele><time>2026-03-28T15:36:10Z</time></trkpt><trkpt lat="36.88427924883291" lon="14.99654730870301"><ele>162.5</ele><time>2026-03-28T15:36:11Z</time></trkpt><trkpt lat="36.884232658123494" lon="14.996492230732903"><ele>160.0</ele><time>2026-03-28T15:36:12Z</time></trkpt><trkpt lat="36.88418724340101" lon="14.996434728712952"><ele>157.5</ele><time>2026-03-28T15:36:13Z</time></trkpt><trkpt lat="36.884099677311944" lon="14.99633877003265"><ele>155.0</ele><time>2026-03-28T15:36:15Z</time></trkpt><trkpt lat="36.88400999802051" lon="14.996276758105116"><ele>152.5</ele><time>2026-03-28T15:36:17Z</time></trkpt><trkpt lat="36.883929104744276" lon="14.996206057889156"><ele>150.0</ele><time>2026-03-28T15:36:19Z</time></trkpt><trkpt lat="36.88385076234796" lon="14.99612358782365"><ele>150.0</ele><time>2026-03-28T15:36:21Z</time></trkpt><trkpt lat="36.88381821291176" lon="14.996021596780976"><ele>150.0</ele><time>2026-03-28T15:36:23Z</time></trkpt><trkpt lat="36.883826002461284" lon="14.99589957416293"><ele>150.0</ele><time>2026-03-28T15:36:25Z</time></trkpt><trkpt lat="36.883829966529035" lon="14.99579572273852"><ele>150.0</ele><time>2026-03-28T15:36:27Z</time></trkpt><trkpt lat="36.883827328216675" lon="14.995688293035558"><ele>150.0</ele><time>2026-03-28T15:36:29Z</time></trkpt><trkpt lat="36.88381509395526" lon="14.995551787790596"><ele>148.0</ele><time>2026-03-28T15:36:31Z</time></trkpt><trkpt lat="36.88379506891314" lon="14.995432269780935"><ele>146.0</ele><time>2026-03-28T15:36:33Z</time></trkpt><trkpt lat="36.883788898989" lon="14.995318300030167"><ele>144.0</ele><time>2026-03-28T15:36:35Z</time></trkpt><trkpt lat="36.88378938680059" lon="14.995177590138747"><ele>142.0</ele><time>2026-03-28T15:36:37Z</time></trkpt><trkpt lat="36.88379137263118" lon="14.995095942890533"><ele>140.0</ele><time>2026-03-28T15:36:38Z</time></trkpt><trkpt lat="36.88379844008271" lon="14.995015804983776"><ele>138.0</ele><time>2026-03-28T15:36:39Z</time></trkpt><trkpt lat="36.88375644625306" lon="14.994862643917296"><ele>135.83333333333334</ele><time>2026-03-28T15:36:41Z</time></trkpt><trkpt lat="36.88375366763828" lon="14.994776511943186"><ele>133.66666666666666</ele><time>2026-03-28T15:36:43Z</time></trkpt><trkpt lat="36.88375221196218" lon="14.994639881113004"><ele>131.5</ele><time>2026-03-28T15:36:46Z</time></trkpt><trkpt lat="36.88375534709541" lon="14.994535127264793"><ele>129.33333333333331</ele><time>2026-03-28T15:36:48Z</time></trkpt><trkpt lat="36.883751350057736" lon="14.994447118916106"><ele>127.16666666666666</ele><time>2026-03-28T15:36:49.999Z</time></trkpt><trkpt lat="36.88369973592245" lon="14.994376379643287"><ele>125.0</ele><time>2026-03-28T15:36:51.999Z</time></trkpt><trkpt lat="36.88361888835289" lon="14.994374043934718"><ele>124.99999999999999</ele><time>2026-03-28T15:36:53.999Z</time></trkpt><trkpt lat="36.88350929526276" lon="14.994352567315437"><ele>125.0</ele><time>2026-03-28T15:36:55.999Z</time></trkpt><trkpt lat="36.88344446981466" lon="14.994304962585044"><ele>125.0</ele><time>2026-03-28T15:36:57.999Z</time></trkpt><trkpt lat="36.883450536980526" lon="14.994215051876358"><ele>125.0</ele><time>2026-03-28T15:37:00.999Z</time></trkpt><trkpt lat="36.88346481734921" lon="14.994120365488568"><ele>124.99999999999999</ele><time>2026-03-28T15:37:01.999Z</time></trkpt><trkpt lat="36.88347857523499" lon="14.993998832813734"><ele>125.0</ele><time>2026-03-28T15:37:02.999Z</time></trkpt><trkpt lat="36.883497383539186" lon="14.993903170112327"><ele>124.0</ele><time>2026-03-28T15:37:03.999Z</time></trkpt><trkpt lat="36.883520058729815" lon="14.993808719983344"><ele>123.0</ele><time>2026-03-28T15:37:04.999Z</time></trkpt><trkpt lat="36.883547032403484" lon="14.993699856136917"><ele>122.0</ele><time>2026-03-28T15:37:05.999Z</time></trkpt><trkpt lat="36.8835762906635" lon="14.99358821304293"><ele>121.0</ele><time>2026-03-28T15:37:06.999Z</time></trkpt><trkpt lat="36.88359626226738" lon="14.993464030336417"><ele>120.0</ele><time>2026-03-28T15:37:07.999Z</time></trkpt><trkpt lat="36.88362216725254" lon="14.99335370673714"><ele>121.16666666666667</ele><time>2026-03-28T15:37:08.999Z</time></trkpt><trkpt lat="36.88364152153967" lon="14.993248874662532"><ele>122.33333333333334</ele><time>2026-03-28T15:37:09.999Z</time></trkpt><trkpt lat="36.883662356376135" lon="14.993146614650907"><ele>123.5</ele><time>2026-03-28T15:37:10.999Z</time></trkpt><trkpt lat="36.88368244889561" lon="14.993056567136708"><ele>124.66666666666667</ele><time>2026-03-28T15:37:11.999Z</time></trkpt><trkpt lat="36.88370176821953" lon="14.99295992741312"><ele>125.83333333333334</ele><time>2026-03-28T15:37:12.999Z</time></trkpt><trkpt lat="36.883723870770055" lon="14.992843376973202"><ele>127.0</ele><time>2026-03-28T15:37:14.999Z</time></trkpt><trkpt lat="36.883730089066056" lon="14.992748366970497"><ele>127.00000000000001</ele><time>2026-03-28T15:37:16.999Z</time></trkpt><trkpt lat="36.88378746633952" lon="14.992713563342054"><ele>127.0</ele><time>2026-03-28T15:49:23Z</time></trkpt><trkpt lat="36.88386749624554" lon="14.992747080434599"><ele>127.0</ele><time>2026-03-28T15:49:26Z</time></trkpt><trkpt lat="36.883958921125476" lon="14.992766864798128"><ele>127.0</ele><time>2026-03-28T15:49:28Z</time></trkpt><trkpt lat="36.88403458763304" lon="14.992788710715693"><ele>127.00000000000001</ele><time>2026-03-28T15:49:30Z</time></trkpt><trkpt lat="36.88411988067943" lon="14.99280315578241"><ele>127.0</ele><time>2026-03-28T15:49:33Z</time></trkpt><trkpt lat="36.88419702027343" lon="14.99282466738727"><ele>127.00000000000001</ele><time>2026-03-28T15:49:36.999Z</time></trkpt><trkpt lat="36.88426058922077" lon="14.992835306063627"><ele>127.0</ele><time>2026-03-28T15:49:39.999Z</time></trkpt><trkpt lat="36.88438842368127" lon="14.992835802189665"><ele>127.0</ele><time>2026-03-28T15:50:33Z</time></trkpt><trkpt lat="36.88447220095248" lon="14.992833242999637"><ele>127.0</ele><time>2026-03-28T15:50:34Z</time></trkpt><trkpt lat="36.88456332300349" lon="14.992840417837058"><ele>127.00000000000001</ele><time>2026-03-28T15:50:35Z</time></trkpt><trkpt lat="36.884643017010575" lon="14.992847211110698"><ele>127.0</ele><time>2026-03-28T15:50:36Z</time></trkpt><trkpt lat="36.88472103780746" lon="14.992851269967383"><ele>128.0</ele><time>2026-03-28T15:50:37Z</time></trkpt><trkpt lat="36.884793842200544" lon="14.992854169630187"><ele>129.0</ele><time>2026-03-28T15:50:38Z</time></trkpt><trkpt lat="36.88486285436176" lon="14.992858625054279"><ele>130.0</ele><time>2026-03-28T15:50:39Z</time></trkpt><trkpt lat="36.88495199341616" lon="14.992857809776721"><ele>131.0</ele><time>2026-03-28T15:50:41Z</time></trkpt><trkpt lat="36.88501858631961" lon="14.992848723847432"><ele>132.0</ele><time>2026-03-28T15:50:43Z</time></trkpt><trkpt lat="36.885088080166845" lon="14.992849766673652"><ele>133.0</ele><time>2026-03-28T15:50:46Z</time></trkpt><trkpt lat="36.88516328637581" lon="14.992808816051733"><ele>134.8</ele><time>2026-03-28T15:50:49Z</time></trkpt><trkpt lat="36.88525205297995" lon="14.99278483241201"><ele>136.60000000000002</ele><time>2026-03-28T15:50:52Z</time></trkpt><trkpt lat="36.88537325484253" lon="14.992821210407884"><ele>138.39999999999998</ele><time>2026-03-28T15:50:54Z</time></trkpt><trkpt lat="36.885450244396836" lon="14.992840048472857"><ele>140.2</ele><time>2026-03-28T15:50:55Z</time></trkpt><trkpt lat="36.88557984157389" lon="14.992847438098915"><ele>142.0</ele><time>2026-03-28T15:50:57Z</time></trkpt><trkpt lat="36.8856558492648" lon="14.992846627239985"><ele>142.0</ele><time>2026-03-28T15:50:58Z</time></trkpt><trkpt lat="36.88573308978138" lon="14.992831678273896"><ele>142.0</ele><time>2026-03-28T15:50:59Z</time></trkpt><trkpt lat="36.88581292520658" lon="14.992821247700183"><ele>142.0</ele><time>2026-03-28T15:51:00Z</time></trkpt><trkpt lat="36.885891294534424" lon="14.992833751802156"><ele>142.0</ele><time>2026-03-28T15:51:01Z</time></trkpt><trkpt lat="36.885961610243385" lon="14.992837471742074"><ele>142.0</ele><time>2026-03-28T15:51:02Z</time></trkpt><trkpt lat="36.886078382429126" lon="14.99282991368763"><ele>142.0</ele><time>2026-03-28T15:51:04Z</time></trkpt><trkpt lat="36.88619566023949" lon="14.99284620661718"><ele>143.71428571428572</ele><time>2026-03-28T15:51:06Z</time></trkpt><trkpt lat="36.88628223717824" lon="14.992855549079565"><ele>145.42857142857142</ele><time>2026-03-28T15:51:08Z</time></trkpt><trkpt lat="36.88635869430966" lon="14.992871221059254"><ele>147.14285714285714</ele><time>2026-03-28T15:51:11Z</time></trkpt><trkpt lat="36.88642111265214" lon="14.992886138900865"><ele>148.85714285714286</ele><time>2026-03-28T15:51:25Z</time></trkpt><trkpt lat="36.88648558870996" lon="14.992883672738824"><ele>150.57142857142856</ele><time>2026-03-28T15:51:29Z</time></trkpt><trkpt lat="36.886553543799856" lon="14.99288013826437"><ele>152.28571428571428</ele><time>2026-03-28T15:51:37Z</time></trkpt><trkpt lat="36.88661390658887" lon="14.992925109622675"><ele>154.0</ele><time>2026-03-28T15:55:04Z</time></trkpt><trkpt lat="36.886591498654596" lon="14.993041591563093"><ele>154.0</ele><time>2026-03-28T15:55:43Z</time></trkpt><trkpt lat="36.88654690478233" lon="14.993164049675498"><ele>154.0</ele><time>2026-03-28T15:55:45Z</time></trkpt><trkpt lat="36.88649915835681" lon="14.9933145273748"><ele>154.0</ele><time>2026-03-28T15:55:47Z</time></trkpt><trkpt lat="36.88646602665902" lon="14.9934573715369"><ele>154.0</ele><time>2026-03-28T15:55:49Z</time></trkpt><trkpt lat="36.88646034942985" lon="14.99359086453192"><ele>154.0</ele><time>2026-03-28T15:55:51Z</time></trkpt><trkpt lat="36.88649989171174" lon="14.993675089211456"><ele>154.0</ele><time>2026-03-28T15:55:52.999Z</time></trkpt><trkpt lat="36.88656517612376" lon="14.993708236869521"><ele>154.0</ele><time>2026-03-28T15:55:54.999Z</time></trkpt><trkpt lat="36.88667144574442" lon="14.993680122384296"><ele>154.0</ele><time>2026-03-28T15:55:57.999Z</time></trkpt><trkpt lat="36.88677319384239" lon="14.993642788627426"><ele>154.0</ele><time>2026-03-28T15:55:59.999Z</time></trkpt><trkpt lat="36.886864948459085" lon="14.993616172243428"><ele>156.6</ele><time>2026-03-28T15:56:01.999Z</time></trkpt><trkpt lat="36.88697975349718" lon="14.993631751743372"><ele>159.2</ele><time>2026-03-28T15:56:03.999Z</time></trkpt><trkpt lat="36.88706524871941" lon="14.99365485837391"><ele>161.79999999999998</ele><time>2026-03-28T15:56:05.999Z</time></trkpt><trkpt lat="36.88712034275369" lon="14.993707962437842"><ele>164.4</ele><time>2026-03-28T15:56:07.999Z</time></trkpt><trkpt lat="36.887222696145365" lon="14.993764754267554"><ele>167.0</ele><time>2026-03-28T15:56:16.999Z</time></trkpt><trkpt lat="36.887302794855955" lon="14.99379079465604"><ele>167.0</ele><time>2026-03-28T15:56:17.999Z</time></trkpt><trkpt lat="36.8873779872807" lon="14.993838600173865"><ele>167.0</ele><time>2026-03-28T15:56:18.999Z</time></trkpt><trkpt lat="36.88743685884467" lon="14.993887895721652"><ele>167.0</ele><time>2026-03-28T15:56:19.999Z</time></trkpt><trkpt lat="36.88754826533796" lon="14.993952901132353"><ele>167.0</ele><time>2026-03-28T15:56:22Z</time></trkpt><trkpt lat="36.88767049511993" lon="14.993963483450342"><ele>167.0</ele><time>2026-03-28T15:56:24Z</time></trkpt><trkpt lat="36.88778996473976" lon="14.993967455705922"><ele>168.0</ele><time>2026-03-28T15:56:26Z</time></trkpt><trkpt lat="36.88787840278199" lon="14.993974871344745"><ele>169.0</ele><time>2026-03-28T15:56:28Z</time></trkpt><trkpt lat="36.887956755522374" lon="14.99398144137286"><ele>170.0</ele><time>2026-03-28T15:56:30Z</time></trkpt><trkpt lat="36.88801940390146" lon="14.993972510185126"><ele>171.0</ele><time>2026-03-28T15:56:32Z</time></trkpt><trkpt lat="36.88809660008705" lon="14.99399316638458"><ele>172.0</ele><time>2026-03-28T15:56:35Z</time></trkpt><trkpt lat="36.88815241428724" lon="14.994073188679852"><ele>173.0</ele><time>2026-03-28T15:56:37Z</time></trkpt><trkpt lat="36.88823121846453" lon="14.994063283571448"><ele>173.0</ele><time>2026-03-28T15:56:40Z</time></trkpt><trkpt lat="36.888278029891154" lon="14.993973229398476"><ele>173.0</ele><time>2026-03-28T15:56:42Z</time></trkpt><trkpt lat="36.888319990170864" lon="14.993899467569571"><ele>173.0</ele><time>2026-03-28T15:56:44Z</time></trkpt><trkpt lat="36.888376986122154" lon="14.99381300212233"><ele>173.0</ele><time>2026-03-28T15:56:46Z</time></trkpt><trkpt lat="36.88841595579189" lon="14.99372056177472"><ele>173.0</ele><time>2026-03-28T15:56:48Z</time></trkpt><trkpt lat="36.888471285626764" lon="14.993672031533656"><ele>173.0</ele><time>2026-03-28T15:56:50Z</time></trkpt><trkpt lat="36.88857985819252" lon="14.99367668499114"><ele>175.0</ele><time>2026-03-28T15:56:52Z</time></trkpt><trkpt lat="36.88868641465151" lon="14.993678900425447"><ele>177.0</ele><time>2026-03-28T15:56:54Z</time></trkpt><trkpt lat="36.888796512824094" lon="14.993687345799463"><ele>179.0</ele><time>2026-03-28T15:56:56Z</time></trkpt><trkpt lat="36.88885889746964" lon="14.993675441761628"><ele>181.0</ele><time>2026-03-28T15:56:57Z</time></trkpt><trkpt lat="36.888921408870566" lon="14.993648992437635"><ele>183.0</ele><time>2026-03-28T15:56:58Z</time></trkpt><trkpt lat="36.889011276175076" lon="14.993634026971856"><ele>185.0</ele><time>2026-03-28T15:57:00Z</time></trkpt><trkpt lat="36.88907936248799" lon="14.993611232345263"><ele>185.0</ele><time>2026-03-28T15:57:04Z</time></trkpt><trkpt lat="36.88905315705829" lon="14.99349061514587"><ele>185.0</ele><time>2026-03-28T15:57:08Z</time></trkpt><trkpt lat="36.88896024417743" lon="14.993459870538194"><ele>185.0</ele><time>2026-03-28T15:57:10Z</time></trkpt><trkpt lat="36.888947882064926" lon="14.993188395366484"><ele>185.0</ele><time>2026-03-28T15:57:12Z</time></trkpt><trkpt lat="36.88886978663258" lon="14.993174025236783"><ele>185.0</ele><time>2026-03-28T15:58:00.999Z</time></trkpt><trkpt lat="36.88880321943801" lon="14.993158648010974"><ele>185.0</ele><time>2026-03-28T15:58:18.999Z</time></trkpt><trkpt lat="36.88874231307804" lon="14.993394830379328"><ele>185.0</ele><time>2026-03-28T15:58:28Z</time></trkpt><trkpt lat="36.88880159708067" lon="14.993352356484898"><ele>185.0</ele><time>2026-03-28T15:58:29Z</time></trkpt><trkpt lat="36.88884385793437" lon="14.993267027464848"><ele>185.0</ele><time>2026-03-28T15:58:30Z</time></trkpt><trkpt lat="36.88880751609771" lon="14.993176228214207"><ele>187.25</ele><time>2026-03-28T15:58:46Z</time></trkpt><trkpt lat="36.888888190427224" lon="14.993178276590028"><ele>189.5</ele><time>2026-03-28T16:04:24.999Z</time></trkpt><trkpt lat="36.889097192302536" lon="14.993284580508828"><ele>191.75</ele><time>2026-03-28T16:04:26.999Z</time></trkpt><trkpt lat="36.889211804336156" lon="14.993306188766114"><ele>194.0</ele><time>2026-03-28T16:04:27.999Z</time></trkpt><trkpt lat="36.8893254455507" lon="14.993329459934136"><ele>195.00000000000003</ele><time>2026-03-28T16:04:28.999Z</time></trkpt><trkpt lat="36.88942917193207" lon="14.993353857794341"><ele>196.0</ele><time>2026-03-28T16:04:29.999Z</time></trkpt><trkpt lat="36.88951222319913" lon="14.993378085057081"><ele>197.0</ele><time>2026-03-28T16:04:30.999Z</time></trkpt><trkpt lat="36.88958458881273" lon="14.993399203887192"><ele>198.0</ele><time>2026-03-28T16:04:31.999Z</time></trkpt><trkpt lat="36.88966675017041" lon="14.993421893785934"><ele>199.00000000000003</ele><time>2026-03-28T16:04:32.999Z</time></trkpt><trkpt lat="36.88975355407291" lon="14.993445480811197"><ele>200.0</ele><time>2026-03-28T16:04:33.999Z</time></trkpt><trkpt lat="36.889845097530404" lon="14.993472337756343"><ele>200.0</ele><time>2026-03-28T16:04:34.999Z</time></trkpt><trkpt lat="36.889938679849124" lon="14.993503043813444"><ele>200.0</ele><time>2026-03-28T16:04:35.999Z</time></trkpt><trkpt lat="36.890030221070006" lon="14.993521473071228"><ele>200.0</ele><time>2026-03-28T16:04:36.999Z</time></trkpt><trkpt lat="36.89011853053521" lon="14.993538002649094"><ele>200.0</ele><time>2026-03-28T16:04:37.999Z</time></trkpt><trkpt lat="36.89020485121175" lon="14.99355135195315"><ele>200.0</ele><time>2026-03-28T16:04:38.999Z</time></trkpt><trkpt lat="36.890297592788585" lon="14.993550142328896"><ele>204.0</ele><time>2026-03-28T16:04:39.999Z</time></trkpt><trkpt lat="36.89038243993167" lon="14.993567054645327"><ele>208.0</ele><time>2026-03-28T16:04:40.999Z</time></trkpt><trkpt lat="36.89046094700587" lon="14.99358536701753"><ele>212.0</ele><time>2026-03-28T16:04:41.999Z</time></trkpt><trkpt lat="36.890529738372166" lon="14.993598663842574"><ele>216.0</ele><time>2026-03-28T16:04:42.999Z</time></trkpt><trkpt lat="36.89059620701986" lon="14.993600703555076"><ele>220.0</ele><time>2026-03-28T16:04:46Z</time></trkpt><trkpt lat="36.89062721843543" lon="14.993413267233128"><ele>219.99999999999997</ele><time>2026-03-28T16:04:48Z</time></trkpt><trkpt lat="36.89062774198426" lon="14.993330441640051"><ele>220.0</ele><time>2026-03-28T16:04:49Z</time></trkpt><trkpt lat="36.8906280697936" lon="14.993239628699342"><ele>220.0</ele><time>2026-03-28T16:04:51Z</time></trkpt><trkpt lat="36.890628069788995" lon="14.993152796231401"><ele>220.0</ele><time>2026-03-28T16:04:55Z</time></trkpt><trkpt lat="36.89071510023407" lon="14.993178895427725"><ele>219.99999999999997</ele><time>2026-03-28T16:06:22.999Z</time></trkpt><trkpt lat="36.89076466400223" lon="14.993282984791419"><ele>220.0</ele><time>2026-03-28T16:06:23.999Z</time></trkpt><trkpt lat="36.89080729246977" lon="14.9933788785606"><ele>219.99999999999997</ele><time>2026-03-28T16:06:24.999Z</time></trkpt><trkpt lat="36.89084463738993" lon="14.993466435817597"><ele>220.0</ele><time>2026-03-28T16:06:25.999Z</time></trkpt><trkpt lat="36.89087850835049" lon="14.993547095164569"><ele>220.0</ele><time>2026-03-28T16:06:26.999Z</time></trkpt><trkpt lat="36.89091682561104" lon="14.993633693076532"><ele>220.0</ele><time>2026-03-28T16:06:27.999Z</time></trkpt><trkpt lat="36.89095083231419" lon="14.993704887954518"><ele>219.99999999999997</ele><time>2026-03-28T16:06:28.999Z</time></trkpt><trkpt lat="36.89098500601371" lon="14.99377281657405"><ele>220.0</ele><time>2026-03-28T16:06:29.999Z</time></trkpt><trkpt lat="36.89104639065942" lon="14.993867473657874"><ele>225.4</ele><time>2026-03-28T16:06:31.999Z</time></trkpt><trkpt lat="36.89111166397631" lon="14.993927976440833"><ele>230.8</ele><time>2026-03-28T16:06:33.999Z</time></trkpt><trkpt lat="36.891173285224" lon="14.994019562668374"><ele>236.2</ele><time>2026-03-28T16:06:35.999Z</time></trkpt><trkpt lat="36.89120432599479" lon="14.994145984016507"><ele>241.6</ele><time>2026-03-28T16:06:37.999Z</time></trkpt><trkpt lat="36.89124662920696" lon="14.994273554875134"><ele>247.0</ele><time>2026-03-28T16:06:39.999Z</time></trkpt><trkpt lat="36.89128915188753" lon="14.99440873021967"><ele>247.0</ele><time>2026-03-28T16:06:41.999Z</time></trkpt><trkpt lat="36.89133648493096" lon="14.994549373759885"><ele>247.0</ele><time>2026-03-28T16:06:43.999Z</time></trkpt><trkpt lat="36.89139685414807" lon="14.994690931688604"><ele>247.0</ele><time>2026-03-28T16:06:45.999Z</time></trkpt><trkpt lat="36.89146438478939" lon="14.99482851602089"><ele>247.0</ele><time>2026-03-28T16:06:47.999Z</time></trkpt><trkpt lat="36.89150882871508" lon="14.9948949109277"><ele>247.0</ele><time>2026-03-28T16:06:48.999Z</time></trkpt><trkpt lat="36.891563018394486" lon="14.994960472635432"><ele>246.85714285714286</ele><time>2026-03-28T16:06:49.999Z</time></trkpt><trkpt lat="36.891611744798944" lon="14.995021323146538"><ele>246.71428571428572</ele><time>2026-03-28T16:06:51Z</time></trkpt><trkpt lat="36.89166081874766" lon="14.99508428539208"><ele>246.57142857142858</ele><time>2026-03-28T16:06:52Z</time></trkpt><trkpt lat="36.891705288904184" lon="14.995150906819205"><ele>246.42857142857144</ele><time>2026-03-28T16:06:53Z</time></trkpt><trkpt lat="36.89174493586841" lon="14.9952315071023"><ele>246.28571428571428</ele><time>2026-03-28T16:06:54Z</time></trkpt><trkpt lat="36.89179081511583" lon="14.995311967710174"><ele>246.14285714285717</ele><time>2026-03-28T16:06:55Z</time></trkpt><trkpt lat="36.89184381232397" lon="14.995372156064525"><ele>246.00000000000003</ele><time>2026-03-28T16:06:56Z</time></trkpt><trkpt lat="36.891885101644505" lon="14.995432330174301"><ele>246.71428571428575</ele><time>2026-03-28T16:06:57Z</time></trkpt><trkpt lat="36.891900764081896" lon="14.995529827760027"><ele>247.42857142857144</ele><time>2026-03-28T16:06:58Z</time></trkpt><trkpt lat="36.89194102065054" lon="14.995592929569384"><ele>248.14285714285714</ele><time>2026-03-28T16:06:59Z</time></trkpt><trkpt lat="36.891973285452" lon="14.995673711051575"><ele>248.85714285714286</ele><time>2026-03-28T16:07:01Z</time></trkpt><trkpt lat="36.89202534735899" lon="14.995719401313046"><ele>249.57142857142856</ele><time>2026-03-28T16:07:04Z</time></trkpt><trkpt lat="36.8920937198683" lon="14.995777614185855"><ele>250.28571428571425</ele><time>2026-03-28T16:07:07Z</time></trkpt><trkpt lat="36.89217067738769" lon="14.995806015326398"><ele>250.99999999999997</ele><time>2026-03-28T16:07:09Z</time></trkpt><trkpt lat="36.8922470431929" lon="14.995825160167923"><ele>250.8</ele><time>2026-03-28T16:07:11Z</time></trkpt><trkpt lat="36.89234429409982" lon="14.995845817080825"><ele>250.60000000000002</ele><time>2026-03-28T16:07:13Z</time></trkpt><trkpt lat="36.892435975579396" lon="14.995861798601522"><ele>250.4</ele><time>2026-03-28T16:07:15Z</time></trkpt><trkpt lat="36.89252564332077" lon="14.995878302717454"><ele>250.2</ele><time>2026-03-28T16:07:17Z</time></trkpt><trkpt lat="36.892626039903455" lon="14.995893828102435"><ele>250.0</ele><time>2026-03-28T16:07:19Z</time></trkpt><trkpt lat="36.8927147703619" lon="14.995900235949495"><ele>250.0</ele><time>2026-03-28T16:07:21Z</time></trkpt><trkpt lat="36.89279654579967" lon="14.99589827638751"><ele>250.0</ele><time>2026-03-28T16:07:23Z</time></trkpt><trkpt lat="36.89287302525322" lon="14.99588130862908"><ele>250.0</ele><time>2026-03-28T16:07:27Z</time></trkpt><trkpt lat="36.89295780028735" lon="14.995769716475314"><ele>250.0</ele><time>2026-03-28T16:07:29Z</time></trkpt><trkpt lat="36.893039987388164" lon="14.99573823331806"><ele>250.0</ele><time>2026-03-28T16:07:31Z</time></trkpt><trkpt lat="36.892956634563745" lon="14.995750884913862"><ele>250.0</ele><time>2026-03-28T16:08:44.999Z</time></trkpt><trkpt lat="36.892899318065645" lon="14.995809535017042"><ele>250.0</ele><time>2026-03-28T16:08:50.999Z</time></trkpt><trkpt lat="36.89283943280547" lon="14.995845473555503"><ele>250.0</ele><time>2026-03-28T16:09:06Z</time></trkpt><trkpt lat="36.89277283208688" lon="14.995838731126673"><ele>250.0</ele><time>2026-03-28T16:09:38Z</time></trkpt><trkpt lat="36.892710853453046" lon="14.99585261354001"><ele>250.0</ele><time>2026-03-28T16:09:50Z</time></trkpt><trkpt lat="36.89264825395702" lon="14.99586583315308"><ele>250.0</ele><time>2026-03-28T16:09:57Z</time></trkpt><trkpt lat="36.8925855453727" lon="14.99587579108405"><ele>250.0</ele><time>2026-03-28T16:10:03Z</time></trkpt><trkpt lat="36.8926494939804" lon="14.995827903028234"><ele>250.28571428571428</ele><time>2026-03-28T16:10:24.999Z</time></trkpt><trkpt lat="36.89271215579394" lon="14.995818897012361"><ele>250.57142857142858</ele><time>2026-03-28T16:10:33.999Z</time></trkpt><trkpt lat="36.89278810292897" lon="14.995805963635563"><ele>250.85714285714286</ele><time>2026-03-28T16:10:38.999Z</time></trkpt><trkpt lat="36.89285822286673" lon="14.995831405926198"><ele>251.14285714285714</ele><time>2026-03-28T16:10:43.999Z</time></trkpt><trkpt lat="36.892923181656855" lon="14.995780920274804"><ele>251.42857142857144</ele><time>2026-03-28T16:11:10Z</time></trkpt><trkpt lat="36.89298770804798" lon="14.995725224473171"><ele>251.71428571428572</ele><time>2026-03-28T16:11:15Z</time></trkpt><trkpt lat="36.89305733142364" lon="14.995697713954723"><ele>252.0</ele><time>2026-03-28T16:11:21Z</time></trkpt><trkpt lat="36.89299322631818" lon="14.995718346835428"><ele>252.0</ele><time>2026-03-28T16:12:05Z</time></trkpt><trkpt lat="36.8929397672717" lon="14.995760106404049"><ele>252.0</ele><time>2026-03-28T16:12:06Z</time></trkpt><trkpt lat="36.89287838151885" lon="14.995814681766726"><ele>252.0</ele><time>2026-03-28T16:12:09Z</time></trkpt><trkpt lat="36.892826859215425" lon="14.995878294257128"><ele>252.0</ele><time>2026-03-28T16:13:10Z</time></trkpt><trkpt lat="36.89277221505357" lon="14.995942935016055"><ele>252.0</ele><time>2026-03-28T16:13:12Z</time></trkpt><trkpt lat="36.89273385665729" lon="14.996057185748512"><ele>252.0</ele><time>2026-03-28T16:13:14Z</time></trkpt><trkpt lat="36.89267182858421" lon="14.996167421751966"><ele>251.66666666666666</ele><time>2026-03-28T16:13:16Z</time></trkpt><trkpt lat="36.892616494527694" lon="14.996220517536026"><ele>251.33333333333331</ele><time>2026-03-28T16:13:17Z</time></trkpt><trkpt lat="36.892560109272" lon="14.996269837126768"><ele>251.0</ele><time>2026-03-28T16:13:18Z</time></trkpt><trkpt lat="36.89249044623036" lon="14.99636113659585"><ele>250.66666666666666</ele><time>2026-03-28T16:13:20Z</time></trkpt><trkpt lat="36.89247210611466" lon="14.996486037368566"><ele>250.33333333333331</ele><time>2026-03-28T16:13:22Z</time></trkpt><trkpt lat="36.89252845073103" lon="14.99659643426722"><ele>250.0</ele><time>2026-03-28T16:13:24Z</time></trkpt><trkpt lat="36.892562154334094" lon="14.996666185090904"><ele>250.6</ele><time>2026-03-28T16:13:25Z</time></trkpt><trkpt lat="36.89260999741305" lon="14.996753278948304"><ele>251.2</ele><time>2026-03-28T16:13:26Z</time></trkpt><trkpt lat="36.89266469854909" lon="14.996848091052945"><ele>251.8</ele><time>2026-03-28T16:13:27Z</time></trkpt><trkpt lat="36.892714391261066" lon="14.996933424120314"><ele>252.4</ele><time>2026-03-28T16:13:28Z</time></trkpt><trkpt lat="36.89278323916119" lon="14.99705165083422"><ele>253.0</ele><time>2026-03-28T16:13:29Z</time></trkpt><trkpt lat="36.89285847213607" lon="14.997180842076137"><ele>253.0</ele><time>2026-03-28T16:13:30Z</time></trkpt><trkpt lat="36.892936917977444" lon="14.997315550507633"><ele>253.0</ele><time>2026-03-28T16:13:31Z</time></trkpt><trkpt lat="36.893010897301764" lon="14.997442588967068"><ele>253.0</ele><time>2026-03-28T16:13:32Z</time></trkpt><trkpt lat="36.89307924397731" lon="14.997559954927803"><ele>253.0</ele><time>2026-03-28T16:13:33Z</time></trkpt><trkpt lat="36.893137952905846" lon="14.997661127457029"><ele>253.0</ele><time>2026-03-28T16:13:34Z</time></trkpt><trkpt lat="36.89320486413064" lon="14.997742882984161"><ele>253.0</ele><time>2026-03-28T16:13:35Z</time></trkpt><trkpt lat="36.893245267647615" lon="14.997847209239358"><ele>253.0</ele><time>2026-03-28T16:13:36Z</time></trkpt><trkpt lat="36.893297545881936" lon="14.997938173703366"><ele>253.0</ele><time>2026-03-28T16:13:37Z</time></trkpt><trkpt lat="36.8933488676081" lon="14.998029791885836"><ele>253.0</ele><time>2026-03-28T16:13:38Z</time></trkpt><trkpt lat="36.89339492341552" lon="14.998131048513264"><ele>253.8</ele><time>2026-03-28T16:13:39Z</time></trkpt><trkpt lat="36.89343496199294" lon="14.998229056904247"><ele>254.60000000000002</ele><time>2026-03-28T16:13:40Z</time></trkpt><trkpt lat="36.893474820384384" lon="14.998318358725435"><ele>255.39999999999998</ele><time>2026-03-28T16:13:41Z</time></trkpt><trkpt lat="36.893557877084405" lon="14.998410878669253"><ele>256.2</ele><time>2026-03-28T16:13:43Z</time></trkpt><trkpt lat="36.89365108032561" lon="14.998501543292422"><ele>257.0</ele><time>2026-03-28T16:13:45Z</time></trkpt><trkpt lat="36.89370413652552" lon="14.998555891561528"><ele>257.0</ele><time>2026-03-28T16:13:46Z</time></trkpt><trkpt lat="36.89377651714507" lon="14.9986115018282"><ele>257.0</ele><time>2026-03-28T16:13:47Z</time></trkpt><trkpt lat="36.89384356025881" lon="14.998688636061178"><ele>257.0</ele><time>2026-03-28T16:13:48Z</time></trkpt><trkpt lat="36.89391086109124" lon="14.998759315625644"><ele>257.0</ele><time>2026-03-28T16:13:49Z</time></trkpt><trkpt lat="36.893987347335454" lon="14.99883237590612"><ele>257.0</ele><time>2026-03-28T16:13:50Z</time></trkpt><trkpt lat="36.894063102965944" lon="14.998909061616105"><ele>257.0</ele><time>2026-03-28T16:13:51Z</time></trkpt><trkpt lat="36.89413973495991" lon="14.99898005791011"><ele>257.0</ele><time>2026-03-28T16:13:52Z</time></trkpt><trkpt lat="36.89420950936488" lon="14.999057707062052"><ele>257.0</ele><time>2026-03-28T16:13:53Z</time></trkpt><trkpt lat="36.894284588485775" lon="14.999132043258633"><ele>257.0</ele><time>2026-03-28T16:13:54Z</time></trkpt><trkpt lat="36.89435730251613" lon="14.999216607734626"><ele>257.0</ele><time>2026-03-28T16:13:55Z</time></trkpt><trkpt lat="36.89443006508978" lon="14.999297185825032"><ele>257.4</ele><time>2026-03-28T16:13:56Z</time></trkpt><trkpt lat="36.89451020987133" lon="14.999379420108175"><ele>257.79999999999995</ele><time>2026-03-28T16:13:57Z</time></trkpt><trkpt lat="36.89458924278829" lon="14.99946141331459"><ele>258.2</ele><time>2026-03-28T16:13:58Z</time></trkpt><trkpt lat="36.89467070677514" lon="14.999535281135556"><ele>258.59999999999997</ele><time>2026-03-28T16:13:59Z</time></trkpt><trkpt lat="36.894742543363165" lon="14.999598372954834"><ele>259.0</ele><time>2026-03-28T16:14:00Z</time></trkpt><trkpt lat="36.89480281878525" lon="14.999669974380671"><ele>259.0</ele><time>2026-03-28T16:14:01Z</time></trkpt><trkpt lat="36.89487280195228" lon="14.999770560374518"><ele>259.0</ele><time>2026-03-28T16:14:03Z</time></trkpt><trkpt lat="36.894920297942654" lon="14.999869637298268"><ele>259.0</ele><time>2026-03-28T16:14:05Z</time></trkpt><trkpt lat="36.8949809544387" lon="14.999986889196165"><ele>259.0</ele><time>2026-03-28T16:14:07Z</time></trkpt><trkpt lat="36.89500976028944" lon="15.000059951278248"><ele>259.0</ele><time>2026-03-28T16:14:08Z</time></trkpt><trkpt lat="36.89505626505273" lon="15.000181506028794"><ele>259.0</ele><time>2026-03-28T16:14:10Z</time></trkpt><trkpt lat="36.89507237981014" lon="15.000261032809222"><ele>259.0</ele><time>2026-03-28T16:14:11Z</time></trkpt><trkpt lat="36.895113142186375" lon="15.000370400798404"><ele>259.0</ele><time>2026-03-28T16:14:13Z</time></trkpt><trkpt lat="36.89513809253569" lon="15.000452970691402"><ele>259.0</ele><time>2026-03-28T16:14:14Z</time></trkpt><trkpt lat="36.89515813681471" lon="15.000542079260597"><ele>259.0</ele><time>2026-03-28T16:14:15Z</time></trkpt><trkpt lat="36.89518153473266" lon="15.000632042009347"><ele>259.0</ele><time>2026-03-28T16:14:16Z</time></trkpt><trkpt lat="36.895170147182455" lon="15.000727969432333"><ele>259.8333333333333</ele><time>2026-03-28T16:14:17Z</time></trkpt><trkpt lat="36.89517159321858" lon="15.00083030376225"><ele>260.66666666666663</ele><time>2026-03-28T16:14:18Z</time></trkpt><trkpt lat="36.895172680418796" lon="15.000936538848505"><ele>261.5</ele><time>2026-03-28T16:14:19Z</time></trkpt><trkpt lat="36.895176486761144" lon="15.001035027535412"><ele>262.3333333333333</ele><time>2026-03-28T16:14:20Z</time></trkpt><trkpt lat="36.89519972686452" lon="15.001119449736846"><ele>263.1666666666667</ele><time>2026-03-28T16:14:21Z</time></trkpt><trkpt lat="36.895218215132225" lon="15.001254397305965"><ele>264.0</ele><time>2026-03-28T16:14:23Z</time></trkpt><trkpt lat="36.89524443424276" lon="15.00140323912662"><ele>264.0</ele><time>2026-03-28T16:14:25Z</time></trkpt><trkpt lat="36.89526820093337" lon="15.0014951979172"><ele>264.0</ele><time>2026-03-28T16:14:26Z</time></trkpt><trkpt lat="36.895298639573916" lon="15.00160020478561"><ele>264.0</ele><time>2026-03-28T16:14:27Z</time></trkpt><trkpt lat="36.895339000662794" lon="15.001705225225058"><ele>264.0</ele><time>2026-03-28T16:14:28Z</time></trkpt><trkpt lat="36.895383406814425" lon="15.001808330011682"><ele>264.0</ele><time>2026-03-28T16:14:29Z</time></trkpt><trkpt lat="36.89542454039588" lon="15.001896592380422"><ele>264.0</ele><time>2026-03-28T16:14:30Z</time></trkpt><trkpt lat="36.895468634901995" lon="15.001982352937317"><ele>263.5</ele><time>2026-03-28T16:14:31Z</time></trkpt><trkpt lat="36.89551205747878" lon="15.002054355391275"><ele>263.0</ele><time>2026-03-28T16:14:32Z</time></trkpt><trkpt lat="36.89555611068094" lon="15.002117331851816"><ele>262.5</ele><time>2026-03-28T16:14:33Z</time></trkpt><trkpt lat="36.895616513220375" lon="15.002211085070593"><ele>262.0</ele><time>2026-03-28T16:14:35Z</time></trkpt><trkpt lat="36.895649983839924" lon="15.002281077096344"><ele>261.5</ele><time>2026-03-28T16:14:44.999Z</time></trkpt><trkpt lat="36.895688669247505" lon="15.002365252101804"><ele>261.0</ele><time>2026-03-28T16:14:48.999Z</time></trkpt><trkpt lat="36.895827539264566" lon="15.002438107271669"><ele>261.0</ele><time>2026-03-28T16:14:51.999Z</time></trkpt><trkpt lat="36.89589592632254" lon="15.002488534736642"><ele>261.0</ele><time>2026-03-28T16:14:53.999Z</time></trkpt><trkpt lat="36.89596034422742" lon="15.002563353308867"><ele>261.0</ele><time>2026-03-28T16:14:55.999Z</time></trkpt><trkpt lat="36.89602879477832" lon="15.002632696042888"><ele>261.0</ele><time>2026-03-28T16:14:57.999Z</time></trkpt><trkpt lat="36.896088415572045" lon="15.002691707848413"><ele>261.0</ele><time>2026-03-28T16:15:00.999Z</time></trkpt><trkpt lat="36.89615653774493" lon="15.00277642054641"><ele>261.0</ele><time>2026-03-28T16:15:03.999Z</time></trkpt><trkpt lat="36.8962356454911" lon="15.002826014039188"><ele>261.5</ele><time>2026-03-28T16:15:06.999Z</time></trkpt><trkpt lat="36.896275208446006" lon="15.00293570636703"><ele>262.0</ele><time>2026-03-28T16:15:09.999Z</time></trkpt><trkpt lat="36.89632282897339" lon="15.002999089987465"><ele>262.5</ele><time>2026-03-28T16:15:12.999Z</time></trkpt><trkpt lat="36.89638667546385" lon="15.00304626567961"><ele>263.0</ele><time>2026-03-28T16:15:16Z</time></trkpt><trkpt lat="36.89644303647447" lon="15.003123074316399"><ele>263.5</ele><time>2026-03-28T16:15:19Z</time></trkpt><trkpt lat="36.89650214476482" lon="15.003186420987882"><ele>264.0</ele><time>2026-03-28T16:15:21Z</time></trkpt><trkpt lat="36.896561129909955" lon="15.003237467164018"><ele>264.0</ele><time>2026-03-28T16:15:23Z</time></trkpt><trkpt lat="36.89663306137226" lon="15.003266887131405"><ele>264.0</ele><time>2026-03-28T16:15:26Z</time></trkpt><trkpt lat="36.89671337110401" lon="15.00333266552035"><ele>264.0</ele><time>2026-03-28T16:15:29Z</time></trkpt><trkpt lat="36.896792656658896" lon="15.003382169873326"><ele>264.0</ele><time>2026-03-28T16:15:32Z</time></trkpt><trkpt lat="36.89684870621768" lon="15.003426737584187"><ele>264.0</ele><time>2026-03-28T16:15:34Z</time></trkpt><trkpt lat="36.896895312961114" lon="15.00348638038406"><ele>264.0</ele><time>2026-03-28T16:15:36Z</time></trkpt><trkpt lat="36.89693980407109" lon="15.00354857456477"><ele>261.3333333333333</ele><time>2026-03-28T16:15:38Z</time></trkpt><trkpt lat="36.89700686203336" lon="15.003628163977462"><ele>258.6666666666667</ele><time>2026-03-28T16:15:41Z</time></trkpt><trkpt lat="36.897066412334944" lon="15.003670241148996"><ele>256.0</ele><time>2026-03-28T16:15:43Z</time></trkpt><trkpt lat="36.89711969080755" lon="15.003741655485868"><ele>253.33333333333334</ele><time>2026-03-28T16:15:46Z</time></trkpt><trkpt lat="36.89718113105485" lon="15.003803243658949"><ele>250.66666666666669</ele><time>2026-03-28T16:15:49Z</time></trkpt><trkpt lat="36.89724399252218" lon="15.003869675652643"><ele>248.0</ele><time>2026-03-28T16:15:52Z</time></trkpt><trkpt lat="36.89732348976086" lon="15.003963330614217"><ele>248.00000000000003</ele><time>2026-03-28T16:15:55Z</time></trkpt><trkpt lat="36.8973899405797" lon="15.004030151495778"><ele>248.0</ele><time>2026-03-28T16:15:57Z</time></trkpt><trkpt lat="36.89742977006435" lon="15.004124826474872"><ele>248.0</ele><time>2026-03-28T16:15:59Z</time></trkpt><trkpt lat="36.89748336295903" lon="15.004219457087611"><ele>248.0</ele><time>2026-03-28T16:16:01Z</time></trkpt><trkpt lat="36.8975332909722" lon="15.004303506715132"><ele>248.00000000000003</ele><time>2026-03-28T16:16:03Z</time></trkpt><trkpt lat="36.89757372769918" lon="15.004370727895136"><ele>248.0</ele><time>2026-03-28T16:16:06Z</time></trkpt><trkpt lat="36.897604683215214" lon="15.004460412634312"><ele>245.50000000000003</ele><time>2026-03-28T16:16:08Z</time></trkpt><trkpt lat="36.89764974369445" lon="15.004539823659847"><ele>243.0</ele><time>2026-03-28T16:16:10Z</time></trkpt><trkpt lat="36.89770514765352" lon="15.00463261406467"><ele>240.5</ele><time>2026-03-28T16:16:13Z</time></trkpt><trkpt lat="36.89774718425053" lon="15.004700850303966"><ele>238.0</ele><time>2026-03-28T16:16:15Z</time></trkpt><trkpt lat="36.89778508586251" lon="15.004768806967471"><ele>235.50000000000003</ele><time>2026-03-28T16:16:17Z</time></trkpt><trkpt lat="36.897840478698875" lon="15.004839124567253"><ele>233.0</ele><time>2026-03-28T16:16:19Z</time></trkpt><trkpt lat="36.897892656774964" lon="15.00489861654713"><ele>232.60000000000002</ele><time>2026-03-28T16:16:22Z</time></trkpt><trkpt lat="36.897923804826235" lon="15.005012583701046"><ele>232.20000000000002</ele><time>2026-03-28T16:16:25Z</time></trkpt><trkpt lat="36.897945420128124" lon="15.005159711426915"><ele>231.8</ele><time>2026-03-28T16:16:27Z</time></trkpt><trkpt lat="36.89796531285667" lon="15.005256097107356"><ele>231.4</ele><time>2026-03-28T16:16:29Z</time></trkpt><trkpt lat="36.89796347391834" lon="15.005335894347954"><ele>231.0</ele><time>2026-03-28T16:16:30Z</time></trkpt><trkpt lat="36.897971737411694" lon="15.005483703403213"><ele>231.0</ele><time>2026-03-28T16:16:32Z</time></trkpt><trkpt lat="36.897990501076" lon="15.00556811004686"><ele>231.0</ele><time>2026-03-28T16:16:33Z</time></trkpt><trkpt lat="36.89800648756183" lon="15.005645267186136"><ele>231.0</ele><time>2026-03-28T16:16:34Z</time></trkpt><trkpt lat="36.898005744999935" lon="15.005747255831151"><ele>231.0</ele><time>2026-03-28T16:16:36Z</time></trkpt><trkpt lat="36.89803738433488" lon="15.005854017525904"><ele>231.0</ele><time>2026-03-28T16:16:38Z</time></trkpt><trkpt lat="36.89805925173159" lon="15.005946373058563"><ele>231.0</ele><time>2026-03-28T16:16:41Z</time></trkpt><trkpt lat="36.89806662664169" lon="15.006037167185491"><ele>230.85714285714286</ele><time>2026-03-28T16:17:31Z</time></trkpt><trkpt lat="36.89810394426995" lon="15.006134759803494"><ele>230.71428571428572</ele><time>2026-03-28T16:17:52Z</time></trkpt><trkpt lat="36.89813783799277" lon="15.006214821227628"><ele>230.57142857142856</ele><time>2026-03-28T16:17:55Z</time></trkpt><trkpt lat="36.89816022300618" lon="15.006293285262213"><ele>230.42857142857142</ele><time>2026-03-28T16:18:41Z</time></trkpt><trkpt lat="36.89818042033422" lon="15.006376350953072"><ele>230.28571428571428</ele><time>2026-03-28T16:18:47Z</time></trkpt><trkpt lat="36.89821133856014" lon="15.006454691167095"><ele>230.1428571428571</ele><time>2026-03-28T16:18:57Z</time></trkpt><trkpt lat="36.89824475322047" lon="15.00654126244746"><ele>229.99999999999997</ele><time>2026-03-28T16:20:49Z</time></trkpt><trkpt lat="36.89829043284154" lon="15.006642122443973"><ele>229.71428571428567</ele><time>2026-03-28T16:20:51Z</time></trkpt><trkpt lat="36.89833429193563" lon="15.00672963011749"><ele>229.42857142857142</ele><time>2026-03-28T16:20:53Z</time></trkpt><trkpt lat="36.898374614460636" lon="15.006802939809843"><ele>229.1428571428571</ele><time>2026-03-28T16:20:55Z</time></trkpt><trkpt lat="36.898422562826255" lon="15.006883490643418"><ele>228.85714285714283</ele><time>2026-03-28T16:20:58Z</time></trkpt><trkpt lat="36.89846681230509" lon="15.006949864832567"><ele>228.57142857142856</ele><time>2026-03-28T16:21:15.999Z</time></trkpt><trkpt lat="36.898507888814486" lon="15.007011479593887"><ele>228.28571428571428</ele><time>2026-03-28T16:22:14Z</time></trkpt><trkpt lat="36.898548326099196" lon="15.007072135546014"><ele>228.0</ele><time>2026-03-28T16:22:18Z</time></trkpt><trkpt lat="36.89859262091732" lon="15.007145763723804"><ele>229.16666666666666</ele><time>2026-03-28T16:22:20Z</time></trkpt><trkpt lat="36.89865972165168" lon="15.007230407304851"><ele>230.33333333333331</ele><time>2026-03-28T16:22:22Z</time></trkpt><trkpt lat="36.89869196897409" lon="15.007318011956714"><ele>231.5</ele><time>2026-03-28T16:22:24Z</time></trkpt><trkpt lat="36.8987412641758" lon="15.007378359736403"><ele>232.66666666666666</ele><time>2026-03-28T16:22:26Z</time></trkpt><trkpt lat="36.89879291789225" lon="15.007435018979669"><ele>233.83333333333331</ele><time>2026-03-28T16:22:29Z</time></trkpt><trkpt lat="36.89886122969152" lon="15.007484525529442"><ele>235.0</ele><time>2026-03-28T16:22:57Z</time></trkpt><trkpt lat="36.89893325584944" lon="15.007536722479085"><ele>235.0</ele><time>2026-03-28T16:23:57Z</time></trkpt><trkpt lat="36.898987905482926" lon="15.00759644354009"><ele>234.99999999999997</ele><time>2026-03-28T16:24:24Z</time></trkpt><trkpt lat="36.89905108961389" lon="15.007634126685145"><ele>235.0</ele><time>2026-03-28T16:24:33Z</time></trkpt><trkpt lat="36.89911866727167" lon="15.007670021162195"><ele>235.0</ele><time>2026-03-28T16:24:48Z</time></trkpt><trkpt lat="36.899183581452384" lon="15.007686705491949"><ele>234.99999999999997</ele><time>2026-03-28T16:25:00Z</time></trkpt><trkpt lat="36.89924378324045" lon="15.007725015668377"><ele>235.0</ele><time>2026-03-28T16:25:08Z</time></trkpt><trkpt lat="36.89930227767401" lon="15.007760195232512"><ele>235.0</ele><time>2026-03-28T16:25:14Z</time></trkpt><trkpt lat="36.8993778854496" lon="15.007848399516396"><ele>235.14285714285714</ele><time>2026-03-28T16:25:19.999Z</time></trkpt><trkpt lat="36.89943794384338" lon="15.007920111725202"><ele>235.28571428571428</ele><time>2026-03-28T16:25:22.999Z</time></trkpt><trkpt lat="36.89949103546814" lon="15.007971079321708"><ele>235.42857142857142</ele><time>2026-03-28T16:25:25.999Z</time></trkpt><trkpt lat="36.89952094536139" lon="15.00804357524262"><ele>235.57142857142856</ele><time>2026-03-28T16:26:01Z</time></trkpt><trkpt lat="36.89956579170812" lon="15.008111588762862"><ele>235.71428571428572</ele><time>2026-03-28T16:28:44Z</time></trkpt><trkpt lat="36.899581695302444" lon="15.008190947611237"><ele>235.85714285714283</ele><time>2026-03-28T16:28:46Z</time></trkpt><trkpt lat="36.899628956572684" lon="15.008270551588346"><ele>236.0</ele><time>2026-03-28T16:28:48Z</time></trkpt><trkpt lat="36.899649596958724" lon="15.008368577527877"><ele>235.33333333333334</ele><time>2026-03-28T16:28:50Z</time></trkpt><trkpt lat="36.899670175094954" lon="15.008458836455794"><ele>234.66666666666669</ele><time>2026-03-28T16:28:52Z</time></trkpt><trkpt lat="36.899696028319106" lon="15.008541892424242"><ele>234.0</ele><time>2026-03-28T16:28:54Z</time></trkpt><trkpt lat="36.89970801275437" lon="15.00862923157465"><ele>233.33333333333331</ele><time>2026-03-28T16:28:56Z</time></trkpt><trkpt lat="36.899727141069185" lon="15.008722877742038"><ele>232.66666666666666</ele><time>2026-03-28T16:28:58Z</time></trkpt><trkpt lat="36.899746059957586" lon="15.008833983756583"><ele>232.0</ele><time>2026-03-28T16:29:00Z</time></trkpt><trkpt lat="36.89978753585978" lon="15.008926600754625"><ele>231.99999999999997</ele><time>2026-03-28T16:29:02Z</time></trkpt><trkpt lat="36.89980494391579" lon="15.00902446748123"><ele>232.0</ele><time>2026-03-28T16:29:04Z</time></trkpt><trkpt lat="36.89983016662542" lon="15.009102166916843"><ele>232.0</ele><time>2026-03-28T16:29:06Z</time></trkpt><trkpt lat="36.899881218645056" lon="15.009200704722215"><ele>232.0</ele><time>2026-03-28T16:29:08Z</time></trkpt><trkpt lat="36.899917708636394" lon="15.009308724571879"><ele>231.99999999999997</ele><time>2026-03-28T16:29:10Z</time></trkpt><trkpt lat="36.8999459598334" lon="15.009422887212509"><ele>232.0</ele><time>2026-03-28T16:29:12Z</time></trkpt><trkpt lat="36.89997249031951" lon="15.009495338661173"><ele>231.66666666666666</ele><time>2026-03-28T16:29:15Z</time></trkpt><trkpt lat="36.900011095760476" lon="15.009562349359571"><ele>231.33333333333331</ele><time>2026-03-28T16:32:58Z</time></trkpt><trkpt lat="36.90004305124619" lon="15.009656802277247"><ele>231.0</ele><time>2026-03-28T16:33:01Z</time></trkpt><trkpt lat="36.9000871091639" lon="15.00976963452474"><ele>230.66666666666669</ele><time>2026-03-28T16:33:03Z</time></trkpt><trkpt lat="36.900122300513104" lon="15.00984276801157"><ele>230.33333333333334</ele><time>2026-03-28T16:33:05Z</time></trkpt><trkpt lat="36.900163938567005" lon="15.009922064234537"><ele>230.0</ele><time>2026-03-28T16:33:24Z</time></trkpt><trkpt lat="36.90017884482445" lon="15.010006972915603"><ele>229.66666666666669</ele><time>2026-03-28T16:33:32Z</time></trkpt><trkpt lat="36.90015469966477" lon="15.010102549659013"><ele>229.33333333333334</ele><time>2026-03-28T16:33:34.999Z</time></trkpt><trkpt lat="36.90017744183056" lon="15.01019756502488"><ele>229.0</ele><time>2026-03-28T16:33:38.999Z</time></trkpt><trkpt lat="36.90020779581454" lon="15.010268236066883"><ele>228.66666666666669</ele><time>2026-03-28T16:33:40.999Z</time></trkpt><trkpt lat="36.90019331040407" lon="15.0103759329336"><ele>228.33333333333334</ele><time>2026-03-28T16:33:43.999Z</time></trkpt><trkpt lat="36.90021563830101" lon="15.0105050132479"><ele>228.0</ele><time>2026-03-28T16:33:45.999Z</time></trkpt><trkpt lat="36.9002417284732" lon="15.010609957470061"><ele>228.0</ele><time>2026-03-28T16:33:47.999Z</time></trkpt><trkpt lat="36.90026448048065" lon="15.010699906323548"><ele>228.0</ele><time>2026-03-28T16:33:49.999Z</time></trkpt><trkpt lat="36.90028331795935" lon="15.010780593468862"><ele>228.0</ele><time>2026-03-28T16:33:51.999Z</time></trkpt><trkpt lat="36.90031840673211" lon="15.010887070510579"><ele>228.0</ele><time>2026-03-28T16:33:54.999Z</time></trkpt><trkpt lat="36.90031543596966" lon="15.010983727228135"><ele>228.0</ele><time>2026-03-28T16:33:57.999Z</time></trkpt><trkpt lat="36.90031718557843" lon="15.011091371351789"><ele>228.0</ele><time>2026-03-28T16:34:02.999Z</time></trkpt><trkpt lat="36.900341420183004" lon="15.011179387675028"><ele>228.0</ele><time>2026-03-28T16:34:06.999Z</time></trkpt><trkpt lat="36.9003714097733" lon="15.011275729572883"><ele>228.0</ele><time>2026-03-28T16:34:11Z</time></trkpt><trkpt lat="36.90039757374931" lon="15.01137484251816"><ele>228.0</ele><time>2026-03-28T16:34:34Z</time></trkpt><trkpt lat="36.90043174552361" lon="15.01147925562304"><ele>228.0</ele><time>2026-03-28T16:34:36Z</time></trkpt><trkpt lat="36.90045781896353" lon="15.011583027625377"><ele>228.0</ele><time>2026-03-28T16:34:38Z</time></trkpt><trkpt lat="36.90046055854061" lon="15.011701715785058"><ele>228.0</ele><time>2026-03-28T16:34:41Z</time></trkpt><trkpt lat="36.90045660597653" lon="15.011833248366921"><ele>228.0</ele><time>2026-03-28T16:34:43Z</time></trkpt><trkpt lat="36.900461955594984" lon="15.011952386250362"><ele>228.0</ele><time>2026-03-28T16:34:45Z</time></trkpt><trkpt lat="36.90047436041358" lon="15.012081892571638"><ele>228.0</ele><time>2026-03-28T16:34:53Z</time></trkpt><trkpt lat="36.90049064108027" lon="15.012193182889481"><ele>228.0</ele><time>2026-03-28T16:34:54Z</time></trkpt><trkpt lat="36.90051079056091" lon="15.012310913823585"><ele>228.0</ele><time>2026-03-28T16:34:55Z</time></trkpt><trkpt lat="36.900541131410165" lon="15.012430869774805"><ele>228.33333333333334</ele><time>2026-03-28T16:34:56Z</time></trkpt><trkpt lat="36.90058921457197" lon="15.012537219443415"><ele>228.66666666666669</ele><time>2026-03-28T16:34:57Z</time></trkpt><trkpt lat="36.90060792948967" lon="15.012647383667089"><ele>229.0</ele><time>2026-03-28T16:34:58Z</time></trkpt><trkpt lat="36.90063551816541" lon="15.012721857347817"><ele>229.33333333333334</ele><time>2026-03-28T16:34:59Z</time></trkpt><trkpt lat="36.9006716971068" lon="15.012807260521637"><ele>229.66666666666669</ele><time>2026-03-28T16:35:01Z</time></trkpt><trkpt lat="36.90070635462148" lon="15.012882961866145"><ele>230.0</ele><time>2026-03-28T16:37:31Z</time></trkpt><trkpt lat="36.900747847228466" lon="15.012974449990228"><ele>230.0</ele><time>2026-03-28T16:37:45Z</time></trkpt><trkpt lat="36.9008006238174" lon="15.013055909314625"><ele>230.0</ele><time>2026-03-28T16:37:46Z</time></trkpt><trkpt lat="36.90084438198523" lon="15.013169739618863"><ele>230.0</ele><time>2026-03-28T16:37:47Z</time></trkpt><trkpt lat="36.90090227383969" lon="15.013295141116332"><ele>230.0</ele><time>2026-03-28T16:37:47.999Z</time></trkpt><trkpt lat="36.90095338658166" lon="15.013407158795795"><ele>230.0</ele><time>2026-03-28T16:37:48.999Z</time></trkpt><trkpt lat="36.90099747323155" lon="15.01353595393254"><ele>233.0</ele><time>2026-03-28T16:37:49.999Z</time></trkpt><trkpt lat="36.90106275857129" lon="15.013657987811198"><ele>236.0</ele><time>2026-03-28T16:37:50.999Z</time></trkpt><trkpt lat="36.901133765647046" lon="15.01378977921358"><ele>239.0</ele><time>2026-03-28T16:37:51.999Z</time></trkpt><trkpt lat="36.901210380872726" lon="15.01393141628459"><ele>242.0</ele><time>2026-03-28T16:37:52.999Z</time></trkpt><trkpt lat="36.901284597028024" lon="15.014070099660954"><ele>240.25</ele><time>2026-03-28T16:37:53.999Z</time></trkpt><trkpt lat="36.901365702493706" lon="15.01419093449638"><ele>238.5</ele><time>2026-03-28T16:37:54.999Z</time></trkpt><trkpt lat="36.90142685977155" lon="15.014315193206155"><ele>236.75</ele><time>2026-03-28T16:37:55.999Z</time></trkpt><trkpt lat="36.9014864214513" lon="15.014435082424752"><ele>235.0</ele><time>2026-03-28T16:37:56.999Z</time></trkpt><trkpt lat="36.90154752352493" lon="15.014558258361584"><ele>235.0</ele><time>2026-03-28T16:37:57.999Z</time></trkpt><trkpt lat="36.90161234825888" lon="15.014691371846288"><ele>235.0</ele><time>2026-03-28T16:37:58.999Z</time></trkpt><trkpt lat="36.901668052409725" lon="15.014849777880052"><ele>235.0</ele><time>2026-03-28T16:37:59.999Z</time></trkpt><trkpt lat="36.901743981569794" lon="15.014991472335215"><ele>235.0</ele><time>2026-03-28T16:38:00.999Z</time></trkpt><trkpt lat="36.901825792158355" lon="15.015104409411029"><ele>235.4</ele><time>2026-03-28T16:38:01.999Z</time></trkpt><trkpt lat="36.901887042892234" lon="15.015217381407647"><ele>235.8</ele><time>2026-03-28T16:38:02.999Z</time></trkpt><trkpt lat="36.901940194283505" lon="15.015324934858809"><ele>236.2</ele><time>2026-03-28T16:38:03.999Z</time></trkpt><trkpt lat="36.90199162602674" lon="15.015423071945706"><ele>236.6</ele><time>2026-03-28T16:38:04.999Z</time></trkpt><trkpt lat="36.90203546570466" lon="15.015501896880684"><ele>237.0</ele><time>2026-03-28T16:38:05.999Z</time></trkpt><trkpt lat="36.90207453750574" lon="15.01557674498272"><ele>237.0</ele><time>2026-03-28T16:38:06.999Z</time></trkpt><trkpt lat="36.902101391385436" lon="15.015658752430932"><ele>237.0</ele><time>2026-03-28T16:38:07.999Z</time></trkpt><trkpt lat="36.90216040054095" lon="15.015768251897763"><ele>237.0</ele><time>2026-03-28T16:38:09.999Z</time></trkpt><trkpt lat="36.902230502772866" lon="15.015859300052986"><ele>237.0</ele><time>2026-03-28T16:38:11.999Z</time></trkpt><trkpt lat="36.90233135952096" lon="15.015960517998233"><ele>237.0</ele><time>2026-03-28T16:38:13.999Z</time></trkpt><trkpt lat="36.90239010623951" lon="15.016001811843733"><ele>235.0</ele><time>2026-03-28T16:38:14.999Z</time></trkpt><trkpt lat="36.902495654290036" lon="15.016025294331273"><ele>233.0</ele><time>2026-03-28T16:38:16.999Z</time></trkpt><trkpt lat="36.902566809026624" lon="15.016030588379728"><ele>231.0</ele><time>2026-03-28T16:38:17.999Z</time></trkpt><trkpt lat="36.902660585268315" lon="15.016056664315382"><ele>229.0</ele><time>2026-03-28T16:38:18.999Z</time></trkpt><trkpt lat="36.90275167763398" lon="15.01607193594042"><ele>227.0</ele><time>2026-03-28T16:38:20Z</time></trkpt><trkpt lat="36.90282247957538" lon="15.01606132947841"><ele>225.0</ele><time>2026-03-28T16:38:21Z</time></trkpt><trkpt lat="36.902881590455436" lon="15.01611773819795"><ele>225.0</ele><time>2026-03-28T16:38:22Z</time></trkpt><trkpt lat="36.902958950454604" lon="15.016170793953417"><ele>225.0</ele><time>2026-03-28T16:38:23Z</time></trkpt><trkpt lat="36.90302665498512" lon="15.016226404063213"><ele>225.0</ele><time>2026-03-28T16:38:24Z</time></trkpt><trkpt lat="36.90308264746901" lon="15.016285288565502"><ele>225.0</ele><time>2026-03-28T16:38:25Z</time></trkpt><trkpt lat="36.903137959770035" lon="15.016347189400216"><ele>225.0</ele><time>2026-03-28T16:38:26Z</time></trkpt><trkpt lat="36.90320390876528" lon="15.01642847018336"><ele>225.0</ele><time>2026-03-28T16:38:27Z</time></trkpt><trkpt lat="36.903284867266635" lon="15.016533359247813"><ele>225.0</ele><time>2026-03-28T16:38:28Z</time></trkpt><trkpt lat="36.90337041196002" lon="15.016644583427171"><ele>225.0</ele><time>2026-03-28T16:38:29Z</time></trkpt><trkpt lat="36.903445677966204" lon="15.016738608822864"><ele>225.0</ele><time>2026-03-28T16:38:30Z</time></trkpt><trkpt lat="36.903511731286706" lon="15.016813235889108"><ele>225.0</ele><time>2026-03-28T16:38:31Z</time></trkpt><trkpt lat="36.90358113209311" lon="15.016890130885644"><ele>225.0</ele><time>2026-03-28T16:38:32Z</time></trkpt><trkpt lat="36.90365351396252" lon="15.016958521275093"><ele>224.16666666666666</ele><time>2026-03-28T16:38:33Z</time></trkpt><trkpt lat="36.903718182539556" lon="15.017019296934649"><ele>223.33333333333331</ele><time>2026-03-28T16:38:34Z</time></trkpt><trkpt lat="36.903770132617566" lon="15.017069823469559"><ele>222.5</ele><time>2026-03-28T16:38:35Z</time></trkpt><trkpt lat="36.90383925008157" lon="15.01718114587154"><ele>221.66666666666666</ele><time>2026-03-28T16:38:37Z</time></trkpt><trkpt lat="36.903863091000254" lon="15.01725967144352"><ele>220.83333333333331</ele><time>2026-03-28T16:38:39Z</time></trkpt><trkpt lat="36.90379588172417" lon="15.017314438921296"><ele>220.0</ele><time>2026-03-28T16:38:41Z</time></trkpt><trkpt lat="36.903688815313515" lon="15.017355080122186"><ele>219.99999999999997</ele><time>2026-03-28T16:38:43Z</time></trkpt><trkpt lat="36.903619413754825" lon="15.017331156706293"><ele>220.0</ele><time>2026-03-28T16:38:44Z</time></trkpt><trkpt lat="36.90355078791798" lon="15.017325396900361"><ele>220.0</ele><time>2026-03-28T16:38:45Z</time></trkpt><trkpt lat="36.90345932223467" lon="15.017336663449102"><ele>220.0</ele><time>2026-03-28T16:38:47Z</time></trkpt><trkpt lat="36.903377833328065" lon="15.017406158550614"><ele>219.99999999999997</ele><time>2026-03-28T16:38:49Z</time></trkpt><trkpt lat="36.903363884068526" lon="15.017520483126578"><ele>220.0</ele><time>2026-03-28T16:38:51Z</time></trkpt><trkpt lat="36.903391867117534" lon="15.017622055167704"><ele>220.8</ele><time>2026-03-28T16:38:53Z</time></trkpt><trkpt lat="36.90355403912529" lon="15.017639427796437"><ele>221.6</ele><time>2026-03-28T16:38:54Z</time></trkpt><trkpt lat="36.90366039578866" lon="15.017679690681518"><ele>222.39999999999998</ele><time>2026-03-28T16:38:55Z</time></trkpt><trkpt lat="36.90373716467492" lon="15.017695415020313"><ele>223.2</ele><time>2026-03-28T16:38:56Z</time></trkpt><trkpt lat="36.903805583040224" lon="15.017709583852026"><ele>224.0</ele><time>2026-03-28T16:38:57Z</time></trkpt><trkpt lat="36.90387035540855" lon="15.017739759789"><ele>224.0</ele><time>2026-03-28T16:38:58Z</time></trkpt><trkpt lat="36.90392493921959" lon="15.017840185687163"><ele>223.99999999999997</ele><time>2026-03-28T16:38:59Z</time></trkpt><trkpt lat="36.903991654460555" lon="15.017947867953533"><ele>223.99999999999997</ele><time>2026-03-28T16:39:00Z</time></trkpt><trkpt lat="36.904101761839186" lon="15.018017107454494"><ele>224.0</ele><time>2026-03-28T16:39:01Z</time></trkpt><trkpt lat="36.90419117882854" lon="15.018088755619235"><ele>224.0</ele><time>2026-03-28T16:39:02Z</time></trkpt><trkpt lat="36.90427389122409" lon="15.018168736634118"><ele>225.0</ele><time>2026-03-28T16:39:03Z</time></trkpt><trkpt lat="36.904337061238884" lon="15.018258276539756"><ele>225.99999999999997</ele><time>2026-03-28T16:39:04Z</time></trkpt><trkpt lat="36.904383358459725" lon="15.01836302344004"><ele>226.99999999999997</ele><time>2026-03-28T16:39:05Z</time></trkpt><trkpt lat="36.90441322431333" lon="15.018479199301185"><ele>228.0</ele><time>2026-03-28T16:39:06Z</time></trkpt><trkpt lat="36.90444105524604" lon="15.018585442061555"><ele>229.0</ele><time>2026-03-28T16:39:07Z</time></trkpt><trkpt lat="36.904463439417306" lon="15.018681460608684"><ele>230.79999999999998</ele><time>2026-03-28T16:39:08Z</time></trkpt><trkpt lat="36.904466855551135" lon="15.018766225957473"><ele>232.59999999999997</ele><time>2026-03-28T16:39:09Z</time></trkpt><trkpt lat="36.90442309220692" lon="15.018851297293661"><ele>234.4</ele><time>2026-03-28T16:39:10Z</time></trkpt><trkpt lat="36.904413118471524" lon="15.018961789310277"><ele>236.2</ele><time>2026-03-28T16:39:11Z</time></trkpt><trkpt lat="36.90439360279926" lon="15.019097571083691"><ele>238.0</ele><time>2026-03-28T16:39:12Z</time></trkpt><trkpt lat="36.90440543863438" lon="15.019246753078765"><ele>241.25</ele><time>2026-03-28T16:39:13Z</time></trkpt><trkpt lat="36.90442150124314" lon="15.019415044532302"><ele>244.5</ele><time>2026-03-28T16:39:14Z</time></trkpt><trkpt lat="36.90441436058238" lon="15.019583211420393"><ele>247.75</ele><time>2026-03-28T16:39:15Z</time></trkpt><trkpt lat="36.904401343672504" lon="15.019736800317904"><ele>251.0</ele><time>2026-03-28T16:39:16Z</time></trkpt><trkpt lat="36.90437149339462" lon="15.019855237378744"><ele>251.0</ele><time>2026-03-28T16:39:17Z</time></trkpt><trkpt lat="36.90435669632355" lon="15.019949869585107"><ele>251.00000000000003</ele><time>2026-03-28T16:39:18Z</time></trkpt><trkpt lat="36.90435148137819" lon="15.02004624563465"><ele>251.00000000000003</ele><time>2026-03-28T16:39:19Z</time></trkpt><trkpt lat="36.90430209704995" lon="15.020144401490468"><ele>251.0</ele><time>2026-03-28T16:39:20Z</time></trkpt><trkpt lat="36.904216825926866" lon="15.020225300298389"><ele>251.0</ele><time>2026-03-28T16:39:21Z</time></trkpt><trkpt lat="36.904139758620516" lon="15.020345528279075"><ele>251.4</ele><time>2026-03-28T16:39:22Z</time></trkpt><trkpt lat="36.90406000112535" lon="15.020432014143584"><ele>251.8</ele><time>2026-03-28T16:39:23Z</time></trkpt><trkpt lat="36.903970478463265" lon="15.020546250364557"><ele>252.20000000000002</ele><time>2026-03-28T16:39:25Z</time></trkpt><trkpt lat="36.90394291614359" lon="15.020647560632046"><ele>252.60000000000002</ele><time>2026-03-28T16:39:27Z</time></trkpt><trkpt lat="36.90389284759958" lon="15.020707155878727"><ele>253.0</ele><time>2026-03-28T16:39:30Z</time></trkpt><trkpt lat="36.90381654009564" lon="15.020847054760136"><ele>257.5</ele><time>2026-03-28T16:39:32Z</time></trkpt><trkpt lat="36.90375412489807" lon="15.02093500208592"><ele>262.0</ele><time>2026-03-28T16:39:33Z</time></trkpt><trkpt lat="36.90370279225188" lon="15.021059419959762"><ele>266.5</ele><time>2026-03-28T16:39:34Z</time></trkpt><trkpt lat="36.903664912208846" lon="15.021206193404497"><ele>271.0</ele><time>2026-03-28T16:39:35Z</time></trkpt><trkpt lat="36.90364083144765" lon="15.021365077031165"><ele>271.0</ele><time>2026-03-28T16:39:36Z</time></trkpt><trkpt lat="36.903631936429434" lon="15.021535436020448"><ele>271.0</ele><time>2026-03-28T16:39:37Z</time></trkpt><trkpt lat="36.9036298711184" lon="15.02170844971121"><ele>271.0</ele><time>2026-03-28T16:39:38Z</time></trkpt><trkpt lat="36.903637592850394" lon="15.021887201448843"><ele>271.0</ele><time>2026-03-28T16:39:39Z</time></trkpt><trkpt lat="36.903645687557" lon="15.022064161409363"><ele>274.0</ele><time>2026-03-28T16:39:40Z</time></trkpt><trkpt lat="36.90366670641891" lon="15.022229974773056"><ele>277.0</ele><time>2026-03-28T16:39:41Z</time></trkpt><trkpt lat="36.90370905101742" lon="15.022388055957283"><ele>280.0</ele><time>2026-03-28T16:39:42Z</time></trkpt><trkpt lat="36.90376751580122" lon="15.022531424802146"><ele>283.0</ele><time>2026-03-28T16:39:43Z</time></trkpt><trkpt lat="36.903832645528816" lon="15.022645929784764"><ele>283.25</ele><time>2026-03-28T16:39:44Z</time></trkpt><trkpt lat="36.90390076673409" lon="15.022736667490596"><ele>283.5</ele><time>2026-03-28T16:39:45Z</time></trkpt><trkpt lat="36.903987427463875" lon="15.022814443545931"><ele>283.75</ele><time>2026-03-28T16:39:46Z</time></trkpt><trkpt lat="36.904092591047416" lon="15.022902551649201"><ele>284.0</ele><time>2026-03-28T16:39:47Z</time></trkpt><trkpt lat="36.90418080234511" lon="15.023002895097974"><ele>285.0</ele><time>2026-03-28T16:39:48Z</time></trkpt><trkpt lat="36.90426060836397" lon="15.023092097950109"><ele>286.0</ele><time>2026-03-28T16:39:49Z</time></trkpt><trkpt lat="36.90434066070495" lon="15.023172407942806"><ele>287.0</ele><time>2026-03-28T16:39:50Z</time></trkpt><trkpt lat="36.90442788335806" lon="15.023248214491627"><ele>288.0</ele><time>2026-03-28T16:39:51Z</time></trkpt><trkpt lat="36.90450914886942" lon="15.023314306248102"><ele>289.0</ele><time>2026-03-28T16:39:52Z</time></trkpt><trkpt lat="36.904567812870035" lon="15.023385698822542"><ele>289.0</ele><time>2026-03-28T16:39:53Z</time></trkpt><trkpt lat="36.904602341647525" lon="15.02347147400191"><ele>289.0</ele><time>2026-03-28T16:39:54Z</time></trkpt><trkpt lat="36.90461423538534" lon="15.023575481056305"><ele>289.0</ele><time>2026-03-28T16:39:55Z</time></trkpt><trkpt lat="36.90461278646197" lon="15.023713801683334"><ele>289.0</ele><time>2026-03-28T16:39:56Z</time></trkpt><trkpt lat="36.9046078151418" lon="15.023875639806912"><ele>289.0</ele><time>2026-03-28T16:39:57Z</time></trkpt><trkpt lat="36.904613649707834" lon="15.024000293441734"><ele>289.0</ele><time>2026-03-28T16:39:57.999Z</time></trkpt><trkpt lat="36.9046383940198" lon="15.024113039848173"><ele>289.0</ele><time>2026-03-28T16:39:58.999Z</time></trkpt><trkpt lat="36.904680795177036" lon="15.02423141925575"><ele>289.0</ele><time>2026-03-28T16:39:59.999Z</time></trkpt><trkpt lat="36.90474714331828" lon="15.024340587607472"><ele>289.0</ele><time>2026-03-28T16:40:00.999Z</time></trkpt><trkpt lat="36.9048410324634" lon="15.024429143543157"><ele>289.0</ele><time>2026-03-28T16:40:01.999Z</time></trkpt><trkpt lat="36.90495496747116" lon="15.024497357653647"><ele>288.59999999999997</ele><time>2026-03-28T16:40:02.999Z</time></trkpt><trkpt lat="36.90506840243366" lon="15.024559296407258"><ele>288.2</ele><time>2026-03-28T16:40:03.999Z</time></trkpt><trkpt lat="36.90515588439507" lon="15.024642819167173"><ele>287.79999999999995</ele><time>2026-03-28T16:40:04.999Z</time></trkpt><trkpt lat="36.90523267958955" lon="15.024707982876668"><ele>287.4</ele><time>2026-03-28T16:40:05.999Z</time></trkpt><trkpt lat="36.905314393390945" lon="15.024767431494032"><ele>287.0</ele><time>2026-03-28T16:40:06.999Z</time></trkpt><trkpt lat="36.90536973847333" lon="15.02488059791018"><ele>288.4</ele><time>2026-03-28T16:40:07.999Z</time></trkpt><trkpt lat="36.90542984315443" lon="15.024990668292734"><ele>289.79999999999995</ele><time>2026-03-28T16:40:08.999Z</time></trkpt><trkpt lat="36.90549668986178" lon="15.025085977276076"><ele>291.2</ele><time>2026-03-28T16:40:09.999Z</time></trkpt><trkpt lat="36.90555137207305" lon="15.02518818195381"><ele>292.59999999999997</ele><time>2026-03-28T16:40:10.999Z</time></trkpt><trkpt lat="36.90562290655866" lon="15.025284449114366"><ele>294.0</ele><time>2026-03-28T16:40:11.999Z</time></trkpt><trkpt lat="36.90571482832997" lon="15.025370252203958"><ele>294.0</ele><time>2026-03-28T16:40:12.999Z</time></trkpt><trkpt lat="36.90580792963091" lon="15.025448200886938"><ele>294.0</ele><time>2026-03-28T16:40:13.999Z</time></trkpt><trkpt lat="36.905909944654006" lon="15.025500559040982"><ele>294.0</ele><time>2026-03-28T16:40:14.999Z</time></trkpt><trkpt lat="36.90600455281686" lon="15.025538006101627"><ele>294.0</ele><time>2026-03-28T16:40:15.999Z</time></trkpt><trkpt lat="36.90609791282428" lon="15.02556989729957"><ele>294.0</ele><time>2026-03-28T16:40:16.999Z</time></trkpt><trkpt lat="36.906186929447124" lon="15.025610219107591"><ele>296.0</ele><time>2026-03-28T16:40:17.999Z</time></trkpt><trkpt lat="36.90627683385565" lon="15.025619024159079"><ele>298.0</ele><time>2026-03-28T16:40:18.999Z</time></trkpt><trkpt lat="36.906345698992425" lon="15.025618991534579"><ele>300.0</ele><time>2026-03-28T16:40:19.999Z</time></trkpt><trkpt lat="36.90645005986319" lon="15.02562108070829"><ele>302.0</ele><time>2026-03-28T16:40:21.999Z</time></trkpt><trkpt lat="36.906514709100954" lon="15.025648483581424"><ele>304.0</ele><time>2026-03-28T16:40:22.999Z</time></trkpt><trkpt lat="36.906576991497715" lon="15.02567852648015"><ele>306.0</ele><time>2026-03-28T16:40:23.999Z</time></trkpt><trkpt lat="36.9066279846232" lon="15.025758085497866"><ele>304.6666666666667</ele><time>2026-03-28T16:40:24.999Z</time></trkpt><trkpt lat="36.90665988771071" lon="15.025858459688735"><ele>303.3333333333333</ele><time>2026-03-28T16:40:26Z</time></trkpt><trkpt lat="36.906686327359935" lon="15.025955140514093"><ele>302.0</ele><time>2026-03-28T16:40:27Z</time></trkpt><trkpt lat="36.906716672244706" lon="15.026036758162833"><ele>300.66666666666663</ele><time>2026-03-28T16:40:28Z</time></trkpt><trkpt lat="36.90676250772641" lon="15.02610462926086"><ele>299.3333333333333</ele><time>2026-03-28T16:40:29Z</time></trkpt><trkpt lat="36.90684004628255" lon="15.026160212523866"><ele>298.0</ele><time>2026-03-28T16:40:30Z</time></trkpt><trkpt lat="36.906920943449535" lon="15.026203034184967"><ele>298.0</ele><time>2026-03-28T16:40:31Z</time></trkpt><trkpt lat="36.90700460246186" lon="15.026225775378645"><ele>298.0</ele><time>2026-03-28T16:40:32Z</time></trkpt><trkpt lat="36.90710189314715" lon="15.026262694281664"><ele>298.0</ele><time>2026-03-28T16:40:33Z</time></trkpt><trkpt lat="36.90719286563258" lon="15.026278040356136"><ele>298.0</ele><time>2026-03-28T16:40:34Z</time></trkpt><trkpt lat="36.90726952520879" lon="15.02629184435515"><ele>298.0</ele><time>2026-03-28T16:40:35Z</time></trkpt><trkpt lat="36.90733986186975" lon="15.026305852082816"><ele>298.0</ele><time>2026-03-28T16:40:36Z</time></trkpt><trkpt lat="36.907410039622334" lon="15.026300012658425"><ele>298.0</ele><time>2026-03-28T16:40:37Z</time></trkpt><trkpt lat="36.907514275549104" lon="15.02633875802346"><ele>298.0</ele><time>2026-03-28T16:40:39Z</time></trkpt><trkpt lat="36.90759515816699" lon="15.026337064412727"><ele>298.0</ele><time>2026-03-28T16:40:41Z</time></trkpt><trkpt lat="36.90767037943194" lon="15.026332450075707"><ele>298.0</ele><time>2026-03-28T16:40:43Z</time></trkpt><trkpt lat="36.90774288225911" lon="15.026321350520622"><ele>298.0</ele><time>2026-03-28T16:40:45Z</time></trkpt><trkpt lat="36.90784630509198" lon="15.0263005823595"><ele>298.0</ele><time>2026-03-28T16:40:47Z</time></trkpt><trkpt lat="36.907897208933655" lon="15.026384588989758"><ele>298.16666666666663</ele><time>2026-03-28T16:40:49Z</time></trkpt><trkpt lat="36.90790259840662" lon="15.026513088432617"><ele>298.3333333333333</ele><time>2026-03-28T16:40:51Z</time></trkpt><trkpt lat="36.90788183583276" lon="15.026588189793285"><ele>298.5</ele><time>2026-03-28T16:42:15.999Z</time></trkpt><trkpt lat="36.90790280739843" lon="15.026674221775234"><ele>298.6666666666667</ele><time>2026-03-28T16:42:54Z</time></trkpt><trkpt lat="36.90785802998822" lon="15.026770151797209"><ele>298.83333333333337</ele><time>2026-03-28T16:42:55Z</time></trkpt><trkpt lat="36.90780518707901" lon="15.0268820286719"><ele>299.0</ele><time>2026-03-28T16:42:56Z</time></trkpt><trkpt lat="36.90777039426172" lon="15.026976600950281"><ele>299.0</ele><time>2026-03-28T16:42:57Z</time></trkpt><trkpt lat="36.9075992677348" lon="15.026905676034898"><ele>299.0</ele><time>2026-03-28T16:42:58Z</time></trkpt><trkpt lat="36.90754512824625" lon="15.026996272889148"><ele>299.0</ele><time>2026-03-28T16:43:00Z</time></trkpt><trkpt lat="36.907505963476545" lon="15.027067446787497"><ele>299.0</ele><time>2026-03-28T16:43:01Z</time></trkpt><trkpt lat="36.907469802318545" lon="15.027147903046112"><ele>299.0</ele><time>2026-03-28T16:43:02Z</time></trkpt><trkpt lat="36.90744864887945" lon="15.027224718279852"><ele>296.1666666666667</ele><time>2026-03-28T16:43:03Z</time></trkpt><trkpt lat="36.90743141500315" lon="15.027325249051497"><ele>293.33333333333337</ele><time>2026-03-28T16:43:05Z</time></trkpt><trkpt lat="36.90742866202556" lon="15.027435470694245"><ele>290.5</ele><time>2026-03-28T16:43:06Z</time></trkpt><trkpt lat="36.907425525263335" lon="15.027515831721768"><ele>287.6666666666667</ele><time>2026-03-28T16:43:07Z</time></trkpt><trkpt lat="36.90741610757588" lon="15.027632539053267"><ele>284.8333333333333</ele><time>2026-03-28T16:43:09Z</time></trkpt><trkpt lat="36.907393511218906" lon="15.027732649820992"><ele>282.0</ele><time>2026-03-28T16:43:11Z</time></trkpt><trkpt lat="36.90732617930973" lon="15.027837806462088"><ele>281.3333333333333</ele><time>2026-03-28T16:43:14Z</time></trkpt><trkpt lat="36.90728213537636" lon="15.027942055311348"><ele>280.6666666666667</ele><time>2026-03-28T16:43:15Z</time></trkpt><trkpt lat="36.90724786206471" lon="15.028037448743905"><ele>280.0</ele><time>2026-03-28T16:43:16Z</time></trkpt><trkpt lat="36.90722152121496" lon="15.028117797229537"><ele>279.33333333333337</ele><time>2026-03-28T16:43:17Z</time></trkpt><trkpt lat="36.907186385584815" lon="15.028228367316606"><ele>278.6666666666667</ele><time>2026-03-28T16:43:19Z</time></trkpt><trkpt lat="36.90715926151354" lon="15.028314510133084"><ele>278.0</ele><time>2026-03-28T16:43:21Z</time></trkpt><trkpt lat="36.90713757256906" lon="15.028388800349871"><ele>276.75</ele><time>2026-03-28T16:43:23Z</time></trkpt><trkpt lat="36.907108639130584" lon="15.028509694348324"><ele>275.5</ele><time>2026-03-28T16:43:25Z</time></trkpt><trkpt lat="36.907074981490496" lon="15.028717257546225"><ele>274.25</ele><time>2026-03-28T16:43:26Z</time></trkpt><trkpt lat="36.90708711026257" lon="15.028873102382347"><ele>273.0</ele><time>2026-03-28T16:43:28Z</time></trkpt><trkpt lat="36.907199978928354" lon="15.02918640270976"><ele>282.0</ele><time>2026-03-28T16:43:32Z</time></trkpt><trkpt lat="36.907645477538495" lon="15.028814408195522"><ele>282.0</ele><time>2026-03-28T16:43:33Z</time></trkpt><trkpt lat="36.907687258948194" lon="15.02890147467505"><ele>282.0</ele><time>2026-03-28T16:43:36Z</time></trkpt><trkpt lat="36.90773857981921" lon="15.028955770643272"><ele>282.0</ele><time>2026-03-28T16:43:38Z</time></trkpt><trkpt lat="36.90783210854725" lon="15.028899885304414"><ele>282.0</ele><time>2026-03-28T16:43:41Z</time></trkpt><trkpt lat="36.90794155731953" lon="15.028844791144456"><ele>282.0</ele><time>2026-03-28T16:43:43Z</time></trkpt><trkpt lat="36.908047001130974" lon="15.028827004836074"><ele>282.0</ele><time>2026-03-28T16:43:45Z</time></trkpt><trkpt lat="36.90815947471725" lon="15.028828668551347"><ele>282.0</ele><time>2026-03-28T16:43:47Z</time></trkpt><trkpt lat="36.90828346488006" lon="15.028825105278365"><ele>282.0</ele><time>2026-03-28T16:43:49Z</time></trkpt><trkpt lat="36.908349934583725" lon="15.028798930532663"><ele>282.0</ele><time>2026-03-28T16:43:50Z</time></trkpt><trkpt lat="36.9084168819012" lon="15.028755444536966"><ele>282.0</ele><time>2026-03-28T16:43:51Z</time></trkpt><trkpt lat="36.90848564516771" lon="15.028697564415184"><ele>281.3333333333333</ele><time>2026-03-28T16:43:52Z</time></trkpt><trkpt lat="36.908565278005554" lon="15.02866416124255"><ele>280.6666666666667</ele><time>2026-03-28T16:43:53Z</time></trkpt><trkpt lat="36.90864317874549" lon="15.028613045586324"><ele>280.0</ele><time>2026-03-28T16:43:54Z</time></trkpt><trkpt lat="36.90870627876795" lon="15.02855380602173"><ele>279.33333333333337</ele><time>2026-03-28T16:43:55Z</time></trkpt><trkpt lat="36.90877121399414" lon="15.028502285076376"><ele>278.6666666666667</ele><time>2026-03-28T16:43:56Z</time></trkpt><trkpt lat="36.90883286225046" lon="15.028424760746232"><ele>278.0</ele><time>2026-03-28T16:43:57Z</time></trkpt><trkpt lat="36.9088954536484" lon="15.028345740800232"><ele>281.6</ele><time>2026-03-28T16:43:58Z</time></trkpt><trkpt lat="36.908967697361874" lon="15.028265462520709"><ele>285.20000000000005</ele><time>2026-03-28T16:43:59Z</time></trkpt><trkpt lat="36.90904714496655" lon="15.028189343681486"><ele>288.8</ele><time>2026-03-28T16:44:00Z</time></trkpt><trkpt lat="36.909114711290094" lon="15.02810687084803"><ele>292.40000000000003</ele><time>2026-03-28T16:44:01Z</time></trkpt><trkpt lat="36.90916591255856" lon="15.028028933324332"><ele>296.0</ele><time>2026-03-28T16:44:01.999Z</time></trkpt><trkpt lat="36.90922836431865" lon="15.02795073688391"><ele>295.33333333333337</ele><time>2026-03-28T16:44:02.999Z</time></trkpt><trkpt lat="36.90930625040295" lon="15.027877256572847"><ele>294.6666666666667</ele><time>2026-03-28T16:44:03.999Z</time></trkpt><trkpt lat="36.909381618668235" lon="15.027809199255442"><ele>294.0</ele><time>2026-03-28T16:44:04.999Z</time></trkpt><trkpt lat="36.90945665769008" lon="15.027744913477306"><ele>293.3333333333333</ele><time>2026-03-28T16:44:05.999Z</time></trkpt><trkpt lat="36.90953168547632" lon="15.027690508197582"><ele>292.66666666666663</ele><time>2026-03-28T16:44:06.999Z</time></trkpt><trkpt lat="36.90960406929063" lon="15.027656405572259"><ele>292.0</ele><time>2026-03-28T16:44:07.999Z</time></trkpt><trkpt lat="36.909679371934814" lon="15.027632481168688"><ele>292.0</ele><time>2026-03-28T16:44:08.999Z</time></trkpt><trkpt lat="36.909746918068485" lon="15.02763383077562"><ele>292.0</ele><time>2026-03-28T16:44:09.999Z</time></trkpt><trkpt lat="36.909833406749655" lon="15.027638105625753"><ele>292.0</ele><time>2026-03-28T16:44:10.999Z</time></trkpt><trkpt lat="36.909923180374484" lon="15.027622437066713"><ele>292.0</ele><time>2026-03-28T16:44:11.999Z</time></trkpt><trkpt lat="36.910007797894885" lon="15.027633165250661"><ele>292.0</ele><time>2026-03-28T16:44:12.999Z</time></trkpt><trkpt lat="36.9101170334893" lon="15.027629176071006"><ele>292.0</ele><time>2026-03-28T16:44:13.999Z</time></trkpt><trkpt lat="36.91021763622045" lon="15.02761104550849"><ele>291.16666666666663</ele><time>2026-03-28T16:44:14.999Z</time></trkpt><trkpt lat="36.91031297295607" lon="15.027615929221962"><ele>290.3333333333333</ele><time>2026-03-28T16:44:15.999Z</time></trkpt><trkpt lat="36.910399723971146" lon="15.027601611509745"><ele>289.5</ele><time>2026-03-28T16:44:16.999Z</time></trkpt><trkpt lat="36.91046520047582" lon="15.0275675548285"><ele>288.6666666666667</ele><time>2026-03-28T16:44:17.999Z</time></trkpt><trkpt lat="36.91053015120939" lon="15.02752295525684"><ele>287.83333333333337</ele><time>2026-03-28T16:44:18.999Z</time></trkpt><trkpt lat="36.91060006175252" lon="15.027466215411291"><ele>287.0</ele><time>2026-03-28T16:44:19.999Z</time></trkpt><trkpt lat="36.91067848538095" lon="15.02741129107733"><ele>288.33333333333337</ele><time>2026-03-28T16:44:20.999Z</time></trkpt><trkpt lat="36.910750601345825" lon="15.02737084239118"><ele>289.6666666666667</ele><time>2026-03-28T16:44:21.999Z</time></trkpt><trkpt lat="36.91085642693123" lon="15.027275036826707"><ele>291.0</ele><time>2026-03-28T16:44:23.999Z</time></trkpt><trkpt lat="36.91090387066641" lon="15.027217420333145"><ele>292.3333333333333</ele><time>2026-03-28T16:44:24.999Z</time></trkpt><trkpt lat="36.910949829717296" lon="15.027149487997832"><ele>293.66666666666663</ele><time>2026-03-28T16:44:25.999Z</time></trkpt><trkpt lat="36.911001867372015" lon="15.027078665501133"><ele>295.0</ele><time>2026-03-28T16:44:26.999Z</time></trkpt><trkpt lat="36.91106369128067" lon="15.027016114494177"><ele>295.0</ele><time>2026-03-28T16:44:27.999Z</time></trkpt><trkpt lat="36.91116205694064" lon="15.026955540082575"><ele>295.0</ele><time>2026-03-28T16:44:29.999Z</time></trkpt><trkpt lat="36.91127016862241" lon="15.026864137301708"><ele>295.0</ele><time>2026-03-28T16:44:31.999Z</time></trkpt><trkpt lat="36.91135756959998" lon="15.02685332612566"><ele>295.0</ele><time>2026-03-28T16:44:32.999Z</time></trkpt><trkpt lat="36.91142682482186" lon="15.026801726740983"><ele>295.0</ele><time>2026-03-28T16:44:33.999Z</time></trkpt><trkpt lat="36.911512509620025" lon="15.026773444345583"><ele>295.0</ele><time>2026-03-28T16:44:34.999Z</time></trkpt><trkpt lat="36.91160222387625" lon="15.026750907712923"><ele>295.0</ele><time>2026-03-28T16:44:35.999Z</time></trkpt><trkpt lat="36.91169208823846" lon="15.026740699958156"><ele>295.0</ele><time>2026-03-28T16:44:37Z</time></trkpt><trkpt lat="36.91178585690988" lon="15.026751280993254"><ele>295.0</ele><time>2026-03-28T16:44:38Z</time></trkpt><trkpt lat="36.91188243721134" lon="15.026734699103379"><ele>295.0</ele><time>2026-03-28T16:44:39Z</time></trkpt><trkpt lat="36.911982197481336" lon="15.026728196138219"><ele>294.8</ele><time>2026-03-28T16:44:40Z</time></trkpt><trkpt lat="36.91208872884965" lon="15.026711873767141"><ele>294.6</ele><time>2026-03-28T16:44:41Z</time></trkpt><trkpt lat="36.91219449351016" lon="15.026684517806702"><ele>294.4</ele><time>2026-03-28T16:44:42Z</time></trkpt><trkpt lat="36.91229683715701" lon="15.026673110216121"><ele>294.2</ele><time>2026-03-28T16:44:43Z</time></trkpt><trkpt lat="36.91238865568956" lon="15.02665810297749"><ele>294.0</ele><time>2026-03-28T16:44:44Z</time></trkpt><trkpt lat="36.912486069257646" lon="15.026623808289983"><ele>298.5</ele><time>2026-03-28T16:44:45Z</time></trkpt><trkpt lat="36.91259439754722" lon="15.02657976531111"><ele>303.0</ele><time>2026-03-28T16:44:46Z</time></trkpt><trkpt lat="36.91271036716311" lon="15.02653638191305"><ele>307.5</ele><time>2026-03-28T16:44:47Z</time></trkpt><trkpt lat="36.91282308713422" lon="15.02647008459449"><ele>312.0</ele><time>2026-03-28T16:44:48Z</time></trkpt><trkpt lat="36.91293990873678" lon="15.026429198559965"><ele>312.0</ele><time>2026-03-28T16:44:49Z</time></trkpt><trkpt lat="36.91304817970421" lon="15.026365984390472"><ele>312.0</ele><time>2026-03-28T16:44:50Z</time></trkpt><trkpt lat="36.913166969512574" lon="15.026328239980105"><ele>312.0</ele><time>2026-03-28T16:44:51Z</time></trkpt><trkpt lat="36.91327215632201" lon="15.02626900255616"><ele>312.0</ele><time>2026-03-28T16:44:52Z</time></trkpt><trkpt lat="36.91338072352726" lon="15.026227339395184"><ele>310.8</ele><time>2026-03-28T16:44:53Z</time></trkpt><trkpt lat="36.913473636169364" lon="15.026166464877734"><ele>309.6</ele><time>2026-03-28T16:44:54Z</time></trkpt><trkpt lat="36.91357057401459" lon="15.0261185272565"><ele>308.40000000000003</ele><time>2026-03-28T16:44:55Z</time></trkpt><trkpt lat="36.91367247870832" lon="15.026093602996783"><ele>307.2</ele><time>2026-03-28T16:44:56Z</time></trkpt><trkpt lat="36.91376361990269" lon="15.026062623576077"><ele>306.0</ele><time>2026-03-28T16:44:57Z</time></trkpt><trkpt lat="36.913852694127556" lon="15.026034763107711"><ele>306.0</ele><time>2026-03-28T16:44:58Z</time></trkpt><trkpt lat="36.91394965365789" lon="15.026008880794237"><ele>306.0</ele><time>2026-03-28T16:44:59Z</time></trkpt><trkpt lat="36.91405282067906" lon="15.025969754277076"><ele>306.0</ele><time>2026-03-28T16:45:00Z</time></trkpt><trkpt lat="36.91416257369124" lon="15.02597024524109"><ele>306.0</ele><time>2026-03-28T16:45:01Z</time></trkpt><trkpt lat="36.9142478129214" lon="15.025966376703261"><ele>306.0</ele><time>2026-03-28T16:45:02Z</time></trkpt><trkpt lat="36.914330315773526" lon="15.025943126551923"><ele>305.0</ele><time>2026-03-28T16:45:03Z</time></trkpt><trkpt lat="36.91442230600299" lon="15.02595124356477"><ele>304.0</ele><time>2026-03-28T16:45:04Z</time></trkpt><trkpt lat="36.91450319268429" lon="15.025922432215564"><ele>303.0</ele><time>2026-03-28T16:45:05Z</time></trkpt><trkpt lat="36.914593196975" lon="15.025913547334913"><ele>302.0</ele><time>2026-03-28T16:45:06Z</time></trkpt><trkpt lat="36.91468841255353" lon="15.02589461253697"><ele>301.0</ele><time>2026-03-28T16:45:07Z</time></trkpt><trkpt lat="36.91478775045515" lon="15.025865108432486"><ele>301.0</ele><time>2026-03-28T16:45:08Z</time></trkpt><trkpt lat="36.9148912894154" lon="15.025855612264897"><ele>301.0</ele><time>2026-03-28T16:45:09Z</time></trkpt><trkpt lat="36.91499243027983" lon="15.025827286319366"><ele>301.0</ele><time>2026-03-28T16:45:10Z</time></trkpt><trkpt lat="36.91508436012714" lon="15.025781222071398"><ele>301.0</ele><time>2026-03-28T16:45:11Z</time></trkpt><trkpt lat="36.91516971633959" lon="15.025783769769845"><ele>301.0</ele><time>2026-03-28T16:45:12Z</time></trkpt><trkpt lat="36.915259473385596" lon="15.025749722231367"><ele>304.6</ele><time>2026-03-28T16:45:13Z</time></trkpt><trkpt lat="36.915354827935545" lon="15.025733732819258"><ele>308.20000000000005</ele><time>2026-03-28T16:45:14Z</time></trkpt><trkpt lat="36.91545497829249" lon="15.025727863279313"><ele>311.79999999999995</ele><time>2026-03-28T16:45:15Z</time></trkpt><trkpt lat="36.91555874560641" lon="15.025712464181753"><ele>315.4</ele><time>2026-03-28T16:45:16Z</time></trkpt><trkpt lat="36.91565984027132" lon="15.025694665182671"><ele>319.0</ele><time>2026-03-28T16:45:17Z</time></trkpt><trkpt lat="36.915739113622635" lon="15.025699696681063"><ele>319.0</ele><time>2026-03-28T16:45:18Z</time></trkpt><trkpt lat="36.91580572117298" lon="15.02567671594981"><ele>319.0</ele><time>2026-03-28T16:45:19Z</time></trkpt><trkpt lat="36.91588226526051" lon="15.025675150210782"><ele>319.0</ele><time>2026-03-28T16:45:20Z</time></trkpt><trkpt lat="36.91595870559426" lon="15.025673059405213"><ele>319.0</ele><time>2026-03-28T16:45:21Z</time></trkpt><trkpt lat="36.916034045950404" lon="15.025679849771976"><ele>319.0</ele><time>2026-03-28T16:45:22Z</time></trkpt><trkpt lat="36.916105632476345" lon="15.025692243297671"><ele>319.0</ele><time>2026-03-28T16:45:23Z</time></trkpt><trkpt lat="36.916174795941295" lon="15.025718804274794"><ele>319.0</ele><time>2026-03-28T16:45:24Z</time></trkpt><trkpt lat="36.91629595944187" lon="15.025766128723376"><ele>319.3333333333333</ele><time>2026-03-28T16:45:26Z</time></trkpt><trkpt lat="36.91636481749383" lon="15.025792900551142"><ele>319.66666666666663</ele><time>2026-03-28T16:45:27Z</time></trkpt><trkpt lat="36.91643317365362" lon="15.025784038181241"><ele>320.0</ele><time>2026-03-28T16:45:28Z</time></trkpt><trkpt lat="36.916530807640825" lon="15.025799428749396"><ele>320.3333333333333</ele><time>2026-03-28T16:45:30Z</time></trkpt><trkpt lat="36.9166259762263" lon="15.02581378014904"><ele>320.6666666666667</ele><time>2026-03-28T16:45:32Z</time></trkpt><trkpt lat="36.916714545765664" lon="15.025832811613402"><ele>321.0</ele><time>2026-03-28T16:45:34Z</time></trkpt><trkpt lat="36.91679087843166" lon="15.025856022087"><ele>318.4285714285714</ele><time>2026-03-28T16:45:36Z</time></trkpt><trkpt lat="36.91686703054058" lon="15.025878170830476"><ele>315.85714285714283</ele><time>2026-03-28T16:45:38Z</time></trkpt><trkpt lat="36.91694989731093" lon="15.025883299598355"><ele>313.2857142857143</ele><time>2026-03-28T16:45:40Z</time></trkpt><trkpt lat="36.91702753391636" lon="15.02589056427423"><ele>310.71428571428567</ele><time>2026-03-28T16:45:42Z</time></trkpt><trkpt lat="36.91710207244755" lon="15.025891328672422"><ele>308.1428571428571</ele><time>2026-03-28T16:45:44Z</time></trkpt><trkpt lat="36.91716561302481" lon="15.025891914289357"><ele>305.57142857142856</ele><time>2026-03-28T16:45:46Z</time></trkpt><trkpt lat="36.917231441906374" lon="15.025897282240871"><ele>303.0</ele><time>2026-03-28T16:45:48Z</time></trkpt><trkpt lat="36.91731904285925" lon="15.025924949903958"><ele>303.0</ele><time>2026-03-28T16:45:51Z</time></trkpt><trkpt lat="36.91739245834126" lon="15.025958515740193"><ele>303.0</ele><time>2026-03-28T16:45:54Z</time></trkpt><trkpt lat="36.917468213662346" lon="15.025987120120808"><ele>303.0</ele><time>2026-03-28T16:45:57Z</time></trkpt><trkpt lat="36.91754838850479" lon="15.026011585305538"><ele>303.0</ele><time>2026-03-28T16:46:00Z</time></trkpt><trkpt lat="36.91761746736" lon="15.026034940438658"><ele>303.0</ele><time>2026-03-28T16:46:03Z</time></trkpt><trkpt lat="36.91770747643258" lon="15.026040039348938"><ele>303.0</ele><time>2026-03-28T16:46:05Z</time></trkpt><trkpt lat="36.917780244025394" lon="15.026060422806546"><ele>302.6666666666667</ele><time>2026-03-28T16:46:07Z</time></trkpt><trkpt lat="36.91785398243975" lon="15.026061702902222"><ele>302.3333333333333</ele><time>2026-03-28T16:46:09Z</time></trkpt><trkpt lat="36.91793091160052" lon="15.026106383353465"><ele>302.0</ele><time>2026-03-28T16:46:11.999Z</time></trkpt><trkpt lat="36.918012804054406" lon="15.026149297089473"><ele>301.66666666666663</ele><time>2026-03-28T16:46:14.999Z</time></trkpt><trkpt lat="36.918111364211846" lon="15.026170022791991"><ele>301.3333333333333</ele><time>2026-03-28T16:46:17.999Z</time></trkpt><trkpt lat="36.91819103649555" lon="15.026193649544036"><ele>301.0</ele><time>2026-03-28T16:46:19.999Z</time></trkpt><trkpt lat="36.91826256070945" lon="15.02620636120145"><ele>301.0</ele><time>2026-03-28T16:46:21.999Z</time></trkpt><trkpt lat="36.91834644158588" lon="15.02622778366505"><ele>301.0</ele><time>2026-03-28T16:46:23.999Z</time></trkpt><trkpt lat="36.918443314659655" lon="15.02622496619224"><ele>301.0</ele><time>2026-03-28T16:46:25.999Z</time></trkpt><trkpt lat="36.91854275084105" lon="15.026232122497955"><ele>301.0</ele><time>2026-03-28T16:46:27.999Z</time></trkpt><trkpt lat="36.918637566175015" lon="15.026221933640484"><ele>301.0</ele><time>2026-03-28T16:46:29.999Z</time></trkpt><trkpt lat="36.91875192308729" lon="15.02622249231251"><ele>300.5</ele><time>2026-03-28T16:46:31.999Z</time></trkpt><trkpt lat="36.91882568360288" lon="15.0262079960193"><ele>300.0</ele><time>2026-03-28T16:46:32.999Z</time></trkpt><trkpt lat="36.91890806198245" lon="15.02621478218762"><ele>299.5</ele><time>2026-03-28T16:46:34.999Z</time></trkpt><trkpt lat="36.91899033777894" lon="15.026224044171794"><ele>299.0</ele><time>2026-03-28T16:46:36.999Z</time></trkpt><trkpt lat="36.91907491420521" lon="15.02622814011735"><ele>298.5</ele><time>2026-03-28T16:46:38.999Z</time></trkpt><trkpt lat="36.91917162523164" lon="15.026174909380138"><ele>298.0</ele><time>2026-03-28T16:46:40.999Z</time></trkpt><trkpt lat="36.919274819829376" lon="15.026146569160263"><ele>297.6</ele><time>2026-03-28T16:46:43Z</time></trkpt><trkpt lat="36.91938020721732" lon="15.026117382655265"><ele>297.20000000000005</ele><time>2026-03-28T16:46:45Z</time></trkpt><trkpt lat="36.919480624602045" lon="15.02609820737097"><ele>296.8</ele><time>2026-03-28T16:46:47Z</time></trkpt><trkpt lat="36.919606950866" lon="15.026096840023625"><ele>296.40000000000003</ele><time>2026-03-28T16:46:49Z</time></trkpt><trkpt lat="36.9196746940571" lon="15.026094702072724"><ele>296.0</ele><time>2026-03-28T16:46:50Z</time></trkpt><trkpt lat="36.91975172419386" lon="15.026087549352303"><ele>296.0</ele><time>2026-03-28T16:46:51Z</time></trkpt><trkpt lat="36.91984083898851" lon="15.026068260819072"><ele>296.0</ele><time>2026-03-28T16:46:52Z</time></trkpt><trkpt lat="36.919882108003286" lon="15.025921760640697"><ele>296.0</ele><time>2026-03-28T16:46:53Z</time></trkpt><trkpt lat="36.919952512850564" lon="15.025890988754911"><ele>296.0</ele><time>2026-03-28T16:46:54Z</time></trkpt><trkpt lat="36.92001455598606" lon="15.025863871496597"><ele>296.0</ele><time>2026-03-28T16:46:55Z</time></trkpt><trkpt lat="36.920124317445456" lon="15.025817022775945"><ele>298.83333333333337</ele><time>2026-03-28T16:46:57Z</time></trkpt><trkpt lat="36.92022758356245" lon="15.025773406962289"><ele>301.6666666666667</ele><time>2026-03-28T16:46:59Z</time></trkpt><trkpt lat="36.9202904835958" lon="15.025746840311186"><ele>304.5</ele><time>2026-03-28T16:47:00Z</time></trkpt><trkpt lat="36.920366840431235" lon="15.025714589977069"><ele>307.3333333333333</ele><time>2026-03-28T16:47:01Z</time></trkpt><trkpt lat="36.920431811071126" lon="15.02568714876944"><ele>310.16666666666663</ele><time>2026-03-28T16:47:02Z</time></trkpt><trkpt lat="36.920532340016166" lon="15.025641690417503"><ele>313.0</ele><time>2026-03-28T16:47:04Z</time></trkpt><trkpt lat="36.92061638965049" lon="15.02560282000574"><ele>313.0</ele><time>2026-03-28T16:47:06Z</time></trkpt><trkpt lat="36.920679658620244" lon="15.025545322662643"><ele>313.0</ele><time>2026-03-28T16:47:09Z</time></trkpt><trkpt lat="36.92114292684909" lon="15.025796173585691"><ele>309.0</ele><time>2026-03-28T16:47:23Z</time></trkpt><trkpt lat="36.921212185890866" lon="15.025753296821332"><ele>305.0</ele><time>2026-03-28T16:47:26Z</time></trkpt><trkpt lat="36.921268492499145" lon="15.025679544488696"><ele>301.0</ele><time>2026-03-28T16:47:29Z</time></trkpt><trkpt lat="36.921335618084846" lon="15.02563029914372"><ele>297.0</ele><time>2026-03-28T16:47:33Z</time></trkpt><trkpt lat="36.92139518341157" lon="15.025578814268513"><ele>293.0</ele><time>2026-03-28T16:47:36Z</time></trkpt><trkpt lat="36.92145380852795" lon="15.025543214726566"><ele>289.0</ele><time>2026-03-28T16:47:38Z</time></trkpt><trkpt lat="36.92151304513333" lon="15.025472405601896"><ele>289.0</ele><time>2026-03-28T16:47:41Z</time></trkpt><trkpt lat="36.921581680039246" lon="15.025399254878801"><ele>289.0</ele><time>2026-03-28T16:47:44Z</time></trkpt><trkpt lat="36.921660657056435" lon="15.025333517693241"><ele>289.0</ele><time>2026-03-28T16:47:46Z</time></trkpt><trkpt lat="36.921717514243575" lon="15.025275618521013"><ele>289.0</ele><time>2026-03-28T16:47:48Z</time></trkpt><trkpt lat="36.92176882091522" lon="15.02521514625422"><ele>289.0</ele><time>2026-03-28T16:47:50Z</time></trkpt><trkpt lat="36.92181534973851" lon="15.025131440191576"><ele>289.0</ele><time>2026-03-28T16:47:52Z</time></trkpt><trkpt lat="36.92186749040828" lon="15.025069512540522"><ele>289.8333333333333</ele><time>2026-03-28T16:47:54Z</time></trkpt><trkpt lat="36.92191135298223" lon="15.025007316617405"><ele>290.66666666666663</ele><time>2026-03-28T16:47:56Z</time></trkpt><trkpt lat="36.921976250474025" lon="15.024965535492157"><ele>291.5</ele><time>2026-03-28T16:47:58Z</time></trkpt><trkpt lat="36.92206560464162" lon="15.024934551490578"><ele>292.3333333333333</ele><time>2026-03-28T16:48:00Z</time></trkpt><trkpt lat="36.922171837904294" lon="15.024887595802063"><ele>293.1666666666667</ele><time>2026-03-28T16:48:02Z</time></trkpt><trkpt lat="36.92226301230556" lon="15.024861125797239"><ele>294.0</ele><time>2026-03-28T16:48:04Z</time></trkpt><trkpt lat="36.92235915887896" lon="15.024827406839679"><ele>294.0</ele><time>2026-03-28T16:48:06Z</time></trkpt><trkpt lat="36.92246564399765" lon="15.024766435872808"><ele>294.0</ele><time>2026-03-28T16:48:08Z</time></trkpt><trkpt lat="36.92254558656854" lon="15.024741579596977"><ele>294.0</ele><time>2026-03-28T16:48:10Z</time></trkpt><trkpt lat="36.922610582892425" lon="15.024724481039618"><ele>294.0</ele><time>2026-03-28T16:48:16.999Z</time></trkpt><trkpt lat="36.92267368744094" lon="15.024727572649157"><ele>294.0</ele><time>2026-03-28T16:51:38Z</time></trkpt><trkpt lat="36.922756931237195" lon="15.024735459707975"><ele>294.0</ele><time>2026-03-28T16:51:51Z</time></trkpt><trkpt lat="36.922835078091765" lon="15.024731920578274"><ele>291.57142857142856</ele><time>2026-03-28T16:51:54Z</time></trkpt><trkpt lat="36.92290183941194" lon="15.024719759022037"><ele>289.1428571428571</ele><time>2026-03-28T16:51:57Z</time></trkpt><trkpt lat="36.92297786155174" lon="15.024736665077917"><ele>286.7142857142857</ele><time>2026-03-28T16:52:13Z</time></trkpt><trkpt lat="36.92303709771202" lon="15.02476552562756"><ele>284.2857142857143</ele><time>2026-03-28T16:52:17Z</time></trkpt><trkpt lat="36.92312079649213" lon="15.024768217552666"><ele>281.85714285714283</ele><time>2026-03-28T16:52:24Z</time></trkpt><trkpt lat="36.92317260405997" lon="15.024688908811136"><ele>279.42857142857144</ele><time>2026-03-28T16:52:26.999Z</time></trkpt><trkpt lat="36.923207866867195" lon="15.024612250549394"><ele>277.0</ele><time>2026-03-28T16:52:28.999Z</time></trkpt><trkpt lat="36.92328105699256" lon="15.024538308935577"><ele>277.0</ele><time>2026-03-28T16:52:31.999Z</time></trkpt><trkpt lat="36.92336945449999" lon="15.024513348120038"><ele>277.0</ele><time>2026-03-28T16:52:34.999Z</time></trkpt><trkpt lat="36.92344388282889" lon="15.024518530311035"><ele>277.0</ele><time>2026-03-28T16:52:36.999Z</time></trkpt><trkpt lat="36.92352946861411" lon="15.024506537772394"><ele>277.0</ele><time>2026-03-28T16:52:39.999Z</time></trkpt><trkpt lat="36.92361701797343" lon="15.024484545486809"><ele>277.0</ele><time>2026-03-28T16:52:41.999Z</time></trkpt><trkpt lat="36.923723884440406" lon="15.024435719103089"><ele>273.8333333333333</ele><time>2026-03-28T16:52:43.999Z</time></trkpt><trkpt lat="36.92378712343162" lon="15.02441142097164"><ele>270.66666666666663</ele><time>2026-03-28T16:52:45.999Z</time></trkpt><trkpt lat="36.92387896969994" lon="15.024366474185593"><ele>267.5</ele><time>2026-03-28T16:52:47.999Z</time></trkpt><trkpt lat="36.92395135742337" lon="15.024319526943758"><ele>264.3333333333333</ele><time>2026-03-28T16:52:49.999Z</time></trkpt><trkpt lat="36.92401890149987" lon="15.02428487688411"><ele>261.1666666666667</ele><time>2026-03-28T16:52:51.999Z</time></trkpt><trkpt lat="36.924089309378324" lon="15.02427720997421"><ele>258.0</ele><time>2026-03-28T16:52:53.999Z</time></trkpt><trkpt lat="36.92416925942569" lon="15.024282150961461"><ele>255.66666666666666</ele><time>2026-03-28T16:52:55.999Z</time></trkpt><trkpt lat="36.92424026256899" lon="15.02429734569204"><ele>253.33333333333331</ele><time>2026-03-28T16:52:58.999Z</time></trkpt><trkpt lat="36.92430872888507" lon="15.024286524864598"><ele>251.0</ele><time>2026-03-28T16:53:02Z</time></trkpt><trkpt lat="36.92438794139707" lon="15.024286624968367"><ele>248.66666666666666</ele><time>2026-03-28T16:53:04Z</time></trkpt><trkpt lat="36.9244624874152" lon="15.02429722315384"><ele>246.33333333333331</ele><time>2026-03-28T16:53:06Z</time></trkpt><trkpt lat="36.92454062718501" lon="15.024302130696203"><ele>244.0</ele><time>2026-03-28T16:53:08Z</time></trkpt><trkpt lat="36.92461893702212" lon="15.024313357902077"><ele>243.99999999999997</ele><time>2026-03-28T16:53:10Z</time></trkpt><trkpt lat="36.92470559987395" lon="15.024328664963093"><ele>244.0</ele><time>2026-03-28T16:53:12Z</time></trkpt><trkpt lat="36.92477899004296" lon="15.02433492680049"><ele>244.0</ele><time>2026-03-28T16:53:14Z</time></trkpt><trkpt lat="36.92485909807173" lon="15.024340469643967"><ele>244.0</ele><time>2026-03-28T16:53:16Z</time></trkpt><trkpt lat="36.92492417331849" lon="15.024334690583785"><ele>243.99999999999997</ele><time>2026-03-28T16:53:18Z</time></trkpt><trkpt lat="36.9249912552933" lon="15.024335100917924"><ele>244.0</ele><time>2026-03-28T16:53:20Z</time></trkpt><trkpt lat="36.92507728351741" lon="15.0243373810903"><ele>241.99999999999997</ele><time>2026-03-28T16:53:22Z</time></trkpt><trkpt lat="36.925172781940056" lon="15.024351192720228"><ele>240.0</ele><time>2026-03-28T16:53:24Z</time></trkpt><trkpt lat="36.925249882947234" lon="15.024364743337468"><ele>238.0</ele><time>2026-03-28T16:53:29Z</time></trkpt><trkpt lat="36.92532054282385" lon="15.02438453989288"><ele>236.0</ele><time>2026-03-28T16:53:31Z</time></trkpt><trkpt lat="36.92539786076161" lon="15.02437912394282"><ele>233.99999999999997</ele><time>2026-03-28T16:53:34Z</time></trkpt><trkpt lat="36.925471074616596" lon="15.024390639671166"><ele>232.0</ele><time>2026-03-28T16:53:36Z</time></trkpt><trkpt lat="36.92554538818538" lon="15.024366109129456"><ele>232.0</ele><time>2026-03-28T16:53:38Z</time></trkpt><trkpt lat="36.92562458988282" lon="15.024342973531883"><ele>232.0</ele><time>2026-03-28T16:53:40Z</time></trkpt><trkpt lat="36.92571655194859" lon="15.024342564444167"><ele>232.0</ele><time>2026-03-28T16:53:42Z</time></trkpt><trkpt lat="36.925815030446344" lon="15.024355031355954"><ele>232.0</ele><time>2026-03-28T16:53:44Z</time></trkpt><trkpt lat="36.92596077377514" lon="15.024409468171804"><ele>232.0</ele><time>2026-03-28T16:53:46Z</time></trkpt><trkpt lat="36.926035882413856" lon="15.02435701521856"><ele>233.99999999999997</ele><time>2026-03-28T16:53:48Z</time></trkpt><trkpt lat="36.926099376918174" lon="15.024317361859822"><ele>236.0</ele><time>2026-03-28T16:53:52Z</time></trkpt><trkpt lat="36.92615780005574" lon="15.024284217953664"><ele>238.0</ele><time>2026-03-28T16:53:56Z</time></trkpt><trkpt lat="36.92622066311211" lon="15.024249769112073"><ele>240.0</ele><time>2026-03-28T16:57:50Z</time></trkpt><trkpt lat="36.92630055921187" lon="15.024198195010149"><ele>241.99999999999997</ele><time>2026-03-28T16:57:53Z</time></trkpt><trkpt lat="36.926365532818735" lon="15.024171247334692"><ele>244.0</ele><time>2026-03-28T16:58:01Z</time></trkpt><trkpt lat="36.92645610679466" lon="15.024113293352492"><ele>244.0</ele><time>2026-03-28T16:58:03Z</time></trkpt><trkpt lat="36.92653260600024" lon="15.024094933150701"><ele>243.99999999999997</ele><time>2026-03-28T16:58:04Z</time></trkpt><trkpt lat="36.92660583050567" lon="15.024055591938128"><ele>243.99999999999997</ele><time>2026-03-28T16:58:05Z</time></trkpt><trkpt lat="36.92668954152638" lon="15.024006228738745"><ele>244.0</ele><time>2026-03-28T16:58:06Z</time></trkpt><trkpt lat="36.92680393378621" lon="15.023938773255201"><ele>244.0</ele><time>2026-03-28T16:58:07Z</time></trkpt><trkpt lat="36.92688959510417" lon="15.023890808411776"><ele>238.79999999999998</ele><time>2026-03-28T16:58:08Z</time></trkpt><trkpt lat="36.92697031668121" lon="15.02384997294204"><ele>233.59999999999997</ele><time>2026-03-28T16:58:09Z</time></trkpt><trkpt lat="36.9270569521233" lon="15.02380777749221"><ele>228.4</ele><time>2026-03-28T16:58:10Z</time></trkpt><trkpt lat="36.927146679368306" lon="15.023739836812961"><ele>223.2</ele><time>2026-03-28T16:58:11Z</time></trkpt><trkpt lat="36.927243683666646" lon="15.023703720268896"><ele>218.0</ele><time>2026-03-28T16:58:12Z</time></trkpt><trkpt lat="36.92732542166831" lon="15.023649562219381"><ele>218.00000000000003</ele><time>2026-03-28T16:58:13Z</time></trkpt><trkpt lat="36.927398973923076" lon="15.023580590666807"><ele>218.0</ele><time>2026-03-28T16:58:14Z</time></trkpt><trkpt lat="36.92746342445181" lon="15.023503906212499"><ele>218.0</ele><time>2026-03-28T16:58:15Z</time></trkpt><trkpt lat="36.927509677720835" lon="15.023433205347219"><ele>218.0</ele><time>2026-03-28T16:58:16Z</time></trkpt><trkpt lat="36.92753316397586" lon="15.023351007158345"><ele>218.00000000000003</ele><time>2026-03-28T16:58:17Z</time></trkpt><trkpt lat="36.92757438809329" lon="15.023287666637176"><ele>218.0</ele><time>2026-03-28T16:58:18Z</time></trkpt><trkpt lat="36.927591255497056" lon="15.023208005031599"><ele>218.16666666666669</ele><time>2026-03-28T16:58:19Z</time></trkpt><trkpt lat="36.927608105820475" lon="15.023087748429436"><ele>218.33333333333334</ele><time>2026-03-28T16:58:21Z</time></trkpt><trkpt lat="36.92761416967362" lon="15.022976902016548"><ele>218.5</ele><time>2026-03-28T16:58:23Z</time></trkpt><trkpt lat="36.92761452616438" lon="15.022876359919694"><ele>218.66666666666669</ele><time>2026-03-28T16:58:25Z</time></trkpt><trkpt lat="36.92761983377772" lon="15.022764823934027"><ele>218.83333333333334</ele><time>2026-03-28T16:58:27Z</time></trkpt><trkpt lat="36.9276479896726" lon="15.022661585277636"><ele>219.0</ele><time>2026-03-28T16:58:29Z</time></trkpt><trkpt lat="36.92772935305114" lon="15.022561777054932"><ele>219.0</ele><time>2026-03-28T16:58:31Z</time></trkpt><trkpt lat="36.9278121735567" lon="15.02249583685836"><ele>218.99999999999997</ele><time>2026-03-28T16:58:33Z</time></trkpt><trkpt lat="36.92788367708273" lon="15.022468134131813"><ele>218.99999999999997</ele><time>2026-03-28T16:58:35Z</time></trkpt><trkpt lat="36.92790341224444" lon="15.022317487159775"><ele>219.0</ele><time>2026-03-28T16:58:37Z</time></trkpt><trkpt lat="36.92789775052356" lon="15.022213357655827"><ele>219.0</ele><time>2026-03-28T16:58:38Z</time></trkpt><trkpt lat="36.927914330089926" lon="15.022105876487633"><ele>220.39999999999998</ele><time>2026-03-28T16:58:39Z</time></trkpt><trkpt lat="36.92795127560494" lon="15.02203387637244"><ele>221.79999999999998</ele><time>2026-03-28T16:58:40Z</time></trkpt><trkpt lat="36.928013925308214" lon="15.022010221027292"><ele>223.20000000000002</ele><time>2026-03-28T16:58:41Z</time></trkpt><trkpt lat="36.92809656212613" lon="15.022027739047425"><ele>224.60000000000002</ele><time>2026-03-28T16:58:42Z</time></trkpt><trkpt lat="36.92820127954421" lon="15.022081195272099"><ele>226.0</ele><time>2026-03-28T16:58:43Z</time></trkpt><trkpt lat="36.92830714422513" lon="15.022176112681048"><ele>227.0</ele><time>2026-03-28T16:58:44Z</time></trkpt><trkpt lat="36.928434111105595" lon="15.022256534488553"><ele>228.0</ele><time>2026-03-28T16:58:45Z</time></trkpt><trkpt lat="36.92855534419801" lon="15.022340050703473"><ele>229.0</ele><time>2026-03-28T16:58:46Z</time></trkpt><trkpt lat="36.92865318334955" lon="15.022432139431135"><ele>230.0</ele><time>2026-03-28T16:58:47Z</time></trkpt><trkpt lat="36.92873043160303" lon="15.022520740315347"><ele>230.0</ele><time>2026-03-28T16:58:48Z</time></trkpt><trkpt lat="36.928800684213236" lon="15.022602593245537"><ele>230.0</ele><time>2026-03-28T16:58:49Z</time></trkpt><trkpt lat="36.92888165018783" lon="15.022680740852142"><ele>230.0</ele><time>2026-03-28T16:58:50Z</time></trkpt><trkpt lat="36.92894706163962" lon="15.022759253729017"><ele>230.0</ele><time>2026-03-28T16:58:51Z</time></trkpt><trkpt lat="36.929029301464645" lon="15.022809778829064"><ele>230.0</ele><time>2026-03-28T16:58:52.999Z</time></trkpt><trkpt lat="36.92909210014356" lon="15.022742834120475"><ele>230.0</ele><time>2026-03-28T16:58:53.999Z</time></trkpt><trkpt lat="36.92910182765833" lon="15.02260592061601"><ele>230.0</ele><time>2026-03-28T16:58:54.999Z</time></trkpt><trkpt lat="36.92911102326215" lon="15.022486801891679"><ele>230.0</ele><time>2026-03-28T16:58:55.999Z</time></trkpt><trkpt lat="36.92912922658863" lon="15.022358851763205"><ele>230.0</ele><time>2026-03-28T16:58:56.999Z</time></trkpt><trkpt lat="36.9291486849309" lon="15.022264372228673"><ele>230.0</ele><time>2026-03-28T16:58:57.999Z</time></trkpt><trkpt lat="36.929214229009155" lon="15.022395661360255"><ele>230.0</ele><time>2026-03-28T16:59:01.999Z</time></trkpt><trkpt lat="36.929210153699174" lon="15.0225545889886"><ele>230.0</ele><time>2026-03-28T16:59:02.999Z</time></trkpt><trkpt lat="36.92923714194178" lon="15.022688021104264"><ele>230.0</ele><time>2026-03-28T16:59:03.999Z</time></trkpt><trkpt lat="36.92928743551071" lon="15.022816239524923"><ele>230.0</ele><time>2026-03-28T16:59:04.999Z</time></trkpt><trkpt lat="36.92938878099493" lon="15.022936002566304"><ele>239.33333333333334</ele><time>2026-03-28T16:59:05.999Z</time></trkpt><trkpt lat="36.92951282762011" lon="15.023055841355022"><ele>248.66666666666669</ele><time>2026-03-28T16:59:06.999Z</time></trkpt><trkpt lat="36.92961533967213" lon="15.023195827021116"><ele>258.0</ele><time>2026-03-28T16:59:07.999Z</time></trkpt><trkpt lat="36.92971695982769" lon="15.023346363535923"><ele>258.0</ele><time>2026-03-28T16:59:08.999Z</time></trkpt><trkpt lat="36.92981866734233" lon="15.023510090681372"><ele>258.0</ele><time>2026-03-28T16:59:09.999Z</time></trkpt><trkpt lat="36.92990112757757" lon="15.023684960821665"><ele>258.0</ele><time>2026-03-28T16:59:10.999Z</time></trkpt><trkpt lat="36.929964067206306" lon="15.023859694710408"><ele>258.0</ele><time>2026-03-28T16:59:11.999Z</time></trkpt><trkpt lat="36.930029780401846" lon="15.023986577673837"><ele>258.0</ele><time>2026-03-28T16:59:12.999Z</time></trkpt><trkpt lat="36.930070109301745" lon="15.024108109954682"><ele>258.0</ele><time>2026-03-28T16:59:13.999Z</time></trkpt><trkpt lat="36.93015583669072" lon="15.024179932243909"><ele>258.0</ele><time>2026-03-28T16:59:14.999Z</time></trkpt><trkpt lat="36.930251769130166" lon="15.024234824218494"><ele>258.0</ele><time>2026-03-28T16:59:15.999Z</time></trkpt><trkpt lat="36.93039140340629" lon="15.024276368867733"><ele>260.6</ele><time>2026-03-28T16:59:16.999Z</time></trkpt><trkpt lat="36.930529105527" lon="15.024328855743406"><ele>263.20000000000005</ele><time>2026-03-28T16:59:18Z</time></trkpt><trkpt lat="36.9306327944855" lon="15.024368139783848"><ele>265.8</ele><time>2026-03-28T16:59:19Z</time></trkpt><trkpt lat="36.93072137236527" lon="15.024395205704918"><ele>268.40000000000003</ele><time>2026-03-28T16:59:20Z</time></trkpt><trkpt lat="36.93079477479416" lon="15.024473475918546"><ele>271.0</ele><time>2026-03-28T16:59:21Z</time></trkpt><trkpt lat="36.930834942162896" lon="15.024550480371904"><ele>271.0</ele><time>2026-03-28T16:59:22Z</time></trkpt><trkpt lat="36.93083710193334" lon="15.02464747366545"><ele>271.0</ele><time>2026-03-28T16:59:23Z</time></trkpt><trkpt lat="36.93078413753111" lon="15.024774756395278"><ele>271.0</ele><time>2026-03-28T16:59:24Z</time></trkpt><trkpt lat="36.93071828615779" lon="15.024931426577071"><ele>271.0</ele><time>2026-03-28T16:59:25Z</time></trkpt><trkpt lat="36.93066308677106" lon="15.025102073087048"><ele>269.25</ele><time>2026-03-28T16:59:26Z</time></trkpt><trkpt lat="36.9306138548215" lon="15.025277081090866"><ele>267.5</ele><time>2026-03-28T16:59:27Z</time></trkpt><trkpt lat="36.93057800042627" lon="15.025426613438816"><ele>265.75</ele><time>2026-03-28T16:59:28Z</time></trkpt><trkpt lat="36.93055666055562" lon="15.025598865193198"><ele>264.0</ele><time>2026-03-28T16:59:29Z</time></trkpt><trkpt lat="36.930550590908055" lon="15.025793544920903"><ele>269.0</ele><time>2026-03-28T16:59:30Z</time></trkpt><trkpt lat="36.9305455280346" lon="15.02598808912071"><ele>274.0</ele><time>2026-03-28T16:59:31Z</time></trkpt><trkpt lat="36.93054414826116" lon="15.026185948882308"><ele>279.0</ele><time>2026-03-28T16:59:32Z</time></trkpt><trkpt lat="36.930560004898744" lon="15.026383252001008"><ele>279.0</ele><time>2026-03-28T16:59:33Z</time></trkpt><trkpt lat="36.93058060218346" lon="15.026554975216737"><ele>279.0</ele><time>2026-03-28T16:59:34Z</time></trkpt><trkpt lat="36.930592338897526" lon="15.026698146213336"><ele>279.0</ele><time>2026-03-28T16:59:35Z</time></trkpt><trkpt lat="36.93061660604577" lon="15.026853163097709"><ele>279.0</ele><time>2026-03-28T16:59:36Z</time></trkpt><trkpt lat="36.93067411475716" lon="15.027014469607998"><ele>279.2</ele><time>2026-03-28T16:59:37Z</time></trkpt><trkpt lat="36.930692353179644" lon="15.027164434171171"><ele>279.4</ele><time>2026-03-28T16:59:38Z</time></trkpt><trkpt lat="36.93070841852578" lon="15.027279728560371"><ele>279.6</ele><time>2026-03-28T16:59:39Z</time></trkpt><trkpt lat="36.930720419818904" lon="15.027371995519058"><ele>279.8</ele><time>2026-03-28T16:59:40Z</time></trkpt><trkpt lat="36.930771882456256" lon="15.027473442014212"><ele>280.0</ele><time>2026-03-28T16:59:41Z</time></trkpt><trkpt lat="36.93088731025708" lon="15.027540925618858"><ele>284.0</ele><time>2026-03-28T16:59:42Z</time></trkpt><trkpt lat="36.93095802689087" lon="15.027586575526001"><ele>288.0</ele><time>2026-03-28T16:59:43Z</time></trkpt><trkpt lat="36.93104912874847" lon="15.02759406293698"><ele>292.0</ele><time>2026-03-28T16:59:45Z</time></trkpt><trkpt lat="36.93106582782401" lon="15.027406842257106"><ele>296.0</ele><time>2026-03-28T16:59:46Z</time></trkpt><trkpt lat="36.9310615011881" lon="15.027274370582711"><ele>300.0</ele><time>2026-03-28T16:59:47Z</time></trkpt><trkpt lat="36.93108315790924" lon="15.027111469436582"><ele>303.3333333333333</ele><time>2026-03-28T16:59:48Z</time></trkpt><trkpt lat="36.93109696334693" lon="15.026929645578917"><ele>306.66666666666663</ele><time>2026-03-28T16:59:49Z</time></trkpt><trkpt lat="36.93111315177064" lon="15.026742622680015"><ele>310.0</ele><time>2026-03-28T16:59:50Z</time></trkpt><trkpt lat="36.931149631476124" lon="15.026551994195296"><ele>310.0</ele><time>2026-03-28T16:59:51Z</time></trkpt><trkpt lat="36.931193586012945" lon="15.02638625306936"><ele>310.0</ele><time>2026-03-28T16:59:52Z</time></trkpt><trkpt lat="36.93122915683205" lon="15.026265030361598"><ele>310.0</ele><time>2026-03-28T16:59:53Z</time></trkpt><trkpt lat="36.93125421597672" lon="15.026188708011155"><ele>310.0</ele><time>2026-03-28T16:59:54Z</time></trkpt><trkpt lat="36.931307598392465" lon="15.026309780772433"><ele>310.0</ele><time>2026-03-28T16:59:58Z</time></trkpt><trkpt lat="36.9313277217547" lon="15.026454664915244"><ele>310.0</ele><time>2026-03-28T16:59:59Z</time></trkpt><trkpt lat="36.931365615343175" lon="15.026601454898861"><ele>310.0</ele><time>2026-03-28T17:00:00Z</time></trkpt><trkpt lat="36.93142496200738" lon="15.026735224876177"><ele>310.0</ele><time>2026-03-28T17:00:01Z</time></trkpt><trkpt lat="36.93149743165694" lon="15.026826315188266"><ele>310.0</ele><time>2026-03-28T17:00:02Z</time></trkpt><trkpt lat="36.93154967779658" lon="15.026874263168855"><ele>310.0</ele><time>2026-03-28T17:00:03Z</time></trkpt><trkpt lat="36.931645471596305" lon="15.026783842310127"><ele>310.0</ele><time>2026-03-28T17:00:05Z</time></trkpt><trkpt lat="36.93161744779067" lon="15.02663842090249"><ele>310.0</ele><time>2026-03-28T17:00:06Z</time></trkpt><trkpt lat="36.93163701320316" lon="15.026492413581579"><ele>310.0</ele><time>2026-03-28T17:00:07Z</time></trkpt><trkpt lat="36.93165685008901" lon="15.026353557482642"><ele>310.0</ele><time>2026-03-28T17:00:08Z</time></trkpt><trkpt lat="36.93169020569513" lon="15.026217515761905"><ele>315.8</ele><time>2026-03-28T17:00:09Z</time></trkpt><trkpt lat="36.9317367617705" lon="15.02610229667149"><ele>321.6</ele><time>2026-03-28T17:00:10Z</time></trkpt><trkpt lat="36.931770885227166" lon="15.026020852216948"><ele>327.4</ele><time>2026-03-28T17:00:11Z</time></trkpt><trkpt lat="36.93184308037326" lon="15.026025019763354"><ele>333.2</ele><time>2026-03-28T17:00:13Z</time></trkpt><trkpt lat="36.931869573241435" lon="15.02613673307801"><ele>339.0</ele><time>2026-03-28T17:00:14Z</time></trkpt><trkpt lat="36.93190863657025" lon="15.02627364978614"><ele>339.0</ele><time>2026-03-28T17:00:15Z</time></trkpt><trkpt lat="36.93197607419994" lon="15.026389159879926"><ele>339.0</ele><time>2026-03-28T17:00:16Z</time></trkpt><trkpt lat="36.932020649676446" lon="15.026475196259312"><ele>339.0</ele><time>2026-03-28T17:00:17Z</time></trkpt><trkpt lat="36.932111390227185" lon="15.026519548898849"><ele>339.0</ele><time>2026-03-28T17:00:19Z</time></trkpt><trkpt lat="36.932157230473905" lon="15.026405993746012"><ele>339.0</ele><time>2026-03-28T17:00:20Z</time></trkpt><trkpt lat="36.93220076844989" lon="15.026284359691898"><ele>339.0</ele><time>2026-03-28T17:00:21Z</time></trkpt><trkpt lat="36.93227253065021" lon="15.026209755381153"><ele>339.0</ele><time>2026-03-28T17:00:22Z</time></trkpt><trkpt lat="36.93232580767109" lon="15.026156268526645"><ele>339.0</ele><time>2026-03-28T17:00:23Z</time></trkpt><trkpt lat="36.932381623857566" lon="15.026260525244156"><ele>339.0</ele><time>2026-03-28T17:00:26Z</time></trkpt><trkpt lat="36.93238300625421" lon="15.026351885192941"><ele>339.0</ele><time>2026-03-28T17:00:27Z</time></trkpt><trkpt lat="36.93237619824399" lon="15.026469588795557"><ele>339.0</ele><time>2026-03-28T17:00:28Z</time></trkpt><trkpt lat="36.93239240780553" lon="15.02659066592086"><ele>337.5</ele><time>2026-03-28T17:00:29Z</time></trkpt><trkpt lat="36.93245146585253" lon="15.02669289152563"><ele>336.0</ele><time>2026-03-28T17:00:30Z</time></trkpt><trkpt lat="36.932528997776345" lon="15.026786869761157"><ele>334.5</ele><time>2026-03-28T17:00:31Z</time></trkpt><trkpt lat="36.93262020061092" lon="15.026907322781232"><ele>333.0</ele><time>2026-03-28T17:00:32Z</time></trkpt><trkpt lat="36.9327281956974" lon="15.027008464066775"><ele>336.79999999999995</ele><time>2026-03-28T17:00:33Z</time></trkpt><trkpt lat="36.932829090377716" lon="15.027079779462904"><ele>340.6</ele><time>2026-03-28T17:00:34Z</time></trkpt><trkpt lat="36.93293189996114" lon="15.027119698047857"><ele>344.4</ele><time>2026-03-28T17:00:35Z</time></trkpt><trkpt lat="36.933021907248026" lon="15.027146532347226"><ele>348.20000000000005</ele><time>2026-03-28T17:00:36Z</time></trkpt><trkpt lat="36.93309863896887" lon="15.027148912896973"><ele>352.0</ele><time>2026-03-28T17:00:37Z</time></trkpt><trkpt lat="36.93317503497533" lon="15.027113196643297"><ele>352.0</ele><time>2026-03-28T17:00:38Z</time></trkpt><trkpt lat="36.93323948930184" lon="15.0269929075159"><ele>352.0</ele><time>2026-03-28T17:00:39Z</time></trkpt><trkpt lat="36.93333578311256" lon="15.026896486634366"><ele>352.0</ele><time>2026-03-28T17:00:40Z</time></trkpt><trkpt lat="36.93342255340811" lon="15.026794274893277"><ele>352.0</ele><time>2026-03-28T17:00:41Z</time></trkpt><trkpt lat="36.93348373723475" lon="15.026722976273744"><ele>352.0</ele><time>2026-03-28T17:00:42Z</time></trkpt><trkpt lat="36.933518379579205" lon="15.02665345995901"><ele>357.0</ele><time>2026-03-28T17:00:43Z</time></trkpt><trkpt lat="36.933501626097495" lon="15.02654730215745"><ele>362.0</ele><time>2026-03-28T17:00:44Z</time></trkpt><trkpt lat="36.933484845493545" lon="15.026445551752104"><ele>367.0</ele><time>2026-03-28T17:00:45Z</time></trkpt><trkpt lat="36.933420995715636" lon="15.026327013931683"><ele>372.0</ele><time>2026-03-28T17:00:46Z</time></trkpt><trkpt lat="36.93334133845422" lon="15.02621284757768"><ele>377.0</ele><time>2026-03-28T17:00:47Z</time></trkpt><trkpt lat="36.93325214999875" lon="15.026101345142525"><ele>377.0</ele><time>2026-03-28T17:00:48Z</time></trkpt><trkpt lat="36.93313827530794" lon="15.025989443994398"><ele>377.0</ele><time>2026-03-28T17:00:49Z</time></trkpt><trkpt lat="36.93302448667303" lon="15.025893617032043"><ele>377.0</ele><time>2026-03-28T17:00:50Z</time></trkpt><trkpt lat="36.93294855158535" lon="15.025794097286981"><ele>377.0</ele><time>2026-03-28T17:00:51Z</time></trkpt><trkpt lat="36.93289541752137" lon="15.025697845697058"><ele>377.20000000000005</ele><time>2026-03-28T17:00:52Z</time></trkpt><trkpt lat="36.93283843637934" lon="15.025592018469723"><ele>377.4</ele><time>2026-03-28T17:00:52.999Z</time></trkpt><trkpt lat="36.93277291098226" lon="15.0254659948962"><ele>377.6</ele><time>2026-03-28T17:00:53.999Z</time></trkpt><trkpt lat="36.9327214778172" lon="15.025358882982669"><ele>377.79999999999995</ele><time>2026-03-28T17:00:54.999Z</time></trkpt><trkpt lat="36.932683351381414" lon="15.025268305771174"><ele>378.0</ele><time>2026-03-28T17:00:55.999Z</time></trkpt><trkpt lat="36.93264450581239" lon="15.025176828261193"><ele>378.0</ele><time>2026-03-28T17:00:56.999Z</time></trkpt><trkpt lat="36.93261572973465" lon="15.025083707737942"><ele>378.0</ele><time>2026-03-28T17:00:57.999Z</time></trkpt><trkpt lat="36.93263140337577" lon="15.024991288777803"><ele>378.0</ele><time>2026-03-28T17:00:58.999Z</time></trkpt><trkpt lat="36.932715057764476" lon="15.024874279158238"><ele>378.0</ele><time>2026-03-28T17:01:00.999Z</time></trkpt><trkpt lat="36.93277679560769" lon="15.024793912061991"><ele>378.0</ele><time>2026-03-28T17:01:01.999Z</time></trkpt><trkpt lat="36.93285951083655" lon="15.024711657017805"><ele>373.59999999999997</ele><time>2026-03-28T17:01:02.999Z</time></trkpt><trkpt lat="36.932959511323084" lon="15.024622839609357"><ele>369.2</ele><time>2026-03-28T17:01:03.999Z</time></trkpt><trkpt lat="36.933050565040105" lon="15.024561781752181"><ele>364.8</ele><time>2026-03-28T17:01:04.999Z</time></trkpt><trkpt lat="36.933140086097154" lon="15.024518563422808"><ele>360.4</ele><time>2026-03-28T17:01:05.999Z</time></trkpt><trkpt lat="36.93323947066028" lon="15.024484626002538"><ele>356.0</ele><time>2026-03-28T17:01:06.999Z</time></trkpt><trkpt lat="36.9333552172814" lon="15.024463667527877"><ele>358.4</ele><time>2026-03-28T17:01:07.999Z</time></trkpt><trkpt lat="36.933477110473824" lon="15.024451455694216"><ele>360.8</ele><time>2026-03-28T17:01:08.999Z</time></trkpt><trkpt lat="36.93359966259639" lon="15.024427349487597"><ele>363.2</ele><time>2026-03-28T17:01:09.999Z</time></trkpt><trkpt lat="36.93369960421719" lon="15.024448786018443"><ele>365.59999999999997</ele><time>2026-03-28T17:01:10.999Z</time></trkpt><trkpt lat="36.933789164077666" lon="15.024438864224553"><ele>368.0</ele><time>2026-03-28T17:01:11.999Z</time></trkpt><trkpt lat="36.93390131911098" lon="15.024456590261563"><ele>368.0</ele><time>2026-03-28T17:01:12.999Z</time></trkpt><trkpt lat="36.934013590312354" lon="15.02446101636878"><ele>368.0</ele><time>2026-03-28T17:01:13.999Z</time></trkpt><trkpt lat="36.93412865509725" lon="15.024452202801532"><ele>368.0</ele><time>2026-03-28T17:01:14.999Z</time></trkpt><trkpt lat="36.93424510038578" lon="15.024450148931294"><ele>368.0</ele><time>2026-03-28T17:01:15.999Z</time></trkpt><trkpt lat="36.934360350247964" lon="15.024424698938958"><ele>371.25</ele><time>2026-03-28T17:01:16.999Z</time></trkpt><trkpt lat="36.93448527788794" lon="15.02437458610428"><ele>374.5</ele><time>2026-03-28T17:01:17.999Z</time></trkpt><trkpt lat="36.934613333933704" lon="15.024319033684417"><ele>377.75</ele><time>2026-03-28T17:01:18.999Z</time></trkpt><trkpt lat="36.93476055499998" lon="15.024269160179218"><ele>381.0</ele><time>2026-03-28T17:01:19.999Z</time></trkpt><trkpt lat="36.934909079947886" lon="15.024198798472682"><ele>381.75</ele><time>2026-03-28T17:01:20.999Z</time></trkpt><trkpt lat="36.935037749096175" lon="15.024127323015609"><ele>382.5</ele><time>2026-03-28T17:01:21.999Z</time></trkpt><trkpt lat="36.9351586236437" lon="15.024065742590913"><ele>383.25</ele><time>2026-03-28T17:01:22.999Z</time></trkpt><trkpt lat="36.93527627269349" lon="15.024014207200391"><ele>384.0</ele><time>2026-03-28T17:01:24Z</time></trkpt><trkpt lat="36.935377714974486" lon="15.023959003127166"><ele>385.6666666666667</ele><time>2026-03-28T17:01:25Z</time></trkpt><trkpt lat="36.93546298344312" lon="15.023891528935726"><ele>387.33333333333337</ele><time>2026-03-28T17:01:26Z</time></trkpt><trkpt lat="36.93554448198873" lon="15.02381347738799"><ele>389.0</ele><time>2026-03-28T17:01:27Z</time></trkpt><trkpt lat="36.93561833978827" lon="15.023741597281704"><ele>390.6666666666667</ele><time>2026-03-28T17:01:28Z</time></trkpt><trkpt lat="36.93568690268846" lon="15.023698581116298"><ele>392.33333333333337</ele><time>2026-03-28T17:01:29Z</time></trkpt><trkpt lat="36.93575189710603" lon="15.023716782356134"><ele>394.0</ele><time>2026-03-28T17:01:30Z</time></trkpt><trkpt lat="36.93583928464335" lon="15.023722776582906"><ele>396.25</ele><time>2026-03-28T17:01:31Z</time></trkpt><trkpt lat="36.93595582450231" lon="15.023730890900042"><ele>398.5</ele><time>2026-03-28T17:01:32Z</time></trkpt><trkpt lat="36.93608225620491" lon="15.0237288698698"><ele>400.75</ele><time>2026-03-28T17:01:33Z</time></trkpt><trkpt lat="36.93619903454932" lon="15.023727423150698"><ele>403.0</ele><time>2026-03-28T17:01:34Z</time></trkpt><trkpt lat="36.93632020367205" lon="15.023700028132366"><ele>403.0</ele><time>2026-03-28T17:01:35Z</time></trkpt><trkpt lat="36.93646424638593" lon="15.023676891253826"><ele>403.0</ele><time>2026-03-28T17:01:36Z</time></trkpt><trkpt lat="36.936571727852645" lon="15.023629205148021"><ele>403.0</ele><time>2026-03-28T17:01:37Z</time></trkpt><trkpt lat="36.93664230939589" lon="15.02362259016853"><ele>403.0</ele><time>2026-03-28T17:01:38Z</time></trkpt><trkpt lat="36.93670470661377" lon="15.0236684538606"><ele>403.0</ele><time>2026-03-28T17:01:40Z</time></trkpt><trkpt lat="36.93673091144217" lon="15.023760966812251"><ele>403.75</ele><time>2026-03-28T17:01:41Z</time></trkpt><trkpt lat="36.93677637217542" lon="15.023864626477085"><ele>404.5</ele><time>2026-03-28T17:01:42Z</time></trkpt><trkpt lat="36.936838696981454" lon="15.02398915733381"><ele>405.25</ele><time>2026-03-28T17:01:43Z</time></trkpt><trkpt lat="36.93692679679298" lon="15.024104998683452"><ele>406.0</ele><time>2026-03-28T17:01:44Z</time></trkpt><trkpt lat="36.93699219572616" lon="15.024230717567088"><ele>406.0</ele><time>2026-03-28T17:01:45Z</time></trkpt><trkpt lat="36.93704392122186" lon="15.02430960096284"><ele>406.0</ele><time>2026-03-28T17:01:46Z</time></trkpt><trkpt lat="36.93711603300444" lon="15.024389088942252"><ele>406.0</ele><time>2026-03-28T17:01:48Z</time></trkpt><trkpt lat="36.93718624736729" lon="15.024387607023085"><ele>406.0</ele><time>2026-03-28T17:01:49Z</time></trkpt><trkpt lat="36.937269936764494" lon="15.024272135692813"><ele>406.0</ele><time>2026-03-28T17:01:50Z</time></trkpt><trkpt lat="36.93735695738442" lon="15.02418328620335"><ele>406.75</ele><time>2026-03-28T17:01:51Z</time></trkpt><trkpt lat="36.93747841951475" lon="15.024123515556047"><ele>407.5</ele><time>2026-03-28T17:01:52Z</time></trkpt><trkpt lat="36.93761835642827" lon="15.024029620340679"><ele>408.25</ele><time>2026-03-28T17:01:53Z</time></trkpt><trkpt lat="36.93775601536676" lon="15.0239306317986"><ele>409.0</ele><time>2026-03-28T17:01:54Z</time></trkpt><trkpt lat="36.937899066456275" lon="15.023827765790777"><ele>409.75</ele><time>2026-03-28T17:01:55Z</time></trkpt><trkpt lat="36.93804749799297" lon="15.023726163721255"><ele>410.5</ele><time>2026-03-28T17:01:56Z</time></trkpt><trkpt lat="36.93818274133186" lon="15.023638966551962"><ele>411.25</ele><time>2026-03-28T17:01:57Z</time></trkpt><trkpt lat="36.938284634561654" lon="15.023573170495728"><ele>412.0</ele><time>2026-03-28T17:01:58Z</time></trkpt><trkpt lat="36.93835666577282" lon="15.023495010151189"><ele>412.6</ele><time>2026-03-28T17:01:59Z</time></trkpt><trkpt lat="36.938430073973535" lon="15.023451672397092"><ele>413.20000000000005</ele><time>2026-03-28T17:02:00Z</time></trkpt><trkpt lat="36.93848127072971" lon="15.023357060384818"><ele>413.8</ele><time>2026-03-28T17:02:01Z</time></trkpt><trkpt lat="36.93849751178389" lon="15.023214045546398"><ele>414.4</ele><time>2026-03-28T17:02:02Z</time></trkpt><trkpt lat="36.93852239110547" lon="15.023059011882829"><ele>415.0</ele><time>2026-03-28T17:02:03Z</time></trkpt><trkpt lat="36.93856728313193" lon="15.022872993783936"><ele>415.0</ele><time>2026-03-28T17:02:04Z</time></trkpt><trkpt lat="36.938595913805536" lon="15.022715867512026"><ele>415.0</ele><time>2026-03-28T17:02:05Z</time></trkpt><trkpt lat="36.938619526631065" lon="15.022593042890097"><ele>415.0</ele><time>2026-03-28T17:02:06Z</time></trkpt><trkpt lat="36.93862338078427" lon="15.02248405728154"><ele>415.0</ele><time>2026-03-28T17:02:07Z</time></trkpt><trkpt lat="36.93864527178888" lon="15.022403884467693"><ele>415.0</ele><time>2026-03-28T17:02:08Z</time></trkpt><trkpt lat="36.938670721813295" lon="15.022314568840665"><ele>414.6</ele><time>2026-03-28T17:02:10Z</time></trkpt><trkpt lat="36.93874821082209" lon="15.022264508559587"><ele>414.2</ele><time>2026-03-28T17:02:25Z</time></trkpt><trkpt lat="36.93886943308275" lon="15.022268348263559"><ele>413.79999999999995</ele><time>2026-03-28T17:02:27Z</time></trkpt><trkpt lat="36.938944499468306" lon="15.022307491110277"><ele>413.4</ele><time>2026-03-28T17:02:28Z</time></trkpt><trkpt lat="36.939034902558404" lon="15.02234259795886"><ele>413.0</ele><time>2026-03-28T17:02:29Z</time></trkpt><trkpt lat="36.93915318647275" lon="15.022397935200413"><ele>413.25</ele><time>2026-03-28T17:02:30Z</time></trkpt><trkpt lat="36.939289416838065" lon="15.022457743232335"><ele>413.5</ele><time>2026-03-28T17:02:31Z</time></trkpt><trkpt lat="36.93939667590532" lon="15.022536382886127"><ele>413.75</ele><time>2026-03-28T17:02:32Z</time></trkpt><trkpt lat="36.93948511289304" lon="15.022616244968148"><ele>414.0</ele><time>2026-03-28T17:02:33Z</time></trkpt><trkpt lat="36.93954385248321" lon="15.022720050601999"><ele>414.0</ele><time>2026-03-28T17:02:34Z</time></trkpt><trkpt lat="36.93961416878431" lon="15.02278285627633"><ele>414.0</ele><time>2026-03-28T17:02:35Z</time></trkpt><trkpt lat="36.93971219435061" lon="15.022833878381624"><ele>414.0</ele><time>2026-03-28T17:02:36Z</time></trkpt><trkpt lat="36.939816441070874" lon="15.02283329343626"><ele>414.0</ele><time>2026-03-28T17:02:37Z</time></trkpt><trkpt lat="36.93994937842928" lon="15.022848197783714"><ele>414.0</ele><time>2026-03-28T17:02:38Z</time></trkpt><trkpt lat="36.94011393822375" lon="15.02289118209658"><ele>414.33333333333337</ele><time>2026-03-28T17:02:39Z</time></trkpt><trkpt lat="36.94028863969016" lon="15.022913806850774"><ele>414.6666666666667</ele><time>2026-03-28T17:02:40Z</time></trkpt><trkpt lat="36.94045964802009" lon="15.022934888148734"><ele>415.0</ele><time>2026-03-28T17:02:41Z</time></trkpt><trkpt lat="36.940635111325996" lon="15.022955506237524"><ele>415.0</ele><time>2026-03-28T17:02:42Z</time></trkpt><trkpt lat="36.94078948809973" lon="15.022955793408057"><ele>415.0</ele><time>2026-03-28T17:02:43Z</time></trkpt><trkpt lat="36.94092708424129" lon="15.022994396132525"><ele>415.0</ele><time>2026-03-28T17:02:44Z</time></trkpt><trkpt lat="36.9410715764526" lon="15.023047279818856"><ele>415.0</ele><time>2026-03-28T17:02:45Z</time></trkpt><trkpt lat="36.941212959352" lon="15.023105984639077"><ele>415.25</ele><time>2026-03-28T17:02:46Z</time></trkpt><trkpt lat="36.94135833720267" lon="15.023162132811816"><ele>415.5</ele><time>2026-03-28T17:02:47Z</time></trkpt><trkpt lat="36.941496666244596" lon="15.023212634827024"><ele>415.75</ele><time>2026-03-28T17:02:48Z</time></trkpt><trkpt lat="36.94162910499506" lon="15.02327387778713"><ele>416.0</ele><time>2026-03-28T17:02:49Z</time></trkpt><trkpt lat="36.94175292573505" lon="15.023318908710348"><ele>416.25</ele><time>2026-03-28T17:02:50Z</time></trkpt><trkpt lat="36.941881905587884" lon="15.023386857351637"><ele>416.5</ele><time>2026-03-28T17:02:51Z</time></trkpt><trkpt lat="36.94202062637706" lon="15.023415803689913"><ele>416.75</ele><time>2026-03-28T17:02:52Z</time></trkpt><trkpt lat="36.942167021765755" lon="15.023414091530077"><ele>417.0</ele><time>2026-03-28T17:02:53Z</time></trkpt><trkpt lat="36.94232686904403" lon="15.023421008536701"><ele>417.0</ele><time>2026-03-28T17:02:54Z</time></trkpt><trkpt lat="36.94248317417768" lon="15.023418845812754"><ele>417.0</ele><time>2026-03-28T17:02:55Z</time></trkpt><trkpt lat="36.942638106995105" lon="15.023412536119196"><ele>417.0</ele><time>2026-03-28T17:02:56Z</time></trkpt><trkpt lat="36.9427764212698" lon="15.023432265151774"><ele>416.5</ele><time>2026-03-28T17:02:56.999Z</time></trkpt><trkpt lat="36.94290704607231" lon="15.023431235546251"><ele>416.0</ele><time>2026-03-28T17:02:57.999Z</time></trkpt><trkpt lat="36.94304571181858" lon="15.023380449010014"><ele>415.5</ele><time>2026-03-28T17:02:58.999Z</time></trkpt><trkpt lat="36.943204711686036" lon="15.02337057768508"><ele>415.0</ele><time>2026-03-28T17:02:59.999Z</time></trkpt><trkpt lat="36.9433563198386" lon="15.023358589307389"><ele>415.0</ele><time>2026-03-28T17:03:00.999Z</time></trkpt><trkpt lat="36.9434798416939" lon="15.02334633109515"><ele>415.0</ele><time>2026-03-28T17:03:01.999Z</time></trkpt><trkpt lat="36.943601838188165" lon="15.023301266911023"><ele>415.0</ele><time>2026-03-28T17:03:02.999Z</time></trkpt><trkpt lat="36.943732048204595" lon="15.023264086951462"><ele>415.0</ele><time>2026-03-28T17:03:03.999Z</time></trkpt><trkpt lat="36.94386806255091" lon="15.023244469786725"><ele>413.5</ele><time>2026-03-28T17:03:04.999Z</time></trkpt><trkpt lat="36.94400193165941" lon="15.023231858187684"><ele>412.0</ele><time>2026-03-28T17:03:05.999Z</time></trkpt><trkpt lat="36.9441248667485" lon="15.023220024080706"><ele>410.5</ele><time>2026-03-28T17:03:06.999Z</time></trkpt><trkpt lat="36.9442436531586" lon="15.023206493578384"><ele>409.0</ele><time>2026-03-28T17:03:07.999Z</time></trkpt><trkpt lat="36.94435680162804" lon="15.023185539065526"><ele>406.75</ele><time>2026-03-28T17:03:08.999Z</time></trkpt><trkpt lat="36.94446369849107" lon="15.023155467546434"><ele>404.5</ele><time>2026-03-28T17:03:09.999Z</time></trkpt><trkpt lat="36.94458925549523" lon="15.023113279756172"><ele>402.25</ele><time>2026-03-28T17:03:10.999Z</time></trkpt><trkpt lat="36.94470754134366" lon="15.023072697014566"><ele>400.0</ele><time>2026-03-28T17:03:11.999Z</time></trkpt><trkpt lat="36.944796840645424" lon="15.023045345541487"><ele>400.00000000000006</ele><time>2026-03-28T17:03:12.999Z</time></trkpt><trkpt lat="36.94492890972795" lon="15.02302749431308"><ele>400.0</ele><time>2026-03-28T17:03:14.999Z</time></trkpt><trkpt lat="36.94499675987735" lon="15.023066648741892"><ele>400.0</ele><time>2026-03-28T17:03:15.999Z</time></trkpt><trkpt lat="36.94506826454234" lon="15.023127155955855"><ele>400.0</ele><time>2026-03-28T17:03:16.999Z</time></trkpt><trkpt lat="36.94512144174364" lon="15.023178442283287"><ele>400.00000000000006</ele><time>2026-03-28T17:03:17.999Z</time></trkpt><trkpt lat="36.94517265560985" lon="15.023236024444214"><ele>400.0</ele><time>2026-03-28T17:03:18.999Z</time></trkpt><trkpt lat="36.94519766254049" lon="15.023344814049734"><ele>402.14285714285717</ele><time>2026-03-28T17:03:19.999Z</time></trkpt><trkpt lat="36.945214065944754" lon="15.023441010368305"><ele>404.2857142857143</ele><time>2026-03-28T17:03:20.999Z</time></trkpt><trkpt lat="36.94522679216867" lon="15.023519122101263"><ele>406.42857142857144</ele><time>2026-03-28T17:03:21.999Z</time></trkpt><trkpt lat="36.945242770693596" lon="15.023604051125485"><ele>408.57142857142856</ele><time>2026-03-28T17:03:22.999Z</time></trkpt><trkpt lat="36.94525348894936" lon="15.023685837079741"><ele>410.7142857142857</ele><time>2026-03-28T17:03:23.999Z</time></trkpt><trkpt lat="36.945293076524635" lon="15.023776309125022"><ele>412.8571428571429</ele><time>2026-03-28T17:03:24.999Z</time></trkpt><trkpt lat="36.94535006079641" lon="15.023852079805074"><ele>415.0</ele><time>2026-03-28T17:03:25.999Z</time></trkpt><trkpt lat="36.94544356635523" lon="15.023893147199743"><ele>415.0</ele><time>2026-03-28T17:03:26.999Z</time></trkpt><trkpt lat="36.94554004862304" lon="15.02391216552684"><ele>415.0</ele><time>2026-03-28T17:03:27.999Z</time></trkpt><trkpt lat="36.94564961426532" lon="15.023889731496745"><ele>415.0</ele><time>2026-03-28T17:03:28.999Z</time></trkpt><trkpt lat="36.94575327052466" lon="15.023860147713496"><ele>415.0</ele><time>2026-03-28T17:03:30Z</time></trkpt><trkpt lat="36.945847717254026" lon="15.023846999238755"><ele>415.0</ele><time>2026-03-28T17:03:31Z</time></trkpt><trkpt lat="36.9459210013556" lon="15.023782737423087"><ele>415.0</ele><time>2026-03-28T17:03:32Z</time></trkpt><trkpt lat="36.94598986531239" lon="15.023702766970029"><ele>415.0</ele><time>2026-03-28T17:03:33Z</time></trkpt><trkpt lat="36.94605950613708" lon="15.023596406207238"><ele>415.0</ele><time>2026-03-28T17:03:34Z</time></trkpt><trkpt lat="36.946127133193414" lon="15.023469434870227"><ele>415.0</ele><time>2026-03-28T17:03:35Z</time></trkpt><trkpt lat="36.94618310338829" lon="15.023365790885403"><ele>415.0</ele><time>2026-03-28T17:03:36Z</time></trkpt><trkpt lat="36.94625135605074" lon="15.023240165979473"><ele>415.0</ele><time>2026-03-28T17:03:38Z</time></trkpt><trkpt lat="36.946322948327555" lon="15.023116091707402"><ele>415.0</ele><time>2026-03-28T17:03:40Z</time></trkpt><trkpt lat="36.946369624869305" lon="15.023045880878033"><ele>415.0</ele><time>2026-03-28T17:03:41Z</time></trkpt><trkpt lat="36.94643882319131" lon="15.022994171269044"><ele>415.0</ele><time>2026-03-28T17:03:44Z</time></trkpt><trkpt lat="36.946533384734565" lon="15.02310050016495"><ele>415.0</ele><time>2026-03-28T17:04:15Z</time></trkpt><trkpt lat="36.94659658404572" lon="15.023171109735623"><ele>415.00000000000006</ele><time>2026-03-28T17:04:16Z</time></trkpt><trkpt lat="36.94664463341826" lon="15.023265714153403"><ele>415.0</ele><time>2026-03-28T17:04:17Z</time></trkpt><trkpt lat="36.94668880333507" lon="15.023360488399934"><ele>415.0</ele><time>2026-03-28T17:04:18Z</time></trkpt><trkpt lat="36.9467184711791" lon="15.023461230457935"><ele>415.0</ele><time>2026-03-28T17:04:19Z</time></trkpt><trkpt lat="36.94675089167624" lon="15.02354760551087"><ele>415.00000000000006</ele><time>2026-03-28T17:04:20Z</time></trkpt><trkpt lat="36.946764639756275" lon="15.023636166997113"><ele>415.0</ele><time>2026-03-28T17:04:21Z</time></trkpt><trkpt lat="36.946852166343696" lon="15.023754581836613"><ele>415.33333333333337</ele><time>2026-03-28T17:04:23Z</time></trkpt><trkpt lat="36.946921126793335" lon="15.023816710110813"><ele>415.6666666666667</ele><time>2026-03-28T17:04:24Z</time></trkpt><trkpt lat="36.946993985875906" lon="15.023858931794607"><ele>416.0</ele><time>2026-03-28T17:04:25Z</time></trkpt><trkpt lat="36.94707935396448" lon="15.023879481712711"><ele>416.33333333333337</ele><time>2026-03-28T17:04:26Z</time></trkpt><trkpt lat="36.94716803104478" lon="15.023887562737487"><ele>416.6666666666667</ele><time>2026-03-28T17:04:27Z</time></trkpt><trkpt lat="36.94725207985101" lon="15.023943949320776"><ele>417.0</ele><time>2026-03-28T17:04:28Z</time></trkpt><trkpt lat="36.94731764967783" lon="15.024001763201488"><ele>417.0</ele><time>2026-03-28T17:04:29Z</time></trkpt><trkpt lat="36.947397616032525" lon="15.024052801796334"><ele>417.0</ele><time>2026-03-28T17:04:30Z</time></trkpt><trkpt lat="36.947471508367066" lon="15.0241219784732"><ele>417.0</ele><time>2026-03-28T17:04:31Z</time></trkpt><trkpt lat="36.94753308258421" lon="15.024185122009682"><ele>417.0</ele><time>2026-03-28T17:04:32Z</time></trkpt><trkpt lat="36.94758076998564" lon="15.024255204383106"><ele>417.0</ele><time>2026-03-28T17:04:33Z</time></trkpt><trkpt lat="36.947592782477436" lon="15.024356959988728"><ele>417.0</ele><time>2026-03-28T17:04:34Z</time></trkpt><trkpt lat="36.9476312077606" lon="15.0244720213752"><ele>418.0</ele><time>2026-03-28T17:04:35Z</time></trkpt><trkpt lat="36.94766232888953" lon="15.024622974006697"><ele>419.0</ele><time>2026-03-28T17:04:36Z</time></trkpt><trkpt lat="36.94767183741641" lon="15.024749869861457"><ele>420.0</ele><time>2026-03-28T17:04:37Z</time></trkpt><trkpt lat="36.94769332971634" lon="15.024868255387487"><ele>421.0</ele><time>2026-03-28T17:04:38Z</time></trkpt><trkpt lat="36.94771459571341" lon="15.024973035469486"><ele>422.0</ele><time>2026-03-28T17:04:39Z</time></trkpt><trkpt lat="36.94773276018179" lon="15.025068776175583"><ele>418.66666666666663</ele><time>2026-03-28T17:04:40Z</time></trkpt><trkpt lat="36.947755551598064" lon="15.025151748506216"><ele>415.3333333333333</ele><time>2026-03-28T17:04:41Z</time></trkpt><trkpt lat="36.947759522845125" lon="15.025236268797325"><ele>412.0</ele><time>2026-03-28T17:04:42Z</time></trkpt><trkpt lat="36.94772772012168" lon="15.025321379245069"><ele>408.66666666666663</ele><time>2026-03-28T17:04:43Z</time></trkpt><trkpt lat="36.94767442655378" lon="15.025391367108535"><ele>405.3333333333333</ele><time>2026-03-28T17:04:44Z</time></trkpt><trkpt lat="36.94760475975934" lon="15.025477553994438"><ele>402.0</ele><time>2026-03-28T17:04:46Z</time></trkpt><trkpt lat="36.94752346173743" lon="15.025487439332068"><ele>401.6</ele><time>2026-03-28T17:04:48Z</time></trkpt><trkpt lat="36.94747087145033" lon="15.025387021068553"><ele>401.20000000000005</ele><time>2026-03-28T17:04:49Z</time></trkpt><trkpt lat="36.94739636634656" lon="15.025280226296609"><ele>400.8</ele><time>2026-03-28T17:04:50Z</time></trkpt><trkpt lat="36.94733604441826" lon="15.025148203828765"><ele>400.4</ele><time>2026-03-28T17:04:51Z</time></trkpt><trkpt lat="36.947278508682864" lon="15.025026412901655"><ele>400.0</ele><time>2026-03-28T17:04:52Z</time></trkpt><trkpt lat="36.94724897922841" lon="15.024910163160055"><ele>400.0</ele><time>2026-03-28T17:04:53Z</time></trkpt><trkpt lat="36.947211919324175" lon="15.024813636632063"><ele>400.0</ele><time>2026-03-28T17:04:54Z</time></trkpt><trkpt lat="36.94715807495175" lon="15.02471885145807"><ele>400.0</ele><time>2026-03-28T17:04:55Z</time></trkpt><trkpt lat="36.94708301651562" lon="15.024648260687707"><ele>400.0</ele><time>2026-03-28T17:04:56Z</time></trkpt><trkpt lat="36.94700651315394" lon="15.024627526816424"><ele>400.0</ele><time>2026-03-28T17:04:57Z</time></trkpt><trkpt lat="36.946899702770224" lon="15.024636789342187"><ele>400.0</ele><time>2026-03-28T17:04:58Z</time></trkpt><trkpt lat="36.946758257279974" lon="15.024674657634083"><ele>400.0</ele><time>2026-03-28T17:04:59Z</time></trkpt><trkpt lat="36.94661057269959" lon="15.024736647759688"><ele>400.0</ele><time>2026-03-28T17:05:00Z</time></trkpt><trkpt lat="36.94647312673886" lon="15.02479118233436"><ele>400.0</ele><time>2026-03-28T17:05:01Z</time></trkpt><trkpt lat="36.94634823271282" lon="15.024843332134884"><ele>398.6666666666667</ele><time>2026-03-28T17:05:02Z</time></trkpt><trkpt lat="36.94620386712872" lon="15.024899586888598"><ele>397.33333333333337</ele><time>2026-03-28T17:05:03Z</time></trkpt><trkpt lat="36.94604627469505" lon="15.025007263490087"><ele>396.0</ele><time>2026-03-28T17:05:04Z</time></trkpt><trkpt lat="36.945892748054625" lon="15.02509436360267"><ele>393.33333333333337</ele><time>2026-03-28T17:05:04.999Z</time></trkpt><trkpt lat="36.94574331573157" lon="15.025176969417691"><ele>390.6666666666667</ele><time>2026-03-28T17:05:05.999Z</time></trkpt><trkpt lat="36.94560020201212" lon="15.025258969822767"><ele>388.0</ele><time>2026-03-28T17:05:06.999Z</time></trkpt><trkpt lat="36.94544009093012" lon="15.02534548318636"><ele>388.0</ele><time>2026-03-28T17:05:07.999Z</time></trkpt><trkpt lat="36.94526682072499" lon="15.025428397594599"><ele>388.0</ele><time>2026-03-28T17:05:08.999Z</time></trkpt><trkpt lat="36.94509287060434" lon="15.025492506416004"><ele>388.0</ele><time>2026-03-28T17:05:09.999Z</time></trkpt><trkpt lat="36.94493921138126" lon="15.025545747275943"><ele>387.0</ele><time>2026-03-28T17:05:10.999Z</time></trkpt><trkpt lat="36.944803595239016" lon="15.025596328732496"><ele>386.0</ele><time>2026-03-28T17:05:11.999Z</time></trkpt><trkpt lat="36.944687610915764" lon="15.025638331941247"><ele>385.0</ele><time>2026-03-28T17:05:12.999Z</time></trkpt><trkpt lat="36.944592793725" lon="15.025671820685911"><ele>384.0</ele><time>2026-03-28T17:05:13.999Z</time></trkpt><trkpt lat="36.94452378871881" lon="15.025707056776913"><ele>383.0</ele><time>2026-03-28T17:05:14.999Z</time></trkpt><trkpt lat="36.944460320528364" lon="15.025721787151133"><ele>387.5</ele><time>2026-03-28T17:05:15.999Z</time></trkpt><trkpt lat="36.94443723086894" lon="15.025846289899825"><ele>392.0</ele><time>2026-03-28T17:05:16.999Z</time></trkpt><trkpt lat="36.944550512888334" lon="15.025942181997532"><ele>396.5</ele><time>2026-03-28T17:05:17.999Z</time></trkpt><trkpt lat="36.94464201446052" lon="15.026024359455423"><ele>401.0</ele><time>2026-03-28T17:05:18.999Z</time></trkpt><trkpt lat="36.944761147475795" lon="15.026119082066806"><ele>401.0</ele><time>2026-03-28T17:05:19.999Z</time></trkpt><trkpt lat="36.94488793938479" lon="15.026245904853068"><ele>401.0</ele><time>2026-03-28T17:05:20.999Z</time></trkpt><trkpt lat="36.94501257081453" lon="15.026378142654831"><ele>401.0</ele><time>2026-03-28T17:05:21.999Z</time></trkpt><trkpt lat="36.94514146019275" lon="15.026518901207858"><ele>404.3333333333333</ele><time>2026-03-28T17:05:22.999Z</time></trkpt><trkpt lat="36.94527335319573" lon="15.026649522164725"><ele>407.66666666666663</ele><time>2026-03-28T17:05:23.999Z</time></trkpt><trkpt lat="36.94540359817407" lon="15.026777361186875"><ele>411.0</ele><time>2026-03-28T17:05:24.999Z</time></trkpt><trkpt lat="36.94552225909807" lon="15.02689837614455"><ele>411.0</ele><time>2026-03-28T17:05:25.999Z</time></trkpt><trkpt lat="36.945628844102266" lon="15.027006081031374"><ele>411.0</ele><time>2026-03-28T17:05:26.999Z</time></trkpt><trkpt lat="36.94571605603327" lon="15.027096544349401"><ele>411.0</ele><time>2026-03-28T17:05:27.999Z</time></trkpt><trkpt lat="36.945798893581504" lon="15.02716925114748"><ele>411.0</ele><time>2026-03-28T17:05:28.999Z</time></trkpt><trkpt lat="36.94589402042257" lon="15.027225775945247"><ele>411.0</ele><time>2026-03-28T17:05:29.999Z</time></trkpt><trkpt lat="36.94604183494523" lon="15.027202784414223"><ele>411.0</ele><time>2026-03-28T17:05:30.999Z</time></trkpt><trkpt lat="36.94620169124873" lon="15.027203246548432"><ele>411.0</ele><time>2026-03-28T17:05:31.999Z</time></trkpt><trkpt lat="36.94638224888713" lon="15.027192415881927"><ele>411.0</ele><time>2026-03-28T17:05:32.999Z</time></trkpt><trkpt lat="36.94658521706076" lon="15.027180240919737"><ele>411.0</ele><time>2026-03-28T17:05:33.999Z</time></trkpt><trkpt lat="36.94680551285517" lon="15.027167197618631"><ele>411.0</ele><time>2026-03-28T17:05:34.999Z</time></trkpt><trkpt lat="36.94702878988231" lon="15.02715817329024"><ele>410.66666666666663</ele><time>2026-03-28T17:05:36Z</time></trkpt><trkpt lat="36.94726023590159" lon="15.027131103450051"><ele>410.3333333333333</ele><time>2026-03-28T17:05:37Z</time></trkpt><trkpt lat="36.94747705977527" lon="15.02711840824308"><ele>410.0</ele><time>2026-03-28T17:05:38Z</time></trkpt><trkpt lat="36.947693290288306" lon="15.027098890930201"><ele>410.0</ele><time>2026-03-28T17:05:39Z</time></trkpt><trkpt lat="36.94790091363193" lon="15.027111594856914"><ele>410.0</ele><time>2026-03-28T17:05:40Z</time></trkpt><trkpt lat="36.94808983017129" lon="15.027099626025027"><ele>410.0</ele><time>2026-03-28T17:05:41Z</time></trkpt><trkpt lat="36.94826055589865" lon="15.027065573669956"><ele>411.25</ele><time>2026-03-28T17:05:42Z</time></trkpt><trkpt lat="36.94841132492428" lon="15.027054547414572"><ele>412.5</ele><time>2026-03-28T17:05:43Z</time></trkpt><trkpt lat="36.94854466401078" lon="15.027051038899844"><ele>413.75</ele><time>2026-03-28T17:05:44Z</time></trkpt><trkpt lat="36.94866084746991" lon="15.027051863379628"><ele>415.0</ele><time>2026-03-28T17:05:45Z</time></trkpt><trkpt lat="36.94876272711732" lon="15.027034628866453"><ele>415.0</ele><time>2026-03-28T17:05:46Z</time></trkpt><trkpt lat="36.948881923459155" lon="15.0270015804297"><ele>415.0</ele><time>2026-03-28T17:05:47Z</time></trkpt><trkpt lat="36.94899974062546" lon="15.026871153472486"><ele>415.0</ele><time>2026-03-28T17:05:48Z</time></trkpt><trkpt lat="36.949111502845376" lon="15.026733110126486"><ele>415.0</ele><time>2026-03-28T17:05:49Z</time></trkpt><trkpt lat="36.94920116398947" lon="15.026624806964739"><ele>414.75</ele><time>2026-03-28T17:05:50Z</time></trkpt><trkpt lat="36.94928827712125" lon="15.026533448256691"><ele>414.5</ele><time>2026-03-28T17:05:51Z</time></trkpt><trkpt lat="36.94938353063806" lon="15.026474281029255"><ele>414.25</ele><time>2026-03-28T17:05:52Z</time></trkpt><trkpt lat="36.94950341153858" lon="15.026435362296748"><ele>414.0</ele><time>2026-03-28T17:05:53Z</time></trkpt><trkpt lat="36.949661173417816" lon="15.026404619353938"><ele>414.0</ele><time>2026-03-28T17:05:54Z</time></trkpt><trkpt lat="36.949834382419255" lon="15.026375159782834"><ele>414.0</ele><time>2026-03-28T17:05:55Z</time></trkpt><trkpt lat="36.95001226676284" lon="15.026341298826432"><ele>414.0</ele><time>2026-03-28T17:05:56Z</time></trkpt><trkpt lat="36.950164812976745" lon="15.026316892103608"><ele>416.0</ele><time>2026-03-28T17:05:57Z</time></trkpt><trkpt lat="36.95028990530454" lon="15.026285435990435"><ele>418.0</ele><time>2026-03-28T17:05:58Z</time></trkpt><trkpt lat="36.95039886851221" lon="15.026294824514066"><ele>420.0</ele><time>2026-03-28T17:05:59Z</time></trkpt><trkpt lat="36.95050279467723" lon="15.026327611893413"><ele>422.0</ele><time>2026-03-28T17:06:00Z</time></trkpt><trkpt lat="36.95059870396664" lon="15.026422346555616"><ele>422.0</ele><time>2026-03-28T17:06:01Z</time></trkpt><trkpt lat="36.95072834381288" lon="15.026540664130591"><ele>422.0</ele><time>2026-03-28T17:06:02Z</time></trkpt><trkpt lat="36.950871151283515" lon="15.026663057272508"><ele>422.0</ele><time>2026-03-28T17:06:03Z</time></trkpt><trkpt lat="36.9510106792647" lon="15.026762975226983"><ele>420.0</ele><time>2026-03-28T17:06:04Z</time></trkpt><trkpt lat="36.951144664022735" lon="15.026878432719204"><ele>418.0</ele><time>2026-03-28T17:06:05Z</time></trkpt><trkpt lat="36.95126571581194" lon="15.027014961374983"><ele>416.0</ele><time>2026-03-28T17:06:06Z</time></trkpt><trkpt lat="36.951404267467645" lon="15.027172547976333"><ele>416.0</ele><time>2026-03-28T17:06:07Z</time></trkpt><trkpt lat="36.951535578895374" lon="15.027329087009386"><ele>416.0</ele><time>2026-03-28T17:06:08Z</time></trkpt><trkpt lat="36.951655759053125" lon="15.02748154598482"><ele>416.0</ele><time>2026-03-28T17:06:09Z</time></trkpt><trkpt lat="36.95176812417059" lon="15.027637066501214"><ele>415.3333333333333</ele><time>2026-03-28T17:06:10Z</time></trkpt><trkpt lat="36.951866657288626" lon="15.027798223580676"><ele>414.66666666666663</ele><time>2026-03-28T17:06:11Z</time></trkpt><trkpt lat="36.951946153407675" lon="15.02798437502347"><ele>414.0</ele><time>2026-03-28T17:06:12Z</time></trkpt><trkpt lat="36.95201509860545" lon="15.028197922051321"><ele>412.33333333333337</ele><time>2026-03-28T17:06:13Z</time></trkpt><trkpt lat="36.95208789902806" lon="15.028427143784654"><ele>410.6666666666667</ele><time>2026-03-28T17:06:14Z</time></trkpt><trkpt lat="36.952138945580515" lon="15.028674616776012"><ele>409.0</ele><time>2026-03-28T17:06:15Z</time></trkpt><trkpt lat="36.952187818652334" lon="15.02891401091185"><ele>409.0</ele><time>2026-03-28T17:06:16Z</time></trkpt><trkpt lat="36.95222506140806" lon="15.029136528608863"><ele>409.0</ele><time>2026-03-28T17:06:17Z</time></trkpt><trkpt lat="36.95226342303244" lon="15.02934975689426"><ele>409.0</ele><time>2026-03-28T17:06:18Z</time></trkpt><trkpt lat="36.952306977181244" lon="15.029544474064503"><ele>408.75</ele><time>2026-03-28T17:06:19Z</time></trkpt><trkpt lat="36.95235704514866" lon="15.029711977097945"><ele>408.5</ele><time>2026-03-28T17:06:20Z</time></trkpt><trkpt lat="36.95240375102433" lon="15.029847927196725"><ele>408.25</ele><time>2026-03-28T17:06:21Z</time></trkpt><trkpt lat="36.95244961745535" lon="15.029955581180193"><ele>408.0</ele><time>2026-03-28T17:06:22Z</time></trkpt><trkpt lat="36.95251477906614" lon="15.03003518482342"><ele>407.25</ele><time>2026-03-28T17:06:23Z</time></trkpt><trkpt lat="36.952608171149826" lon="15.030075905438602"><ele>406.5</ele><time>2026-03-28T17:06:24Z</time></trkpt><trkpt lat="36.95273566991642" lon="15.030083969540122"><ele>405.75</ele><time>2026-03-28T17:06:25Z</time></trkpt><trkpt lat="36.95288036277712" lon="15.030080102416102"><ele>405.0</ele><time>2026-03-28T17:06:26Z</time></trkpt><trkpt lat="36.952997971263464" lon="15.030109360256755"><ele>405.0</ele><time>2026-03-28T17:06:27Z</time></trkpt><trkpt lat="36.953096769871244" lon="15.030184316255394"><ele>405.0</ele><time>2026-03-28T17:06:28Z</time></trkpt><trkpt lat="36.95320571564127" lon="15.030291396405687"><ele>405.0</ele><time>2026-03-28T17:06:29Z</time></trkpt><trkpt lat="36.95334177735284" lon="15.030412895296093"><ele>405.0</ele><time>2026-03-28T17:06:30Z</time></trkpt><trkpt lat="36.953464501389455" lon="15.030572487123768"><ele>405.75</ele><time>2026-03-28T17:06:31Z</time></trkpt><trkpt lat="36.95357541897216" lon="15.030704929676968"><ele>406.5</ele><time>2026-03-28T17:06:32Z</time></trkpt><trkpt lat="36.9536832965124" lon="15.03081976227538"><ele>407.25</ele><time>2026-03-28T17:06:33Z</time></trkpt><trkpt lat="36.953802719064775" lon="15.0309095868668"><ele>408.0</ele><time>2026-03-28T17:06:34Z</time></trkpt><trkpt lat="36.95393617182322" lon="15.030969816114268"><ele>402.33333333333337</ele><time>2026-03-28T17:06:35Z</time></trkpt><trkpt lat="36.95409238201374" lon="15.03099817968617"><ele>396.6666666666667</ele><time>2026-03-28T17:06:36Z</time></trkpt><trkpt lat="36.954264231153125" lon="15.031002523541453"><ele>391.0</ele><time>2026-03-28T17:06:37Z</time></trkpt><trkpt lat="36.9544186382156" lon="15.031001576420078"><ele>389.6666666666667</ele><time>2026-03-28T17:06:38Z</time></trkpt><trkpt lat="36.95457598802705" lon="15.030998652327414"><ele>388.33333333333337</ele><time>2026-03-28T17:06:39Z</time></trkpt><trkpt lat="36.95475532316373" lon="15.030955701883006"><ele>387.0</ele><time>2026-03-28T17:06:40Z</time></trkpt><trkpt lat="36.954940364261375" lon="15.030914863859032"><ele>385.0</ele><time>2026-03-28T17:06:41Z</time></trkpt><trkpt lat="36.95510719333173" lon="15.03084863099458"><ele>383.0</ele><time>2026-03-28T17:06:42Z</time></trkpt><trkpt lat="36.95526273312106" lon="15.03082046499604"><ele>381.0</ele><time>2026-03-28T17:06:43Z</time></trkpt><trkpt lat="36.955396704286976" lon="15.03082267061583"><ele>381.0</ele><time>2026-03-28T17:06:44Z</time></trkpt><trkpt lat="36.955519028637084" lon="15.030822099628827"><ele>381.0</ele><time>2026-03-28T17:06:45Z</time></trkpt><trkpt lat="36.95563708880583" lon="15.03079455120274"><ele>381.0</ele><time>2026-03-28T17:06:46Z</time></trkpt><trkpt lat="36.9557524753968" lon="15.03076503988551"><ele>381.0</ele><time>2026-03-28T17:06:47Z</time></trkpt><trkpt lat="36.95586023279124" lon="15.030744158832649"><ele>382.20000000000005</ele><time>2026-03-28T17:06:48Z</time></trkpt><trkpt lat="36.955962313070955" lon="15.030725268119122"><ele>383.40000000000003</ele><time>2026-03-28T17:06:49Z</time></trkpt><trkpt lat="36.95606009466657" lon="15.030707172897044"><ele>384.6</ele><time>2026-03-28T17:06:50Z</time></trkpt><trkpt lat="36.956147916185195" lon="15.030690920864057"><ele>385.8</ele><time>2026-03-28T17:06:51Z</time></trkpt><trkpt lat="36.956240861790505" lon="15.030673720587945"><ele>387.0</ele><time>2026-03-28T17:06:52Z</time></trkpt><trkpt lat="36.95634087215338" lon="15.030654781840123"><ele>387.0</ele><time>2026-03-28T17:06:53Z</time></trkpt><trkpt lat="36.956437180580174" lon="15.030625617941865"><ele>387.0</ele><time>2026-03-28T17:06:54Z</time></trkpt><trkpt lat="36.956510788820125" lon="15.030620022418317"><ele>387.0</ele><time>2026-03-28T17:06:55Z</time></trkpt><trkpt lat="36.95658010546034" lon="15.03060167679681"><ele>387.0</ele><time>2026-03-28T17:06:56Z</time></trkpt><trkpt lat="36.956631828042475" lon="15.03055210463984"><ele>387.0</ele><time>2026-03-28T17:06:57Z</time></trkpt><trkpt lat="36.956667193110896" lon="15.030473374531805"><ele>387.0</ele><time>2026-03-28T17:06:58Z</time></trkpt><trkpt lat="36.95669253248477" lon="15.030342145603056"><ele>387.8333333333333</ele><time>2026-03-28T17:06:59Z</time></trkpt><trkpt lat="36.95672728010008" lon="15.030221515867105"><ele>388.66666666666663</ele><time>2026-03-28T17:07:00Z</time></trkpt><trkpt lat="36.95675011862384" lon="15.030129594385123"><ele>389.5</ele><time>2026-03-28T17:07:01Z</time></trkpt><trkpt lat="36.956773179435466" lon="15.030042522986667"><ele>390.3333333333333</ele><time>2026-03-28T17:07:02Z</time></trkpt><trkpt lat="36.95681007611101" lon="15.029951470989909"><ele>391.16666666666663</ele><time>2026-03-28T17:07:03Z</time></trkpt><trkpt lat="36.956843934046105" lon="15.029859544776658"><ele>392.0</ele><time>2026-03-28T17:07:04Z</time></trkpt><trkpt lat="36.956895145671794" lon="15.029804699151159"><ele>393.0</ele><time>2026-03-28T17:07:05Z</time></trkpt><trkpt lat="36.956957235837194" lon="15.029707311688973"><ele>394.0</ele><time>2026-03-28T17:07:07Z</time></trkpt><trkpt lat="36.95704498257363" lon="15.029613707010324"><ele>395.0</ele><time>2026-03-28T17:07:09Z</time></trkpt><trkpt lat="36.95710942563568" lon="15.029590078696286"><ele>396.0</ele><time>2026-03-28T17:07:10Z</time></trkpt><trkpt lat="36.957226442060986" lon="15.029594474317166"><ele>397.0</ele><time>2026-03-28T17:07:11.999Z</time></trkpt><trkpt lat="36.95726877013376" lon="15.029653258855435"><ele>397.00000000000006</ele><time>2026-03-28T17:07:12.999Z</time></trkpt><trkpt lat="36.95730978172837" lon="15.029740301220524"><ele>397.0</ele><time>2026-03-28T17:07:14.999Z</time></trkpt><trkpt lat="36.95727796684975" lon="15.02985831897279"><ele>397.0</ele><time>2026-03-28T17:07:16.999Z</time></trkpt><trkpt lat="36.95722567197891" lon="15.029920152138477"><ele>397.0</ele><time>2026-03-28T17:07:17.999Z</time></trkpt><trkpt lat="36.95719877506374" lon="15.029998231393035"><ele>397.00000000000006</ele><time>2026-03-28T17:07:18.999Z</time></trkpt><trkpt lat="36.95717723089364" lon="15.030124173145676"><ele>397.0</ele><time>2026-03-28T17:07:20.999Z</time></trkpt><trkpt lat="36.95718579065661" lon="15.030233659244898"><ele>396.0</ele><time>2026-03-28T17:07:22.999Z</time></trkpt><trkpt lat="36.957262613082456" lon="15.030369678420229"><ele>395.0</ele><time>2026-03-28T17:07:24.999Z</time></trkpt><trkpt lat="36.95732029577513" lon="15.030441574883106"><ele>394.0</ele><time>2026-03-28T17:07:25.999Z</time></trkpt><trkpt lat="36.9573767155475" lon="15.030529364356978"><ele>393.0</ele><time>2026-03-28T17:07:26.999Z</time></trkpt><trkpt lat="36.95743599755194" lon="15.030628494212886"><ele>392.0</ele><time>2026-03-28T17:07:27.999Z</time></trkpt><trkpt lat="36.95747383906627" lon="15.03072864007011"><ele>389.49999999999994</ele><time>2026-03-28T17:07:28.999Z</time></trkpt><trkpt lat="36.95750454633292" lon="15.030821543553136"><ele>387.0</ele><time>2026-03-28T17:07:29.999Z</time></trkpt><trkpt lat="36.95752054704292" lon="15.030901270952604"><ele>384.5</ele><time>2026-03-28T17:07:30.999Z</time></trkpt><trkpt lat="36.957497919099" lon="15.031005248597493"><ele>382.0</ele><time>2026-03-28T17:07:31.999Z</time></trkpt><trkpt lat="36.957478688145294" lon="15.031146257603607"><ele>379.5</ele><time>2026-03-28T17:07:32.999Z</time></trkpt><trkpt lat="36.95747298295532" lon="15.031270507754964"><ele>377.0</ele><time>2026-03-28T17:07:33.999Z</time></trkpt><trkpt lat="36.957451321701704" lon="15.03137172892478"><ele>377.0</ele><time>2026-03-28T17:07:34.999Z</time></trkpt><trkpt lat="36.957435137349485" lon="15.031459019477504"><ele>377.0</ele><time>2026-03-28T17:07:35.999Z</time></trkpt><trkpt lat="36.95740490719905" lon="15.031533046087882"><ele>377.0</ele><time>2026-03-28T17:07:36.999Z</time></trkpt><trkpt lat="36.957303274199084" lon="15.031608200021038"><ele>377.0</ele><time>2026-03-28T17:07:38.999Z</time></trkpt><trkpt lat="36.957230272819956" lon="15.03160790802591"><ele>377.0</ele><time>2026-03-28T17:07:39.999Z</time></trkpt><trkpt lat="36.95716499996923" lon="15.031595410437532"><ele>377.0</ele><time>2026-03-28T17:07:40.999Z</time></trkpt><trkpt lat="36.957042279204245" lon="15.031641097347718"><ele>377.0</ele><time>2026-03-28T17:07:43Z</time></trkpt><trkpt lat="36.9569729123137" lon="15.031713747056694"><ele>377.0</ele><time>2026-03-28T17:07:44Z</time></trkpt><trkpt lat="36.95690943537895" lon="15.03180829234977"><ele>377.0</ele><time>2026-03-28T17:07:45Z</time></trkpt><trkpt lat="36.95683702704927" lon="15.03194667940128"><ele>377.0</ele><time>2026-03-28T17:07:46Z</time></trkpt><trkpt lat="36.95672550369058" lon="15.032100923220737"><ele>375.0</ele><time>2026-03-28T17:07:47Z</time></trkpt><trkpt lat="36.9566220347361" lon="15.032288998231186"><ele>373.0</ele><time>2026-03-28T17:07:48Z</time></trkpt><trkpt lat="36.95652630453984" lon="15.032473951650783"><ele>371.0</ele><time>2026-03-28T17:07:49Z</time></trkpt><trkpt lat="36.956455434608074" lon="15.032639563086816"><ele>373.8</ele><time>2026-03-28T17:07:50Z</time></trkpt><trkpt lat="36.956390895571424" lon="15.032770467636299"><ele>376.6</ele><time>2026-03-28T17:07:51Z</time></trkpt><trkpt lat="36.95633563139494" lon="15.032881477217666"><ele>379.4</ele><time>2026-03-28T17:07:52Z</time></trkpt><trkpt lat="36.956291709649236" lon="15.032974298333457"><ele>382.2</ele><time>2026-03-28T17:07:53Z</time></trkpt><trkpt lat="36.9562553008757" lon="15.03305634727821"><ele>385.0</ele><time>2026-03-28T17:07:54Z</time></trkpt><trkpt lat="36.95627250968026" lon="15.03315393290232"><ele>385.0</ele><time>2026-03-28T17:07:55Z</time></trkpt><trkpt lat="36.956401629277075" lon="15.033175744162518"><ele>385.0</ele><time>2026-03-28T17:07:56Z</time></trkpt><trkpt lat="36.95650071636862" lon="15.03317196164359"><ele>385.0</ele><time>2026-03-28T17:07:57Z</time></trkpt><trkpt lat="36.956617318553334" lon="15.033121349944448"><ele>385.0</ele><time>2026-03-28T17:07:58Z</time></trkpt><trkpt lat="36.9567613758033" lon="15.03304217407445"><ele>387.6666666666667</ele><time>2026-03-28T17:07:59Z</time></trkpt><trkpt lat="36.95692218149631" lon="15.032966900261595"><ele>390.33333333333337</ele><time>2026-03-28T17:08:00Z</time></trkpt><trkpt lat="36.957098876841755" lon="15.032889650389482"><ele>393.0</ele><time>2026-03-28T17:08:01Z</time></trkpt><trkpt lat="36.95727931252045" lon="15.032808187170442"><ele>393.0</ele><time>2026-03-28T17:08:02Z</time></trkpt><trkpt lat="36.957464431692465" lon="15.032736595166753"><ele>393.0</ele><time>2026-03-28T17:08:03Z</time></trkpt><trkpt lat="36.95763014905726" lon="15.032677526689655"><ele>393.0</ele><time>2026-03-28T17:08:04Z</time></trkpt><trkpt lat="36.95777147345345" lon="15.032627420670053"><ele>391.4</ele><time>2026-03-28T17:08:05Z</time></trkpt><trkpt lat="36.95788169684102" lon="15.03258770838369"><ele>389.79999999999995</ele><time>2026-03-28T17:08:06Z</time></trkpt><trkpt lat="36.95795768562375" lon="15.032567142480053"><ele>388.2</ele><time>2026-03-28T17:08:07Z</time></trkpt><trkpt lat="36.95805822824001" lon="15.032638498592041"><ele>386.6</ele><time>2026-03-28T17:08:09Z</time></trkpt><trkpt lat="36.958117580381156" lon="15.032751144731668"><ele>385.0</ele><time>2026-03-28T17:08:10Z</time></trkpt><trkpt lat="36.95817813520003" lon="15.032911440003875"><ele>385.0</ele><time>2026-03-28T17:08:11Z</time></trkpt><trkpt lat="36.958214793365954" lon="15.033094674688853"><ele>385.0</ele><time>2026-03-28T17:08:12Z</time></trkpt><trkpt lat="36.9582669502741" lon="15.033288137666323"><ele>385.0</ele><time>2026-03-28T17:08:13Z</time></trkpt><trkpt lat="36.958320858752515" lon="15.033491626177304"><ele>390.0</ele><time>2026-03-28T17:08:14Z</time></trkpt><trkpt lat="36.95837225945145" lon="15.033709874476544"><ele>395.0</ele><time>2026-03-28T17:08:15Z</time></trkpt><trkpt lat="36.95842019917284" lon="15.033904073861192"><ele>400.0</ele><time>2026-03-28T17:08:16Z</time></trkpt><trkpt lat="36.95846821250003" lon="15.034102792094771"><ele>403.25</ele><time>2026-03-28T17:08:17Z</time></trkpt><trkpt lat="36.95850758988446" lon="15.034272431714768"><ele>406.5</ele><time>2026-03-28T17:08:18Z</time></trkpt><trkpt lat="36.95854108553595" lon="15.03442172150675"><ele>409.75</ele><time>2026-03-28T17:08:19Z</time></trkpt><trkpt lat="36.958591249577054" lon="15.034560229816421"><ele>413.0</ele><time>2026-03-28T17:08:20Z</time></trkpt><trkpt lat="36.95867270499139" lon="15.034690621830098"><ele>413.0</ele><time>2026-03-28T17:08:21Z</time></trkpt><trkpt lat="36.95878952387533" lon="15.034824472236712"><ele>413.0</ele><time>2026-03-28T17:08:22Z</time></trkpt><trkpt lat="36.95892723365908" lon="15.034965313451616"><ele>413.0</ele><time>2026-03-28T17:08:23Z</time></trkpt><trkpt lat="36.95907520804437" lon="15.035120257772979"><ele>413.3333333333333</ele><time>2026-03-28T17:08:24Z</time></trkpt><trkpt lat="36.95923221170129" lon="15.035290990810369"><ele>413.66666666666663</ele><time>2026-03-28T17:08:25Z</time></trkpt><trkpt lat="36.95939377360082" lon="15.035470051084632"><ele>414.0</ele><time>2026-03-28T17:08:26Z</time></trkpt><trkpt lat="36.959563143764164" lon="15.03565913671065"><ele>411.0</ele><time>2026-03-28T17:08:27Z</time></trkpt><trkpt lat="36.959736702399965" lon="15.035847230343457"><ele>408.0</ele><time>2026-03-28T17:08:28Z</time></trkpt><trkpt lat="36.95991570365662" lon="15.036044123351807"><ele>410.5</ele><time>2026-03-28T17:08:29Z</time></trkpt><trkpt lat="36.9600989882009" lon="15.03623947602058"><ele>413.0</ele><time>2026-03-28T17:08:30Z</time></trkpt><trkpt lat="36.96027673101102" lon="15.036423051206052"><ele>413.0</ele><time>2026-03-28T17:08:31Z</time></trkpt><trkpt lat="36.96044178744847" lon="15.036598664287498"><ele>413.0</ele><time>2026-03-28T17:08:32Z</time></trkpt><trkpt lat="36.96059731297698" lon="15.036771981461335"><ele>413.0</ele><time>2026-03-28T17:08:33Z</time></trkpt><trkpt lat="36.960745284688656" lon="15.036933163297098"><ele>411.66666666666663</ele><time>2026-03-28T17:08:34Z</time></trkpt><trkpt lat="36.96087827822737" lon="15.037079890138472"><ele>410.33333333333337</ele><time>2026-03-28T17:08:35Z</time></trkpt><trkpt lat="36.9609876878196" lon="15.037204294170307"><ele>409.0</ele><time>2026-03-28T17:08:36Z</time></trkpt><trkpt lat="36.96108669554388" lon="15.03731355171066"><ele>409.00000000000006</ele><time>2026-03-28T17:08:37Z</time></trkpt><trkpt lat="36.96117043992544" lon="15.037403771854056"><ele>409.0</ele><time>2026-03-28T17:08:38Z</time></trkpt><trkpt lat="36.96124099441874" lon="15.037478467375912"><ele>409.0</ele><time>2026-03-28T17:08:39Z</time></trkpt><trkpt lat="36.96127596090922" lon="15.03755659297268"><ele>409.0</ele><time>2026-03-28T17:08:40Z</time></trkpt><trkpt lat="36.961311815635995" lon="15.037626402625268"><ele>409.00000000000006</ele><time>2026-03-28T17:08:42Z</time></trkpt><trkpt lat="36.96135397446833" lon="15.037708400051113"><ele>409.0</ele><time>2026-03-28T17:09:10Z</time></trkpt><trkpt lat="36.96144905402269" lon="15.03763976858515"><ele>409.2</ele><time>2026-03-28T17:09:12Z</time></trkpt><trkpt lat="36.96152273036051" lon="15.037591252440988"><ele>409.4</ele><time>2026-03-28T17:09:18.999Z</time></trkpt><trkpt lat="36.96160513118041" lon="15.037574419015217"><ele>409.6</ele><time>2026-03-28T17:09:19.999Z</time></trkpt><trkpt lat="36.96170869921707" lon="15.037508955006949"><ele>409.8</ele><time>2026-03-28T17:09:20.999Z</time></trkpt><trkpt lat="36.961843671804736" lon="15.037452434598894"><ele>410.0</ele><time>2026-03-28T17:09:21.999Z</time></trkpt><trkpt lat="36.96201077786115" lon="15.037392082887239"><ele>410.75</ele><time>2026-03-28T17:09:22.999Z</time></trkpt><trkpt lat="36.96217424667705" lon="15.037330095418932"><ele>411.5</ele><time>2026-03-28T17:09:23.999Z</time></trkpt><trkpt lat="36.962315928806454" lon="15.037267730915161"><ele>412.25</ele><time>2026-03-28T17:09:24.999Z</time></trkpt><trkpt lat="36.962421492636345" lon="15.037216786559442"><ele>413.0</ele><time>2026-03-28T17:09:25.999Z</time></trkpt><trkpt lat="36.96249402202615" lon="15.037175132856262"><ele>413.0</ele><time>2026-03-28T17:09:26.999Z</time></trkpt><trkpt lat="36.96255952911528" lon="15.037111086151851"><ele>413.0</ele><time>2026-03-28T17:09:28.999Z</time></trkpt><trkpt lat="36.962495136877656" lon="15.037175874418068"><ele>413.0</ele><time>2026-03-28T17:09:33.999Z</time></trkpt><trkpt lat="36.96234667680074" lon="15.037248522233208"><ele>413.0</ele><time>2026-03-28T17:09:36.999Z</time></trkpt><trkpt lat="36.96240734768803" lon="15.037348514269949"><ele>413.0</ele><time>2026-03-28T17:09:48Z</time></trkpt><trkpt lat="36.96248531566049" lon="15.037438029648689"><ele>413.8333333333333</ele><time>2026-03-28T17:09:49Z</time></trkpt><trkpt lat="36.96255230552692" lon="15.037533652159057"><ele>414.66666666666663</ele><time>2026-03-28T17:09:50Z</time></trkpt><trkpt lat="36.962603936053185" lon="15.037641705367983"><ele>415.5</ele><time>2026-03-28T17:09:51Z</time></trkpt><trkpt lat="36.962612312312395" lon="15.037753600983335"><ele>416.33333333333337</ele><time>2026-03-28T17:09:52Z</time></trkpt><trkpt lat="36.962632695381515" lon="15.037840729693592"><ele>417.1666666666667</ele><time>2026-03-28T17:09:53Z</time></trkpt><trkpt lat="36.96265599873745" lon="15.037916187405887"><ele>418.0</ele><time>2026-03-28T17:09:54Z</time></trkpt><trkpt lat="36.96268929882814" lon="15.038005864016725"><ele>418.0</ele><time>2026-03-28T17:09:55Z</time></trkpt><trkpt lat="36.962743855054384" lon="15.038106268902641"><ele>418.0</ele><time>2026-03-28T17:09:56Z</time></trkpt><trkpt lat="36.962821927179284" lon="15.038172977173982"><ele>418.0</ele><time>2026-03-28T17:09:57Z</time></trkpt><trkpt lat="36.962898260653745" lon="15.03825016055412"><ele>418.0</ele><time>2026-03-28T17:09:58Z</time></trkpt><trkpt lat="36.96299494858037" lon="15.038354597860806"><ele>418.0</ele><time>2026-03-28T17:09:59Z</time></trkpt><trkpt lat="36.96311234868162" lon="15.038447786249753"><ele>416.4</ele><time>2026-03-28T17:10:00Z</time></trkpt><trkpt lat="36.9631913667055" lon="15.03854971091953"><ele>414.79999999999995</ele><time>2026-03-28T17:10:01Z</time></trkpt><trkpt lat="36.963261345842014" lon="15.038648790900655"><ele>413.2</ele><time>2026-03-28T17:10:02Z</time></trkpt><trkpt lat="36.9633020091332" lon="15.03875752316083"><ele>411.6</ele><time>2026-03-28T17:10:03Z</time></trkpt><trkpt lat="36.963349521163224" lon="15.03886125883595"><ele>410.0</ele><time>2026-03-28T17:10:04Z</time></trkpt><trkpt lat="36.963350783532526" lon="15.03903073922182"><ele>410.0</ele><time>2026-03-28T17:10:05Z</time></trkpt><trkpt lat="36.96337219377738" lon="15.039223954862182"><ele>410.0</ele><time>2026-03-28T17:10:06Z</time></trkpt><trkpt lat="36.963377923450224" lon="15.039388058706837"><ele>410.0</ele><time>2026-03-28T17:10:07Z</time></trkpt><trkpt lat="36.96338159610112" lon="15.039539342708268"><ele>410.0</ele><time>2026-03-28T17:10:08Z</time></trkpt><trkpt lat="36.96339560909709" lon="15.0396825893231"><ele>410.0</ele><time>2026-03-28T17:10:09Z</time></trkpt><trkpt lat="36.963426942542085" lon="15.039826748201957"><ele>410.0</ele><time>2026-03-28T17:10:10Z</time></trkpt><trkpt lat="36.96345288477341" lon="15.03999385425864"><ele>410.0</ele><time>2026-03-28T17:10:11Z</time></trkpt><trkpt lat="36.963449723122665" lon="15.040180250767213"><ele>410.0</ele><time>2026-03-28T17:10:12Z</time></trkpt><trkpt lat="36.96346403744807" lon="15.040369466222073"><ele>409.4</ele><time>2026-03-28T17:10:13Z</time></trkpt><trkpt lat="36.96347702690207" lon="15.040529043978415"><ele>408.8</ele><time>2026-03-28T17:10:14Z</time></trkpt><trkpt lat="36.96348800304913" lon="15.040671195879849"><ele>408.20000000000005</ele><time>2026-03-28T17:10:15Z</time></trkpt><trkpt lat="36.963512316005975" lon="15.040781294879872"><ele>407.6</ele><time>2026-03-28T17:10:16Z</time></trkpt><trkpt lat="36.963500902638394" lon="15.04087855253153"><ele>407.0</ele><time>2026-03-28T17:10:17Z</time></trkpt><trkpt lat="36.96350431626729" lon="15.040958375731645"><ele>406.0</ele><time>2026-03-28T17:10:18Z</time></trkpt><trkpt lat="36.96352817556772" lon="15.041094697499487"><ele>405.0</ele><time>2026-03-28T17:10:20Z</time></trkpt><trkpt lat="36.96352749416753" lon="15.041235316805642"><ele>404.0</ele><time>2026-03-28T17:10:22Z</time></trkpt><trkpt lat="36.96356165682513" lon="15.041357390455909"><ele>403.0</ele><time>2026-03-28T17:10:24Z</time></trkpt><trkpt lat="36.96356986313829" lon="15.041452250427938"><ele>402.0</ele><time>2026-03-28T17:10:25Z</time></trkpt><trkpt lat="36.96357978514865" lon="15.041580172891475"><ele>400.5</ele><time>2026-03-28T17:10:26Z</time></trkpt><trkpt lat="36.963598222526194" lon="15.041741660196708"><ele>399.0</ele><time>2026-03-28T17:10:27Z</time></trkpt><trkpt lat="36.96361339375803" lon="15.041903112362776"><ele>397.5</ele><time>2026-03-28T17:10:28Z</time></trkpt><trkpt lat="36.963625460926025" lon="15.042054134738603"><ele>396.0</ele><time>2026-03-28T17:10:29Z</time></trkpt><trkpt lat="36.963642412620125" lon="15.042190306625988"><ele>396.0</ele><time>2026-03-28T17:10:30Z</time></trkpt><trkpt lat="36.96367992954438" lon="15.04231844664529"><ele>396.0</ele><time>2026-03-28T17:10:31Z</time></trkpt><trkpt lat="36.963696247463076" lon="15.042449242149859"><ele>396.0</ele><time>2026-03-28T17:10:32Z</time></trkpt><trkpt lat="36.96370734189767" lon="15.042575636385028"><ele>396.0</ele><time>2026-03-28T17:10:33Z</time></trkpt><trkpt lat="36.96371628901234" lon="15.042709913421058"><ele>396.0</ele><time>2026-03-28T17:10:34Z</time></trkpt><trkpt lat="36.96371731231913" lon="15.042850248470614"><ele>395.20000000000005</ele><time>2026-03-28T17:10:35Z</time></trkpt><trkpt lat="36.96371132910543" lon="15.04299257269272"><ele>394.40000000000003</ele><time>2026-03-28T17:10:36Z</time></trkpt><trkpt lat="36.96371585270062" lon="15.043115668711318"><ele>393.6</ele><time>2026-03-28T17:10:37Z</time></trkpt><trkpt lat="36.96373416474175" lon="15.04324671396217"><ele>392.8</ele><time>2026-03-28T17:10:38Z</time></trkpt><trkpt lat="36.96375826769585" lon="15.043367682945949"><ele>392.0</ele><time>2026-03-28T17:10:39Z</time></trkpt><trkpt lat="36.96377726489713" lon="15.043468243270208"><ele>391.99999999999994</ele><time>2026-03-28T17:10:40Z</time></trkpt><trkpt lat="36.96380714407162" lon="15.04355649748686"><ele>392.0</ele><time>2026-03-28T17:10:41Z</time></trkpt><trkpt lat="36.9638632342405" lon="15.043644470649799"><ele>392.0</ele><time>2026-03-28T17:10:42Z</time></trkpt><trkpt lat="36.96392613169795" lon="15.043730024471433"><ele>392.0</ele><time>2026-03-28T17:10:43Z</time></trkpt><trkpt lat="36.96399636728964" lon="15.043780307279635"><ele>391.99999999999994</ele><time>2026-03-28T17:10:44Z</time></trkpt><trkpt lat="36.96407205977956" lon="15.043829681256028"><ele>392.0</ele><time>2026-03-28T17:10:45Z</time></trkpt><trkpt lat="36.964133939024414" lon="15.04390457872139"><ele>392.0</ele><time>2026-03-28T17:10:46Z</time></trkpt><trkpt lat="36.96418831019944" lon="15.043994166529645"><ele>392.0</ele><time>2026-03-28T17:10:47Z</time></trkpt><trkpt lat="36.964227171882406" lon="15.044100697751963"><ele>392.0</ele><time>2026-03-28T17:10:48Z</time></trkpt><trkpt lat="36.96430581091135" lon="15.044204245480882"><ele>392.0</ele><time>2026-03-28T17:10:49Z</time></trkpt><trkpt lat="36.96438714029386" lon="15.044294277608403"><ele>392.0</ele><time>2026-03-28T17:10:50Z</time></trkpt><trkpt lat="36.96447669216747" lon="15.04438963793421"><ele>393.20000000000005</ele><time>2026-03-28T17:10:51Z</time></trkpt><trkpt lat="36.96452455834072" lon="15.044512452604252"><ele>394.4</ele><time>2026-03-28T17:10:52Z</time></trkpt><trkpt lat="36.9645822876169" lon="15.044621849863994"><ele>395.6</ele><time>2026-03-28T17:10:53Z</time></trkpt><trkpt lat="36.96465411798734" lon="15.044724852346963"><ele>396.79999999999995</ele><time>2026-03-28T17:10:54Z</time></trkpt><trkpt lat="36.964702946872144" lon="15.044833520416978"><ele>398.0</ele><time>2026-03-28T17:10:55Z</time></trkpt><trkpt lat="36.964750240069776" lon="15.04495231159335"><ele>398.79999999999995</ele><time>2026-03-28T17:10:56Z</time></trkpt><trkpt lat="36.96479663370482" lon="15.045063801212544"><ele>399.6</ele><time>2026-03-28T17:10:57Z</time></trkpt><trkpt lat="36.96481565659571" lon="15.045178795585803"><ele>400.4</ele><time>2026-03-28T17:10:58Z</time></trkpt><trkpt lat="36.96484554352218" lon="15.045294736171313"><ele>401.20000000000005</ele><time>2026-03-28T17:10:59Z</time></trkpt><trkpt lat="36.96488784639723" lon="15.045403840241292"><ele>402.0</ele><time>2026-03-28T17:11:00Z</time></trkpt><trkpt lat="36.964921758122834" lon="15.045523213364447"><ele>402.0</ele><time>2026-03-28T17:11:01Z</time></trkpt><trkpt lat="36.96496805229557" lon="15.045637174078287"><ele>402.0</ele><time>2026-03-28T17:11:02Z</time></trkpt><trkpt lat="36.965032273126546" lon="15.045738921887162"><ele>402.0</ele><time>2026-03-28T17:11:03Z</time></trkpt><trkpt lat="36.96508718909138" lon="15.04583482380392"><ele>402.0</ele><time>2026-03-28T17:11:04Z</time></trkpt><trkpt lat="36.965109682305666" lon="15.045939217504962"><ele>402.0</ele><time>2026-03-28T17:11:05Z</time></trkpt><trkpt lat="36.96515041096056" lon="15.046043307441707"><ele>402.8333333333333</ele><time>2026-03-28T17:11:06Z</time></trkpt><trkpt lat="36.96517507727607" lon="15.046145123536428"><ele>403.66666666666663</ele><time>2026-03-28T17:11:07Z</time></trkpt><trkpt lat="36.965200144345914" lon="15.046231931412818"><ele>404.5</ele><time>2026-03-28T17:11:08Z</time></trkpt><trkpt lat="36.96523214069648" lon="15.046308331859521"><ele>405.3333333333333</ele><time>2026-03-28T17:11:09Z</time></trkpt><trkpt lat="36.965278571440706" lon="15.046387063179388"><ele>406.16666666666663</ele><time>2026-03-28T17:11:10Z</time></trkpt><trkpt lat="36.96534528117403" lon="15.046453976295231"><ele>407.0</ele><time>2026-03-28T17:11:11Z</time></trkpt><trkpt lat="36.9654358305387" lon="15.046505883883638"><ele>406.99999999999994</ele><time>2026-03-28T17:11:12Z</time></trkpt><trkpt lat="36.96552681650696" lon="15.046537167264031"><ele>407.0</ele><time>2026-03-28T17:11:13Z</time></trkpt><trkpt lat="36.96558899681793" lon="15.046588509314283"><ele>407.0</ele><time>2026-03-28T17:11:14Z</time></trkpt><trkpt lat="36.96571465594787" lon="15.046631145296173"><ele>407.0</ele><time>2026-03-28T17:11:16Z</time></trkpt><trkpt lat="36.965780162299" lon="15.046657994825614"><ele>406.99999999999994</ele><time>2026-03-28T17:11:17Z</time></trkpt><trkpt lat="36.96583919010632" lon="15.046693231200745"><ele>407.0</ele><time>2026-03-28T17:11:18Z</time></trkpt><trkpt lat="36.965863125763846" lon="15.046843649310357"><ele>407.42857142857144</ele><time>2026-03-28T17:11:20Z</time></trkpt><trkpt lat="36.96589010599187" lon="15.046927160518296"><ele>407.8571428571429</ele><time>2026-03-28T17:11:21Z</time></trkpt><trkpt lat="36.96591365719486" lon="15.047015994445825"><ele>408.28571428571433</ele><time>2026-03-28T17:11:22Z</time></trkpt><trkpt lat="36.96595190113048" lon="15.047095891474756"><ele>408.7142857142857</ele><time>2026-03-28T17:11:23Z</time></trkpt><trkpt lat="36.965991795981324" lon="15.047186106366897"><ele>409.1428571428571</ele><time>2026-03-28T17:11:24Z</time></trkpt><trkpt lat="36.96601790758058" lon="15.047260062909922"><ele>409.5714285714286</ele><time>2026-03-28T17:11:25Z</time></trkpt><trkpt lat="36.966016058957265" lon="15.047350836499737"><ele>410.0</ele><time>2026-03-28T17:11:26Z</time></trkpt><trkpt lat="36.966015030930976" lon="15.04744554583783"><ele>410.6</ele><time>2026-03-28T17:11:27Z</time></trkpt><trkpt lat="36.96600108453929" lon="15.047550184124132"><ele>411.2</ele><time>2026-03-28T17:11:27.999Z</time></trkpt><trkpt lat="36.965999755535584" lon="15.047676068220696"><ele>411.79999999999995</ele><time>2026-03-28T17:11:28.999Z</time></trkpt><trkpt lat="36.96598401477894" lon="15.04779720627981"><ele>412.4</ele><time>2026-03-28T17:11:29.999Z</time></trkpt><trkpt lat="36.96598793481506" lon="15.047907804329945"><ele>413.0</ele><time>2026-03-28T17:11:30.999Z</time></trkpt><trkpt lat="36.96598150905671" lon="15.048012385848159"><ele>413.0</ele><time>2026-03-28T17:11:31.999Z</time></trkpt><trkpt lat="36.96598997031403" lon="15.048107903280547"><ele>413.0</ele><time>2026-03-28T17:11:32.999Z</time></trkpt><trkpt lat="36.9660174969804" lon="15.04827306510031"><ele>413.0</ele><time>2026-03-28T17:11:34.999Z</time></trkpt><trkpt lat="36.96603055423909" lon="15.048363327400537"><ele>413.0</ele><time>2026-03-28T17:11:35.999Z</time></trkpt><trkpt lat="36.9660346117738" lon="15.048451855364206"><ele>413.0</ele><time>2026-03-28T17:11:36.999Z</time></trkpt><trkpt lat="36.96603348187688" lon="15.048596295321193"><ele>413.4</ele><time>2026-03-28T17:11:38.999Z</time></trkpt><trkpt lat="36.96603187854639" lon="15.048675150202659"><ele>413.79999999999995</ele><time>2026-03-28T17:11:39.999Z</time></trkpt><trkpt lat="36.96602970343818" lon="15.048757996144074"><ele>414.2</ele><time>2026-03-28T17:11:40.999Z</time></trkpt><trkpt lat="36.966012414450574" lon="15.048922576080974"><ele>414.6</ele><time>2026-03-28T17:11:42.999Z</time></trkpt><trkpt lat="36.96602255187473" lon="15.04906884206959"><ele>415.0</ele><time>2026-03-28T17:11:44.999Z</time></trkpt><trkpt lat="36.96602632574036" lon="15.049237182772188"><ele>415.33333333333337</ele><time>2026-03-28T17:11:46.999Z</time></trkpt><trkpt lat="36.9660323572251" lon="15.049354783728054"><ele>415.6666666666667</ele><time>2026-03-28T17:11:47.999Z</time></trkpt><trkpt lat="36.96603287473259" lon="15.049463413608487"><ele>416.0</ele><time>2026-03-28T17:11:48.999Z</time></trkpt><trkpt lat="36.96604500201286" lon="15.0495712407565"><ele>416.33333333333337</ele><time>2026-03-28T17:11:49.999Z</time></trkpt><trkpt lat="36.96605414014451" lon="15.049680389815038"><ele>416.6666666666667</ele><time>2026-03-28T17:11:50.999Z</time></trkpt><trkpt lat="36.96604801326683" lon="15.04979100693335"><ele>417.0</ele><time>2026-03-28T17:11:51.999Z</time></trkpt><trkpt lat="36.966050053399734" lon="15.049898100141618"><ele>417.8333333333333</ele><time>2026-03-28T17:11:52.999Z</time></trkpt><trkpt lat="36.96606917584579" lon="15.049999885786416"><ele>418.66666666666663</ele><time>2026-03-28T17:11:54Z</time></trkpt><trkpt lat="36.96608062570115" lon="15.050109791509023"><ele>419.5</ele><time>2026-03-28T17:11:55Z</time></trkpt><trkpt lat="36.96608811810306" lon="15.050222769388393"><ele>420.3333333333333</ele><time>2026-03-28T17:11:56Z</time></trkpt><trkpt lat="36.96609787249213" lon="15.050337608392509"><ele>421.16666666666663</ele><time>2026-03-28T17:11:57Z</time></trkpt><trkpt lat="36.96610614743626" lon="15.050453121781675"><ele>422.0</ele><time>2026-03-28T17:11:58Z</time></trkpt><trkpt lat="36.966124974425206" lon="15.050568854523636"><ele>422.0</ele><time>2026-03-28T17:11:59Z</time></trkpt><trkpt lat="36.966164011636366" lon="15.05068767131228"><ele>422.0</ele><time>2026-03-28T17:12:00Z</time></trkpt><trkpt lat="36.96620619517742" lon="15.050824832091102"><ele>422.0</ele><time>2026-03-28T17:12:01Z</time></trkpt><trkpt lat="36.96624218188346" lon="15.05095914901195"><ele>422.0</ele><time>2026-03-28T17:12:02Z</time></trkpt><trkpt lat="36.966275245515284" lon="15.051082970369546"><ele>422.0</ele><time>2026-03-28T17:12:03Z</time></trkpt><trkpt lat="36.96630750693881" lon="15.0512022366555"><ele>424.40000000000003</ele><time>2026-03-28T17:12:04Z</time></trkpt><trkpt lat="36.96633545388279" lon="15.051321237369628"><ele>426.8</ele><time>2026-03-28T17:12:05Z</time></trkpt><trkpt lat="36.96636047082796" lon="15.051435356180347"><ele>429.2</ele><time>2026-03-28T17:12:06Z</time></trkpt><trkpt lat="36.966381361294125" lon="15.051558045021519"><ele>431.6</ele><time>2026-03-28T17:12:07Z</time></trkpt><trkpt lat="36.96640971797376" lon="15.051671982475943"><ele>434.0</ele><time>2026-03-28T17:12:08Z</time></trkpt><trkpt lat="36.96643770900744" lon="15.051786284975698"><ele>434.6</ele><time>2026-03-28T17:12:09Z</time></trkpt><trkpt lat="36.966476619915454" lon="15.05189113085139"><ele>435.2</ele><time>2026-03-28T17:12:10Z</time></trkpt><trkpt lat="36.966521339662705" lon="15.051997462218184"><ele>435.80000000000007</ele><time>2026-03-28T17:12:11Z</time></trkpt><trkpt lat="36.966563912527484" lon="15.052105453884963"><ele>436.40000000000003</ele><time>2026-03-28T17:12:12Z</time></trkpt><trkpt lat="36.96660728184299" lon="15.052212556368646"><ele>437.0</ele><time>2026-03-28T17:12:13Z</time></trkpt><trkpt lat="36.9666525336345" lon="15.052322481961392"><ele>438.6</ele><time>2026-03-28T17:12:14Z</time></trkpt><trkpt lat="36.96669570875107" lon="15.052434297573344"><ele>440.20000000000005</ele><time>2026-03-28T17:12:15Z</time></trkpt><trkpt lat="36.96670981146897" lon="15.052560150933003"><ele>441.8</ele><time>2026-03-28T17:12:16Z</time></trkpt><trkpt lat="36.96672661236066" lon="15.052687240851641"><ele>443.4</ele><time>2026-03-28T17:12:17Z</time></trkpt><trkpt lat="36.96675063001994" lon="15.052809785815539"><ele>445.0</ele><time>2026-03-28T17:12:18Z</time></trkpt><trkpt lat="36.966763213570765" lon="15.052930952283193"><ele>446.0</ele><time>2026-03-28T17:12:19Z</time></trkpt><trkpt lat="36.96676954819433" lon="15.05305529101636"><ele>447.0</ele><time>2026-03-28T17:12:20Z</time></trkpt><trkpt lat="36.96677490800712" lon="15.05315821000472"><ele>448.0</ele><time>2026-03-28T17:12:21Z</time></trkpt><trkpt lat="36.96674966399904" lon="15.05326916804715"><ele>449.0</ele><time>2026-03-28T17:12:22Z</time></trkpt><trkpt lat="36.96675079674178" lon="15.053389321299742"><ele>450.0</ele><time>2026-03-28T17:12:23Z</time></trkpt><trkpt lat="36.96671283115999" lon="15.05350271255986"><ele>448.2</ele><time>2026-03-28T17:12:24Z</time></trkpt><trkpt lat="36.96668917327226" lon="15.05363183816565"><ele>446.4</ele><time>2026-03-28T17:12:25Z</time></trkpt><trkpt lat="36.9666796080404" lon="15.053752823343247"><ele>444.6</ele><time>2026-03-28T17:12:26Z</time></trkpt><trkpt lat="36.96666140404503" lon="15.05386514124856"><ele>442.8</ele><time>2026-03-28T17:12:27Z</time></trkpt><trkpt lat="36.9666422665763" lon="15.053974551073996"><ele>441.0</ele><time>2026-03-28T17:12:28Z</time></trkpt><trkpt lat="36.96662484320038" lon="15.054086980367758"><ele>442.0</ele><time>2026-03-28T17:12:29Z</time></trkpt><trkpt lat="36.9665911750886" lon="15.05419445358151"><ele>443.0</ele><time>2026-03-28T17:12:30Z</time></trkpt><trkpt lat="36.966574306408745" lon="15.054303128579136"><ele>444.0</ele><time>2026-03-28T17:12:31Z</time></trkpt><trkpt lat="36.966555165374245" lon="15.054428708014159"><ele>445.0</ele><time>2026-03-28T17:12:32Z</time></trkpt><trkpt lat="36.96654624007482" lon="15.054548485575612"><ele>446.0</ele><time>2026-03-28T17:12:33Z</time></trkpt><trkpt lat="36.96652666811476" lon="15.054655777082804"><ele>445.99999999999994</ele><time>2026-03-28T17:12:34Z</time></trkpt><trkpt lat="36.966504789240126" lon="15.05475779468412"><ele>446.0</ele><time>2026-03-28T17:12:35Z</time></trkpt><trkpt lat="36.96648839676683" lon="15.054857774172339"><ele>446.0</ele><time>2026-03-28T17:12:36Z</time></trkpt><trkpt lat="36.966457920627256" lon="15.054937887506798"><ele>446.0</ele><time>2026-03-28T17:12:37Z</time></trkpt><trkpt lat="36.966440913474806" lon="15.055019276835944"><ele>445.99999999999994</ele><time>2026-03-28T17:12:38Z</time></trkpt><trkpt lat="36.96642647103345" lon="15.055159935450117"><ele>446.0</ele><time>2026-03-28T17:12:40Z</time></trkpt><trkpt lat="36.96640307747052" lon="15.055236072381359"><ele>446.85714285714283</ele><time>2026-03-28T17:12:41Z</time></trkpt><trkpt lat="36.96639738650113" lon="15.05531951801712"><ele>447.71428571428567</ele><time>2026-03-28T17:12:42Z</time></trkpt><trkpt lat="36.9663893196345" lon="15.055401563267756"><ele>448.57142857142856</ele><time>2026-03-28T17:12:43Z</time></trkpt><trkpt lat="36.96638191547318" lon="15.055491625143114"><ele>449.42857142857144</ele><time>2026-03-28T17:12:44Z</time></trkpt><trkpt lat="36.96637061382567" lon="15.055576802331498"><ele>450.2857142857143</ele><time>2026-03-28T17:12:45Z</time></trkpt><trkpt lat="36.96636449782347" lon="15.055676343420242"><ele>451.14285714285717</ele><time>2026-03-28T17:12:46Z</time></trkpt><trkpt lat="36.96636478438964" lon="15.055783256327798"><ele>452.0</ele><time>2026-03-28T17:12:47Z</time></trkpt><trkpt lat="36.96637193977384" lon="15.055894188705206"><ele>453.0</ele><time>2026-03-28T17:12:48Z</time></trkpt><trkpt lat="36.96638308200305" lon="15.055994849827988"><ele>454.00000000000006</ele><time>2026-03-28T17:12:49Z</time></trkpt><trkpt lat="36.96638060344283" lon="15.056105271325418"><ele>455.00000000000006</ele><time>2026-03-28T17:12:50Z</time></trkpt><trkpt lat="36.96637769355511" lon="15.056214955860195"><ele>456.0</ele><time>2026-03-28T17:12:51Z</time></trkpt><trkpt lat="36.966365891780896" lon="15.056334957680727"><ele>457.0</ele><time>2026-03-28T17:12:52Z</time></trkpt><trkpt lat="36.96634975965416" lon="15.056455573006993"><ele>457.0</ele><time>2026-03-28T17:12:53Z</time></trkpt><trkpt lat="36.9663348123958" lon="15.056563967205511"><ele>457.00000000000006</ele><time>2026-03-28T17:12:54Z</time></trkpt><trkpt lat="36.96631960546976" lon="15.056676277744883"><ele>457.00000000000006</ele><time>2026-03-28T17:12:55Z</time></trkpt><trkpt lat="36.96631401810003" lon="15.056786554435643"><ele>457.0</ele><time>2026-03-28T17:12:56Z</time></trkpt><trkpt lat="36.96629549812813" lon="15.05690858555182"><ele>457.0</ele><time>2026-03-28T17:12:57Z</time></trkpt><trkpt lat="36.966275315390625" lon="15.057024801937644"><ele>457.6666666666667</ele><time>2026-03-28T17:12:58Z</time></trkpt><trkpt lat="36.96625398748962" lon="15.05713722001102"><ele>458.33333333333337</ele><time>2026-03-28T17:12:59Z</time></trkpt><trkpt lat="36.9662242637356" lon="15.057254719884183"><ele>459.0</ele><time>2026-03-28T17:13:00Z</time></trkpt><trkpt lat="36.96619892573891" lon="15.057349579589719"><ele>459.66666666666663</ele><time>2026-03-28T17:13:01Z</time></trkpt><trkpt lat="36.96617778386926" lon="15.057445915692401"><ele>460.3333333333333</ele><time>2026-03-28T17:13:02Z</time></trkpt><trkpt lat="36.96613574784997" lon="15.057551090678896"><ele>461.0</ele><time>2026-03-28T17:13:03Z</time></trkpt><trkpt lat="36.966124847823515" lon="15.057665235029518"><ele>461.8333333333333</ele><time>2026-03-28T17:13:04Z</time></trkpt><trkpt lat="36.96610125766734" lon="15.057758898458436"><ele>462.66666666666663</ele><time>2026-03-28T17:13:05Z</time></trkpt><trkpt lat="36.96608228995682" lon="15.057841449269157"><ele>463.5</ele><time>2026-03-28T17:13:06Z</time></trkpt><trkpt lat="36.96608755746769" lon="15.05793915167172"><ele>464.33333333333337</ele><time>2026-03-28T17:13:07Z</time></trkpt><trkpt lat="36.966089023998805" lon="15.058061901904109"><ele>465.1666666666667</ele><time>2026-03-28T17:13:08Z</time></trkpt><trkpt lat="36.96608638392009" lon="15.058176342002996"><ele>466.0</ele><time>2026-03-28T17:13:09Z</time></trkpt><trkpt lat="36.966080613417965" lon="15.058286740015882"><ele>466.50000000000006</ele><time>2026-03-28T17:13:10Z</time></trkpt><trkpt lat="36.96608266311706" lon="15.058402128582342"><ele>467.0</ele><time>2026-03-28T17:13:11Z</time></trkpt><trkpt lat="36.96608419451711" lon="15.058508331944319"><ele>467.5</ele><time>2026-03-28T17:13:12Z</time></trkpt><trkpt lat="36.966079385197354" lon="15.058617098519212"><ele>468.0</ele><time>2026-03-28T17:13:13Z</time></trkpt><trkpt lat="36.96606892980163" lon="15.058728605773716"><ele>468.50000000000006</ele><time>2026-03-28T17:13:14Z</time></trkpt><trkpt lat="36.96605083709497" lon="15.05883674014858"><ele>469.0</ele><time>2026-03-28T17:13:15Z</time></trkpt><trkpt lat="36.96602336770019" lon="15.058951090378084"><ele>469.0</ele><time>2026-03-28T17:13:16Z</time></trkpt><trkpt lat="36.9659997297228" lon="15.05906039536267"><ele>469.0</ele><time>2026-03-28T17:13:17Z</time></trkpt><trkpt lat="36.96596858245585" lon="15.05917324284685"><ele>469.0</ele><time>2026-03-28T17:13:18Z</time></trkpt><trkpt lat="36.96593699957462" lon="15.059275084714685"><ele>469.0</ele><time>2026-03-28T17:13:19Z</time></trkpt><trkpt lat="36.965901881368865" lon="15.059375233959807"><ele>469.0</ele><time>2026-03-28T17:13:20Z</time></trkpt><trkpt lat="36.96583315463354" lon="15.059487842939722"><ele>469.2</ele><time>2026-03-28T17:13:21Z</time></trkpt><trkpt lat="36.965784096351605" lon="15.059625378774427"><ele>469.4</ele><time>2026-03-28T17:13:22Z</time></trkpt><trkpt lat="36.965726657434686" lon="15.059749462451606"><ele>469.6</ele><time>2026-03-28T17:13:23Z</time></trkpt><trkpt lat="36.9656716162902" lon="15.059852236518385"><ele>469.8</ele><time>2026-03-28T17:13:24Z</time></trkpt><trkpt lat="36.965608319752754" lon="15.059941980333303"><ele>470.0</ele><time>2026-03-28T17:13:25Z</time></trkpt><trkpt lat="36.965525111172326" lon="15.060016308653056"><ele>470.0</ele><time>2026-03-28T17:13:26Z</time></trkpt><trkpt lat="36.96546729953016" lon="15.060126092492451"><ele>470.0</ele><time>2026-03-28T17:13:27Z</time></trkpt><trkpt lat="36.96539992944986" lon="15.060243134652401"><ele>470.0</ele><time>2026-03-28T17:13:28Z</time></trkpt><trkpt lat="36.965323109667715" lon="15.060374728554743"><ele>470.0</ele><time>2026-03-28T17:13:28.999Z</time></trkpt><trkpt lat="36.96525556524324" lon="15.060495490582545"><ele>470.0</ele><time>2026-03-28T17:13:29.999Z</time></trkpt><trkpt lat="36.9652101827353" lon="15.060618018079602"><ele>470.0</ele><time>2026-03-28T17:13:30.999Z</time></trkpt><trkpt lat="36.96516254788256" lon="15.06073543276213"><ele>470.0</ele><time>2026-03-28T17:13:31.999Z</time></trkpt><trkpt lat="36.96511682151836" lon="15.060856653647098"><ele>470.0</ele><time>2026-03-28T17:13:32.999Z</time></trkpt><trkpt lat="36.96506167338863" lon="15.060982831130477"><ele>470.0</ele><time>2026-03-28T17:13:33.999Z</time></trkpt><trkpt lat="36.96501675528516" lon="15.061081257734065"><ele>469.66666666666663</ele><time>2026-03-28T17:13:34.999Z</time></trkpt><trkpt lat="36.96497472941741" lon="15.061174019656276"><ele>469.3333333333333</ele><time>2026-03-28T17:13:35.999Z</time></trkpt><trkpt lat="36.964929070510415" lon="15.061264775282833"><ele>469.0</ele><time>2026-03-28T17:13:36.999Z</time></trkpt><trkpt lat="36.96488583190918" lon="15.061353472640214"><ele>468.66666666666663</ele><time>2026-03-28T17:13:37.999Z</time></trkpt><trkpt lat="36.96484254847241" lon="15.061436921289554"><ele>468.3333333333333</ele><time>2026-03-28T17:13:38.999Z</time></trkpt><trkpt lat="36.964797188551536" lon="15.061521858924431"><ele>468.0</ele><time>2026-03-28T17:13:39.999Z</time></trkpt><trkpt lat="36.96475554289741" lon="15.061622066078726"><ele>467.8333333333333</ele><time>2026-03-28T17:13:40.999Z</time></trkpt><trkpt lat="36.96469246934269" lon="15.061716249423357"><ele>467.66666666666663</ele><time>2026-03-28T17:13:41.999Z</time></trkpt><trkpt lat="36.96464149397039" lon="15.06182358776162"><ele>467.5</ele><time>2026-03-28T17:13:42.999Z</time></trkpt><trkpt lat="36.96460094753286" lon="15.061912661928108"><ele>467.3333333333333</ele><time>2026-03-28T17:13:43.999Z</time></trkpt><trkpt lat="36.964562355429024" lon="15.061997423028282"><ele>467.16666666666663</ele><time>2026-03-28T17:13:44.999Z</time></trkpt><trkpt lat="36.964517427313694" lon="15.062096026774176"><ele>467.0</ele><time>2026-03-28T17:13:45.999Z</time></trkpt><trkpt lat="36.964471518748546" lon="15.062203054064955"><ele>467.0</ele><time>2026-03-28T17:13:46.999Z</time></trkpt><trkpt lat="36.96444610552232" lon="15.062303103629002"><ele>467.00000000000006</ele><time>2026-03-28T17:13:47.999Z</time></trkpt><trkpt lat="36.964413724707576" lon="15.062458449950162"><ele>467.00000000000006</ele><time>2026-03-28T17:13:49.999Z</time></trkpt><trkpt lat="36.96439982480863" lon="15.062535701641135"><ele>467.0</ele><time>2026-03-28T17:13:50.999Z</time></trkpt><trkpt lat="36.964345559807086" lon="15.062657893571203"><ele>467.0</ele><time>2026-03-28T17:13:52.999Z</time></trkpt><trkpt lat="36.96425074625299" lon="15.0627377105794"><ele>466.1428571428571</ele><time>2026-03-28T17:13:54.999Z</time></trkpt><trkpt lat="36.96419326589636" lon="15.062792770446542"><ele>465.2857142857143</ele><time>2026-03-28T17:13:55.999Z</time></trkpt><trkpt lat="36.96415020903565" lon="15.062859096509621"><ele>464.42857142857144</ele><time>2026-03-28T17:13:56.999Z</time></trkpt><trkpt lat="36.96409663126764" lon="15.062917398548375"><ele>463.57142857142856</ele><time>2026-03-28T17:13:57.999Z</time></trkpt><trkpt lat="36.96405050517852" lon="15.06298673035661"><ele>462.7142857142858</ele><time>2026-03-28T17:13:58.999Z</time></trkpt><trkpt lat="36.96400981088075" lon="15.063059527447475"><ele>461.8571428571429</ele><time>2026-03-28T17:14:00Z</time></trkpt><trkpt lat="36.96396136327738" lon="15.063159254676401"><ele>461.0</ele><time>2026-03-28T17:14:01Z</time></trkpt><trkpt lat="36.963912109527136" lon="15.063247662476718"><ele>459.8</ele><time>2026-03-28T17:14:02Z</time></trkpt><trkpt lat="36.96386590677075" lon="15.063337727352026"><ele>458.6</ele><time>2026-03-28T17:14:03Z</time></trkpt><trkpt lat="36.96381361708514" lon="15.063435746734848"><ele>457.4</ele><time>2026-03-28T17:14:04Z</time></trkpt><trkpt lat="36.963764432180874" lon="15.063530414760375"><ele>456.2</ele><time>2026-03-28T17:14:05Z</time></trkpt><trkpt lat="36.963703619925894" lon="15.063632059321629"><ele>455.0</ele><time>2026-03-28T17:14:06Z</time></trkpt><trkpt lat="36.96364724922534" lon="15.063735566768695"><ele>455.0</ele><time>2026-03-28T17:14:07Z</time></trkpt><trkpt lat="36.96358367936127" lon="15.063831548009919"><ele>455.0</ele><time>2026-03-28T17:14:08Z</time></trkpt><trkpt lat="36.96352431535739" lon="15.063920952363025"><ele>455.0</ele><time>2026-03-28T17:14:09Z</time></trkpt><trkpt lat="36.96347963624458" lon="15.064005366407747"><ele>455.0</ele><time>2026-03-28T17:14:10Z</time></trkpt><trkpt lat="36.96344306430899" lon="15.06410443265367"><ele>455.0</ele><time>2026-03-28T17:14:11Z</time></trkpt><trkpt lat="36.96342233593464" lon="15.064214675239583"><ele>455.0</ele><time>2026-03-28T17:14:12Z</time></trkpt><trkpt lat="36.96339747156104" lon="15.064331437631328"><ele>455.0</ele><time>2026-03-28T17:14:13Z</time></trkpt><trkpt lat="36.963375562801325" lon="15.064443032985599"><ele>455.0</ele><time>2026-03-28T17:14:14Z</time></trkpt><trkpt lat="36.963332972809035" lon="15.064527524191984"><ele>455.0</ele><time>2026-03-28T17:14:15Z</time></trkpt><trkpt lat="36.963299301733414" lon="15.064648012617488"><ele>455.0</ele><time>2026-03-28T17:14:17Z</time></trkpt><trkpt lat="36.96327886212502" lon="15.06476529589381"><ele>454.4</ele><time>2026-03-28T17:14:19Z</time></trkpt><trkpt lat="36.963289748020145" lon="15.064878196041041"><ele>453.8</ele><time>2026-03-28T17:15:14Z</time></trkpt><trkpt lat="36.96327272708334" lon="15.065044881014893"><ele>453.20000000000005</ele><time>2026-03-28T17:15:16Z</time></trkpt><trkpt lat="36.963274367460976" lon="15.065153665656437"><ele>452.6</ele><time>2026-03-28T17:15:17Z</time></trkpt><trkpt lat="36.96325543106417" lon="15.0652660671086"><ele>452.0</ele><time>2026-03-28T17:15:18Z</time></trkpt><trkpt lat="36.96324414402504" lon="15.06536742110796"><ele>451.99999999999994</ele><time>2026-03-28T17:15:19Z</time></trkpt><trkpt lat="36.96323824235292" lon="15.065481280283937"><ele>452.0</ele><time>2026-03-28T17:15:20Z</time></trkpt><trkpt lat="36.963221429821566" lon="15.065590404499028"><ele>452.0</ele><time>2026-03-28T17:15:21Z</time></trkpt><trkpt lat="36.96318513987053" lon="15.065700537365723"><ele>452.0</ele><time>2026-03-28T17:15:22Z</time></trkpt><trkpt lat="36.9631525496396" lon="15.06579396112905"><ele>451.99999999999994</ele><time>2026-03-28T17:15:23Z</time></trkpt><trkpt lat="36.96312430662324" lon="15.06587307859976"><ele>452.0</ele><time>2026-03-28T17:15:24Z</time></trkpt><trkpt lat="36.963103115475135" lon="15.065958517369948"><ele>452.8333333333333</ele><time>2026-03-28T17:15:25Z</time></trkpt><trkpt lat="36.96309139024155" lon="15.066051309118896"><ele>453.66666666666663</ele><time>2026-03-28T17:15:26Z</time></trkpt><trkpt lat="36.96307515473733" lon="15.066142765125809"><ele>454.5</ele><time>2026-03-28T17:15:27Z</time></trkpt><trkpt lat="36.9630619287457" lon="15.066237975877858"><ele>455.33333333333337</ele><time>2026-03-28T17:15:28Z</time></trkpt><trkpt lat="36.963044303085795" lon="15.066337956494435"><ele>456.1666666666667</ele><time>2026-03-28T17:15:29Z</time></trkpt><trkpt lat="36.963007862050645" lon="15.06643906885807"><ele>457.0</ele><time>2026-03-28T17:15:30Z</time></trkpt><trkpt lat="36.96300463607193" lon="15.06655427301152"><ele>457.6666666666667</ele><time>2026-03-28T17:15:30.999Z</time></trkpt><trkpt lat="36.962975744521835" lon="15.066658886761948"><ele>458.33333333333337</ele><time>2026-03-28T17:15:31.999Z</time></trkpt><trkpt lat="36.96295965051579" lon="15.06676784826381"><ele>459.0</ele><time>2026-03-28T17:15:32.999Z</time></trkpt><trkpt lat="36.96294312226032" lon="15.066858046317572"><ele>459.66666666666663</ele><time>2026-03-28T17:15:33.999Z</time></trkpt><trkpt lat="36.962922537177235" lon="15.066960133069447"><ele>460.3333333333333</ele><time>2026-03-28T17:15:34.999Z</time></trkpt><trkpt lat="36.96289357788924" lon="15.067058910664167"><ele>461.0</ele><time>2026-03-28T17:15:35.999Z</time></trkpt><trkpt lat="36.96285779516198" lon="15.067160248785767"><ele>460.99999999999994</ele><time>2026-03-28T17:15:36.999Z</time></trkpt><trkpt lat="36.962820138611285" lon="15.067261912930364"><ele>461.0</ele><time>2026-03-28T17:15:37.999Z</time></trkpt><trkpt lat="36.96278559344274" lon="15.067361399368217"><ele>461.0</ele><time>2026-03-28T17:15:38.999Z</time></trkpt><trkpt lat="36.96275902425684" lon="15.067440074661567"><ele>461.0</ele><time>2026-03-28T17:15:39.999Z</time></trkpt><trkpt lat="36.962708391903035" lon="15.067573129016745"><ele>460.99999999999994</ele><time>2026-03-28T17:15:41.999Z</time></trkpt><trkpt lat="36.96267377468145" lon="15.067650769898824"><ele>461.0</ele><time>2026-03-28T17:15:43.999Z</time></trkpt><trkpt lat="36.96261627397337" lon="15.067718446946362"><ele>461.4</ele><time>2026-03-28T17:16:40Z</time></trkpt><trkpt lat="36.96276039093418" lon="15.067906425060803"><ele>461.8</ele><time>2026-03-28T17:16:41Z</time></trkpt><trkpt lat="36.96279322052899" lon="15.067978177460382"><ele>462.19999999999993</ele><time>2026-03-28T17:16:43Z</time></trkpt><trkpt lat="36.962825884273386" lon="15.068064941715079"><ele>462.59999999999997</ele><time>2026-03-28T17:16:45Z</time></trkpt><trkpt lat="36.96287624977225" lon="15.068153046702083"><ele>463.0</ele><time>2026-03-28T17:16:47Z</time></trkpt><trkpt lat="36.962933901651425" lon="15.068246947825005"><ele>462.4</ele><time>2026-03-28T17:16:49Z</time></trkpt><trkpt lat="36.96300348570925" lon="15.068350412102989"><ele>461.79999999999995</ele><time>2026-03-28T17:16:51Z</time></trkpt><trkpt lat="36.96307011782903" lon="15.068433256384882"><ele>461.2</ele><time>2026-03-28T17:16:53Z</time></trkpt><trkpt lat="36.963115192710944" lon="15.068503053937969"><ele>460.6</ele><time>2026-03-28T17:16:55Z</time></trkpt><trkpt lat="36.96319014333582" lon="15.068570966732857"><ele>460.0</ele><time>2026-03-28T17:16:57Z</time></trkpt><trkpt lat="36.96325353015898" lon="15.068648894132323"><ele>460.0</ele><time>2026-03-28T17:16:59Z</time></trkpt><trkpt lat="36.96333871537209" lon="15.068713033432653"><ele>460.0</ele><time>2026-03-28T17:17:01Z</time></trkpt><trkpt lat="36.96340832378801" lon="15.068802558698394"><ele>460.0</ele><time>2026-03-28T17:17:03Z</time></trkpt><trkpt lat="36.96348922925524" lon="15.068875971901498"><ele>460.0</ele><time>2026-03-28T17:17:05Z</time></trkpt><trkpt lat="36.963584597754114" lon="15.068985983731821"><ele>460.0</ele><time>2026-03-28T17:17:07Z</time></trkpt><trkpt lat="36.96363196584486" lon="15.069050266933072"><ele>459.6666666666667</ele><time>2026-03-28T17:17:08Z</time></trkpt><trkpt lat="36.963704457457524" lon="15.069175782334026"><ele>459.33333333333337</ele><time>2026-03-28T17:17:10Z</time></trkpt><trkpt lat="36.96373767251686" lon="15.06926236168486"><ele>459.0</ele><time>2026-03-28T17:17:11Z</time></trkpt><trkpt lat="36.963772340276826" lon="15.06933786313339"><ele>458.66666666666663</ele><time>2026-03-28T17:17:12Z</time></trkpt><trkpt lat="36.96380181245581" lon="15.069411107658526"><ele>458.3333333333333</ele><time>2026-03-28T17:17:13Z</time></trkpt><trkpt lat="36.96384807150602" lon="15.069538417203376"><ele>458.0</ele><time>2026-03-28T17:17:15Z</time></trkpt><trkpt lat="36.963885368614626" lon="15.069671874738178"><ele>457.99999999999994</ele><time>2026-03-28T17:17:17Z</time></trkpt><trkpt lat="36.963896338597344" lon="15.069795780253157"><ele>458.0</ele><time>2026-03-28T17:17:19Z</time></trkpt><trkpt lat="36.963919287175784" lon="15.069886087154677"><ele>458.0</ele><time>2026-03-28T17:17:21Z</time></trkpt><trkpt lat="36.963954661593235" lon="15.06999083746852"><ele>458.0</ele><time>2026-03-28T17:17:23Z</time></trkpt><trkpt lat="36.963971881584264" lon="15.070111880638539"><ele>457.99999999999994</ele><time>2026-03-28T17:17:25Z</time></trkpt><trkpt lat="36.963993114472935" lon="15.070192519976006"><ele>458.0</ele><time>2026-03-28T17:17:26Z</time></trkpt><trkpt lat="36.964016720820354" lon="15.070268399794251"><ele>458.16666666666663</ele><time>2026-03-28T17:17:27Z</time></trkpt><trkpt lat="36.96405524155066" lon="15.070376522839446"><ele>458.3333333333333</ele><time>2026-03-28T17:17:29Z</time></trkpt><trkpt lat="36.9640499268569" lon="15.070476453122675"><ele>458.5</ele><time>2026-03-28T17:17:30.999Z</time></trkpt><trkpt lat="36.96403198745163" lon="15.070568223054975"><ele>458.66666666666663</ele><time>2026-03-28T17:17:32.999Z</time></trkpt><trkpt lat="36.96404197126122" lon="15.070673154654424"><ele>458.8333333333333</ele><time>2026-03-28T17:17:34.999Z</time></trkpt><trkpt lat="36.96404279812366" lon="15.070771428589424"><ele>459.0</ele><time>2026-03-28T17:17:36.999Z</time></trkpt><trkpt lat="36.96404399556032" lon="15.070903624162813"><ele>459.0</ele><time>2026-03-28T17:17:49.999Z</time></trkpt><trkpt lat="36.96404378800266" lon="15.071053303160054"><ele>459.0</ele><time>2026-03-28T17:17:51.999Z</time></trkpt><trkpt lat="36.96403752210845" lon="15.07113198858141"><ele>459.0</ele><time>2026-03-28T17:17:52.999Z</time></trkpt><trkpt lat="36.964031649236226" lon="15.071277203073533"><ele>459.0</ele><time>2026-03-28T17:17:54.999Z</time></trkpt><trkpt lat="36.964022264914774" lon="15.071422266641383"><ele>459.0</ele><time>2026-03-28T17:17:56.999Z</time></trkpt><trkpt lat="36.96401397786194" lon="15.071503917303101"><ele>458.8333333333333</ele><time>2026-03-28T17:17:57.999Z</time></trkpt><trkpt lat="36.96401799911185" lon="15.071649761623787"><ele>458.66666666666663</ele><time>2026-03-28T17:17:59.999Z</time></trkpt><trkpt lat="36.96402169913004" lon="15.071765477901792"><ele>458.5</ele><time>2026-03-28T17:18:01.999Z</time></trkpt><trkpt lat="36.96404744408222" lon="15.071854374017866"><ele>458.3333333333333</ele><time>2026-03-28T17:18:03.999Z</time></trkpt><trkpt lat="36.964061677632316" lon="15.071942978011082"><ele>458.16666666666663</ele><time>2026-03-28T17:18:04.999Z</time></trkpt><trkpt lat="36.96409062591984" lon="15.07203182059848"><ele>458.0</ele><time>2026-03-28T17:18:05.999Z</time></trkpt><trkpt lat="36.96411785216518" lon="15.072154069937898"><ele>457.99999999999994</ele><time>2026-03-28T17:18:07.999Z</time></trkpt><trkpt lat="36.96412566130534" lon="15.07224203956373"><ele>458.0</ele><time>2026-03-28T17:18:08.999Z</time></trkpt><trkpt lat="36.964124275892374" lon="15.072331338538072"><ele>458.0</ele><time>2026-03-28T17:18:09.999Z</time></trkpt><trkpt lat="36.964123222869645" lon="15.072416895104693"><ele>458.0</ele><time>2026-03-28T17:18:10.999Z</time></trkpt><trkpt lat="36.964121775217315" lon="15.072504381396486"><ele>457.99999999999994</ele><time>2026-03-28T17:18:12Z</time></trkpt><trkpt lat="36.9641143269493" lon="15.072642653091195"><ele>458.0</ele><time>2026-03-28T17:18:14Z</time></trkpt><trkpt lat="36.964099001128986" lon="15.072799300760748"><ele>457.99999999999994</ele><time>2026-03-28T17:18:16Z</time></trkpt><trkpt lat="36.96409415905703" lon="15.072894988430651"><ele>458.0</ele><time>2026-03-28T17:18:17Z</time></trkpt><trkpt lat="36.96408739326403" lon="15.073029047538462"><ele>458.0</ele><time>2026-03-28T17:18:19Z</time></trkpt><trkpt lat="36.96406973260202" lon="15.073141692528653"><ele>458.0</ele><time>2026-03-28T17:18:21Z</time></trkpt><trkpt lat="36.96405445630951" lon="15.073221358119495"><ele>457.99999999999994</ele><time>2026-03-28T17:18:22Z</time></trkpt><trkpt lat="36.964033301293696" lon="15.073312064542431"><ele>458.0</ele><time>2026-03-28T17:18:23Z</time></trkpt><trkpt lat="36.964013838663" lon="15.073407143766127"><ele>458.2</ele><time>2026-03-28T17:18:24Z</time></trkpt><trkpt lat="36.963995782301694" lon="15.073484027536326"><ele>458.4</ele><time>2026-03-28T17:18:25Z</time></trkpt><trkpt lat="36.96396211783542" lon="15.073644215961872"><ele>458.59999999999997</ele><time>2026-03-28T17:18:27Z</time></trkpt><trkpt lat="36.963939071109145" lon="15.073728472763767"><ele>458.79999999999995</ele><time>2026-03-28T17:18:28Z</time></trkpt><trkpt lat="36.96389850441404" lon="15.073881611748114"><ele>459.0</ele><time>2026-03-28T17:18:30Z</time></trkpt><trkpt lat="36.96385417896783" lon="15.073952597702336"><ele>459.0</ele><time>2026-03-28T17:18:31Z</time></trkpt><trkpt lat="36.96381240841898" lon="15.07402669516232"><ele>459.0</ele><time>2026-03-28T17:18:32Z</time></trkpt><trkpt lat="36.96377405597484" lon="15.074102609549307"><ele>459.0</ele><time>2026-03-28T17:18:33Z</time></trkpt><trkpt lat="36.963708093546735" lon="15.074235193187778"><ele>459.0</ele><time>2026-03-28T17:18:35Z</time></trkpt><trkpt lat="36.963675683011566" lon="15.07432532967248"><ele>459.0</ele><time>2026-03-28T17:18:36Z</time></trkpt><trkpt lat="36.96365482345888" lon="15.074420958719896"><ele>459.0</ele><time>2026-03-28T17:18:37Z</time></trkpt><trkpt lat="36.96362308717612" lon="15.074520147896866"><ele>458.8571428571429</ele><time>2026-03-28T17:18:38Z</time></trkpt><trkpt lat="36.96360537032594" lon="15.074596750770919"><ele>458.71428571428567</ele><time>2026-03-28T17:18:39Z</time></trkpt><trkpt lat="36.963595854360854" lon="15.074689854247875"><ele>458.57142857142856</ele><time>2026-03-28T17:18:40Z</time></trkpt><trkpt lat="36.96358663154507" lon="15.074789550608768"><ele>458.42857142857144</ele><time>2026-03-28T17:18:41Z</time></trkpt><trkpt lat="36.96357984987269" lon="15.07487570794956"><ele>458.28571428571433</ele><time>2026-03-28T17:18:42Z</time></trkpt><trkpt lat="36.963582093716894" lon="15.074954762308069"><ele>458.1428571428571</ele><time>2026-03-28T17:18:43Z</time></trkpt><trkpt lat="36.96358614239128" lon="15.075039163988931"><ele>458.0</ele><time>2026-03-28T17:18:44Z</time></trkpt><trkpt lat="36.963610718022935" lon="15.075128608591577"><ele>457.3333333333333</ele><time>2026-03-28T17:18:45Z</time></trkpt><trkpt lat="36.96363656104731" lon="15.07521281008981"><ele>456.66666666666663</ele><time>2026-03-28T17:18:46Z</time></trkpt><trkpt lat="36.96366956766272" lon="15.075291514712958"><ele>456.0</ele><time>2026-03-28T17:18:47Z</time></trkpt><trkpt lat="36.96370413268232" lon="15.075372534219213"><ele>455.33333333333337</ele><time>2026-03-28T17:18:48Z</time></trkpt><trkpt lat="36.963770891863724" lon="15.075525167535734"><ele>454.6666666666667</ele><time>2026-03-28T17:18:50Z</time></trkpt><trkpt lat="36.963791146864246" lon="15.07561036063317"><ele>454.0</ele><time>2026-03-28T17:18:51Z</time></trkpt><trkpt lat="36.963810332099335" lon="15.075701230763974"><ele>453.7142857142857</ele><time>2026-03-28T17:18:52Z</time></trkpt><trkpt lat="36.963832525016" lon="15.075782422628514"><ele>453.42857142857144</ele><time>2026-03-28T17:18:53Z</time></trkpt><trkpt lat="36.96385543853989" lon="15.075862543617072"><ele>453.14285714285717</ele><time>2026-03-28T17:18:54Z</time></trkpt><trkpt lat="36.96388442072751" lon="15.075959741231708"><ele>452.8571428571429</ele><time>2026-03-28T17:18:55Z</time></trkpt><trkpt lat="36.96391098489821" lon="15.076054844674907"><ele>452.57142857142856</ele><time>2026-03-28T17:18:56Z</time></trkpt><trkpt lat="36.963937901496784" lon="15.07614401034457"><ele>452.28571428571433</ele><time>2026-03-28T17:18:57Z</time></trkpt><trkpt lat="36.96397179496713" lon="15.076222809403001"><ele>452.0</ele><time>2026-03-28T17:18:58Z</time></trkpt><trkpt lat="36.96400259916745" lon="15.076302815796904"><ele>451.99999999999994</ele><time>2026-03-28T17:18:59Z</time></trkpt><trkpt lat="36.964027111302904" lon="15.076384202868283"><ele>452.0</ele><time>2026-03-28T17:19:00Z</time></trkpt><trkpt lat="36.964049608733745" lon="15.076467384885131"><ele>452.0</ele><time>2026-03-28T17:19:01Z</time></trkpt><trkpt lat="36.96406569389671" lon="15.076546661251294"><ele>452.0</ele><time>2026-03-28T17:19:02Z</time></trkpt><trkpt lat="36.96406366567023" lon="15.07669134388726"><ele>451.99999999999994</ele><time>2026-03-28T17:19:04Z</time></trkpt><trkpt lat="36.964067076117516" lon="15.076772060822323"><ele>452.0</ele><time>2026-03-28T17:19:05Z</time></trkpt><trkpt lat="36.96407515094429" lon="15.076858995005102"><ele>452.8333333333333</ele><time>2026-03-28T17:19:06Z</time></trkpt><trkpt lat="36.964083630488716" lon="15.076947805722897"><ele>453.66666666666663</ele><time>2026-03-28T17:19:07Z</time></trkpt><trkpt lat="36.96408641129023" lon="15.077045787330926"><ele>454.5</ele><time>2026-03-28T17:19:08Z</time></trkpt><trkpt lat="36.964092912358055" lon="15.077143793752327"><ele>455.33333333333337</ele><time>2026-03-28T17:19:09Z</time></trkpt><trkpt lat="36.96410252032866" lon="15.077236969210176"><ele>456.1666666666667</ele><time>2026-03-28T17:19:10Z</time></trkpt><trkpt lat="36.96410737623602" lon="15.077316186833738"><ele>457.0</ele><time>2026-03-28T17:19:11Z</time></trkpt><trkpt lat="36.96413436970188" lon="15.077452863727013"><ele>457.8</ele><time>2026-03-28T17:19:13Z</time></trkpt><trkpt lat="36.964180322578564" lon="15.077563912199206"><ele>458.6</ele><time>2026-03-28T17:19:15Z</time></trkpt><trkpt lat="36.964220988940134" lon="15.077642691798937"><ele>459.40000000000003</ele><time>2026-03-28T17:19:16Z</time></trkpt><trkpt lat="36.96426291470191" lon="15.077719316159675"><ele>460.20000000000005</ele><time>2026-03-28T17:19:17Z</time></trkpt><trkpt lat="36.96433392887665" lon="15.077818541824367"><ele>461.0</ele><time>2026-03-28T17:19:19Z</time></trkpt><trkpt lat="36.96441187888613" lon="15.077928317319548"><ele>461.28571428571433</ele><time>2026-03-28T17:19:21Z</time></trkpt><trkpt lat="36.96445062326144" lon="15.077991915205512"><ele>461.5714285714286</ele><time>2026-03-28T17:19:22Z</time></trkpt><trkpt lat="36.96448959719087" lon="15.078059587235817"><ele>461.8571428571429</ele><time>2026-03-28T17:19:23Z</time></trkpt><trkpt lat="36.96453125728693" lon="15.078130181234187"><ele>462.1428571428571</ele><time>2026-03-28T17:19:24Z</time></trkpt><trkpt lat="36.96457718984374" lon="15.07820344367133"><ele>462.4285714285714</ele><time>2026-03-28T17:19:25Z</time></trkpt><trkpt lat="36.96460782905876" lon="15.07829096110113"><ele>462.71428571428567</ele><time>2026-03-28T17:19:26Z</time></trkpt><trkpt lat="36.96463704478012" lon="15.078378166427195"><ele>463.0</ele><time>2026-03-28T17:19:27Z</time></trkpt><trkpt lat="36.96466125825608" lon="15.078457625081358"><ele>463.4</ele><time>2026-03-28T17:19:28Z</time></trkpt><trkpt lat="36.96468672243878" lon="15.078533734178595"><ele>463.79999999999995</ele><time>2026-03-28T17:19:29Z</time></trkpt><trkpt lat="36.964724891750954" lon="15.07867128503859"><ele>464.2</ele><time>2026-03-28T17:19:31Z</time></trkpt><trkpt lat="36.96476231928007" lon="15.078787733705227"><ele>464.6</ele><time>2026-03-28T17:19:33Z</time></trkpt><trkpt lat="36.96479935877333" lon="15.078939760904083"><ele>465.0</ele><time>2026-03-28T17:19:35Z</time></trkpt><trkpt lat="36.96482266677285" lon="15.079024525381824"><ele>464.6666666666667</ele><time>2026-03-28T17:19:36Z</time></trkpt><trkpt lat="36.96485197914076" lon="15.079120549937496"><ele>464.33333333333337</ele><time>2026-03-28T17:19:37Z</time></trkpt><trkpt lat="36.964881999133524" lon="15.079216533143631"><ele>464.0</ele><time>2026-03-28T17:19:38Z</time></trkpt><trkpt lat="36.964910013902674" lon="15.079304428292675"><ele>463.6666666666667</ele><time>2026-03-28T17:19:39Z</time></trkpt><trkpt lat="36.964934391761844" lon="15.079388758193927"><ele>463.33333333333337</ele><time>2026-03-28T17:19:39.999Z</time></trkpt><trkpt lat="36.96495811183793" lon="15.07947147584539"><ele>463.0</ele><time>2026-03-28T17:19:40.999Z</time></trkpt><trkpt lat="36.96498094623518" lon="15.079551962401656"><ele>463.0</ele><time>2026-03-28T17:19:41.999Z</time></trkpt><trkpt lat="36.965001089349734" lon="15.079631827853593"><ele>462.99999999999994</ele><time>2026-03-28T17:19:42.999Z</time></trkpt><trkpt lat="36.96501560873518" lon="15.07971098073995"><ele>462.99999999999994</ele><time>2026-03-28T17:19:43.999Z</time></trkpt><trkpt lat="36.965043429028334" lon="15.079852932769754"><ele>463.0</ele><time>2026-03-28T17:19:45.999Z</time></trkpt><trkpt lat="36.96507999000439" lon="15.080011422695573"><ele>463.0</ele><time>2026-03-28T17:19:47.999Z</time></trkpt><trkpt lat="36.96510093988923" lon="15.080108205688447"><ele>463.79999999999995</ele><time>2026-03-28T17:19:48.999Z</time></trkpt><trkpt lat="36.96512174644414" lon="15.080206839465635"><ele>464.59999999999997</ele><time>2026-03-28T17:19:49.999Z</time></trkpt><trkpt lat="36.9651355019658" lon="15.080311885750506"><ele>465.40000000000003</ele><time>2026-03-28T17:19:50.999Z</time></trkpt><trkpt lat="36.96515308404046" lon="15.080436697709162"><ele>466.20000000000005</ele><time>2026-03-28T17:19:51.999Z</time></trkpt><trkpt lat="36.96517319929661" lon="15.080572289344655"><ele>467.0</ele><time>2026-03-28T17:19:52.999Z</time></trkpt><trkpt lat="36.96517585210468" lon="15.080690437599992"><ele>467.75</ele><time>2026-03-28T17:19:53.999Z</time></trkpt><trkpt lat="36.96517433292665" lon="15.080810697624003"><ele>468.5</ele><time>2026-03-28T17:19:54.999Z</time></trkpt><trkpt lat="36.96518462270803" lon="15.080944080751607"><ele>469.25</ele><time>2026-03-28T17:19:55.999Z</time></trkpt><trkpt lat="36.96519721516902" lon="15.081104985790537"><ele>470.0</ele><time>2026-03-28T17:19:56.999Z</time></trkpt><trkpt lat="36.96520406420096" lon="15.081260657652978"><ele>470.0</ele><time>2026-03-28T17:19:57.999Z</time></trkpt><trkpt lat="36.96521440190732" lon="15.081417389116814"><ele>470.0</ele><time>2026-03-28T17:19:58.999Z</time></trkpt><trkpt lat="36.96522913423191" lon="15.081586282614168"><ele>470.0</ele><time>2026-03-28T17:19:59.999Z</time></trkpt><trkpt lat="36.96525119902466" lon="15.081748999864697"><ele>470.0</ele><time>2026-03-28T17:20:00.999Z</time></trkpt><trkpt lat="36.96528498920975" lon="15.081904051554181"><ele>472.0</ele><time>2026-03-28T17:20:01.999Z</time></trkpt><trkpt lat="36.965322256928616" lon="15.082053494556703"><ele>474.0</ele><time>2026-03-28T17:20:02.999Z</time></trkpt><trkpt lat="36.96536471352875" lon="15.08219919270272"><ele>476.0</ele><time>2026-03-28T17:20:03.999Z</time></trkpt><trkpt lat="36.965417598025596" lon="15.082349935450578"><ele>478.0</ele><time>2026-03-28T17:20:04.999Z</time></trkpt><trkpt lat="36.965472787101106" lon="15.082501212676263"><ele>480.5</ele><time>2026-03-28T17:20:05.999Z</time></trkpt><trkpt lat="36.96552656421058" lon="15.082642331783825"><ele>483.0</ele><time>2026-03-28T17:20:06.999Z</time></trkpt><trkpt lat="36.96557705176739" lon="15.082776733623312"><ele>485.5</ele><time>2026-03-28T17:20:07.999Z</time></trkpt><trkpt lat="36.9656155239526" lon="15.082918265358956"><ele>488.0</ele><time>2026-03-28T17:20:08.999Z</time></trkpt><trkpt lat="36.96565072338578" lon="15.083076692043885"><ele>488.0</ele><time>2026-03-28T17:20:09.999Z</time></trkpt><trkpt lat="36.96567727114291" lon="15.083248752118452"><ele>488.0</ele><time>2026-03-28T17:20:10.999Z</time></trkpt><trkpt lat="36.96569906484323" lon="15.083424452652894"><ele>488.0</ele><time>2026-03-28T17:20:11.999Z</time></trkpt><trkpt lat="36.96570182732248" lon="15.083583224324215"><ele>488.0</ele><time>2026-03-28T17:20:12.999Z</time></trkpt><trkpt lat="36.96569498815341" lon="15.083752961541324"><ele>490.25</ele><time>2026-03-28T17:20:13.999Z</time></trkpt><trkpt lat="36.96566756764757" lon="15.083934810509636"><ele>492.5</ele><time>2026-03-28T17:20:14.999Z</time></trkpt><trkpt lat="36.96562476003939" lon="15.084113104985745"><ele>494.75</ele><time>2026-03-28T17:20:15.999Z</time></trkpt><trkpt lat="36.965586268213414" lon="15.084283263320163"><ele>497.0</ele><time>2026-03-28T17:20:16.999Z</time></trkpt><trkpt lat="36.96556445192527" lon="15.084448985849932"><ele>497.0</ele><time>2026-03-28T17:20:18Z</time></trkpt><trkpt lat="36.965567430763045" lon="15.084623196929645"><ele>497.0</ele><time>2026-03-28T17:20:19Z</time></trkpt><trkpt lat="36.96558671407428" lon="15.084806002610843"><ele>497.0</ele><time>2026-03-28T17:20:20Z</time></trkpt><trkpt lat="36.96560361281463" lon="15.084971858646536"><ele>497.0</ele><time>2026-03-28T17:20:21Z</time></trkpt><trkpt lat="36.96561242323188" lon="15.085124198938063"><ele>497.0</ele><time>2026-03-28T17:20:22Z</time></trkpt><trkpt lat="36.965619229079984" lon="15.085277173406313"><ele>497.0</ele><time>2026-03-28T17:20:23Z</time></trkpt><trkpt lat="36.96562309870168" lon="15.085434402574531"><ele>497.0</ele><time>2026-03-28T17:20:24Z</time></trkpt><trkpt lat="36.96561902631903" lon="15.085597181797128"><ele>497.0</ele><time>2026-03-28T17:20:25Z</time></trkpt><trkpt lat="36.96561657659028" lon="15.085773620197994"><ele>496.3333333333333</ele><time>2026-03-28T17:20:26Z</time></trkpt><trkpt lat="36.965606698341475" lon="15.08595906650954"><ele>495.66666666666663</ele><time>2026-03-28T17:20:27Z</time></trkpt><trkpt lat="36.965599215554484" lon="15.08616687707054"><ele>495.0</ele><time>2026-03-28T17:20:28Z</time></trkpt><trkpt lat="36.96559074016131" lon="15.086384452419093"><ele>497.0</ele><time>2026-03-28T17:20:29Z</time></trkpt><trkpt lat="36.96557996162256" lon="15.086605660249862"><ele>499.0</ele><time>2026-03-28T17:20:30Z</time></trkpt><trkpt lat="36.96557132572377" lon="15.086801091646588"><ele>501.0</ele><time>2026-03-28T17:20:31Z</time></trkpt><trkpt lat="36.96556647063546" lon="15.086970646088194"><ele>501.0</ele><time>2026-03-28T17:20:32Z</time></trkpt><trkpt lat="36.96555492794988" lon="15.087102883203618"><ele>501.0</ele><time>2026-03-28T17:20:33Z</time></trkpt><trkpt lat="36.965532847907504" lon="15.087219699655021"><ele>501.0</ele><time>2026-03-28T17:20:34Z</time></trkpt><trkpt lat="36.9654829079281" lon="15.087325815862876"><ele>501.0</ele><time>2026-03-28T17:20:35Z</time></trkpt><trkpt lat="36.96539234799725" lon="15.087428434382508"><ele>501.0</ele><time>2026-03-28T17:20:36Z</time></trkpt><trkpt lat="36.96528009691323" lon="15.08752012690966"><ele>501.6</ele><time>2026-03-28T17:20:37Z</time></trkpt><trkpt lat="36.96519078809434" lon="15.087593819994167"><ele>502.20000000000005</ele><time>2026-03-28T17:20:38Z</time></trkpt><trkpt lat="36.96512628772504" lon="15.087677613950214"><ele>502.79999999999995</ele><time>2026-03-28T17:20:39Z</time></trkpt><trkpt lat="36.965078727828846" lon="15.087786211668275"><ele>503.4</ele><time>2026-03-28T17:20:40Z</time></trkpt><trkpt lat="36.965055720126045" lon="15.087945419407669"><ele>504.0</ele><time>2026-03-28T17:20:41Z</time></trkpt><trkpt lat="36.96505430439006" lon="15.088148713331545"><ele>502.66666666666663</ele><time>2026-03-28T17:20:42Z</time></trkpt><trkpt lat="36.96506094165401" lon="15.088358942439994"><ele>501.3333333333333</ele><time>2026-03-28T17:20:43Z</time></trkpt><trkpt lat="36.96505970155362" lon="15.08859540707407"><ele>500.0</ele><time>2026-03-28T17:20:44Z</time></trkpt><trkpt lat="36.965054095771784" lon="15.088846358241335"><ele>500.0</ele><time>2026-03-28T17:20:45Z</time></trkpt><trkpt lat="36.96504671164031" lon="15.089081415126323"><ele>500.0</ele><time>2026-03-28T17:20:46Z</time></trkpt><trkpt lat="36.96504180927227" lon="15.089297198516315"><ele>500.0</ele><time>2026-03-28T17:20:47Z</time></trkpt><trkpt lat="36.965040907255236" lon="15.08950410645364"><ele>500.0</ele><time>2026-03-28T17:20:48Z</time></trkpt><trkpt lat="36.965038197872055" lon="15.089694754641101"><ele>500.0</ele><time>2026-03-28T17:20:49Z</time></trkpt><trkpt lat="36.965029101973876" lon="15.089867960973805"><ele>500.0</ele><time>2026-03-28T17:20:50Z</time></trkpt><trkpt lat="36.965013505959284" lon="15.090033311488497"><ele>500.0</ele><time>2026-03-28T17:20:51Z</time></trkpt><trkpt lat="36.96497071056522" lon="15.090208471864086"><ele>500.3333333333333</ele><time>2026-03-28T17:20:52Z</time></trkpt><trkpt lat="36.96490370277674" lon="15.090394807089359"><ele>500.66666666666663</ele><time>2026-03-28T17:20:53Z</time></trkpt><trkpt lat="36.96481235088558" lon="15.090585575687125"><ele>501.0</ele><time>2026-03-28T17:20:54Z</time></trkpt><trkpt lat="36.964717778166715" lon="15.090768694069133"><ele>501.0</ele><time>2026-03-28T17:20:55Z</time></trkpt><trkpt lat="36.96463468705834" lon="15.090935708576014"><ele>501.0</ele><time>2026-03-28T17:20:56Z</time></trkpt><trkpt lat="36.96455268376261" lon="15.091093115633772"><ele>501.0</ele><time>2026-03-28T17:20:57Z</time></trkpt><trkpt lat="36.9644806874922" lon="15.091248286486254"><ele>501.0</ele><time>2026-03-28T17:20:58Z</time></trkpt><trkpt lat="36.96441220686846" lon="15.091401544551742"><ele>501.0</ele><time>2026-03-28T17:20:59Z</time></trkpt><trkpt lat="36.9643550648391" lon="15.091564514375072"><ele>501.0</ele><time>2026-03-28T17:21:00Z</time></trkpt><trkpt lat="36.96431542885122" lon="15.091763559792835"><ele>501.0</ele><time>2026-03-28T17:21:01Z</time></trkpt><trkpt lat="36.96429575290604" lon="15.09195942673521"><ele>500.0</ele><time>2026-03-28T17:21:02Z</time></trkpt><trkpt lat="36.96427621120519" lon="15.092135724546043"><ele>499.0</ele><time>2026-03-28T17:21:03Z</time></trkpt><trkpt lat="36.96422401123422" lon="15.092301759679208"><ele>498.0</ele><time>2026-03-28T17:21:04Z</time></trkpt><trkpt lat="36.96415444938476" lon="15.092471768366792"><ele>497.0</ele><time>2026-03-28T17:21:05Z</time></trkpt><trkpt lat="36.964088589559694" lon="15.09263035382623"><ele>496.75</ele><time>2026-03-28T17:21:06Z</time></trkpt><trkpt lat="36.96402438977432" lon="15.092779087043931"><ele>496.5</ele><time>2026-03-28T17:21:07Z</time></trkpt><trkpt lat="36.96396134834243" lon="15.09291872971903"><ele>496.25</ele><time>2026-03-28T17:21:08Z</time></trkpt><trkpt lat="36.963905119156976" lon="15.093053550311282"><ele>496.0</ele><time>2026-03-28T17:21:09Z</time></trkpt><trkpt lat="36.96384907970438" lon="15.0931678456149"><ele>495.6</ele><time>2026-03-28T17:21:10Z</time></trkpt><trkpt lat="36.963798280713256" lon="15.093257230086143"><ele>495.20000000000005</ele><time>2026-03-28T17:21:11Z</time></trkpt><trkpt lat="36.9637541649256" lon="15.093324989920589"><ele>494.79999999999995</ele><time>2026-03-28T17:21:12Z</time></trkpt><trkpt lat="36.963711353448886" lon="15.09338296523721"><ele>494.4</ele><time>2026-03-28T17:21:13Z</time></trkpt><trkpt lat="36.963800774840806" lon="15.093574270965457"><ele>494.0</ele><time>2026-03-28T17:21:14Z</time></trkpt><trkpt lat="36.96386497447386" lon="15.093714783284295"><ele>494.0</ele><time>2026-03-28T17:21:15Z</time></trkpt><trkpt lat="36.96394505872309" lon="15.093849823925531"><ele>494.0</ele><time>2026-03-28T17:21:16Z</time></trkpt><trkpt lat="36.964013650283825" lon="15.093952460591616"><ele>494.0</ele><time>2026-03-28T17:21:17Z</time></trkpt><trkpt lat="36.96408329942223" lon="15.094030160495741"><ele>494.0</ele><time>2026-03-28T17:21:18Z</time></trkpt><trkpt lat="36.9641519587741" lon="15.0940991179867"><ele>494.0</ele><time>2026-03-28T17:21:19Z</time></trkpt><trkpt lat="36.96425971590042" lon="15.094107571940361"><ele>492.75</ele><time>2026-03-28T17:21:20Z</time></trkpt><trkpt lat="36.96438084061405" lon="15.094047293400143"><ele>491.5</ele><time>2026-03-28T17:21:21Z</time></trkpt><trkpt lat="36.96451103499926" lon="15.094000454122337"><ele>490.25</ele><time>2026-03-28T17:21:22Z</time></trkpt><trkpt lat="36.96464861174205" lon="15.094007328944729"><ele>489.0</ele><time>2026-03-28T17:21:23Z</time></trkpt><trkpt lat="36.96478810124671" lon="15.094040258014097"><ele>489.0</ele><time>2026-03-28T17:21:24Z</time></trkpt><trkpt lat="36.96494345434873" lon="15.094096140265668"><ele>489.0</ele><time>2026-03-28T17:21:25Z</time></trkpt><trkpt lat="36.9651063680225" lon="15.094158470962348"><ele>489.0</ele><time>2026-03-28T17:21:26Z</time></trkpt><trkpt lat="36.96528119760949" lon="15.094203643020338"><ele>491.33333333333337</ele><time>2026-03-28T17:21:27Z</time></trkpt><trkpt lat="36.96545341522903" lon="15.094260503808044"><ele>493.6666666666667</ele><time>2026-03-28T17:21:28Z</time></trkpt><trkpt lat="36.96562620560928" lon="15.094326300712199"><ele>496.0</ele><time>2026-03-28T17:21:29Z</time></trkpt><trkpt lat="36.96579376286808" lon="15.094369983203933"><ele>498.33333333333337</ele><time>2026-03-28T17:21:30Z</time></trkpt><trkpt lat="36.96595872772556" lon="15.094410250891649"><ele>500.66666666666663</ele><time>2026-03-28T17:21:31Z</time></trkpt><trkpt lat="36.96610870164874" lon="15.09446051519371"><ele>503.0</ele><time>2026-03-28T17:21:32Z</time></trkpt><trkpt lat="36.96625204194717" lon="15.094505719491332"><ele>503.0</ele><time>2026-03-28T17:21:33Z</time></trkpt><trkpt lat="36.96637517344733" lon="15.094556234822884"><ele>503.0</ele><time>2026-03-28T17:21:34Z</time></trkpt><trkpt lat="36.966490085452804" lon="15.094586728413502"><ele>503.0</ele><time>2026-03-28T17:21:35Z</time></trkpt><trkpt lat="36.96660173088953" lon="15.094611158373374"><ele>503.0</ele><time>2026-03-28T17:21:36Z</time></trkpt><trkpt lat="36.96671632905197" lon="15.094640924136897"><ele>502.59999999999997</ele><time>2026-03-28T17:21:37Z</time></trkpt><trkpt lat="36.96683331612969" lon="15.094672591539744"><ele>502.19999999999993</ele><time>2026-03-28T17:21:38Z</time></trkpt><trkpt lat="36.966944017156884" lon="15.094701971421735"><ele>501.8</ele><time>2026-03-28T17:21:39Z</time></trkpt><trkpt lat="36.96705099774504" lon="15.09472971112758"><ele>501.4</ele><time>2026-03-28T17:21:40Z</time></trkpt><trkpt lat="36.96714295606305" lon="15.094778046986047"><ele>501.0</ele><time>2026-03-28T17:21:41Z</time></trkpt><trkpt lat="36.96727081781764" lon="15.09473175486589"><ele>501.0</ele><time>2026-03-28T17:21:42Z</time></trkpt><trkpt lat="36.967356156403014" lon="15.094647476463033"><ele>501.0</ele><time>2026-03-28T17:21:43Z</time></trkpt><trkpt lat="36.96740268076191" lon="15.094536953225873"><ele>501.0</ele><time>2026-03-28T17:21:44Z</time></trkpt><trkpt lat="36.96745342849322" lon="15.094485240746318"><ele>501.0</ele><time>2026-03-28T17:21:45Z</time></trkpt><trkpt lat="36.96748806700693" lon="15.094388701931017"><ele>501.0</ele><time>2026-03-28T17:21:47Z</time></trkpt><trkpt lat="36.967526724712485" lon="15.094316101627978"><ele>501.0</ele><time>2026-03-28T17:21:49Z</time></trkpt><trkpt lat="36.9674378544209" lon="15.094436185647805"><ele>501.0</ele><time>2026-03-28T17:33:56Z</time></trkpt><trkpt lat="36.967389934640416" lon="15.09450788486666"><ele>501.0</ele><time>2026-03-28T17:33:57Z</time></trkpt><trkpt lat="36.967353768321935" lon="15.094578061617579"><ele>501.0</ele><time>2026-03-28T17:33:58Z</time></trkpt><trkpt lat="36.96728481737525" lon="15.09466992365202"><ele>501.0</ele><time>2026-03-28T17:34:00Z</time></trkpt><trkpt lat="36.96722541890846" lon="15.094718916908224"><ele>501.0</ele><time>2026-03-28T17:34:02Z</time></trkpt><trkpt lat="36.96732231193188" lon="15.09489891023988"><ele>497.4</ele><time>2026-03-28T17:34:05Z</time></trkpt><trkpt lat="36.967294570929155" lon="15.094973117641015"><ele>493.8</ele><time>2026-03-28T17:34:06Z</time></trkpt><trkpt lat="36.96725284862649" lon="15.095082561940982"><ele>490.19999999999993</ele><time>2026-03-28T17:34:08Z</time></trkpt><trkpt lat="36.96717388208086" lon="15.095241896088773"><ele>486.59999999999997</ele><time>2026-03-28T17:34:10Z</time></trkpt><trkpt lat="36.96711518215" lon="15.095359452424855"><ele>483.0</ele><time>2026-03-28T17:34:11Z</time></trkpt><trkpt lat="36.9670521047095" lon="15.095485478663349"><ele>483.0</ele><time>2026-03-28T17:34:12Z</time></trkpt><trkpt lat="36.966989475671895" lon="15.09561226224559"><ele>482.99999999999994</ele><time>2026-03-28T17:34:13Z</time></trkpt><trkpt lat="36.96693323491512" lon="15.09572489089496"><ele>482.99999999999994</ele><time>2026-03-28T17:34:14Z</time></trkpt><trkpt lat="36.96688558655875" lon="15.095824210837689"><ele>483.0</ele><time>2026-03-28T17:34:15Z</time></trkpt><trkpt lat="36.96684823772113" lon="15.095932363148755"><ele>483.0</ele><time>2026-03-28T17:34:16Z</time></trkpt><trkpt lat="36.96682247249056" lon="15.096042825953658"><ele>477.59999999999997</ele><time>2026-03-28T17:34:17Z</time></trkpt><trkpt lat="36.96680769746591" lon="15.096170015141157"><ele>472.19999999999993</ele><time>2026-03-28T17:34:18Z</time></trkpt><trkpt lat="36.96680162941559" lon="15.096307533020575"><ele>466.8</ele><time>2026-03-28T17:34:19Z</time></trkpt><trkpt lat="36.966795597949925" lon="15.096447727900015"><ele>461.4</ele><time>2026-03-28T17:34:20Z</time></trkpt><trkpt lat="36.96679154557391" lon="15.09658406619441"><ele>456.0</ele><time>2026-03-28T17:34:21Z</time></trkpt><trkpt lat="36.96678802915529" lon="15.096702372889398"><ele>455.6</ele><time>2026-03-28T17:34:22Z</time></trkpt><trkpt lat="36.96678440031206" lon="15.096817519185747"><ele>455.20000000000005</ele><time>2026-03-28T17:34:23Z</time></trkpt><trkpt lat="36.96677997963543" lon="15.096939438883883"><ele>454.79999999999995</ele><time>2026-03-28T17:34:24Z</time></trkpt><trkpt lat="36.96677538971734" lon="15.09706602627486"><ele>454.4</ele><time>2026-03-28T17:34:25Z</time></trkpt><trkpt lat="36.96676933186672" lon="15.097195847818464"><ele>454.0</ele><time>2026-03-28T17:34:26Z</time></trkpt><trkpt lat="36.96676293964779" lon="15.09732901921155"><ele>456.2</ele><time>2026-03-28T17:34:27Z</time></trkpt><trkpt lat="36.966773374163445" lon="15.097465715078696"><ele>458.4</ele><time>2026-03-28T17:34:28Z</time></trkpt><trkpt lat="36.96675972302299" lon="15.09760041531907"><ele>460.6</ele><time>2026-03-28T17:34:29Z</time></trkpt><trkpt lat="36.966753587949874" lon="15.097726302568757"><ele>462.8</ele><time>2026-03-28T17:34:30Z</time></trkpt><trkpt lat="36.96674591581379" lon="15.097868974056471"><ele>465.0</ele><time>2026-03-28T17:34:31Z</time></trkpt><trkpt lat="36.96673117451245" lon="15.098018236287414"><ele>465.0</ele><time>2026-03-28T17:34:32Z</time></trkpt><trkpt lat="36.96671766969179" lon="15.098155356983606"><ele>465.0</ele><time>2026-03-28T17:34:32.999Z</time></trkpt><trkpt lat="36.96669581783186" lon="15.09828188958047"><ele>465.0</ele><time>2026-03-28T17:34:33.999Z</time></trkpt><trkpt lat="36.96666362099745" lon="15.098402488215696"><ele>465.0</ele><time>2026-03-28T17:34:34.999Z</time></trkpt><trkpt lat="36.96665846829802" lon="15.098531263279439"><ele>465.0</ele><time>2026-03-28T17:34:35.999Z</time></trkpt><trkpt lat="36.96661784684226" lon="15.098664893614378"><ele>470.6</ele><time>2026-03-28T17:34:36.999Z</time></trkpt><trkpt lat="36.96660707011031" lon="15.098802353126603"><ele>476.2</ele><time>2026-03-28T17:34:37.999Z</time></trkpt><trkpt lat="36.96657285040116" lon="15.098933433840108"><ele>481.79999999999995</ele><time>2026-03-28T17:34:38.999Z</time></trkpt><trkpt lat="36.966552386891145" lon="15.099060307641656"><ele>487.4</ele><time>2026-03-28T17:34:39.999Z</time></trkpt><trkpt lat="36.966545750999366" lon="15.09917921038718"><ele>493.0</ele><time>2026-03-28T17:34:40.999Z</time></trkpt><trkpt lat="36.96652307305261" lon="15.099310473587986"><ele>493.4</ele><time>2026-03-28T17:34:41.999Z</time></trkpt><trkpt lat="36.96650602512465" lon="15.099452070776875"><ele>493.79999999999995</ele><time>2026-03-28T17:34:42.999Z</time></trkpt><trkpt lat="36.96648078467536" lon="15.099586446029011"><ele>494.2</ele><time>2026-03-28T17:34:43.999Z</time></trkpt><trkpt lat="36.966468436422794" lon="15.099714753921424"><ele>494.6</ele><time>2026-03-28T17:34:44.999Z</time></trkpt><trkpt lat="36.966432835428414" lon="15.099838700735651"><ele>495.0</ele><time>2026-03-28T17:34:45.999Z</time></trkpt><trkpt lat="36.966413936659606" lon="15.099956969676597"><ele>496.2</ele><time>2026-03-28T17:34:46.999Z</time></trkpt><trkpt lat="36.96638949555837" lon="15.100067645340111"><ele>497.4</ele><time>2026-03-28T17:34:47.999Z</time></trkpt><trkpt lat="36.96635100122958" lon="15.100189884008246"><ele>498.6</ele><time>2026-03-28T17:34:48.999Z</time></trkpt><trkpt lat="36.96630581603417" lon="15.100320361775255"><ele>499.8</ele><time>2026-03-28T17:34:49.999Z</time></trkpt><trkpt lat="36.96625968765419" lon="15.100453562900315"><ele>501.0</ele><time>2026-03-28T17:34:50.999Z</time></trkpt><trkpt lat="36.966210211709594" lon="15.100581920514038"><ele>501.0</ele><time>2026-03-28T17:34:51.999Z</time></trkpt><trkpt lat="36.966153291419346" lon="15.100705839668011"><ele>501.0</ele><time>2026-03-28T17:34:52.999Z</time></trkpt><trkpt lat="36.966099107577655" lon="15.100813349333258"><ele>501.0</ele><time>2026-03-28T17:34:53.999Z</time></trkpt><trkpt lat="36.96605167996385" lon="15.100928606488274"><ele>501.0</ele><time>2026-03-28T17:34:54.999Z</time></trkpt><trkpt lat="36.96597720790002" lon="15.101031044967415"><ele>501.0</ele><time>2026-03-28T17:34:55.999Z</time></trkpt><trkpt lat="36.96589128374262" lon="15.101124921324532"><ele>501.4</ele><time>2026-03-28T17:34:56.999Z</time></trkpt><trkpt lat="36.965807050507536" lon="15.101206403439583"><ele>501.8</ele><time>2026-03-28T17:34:57.999Z</time></trkpt><trkpt lat="36.965725118130926" lon="15.101289868606335"><ele>502.19999999999993</ele><time>2026-03-28T17:34:58.999Z</time></trkpt><trkpt lat="36.96565165688387" lon="15.101369711968172"><ele>502.59999999999997</ele><time>2026-03-28T17:35:00Z</time></trkpt><trkpt lat="36.96557417369414" lon="15.101450428572859"><ele>503.0</ele><time>2026-03-28T17:35:01Z</time></trkpt><trkpt lat="36.965508993581075" lon="15.101530042456137"><ele>503.2</ele><time>2026-03-28T17:35:02Z</time></trkpt><trkpt lat="36.965442542090344" lon="15.101615435521575"><ele>503.4</ele><time>2026-03-28T17:35:03Z</time></trkpt><trkpt lat="36.96537526503606" lon="15.10170599602913"><ele>503.59999999999997</ele><time>2026-03-28T17:35:04Z</time></trkpt><trkpt lat="36.965296525234834" lon="15.101782223790568"><ele>503.79999999999995</ele><time>2026-03-28T17:35:05Z</time></trkpt><trkpt lat="36.965231539273276" lon="15.101865665167402"><ele>504.0</ele><time>2026-03-28T17:35:06Z</time></trkpt><trkpt lat="36.96516456930324" lon="15.101953805855574"><ele>504.0</ele><time>2026-03-28T17:35:07Z</time></trkpt><trkpt lat="36.9650942681313" lon="15.102046812722762"><ele>504.0</ele><time>2026-03-28T17:35:08Z</time></trkpt><trkpt lat="36.9650318482265" lon="15.102131025002372"><ele>504.0</ele><time>2026-03-28T17:35:09Z</time></trkpt><trkpt lat="36.96497223749565" lon="15.102211447353834"><ele>504.0</ele><time>2026-03-28T17:35:10Z</time></trkpt><trkpt lat="36.9649065646651" lon="15.102304176421274"><ele>504.0</ele><time>2026-03-28T17:35:11Z</time></trkpt><trkpt lat="36.96484764037027" lon="15.102398607098"><ele>502.5</ele><time>2026-03-28T17:35:12Z</time></trkpt><trkpt lat="36.96480925600355" lon="15.10250163292259"><ele>501.0</ele><time>2026-03-28T17:35:13Z</time></trkpt><trkpt lat="36.964746761562616" lon="15.102580635252504"><ele>499.5</ele><time>2026-03-28T17:35:14Z</time></trkpt><trkpt lat="36.964701428329164" lon="15.102663885134513"><ele>498.0</ele><time>2026-03-28T17:35:15Z</time></trkpt><trkpt lat="36.964653514063805" lon="15.102752163153863"><ele>496.5</ele><time>2026-03-28T17:35:16Z</time></trkpt><trkpt lat="36.964608557099396" lon="15.102837063604298"><ele>495.0</ele><time>2026-03-28T17:35:17Z</time></trkpt><trkpt lat="36.96456801826949" lon="15.102925619794558"><ele>495.0</ele><time>2026-03-28T17:35:18Z</time></trkpt><trkpt lat="36.96453734340495" lon="15.103003572493321"><ele>495.0</ele><time>2026-03-28T17:35:19Z</time></trkpt><trkpt lat="36.964517657244066" lon="15.103090673366099"><ele>495.0</ele><time>2026-03-28T17:35:20Z</time></trkpt><trkpt lat="36.9645125680277" lon="15.103196753324022"><ele>495.0</ele><time>2026-03-28T17:35:21Z</time></trkpt><trkpt lat="36.9645037798775" lon="15.10330853927781"><ele>495.0</ele><time>2026-03-28T17:35:22Z</time></trkpt><trkpt lat="36.96449350060693" lon="15.10343248760432"><ele>495.0</ele><time>2026-03-28T17:35:23Z</time></trkpt><trkpt lat="36.96448240606289" lon="15.103566266440003"><ele>494.6</ele><time>2026-03-28T17:35:24Z</time></trkpt><trkpt lat="36.96447232420613" lon="15.103687834374565"><ele>494.2</ele><time>2026-03-28T17:35:25Z</time></trkpt><trkpt lat="36.964461619797696" lon="15.10380351719274"><ele>493.79999999999995</ele><time>2026-03-28T17:35:26Z</time></trkpt><trkpt lat="36.96444712412755" lon="15.103929595015058"><ele>493.4</ele><time>2026-03-28T17:35:27Z</time></trkpt><trkpt lat="36.96442937754956" lon="15.10404572613545"><ele>493.0</ele><time>2026-03-28T17:35:28Z</time></trkpt><trkpt lat="36.96441010740927" lon="15.104153688064255"><ele>492.6666666666667</ele><time>2026-03-28T17:35:29Z</time></trkpt><trkpt lat="36.96438734066594" lon="15.104257004607797"><ele>492.33333333333337</ele><time>2026-03-28T17:35:30Z</time></trkpt><trkpt lat="36.96435964530351" lon="15.104357097137884"><ele>492.0</ele><time>2026-03-28T17:35:31Z</time></trkpt><trkpt lat="36.96434708886671" lon="15.104449841209794"><ele>491.66666666666663</ele><time>2026-03-28T17:35:32Z</time></trkpt><trkpt lat="36.964343236162506" lon="15.104546642604188"><ele>491.3333333333333</ele><time>2026-03-28T17:35:33Z</time></trkpt><trkpt lat="36.96435193864785" lon="15.1046717024619"><ele>491.0</ele><time>2026-03-28T17:35:34Z</time></trkpt><trkpt lat="36.964364802667724" lon="15.10480250463733"><ele>490.8</ele><time>2026-03-28T17:35:35Z</time></trkpt><trkpt lat="36.96437446870715" lon="15.104929495255801"><ele>490.6</ele><time>2026-03-28T17:35:36Z</time></trkpt><trkpt lat="36.96438103328143" lon="15.105063366418085"><ele>490.4</ele><time>2026-03-28T17:35:37Z</time></trkpt><trkpt lat="36.964382153891854" lon="15.105191728016733"><ele>490.2</ele><time>2026-03-28T17:35:38Z</time></trkpt><trkpt lat="36.96437544079355" lon="15.105308218651976"><ele>490.0</ele><time>2026-03-28T17:35:39Z</time></trkpt><trkpt lat="36.96436243799801" lon="15.105432760275937"><ele>490.0</ele><time>2026-03-28T17:35:40Z</time></trkpt><trkpt lat="36.964335545540976" lon="15.105559148607043"><ele>490.0</ele><time>2026-03-28T17:35:41Z</time></trkpt><trkpt lat="36.96430862194487" lon="15.105682273625291"><ele>490.0</ele><time>2026-03-28T17:35:42Z</time></trkpt><trkpt lat="36.964277371782764" lon="15.105814079261068"><ele>490.0</ele><time>2026-03-28T17:35:43Z</time></trkpt><trkpt lat="36.964244799136054" lon="15.105945821281484"><ele>490.0</ele><time>2026-03-28T17:35:44Z</time></trkpt><trkpt lat="36.96421146112746" lon="15.106080658851752"><ele>487.6</ele><time>2026-03-28T17:35:45Z</time></trkpt><trkpt lat="36.96417829829621" lon="15.106214787549742"><ele>485.2</ele><time>2026-03-28T17:35:46Z</time></trkpt><trkpt lat="36.96414674400434" lon="15.1063424087351"><ele>482.79999999999995</ele><time>2026-03-28T17:35:47Z</time></trkpt><trkpt lat="36.96411331793634" lon="15.106477600308109"><ele>480.4</ele><time>2026-03-28T17:35:48Z</time></trkpt><trkpt lat="36.964082585219856" lon="15.106601898635422"><ele>478.0</ele><time>2026-03-28T17:35:49Z</time></trkpt><trkpt lat="36.964061900147094" lon="15.10673417831905"><ele>477.79999999999995</ele><time>2026-03-28T17:35:50Z</time></trkpt><trkpt lat="36.964025742904774" lon="15.106855730122044"><ele>477.59999999999997</ele><time>2026-03-28T17:35:51Z</time></trkpt><trkpt lat="36.96398579034621" lon="15.106984124352033"><ele>477.40000000000003</ele><time>2026-03-28T17:35:52Z</time></trkpt><trkpt lat="36.96394519737775" lon="15.107105937127475"><ele>477.20000000000005</ele><time>2026-03-28T17:35:53Z</time></trkpt><trkpt lat="36.963901455318265" lon="15.10722698580886"><ele>477.0</ele><time>2026-03-28T17:35:54Z</time></trkpt><trkpt lat="36.96386132229072" lon="15.10735208585681"><ele>476.75</ele><time>2026-03-28T17:35:55Z</time></trkpt><trkpt lat="36.96382133136458" lon="15.107484504512744"><ele>476.5</ele><time>2026-03-28T17:35:56Z</time></trkpt><trkpt lat="36.96378080975071" lon="15.107623939074193"><ele>476.25</ele><time>2026-03-28T17:35:57Z</time></trkpt><trkpt lat="36.963746323456256" lon="15.107763907833828"><ele>476.0</ele><time>2026-03-28T17:35:58Z</time></trkpt><trkpt lat="36.96371452794011" lon="15.107909297529211"><ele>476.0</ele><time>2026-03-28T17:35:59Z</time></trkpt><trkpt lat="36.963681539205744" lon="15.1080529394636"><ele>476.0</ele><time>2026-03-28T17:36:00Z</time></trkpt><trkpt lat="36.96365030470167" lon="15.108207213701656"><ele>476.0</ele><time>2026-03-28T17:36:01Z</time></trkpt><trkpt lat="36.963623630009685" lon="15.108353057013247"><ele>476.0</ele><time>2026-03-28T17:36:02Z</time></trkpt><trkpt lat="36.963600575492585" lon="15.1084926749853"><ele>475.8</ele><time>2026-03-28T17:36:03Z</time></trkpt><trkpt lat="36.96357277925703" lon="15.108620035580747"><ele>475.6</ele><time>2026-03-28T17:36:04Z</time></trkpt><trkpt lat="36.963541957505356" lon="15.10874221862197"><ele>475.4</ele><time>2026-03-28T17:36:05Z</time></trkpt><trkpt lat="36.96350472086297" lon="15.10885578251337"><ele>475.2</ele><time>2026-03-28T17:36:06Z</time></trkpt><trkpt lat="36.963457698493045" lon="15.108979685202922"><ele>475.0</ele><time>2026-03-28T17:36:07Z</time></trkpt><trkpt lat="36.963403559361964" lon="15.109098756364592"><ele>474.50000000000006</ele><time>2026-03-28T17:36:08Z</time></trkpt><trkpt lat="36.96336256442464" lon="15.109201357480757"><ele>474.0</ele><time>2026-03-28T17:36:09Z</time></trkpt><trkpt lat="36.96332171073719" lon="15.109295253651498"><ele>473.5</ele><time>2026-03-28T17:36:10Z</time></trkpt><trkpt lat="36.96329218158442" lon="15.109390170917685"><ele>473.0</ele><time>2026-03-28T17:36:11Z</time></trkpt><trkpt lat="36.963281532720835" lon="15.109474749443223"><ele>472.50000000000006</ele><time>2026-03-28T17:36:12Z</time></trkpt><trkpt lat="36.96328288009057" lon="15.109561487072192"><ele>472.0</ele><time>2026-03-28T17:36:13Z</time></trkpt><trkpt lat="36.96329120445414" lon="15.10966328656933"><ele>472.0</ele><time>2026-03-28T17:36:14Z</time></trkpt><trkpt lat="36.963306360392544" lon="15.109785329458292"><ele>472.00000000000006</ele><time>2026-03-28T17:36:15Z</time></trkpt><trkpt lat="36.96330829860161" lon="15.109906317975978"><ele>472.00000000000006</ele><time>2026-03-28T17:36:16Z</time></trkpt><trkpt lat="36.96330379674563" lon="15.110035637373292"><ele>472.0</ele><time>2026-03-28T17:36:17Z</time></trkpt><trkpt lat="36.96330780083142" lon="15.110154109440208"><ele>472.0</ele><time>2026-03-28T17:36:18Z</time></trkpt><trkpt lat="36.96332888758662" lon="15.110280040605437"><ele>471.75</ele><time>2026-03-28T17:36:19Z</time></trkpt><trkpt lat="36.96335483554289" lon="15.110412133443104"><ele>471.5</ele><time>2026-03-28T17:36:20Z</time></trkpt><trkpt lat="36.96338999990474" lon="15.110552283308003"><ele>471.25</ele><time>2026-03-28T17:36:21Z</time></trkpt><trkpt lat="36.96342072553706" lon="15.11069204189349"><ele>471.0</ele><time>2026-03-28T17:36:22Z</time></trkpt><trkpt lat="36.96344385265413" lon="15.11084009351191"><ele>463.0</ele><time>2026-03-28T17:36:23Z</time></trkpt><trkpt lat="36.96347179409721" lon="15.111010582836423"><ele>455.0</ele><time>2026-03-28T17:36:24Z</time></trkpt><trkpt lat="36.963489519737735" lon="15.111163449868368"><ele>447.0</ele><time>2026-03-28T17:36:25Z</time></trkpt><trkpt lat="36.96350368791764" lon="15.111299560566323"><ele>439.0</ele><time>2026-03-28T17:36:26Z</time></trkpt><trkpt lat="36.96351795562428" lon="15.111428140795779"><ele>439.0</ele><time>2026-03-28T17:36:27Z</time></trkpt><trkpt lat="36.96352444711102" lon="15.111544633684872"><ele>439.0</ele><time>2026-03-28T17:36:28Z</time></trkpt><trkpt lat="36.96351721657739" lon="15.111679729859175"><ele>439.0</ele><time>2026-03-28T17:36:29Z</time></trkpt><trkpt lat="36.96349875430059" lon="15.111816372129745"><ele>439.0</ele><time>2026-03-28T17:36:30Z</time></trkpt><trkpt lat="36.96347110340126" lon="15.11196766349594"><ele>439.0</ele><time>2026-03-28T17:36:31Z</time></trkpt><trkpt lat="36.96343519553801" lon="15.112124236134887"><ele>445.25</ele><time>2026-03-28T17:36:31.999Z</time></trkpt><trkpt lat="36.96339215821619" lon="15.112282613933331"><ele>451.5</ele><time>2026-03-28T17:36:32.999Z</time></trkpt><trkpt lat="36.9633416065568" lon="15.112440980866213"><ele>457.75</ele><time>2026-03-28T17:36:33.999Z</time></trkpt><trkpt lat="36.96329092318581" lon="15.112599659601797"><ele>464.0</ele><time>2026-03-28T17:36:34.999Z</time></trkpt><trkpt lat="36.96324100079546" lon="15.112766415113278"><ele>464.0</ele><time>2026-03-28T17:36:35.999Z</time></trkpt><trkpt lat="36.96319750520938" lon="15.112933079273734"><ele>464.0</ele><time>2026-03-28T17:36:36.999Z</time></trkpt><trkpt lat="36.96315898566303" lon="15.113105371644853"><ele>464.0</ele><time>2026-03-28T17:36:37.999Z</time></trkpt><trkpt lat="36.96312294165847" lon="15.113262895734325"><ele>464.0</ele><time>2026-03-28T17:36:38.999Z</time></trkpt><trkpt lat="36.963086475740724" lon="15.113411972726153"><ele>457.25</ele><time>2026-03-28T17:36:39.999Z</time></trkpt><trkpt lat="36.963047435032856" lon="15.113569635504199"><ele>450.5</ele><time>2026-03-28T17:36:40.999Z</time></trkpt><trkpt lat="36.96300881380746" lon="15.113741324222167"><ele>443.75</ele><time>2026-03-28T17:36:41.999Z</time></trkpt><trkpt lat="36.962964616146635" lon="15.11391354262946"><ele>437.0</ele><time>2026-03-28T17:36:42.999Z</time></trkpt><trkpt lat="36.96292237520762" lon="15.114068218741977"><ele>429.6</ele><time>2026-03-28T17:36:43.999Z</time></trkpt><trkpt lat="36.962885781129906" lon="15.114202031552596"><ele>422.20000000000005</ele><time>2026-03-28T17:36:44.999Z</time></trkpt><trkpt lat="36.96284991289353" lon="15.114324231849626"><ele>414.8</ele><time>2026-03-28T17:36:45.999Z</time></trkpt><trkpt lat="36.96281440849946" lon="15.11444726917907"><ele>407.4</ele><time>2026-03-28T17:36:46.999Z</time></trkpt><trkpt lat="36.96277767982315" lon="15.11456056093585"><ele>400.0</ele><time>2026-03-28T17:36:47.999Z</time></trkpt><trkpt lat="36.962744614327455" lon="15.114657408554358"><ele>400.00000000000006</ele><time>2026-03-28T17:36:48.999Z</time></trkpt><trkpt lat="36.96271910537906" lon="15.114740209401429"><ele>400.0</ele><time>2026-03-28T17:36:49.999Z</time></trkpt><trkpt lat="36.962689216094105" lon="15.114834820825036"><ele>400.0</ele><time>2026-03-28T17:36:50.999Z</time></trkpt><trkpt lat="36.962667579563416" lon="15.114941598506885"><ele>400.0</ele><time>2026-03-28T17:36:51.999Z</time></trkpt><trkpt lat="36.96264109989368" lon="15.115062572302115"><ele>400.00000000000006</ele><time>2026-03-28T17:36:52.999Z</time></trkpt><trkpt lat="36.962616479973306" lon="15.115176322784455"><ele>400.0</ele><time>2026-03-28T17:36:53.999Z</time></trkpt><trkpt lat="36.962589333478384" lon="15.115287757114196"><ele>394.1666666666667</ele><time>2026-03-28T17:36:54.999Z</time></trkpt><trkpt lat="36.96256236818101" lon="15.115391521098369"><ele>388.33333333333337</ele><time>2026-03-28T17:36:55.999Z</time></trkpt><trkpt lat="36.962535406090055" lon="15.115486784507052"><ele>382.5</ele><time>2026-03-28T17:36:56.999Z</time></trkpt><trkpt lat="36.9625121408651" lon="15.115574008696028"><ele>376.6666666666667</ele><time>2026-03-28T17:36:57.999Z</time></trkpt><trkpt lat="36.9624875935326" lon="15.115665706361591"><ele>370.83333333333337</ele><time>2026-03-28T17:36:58.999Z</time></trkpt><trkpt lat="36.962460525465765" lon="15.115753765960505"><ele>365.0</ele><time>2026-03-28T17:36:59.999Z</time></trkpt><trkpt lat="36.9624415790995" lon="15.11584933804137"><ele>379.0</ele><time>2026-03-28T17:37:00.999Z</time></trkpt><trkpt lat="36.9624309733998" lon="15.115953209531632"><ele>393.0</ele><time>2026-03-28T17:37:01.999Z</time></trkpt><trkpt lat="36.96241892847661" lon="15.116061134853119"><ele>407.0</ele><time>2026-03-28T17:37:02.999Z</time></trkpt><trkpt lat="36.96240615783471" lon="15.116160075261762"><ele>421.0</ele><time>2026-03-28T17:37:03.999Z</time></trkpt><trkpt lat="36.962392306266246" lon="15.116263747847071"><ele>434.99999999999994</ele><time>2026-03-28T17:37:04.999Z</time></trkpt><trkpt lat="36.962389211729615" lon="15.116379440968982"><ele>449.0</ele><time>2026-03-28T17:37:06Z</time></trkpt><trkpt lat="36.962396222868335" lon="15.116498686915453"><ele>448.0</ele><time>2026-03-28T17:37:07Z</time></trkpt><trkpt lat="36.96241119414763" lon="15.116639609437513"><ele>447.0</ele><time>2026-03-28T17:37:08Z</time></trkpt><trkpt lat="36.962430555605074" lon="15.1167960962797"><ele>446.0</ele><time>2026-03-28T17:37:09Z</time></trkpt><trkpt lat="36.96244820663839" lon="15.11694494278027"><ele>445.0</ele><time>2026-03-28T17:37:10Z</time></trkpt><trkpt lat="36.962466055211785" lon="15.117084049998432"><ele>445.0</ele><time>2026-03-28T17:37:11Z</time></trkpt><trkpt lat="36.96248407971035" lon="15.117216574158837"><ele>445.0</ele><time>2026-03-28T17:37:12Z</time></trkpt><trkpt lat="36.962496942229855" lon="15.117349029928036"><ele>445.0</ele><time>2026-03-28T17:37:13Z</time></trkpt><trkpt lat="36.962488671995395" lon="15.117468425910452"><ele>445.0</ele><time>2026-03-28T17:37:14Z</time></trkpt><trkpt lat="36.962490308784986" lon="15.117593524764922"><ele>445.0</ele><time>2026-03-28T17:37:15Z</time></trkpt><trkpt lat="36.96250058832401" lon="15.117748649220367"><ele>445.25</ele><time>2026-03-28T17:37:16Z</time></trkpt><trkpt lat="36.962489154534474" lon="15.117906876062259"><ele>445.5</ele><time>2026-03-28T17:37:17Z</time></trkpt><trkpt lat="36.96247739513477" lon="15.118061936897423"><ele>445.75</ele><time>2026-03-28T17:37:18Z</time></trkpt><trkpt lat="36.96245735159734" lon="15.118210264116358"><ele>446.0</ele><time>2026-03-28T17:37:19Z</time></trkpt><trkpt lat="36.96244480226622" lon="15.11834700311266"><ele>446.66666666666663</ele><time>2026-03-28T17:37:20Z</time></trkpt><trkpt lat="36.962430321710826" lon="15.11847588437587"><ele>447.3333333333333</ele><time>2026-03-28T17:37:21Z</time></trkpt><trkpt lat="36.96241628467712" lon="15.118583694276783"><ele>448.0</ele><time>2026-03-28T17:37:22Z</time></trkpt><trkpt lat="36.9624045304895" lon="15.118698691468598"><ele>448.66666666666663</ele><time>2026-03-28T17:37:23Z</time></trkpt><trkpt lat="36.96239060768341" lon="15.118805690114769"><ele>449.3333333333333</ele><time>2026-03-28T17:37:24Z</time></trkpt><trkpt lat="36.96238276221663" lon="15.118893741763872"><ele>450.0</ele><time>2026-03-28T17:37:25Z</time></trkpt><trkpt lat="36.96238695079109" lon="15.11897735280883"><ele>450.0</ele><time>2026-03-28T17:37:26Z</time></trkpt><trkpt lat="36.96240824432046" lon="15.119064953422132"><ele>450.0</ele><time>2026-03-28T17:37:27Z</time></trkpt><trkpt lat="36.96245511140884" lon="15.11916947517429"><ele>450.0</ele><time>2026-03-28T17:37:28Z</time></trkpt><trkpt lat="36.96252102250664" lon="15.119270705843233"><ele>450.0</ele><time>2026-03-28T17:37:29Z</time></trkpt><trkpt lat="36.962589730465545" lon="15.119368741295244"><ele>450.0</ele><time>2026-03-28T17:37:30Z</time></trkpt><trkpt lat="36.96266743543172" lon="15.119476813459283"><ele>447.4</ele><time>2026-03-28T17:37:31Z</time></trkpt><trkpt lat="36.962736911119364" lon="15.11960722604461"><ele>444.8</ele><time>2026-03-28T17:37:32Z</time></trkpt><trkpt lat="36.96281046583018" lon="15.119687695783117"><ele>442.20000000000005</ele><time>2026-03-28T17:37:33Z</time></trkpt><trkpt lat="36.96286312357473" lon="15.119762377732124"><ele>439.6</ele><time>2026-03-28T17:37:34Z</time></trkpt><trkpt lat="36.962915020997706" lon="15.119840875140454"><ele>437.0</ele><time>2026-03-28T17:37:35Z</time></trkpt><trkpt lat="36.962974237110515" lon="15.119932200325177"><ele>436.99999999999994</ele><time>2026-03-28T17:37:36Z</time></trkpt><trkpt lat="36.96301293876245" lon="15.120030128251612"><ele>437.0</ele><time>2026-03-28T17:37:37Z</time></trkpt><trkpt lat="36.9630375379577" lon="15.120115782715313"><ele>437.0</ele><time>2026-03-28T17:37:38Z</time></trkpt><trkpt lat="36.963063480570476" lon="15.120223628371534"><ele>437.0</ele><time>2026-03-28T17:37:39Z</time></trkpt><trkpt lat="36.96308159274841" lon="15.120338840366445"><ele>436.99999999999994</ele><time>2026-03-28T17:37:40Z</time></trkpt><trkpt lat="36.96310051723259" lon="15.120438958710158"><ele>437.0</ele><time>2026-03-28T17:37:41Z</time></trkpt><trkpt lat="36.963133652864244" lon="15.120534991022616"><ele>437.0</ele><time>2026-03-28T17:37:42Z</time></trkpt><trkpt lat="36.96315178656896" lon="15.12065500183903"><ele>437.00000000000006</ele><time>2026-03-28T17:37:43Z</time></trkpt><trkpt lat="36.96317947340888" lon="15.120785461385827"><ele>437.00000000000006</ele><time>2026-03-28T17:37:44Z</time></trkpt><trkpt lat="36.96320235768129" lon="15.120916159494847"><ele>437.0</ele><time>2026-03-28T17:37:45Z</time></trkpt><trkpt lat="36.96322164932962" lon="15.121025243763317"><ele>437.0</ele><time>2026-03-28T17:37:46Z</time></trkpt><trkpt lat="36.96324983740259" lon="15.121152256431504"><ele>438.8</ele><time>2026-03-28T17:37:48Z</time></trkpt><trkpt lat="36.96327093091149" lon="15.12127669304363"><ele>440.6</ele><time>2026-03-28T17:37:50Z</time></trkpt><trkpt lat="36.96328879662028" lon="15.1213601416353"><ele>442.40000000000003</ele><time>2026-03-28T17:37:51Z</time></trkpt><trkpt lat="36.96329645105802" lon="15.121463992600345"><ele>444.20000000000005</ele><time>2026-03-28T17:37:52Z</time></trkpt><trkpt lat="36.96329238073818" lon="15.1215902251937"><ele>446.0</ele><time>2026-03-28T17:37:53Z</time></trkpt><trkpt lat="36.96327868168027" lon="15.121715741125048"><ele>446.0</ele><time>2026-03-28T17:37:54Z</time></trkpt><trkpt lat="36.963259208730975" lon="15.12185851858167"><ele>446.0</ele><time>2026-03-28T17:37:55Z</time></trkpt><trkpt lat="36.9632404020775" lon="15.12199641059188"><ele>446.0</ele><time>2026-03-28T17:37:56Z</time></trkpt><trkpt lat="36.963217631929545" lon="15.122162103419427"><ele>446.0</ele><time>2026-03-28T17:37:57Z</time></trkpt><trkpt lat="36.96319251763242" lon="15.122319675027997"><ele>442.0</ele><time>2026-03-28T17:37:58Z</time></trkpt><trkpt lat="36.96316275602779" lon="15.12245491076851"><ele>438.0</ele><time>2026-03-28T17:37:59Z</time></trkpt><trkpt lat="36.963133242151066" lon="15.122569906432242"><ele>434.0</ele><time>2026-03-28T17:38:00Z</time></trkpt><trkpt lat="36.96309665614526" lon="15.122681073478175"><ele>430.0</ele><time>2026-03-28T17:38:01Z</time></trkpt><trkpt lat="36.96305432091485" lon="15.122773277971337"><ele>426.0</ele><time>2026-03-28T17:38:02Z</time></trkpt><trkpt lat="36.96300682505476" lon="15.122840763793532"><ele>426.0</ele><time>2026-03-28T17:38:03Z</time></trkpt><trkpt lat="36.962952183226975" lon="15.122907799549376"><ele>426.0</ele><time>2026-03-28T17:38:04Z</time></trkpt><trkpt lat="36.962876594052865" lon="15.122991160745302"><ele>426.0</ele><time>2026-03-28T17:38:05Z</time></trkpt><trkpt lat="36.96281943223659" lon="15.123045240369951"><ele>426.0</ele><time>2026-03-28T17:38:06Z</time></trkpt><trkpt lat="36.96275168291743" lon="15.123110894842046"><ele>426.0</ele><time>2026-03-28T17:38:07Z</time></trkpt><trkpt lat="36.96268422742542" lon="15.12317859852025"><ele>426.0</ele><time>2026-03-28T17:38:08Z</time></trkpt><trkpt lat="36.962611576171746" lon="15.123256515254806"><ele>431.0</ele><time>2026-03-28T17:38:09Z</time></trkpt><trkpt lat="36.96254674498998" lon="15.123349844868617"><ele>436.0</ele><time>2026-03-28T17:38:10Z</time></trkpt><trkpt lat="36.96250811915359" lon="15.12346585048474"><ele>441.0</ele><time>2026-03-28T17:38:11Z</time></trkpt><trkpt lat="36.96245550829221" lon="15.123581354376785"><ele>446.0</ele><time>2026-03-28T17:38:12Z</time></trkpt><trkpt lat="36.962411761796105" lon="15.123712561473312"><ele>451.0</ele><time>2026-03-28T17:38:13Z</time></trkpt><trkpt lat="36.962362860500534" lon="15.123855387563113"><ele>451.0</ele><time>2026-03-28T17:38:14Z</time></trkpt><trkpt lat="36.962316450533386" lon="15.124001288784171"><ele>451.0</ele><time>2026-03-28T17:38:15Z</time></trkpt><trkpt lat="36.96226823822546" lon="15.124149210574457"><ele>451.0</ele><time>2026-03-28T17:38:16Z</time></trkpt><trkpt lat="36.962225417855436" lon="15.124290669473554"><ele>451.0</ele><time>2026-03-28T17:38:17Z</time></trkpt><trkpt lat="36.96219584721802" lon="15.124425270341726"><ele>448.20000000000005</ele><time>2026-03-28T17:38:18Z</time></trkpt><trkpt lat="36.962149119348744" lon="15.124536670612267"><ele>445.40000000000003</ele><time>2026-03-28T17:38:19Z</time></trkpt><trkpt lat="36.962109338617374" lon="15.124659774331528"><ele>442.6</ele><time>2026-03-28T17:38:20Z</time></trkpt><trkpt lat="36.96206106183825" lon="15.124788235316759"><ele>439.8</ele><time>2026-03-28T17:38:21Z</time></trkpt><trkpt lat="36.96200736852347" lon="15.12491975995832"><ele>437.0</ele><time>2026-03-28T17:38:22Z</time></trkpt><trkpt lat="36.96196564156603" lon="15.125062205870773"><ele>429.8</ele><time>2026-03-28T17:38:23Z</time></trkpt><trkpt lat="36.961911413970185" lon="15.125184671063954"><ele>422.6</ele><time>2026-03-28T17:38:24Z</time></trkpt><trkpt lat="36.961858431891365" lon="15.125298876873275"><ele>415.40000000000003</ele><time>2026-03-28T17:38:25Z</time></trkpt><trkpt lat="36.96181154052717" lon="15.12541165460959"><ele>408.20000000000005</ele><time>2026-03-28T17:38:26Z</time></trkpt><trkpt lat="36.96176663812191" lon="15.125502958559162"><ele>401.0</ele><time>2026-03-28T17:38:27Z</time></trkpt><trkpt lat="36.961723287373935" lon="15.125592910567397"><ele>409.6</ele><time>2026-03-28T17:38:28Z</time></trkpt><trkpt lat="36.96167340452661" lon="15.125672042882215"><ele>418.20000000000005</ele><time>2026-03-28T17:38:29Z</time></trkpt><trkpt lat="36.96163901045986" lon="15.125746248715105"><ele>426.79999999999995</ele><time>2026-03-28T17:38:30Z</time></trkpt><trkpt lat="36.96158146658057" lon="15.125867542637634"><ele>435.4</ele><time>2026-03-28T17:38:32Z</time></trkpt><trkpt lat="36.96152338253358" lon="15.125965917128838"><ele>444.0</ele><time>2026-03-28T17:38:34Z</time></trkpt><trkpt lat="36.961437094049565" lon="15.126122011639339"><ele>444.0</ele><time>2026-03-28T17:38:36Z</time></trkpt><trkpt lat="36.96137118262576" lon="15.126226563362266"><ele>444.0</ele><time>2026-03-28T17:38:37Z</time></trkpt><trkpt lat="36.96131602324177" lon="15.126340576859798"><ele>444.0</ele><time>2026-03-28T17:38:38Z</time></trkpt><trkpt lat="36.961264300390305" lon="15.12644739952485"><ele>444.0</ele><time>2026-03-28T17:38:39Z</time></trkpt><trkpt lat="36.961219173663764" lon="15.126548935713439"><ele>444.0</ele><time>2026-03-28T17:38:39.999Z</time></trkpt><trkpt lat="36.96118288245635" lon="15.126664483564374"><ele>439.6</ele><time>2026-03-28T17:38:40.999Z</time></trkpt><trkpt lat="36.961159968683226" lon="15.126787517591112"><ele>435.2</ele><time>2026-03-28T17:38:41.999Z</time></trkpt><trkpt lat="36.961132442949626" lon="15.12692112755646"><ele>430.8</ele><time>2026-03-28T17:38:42.999Z</time></trkpt><trkpt lat="36.961090536491234" lon="15.127036759910386"><ele>426.40000000000003</ele><time>2026-03-28T17:38:43.999Z</time></trkpt><trkpt lat="36.96103899993485" lon="15.12713777902208"><ele>422.0</ele><time>2026-03-28T17:38:44.999Z</time></trkpt><trkpt lat="36.960994345598266" lon="15.1272283345894"><ele>422.0</ele><time>2026-03-28T17:38:45.999Z</time></trkpt><trkpt lat="36.96096667374869" lon="15.12733464798777"><ele>422.0</ele><time>2026-03-28T17:38:46.999Z</time></trkpt><trkpt lat="36.960946323052" lon="15.127463258034219"><ele>422.0</ele><time>2026-03-28T17:38:47.999Z</time></trkpt><trkpt lat="36.960925429998305" lon="15.127589886541838"><ele>422.0</ele><time>2026-03-28T17:38:48.999Z</time></trkpt><trkpt lat="36.96090473280327" lon="15.127723727636814"><ele>422.0</ele><time>2026-03-28T17:38:49.999Z</time></trkpt><trkpt lat="36.96087367463903" lon="15.12785342598405"><ele>425.3333333333333</ele><time>2026-03-28T17:38:50.999Z</time></trkpt><trkpt lat="36.96084420340706" lon="15.127959508605798"><ele>428.66666666666663</ele><time>2026-03-28T17:38:51.999Z</time></trkpt><trkpt lat="36.960813219408884" lon="15.128061029727014"><ele>432.0</ele><time>2026-03-28T17:38:52.999Z</time></trkpt><trkpt lat="36.96079521049653" lon="15.128155480337051"><ele>435.33333333333337</ele><time>2026-03-28T17:38:53.999Z</time></trkpt><trkpt lat="36.96075867592878" lon="15.128237125156097"><ele>438.6666666666667</ele><time>2026-03-28T17:38:54.999Z</time></trkpt><trkpt lat="36.96072375080682" lon="15.12832539998413"><ele>442.0</ele><time>2026-03-28T17:38:55.999Z</time></trkpt><trkpt lat="36.96067608506138" lon="15.12839945825778"><ele>442.00000000000006</ele><time>2026-03-28T17:38:56.999Z</time></trkpt><trkpt lat="36.96062387416699" lon="15.128534891313732"><ele>442.0</ele><time>2026-03-28T17:38:58.999Z</time></trkpt><trkpt lat="36.96059633253839" lon="15.128612042233534"><ele>442.0</ele><time>2026-03-28T17:38:59.999Z</time></trkpt><trkpt lat="36.96056976837348" lon="15.128692319157661"><ele>442.0</ele><time>2026-03-28T17:39:00.999Z</time></trkpt><trkpt lat="36.96054989364465" lon="15.12877656782154"><ele>442.00000000000006</ele><time>2026-03-28T17:39:01.999Z</time></trkpt><trkpt lat="36.96054822430932" lon="15.128864064377314"><ele>442.0</ele><time>2026-03-28T17:39:02.999Z</time></trkpt><trkpt lat="36.96052141289952" lon="15.128948606575221"><ele>442.0</ele><time>2026-03-28T17:39:03.999Z</time></trkpt><trkpt lat="36.96049484656854" lon="15.12904088282682"><ele>442.00000000000006</ele><time>2026-03-28T17:39:04.999Z</time></trkpt><trkpt lat="36.9604573751433" lon="15.129142963776783"><ele>442.00000000000006</ele><time>2026-03-28T17:39:05.999Z</time></trkpt><trkpt lat="36.960418881928106" lon="15.129265015277563"><ele>442.0</ele><time>2026-03-28T17:39:06.999Z</time></trkpt><trkpt lat="36.96037070496545" lon="15.129387489918091"><ele>442.0</ele><time>2026-03-28T17:39:07.999Z</time></trkpt><trkpt lat="36.96032586603331" lon="15.129502760560781"><ele>438.40000000000003</ele><time>2026-03-28T17:39:08.999Z</time></trkpt><trkpt lat="36.96027767342774" lon="15.129607807010052"><ele>434.80000000000007</ele><time>2026-03-28T17:39:09.999Z</time></trkpt><trkpt lat="36.96023174611486" lon="15.129721497308093"><ele>431.2</ele><time>2026-03-28T17:39:10.999Z</time></trkpt><trkpt lat="36.96018753860796" lon="15.129846555172705"><ele>427.6</ele><time>2026-03-28T17:39:12Z</time></trkpt><trkpt lat="36.96014110760372" lon="15.129979470279885"><ele>424.0</ele><time>2026-03-28T17:39:13Z</time></trkpt><trkpt lat="36.960102714355116" lon="15.130094245555547"><ele>426.6</ele><time>2026-03-28T17:39:14Z</time></trkpt><trkpt lat="36.96006303928711" lon="15.130202472902834"><ele>429.2</ele><time>2026-03-28T17:39:15Z</time></trkpt><trkpt lat="36.960016655356355" lon="15.130317662900284"><ele>431.80000000000007</ele><time>2026-03-28T17:39:16Z</time></trkpt><trkpt lat="36.95996865948441" lon="15.130440168379106"><ele>434.40000000000003</ele><time>2026-03-28T17:39:17Z</time></trkpt><trkpt lat="36.95991940708161" lon="15.130568546852519"><ele>437.0</ele><time>2026-03-28T17:39:18Z</time></trkpt><trkpt lat="36.959872274746935" lon="15.130701550424092"><ele>437.75</ele><time>2026-03-28T17:39:19Z</time></trkpt><trkpt lat="36.95981595473339" lon="15.130839225270925"><ele>438.5</ele><time>2026-03-28T17:39:20Z</time></trkpt><trkpt lat="36.959772985796825" lon="15.130990485853017"><ele>439.25</ele><time>2026-03-28T17:39:21Z</time></trkpt><trkpt lat="36.959739329746284" lon="15.131144841596576"><ele>440.0</ele><time>2026-03-28T17:39:22Z</time></trkpt><trkpt lat="36.95971347759273" lon="15.131291980503962"><ele>440.0</ele><time>2026-03-28T17:39:23Z</time></trkpt><trkpt lat="36.959693309894156" lon="15.131456050397976"><ele>440.0</ele><time>2026-03-28T17:39:24Z</time></trkpt><trkpt lat="36.959681715749376" lon="15.131631514136766"><ele>440.0</ele><time>2026-03-28T17:39:25Z</time></trkpt><trkpt lat="36.95968536605617" lon="15.131808329243169"><ele>440.0</ele><time>2026-03-28T17:39:26Z</time></trkpt><trkpt lat="36.959707705370725" lon="15.13199613913029"><ele>440.25</ele><time>2026-03-28T17:39:27Z</time></trkpt><trkpt lat="36.95969215933972" lon="15.132184784433587"><ele>440.5</ele><time>2026-03-28T17:39:28Z</time></trkpt><trkpt lat="36.959684453621854" lon="15.132373618226438"><ele>440.75</ele><time>2026-03-28T17:39:29Z</time></trkpt><trkpt lat="36.95967293774911" lon="15.132542888669274"><ele>441.0</ele><time>2026-03-28T17:39:30Z</time></trkpt><trkpt lat="36.959658365042195" lon="15.132701551588568"><ele>438.5</ele><time>2026-03-28T17:39:31Z</time></trkpt><trkpt lat="36.959628263401505" lon="15.132855503222558"><ele>436.0</ele><time>2026-03-28T17:39:32Z</time></trkpt><trkpt lat="36.95956685266041" lon="15.13299966394494"><ele>433.5</ele><time>2026-03-28T17:39:33Z</time></trkpt><trkpt lat="36.959485869005114" lon="15.133164523135944"><ele>431.0</ele><time>2026-03-28T17:39:34Z</time></trkpt><trkpt lat="36.959437269496775" lon="15.133354825024872"><ele>422.66666666666663</ele><time>2026-03-28T17:39:35Z</time></trkpt><trkpt lat="36.9593895329808" lon="15.133533048166496"><ele>414.33333333333337</ele><time>2026-03-28T17:39:36Z</time></trkpt><trkpt lat="36.95932624325895" lon="15.133711577374095"><ele>406.0</ele><time>2026-03-28T17:39:37Z</time></trkpt><trkpt lat="36.95926290060632" lon="15.133886858280224"><ele>406.0</ele><time>2026-03-28T17:39:38Z</time></trkpt><trkpt lat="36.95920070143717" lon="15.134047980205473"><ele>406.0</ele><time>2026-03-28T17:39:39Z</time></trkpt><trkpt lat="36.95915183414274" lon="15.13418270043262"><ele>406.0</ele><time>2026-03-28T17:39:40Z</time></trkpt><trkpt lat="36.9591153489724" lon="15.134297117841857"><ele>406.0</ele><time>2026-03-28T17:39:41Z</time></trkpt><trkpt lat="36.95909383415667" lon="15.134408245104883"><ele>410.75</ele><time>2026-03-28T17:39:42Z</time></trkpt><trkpt lat="36.95911358156026" lon="15.134542364263373"><ele>415.5</ele><time>2026-03-28T17:39:43Z</time></trkpt><trkpt lat="36.959152837080524" lon="15.134688231341494"><ele>420.25</ele><time>2026-03-28T17:39:44Z</time></trkpt><trkpt lat="36.959183180021284" lon="15.134833400138975"><ele>425.0</ele><time>2026-03-28T17:39:45Z</time></trkpt><trkpt lat="36.959206784943326" lon="15.134975872760833"><ele>424.2</ele><time>2026-03-28T17:39:46Z</time></trkpt><trkpt lat="36.95921573524298" lon="15.135124465272593"><ele>423.4</ele><time>2026-03-28T17:39:47Z</time></trkpt><trkpt lat="36.95921561187976" lon="15.135261428752464"><ele>422.6</ele><time>2026-03-28T17:39:48Z</time></trkpt><trkpt lat="36.95920984214226" lon="15.135379766612129"><ele>421.8</ele><time>2026-03-28T17:39:49Z</time></trkpt><trkpt lat="36.959196369959486" lon="15.13550121183823"><ele>421.0</ele><time>2026-03-28T17:39:50Z</time></trkpt><trkpt lat="36.95915186406256" lon="15.135630040606134"><ele>419.0</ele><time>2026-03-28T17:39:51Z</time></trkpt><trkpt lat="36.959087678590116" lon="15.135770575510495"><ele>417.0</ele><time>2026-03-28T17:39:52Z</time></trkpt><trkpt lat="36.95902176079988" lon="15.135923902003261"><ele>415.0</ele><time>2026-03-28T17:39:53Z</time></trkpt><trkpt lat="36.9589516700782" lon="15.136098134868911"><ele>413.0</ele><time>2026-03-28T17:39:54Z</time></trkpt><trkpt lat="36.95887665562259" lon="15.136291198819091"><ele>413.0</ele><time>2026-03-28T17:39:55Z</time></trkpt><trkpt lat="36.958813341992894" lon="15.136492331705352"><ele>413.0</ele><time>2026-03-28T17:39:56Z</time></trkpt><trkpt lat="36.9587438388598" lon="15.136664168136413"><ele>413.0</ele><time>2026-03-28T17:39:57Z</time></trkpt><trkpt lat="36.95867964015525" lon="15.136825306448282"><ele>411.25</ele><time>2026-03-28T17:39:58Z</time></trkpt><trkpt lat="36.95861994425683" lon="15.136979395195056"><ele>409.5</ele><time>2026-03-28T17:39:59Z</time></trkpt><trkpt lat="36.95855895592014" lon="15.137132779267176"><ele>407.75</ele><time>2026-03-28T17:40:00Z</time></trkpt><trkpt lat="36.958497708419706" lon="15.137284867263853"><ele>406.0</ele><time>2026-03-28T17:40:01Z</time></trkpt><trkpt lat="36.95843358048619" lon="15.137444898826269"><ele>404.75</ele><time>2026-03-28T17:40:02Z</time></trkpt><trkpt lat="36.958365046955294" lon="15.137612758609944"><ele>403.5</ele><time>2026-03-28T17:40:03Z</time></trkpt><trkpt lat="36.958305570240654" lon="15.13776856849267"><ele>402.25</ele><time>2026-03-28T17:40:04Z</time></trkpt><trkpt lat="36.958247385762895" lon="15.137921369628646"><ele>401.0</ele><time>2026-03-28T17:40:05Z</time></trkpt><trkpt lat="36.95818528347686" lon="15.138056698641494"><ele>401.0</ele><time>2026-03-28T17:40:06Z</time></trkpt><trkpt lat="36.95812878859053" lon="15.138193231734087"><ele>401.0</ele><time>2026-03-28T17:40:07Z</time></trkpt><trkpt lat="36.95808578071264" lon="15.138315995968592"><ele>401.0</ele><time>2026-03-28T17:40:08Z</time></trkpt><trkpt lat="36.95802060365487" lon="15.138459900320644"><ele>401.0</ele><time>2026-03-28T17:40:09Z</time></trkpt><trkpt lat="36.95797041254186" lon="15.138591652752716"><ele>400.16666666666663</ele><time>2026-03-28T17:40:10Z</time></trkpt><trkpt lat="36.95793362156993" lon="15.138698304823185"><ele>399.3333333333333</ele><time>2026-03-28T17:40:11Z</time></trkpt><trkpt lat="36.95788441858359" lon="15.138787486339334"><ele>398.5</ele><time>2026-03-28T17:40:12Z</time></trkpt><trkpt lat="36.95784365290098" lon="15.138888755541975"><ele>397.66666666666663</ele><time>2026-03-28T17:40:13Z</time></trkpt><trkpt lat="36.95780858130555" lon="15.138979015713904"><ele>396.8333333333333</ele><time>2026-03-28T17:40:14Z</time></trkpt><trkpt lat="36.95777521572598" lon="15.13906658617668"><ele>396.0</ele><time>2026-03-28T17:40:15Z</time></trkpt><trkpt lat="36.95774961654042" lon="15.139178766847971"><ele>395.3333333333333</ele><time>2026-03-28T17:40:16Z</time></trkpt><trkpt lat="36.95770714092973" lon="15.139284411100292"><ele>394.66666666666663</ele><time>2026-03-28T17:40:17Z</time></trkpt><trkpt lat="36.95766791289714" lon="15.139391831210116"><ele>394.0</ele><time>2026-03-28T17:40:18Z</time></trkpt><trkpt lat="36.95762719587494" lon="15.13948670042725"><ele>393.3333333333333</ele><time>2026-03-28T17:40:19Z</time></trkpt><trkpt lat="36.957594986864486" lon="15.139576657825419"><ele>392.66666666666663</ele><time>2026-03-28T17:40:20Z</time></trkpt><trkpt lat="36.957563420817664" lon="15.139663269609917"><ele>392.0</ele><time>2026-03-28T17:40:21Z</time></trkpt><trkpt lat="36.95751655819596" lon="15.139753114577536"><ele>391.40000000000003</ele><time>2026-03-28T17:40:22Z</time></trkpt><trkpt lat="36.95747729442764" lon="15.139849095474618"><ele>390.8</ele><time>2026-03-28T17:40:23Z</time></trkpt><trkpt lat="36.957429660172785" lon="15.139974637838874"><ele>390.2</ele><time>2026-03-28T17:40:24Z</time></trkpt><trkpt lat="36.95735564930942" lon="15.140104176216296"><ele>389.6</ele><time>2026-03-28T17:40:25Z</time></trkpt><trkpt lat="36.95728909316999" lon="15.14023255893196"><ele>389.0</ele><time>2026-03-28T17:40:26Z</time></trkpt><trkpt lat="36.95722198435333" lon="15.140367397196275"><ele>389.0</ele><time>2026-03-28T17:40:27Z</time></trkpt><trkpt lat="36.95715852048258" lon="15.140509592409224"><ele>389.0</ele><time>2026-03-28T17:40:28Z</time></trkpt><trkpt lat="36.95710224792809" lon="15.140651447261416"><ele>389.0</ele><time>2026-03-28T17:40:29Z</time></trkpt><trkpt lat="36.95704622064171" lon="15.14078872180607"><ele>389.0</ele><time>2026-03-28T17:40:30Z</time></trkpt><trkpt lat="36.956984771054785" lon="15.140943754703821"><ele>390.25</ele><time>2026-03-28T17:40:31Z</time></trkpt><trkpt lat="36.9569182557226" lon="15.141104842746095"><ele>391.5</ele><time>2026-03-28T17:40:32Z</time></trkpt><trkpt lat="36.95685372221664" lon="15.14126656946595"><ele>392.75</ele><time>2026-03-28T17:40:33Z</time></trkpt><trkpt lat="36.9567889487868" lon="15.141424413819767"><ele>394.0</ele><time>2026-03-28T17:40:34Z</time></trkpt><trkpt lat="36.956738737346576" lon="15.141551513745412"><ele>395.5</ele><time>2026-03-28T17:40:35Z</time></trkpt><trkpt lat="36.95667989615595" lon="15.141690635274575"><ele>397.0</ele><time>2026-03-28T17:40:36Z</time></trkpt><trkpt lat="36.95661870371659" lon="15.141834660200775"><ele>398.5</ele><time>2026-03-28T17:40:37Z</time></trkpt><trkpt lat="36.95656452449439" lon="15.141972349384128"><ele>400.0</ele><time>2026-03-28T17:40:38Z</time></trkpt><trkpt lat="36.95650609664489" lon="15.142087655158733"><ele>400.0</ele><time>2026-03-28T17:40:39Z</time></trkpt><trkpt lat="36.95645746603987" lon="15.142185308996464"><ele>400.0</ele><time>2026-03-28T17:40:40Z</time></trkpt><trkpt lat="36.95640414781356" lon="15.142259166123427"><ele>400.0</ele><time>2026-03-28T17:40:41Z</time></trkpt><trkpt lat="36.956315932965595" lon="15.14231622139008"><ele>400.0</ele><time>2026-03-28T17:40:42Z</time></trkpt><trkpt lat="36.956200807923906" lon="15.142345475009385"><ele>400.0</ele><time>2026-03-28T17:40:43Z</time></trkpt><trkpt lat="36.95608933609808" lon="15.14240573933966"><ele>399.5</ele><time>2026-03-28T17:40:44Z</time></trkpt><trkpt lat="36.95599174992101" lon="15.14249570360105"><ele>399.0</ele><time>2026-03-28T17:40:45Z</time></trkpt><trkpt lat="36.95589802421857" lon="15.142572487510918"><ele>398.5</ele><time>2026-03-28T17:40:46Z</time></trkpt><trkpt lat="36.955811996861726" lon="15.142685237523136"><ele>398.0</ele><time>2026-03-28T17:40:46.999Z</time></trkpt><trkpt lat="36.955722902712296" lon="15.142834716162035"><ele>396.0</ele><time>2026-03-28T17:40:47.999Z</time></trkpt><trkpt lat="36.95565376696424" lon="15.142977682336936"><ele>394.0</ele><time>2026-03-28T17:40:48.999Z</time></trkpt><trkpt lat="36.95559946826374" lon="15.143100336880185"><ele>392.0</ele><time>2026-03-28T17:40:49.999Z</time></trkpt><trkpt lat="36.95555114204767" lon="15.143228158062776"><ele>390.0</ele><time>2026-03-28T17:40:50.999Z</time></trkpt><trkpt lat="36.95552486044001" lon="15.143347922662208"><ele>389.4</ele><time>2026-03-28T17:40:51.999Z</time></trkpt><trkpt lat="36.95548789647194" lon="15.143459468070853"><ele>388.8</ele><time>2026-03-28T17:40:52.999Z</time></trkpt><trkpt lat="36.955465849673516" lon="15.14357158758395"><ele>388.20000000000005</ele><time>2026-03-28T17:40:53.999Z</time></trkpt><trkpt lat="36.95546971372394" lon="15.143682836406063"><ele>387.6</ele><time>2026-03-28T17:40:54.999Z</time></trkpt><trkpt lat="36.955501293017456" lon="15.143798622638108"><ele>387.0</ele><time>2026-03-28T17:40:55.999Z</time></trkpt><trkpt lat="36.95554732455273" lon="15.143909962626713"><ele>387.0</ele><time>2026-03-28T17:40:56.999Z</time></trkpt><trkpt lat="36.955582919135146" lon="15.14400899685318"><ele>387.0</ele><time>2026-03-28T17:40:57.999Z</time></trkpt><trkpt lat="36.95558717623274" lon="15.144117195426928"><ele>387.0</ele><time>2026-03-28T17:40:58.999Z</time></trkpt><trkpt lat="36.955559427104916" lon="15.144233523373186"><ele>387.0</ele><time>2026-03-28T17:40:59.999Z</time></trkpt><trkpt lat="36.955507502494434" lon="15.14435322248108"><ele>387.0</ele><time>2026-03-28T17:41:00.999Z</time></trkpt><trkpt lat="36.95544121229621" lon="15.144488528134108"><ele>385.5</ele><time>2026-03-28T17:41:01.999Z</time></trkpt><trkpt lat="36.95537125030358" lon="15.144619721542012"><ele>384.0</ele><time>2026-03-28T17:41:02.999Z</time></trkpt><trkpt lat="36.95529746208561" lon="15.14475031787231"><ele>382.5</ele><time>2026-03-28T17:41:03.999Z</time></trkpt><trkpt lat="36.955214810020095" lon="15.144883237867907"><ele>381.0</ele><time>2026-03-28T17:41:04.999Z</time></trkpt><trkpt lat="36.955120622026406" lon="15.144991723958915"><ele>380.0</ele><time>2026-03-28T17:41:05.999Z</time></trkpt><trkpt lat="36.9550175505688" lon="15.145055546212634"><ele>379.0</ele><time>2026-03-28T17:41:06.999Z</time></trkpt><trkpt lat="36.95490447211615" lon="15.14511552717071"><ele>378.0</ele><time>2026-03-28T17:41:07.999Z</time></trkpt><trkpt lat="36.9547814874229" lon="15.145181894972094"><ele>377.0</ele><time>2026-03-28T17:41:08.999Z</time></trkpt><trkpt lat="36.95465929353346" lon="15.145269976086336"><ele>377.0</ele><time>2026-03-28T17:41:09.999Z</time></trkpt><trkpt lat="36.95452884308944" lon="15.145323294338686"><ele>377.0</ele><time>2026-03-28T17:41:10.999Z</time></trkpt><trkpt lat="36.95441192643529" lon="15.14538105352762"><ele>377.0</ele><time>2026-03-28T17:41:11.999Z</time></trkpt><trkpt lat="36.95430983181815" lon="15.145459707618718"><ele>377.0</ele><time>2026-03-28T17:41:12.999Z</time></trkpt><trkpt lat="36.95421923209506" lon="15.145503543307688"><ele>374.25</ele><time>2026-03-28T17:41:13.999Z</time></trkpt><trkpt lat="36.95414072585885" lon="15.14555743191224"><ele>371.5</ele><time>2026-03-28T17:41:14.999Z</time></trkpt><trkpt lat="36.954063651717334" lon="15.145646886431868"><ele>368.75</ele><time>2026-03-28T17:41:15.999Z</time></trkpt><trkpt lat="36.954009490115176" lon="15.145773820930188"><ele>366.0</ele><time>2026-03-28T17:41:16.999Z</time></trkpt><trkpt lat="36.95396806179671" lon="15.145941555953302"><ele>366.0</ele><time>2026-03-28T17:41:18Z</time></trkpt><trkpt lat="36.953933528466145" lon="15.146132237207505"><ele>366.0</ele><time>2026-03-28T17:41:19Z</time></trkpt><trkpt lat="36.95388937363806" lon="15.14631536643532"><ele>366.0</ele><time>2026-03-28T17:41:20Z</time></trkpt><trkpt lat="36.95383360261157" lon="15.146472077500094"><ele>366.0</ele><time>2026-03-28T17:41:21Z</time></trkpt><trkpt lat="36.953772636753236" lon="15.146619020924044"><ele>364.8</ele><time>2026-03-28T17:41:22Z</time></trkpt><trkpt lat="36.95369420386398" lon="15.146726159520624"><ele>363.6</ele><time>2026-03-28T17:41:23Z</time></trkpt><trkpt lat="36.95365717658337" lon="15.146842022138335"><ele>362.4</ele><time>2026-03-28T17:41:24Z</time></trkpt><trkpt lat="36.953615397995925" lon="15.146950877057332"><ele>361.2</ele><time>2026-03-28T17:41:25Z</time></trkpt><trkpt lat="36.953601523748" lon="15.147073638308662"><ele>360.0</ele><time>2026-03-28T17:41:26Z</time></trkpt><trkpt lat="36.953624541417824" lon="15.14719772996171"><ele>360.0</ele><time>2026-03-28T17:41:27Z</time></trkpt><trkpt lat="36.953667716462185" lon="15.147341586533507"><ele>360.0</ele><time>2026-03-28T17:41:28Z</time></trkpt><trkpt lat="36.95371101204613" lon="15.147496529082972"><ele>360.0</ele><time>2026-03-28T17:41:29Z</time></trkpt><trkpt lat="36.95373675506287" lon="15.14763468386036"><ele>360.0</ele><time>2026-03-28T17:41:30Z</time></trkpt><trkpt lat="36.95374344286601" lon="15.147764310728151"><ele>359.8</ele><time>2026-03-28T17:41:31Z</time></trkpt><trkpt lat="36.95372541277566" lon="15.14789438008039"><ele>359.6</ele><time>2026-03-28T17:41:32Z</time></trkpt><trkpt lat="36.95364707393855" lon="15.148003335086534"><ele>359.4</ele><time>2026-03-28T17:41:33Z</time></trkpt><trkpt lat="36.953570206870936" lon="15.148086914849914"><ele>359.2</ele><time>2026-03-28T17:41:34Z</time></trkpt><trkpt lat="36.9535111726663" lon="15.148180707506755"><ele>359.0</ele><time>2026-03-28T17:41:35Z</time></trkpt><trkpt lat="36.953440889870144" lon="15.148240301909958"><ele>359.42857142857144</ele><time>2026-03-28T17:41:36Z</time></trkpt><trkpt lat="36.9533934721497" lon="15.148306017882916"><ele>359.8571428571429</ele><time>2026-03-28T17:41:37Z</time></trkpt><trkpt lat="36.953354091995294" lon="15.148377339922492"><ele>360.2857142857143</ele><time>2026-03-28T17:41:38Z</time></trkpt><trkpt lat="36.953349723674265" lon="15.14845733478534"><ele>360.7142857142857</ele><time>2026-03-28T17:41:39Z</time></trkpt><trkpt lat="36.95340378789857" lon="15.148545278745202"><ele>361.1428571428571</ele><time>2026-03-28T17:41:40Z</time></trkpt><trkpt lat="36.95345621621352" lon="15.148621494085926"><ele>361.57142857142856</ele><time>2026-03-28T17:41:41Z</time></trkpt><trkpt lat="36.9534990811805" lon="15.14868600873722"><ele>362.0</ele><time>2026-03-28T17:41:42Z</time></trkpt><trkpt lat="36.95347662901269" lon="15.148816975409284"><ele>362.0</ele><time>2026-03-28T17:41:44Z</time></trkpt><trkpt lat="36.95341256538585" lon="15.148845972192811"><ele>362.0</ele><time>2026-03-28T17:41:45Z</time></trkpt><trkpt lat="36.95332764143341" lon="15.148783317977603"><ele>362.0</ele><time>2026-03-28T17:41:46Z</time></trkpt><trkpt lat="36.95322237984722" lon="15.14872539457982"><ele>362.0</ele><time>2026-03-28T17:41:47Z</time></trkpt><trkpt lat="36.953119795331226" lon="15.148674204674126"><ele>362.0</ele><time>2026-03-28T17:41:48Z</time></trkpt><trkpt lat="36.953034801274086" lon="15.148638147790916"><ele>358.83333333333337</ele><time>2026-03-28T17:41:49Z</time></trkpt><trkpt lat="36.95295558220705" lon="15.14860703396371"><ele>355.6666666666667</ele><time>2026-03-28T17:41:50Z</time></trkpt><trkpt lat="36.95288132744535" lon="15.148578598514565"><ele>352.5</ele><time>2026-03-28T17:41:51Z</time></trkpt><trkpt lat="36.95281670988186" lon="15.148553853569434"><ele>349.3333333333333</ele><time>2026-03-28T17:41:52Z</time></trkpt><trkpt lat="36.95271387392815" lon="15.148514473282493"><ele>346.16666666666663</ele><time>2026-03-28T17:41:54Z</time></trkpt><trkpt lat="36.95263860030083" lon="15.148563078758926"><ele>343.0</ele><time>2026-03-28T17:41:56Z</time></trkpt><trkpt lat="36.952614611792406" lon="15.148647008187824"><ele>343.0</ele><time>2026-03-28T17:41:59Z</time></trkpt><trkpt lat="36.95273495418756" lon="15.148776274981662"><ele>343.0</ele><time>2026-03-28T17:42:14Z</time></trkpt><trkpt lat="36.95282443916299" lon="15.148822949364032"><ele>343.0</ele><time>2026-03-28T17:42:15Z</time></trkpt><trkpt lat="36.95289438100259" lon="15.14887608778521"><ele>343.0</ele><time>2026-03-28T17:42:16Z</time></trkpt><trkpt lat="36.95295489948463" lon="15.148929842307524"><ele>343.0</ele><time>2026-03-28T17:42:17Z</time></trkpt><trkpt lat="36.95300742999194" lon="15.148986620115526"><ele>343.0</ele><time>2026-03-28T17:42:18Z</time></trkpt><trkpt lat="36.95305922327532" lon="15.149041349180816"><ele>343.0</ele><time>2026-03-28T17:42:19Z</time></trkpt><trkpt lat="36.95314101405344" lon="15.149143936536209"><ele>343.0</ele><time>2026-03-28T17:42:21Z</time></trkpt><trkpt lat="36.953174992633215" lon="15.149271738445227"><ele>343.0</ele><time>2026-03-28T17:42:23Z</time></trkpt><trkpt lat="36.95309495534377" lon="15.149347493894501"><ele>343.0</ele><time>2026-03-28T17:42:25Z</time></trkpt><trkpt lat="36.95300727693548" lon="15.149346474279364"><ele>341.25</ele><time>2026-03-28T17:42:26Z</time></trkpt><trkpt lat="36.95289180006214" lon="15.149309527818204"><ele>339.5</ele><time>2026-03-28T17:42:27Z</time></trkpt><trkpt lat="36.95276721137818" lon="15.149273737710088"><ele>337.75</ele><time>2026-03-28T17:42:28Z</time></trkpt><trkpt lat="36.952658589245836" lon="15.149255809093228"><ele>336.0</ele><time>2026-03-28T17:42:29Z</time></trkpt><trkpt lat="36.95255624312756" lon="15.149248280499808"><ele>332.8</ele><time>2026-03-28T17:42:30Z</time></trkpt><trkpt lat="36.95245996483998" lon="15.149252522345027"><ele>329.6</ele><time>2026-03-28T17:42:31Z</time></trkpt><trkpt lat="36.952366086767434" lon="15.149254138842116"><ele>326.4</ele><time>2026-03-28T17:42:32Z</time></trkpt><trkpt lat="36.95227896265228" lon="15.149245083925214"><ele>323.2</ele><time>2026-03-28T17:42:33Z</time></trkpt><trkpt lat="36.95218370308324" lon="15.149229101694416"><ele>320.0</ele><time>2026-03-28T17:42:34Z</time></trkpt><trkpt lat="36.952095230011935" lon="15.149208195325008"><ele>320.0</ele><time>2026-03-28T17:42:35Z</time></trkpt><trkpt lat="36.9520031975703" lon="15.14917793652155"><ele>320.0</ele><time>2026-03-28T17:42:36Z</time></trkpt><trkpt lat="36.951908664550025" lon="15.149152669015"><ele>320.0</ele><time>2026-03-28T17:42:37Z</time></trkpt><trkpt lat="36.951815626462555" lon="15.149136227812651"><ele>320.0</ele><time>2026-03-28T17:42:38Z</time></trkpt><trkpt lat="36.951729567979015" lon="15.14913592582268"><ele>320.0</ele><time>2026-03-28T17:42:39Z</time></trkpt><trkpt lat="36.951644319282046" lon="15.149127266712796"><ele>314.6</ele><time>2026-03-28T17:42:40Z</time></trkpt><trkpt lat="36.951569361272384" lon="15.149206371976781"><ele>309.2</ele><time>2026-03-28T17:42:41Z</time></trkpt><trkpt lat="36.95150755889231" lon="15.14927912558989"><ele>303.8</ele><time>2026-03-28T17:42:42Z</time></trkpt><trkpt lat="36.951458784524114" lon="15.149382480279973"><ele>298.4</ele><time>2026-03-28T17:42:43Z</time></trkpt><trkpt lat="36.95142373567655" lon="15.149513733860807"><ele>293.0</ele><time>2026-03-28T17:42:44Z</time></trkpt><trkpt lat="36.95140570571328" lon="15.14964600191642"><ele>293.0</ele><time>2026-03-28T17:42:45Z</time></trkpt><trkpt lat="36.951413288362716" lon="15.149753505389953"><ele>293.0</ele><time>2026-03-28T17:42:46Z</time></trkpt><trkpt lat="36.95144566634558" lon="15.14985147582052"><ele>293.0</ele><time>2026-03-28T17:42:47Z</time></trkpt><trkpt lat="36.95149848871705" lon="15.14995025118482"><ele>293.0</ele><time>2026-03-28T17:42:48Z</time></trkpt><trkpt lat="36.951586274374364" lon="15.15004798658417"><ele>293.0</ele><time>2026-03-28T17:42:49Z</time></trkpt><trkpt lat="36.951705455321004" lon="15.150151891729598"><ele>294.75</ele><time>2026-03-28T17:42:49.999Z</time></trkpt><trkpt lat="36.95182526845764" lon="15.150255513303861"><ele>296.5</ele><time>2026-03-28T17:42:50.999Z</time></trkpt><trkpt lat="36.95193316986486" lon="15.150365418763808"><ele>298.25</ele><time>2026-03-28T17:42:51.999Z</time></trkpt><trkpt lat="36.952039150167806" lon="15.150470319058956"><ele>300.0</ele><time>2026-03-28T17:42:52.999Z</time></trkpt><trkpt lat="36.9521257553059" lon="15.150556887890495"><ele>300.0</ele><time>2026-03-28T17:42:53.999Z</time></trkpt><trkpt lat="36.952197552633685" lon="15.150613274133473"><ele>300.0</ele><time>2026-03-28T17:42:54.999Z</time></trkpt><trkpt lat="36.95226545053035" lon="15.150705555833941"><ele>300.0</ele><time>2026-03-28T17:42:56.999Z</time></trkpt><trkpt lat="36.95223162502813" lon="15.15081778560012"><ele>300.0</ele><time>2026-03-28T17:42:58.999Z</time></trkpt><trkpt lat="36.9521247940939" lon="15.150793612675775"><ele>300.0</ele><time>2026-03-28T17:42:59.999Z</time></trkpt><trkpt lat="36.95201937313294" lon="15.150800934608085"><ele>296.5</ele><time>2026-03-28T17:43:00.999Z</time></trkpt><trkpt lat="36.95191513425868" lon="15.150816360953295"><ele>293.0</ele><time>2026-03-28T17:43:01.999Z</time></trkpt><trkpt lat="36.95182980317015" lon="15.150838699113908"><ele>289.5</ele><time>2026-03-28T17:43:02.999Z</time></trkpt><trkpt lat="36.95175274006523" lon="15.150890872843934"><ele>286.0</ele><time>2026-03-28T17:43:04.999Z</time></trkpt><trkpt lat="36.951752377717625" lon="15.150983452129092"><ele>282.5</ele><time>2026-03-28T17:43:06.999Z</time></trkpt><trkpt lat="36.951818232411135" lon="15.151052195677483"><ele>279.0</ele><time>2026-03-28T17:43:07.999Z</time></trkpt><trkpt lat="36.95191662047618" lon="15.151078371049488"><ele>279.0</ele><time>2026-03-28T17:43:08.999Z</time></trkpt><trkpt lat="36.951993713356465" lon="15.151128517592289"><ele>279.0</ele><time>2026-03-28T17:43:09.999Z</time></trkpt><trkpt lat="36.952059157211714" lon="15.151206508225492"><ele>279.0</ele><time>2026-03-28T17:43:10.999Z</time></trkpt><trkpt lat="36.9521174195479" lon="15.151312760933305"><ele>279.0</ele><time>2026-03-28T17:43:11.999Z</time></trkpt><trkpt lat="36.95217147467625" lon="15.1514591082236"><ele>279.0</ele><time>2026-03-28T17:43:12.999Z</time></trkpt><trkpt lat="36.952205298318574" lon="15.151615557940232"><ele>273.75</ele><time>2026-03-28T17:43:13.999Z</time></trkpt><trkpt lat="36.952239850886635" lon="15.151763952237902"><ele>268.5</ele><time>2026-03-28T17:43:14.999Z</time></trkpt><trkpt lat="36.95229221913252" lon="15.151902568871094"><ele>263.25</ele><time>2026-03-28T17:43:15.999Z</time></trkpt><trkpt lat="36.95235281892241" lon="15.152021538679923"><ele>258.0</ele><time>2026-03-28T17:43:16.999Z</time></trkpt><trkpt lat="36.95242039045149" lon="15.152124407933107"><ele>258.0</ele><time>2026-03-28T17:43:17.999Z</time></trkpt><trkpt lat="36.95245870251724" lon="15.152219152011304"><ele>258.0</ele><time>2026-03-28T17:43:18.999Z</time></trkpt><trkpt lat="36.95244391840988" lon="15.152301053486804"><ele>258.0</ele><time>2026-03-28T17:43:19.999Z</time></trkpt><trkpt lat="36.95244666680206" lon="15.152402202953805"><ele>258.0</ele><time>2026-03-28T17:43:20.999Z</time></trkpt><trkpt lat="36.95246118908822" lon="15.152518422064658"><ele>258.0</ele><time>2026-03-28T17:43:21.999Z</time></trkpt><trkpt lat="36.95250170205171" lon="15.1526437649224"><ele>258.0</ele><time>2026-03-28T17:43:22.999Z</time></trkpt><trkpt lat="36.95256848272034" lon="15.152757229209982"><ele>258.25</ele><time>2026-03-28T17:43:24Z</time></trkpt><trkpt lat="36.95265303030453" lon="15.152873020773145"><ele>258.5</ele><time>2026-03-28T17:43:25Z</time></trkpt><trkpt lat="36.952741400715006" lon="15.152986316423442"><ele>258.75</ele><time>2026-03-28T17:43:26Z</time></trkpt><trkpt lat="36.95281340352311" lon="15.153090388407309"><ele>259.0</ele><time>2026-03-28T17:43:27Z</time></trkpt><trkpt lat="36.952879510113675" lon="15.153187015770003"><ele>256.8333333333333</ele><time>2026-03-28T17:43:28Z</time></trkpt><trkpt lat="36.95293646172522" lon="15.153267778372825"><ele>254.66666666666666</ele><time>2026-03-28T17:43:29Z</time></trkpt><trkpt lat="36.952981116957815" lon="15.153324255856058"><ele>252.5</ele><time>2026-03-28T17:43:30Z</time></trkpt><trkpt lat="36.953014322756545" lon="15.153432320753527"><ele>250.33333333333331</ele><time>2026-03-28T17:43:32Z</time></trkpt><trkpt lat="36.95295366216878" lon="15.153493628526357"><ele>248.16666666666666</ele><time>2026-03-28T17:43:34Z</time></trkpt><trkpt lat="36.95285812121249" lon="15.153431118060245"><ele>246.0</ele><time>2026-03-28T17:43:36Z</time></trkpt><trkpt lat="36.95278430199911" lon="15.153355359890341"><ele>246.0</ele><time>2026-03-28T17:43:37Z</time></trkpt><trkpt lat="36.95269550330714" lon="15.153288386644016"><ele>246.0</ele><time>2026-03-28T17:43:38Z</time></trkpt><trkpt lat="36.952594476939254" lon="15.153220590174058"><ele>246.0</ele><time>2026-03-28T17:43:39Z</time></trkpt><trkpt lat="36.95249048800562" lon="15.153150346497371"><ele>246.0</ele><time>2026-03-28T17:43:40Z</time></trkpt><trkpt lat="36.952387579178534" lon="15.153070420690554"><ele>246.25</ele><time>2026-03-28T17:43:41Z</time></trkpt><trkpt lat="36.95229668893053" lon="15.152967447545977"><ele>246.5</ele><time>2026-03-28T17:43:42Z</time></trkpt><trkpt lat="36.952201735636486" lon="15.152866159634451"><ele>246.75</ele><time>2026-03-28T17:43:43Z</time></trkpt><trkpt lat="36.95210397512468" lon="15.152776907642382"><ele>247.0</ele><time>2026-03-28T17:43:44Z</time></trkpt><trkpt lat="36.95199606587466" lon="15.152694912634457"><ele>247.0</ele><time>2026-03-28T17:43:45Z</time></trkpt><trkpt lat="36.95187781139149" lon="15.152662134150338"><ele>247.0</ele><time>2026-03-28T17:43:46Z</time></trkpt><trkpt lat="36.951785070634216" lon="15.15261870623523"><ele>247.0</ele><time>2026-03-28T17:43:47Z</time></trkpt><trkpt lat="36.95173088242046" lon="15.152548642745396"><ele>247.0</ele><time>2026-03-28T17:43:48Z</time></trkpt><trkpt lat="36.9516912251511" lon="15.152459556475504"><ele>247.0</ele><time>2026-03-28T17:43:49Z</time></trkpt><trkpt lat="36.951640649724055" lon="15.152325927885116"><ele>244.75</ele><time>2026-03-28T17:43:50Z</time></trkpt><trkpt lat="36.95157862214726" lon="15.152175844065285"><ele>242.5</ele><time>2026-03-28T17:43:51Z</time></trkpt><trkpt lat="36.9515087231245" lon="15.152064313232579"><ele>240.25</ele><time>2026-03-28T17:43:52Z</time></trkpt><trkpt lat="36.95145317922526" lon="15.151936895426653"><ele>238.0</ele><time>2026-03-28T17:43:53Z</time></trkpt><trkpt lat="36.95135153476319" lon="15.151852549415043"><ele>238.0</ele><time>2026-03-28T17:43:54Z</time></trkpt><trkpt lat="36.951254797887664" lon="15.151778267261648"><ele>238.0</ele><time>2026-03-28T17:43:55Z</time></trkpt><trkpt lat="36.95112514885805" lon="15.151710995708392"><ele>238.0</ele><time>2026-03-28T17:43:56Z</time></trkpt><trkpt lat="36.95098627793933" lon="15.151629945717756"><ele>238.0</ele><time>2026-03-28T17:43:57Z</time></trkpt><trkpt lat="36.9508179926512" lon="15.15159236367374"><ele>240.0</ele><time>2026-03-28T17:43:58Z</time></trkpt><trkpt lat="36.9506532460199" lon="15.151557711686248"><ele>242.0</ele><time>2026-03-28T17:43:59Z</time></trkpt><trkpt lat="36.950486022978545" lon="15.15153427499992"><ele>244.0</ele><time>2026-03-28T17:44:00Z</time></trkpt><trkpt lat="36.950322031904385" lon="15.151493340119469"><ele>244.0</ele><time>2026-03-28T17:44:01Z</time></trkpt><trkpt lat="36.950160898240355" lon="15.151442984887936"><ele>244.0</ele><time>2026-03-28T17:44:02Z</time></trkpt><trkpt lat="36.95000127318807" lon="15.151392856962442"><ele>244.0</ele><time>2026-03-28T17:44:03Z</time></trkpt><trkpt lat="36.94984665895336" lon="15.151345176257475"><ele>235.75</ele><time>2026-03-28T17:44:04Z</time></trkpt><trkpt lat="36.94970452955785" lon="15.15129859285213"><ele>227.5</ele><time>2026-03-28T17:44:05Z</time></trkpt><trkpt lat="36.94956514756035" lon="15.151257647388595"><ele>219.25</ele><time>2026-03-28T17:44:06Z</time></trkpt><trkpt lat="36.949426831738165" lon="15.151233356154323"><ele>211.0</ele><time>2026-03-28T17:44:07Z</time></trkpt><trkpt lat="36.9492795488073" lon="15.151221577668297"><ele>205.33333333333331</ele><time>2026-03-28T17:44:08Z</time></trkpt><trkpt lat="36.94911392338557" lon="15.151229084723662"><ele>199.66666666666669</ele><time>2026-03-28T17:44:09Z</time></trkpt><trkpt lat="36.94895036047109" lon="15.151253222237797"><ele>194.0</ele><time>2026-03-28T17:44:10Z</time></trkpt><trkpt lat="36.948789443924696" lon="15.151269926525503"><ele>194.0</ele><time>2026-03-28T17:44:11Z</time></trkpt><trkpt lat="36.94863040511909" lon="15.151276155493461"><ele>194.0</ele><time>2026-03-28T17:44:12Z</time></trkpt><trkpt lat="36.94847219084764" lon="15.151278182791499"><ele>194.0</ele><time>2026-03-28T17:44:13Z</time></trkpt><trkpt lat="36.948321284670385" lon="15.151279188003702"><ele>186.33333333333334</ele><time>2026-03-28T17:44:14Z</time></trkpt><trkpt lat="36.948165921991354" lon="15.151287914496999"><ele>178.66666666666669</ele><time>2026-03-28T17:44:15Z</time></trkpt><trkpt lat="36.94801131009265" lon="15.151303391974166"><ele>171.0</ele><time>2026-03-28T17:44:16Z</time></trkpt><trkpt lat="36.94786903170417" lon="15.151313311958377"><ele>171.0</ele><time>2026-03-28T17:44:17Z</time></trkpt><trkpt lat="36.94773992691132" lon="15.151318877245753"><ele>171.0</ele><time>2026-03-28T17:44:18Z</time></trkpt><trkpt lat="36.94762208501647" lon="15.151324964266172"><ele>171.0</ele><time>2026-03-28T17:44:19Z</time></trkpt><trkpt lat="36.94752696142725" lon="15.151312775935342"><ele>171.0</ele><time>2026-03-28T17:44:20Z</time></trkpt><trkpt lat="36.9474286005503" lon="15.151335016458402"><ele>171.0</ele><time>2026-03-28T17:44:21Z</time></trkpt><trkpt lat="36.94735667260992" lon="15.151319922864232"><ele>168.20000000000002</ele><time>2026-03-28T17:44:22Z</time></trkpt><trkpt lat="36.94726907628336" lon="15.151369841918775"><ele>165.4</ele><time>2026-03-28T17:44:24Z</time></trkpt><trkpt lat="36.94730962508317" lon="15.151484304384644"><ele>162.6</ele><time>2026-03-28T17:44:26Z</time></trkpt><trkpt lat="36.94739950175858" lon="15.15152711597934"><ele>159.8</ele><time>2026-03-28T17:44:27Z</time></trkpt><trkpt lat="36.94750490759472" lon="15.151556962087547"><ele>157.0</ele><time>2026-03-28T17:44:28Z</time></trkpt><trkpt lat="36.94760742509705" lon="15.15158874520475"><ele>157.0</ele><time>2026-03-28T17:44:29Z</time></trkpt><trkpt lat="36.94769596969588" lon="15.151622644658003"><ele>157.0</ele><time>2026-03-28T17:44:30Z</time></trkpt><trkpt lat="36.947776040704134" lon="15.151656700934954"><ele>157.0</ele><time>2026-03-28T17:44:31Z</time></trkpt><trkpt lat="36.94787048220748" lon="15.151690903128243"><ele>157.0</ele><time>2026-03-28T17:44:33Z</time></trkpt><trkpt lat="36.94784541475832" lon="15.151790316773177"><ele>157.0</ele><time>2026-03-28T17:44:35Z</time></trkpt><trkpt lat="36.947747865506" lon="15.151797287554869"><ele>157.0</ele><time>2026-03-28T17:44:36Z</time></trkpt><trkpt lat="36.94762740901451" lon="15.151836079461674"><ele>157.0</ele><time>2026-03-28T17:44:37Z</time></trkpt><trkpt lat="36.94749678366565" lon="15.151867200190768"><ele>157.0</ele><time>2026-03-28T17:44:38Z</time></trkpt><trkpt lat="36.94737451338498" lon="15.151909239981546"><ele>157.0</ele><time>2026-03-28T17:44:39Z</time></trkpt><trkpt lat="36.94725939844883" lon="15.151937375342627"><ele>154.0</ele><time>2026-03-28T17:44:40Z</time></trkpt><trkpt lat="36.94714789887312" lon="15.151937648573217"><ele>151.0</ele><time>2026-03-28T17:44:41Z</time></trkpt><trkpt lat="36.94703406241118" lon="15.151897151530967"><ele>148.0</ele><time>2026-03-28T17:44:42Z</time></trkpt><trkpt lat="36.94690613024394" lon="15.151831939194873"><ele>145.0</ele><time>2026-03-28T17:44:43Z</time></trkpt><trkpt lat="36.946762783987744" lon="15.151764799543184"><ele>142.5</ele><time>2026-03-28T17:44:44Z</time></trkpt><trkpt lat="36.946622371708315" lon="15.15170501267302"><ele>140.0</ele><time>2026-03-28T17:44:45Z</time></trkpt><trkpt lat="36.94650309017331" lon="15.151627573624062"><ele>137.5</ele><time>2026-03-28T17:44:46Z</time></trkpt><trkpt lat="36.946393825186746" lon="15.151573932382673"><ele>135.0</ele><time>2026-03-28T17:44:47Z</time></trkpt><trkpt lat="36.94629817865955" lon="15.151551906514971"><ele>135.0</ele><time>2026-03-28T17:44:48Z</time></trkpt><trkpt lat="36.946227079222524" lon="15.151511463232922"><ele>135.0</ele><time>2026-03-28T17:44:49Z</time></trkpt><trkpt lat="36.94616086466751" lon="15.15150109388782"><ele>135.0</ele><time>2026-03-28T17:44:50Z</time></trkpt><trkpt lat="36.94609314814762" lon="15.151529590424405"><ele>135.0</ele><time>2026-03-28T17:44:51Z</time></trkpt><trkpt lat="36.94600697360935" lon="15.151616513532431"><ele>135.0</ele><time>2026-03-28T17:44:52Z</time></trkpt><trkpt lat="36.94589695567306" lon="15.151733285224273"><ele>131.33333333333334</ele><time>2026-03-28T17:44:53Z</time></trkpt><trkpt lat="36.94578122556829" lon="15.151847096840523"><ele>127.66666666666667</ele><time>2026-03-28T17:44:54Z</time></trkpt><trkpt lat="36.94565279289044" lon="15.151971022030784"><ele>124.0</ele><time>2026-03-28T17:44:55Z</time></trkpt><trkpt lat="36.94553441930799" lon="15.152093691296768"><ele>124.0</ele><time>2026-03-28T17:44:56Z</time></trkpt><trkpt lat="36.94542351657061" lon="15.15221424001128"><ele>124.0</ele><time>2026-03-28T17:44:57Z</time></trkpt><trkpt lat="36.945309835509384" lon="15.152326616595646"><ele>124.0</ele><time>2026-03-28T17:44:57.999Z</time></trkpt><trkpt lat="36.9451983477115" lon="15.1524326589009"><ele>124.0</ele><time>2026-03-28T17:44:58.999Z</time></trkpt><trkpt lat="36.945091289984106" lon="15.152538124612274"><ele>120.33333333333334</ele><time>2026-03-28T17:44:59.999Z</time></trkpt><trkpt lat="36.94498258807431" lon="15.15264780722995"><ele>116.66666666666666</ele><time>2026-03-28T17:45:00.999Z</time></trkpt><trkpt lat="36.944864447611096" lon="15.15276821199574"><ele>113.0</ele><time>2026-03-28T17:45:01.999Z</time></trkpt><trkpt lat="36.94474048379325" lon="15.15289423760074"><ele>113.0</ele><time>2026-03-28T17:45:02.999Z</time></trkpt><trkpt lat="36.94461950605814" lon="15.153008659565673"><ele>113.0</ele><time>2026-03-28T17:45:03.999Z</time></trkpt><trkpt lat="36.944506712779756" lon="15.153123983141299"><ele>113.0</ele><time>2026-03-28T17:45:04.999Z</time></trkpt><trkpt lat="36.94439119504183" lon="15.153235439914587"><ele>113.0</ele><time>2026-03-28T17:45:05.999Z</time></trkpt><trkpt lat="36.944278295781324" lon="15.153340695671403"><ele>110.75</ele><time>2026-03-28T17:45:06.999Z</time></trkpt><trkpt lat="36.94416204664048" lon="15.15344052620395"><ele>108.5</ele><time>2026-03-28T17:45:07.999Z</time></trkpt><trkpt lat="36.94404518211462" lon="15.153523850522316"><ele>106.25</ele><time>2026-03-28T17:45:08.999Z</time></trkpt><trkpt lat="36.94393774953042" lon="15.15359403422501"><ele>104.0</ele><time>2026-03-28T17:45:09.999Z</time></trkpt><trkpt lat="36.94384499668479" lon="15.153672341209749"><ele>104.0</ele><time>2026-03-28T17:45:10.999Z</time></trkpt><trkpt lat="36.943772307125144" lon="15.15376713668321"><ele>104.0</ele><time>2026-03-28T17:45:11.999Z</time></trkpt><trkpt lat="36.943706232971834" lon="15.153886249258816"><ele>104.0</ele><time>2026-03-28T17:45:12.999Z</time></trkpt><trkpt lat="36.943658308043496" lon="15.154006977386388"><ele>104.0</ele><time>2026-03-28T17:45:13.999Z</time></trkpt><trkpt lat="36.943617947570395" lon="15.154141758282506"><ele>104.0</ele><time>2026-03-28T17:45:14.999Z</time></trkpt><trkpt lat="36.94358214404702" lon="15.154307106752109"><ele>103.25</ele><time>2026-03-28T17:45:15.999Z</time></trkpt><trkpt lat="36.943548314434516" lon="15.154467991049973"><ele>102.5</ele><time>2026-03-28T17:45:16.999Z</time></trkpt><trkpt lat="36.943512661976314" lon="15.154618801232488"><ele>101.75</ele><time>2026-03-28T17:45:17.999Z</time></trkpt><trkpt lat="36.9434790645371" lon="15.154746686241847"><ele>101.0</ele><time>2026-03-28T17:45:18.999Z</time></trkpt><trkpt lat="36.94344155718099" lon="15.154869052450504"><ele>98.0</ele><time>2026-03-28T17:45:19.999Z</time></trkpt><trkpt lat="36.943376073020744" lon="15.154994018587123"><ele>95.0</ele><time>2026-03-28T17:45:20.999Z</time></trkpt><trkpt lat="36.943273735383656" lon="15.155129899483569"><ele>92.0</ele><time>2026-03-28T17:45:21.999Z</time></trkpt><trkpt lat="36.94316021138951" lon="15.155267934043202"><ele>89.0</ele><time>2026-03-28T17:45:22.999Z</time></trkpt><trkpt lat="36.94305130203967" lon="15.15541271364819"><ele>89.0</ele><time>2026-03-28T17:45:23.999Z</time></trkpt><trkpt lat="36.942949084317185" lon="15.155544947217315"><ele>89.0</ele><time>2026-03-28T17:45:24.999Z</time></trkpt><trkpt lat="36.942848191861756" lon="15.15567142024487"><ele>89.0</ele><time>2026-03-28T17:45:25.999Z</time></trkpt><trkpt lat="36.942752012999804" lon="15.155793329394061"><ele>89.0</ele><time>2026-03-28T17:45:26.999Z</time></trkpt><trkpt lat="36.942660182901065" lon="15.155912696846022"><ele>88.0</ele><time>2026-03-28T17:45:27.999Z</time></trkpt><trkpt lat="36.94257108758502" lon="15.156025297497813"><ele>87.0</ele><time>2026-03-28T17:45:28.999Z</time></trkpt><trkpt lat="36.942487013857914" lon="15.156133142267624"><ele>86.0</ele><time>2026-03-28T17:45:30Z</time></trkpt><trkpt lat="36.94241032057071" lon="15.156249747450007"><ele>85.0</ele><time>2026-03-28T17:45:31Z</time></trkpt><trkpt lat="36.94233508324953" lon="15.156399540043608"><ele>82.0</ele><time>2026-03-28T17:45:32Z</time></trkpt><trkpt lat="36.942261033874345" lon="15.156571936487882"><ele>79.0</ele><time>2026-03-28T17:45:33Z</time></trkpt><trkpt lat="36.94217643350073" lon="15.156757804824505"><ele>76.0</ele><time>2026-03-28T17:45:34Z</time></trkpt><trkpt lat="36.94209015506147" lon="15.156957768978245"><ele>76.0</ele><time>2026-03-28T17:45:35Z</time></trkpt><trkpt lat="36.94200395995507" lon="15.157161759476253"><ele>76.0</ele><time>2026-03-28T17:45:36Z</time></trkpt><trkpt lat="36.94192296330167" lon="15.157352703349142"><ele>76.0</ele><time>2026-03-28T17:45:37Z</time></trkpt><trkpt lat="36.94184343032255" lon="15.15753602673418"><ele>75.0</ele><time>2026-03-28T17:45:38Z</time></trkpt><trkpt lat="36.94176929643626" lon="15.15771184402829"><ele>74.0</ele><time>2026-03-28T17:45:39Z</time></trkpt><trkpt lat="36.941697133052116" lon="15.157881875030327"><ele>73.0</ele><time>2026-03-28T17:45:40Z</time></trkpt><trkpt lat="36.94163165235903" lon="15.15804473257951"><ele>72.0</ele><time>2026-03-28T17:45:41Z</time></trkpt><trkpt lat="36.94156692681099" lon="15.15819937307753"><ele>71.0</ele><time>2026-03-28T17:45:42Z</time></trkpt><trkpt lat="36.94150192594267" lon="15.158347556578608"><ele>70.0</ele><time>2026-03-28T17:45:43Z</time></trkpt><trkpt lat="36.941438312033924" lon="15.15848859379746"><ele>69.0</ele><time>2026-03-28T17:45:44Z</time></trkpt><trkpt lat="36.94136497559951" lon="15.158624443153036"><ele>68.25</ele><time>2026-03-28T17:45:45Z</time></trkpt><trkpt lat="36.941273310866706" lon="15.158762412625668"><ele>67.5</ele><time>2026-03-28T17:45:46Z</time></trkpt><trkpt lat="36.941190842762175" lon="15.158918783779686"><ele>66.75</ele><time>2026-03-28T17:45:47Z</time></trkpt><trkpt lat="36.94110581315151" lon="15.159053761117372"><ele>66.0</ele><time>2026-03-28T17:45:48Z</time></trkpt><trkpt lat="36.94103286147168" lon="15.1591921896977"><ele>65.5</ele><time>2026-03-28T17:45:49Z</time></trkpt><trkpt lat="36.94096563201858" lon="15.159320907199515"><ele>65.0</ele><time>2026-03-28T17:45:50Z</time></trkpt><trkpt lat="36.94089705654191" lon="15.159442997049423"><ele>64.5</ele><time>2026-03-28T17:45:51Z</time></trkpt><trkpt lat="36.940827193163535" lon="15.159554300086295"><ele>64.0</ele><time>2026-03-28T17:45:52Z</time></trkpt><trkpt lat="36.94075202990967" lon="15.159638328513104"><ele>63.0</ele><time>2026-03-28T17:45:53Z</time></trkpt><trkpt lat="36.940667774527085" lon="15.159708088492351"><ele>62.00000000000001</ele><time>2026-03-28T17:45:54Z</time></trkpt><trkpt lat="36.94058091586307" lon="15.15979202057351"><ele>61.00000000000001</ele><time>2026-03-28T17:45:55Z</time></trkpt><trkpt lat="36.94047517259008" lon="15.159844953950586"><ele>60.0</ele><time>2026-03-28T17:45:56Z</time></trkpt><trkpt lat="36.940374852918154" lon="15.159853832151748"><ele>59.0</ele><time>2026-03-28T17:45:57Z</time></trkpt><trkpt lat="36.940295755946615" lon="15.159871013966901"><ele>58.400000000000006</ele><time>2026-03-28T17:45:58Z</time></trkpt><trkpt lat="36.940222746589626" lon="15.159893081115788"><ele>57.800000000000004</ele><time>2026-03-28T17:45:59Z</time></trkpt><trkpt lat="36.94015576582545" lon="15.159997394726812"><ele>57.199999999999996</ele><time>2026-03-28T17:46:00Z</time></trkpt><trkpt lat="36.94008546330779" lon="15.160131921622137"><ele>56.599999999999994</ele><time>2026-03-28T17:46:01Z</time></trkpt><trkpt lat="36.93999251014345" lon="15.160253918730586"><ele>56.0</ele><time>2026-03-28T17:46:02Z</time></trkpt><trkpt lat="36.939917199261416" lon="15.160354702159616"><ele>55.599999999999994</ele><time>2026-03-28T17:46:03Z</time></trkpt><trkpt lat="36.939864981296815" lon="15.160462071676283"><ele>55.199999999999996</ele><time>2026-03-28T17:46:04Z</time></trkpt><trkpt lat="36.93985547003453" lon="15.16058987665817"><ele>54.800000000000004</ele><time>2026-03-28T17:46:05Z</time></trkpt><trkpt lat="36.93984108497506" lon="15.160682913926989"><ele>54.400000000000006</ele><time>2026-03-28T17:46:06Z</time></trkpt><trkpt lat="36.939810632081496" lon="15.160799698393998"><ele>54.0</ele><time>2026-03-28T17:46:07Z</time></trkpt><trkpt lat="36.93972027563267" lon="15.160904738830538"><ele>53.0</ele><time>2026-03-28T17:46:08Z</time></trkpt><trkpt lat="36.93962118473735" lon="15.161044624280002"><ele>52.0</ele><time>2026-03-28T17:46:09Z</time></trkpt><trkpt lat="36.939505434141076" lon="15.161200534434789"><ele>51.0</ele><time>2026-03-28T17:46:10Z</time></trkpt><trkpt lat="36.93938209755783" lon="15.161359602304449"><ele>51.0</ele><time>2026-03-28T17:46:11Z</time></trkpt><trkpt lat="36.939251365006136" lon="15.161519114161578"><ele>51.0</ele><time>2026-03-28T17:46:12Z</time></trkpt><trkpt lat="36.939137163576255" lon="15.16165845580903"><ele>51.0</ele><time>2026-03-28T17:46:13Z</time></trkpt><trkpt lat="36.93904464473617" lon="15.161771341678646"><ele>50.199999999999996</ele><time>2026-03-28T17:46:14Z</time></trkpt><trkpt lat="36.93897077753344" lon="15.161858595475893"><ele>49.4</ele><time>2026-03-28T17:46:15Z</time></trkpt><trkpt lat="36.938889456384075" lon="15.161927164737932"><ele>48.6</ele><time>2026-03-28T17:46:16Z</time></trkpt><trkpt lat="36.938784199806605" lon="15.162017219993148"><ele>47.8</ele><time>2026-03-28T17:46:17Z</time></trkpt><trkpt lat="36.938717687630685" lon="15.16213219950375"><ele>47.0</ele><time>2026-03-28T17:46:18Z</time></trkpt><trkpt lat="36.93865542145082" lon="15.162237168156281"><ele>46.25</ele><time>2026-03-28T17:46:19Z</time></trkpt><trkpt lat="36.938599820829424" lon="15.162377421600933"><ele>45.5</ele><time>2026-03-28T17:46:20Z</time></trkpt><trkpt lat="36.93854456090073" lon="15.162548729367808"><ele>44.75</ele><time>2026-03-28T17:46:21Z</time></trkpt><trkpt lat="36.938484684635974" lon="15.162657705357924"><ele>44.0</ele><time>2026-03-28T17:46:22Z</time></trkpt><trkpt lat="36.9384279991488" lon="15.162852491392938"><ele>43.666666666666664</ele><time>2026-03-28T17:46:23Z</time></trkpt><trkpt lat="36.938372824077874" lon="15.162959353183298"><ele>43.33333333333333</ele><time>2026-03-28T17:46:24Z</time></trkpt><trkpt lat="36.93831868496088" lon="15.163068493437983"><ele>43.0</ele><time>2026-03-28T17:46:25Z</time></trkpt><trkpt lat="36.93827419094769" lon="15.1631545786715"><ele>42.666666666666664</ele><time>2026-03-28T17:46:26Z</time></trkpt><trkpt lat="36.93821439729606" lon="15.163215176396609"><ele>42.333333333333336</ele><time>2026-03-28T17:46:28Z</time></trkpt><trkpt lat="36.93820452990808" lon="15.16330537786038"><ele>42.0</ele><time>2026-03-28T17:46:31Z</time></trkpt><trkpt lat="36.938215694624034" lon="15.163204276234968"><ele>42.0</ele><time>2026-03-28T17:46:48Z</time></trkpt><trkpt lat="36.93816505417313" lon="15.163120259903579"><ele>42.0</ele><time>2026-03-28T17:46:52Z</time></trkpt><trkpt lat="36.938108607743864" lon="15.163031257125684"><ele>42.0</ele><time>2026-03-28T17:46:53Z</time></trkpt><trkpt lat="36.93802414740127" lon="15.162942523786166"><ele>42.0</ele><time>2026-03-28T17:46:54Z</time></trkpt><trkpt lat="36.93796539371969" lon="15.162847835189798"><ele>42.0</ele><time>2026-03-28T17:46:55Z</time></trkpt><trkpt lat="36.93788966061857" lon="15.162736972007131"><ele>42.0</ele><time>2026-03-28T17:46:56Z</time></trkpt><trkpt lat="36.93779341461925" lon="15.162600130908377"><ele>42.0</ele><time>2026-03-28T17:46:57Z</time></trkpt><trkpt lat="36.937675286694315" lon="15.162458226707747"><ele>42.0</ele><time>2026-03-28T17:46:58Z</time></trkpt><trkpt lat="36.9375453953117" lon="15.162320196374791"><ele>42.25</ele><time>2026-03-28T17:46:59Z</time></trkpt><trkpt lat="36.93742293868784" lon="15.162187662836512"><ele>42.5</ele><time>2026-03-28T17:47:00Z</time></trkpt><trkpt lat="36.93731829154079" lon="15.162070464571284"><ele>42.75</ele><time>2026-03-28T17:47:01Z</time></trkpt><trkpt lat="36.937218354800514" lon="15.1619624806755"><ele>43.0</ele><time>2026-03-28T17:47:02Z</time></trkpt><trkpt lat="36.93710936917771" lon="15.161858578296727"><ele>43.0</ele><time>2026-03-28T17:47:03Z</time></trkpt><trkpt lat="36.936999433606424" lon="15.161758163135827"><ele>43.0</ele><time>2026-03-28T17:47:04Z</time></trkpt><trkpt lat="36.93689973457167" lon="15.161671900156543"><ele>43.0</ele><time>2026-03-28T17:47:05Z</time></trkpt><trkpt lat="36.93681524226792" lon="15.16159407491311"><ele>43.0</ele><time>2026-03-28T17:47:05.999Z</time></trkpt><trkpt lat="36.93673609956526" lon="15.161521835102068"><ele>42.75</ele><time>2026-03-28T17:47:06.999Z</time></trkpt><trkpt lat="36.93665017873264" lon="15.161441992290989"><ele>42.5</ele><time>2026-03-28T17:47:07.999Z</time></trkpt><trkpt lat="36.93654895826046" lon="15.16135623111876"><ele>42.25</ele><time>2026-03-28T17:47:08.999Z</time></trkpt><trkpt lat="36.9364279786088" lon="15.161260193979428"><ele>42.0</ele><time>2026-03-28T17:47:09.999Z</time></trkpt><trkpt lat="36.936293457880886" lon="15.161157519527974"><ele>42.0</ele><time>2026-03-28T17:47:10.999Z</time></trkpt><trkpt lat="36.936168489542446" lon="15.161055335429236"><ele>42.0</ele><time>2026-03-28T17:47:11.999Z</time></trkpt><trkpt lat="36.93606159350953" lon="15.160966395226293"><ele>42.0</ele><time>2026-03-28T17:47:12.999Z</time></trkpt><trkpt lat="36.93595651421859" lon="15.160873676180588"><ele>42.0</ele><time>2026-03-28T17:47:13.999Z</time></trkpt><trkpt lat="36.9358489023761" lon="15.160777622166222"><ele>41.75</ele><time>2026-03-28T17:47:14.999Z</time></trkpt><trkpt lat="36.935737339977976" lon="15.160674687455671"><ele>41.5</ele><time>2026-03-28T17:47:15.999Z</time></trkpt><trkpt lat="36.935629019763994" lon="15.160568047042435"><ele>41.25</ele><time>2026-03-28T17:47:16.999Z</time></trkpt><trkpt lat="36.93552853760344" lon="15.160464179397989"><ele>41.0</ele><time>2026-03-28T17:47:17.999Z</time></trkpt><trkpt lat="36.93542430962822" lon="15.160353893863556"><ele>41.0</ele><time>2026-03-28T17:47:18.999Z</time></trkpt><trkpt lat="36.93533291181398" lon="15.160249349940857"><ele>41.0</ele><time>2026-03-28T17:47:19.999Z</time></trkpt><trkpt lat="36.93524836728909" lon="15.160128466023064"><ele>41.0</ele><time>2026-03-28T17:47:20.999Z</time></trkpt><trkpt lat="36.93517989016459" lon="15.159992185379117"><ele>41.0</ele><time>2026-03-28T17:47:21.999Z</time></trkpt><trkpt lat="36.93512619077401" lon="15.159888794804761"><ele>40.83333333333333</ele><time>2026-03-28T17:47:22.999Z</time></trkpt><trkpt lat="36.93508161578777" lon="15.159815516390255"><ele>40.666666666666664</ele><time>2026-03-28T17:47:23.999Z</time></trkpt><trkpt lat="36.93496046466782" lon="15.159774346774377"><ele>40.5</ele><time>2026-03-28T17:47:25.999Z</time></trkpt><trkpt lat="36.934883903213645" lon="15.159795916037227"><ele>40.333333333333336</ele><time>2026-03-28T17:47:26.999Z</time></trkpt><trkpt lat="36.934812565110406" lon="15.15979421128288"><ele>40.16666666666667</ele><time>2026-03-28T17:47:27.999Z</time></trkpt><trkpt lat="36.93473940369092" lon="15.159750905355382"><ele>40.0</ele><time>2026-03-28T17:47:28.999Z</time></trkpt><trkpt lat="36.93467119771838" lon="15.159646305097942"><ele>40.0</ele><time>2026-03-28T17:47:29.999Z</time></trkpt><trkpt lat="36.93458256011775" lon="15.159548270265422"><ele>40.0</ele><time>2026-03-28T17:47:30.999Z</time></trkpt><trkpt lat="36.934503922844556" lon="15.159482988671423"><ele>40.0</ele><time>2026-03-28T17:47:31.999Z</time></trkpt><trkpt lat="36.93444120573298" lon="15.159420210720183"><ele>40.0</ele><time>2026-03-28T17:47:32.999Z</time></trkpt><trkpt lat="36.93438380545808" lon="15.159361883360766"><ele>40.0</ele><time>2026-03-28T17:47:33.999Z</time></trkpt><trkpt lat="36.934337729980946" lon="15.159290604847701"><ele>40.0</ele><time>2026-03-28T17:47:34.999Z</time></trkpt><trkpt lat="36.934258534394196" lon="15.159208969254955"><ele>40.333333333333336</ele><time>2026-03-28T17:47:36Z</time></trkpt><trkpt lat="36.934149154409276" lon="15.159112475739802"><ele>40.666666666666664</ele><time>2026-03-28T17:47:37Z</time></trkpt><trkpt lat="36.9340241341311" lon="15.158995989245598"><ele>41.0</ele><time>2026-03-28T17:47:38Z</time></trkpt><trkpt lat="36.933891869488676" lon="15.158878454761597"><ele>41.0</ele><time>2026-03-28T17:47:39Z</time></trkpt><trkpt lat="36.93376535867789" lon="15.15877041188827"><ele>41.0</ele><time>2026-03-28T17:47:40Z</time></trkpt><trkpt lat="36.93365272110462" lon="15.158670760057563"><ele>41.0</ele><time>2026-03-28T17:47:41Z</time></trkpt><trkpt lat="36.933527495236454" lon="15.158563914561203"><ele>41.0</ele><time>2026-03-28T17:47:42Z</time></trkpt><trkpt lat="36.93339020274208" lon="15.158443657787034"><ele>40.666666666666664</ele><time>2026-03-28T17:47:43Z</time></trkpt><trkpt lat="36.93326387997" lon="15.158327719915787"><ele>40.333333333333336</ele><time>2026-03-28T17:47:44Z</time></trkpt><trkpt lat="36.93313413646404" lon="15.158212573437874"><ele>40.0</ele><time>2026-03-28T17:47:45Z</time></trkpt><trkpt lat="36.93300102329101" lon="15.158096167964404"><ele>40.0</ele><time>2026-03-28T17:47:46Z</time></trkpt><trkpt lat="36.932861160530464" lon="15.157984060965017"><ele>40.0</ele><time>2026-03-28T17:47:47Z</time></trkpt><trkpt lat="36.932733856013165" lon="15.157882536552824"><ele>40.0</ele><time>2026-03-28T17:47:48Z</time></trkpt><trkpt lat="36.93263044964072" lon="15.157781045137325"><ele>40.0</ele><time>2026-03-28T17:47:49Z</time></trkpt><trkpt lat="36.93254500482627" lon="15.157685434413121"><ele>39.75</ele><time>2026-03-28T17:47:50Z</time></trkpt><trkpt lat="36.93246689008757" lon="15.157599828703832"><ele>39.5</ele><time>2026-03-28T17:47:51Z</time></trkpt><trkpt lat="36.932392763126614" lon="15.157531586208009"><ele>39.25</ele><time>2026-03-28T17:47:52Z</time></trkpt><trkpt lat="36.93232986847359" lon="15.157467901134241"><ele>39.0</ele><time>2026-03-28T17:47:53Z</time></trkpt><trkpt lat="36.93214675954778" lon="15.157534153249001"><ele>39.0</ele><time>2026-03-28T17:47:56Z</time></trkpt><trkpt lat="36.93209392779938" lon="15.157718031052976"><ele>39.0</ele><time>2026-03-28T17:47:57Z</time></trkpt><trkpt lat="36.93201550028023" lon="15.15787215546641"><ele>39.0</ele><time>2026-03-28T17:47:58Z</time></trkpt><trkpt lat="36.9320077627761" lon="15.158103012379422"><ele>39.0</ele><time>2026-03-28T17:47:59Z</time></trkpt><trkpt lat="36.931934343024686" lon="15.15827935665535"><ele>39.0</ele><time>2026-03-28T17:48:00Z</time></trkpt><trkpt lat="36.93187493292953" lon="15.158453855598415"><ele>39.0</ele><time>2026-03-28T17:48:01Z</time></trkpt><trkpt lat="36.931800585672065" lon="15.158635203029613"><ele>39.0</ele><time>2026-03-28T17:48:02Z</time></trkpt><trkpt lat="36.931761368350585" lon="15.158852397928284"><ele>39.0</ele><time>2026-03-28T17:48:03Z</time></trkpt><trkpt lat="36.93170190068032" lon="15.159068371813325"><ele>39.0</ele><time>2026-03-28T17:48:04Z</time></trkpt><trkpt lat="36.93165289750563" lon="15.159286121770004"><ele>38.5</ele><time>2026-03-28T17:48:05Z</time></trkpt><trkpt lat="36.93161425723941" lon="15.159481703316173"><ele>38.0</ele><time>2026-03-28T17:48:06Z</time></trkpt><trkpt lat="36.931581024400884" lon="15.159661321851466"><ele>37.5</ele><time>2026-03-28T17:48:07Z</time></trkpt><trkpt lat="36.931551607828055" lon="15.159831283682376"><ele>37.0</ele><time>2026-03-28T17:48:08Z</time></trkpt><trkpt lat="36.931523962616275" lon="15.159993071567802"><ele>36.800000000000004</ele><time>2026-03-28T17:48:09Z</time></trkpt><trkpt lat="36.93149608984426" lon="15.160139030816666"><ele>36.6</ele><time>2026-03-28T17:48:10Z</time></trkpt><trkpt lat="36.931463050953326" lon="15.16027483117154"><ele>36.400000000000006</ele><time>2026-03-28T17:48:11Z</time></trkpt><trkpt lat="36.931421772576755" lon="15.160401055663232"><ele>36.2</ele><time>2026-03-28T17:48:12Z</time></trkpt><trkpt lat="36.93135754675871" lon="15.160507216948053"><ele>36.0</ele><time>2026-03-28T17:48:13Z</time></trkpt><trkpt lat="36.931274485506975" lon="15.16057408666438"><ele>36.0</ele><time>2026-03-28T17:48:14Z</time></trkpt><trkpt lat="36.93117594367598" lon="15.160573809835686"><ele>36.0</ele><time>2026-03-28T17:48:15Z</time></trkpt><trkpt lat="36.93104892730821" lon="15.160599350535021"><ele>36.0</ele><time>2026-03-28T17:48:16Z</time></trkpt><trkpt lat="36.93093214269552" lon="15.16064948892549"><ele>36.0</ele><time>2026-03-28T17:48:17Z</time></trkpt><trkpt lat="36.93083458969091" lon="15.160699165568218"><ele>35.5</ele><time>2026-03-28T17:48:18Z</time></trkpt><trkpt lat="36.93074359292586" lon="15.160759737122387"><ele>35.0</ele><time>2026-03-28T17:48:19Z</time></trkpt><trkpt lat="36.930670511711206" lon="15.160857209341247"><ele>34.5</ele><time>2026-03-28T17:48:20Z</time></trkpt><trkpt lat="36.930634564896096" lon="15.16100644539014"><ele>34.0</ele><time>2026-03-28T17:48:21Z</time></trkpt><trkpt lat="36.930608383596486" lon="15.161157569558672"><ele>34.0</ele><time>2026-03-28T17:48:22Z</time></trkpt><trkpt lat="36.93061200256102" lon="15.161307747432444"><ele>34.0</ele><time>2026-03-28T17:48:23Z</time></trkpt><trkpt lat="36.93065042426106" lon="15.161442349670049"><ele>34.0</ele><time>2026-03-28T17:48:24Z</time></trkpt><trkpt lat="36.93071857483952" lon="15.161570095301098"><ele>34.0</ele><time>2026-03-28T17:48:25Z</time></trkpt><trkpt lat="36.930805415962574" lon="15.16169720022184"><ele>34.2</ele><time>2026-03-28T17:48:26Z</time></trkpt><trkpt lat="36.93088250767422" lon="15.16181299825259"><ele>34.4</ele><time>2026-03-28T17:48:27Z</time></trkpt><trkpt lat="36.93093456191128" lon="15.16191125578224"><ele>34.6</ele><time>2026-03-28T17:48:28Z</time></trkpt><trkpt lat="36.93098102838621" lon="15.162024093285185"><ele>34.8</ele><time>2026-03-28T17:48:29Z</time></trkpt><trkpt lat="36.93103006468746" lon="15.162155463568245"><ele>35.0</ele><time>2026-03-28T17:48:30Z</time></trkpt><trkpt lat="36.93107571954984" lon="15.162285845232443"><ele>34.5</ele><time>2026-03-28T17:48:31Z</time></trkpt><trkpt lat="36.93109414364206" lon="15.162408033753932"><ele>34.0</ele><time>2026-03-28T17:48:32Z</time></trkpt><trkpt lat="36.931102270053415" lon="15.16250606069834"><ele>33.5</ele><time>2026-03-28T17:48:33Z</time></trkpt><trkpt lat="36.931102895990996" lon="15.16258935857897"><ele>33.0</ele><time>2026-03-28T17:48:34Z</time></trkpt><trkpt lat="36.931022817754005" lon="15.162640776591584"><ele>32.5</ele><time>2026-03-28T17:48:35Z</time></trkpt><trkpt lat="36.93093824687121" lon="15.162729295206589"><ele>32.0</ele><time>2026-03-28T17:48:36Z</time></trkpt><trkpt lat="36.93086864817144" lon="15.162829902357693"><ele>31.8</ele><time>2026-03-28T17:48:37Z</time></trkpt><trkpt lat="36.9308003676251" lon="15.162895783805592"><ele>31.6</ele><time>2026-03-28T17:48:38Z</time></trkpt><trkpt lat="36.93074500973507" lon="15.16296709868874"><ele>31.400000000000002</ele><time>2026-03-28T17:48:39Z</time></trkpt><trkpt lat="36.93066601509216" lon="15.16304026574769"><ele>31.200000000000003</ele><time>2026-03-28T17:48:40Z</time></trkpt><trkpt lat="36.930592347952185" lon="15.163141649622613"><ele>31.0</ele><time>2026-03-28T17:48:41Z</time></trkpt><trkpt lat="36.93053336681879" lon="15.163225572614664"><ele>30.666666666666668</ele><time>2026-03-28T17:48:42Z</time></trkpt><trkpt lat="36.930485391926915" lon="15.163294030008911"><ele>30.333333333333336</ele><time>2026-03-28T17:48:43Z</time></trkpt><trkpt lat="36.930441113432465" lon="15.163357213063264"><ele>30.0</ele><time>2026-03-28T17:48:44Z</time></trkpt><trkpt lat="36.93039698411949" lon="15.163420183047629"><ele>29.666666666666664</ele><time>2026-03-28T17:48:45Z</time></trkpt><trkpt lat="36.93034923504038" lon="15.16348831849668"><ele>29.333333333333332</ele><time>2026-03-28T17:48:46Z</time></trkpt><trkpt lat="36.93028961912945" lon="15.163573463127115"><ele>29.0</ele><time>2026-03-28T17:48:47Z</time></trkpt><trkpt lat="36.930225038810974" lon="15.16366754033072"><ele>28.999999999999996</ele><time>2026-03-28T17:48:48Z</time></trkpt><trkpt lat="36.93016026555338" lon="15.163761897964386"><ele>29.0</ele><time>2026-03-28T17:48:49Z</time></trkpt><trkpt lat="36.93010307379085" lon="15.16384521196223"><ele>29.0</ele><time>2026-03-28T17:48:50Z</time></trkpt><trkpt lat="36.9300502382513" lon="15.163922179518297"><ele>29.0</ele><time>2026-03-28T17:48:51Z</time></trkpt><trkpt lat="36.92999487918657" lon="15.164002823159361"><ele>28.999999999999996</ele><time>2026-03-28T17:48:52Z</time></trkpt><trkpt lat="36.92994221924834" lon="15.164079535119958"><ele>29.0</ele><time>2026-03-28T17:48:53Z</time></trkpt><trkpt lat="36.929895970535405" lon="15.164146549404089"><ele>28.2</ele><time>2026-03-28T17:48:54Z</time></trkpt><trkpt lat="36.92985168757471" lon="15.164209657044703"><ele>27.4</ele><time>2026-03-28T17:48:55Z</time></trkpt><trkpt lat="36.9298100006498" lon="15.164269065044332"><ele>26.6</ele><time>2026-03-28T17:48:56Z</time></trkpt><trkpt lat="36.929732423086186" lon="15.164379620662633"><ele>25.8</ele><time>2026-03-28T17:48:58Z</time></trkpt><trkpt lat="36.929681353306115" lon="15.16447941371451"><ele>25.0</ele><time>2026-03-28T17:49:00Z</time></trkpt><trkpt lat="36.929558851120966" lon="15.164456747308611"><ele>25.000000000000004</ele><time>2026-03-28T17:49:02Z</time></trkpt><trkpt lat="36.929486852034586" lon="15.164475151215509"><ele>25.0</ele><time>2026-03-28T17:49:03Z</time></trkpt><trkpt lat="36.92941601324108" lon="15.164430642235052"><ele>25.0</ele><time>2026-03-28T17:49:04Z</time></trkpt><trkpt lat="36.92934840301771" lon="15.164380129301362"><ele>25.0</ele><time>2026-03-28T17:49:05Z</time></trkpt><trkpt lat="36.92928300842685" lon="15.164344195213163"><ele>25.000000000000004</ele><time>2026-03-28T17:49:06Z</time></trkpt><trkpt lat="36.9291610330495" lon="15.164367298548049"><ele>25.0</ele><time>2026-03-28T17:49:08Z</time></trkpt><trkpt lat="36.92905263774868" lon="15.164429325710254"><ele>25.0</ele><time>2026-03-28T17:49:10Z</time></trkpt><trkpt lat="36.92897761298146" lon="15.164478975382579"><ele>25.0</ele><time>2026-03-28T17:49:12Z</time></trkpt><trkpt lat="36.92892889184195" lon="15.164533782677788"><ele>25.0</ele><time>2026-03-28T17:56:29Z</time></trkpt><trkpt lat="36.929109352640985" lon="15.16443785864973"><ele>25.0</ele><time>2026-03-28T17:56:33Z</time></trkpt><trkpt lat="36.929188203108026" lon="15.16439537381573"><ele>25.0</ele><time>2026-03-28T17:56:34Z</time></trkpt><trkpt lat="36.929280497019974" lon="15.164378937797753"><ele>25.000000000000004</ele><time>2026-03-28T17:56:35Z</time></trkpt><trkpt lat="36.929364630275444" lon="15.164416929843584"><ele>25.0</ele><time>2026-03-28T17:56:36Z</time></trkpt><trkpt lat="36.92942805996345" lon="15.1644827448536"><ele>25.0</ele><time>2026-03-28T17:56:37Z</time></trkpt><trkpt lat="36.92952687219373" lon="15.164568762342547"><ele>25.0</ele><time>2026-03-28T17:56:39Z</time></trkpt><trkpt lat="36.92958905544123" lon="15.16458636733132"><ele>25.000000000000004</ele><time>2026-03-28T17:56:40Z</time></trkpt><trkpt lat="36.92965008811525" lon="15.164561786965299"><ele>25.0</ele><time>2026-03-28T17:56:41Z</time></trkpt><trkpt lat="36.929713749106874" lon="15.164491554410153"><ele>25.0</ele><time>2026-03-28T17:56:42Z</time></trkpt><trkpt lat="36.92978916493924" lon="15.164367973788174"><ele>25.0</ele><time>2026-03-28T17:56:43Z</time></trkpt><trkpt lat="36.929891761108145" lon="15.164194447538172"><ele>25.0</ele><time>2026-03-28T17:56:44Z</time></trkpt><trkpt lat="36.9300075938639" lon="15.164036468507971"><ele>26.333333333333336</ele><time>2026-03-28T17:56:45Z</time></trkpt><trkpt lat="36.93011712444581" lon="15.163889518099912"><ele>27.666666666666664</ele><time>2026-03-28T17:56:46Z</time></trkpt><trkpt lat="36.93022307662865" lon="15.163730467030183"><ele>29.0</ele><time>2026-03-28T17:56:47Z</time></trkpt><trkpt lat="36.93034554096922" lon="15.163552337436618"><ele>29.0</ele><time>2026-03-28T17:56:48Z</time></trkpt><trkpt lat="36.93048676642948" lon="15.163351662373287"><ele>29.0</ele><time>2026-03-28T17:56:49Z</time></trkpt><trkpt lat="36.93060890906473" lon="15.163174108363302"><ele>29.0</ele><time>2026-03-28T17:56:50Z</time></trkpt><trkpt lat="36.93071285367174" lon="15.163023622907625"><ele>29.333333333333332</ele><time>2026-03-28T17:56:51Z</time></trkpt><trkpt lat="36.93079647650299" lon="15.16291443671873"><ele>29.666666666666664</ele><time>2026-03-28T17:56:52Z</time></trkpt><trkpt lat="36.930864151424935" lon="15.16284005923893"><ele>30.0</ele><time>2026-03-28T17:56:53Z</time></trkpt><trkpt lat="36.93092729936096" lon="15.162783233733848"><ele>30.333333333333336</ele><time>2026-03-28T17:56:54Z</time></trkpt><trkpt lat="36.930998071578266" lon="15.162726401387154"><ele>30.666666666666668</ele><time>2026-03-28T17:56:55Z</time></trkpt><trkpt lat="36.931052905968265" lon="15.16266819860727"><ele>31.0</ele><time>2026-03-28T17:56:56Z</time></trkpt><trkpt lat="36.93110339813254" lon="15.162600353027578"><ele>31.200000000000003</ele><time>2026-03-28T17:56:57Z</time></trkpt><trkpt lat="36.93114123931764" lon="15.16251716987464"><ele>31.400000000000002</ele><time>2026-03-28T17:56:58Z</time></trkpt><trkpt lat="36.93114315970119" lon="15.16241525827007"><ele>31.6</ele><time>2026-03-28T17:56:59Z</time></trkpt><trkpt lat="36.931116819541785" lon="15.162277959217956"><ele>31.8</ele><time>2026-03-28T17:57:00Z</time></trkpt><trkpt lat="36.93105237431477" lon="15.162108252827403"><ele>32.0</ele><time>2026-03-28T17:57:01Z</time></trkpt><trkpt lat="36.93097328396257" lon="15.161948612664078"><ele>32.0</ele><time>2026-03-28T17:57:02Z</time></trkpt><trkpt lat="36.9308965634533" lon="15.16179111770197"><ele>32.0</ele><time>2026-03-28T17:57:03Z</time></trkpt><trkpt lat="36.930805624653054" lon="15.16164374304686"><ele>32.0</ele><time>2026-03-28T17:57:04Z</time></trkpt><trkpt lat="36.930720922176576" lon="15.161529705854894"><ele>32.0</ele><time>2026-03-28T17:57:05Z</time></trkpt><trkpt lat="36.93066841059052" lon="15.161425102272682"><ele>32.4</ele><time>2026-03-28T17:57:06Z</time></trkpt><trkpt lat="36.93064858085027" lon="15.161343909900255"><ele>32.800000000000004</ele><time>2026-03-28T17:57:07Z</time></trkpt><trkpt lat="36.93063515020996" lon="15.161164990543368"><ele>33.2</ele><time>2026-03-28T17:57:09Z</time></trkpt><trkpt lat="36.930643139047255" lon="15.161051674832015"><ele>33.6</ele><time>2026-03-28T17:57:10Z</time></trkpt><trkpt lat="36.93067454685195" lon="15.160942310301625"><ele>34.0</ele><time>2026-03-28T17:57:11Z</time></trkpt><trkpt lat="36.93073182452372" lon="15.160834209977839"><ele>34.0</ele><time>2026-03-28T17:57:12Z</time></trkpt><trkpt lat="36.93080830397347" lon="15.160743910563145"><ele>34.0</ele><time>2026-03-28T17:57:13Z</time></trkpt><trkpt lat="36.93090965428003" lon="15.160674807787926"><ele>34.0</ele><time>2026-03-28T17:57:14Z</time></trkpt><trkpt lat="36.93102994687457" lon="15.160633373979534"><ele>34.0</ele><time>2026-03-28T17:57:15Z</time></trkpt><trkpt lat="36.93116721448011" lon="15.160610075485167"><ele>34.4</ele><time>2026-03-28T17:57:16Z</time></trkpt><trkpt lat="36.931279694244495" lon="15.160599283998398"><ele>34.8</ele><time>2026-03-28T17:57:17Z</time></trkpt><trkpt lat="36.93136309785951" lon="15.160561124871478"><ele>35.2</ele><time>2026-03-28T17:57:18Z</time></trkpt><trkpt lat="36.93142766933628" lon="15.160482071198242"><ele>35.6</ele><time>2026-03-28T17:57:19Z</time></trkpt><trkpt lat="36.93148635374541" lon="15.160351234745672"><ele>36.0</ele><time>2026-03-28T17:57:20Z</time></trkpt><trkpt lat="36.93152569879333" lon="15.160193347050694"><ele>36.0</ele><time>2026-03-28T17:57:21Z</time></trkpt><trkpt lat="36.93155743758825" lon="15.159983631051272"><ele>36.0</ele><time>2026-03-28T17:57:22Z</time></trkpt><trkpt lat="36.931591672425405" lon="15.159737958955104"><ele>36.0</ele><time>2026-03-28T17:57:23Z</time></trkpt><trkpt lat="36.93163755924705" lon="15.159487855260288"><ele>36.333333333333336</ele><time>2026-03-28T17:57:24Z</time></trkpt><trkpt lat="36.93168828721267" lon="15.159273701757042"><ele>36.66666666666667</ele><time>2026-03-28T17:57:25Z</time></trkpt><trkpt lat="36.93173310757225" lon="15.159081393722747"><ele>37.0</ele><time>2026-03-28T17:57:26Z</time></trkpt><trkpt lat="36.93177041792636" lon="15.158921343292006"><ele>37.5</ele><time>2026-03-28T17:57:27Z</time></trkpt><trkpt lat="36.93180062430283" lon="15.15877225585613"><ele>38.0</ele><time>2026-03-28T17:57:28Z</time></trkpt><trkpt lat="36.93183069123473" lon="15.158635849214152"><ele>38.5</ele><time>2026-03-28T17:57:29Z</time></trkpt><trkpt lat="36.931884169797186" lon="15.158493369532383"><ele>39.0</ele><time>2026-03-28T17:57:30Z</time></trkpt><trkpt lat="36.93194304289631" lon="15.158361195554468"><ele>39.0</ele><time>2026-03-28T17:57:31Z</time></trkpt><trkpt lat="36.93198303243174" lon="15.158250557100736"><ele>39.0</ele><time>2026-03-28T17:57:32Z</time></trkpt><trkpt lat="36.9320194651866" lon="15.15814046315067"><ele>39.0</ele><time>2026-03-28T17:57:32.999Z</time></trkpt><trkpt lat="36.9320621207807" lon="15.158024491961477"><ele>39.0</ele><time>2026-03-28T17:57:33.999Z</time></trkpt><trkpt lat="36.93210620495862" lon="15.157923358312233"><ele>39.0</ele><time>2026-03-28T17:57:34.999Z</time></trkpt><trkpt lat="36.93214536650323" lon="15.157835450853492"><ele>39.0</ele><time>2026-03-28T17:57:35.999Z</time></trkpt><trkpt lat="36.93217832529875" lon="15.157757149794593"><ele>39.0</ele><time>2026-03-28T17:57:36.999Z</time></trkpt><trkpt lat="36.93220717706291" lon="15.157686320141769"><ele>39.0</ele><time>2026-03-28T17:57:37.999Z</time></trkpt><trkpt lat="36.93225971958314" lon="15.15759677936922"><ele>39.0</ele><time>2026-03-28T17:57:39.999Z</time></trkpt><trkpt lat="36.9323102961837" lon="15.15752987176756"><ele>39.0</ele><time>2026-03-28T17:57:42.999Z</time></trkpt><trkpt lat="36.932256752094666" lon="15.157575272743374"><ele>39.0</ele><time>2026-03-28T17:57:45.999Z</time></trkpt><trkpt lat="36.932139428035875" lon="15.157621469938807"><ele>39.0</ele><time>2026-03-28T17:57:46.999Z</time></trkpt><trkpt lat="36.93208138822385" lon="15.157745147705734"><ele>39.0</ele><time>2026-03-28T17:57:47.999Z</time></trkpt><trkpt lat="36.93200433055066" lon="15.157891910033785"><ele>39.0</ele><time>2026-03-28T17:57:48.999Z</time></trkpt><trkpt lat="36.93191330749312" lon="15.158017514687216"><ele>39.0</ele><time>2026-03-28T17:57:49.999Z</time></trkpt><trkpt lat="36.93179864744622" lon="15.158126664936278"><ele>38.0</ele><time>2026-03-28T17:57:50.999Z</time></trkpt><trkpt lat="36.93167339806998" lon="15.158252903180855"><ele>37.0</ele><time>2026-03-28T17:57:51.999Z</time></trkpt><trkpt lat="36.931537832387285" lon="15.158389021615235"><ele>36.0</ele><time>2026-03-28T17:57:52.999Z</time></trkpt><trkpt lat="36.9313145251146" lon="15.158696284921415"><ele>36.0</ele><time>2026-03-28T17:57:53.999Z</time></trkpt><trkpt lat="36.931236558977844" lon="15.158910003152831"><ele>36.0</ele><time>2026-03-28T17:57:54.999Z</time></trkpt><trkpt lat="36.93117327420872" lon="15.159109878043223"><ele>36.0</ele><time>2026-03-28T17:57:55.999Z</time></trkpt><trkpt lat="36.9311242490451" lon="15.159293750763736"><ele>36.0</ele><time>2026-03-28T17:57:56.999Z</time></trkpt><trkpt lat="36.93157942160198" lon="15.159867463723563"><ele>36.0</ele><time>2026-03-28T17:57:57.999Z</time></trkpt><trkpt lat="36.93154583229352" lon="15.160037162409305"><ele>36.0</ele><time>2026-03-28T17:57:58.999Z</time></trkpt><trkpt lat="36.93151669628537" lon="15.160184975748008"><ele>36.0</ele><time>2026-03-28T17:57:59.999Z</time></trkpt><trkpt lat="36.9314795904896" lon="15.160324984812526"><ele>36.0</ele><time>2026-03-28T17:58:00.999Z</time></trkpt><trkpt lat="36.93142692646341" lon="15.160438936387925"><ele>36.0</ele><time>2026-03-28T17:58:01.999Z</time></trkpt><trkpt lat="36.93135839553944" lon="15.16052052595753"><ele>36.0</ele><time>2026-03-28T17:58:02.999Z</time></trkpt><trkpt lat="36.93127803127236" lon="15.160572719977388"><ele>36.0</ele><time>2026-03-28T17:58:03.999Z</time></trkpt><trkpt lat="36.931189230029155" lon="15.160590216367455"><ele>36.0</ele><time>2026-03-28T17:58:05Z</time></trkpt><trkpt lat="36.93108190612352" lon="15.160587232550528"><ele>36.0</ele><time>2026-03-28T17:58:06Z</time></trkpt><trkpt lat="36.9309652531977" lon="15.160621081796178"><ele>36.0</ele><time>2026-03-28T17:58:07Z</time></trkpt><trkpt lat="36.93085822978251" lon="15.160672978307636"><ele>36.0</ele><time>2026-03-28T17:58:08Z</time></trkpt><trkpt lat="36.93077023730209" lon="15.16074199440452"><ele>36.0</ele><time>2026-03-28T17:58:09Z</time></trkpt><trkpt lat="36.93069995395822" lon="15.160840909244609"><ele>36.0</ele><time>2026-03-28T17:58:10Z</time></trkpt><trkpt lat="36.93063417532949" lon="15.16095846657294"><ele>36.0</ele><time>2026-03-28T17:58:11Z</time></trkpt><trkpt lat="36.930602192411286" lon="15.16110923370975"><ele>35.6</ele><time>2026-03-28T17:58:12Z</time></trkpt><trkpt lat="36.93059472986086" lon="15.16127219478636"><ele>35.2</ele><time>2026-03-28T17:58:13Z</time></trkpt><trkpt lat="36.93061391918129" lon="15.16138937537981"><ele>34.8</ele><time>2026-03-28T17:58:14Z</time></trkpt><trkpt lat="36.93067631512453" lon="15.16147487073128"><ele>34.4</ele><time>2026-03-28T17:58:15Z</time></trkpt><trkpt lat="36.93072418217019" lon="15.161582614814574"><ele>34.0</ele><time>2026-03-28T17:58:16Z</time></trkpt><trkpt lat="36.93080151925405" lon="15.161694345216485"><ele>34.25</ele><time>2026-03-28T17:58:17Z</time></trkpt><trkpt lat="36.930875155228236" lon="15.16182325966769"><ele>34.5</ele><time>2026-03-28T17:58:18Z</time></trkpt><trkpt lat="36.93094575990377" lon="15.161968381027119"><ele>34.75</ele><time>2026-03-28T17:58:19Z</time></trkpt><trkpt lat="36.931011309576775" lon="15.162137028763553"><ele>35.0</ele><time>2026-03-28T17:58:20Z</time></trkpt><trkpt lat="36.93106570766391" lon="15.162299971200985"><ele>34.4</ele><time>2026-03-28T17:58:21Z</time></trkpt><trkpt lat="36.93109557952417" lon="15.162423817172716"><ele>33.8</ele><time>2026-03-28T17:58:22Z</time></trkpt><trkpt lat="36.93110286095469" lon="15.16251274890378"><ele>33.2</ele><time>2026-03-28T17:58:23Z</time></trkpt><trkpt lat="36.93101954652824" lon="15.162639918393701"><ele>32.6</ele><time>2026-03-28T17:58:25Z</time></trkpt><trkpt lat="36.93093560657848" lon="15.16273215446428"><ele>32.0</ele><time>2026-03-28T17:58:26Z</time></trkpt><trkpt lat="36.93083082795862" lon="15.162861953178849"><ele>31.666666666666664</ele><time>2026-03-28T17:58:27Z</time></trkpt><trkpt lat="36.930720630329944" lon="15.162978252674542"><ele>31.333333333333336</ele><time>2026-03-28T17:58:28Z</time></trkpt><trkpt lat="36.93059917048413" lon="15.163143426475314"><ele>31.0</ele><time>2026-03-28T17:58:29Z</time></trkpt><trkpt lat="36.93047518743082" lon="15.163336059455872"><ele>30.333333333333336</ele><time>2026-03-28T17:58:30Z</time></trkpt><trkpt lat="36.93036437525834" lon="15.163491605467037"><ele>29.666666666666664</ele><time>2026-03-28T17:58:31Z</time></trkpt><trkpt lat="36.93025594948745" lon="15.163642563180895"><ele>29.0</ele><time>2026-03-28T17:58:32Z</time></trkpt><trkpt lat="36.93015966150239" lon="15.16378572539698"><ele>29.0</ele><time>2026-03-28T17:58:33Z</time></trkpt><trkpt lat="36.9300677233765" lon="15.16392853214643"><ele>29.0</ele><time>2026-03-28T17:58:34Z</time></trkpt><trkpt lat="36.9299674132709" lon="15.164073612935166"><ele>29.0</ele><time>2026-03-28T17:58:35Z</time></trkpt><trkpt lat="36.92986032873152" lon="15.164197342528634"><ele>29.0</ele><time>2026-03-28T17:58:36Z</time></trkpt><trkpt lat="36.92978708660507" lon="15.164330976554142"><ele>28.333333333333332</ele><time>2026-03-28T17:58:37Z</time></trkpt><trkpt lat="36.929709774613" lon="15.164441098065096"><ele>27.666666666666664</ele><time>2026-03-28T17:58:38Z</time></trkpt><trkpt lat="36.92964023964518" lon="15.164531983034943"><ele>27.0</ele><time>2026-03-28T17:58:39Z</time></trkpt><trkpt lat="36.92956506489347" lon="15.164580775861518"><ele>26.333333333333336</ele><time>2026-03-28T17:58:40Z</time></trkpt><trkpt lat="36.92950820498045" lon="15.164621943949001"><ele>25.666666666666668</ele><time>2026-03-28T17:58:41Z</time></trkpt><trkpt lat="36.9294451445223" lon="15.164608619395572"><ele>25.0</ele><time>2026-03-28T17:58:42Z</time></trkpt><trkpt lat="36.929395361559315" lon="15.164555167321355"><ele>25.000000000000004</ele><time>2026-03-28T17:58:43Z</time></trkpt><trkpt lat="36.929366202304244" lon="15.164471504578582"><ele>25.0</ele><time>2026-03-28T17:58:44Z</time></trkpt><trkpt lat="36.92932117342524" lon="15.164384515705764"><ele>25.0</ele><time>2026-03-28T17:58:45Z</time></trkpt><trkpt lat="36.92924749894256" lon="15.164348185843092"><ele>25.0</ele><time>2026-03-28T17:58:46Z</time></trkpt><trkpt lat="36.92916143332083" lon="15.164360381344139"><ele>25.000000000000004</ele><time>2026-03-28T17:58:47Z</time></trkpt><trkpt lat="36.92908855405636" lon="15.164410020081583"><ele>25.0</ele><time>2026-03-28T17:58:48Z</time></trkpt><trkpt lat="36.92900149217509" lon="15.164468903080602"><ele>24.5</ele><time>2026-03-28T17:58:50Z</time></trkpt><trkpt lat="36.92894337482579" lon="15.164501140480356"><ele>24.0</ele><time>2026-03-28T18:02:25Z</time></trkpt><trkpt lat="36.92889083756473" lon="15.164576457037404"><ele>23.5</ele><time>2026-03-28T18:02:28Z</time></trkpt><trkpt lat="36.928676544396" lon="15.164430937287817"><ele>23.0</ele><time>2026-03-28T18:02:30Z</time></trkpt><trkpt lat="36.9285686414818" lon="15.164324244732962"><ele>23.0</ele><time>2026-03-28T18:02:31Z</time></trkpt><trkpt lat="36.928443448153764" lon="15.164180534332843"><ele>23.0</ele><time>2026-03-28T18:02:32Z</time></trkpt><trkpt lat="36.92831839016053" lon="15.164034171243737"><ele>23.0</ele><time>2026-03-28T18:02:33Z</time></trkpt><trkpt lat="36.92818837199817" lon="15.163858489018796"><ele>23.0</ele><time>2026-03-28T18:02:34Z</time></trkpt><trkpt lat="36.928068752586654" lon="15.163679264705763"><ele>23.0</ele><time>2026-03-28T18:02:35Z</time></trkpt><trkpt lat="36.927950977300384" lon="15.163501449811697"><ele>23.0</ele><time>2026-03-28T18:02:36Z</time></trkpt><trkpt lat="36.92783279894637" lon="15.163326062685861"><ele>23.333333333333336</ele><time>2026-03-28T18:02:37Z</time></trkpt><trkpt lat="36.92771031478532" lon="15.163149077470434"><ele>23.666666666666668</ele><time>2026-03-28T18:02:38Z</time></trkpt><trkpt lat="36.92758942010172" lon="15.162975852701615"><ele>24.0</ele><time>2026-03-28T18:02:39Z</time></trkpt><trkpt lat="36.927473480306844" lon="15.16281120159443"><ele>23.666666666666668</ele><time>2026-03-28T18:02:40Z</time></trkpt><trkpt lat="36.92736097883719" lon="15.162652773235575"><ele>23.333333333333336</ele><time>2026-03-28T18:02:41Z</time></trkpt><trkpt lat="36.92725308632285" lon="15.162497232394138"><ele>23.0</ele><time>2026-03-28T18:02:42Z</time></trkpt><trkpt lat="36.92715113243998" lon="15.162342835894375"><ele>23.0</ele><time>2026-03-28T18:02:43Z</time></trkpt><trkpt lat="36.927051488635776" lon="15.162192907776108"><ele>23.0</ele><time>2026-03-28T18:02:44Z</time></trkpt><trkpt lat="36.92694909503848" lon="15.162039226988734"><ele>23.0</ele><time>2026-03-28T18:02:45Z</time></trkpt><trkpt lat="36.926848791358765" lon="15.161891477788444"><ele>23.0</ele><time>2026-03-28T18:02:46Z</time></trkpt><trkpt lat="36.92675078308495" lon="15.1617536788456"><ele>23.0</ele><time>2026-03-28T18:02:47Z</time></trkpt><trkpt lat="36.92665649545998" lon="15.161619120298377"><ele>23.0</ele><time>2026-03-28T18:02:48Z</time></trkpt><trkpt lat="36.926568135176" lon="15.161489101963992"><ele>23.0</ele><time>2026-03-28T18:02:49Z</time></trkpt><trkpt lat="36.9264852538889" lon="15.16135906614792"><ele>22.5</ele><time>2026-03-28T18:02:50Z</time></trkpt><trkpt lat="36.92640802714313" lon="15.161237578791745"><ele>22.0</ele><time>2026-03-28T18:02:51Z</time></trkpt><trkpt lat="36.92633358904811" lon="15.161130165324161"><ele>21.5</ele><time>2026-03-28T18:02:52Z</time></trkpt><trkpt lat="36.926262521733584" lon="15.161025848107084"><ele>21.0</ele><time>2026-03-28T18:02:53Z</time></trkpt><trkpt lat="36.92618829247724" lon="15.16091745171251"><ele>21.0</ele><time>2026-03-28T18:02:54Z</time></trkpt><trkpt lat="36.926120106391664" lon="15.16080039947617"><ele>21.0</ele><time>2026-03-28T18:02:55Z</time></trkpt><trkpt lat="36.92605499405525" lon="15.160678285169949"><ele>21.0</ele><time>2026-03-28T18:02:56Z</time></trkpt><trkpt lat="36.92599058429253" lon="15.160554736227223"><ele>21.0</ele><time>2026-03-28T18:02:57Z</time></trkpt><trkpt lat="36.92592807657921" lon="15.160427658858199"><ele>21.200000000000003</ele><time>2026-03-28T18:02:58Z</time></trkpt><trkpt lat="36.9258688698298" lon="15.160308033881302"><ele>21.400000000000002</ele><time>2026-03-28T18:02:59Z</time></trkpt><trkpt lat="36.925818409637294" lon="15.160204269848418"><ele>21.6</ele><time>2026-03-28T18:03:00Z</time></trkpt><trkpt lat="36.925754001903194" lon="15.160095366032674"><ele>21.8</ele><time>2026-03-28T18:03:02Z</time></trkpt><trkpt lat="36.925709020881584" lon="15.160010176872582"><ele>22.0</ele><time>2026-03-28T18:03:03Z</time></trkpt><trkpt lat="36.9256654881983" lon="15.159884239650385"><ele>22.6</ele><time>2026-03-28T18:03:04Z</time></trkpt><trkpt lat="36.925607565204515" lon="15.159754793250388"><ele>23.200000000000003</ele><time>2026-03-28T18:03:05Z</time></trkpt><trkpt lat="36.925547128453026" lon="15.159631145745829"><ele>23.8</ele><time>2026-03-28T18:03:06Z</time></trkpt><trkpt lat="36.92550052175073" lon="15.159531651875488"><ele>24.4</ele><time>2026-03-28T18:03:07Z</time></trkpt><trkpt lat="36.925466982896076" lon="15.159459280475252"><ele>25.0</ele><time>2026-03-28T18:03:08Z</time></trkpt><trkpt lat="36.92540081279579" lon="15.159334834826154"><ele>25.000000000000004</ele><time>2026-03-28T18:03:10Z</time></trkpt><trkpt lat="36.925362268525205" lon="15.159260106388901"><ele>25.0</ele><time>2026-03-28T18:03:11Z</time></trkpt><trkpt lat="36.925321265334986" lon="15.159127331423388"><ele>25.0</ele><time>2026-03-28T18:03:13Z</time></trkpt><trkpt lat="36.925328113733784" lon="15.159046874256154"><ele>25.0</ele><time>2026-03-28T18:03:14Z</time></trkpt><trkpt lat="36.92532322704419" lon="15.15895607810466"><ele>25.000000000000004</ele><time>2026-03-28T18:03:16Z</time></trkpt><trkpt lat="36.92522863218135" lon="15.158897913724974"><ele>25.0</ele><time>2026-03-28T18:03:18Z</time></trkpt><trkpt lat="36.92515734702641" lon="15.1588595920661"><ele>24.75</ele><time>2026-03-28T18:03:19Z</time></trkpt><trkpt lat="36.92509413084564" lon="15.158776974721384"><ele>24.5</ele><time>2026-03-28T18:03:20Z</time></trkpt><trkpt lat="36.925034539481906" lon="15.15866256259019"><ele>24.25</ele><time>2026-03-28T18:03:21Z</time></trkpt><trkpt lat="36.92497029946133" lon="15.158521561785076"><ele>24.0</ele><time>2026-03-28T18:03:22Z</time></trkpt><trkpt lat="36.924897768644584" lon="15.158367325910362"><ele>23.6</ele><time>2026-03-28T18:03:23Z</time></trkpt><trkpt lat="36.924828772291875" lon="15.158227961196243"><ele>23.2</ele><time>2026-03-28T18:03:24Z</time></trkpt><trkpt lat="36.924788145665616" lon="15.158092335492508"><ele>22.8</ele><time>2026-03-28T18:03:25Z</time></trkpt><trkpt lat="36.92473601717215" lon="15.157990426095905"><ele>22.400000000000002</ele><time>2026-03-28T18:03:26Z</time></trkpt><trkpt lat="36.92469605429123" lon="15.157911529987176"><ele>22.0</ele><time>2026-03-28T18:03:27Z</time></trkpt><trkpt lat="36.92466071263602" lon="15.157841389317984"><ele>22.0</ele><time>2026-03-28T18:03:28Z</time></trkpt><trkpt lat="36.92459602565001" lon="15.157751033806896"><ele>22.0</ele><time>2026-03-28T18:03:29Z</time></trkpt><trkpt lat="36.924525055778204" lon="15.157610740327078"><ele>22.0</ele><time>2026-03-28T18:03:30Z</time></trkpt><trkpt lat="36.92444286992495" lon="15.157463362969063"><ele>22.0</ele><time>2026-03-28T18:03:31Z</time></trkpt><trkpt lat="36.92436552544495" lon="15.157332967161421"><ele>22.0</ele><time>2026-03-28T18:03:32Z</time></trkpt><trkpt lat="36.92429778899087" lon="15.157214671620363"><ele>22.0</ele><time>2026-03-28T18:03:33Z</time></trkpt><trkpt lat="36.92422507784576" lon="15.15709677556744"><ele>22.0</ele><time>2026-03-28T18:03:34Z</time></trkpt><trkpt lat="36.92414894138459" lon="15.156941357656013"><ele>22.0</ele><time>2026-03-28T18:03:35Z</time></trkpt><trkpt lat="36.924059102416585" lon="15.156786009332276"><ele>22.0</ele><time>2026-03-28T18:03:36Z</time></trkpt><trkpt lat="36.923949185779385" lon="15.156637262333982"><ele>22.0</ele><time>2026-03-28T18:03:37Z</time></trkpt><trkpt lat="36.9238703580826" lon="15.15648679903885"><ele>22.0</ele><time>2026-03-28T18:03:38Z</time></trkpt><trkpt lat="36.92379353239323" lon="15.156349035846292"><ele>22.0</ele><time>2026-03-28T18:03:39Z</time></trkpt><trkpt lat="36.92372682817713" lon="15.156219795210967"><ele>22.0</ele><time>2026-03-28T18:03:40Z</time></trkpt><trkpt lat="36.923664702152784" lon="15.156102607176456"><ele>22.0</ele><time>2026-03-28T18:03:41Z</time></trkpt><trkpt lat="36.92360267328233" lon="15.15599795624003"><ele>22.0</ele><time>2026-03-28T18:03:42Z</time></trkpt><trkpt lat="36.92354511908736" lon="15.155898125033994"><ele>22.0</ele><time>2026-03-28T18:03:43Z</time></trkpt><trkpt lat="36.92348855612125" lon="15.155805319542806"><ele>22.0</ele><time>2026-03-28T18:03:44Z</time></trkpt><trkpt lat="36.92342315683761" lon="15.15572498850804"><ele>21.5</ele><time>2026-03-28T18:03:45Z</time></trkpt><trkpt lat="36.92337044400306" lon="15.155638956799175"><ele>21.0</ele><time>2026-03-28T18:03:46Z</time></trkpt><trkpt lat="36.923327859930644" lon="15.155543388997765"><ele>20.5</ele><time>2026-03-28T18:03:47Z</time></trkpt><trkpt lat="36.92328346679771" lon="15.155449769573352"><ele>20.0</ele><time>2026-03-28T18:03:48Z</time></trkpt><trkpt lat="36.92323440626698" lon="15.155365959162975"><ele>19.5</ele><time>2026-03-28T18:03:49Z</time></trkpt><trkpt lat="36.9231788266109" lon="15.155281071651647"><ele>19.0</ele><time>2026-03-28T18:03:50Z</time></trkpt><trkpt lat="36.923110771531185" lon="15.155164860199685"><ele>19.0</ele><time>2026-03-28T18:03:51Z</time></trkpt><trkpt lat="36.92304375377326" lon="15.155054978652142"><ele>19.0</ele><time>2026-03-28T18:03:52Z</time></trkpt><trkpt lat="36.92298796360415" lon="15.154955280635935"><ele>19.0</ele><time>2026-03-28T18:03:53Z</time></trkpt><trkpt lat="36.92292016326373" lon="15.154819065219543"><ele>19.0</ele><time>2026-03-28T18:03:54Z</time></trkpt><trkpt lat="36.922845208078364" lon="15.154686655988108"><ele>19.0</ele><time>2026-03-28T18:03:55Z</time></trkpt><trkpt lat="36.92274293712633" lon="15.154498929193437"><ele>19.0</ele><time>2026-03-28T18:03:56Z</time></trkpt><trkpt lat="36.92266766569729" lon="15.154356859932284"><ele>19.0</ele><time>2026-03-28T18:03:57Z</time></trkpt><trkpt lat="36.92260398641803" lon="15.154232339239508"><ele>19.0</ele><time>2026-03-28T18:03:58Z</time></trkpt><trkpt lat="36.9225423065276" lon="15.154111049705284"><ele>19.0</ele><time>2026-03-28T18:03:59Z</time></trkpt><trkpt lat="36.922480170962714" lon="15.153988864025733"><ele>19.0</ele><time>2026-03-28T18:04:00Z</time></trkpt><trkpt lat="36.922404791074136" lon="15.153842749269424"><ele>19.0</ele><time>2026-03-28T18:04:00.999Z</time></trkpt><trkpt lat="36.92231902632957" lon="15.153677623963409"><ele>19.0</ele><time>2026-03-28T18:04:01.999Z</time></trkpt><trkpt lat="36.922237401441116" lon="15.153520469370655"><ele>19.0</ele><time>2026-03-28T18:04:02.999Z</time></trkpt><trkpt lat="36.922165356204495" lon="15.1533817586068"><ele>19.0</ele><time>2026-03-28T18:04:03.999Z</time></trkpt><trkpt lat="36.92209412694903" lon="15.153243109732346"><ele>19.0</ele><time>2026-03-28T18:04:04.999Z</time></trkpt><trkpt lat="36.92202010324906" lon="15.153093817422805"><ele>19.0</ele><time>2026-03-28T18:04:05.999Z</time></trkpt><trkpt lat="36.92194639506088" lon="15.152935436076822"><ele>19.25</ele><time>2026-03-28T18:04:06.999Z</time></trkpt><trkpt lat="36.92187939354878" lon="15.152786595795385"><ele>19.5</ele><time>2026-03-28T18:04:07.999Z</time></trkpt><trkpt lat="36.92181890679148" lon="15.152650043706313"><ele>19.75</ele><time>2026-03-28T18:04:08.999Z</time></trkpt><trkpt lat="36.921755194065746" lon="15.152501113527892"><ele>20.0</ele><time>2026-03-28T18:04:09.999Z</time></trkpt><trkpt lat="36.9216893900036" lon="15.152336421190387"><ele>20.75</ele><time>2026-03-28T18:04:10.999Z</time></trkpt><trkpt lat="36.92162536063969" lon="15.152176702447276"><ele>21.5</ele><time>2026-03-28T18:04:11.999Z</time></trkpt><trkpt lat="36.9215663673272" lon="15.152034031180332"><ele>22.25</ele><time>2026-03-28T18:04:12.999Z</time></trkpt><trkpt lat="36.921509059118364" lon="15.15189543518791"><ele>23.0</ele><time>2026-03-28T18:04:13.999Z</time></trkpt><trkpt lat="36.92144916542772" lon="15.151750585607225"><ele>23.0</ele><time>2026-03-28T18:04:14.999Z</time></trkpt><trkpt lat="36.92138990712753" lon="15.151606431879829"><ele>23.0</ele><time>2026-03-28T18:04:15.999Z</time></trkpt><trkpt lat="36.921338639485775" lon="15.151481854112614"><ele>23.0</ele><time>2026-03-28T18:04:16.999Z</time></trkpt><trkpt lat="36.92129525618775" lon="15.151376434633212"><ele>23.0</ele><time>2026-03-28T18:04:17.999Z</time></trkpt><trkpt lat="36.92122295656356" lon="15.15129270400566"><ele>23.0</ele><time>2026-03-28T18:04:18.999Z</time></trkpt><trkpt lat="36.92118446948178" lon="15.151200047439495"><ele>23.4</ele><time>2026-03-28T18:04:19.999Z</time></trkpt><trkpt lat="36.92115387985056" lon="15.151118739261502"><ele>23.799999999999997</ele><time>2026-03-28T18:04:20.999Z</time></trkpt><trkpt lat="36.921069044877875" lon="15.15103628476052"><ele>24.2</ele><time>2026-03-28T18:04:23Z</time></trkpt><trkpt lat="36.92112099309207" lon="15.150984346174138"><ele>24.6</ele><time>2026-03-28T18:04:24Z</time></trkpt><trkpt lat="36.92100404274603" lon="15.15111354202723"><ele>25.0</ele><time>2026-03-28T18:04:25Z</time></trkpt><trkpt lat="36.92095929719555" lon="15.151187050249534"><ele>25.0</ele><time>2026-03-28T18:04:26Z</time></trkpt><trkpt lat="36.9209382021555" lon="15.151327622875591"><ele>25.0</ele><time>2026-03-28T18:04:27Z</time></trkpt><trkpt lat="36.92093118322572" lon="15.151479051420633"><ele>25.0</ele><time>2026-03-28T18:04:28Z</time></trkpt><trkpt lat="36.92093465018339" lon="15.151580550575149"><ele>25.0</ele><time>2026-03-28T18:04:29Z</time></trkpt><trkpt lat="36.92084868172325" lon="15.151587870003361"><ele>25.0</ele><time>2026-03-28T18:04:30Z</time></trkpt><trkpt lat="36.92080592601892" lon="15.151666519310279"><ele>24.833333333333336</ele><time>2026-03-28T18:04:32Z</time></trkpt><trkpt lat="36.920789994025554" lon="15.151534145602062"><ele>24.666666666666668</ele><time>2026-03-28T18:04:39Z</time></trkpt><trkpt lat="36.92085117936826" lon="15.151477234809363"><ele>24.5</ele><time>2026-03-28T18:04:41Z</time></trkpt><trkpt lat="36.92090163070731" lon="15.151582551747811"><ele>24.333333333333336</ele><time>2026-03-28T18:04:44Z</time></trkpt><trkpt lat="36.92083695516124" lon="15.15160094616202"><ele>24.166666666666668</ele><time>2026-03-28T18:07:38Z</time></trkpt><trkpt lat="36.92084661816324" lon="15.151689176079609"><ele>24.0</ele><time>2026-03-28T18:08:01Z</time></trkpt><trkpt lat="36.92080996422882" lon="15.15175483178506"><ele>22.0</ele><time>2026-03-28T18:08:07Z</time></trkpt><trkpt lat="36.920839268293136" lon="15.151644503614774"><ele>22.0</ele><time>2026-03-28T18:08:19.999Z</time></trkpt><trkpt lat="36.92091936022647" lon="15.151668113196553"><ele>23.0</ele><time>2026-03-28T18:21:39Z</time></trkpt></trkseg></trk></gpx>